<?xml version="1.0" encoding="UTF-8" standalone="no" ?>
<gpx xmlns="http://www.topografix.com/GPX/1/1" xmlns:xsi="http://www.w3.org/2001/XMLSchema-instance" xsi:schemaLocation="http://www.topografix.com/GPX/1/1 http://www.topografix.com/GPX/1/1/gpx.xsd" version="1.1" creator="VisuGPX - https://www.visugpx.com">
  <metadata>
    <name>Rando Moëlan</name>
  </metadata>
  <trk>
    <name><![CDATA[Sortie Gravel du côté de Moëllan sur Mer]]></name>
    <extensions>
      <line xmlns="http://www.topografix.com/GPX/gpx_style/0/2">
        <color>ff1100</color>
        <width>4</width>
      </line>
    </extensions>
    <trkseg>
      <trkpt lat="47.81215" lon="-3.63156">
        <ele>51.9</ele>
        <time>2023-01-27T12:21:41Z</time>
      </trkpt>
      <trkpt lat="47.81213" lon="-3.63158">
        <ele>51.9</ele>
        <time>2023-01-27T12:21:42Z</time>
      </trkpt>
      <trkpt lat="47.81214" lon="-3.63158">
        <ele>51.9</ele>
        <time>2023-01-27T12:21:43Z</time>
      </trkpt>
      <trkpt lat="47.81212" lon="-3.63159">
        <ele>51.9</ele>
        <time>2023-01-27T12:21:44Z</time>
      </trkpt>
      <trkpt lat="47.81211" lon="-3.6316">
        <ele>51.8</ele>
        <time>2023-01-27T12:21:45Z</time>
      </trkpt>
      <trkpt lat="47.8121" lon="-3.63162">
        <ele>51.8</ele>
        <time>2023-01-27T12:21:46Z</time>
      </trkpt>
      <trkpt lat="47.81209" lon="-3.63166">
        <ele>51.8</ele>
        <time>2023-01-27T12:21:47Z</time>
      </trkpt>
      <trkpt lat="47.81209" lon="-3.63168">
        <ele>51.8</ele>
        <time>2023-01-27T12:21:48Z</time>
      </trkpt>
      <trkpt lat="47.8121" lon="-3.63171">
        <ele>51.8</ele>
        <time>2023-01-27T12:21:49Z</time>
      </trkpt>
      <trkpt lat="47.81212" lon="-3.63175">
        <ele>51.8</ele>
        <time>2023-01-27T12:21:51Z</time>
      </trkpt>
      <trkpt lat="47.81215" lon="-3.6318">
        <ele>51.8</ele>
        <time>2023-01-27T12:21:52Z</time>
      </trkpt>
      <trkpt lat="47.81217" lon="-3.63188">
        <ele>51.8</ele>
        <time>2023-01-27T12:21:54Z</time>
      </trkpt>
      <trkpt lat="47.81216" lon="-3.63194">
        <ele>51.8</ele>
        <time>2023-01-27T12:21:55Z</time>
      </trkpt>
      <trkpt lat="47.81215" lon="-3.63199">
        <ele>51.6</ele>
        <time>2023-01-27T12:21:56Z</time>
      </trkpt>
      <trkpt lat="47.81212" lon="-3.63207">
        <ele>51.6</ele>
        <time>2023-01-27T12:21:57Z</time>
      </trkpt>
      <trkpt lat="47.81211" lon="-3.63212">
        <ele>51.6</ele>
        <time>2023-01-27T12:21:59Z</time>
      </trkpt>
      <trkpt lat="47.81209" lon="-3.63216">
        <ele>51.5</ele>
        <time>2023-01-27T12:22:00Z</time>
      </trkpt>
      <trkpt lat="47.81206" lon="-3.6322">
        <ele>51.4</ele>
        <time>2023-01-27T12:22:01Z</time>
      </trkpt>
      <trkpt lat="47.81202" lon="-3.63229">
        <ele>51.2</ele>
        <time>2023-01-27T12:22:02Z</time>
      </trkpt>
      <trkpt lat="47.81199" lon="-3.63234">
        <ele>51.1</ele>
        <time>2023-01-27T12:22:03Z</time>
      </trkpt>
      <trkpt lat="47.81196" lon="-3.63238">
        <ele>51</ele>
        <time>2023-01-27T12:22:04Z</time>
      </trkpt>
      <trkpt lat="47.81193" lon="-3.63243">
        <ele>50.9</ele>
        <time>2023-01-27T12:22:06Z</time>
      </trkpt>
      <trkpt lat="47.81191" lon="-3.63248">
        <ele>50.8</ele>
        <time>2023-01-27T12:22:07Z</time>
      </trkpt>
      <trkpt lat="47.81184" lon="-3.63256">
        <ele>50.6</ele>
        <time>2023-01-27T12:22:08Z</time>
      </trkpt>
      <trkpt lat="47.8118" lon="-3.63261">
        <ele>50.5</ele>
        <time>2023-01-27T12:22:10Z</time>
      </trkpt>
      <trkpt lat="47.81177" lon="-3.63267">
        <ele>50.4</ele>
        <time>2023-01-27T12:22:11Z</time>
      </trkpt>
      <trkpt lat="47.81174" lon="-3.63272">
        <ele>50.3</ele>
        <time>2023-01-27T12:22:12Z</time>
      </trkpt>
      <trkpt lat="47.8117" lon="-3.63277">
        <ele>50.2</ele>
        <time>2023-01-27T12:22:13Z</time>
      </trkpt>
      <trkpt lat="47.81167" lon="-3.63283">
        <ele>50.1</ele>
        <time>2023-01-27T12:22:14Z</time>
      </trkpt>
      <trkpt lat="47.81164" lon="-3.63288">
        <ele>50</ele>
        <time>2023-01-27T12:22:15Z</time>
      </trkpt>
      <trkpt lat="47.81162" lon="-3.63293">
        <ele>50</ele>
        <time>2023-01-27T12:22:16Z</time>
      </trkpt>
      <trkpt lat="47.81161" lon="-3.63296">
        <ele>49.9</ele>
        <time>2023-01-27T12:22:17Z</time>
      </trkpt>
      <trkpt lat="47.81155" lon="-3.63305">
        <ele>49.8</ele>
        <time>2023-01-27T12:22:19Z</time>
      </trkpt>
      <trkpt lat="47.81152" lon="-3.6331">
        <ele>49.7</ele>
        <time>2023-01-27T12:22:20Z</time>
      </trkpt>
      <trkpt lat="47.81151" lon="-3.63314">
        <ele>49.7</ele>
        <time>2023-01-27T12:22:21Z</time>
      </trkpt>
      <trkpt lat="47.8115" lon="-3.63316">
        <ele>49.7</ele>
        <time>2023-01-27T12:22:22Z</time>
      </trkpt>
      <trkpt lat="47.81149" lon="-3.63317">
        <ele>49.6</ele>
        <time>2023-01-27T12:22:23Z</time>
      </trkpt>
      <trkpt lat="47.81149" lon="-3.63317">
        <ele>49.6</ele>
        <time>2023-01-27T12:22:24Z</time>
      </trkpt>
      <trkpt lat="47.81149" lon="-3.63317">
        <ele>49.6</ele>
        <time>2023-01-27T12:22:26Z</time>
      </trkpt>
      <trkpt lat="47.81148" lon="-3.63318">
        <ele>49.6</ele>
        <time>2023-01-27T12:22:27Z</time>
      </trkpt>
      <trkpt lat="47.81148" lon="-3.63318">
        <ele>49.6</ele>
        <time>2023-01-27T12:22:28Z</time>
      </trkpt>
      <trkpt lat="47.81148" lon="-3.63318">
        <ele>49.6</ele>
        <time>2023-01-27T12:22:29Z</time>
      </trkpt>
      <trkpt lat="47.81147" lon="-3.63319">
        <ele>49.6</ele>
        <time>2023-01-27T12:22:30Z</time>
      </trkpt>
      <trkpt lat="47.81147" lon="-3.63319">
        <ele>49.6</ele>
        <time>2023-01-27T12:22:31Z</time>
      </trkpt>
      <trkpt lat="47.81146" lon="-3.63319">
        <ele>49.6</ele>
        <time>2023-01-27T12:22:32Z</time>
      </trkpt>
      <trkpt lat="47.81146" lon="-3.6332">
        <ele>49.6</ele>
        <time>2023-01-27T12:23:08Z</time>
      </trkpt>
      <trkpt lat="47.81146" lon="-3.6332">
        <ele>49.6</ele>
        <time>2023-01-27T12:23:09Z</time>
      </trkpt>
      <trkpt lat="47.81145" lon="-3.6332">
        <ele>49.6</ele>
        <time>2023-01-27T12:23:10Z</time>
      </trkpt>
      <trkpt lat="47.81143" lon="-3.63324">
        <ele>49.5</ele>
        <time>2023-01-27T12:23:11Z</time>
      </trkpt>
      <trkpt lat="47.81141" lon="-3.63327">
        <ele>49.5</ele>
        <time>2023-01-27T12:23:12Z</time>
      </trkpt>
      <trkpt lat="47.81137" lon="-3.63333">
        <ele>49.4</ele>
        <time>2023-01-27T12:23:13Z</time>
      </trkpt>
      <trkpt lat="47.81135" lon="-3.63336">
        <ele>49.3</ele>
        <time>2023-01-27T12:23:14Z</time>
      </trkpt>
      <trkpt lat="47.81134" lon="-3.6334">
        <ele>49.3</ele>
        <time>2023-01-27T12:23:15Z</time>
      </trkpt>
      <trkpt lat="47.81133" lon="-3.63342">
        <ele>49.2</ele>
        <time>2023-01-27T12:23:16Z</time>
      </trkpt>
      <trkpt lat="47.81128" lon="-3.63349">
        <ele>49.1</ele>
        <time>2023-01-27T12:23:17Z</time>
      </trkpt>
      <trkpt lat="47.81123" lon="-3.63356">
        <ele>49</ele>
        <time>2023-01-27T12:23:18Z</time>
      </trkpt>
      <trkpt lat="47.81119" lon="-3.63362">
        <ele>48.9</ele>
        <time>2023-01-27T12:23:19Z</time>
      </trkpt>
      <trkpt lat="47.81116" lon="-3.63368">
        <ele>48.8</ele>
        <time>2023-01-27T12:23:20Z</time>
      </trkpt>
      <trkpt lat="47.81113" lon="-3.63375">
        <ele>48.7</ele>
        <time>2023-01-27T12:23:21Z</time>
      </trkpt>
      <trkpt lat="47.81109" lon="-3.63381">
        <ele>48.6</ele>
        <time>2023-01-27T12:23:22Z</time>
      </trkpt>
      <trkpt lat="47.81106" lon="-3.63387">
        <ele>48.5</ele>
        <time>2023-01-27T12:23:23Z</time>
      </trkpt>
      <trkpt lat="47.81103" lon="-3.63394">
        <ele>48.3</ele>
        <time>2023-01-27T12:23:24Z</time>
      </trkpt>
      <trkpt lat="47.81099" lon="-3.63401">
        <ele>48.2</ele>
        <time>2023-01-27T12:23:25Z</time>
      </trkpt>
      <trkpt lat="47.81096" lon="-3.63409">
        <ele>48.1</ele>
        <time>2023-01-27T12:23:26Z</time>
      </trkpt>
      <trkpt lat="47.81092" lon="-3.63416">
        <ele>48</ele>
        <time>2023-01-27T12:23:27Z</time>
      </trkpt>
      <trkpt lat="47.81089" lon="-3.63424">
        <ele>47.9</ele>
        <time>2023-01-27T12:23:28Z</time>
      </trkpt>
      <trkpt lat="47.81085" lon="-3.63431">
        <ele>47.8</ele>
        <time>2023-01-27T12:23:29Z</time>
      </trkpt>
      <trkpt lat="47.81082" lon="-3.63438">
        <ele>47.7</ele>
        <time>2023-01-27T12:23:30Z</time>
      </trkpt>
      <trkpt lat="47.81078" lon="-3.63446">
        <ele>47.6</ele>
        <time>2023-01-27T12:23:31Z</time>
      </trkpt>
      <trkpt lat="47.81075" lon="-3.63454">
        <ele>47.4</ele>
        <time>2023-01-27T12:23:32Z</time>
      </trkpt>
      <trkpt lat="47.81071" lon="-3.63462">
        <ele>47.3</ele>
        <time>2023-01-27T12:23:33Z</time>
      </trkpt>
      <trkpt lat="47.81067" lon="-3.6347">
        <ele>47.2</ele>
        <time>2023-01-27T12:23:34Z</time>
      </trkpt>
      <trkpt lat="47.81064" lon="-3.63479">
        <ele>47</ele>
        <time>2023-01-27T12:23:35Z</time>
      </trkpt>
      <trkpt lat="47.8106" lon="-3.63488">
        <ele>46.9</ele>
        <time>2023-01-27T12:23:36Z</time>
      </trkpt>
      <trkpt lat="47.81056" lon="-3.63498">
        <ele>46.6</ele>
        <time>2023-01-27T12:23:37Z</time>
      </trkpt>
      <trkpt lat="47.81051" lon="-3.63507">
        <ele>46.4</ele>
        <time>2023-01-27T12:23:38Z</time>
      </trkpt>
      <trkpt lat="47.81047" lon="-3.63516">
        <ele>46.1</ele>
        <time>2023-01-27T12:23:39Z</time>
      </trkpt>
      <trkpt lat="47.81042" lon="-3.63525">
        <ele>45.8</ele>
        <time>2023-01-27T12:23:40Z</time>
      </trkpt>
      <trkpt lat="47.81038" lon="-3.63534">
        <ele>45.6</ele>
        <time>2023-01-27T12:23:41Z</time>
      </trkpt>
      <trkpt lat="47.81032" lon="-3.63543">
        <ele>45.3</ele>
        <time>2023-01-27T12:23:42Z</time>
      </trkpt>
      <trkpt lat="47.81027" lon="-3.63551">
        <ele>44.9</ele>
        <time>2023-01-27T12:23:43Z</time>
      </trkpt>
      <trkpt lat="47.81021" lon="-3.63559">
        <ele>44.6</ele>
        <time>2023-01-27T12:23:44Z</time>
      </trkpt>
      <trkpt lat="47.81014" lon="-3.63567">
        <ele>44.3</ele>
        <time>2023-01-27T12:23:45Z</time>
      </trkpt>
      <trkpt lat="47.81007" lon="-3.63574">
        <ele>43.9</ele>
        <time>2023-01-27T12:23:46Z</time>
      </trkpt>
      <trkpt lat="47.81" lon="-3.63582">
        <ele>43.5</ele>
        <time>2023-01-27T12:23:47Z</time>
      </trkpt>
      <trkpt lat="47.80992" lon="-3.63589">
        <ele>43.2</ele>
        <time>2023-01-27T12:23:48Z</time>
      </trkpt>
      <trkpt lat="47.80985" lon="-3.63597">
        <ele>43</ele>
        <time>2023-01-27T12:23:49Z</time>
      </trkpt>
      <trkpt lat="47.80978" lon="-3.63605">
        <ele>42.7</ele>
        <time>2023-01-27T12:23:50Z</time>
      </trkpt>
      <trkpt lat="47.8097" lon="-3.63612">
        <ele>42.6</ele>
        <time>2023-01-27T12:23:51Z</time>
      </trkpt>
      <trkpt lat="47.80963" lon="-3.63621">
        <ele>42.4</ele>
        <time>2023-01-27T12:23:52Z</time>
      </trkpt>
      <trkpt lat="47.80956" lon="-3.63629">
        <ele>42.3</ele>
        <time>2023-01-27T12:23:53Z</time>
      </trkpt>
      <trkpt lat="47.8095" lon="-3.63638">
        <ele>42.1</ele>
        <time>2023-01-27T12:23:54Z</time>
      </trkpt>
      <trkpt lat="47.80944" lon="-3.63648">
        <ele>42</ele>
        <time>2023-01-27T12:23:55Z</time>
      </trkpt>
      <trkpt lat="47.80939" lon="-3.63659">
        <ele>41.9</ele>
        <time>2023-01-27T12:23:56Z</time>
      </trkpt>
      <trkpt lat="47.80935" lon="-3.63669">
        <ele>41.8</ele>
        <time>2023-01-27T12:23:57Z</time>
      </trkpt>
      <trkpt lat="47.8093" lon="-3.63679">
        <ele>41.7</ele>
        <time>2023-01-27T12:23:58Z</time>
      </trkpt>
      <trkpt lat="47.80926" lon="-3.63689">
        <ele>41.7</ele>
        <time>2023-01-27T12:23:59Z</time>
      </trkpt>
      <trkpt lat="47.80922" lon="-3.63699">
        <ele>41.6</ele>
        <time>2023-01-27T12:24:00Z</time>
      </trkpt>
      <trkpt lat="47.80917" lon="-3.6371">
        <ele>41.6</ele>
        <time>2023-01-27T12:24:01Z</time>
      </trkpt>
      <trkpt lat="47.80912" lon="-3.6372">
        <ele>41.5</ele>
        <time>2023-01-27T12:24:02Z</time>
      </trkpt>
      <trkpt lat="47.80908" lon="-3.6373">
        <ele>41.5</ele>
        <time>2023-01-27T12:24:03Z</time>
      </trkpt>
      <trkpt lat="47.80904" lon="-3.6374">
        <ele>41.6</ele>
        <time>2023-01-27T12:24:04Z</time>
      </trkpt>
      <trkpt lat="47.809" lon="-3.6375">
        <ele>41.6</ele>
        <time>2023-01-27T12:24:05Z</time>
      </trkpt>
      <trkpt lat="47.80896" lon="-3.6376">
        <ele>41.7</ele>
        <time>2023-01-27T12:24:06Z</time>
      </trkpt>
      <trkpt lat="47.80891" lon="-3.63769">
        <ele>41.7</ele>
        <time>2023-01-27T12:24:07Z</time>
      </trkpt>
      <trkpt lat="47.80887" lon="-3.63778">
        <ele>41.8</ele>
        <time>2023-01-27T12:24:08Z</time>
      </trkpt>
      <trkpt lat="47.80882" lon="-3.63786">
        <ele>41.9</ele>
        <time>2023-01-27T12:24:09Z</time>
      </trkpt>
      <trkpt lat="47.80878" lon="-3.63795">
        <ele>42</ele>
        <time>2023-01-27T12:24:10Z</time>
      </trkpt>
      <trkpt lat="47.80873" lon="-3.63803">
        <ele>42</ele>
        <time>2023-01-27T12:24:11Z</time>
      </trkpt>
      <trkpt lat="47.8087" lon="-3.63812">
        <ele>42.2</ele>
        <time>2023-01-27T12:24:12Z</time>
      </trkpt>
      <trkpt lat="47.80868" lon="-3.63822">
        <ele>42.4</ele>
        <time>2023-01-27T12:24:13Z</time>
      </trkpt>
      <trkpt lat="47.80865" lon="-3.63831">
        <ele>42.7</ele>
        <time>2023-01-27T12:24:14Z</time>
      </trkpt>
      <trkpt lat="47.80864" lon="-3.6384">
        <ele>42.9</ele>
        <time>2023-01-27T12:24:15Z</time>
      </trkpt>
      <trkpt lat="47.80863" lon="-3.63849">
        <ele>43</ele>
        <time>2023-01-27T12:24:16Z</time>
      </trkpt>
      <trkpt lat="47.80862" lon="-3.63858">
        <ele>43.2</ele>
        <time>2023-01-27T12:24:17Z</time>
      </trkpt>
      <trkpt lat="47.80861" lon="-3.63867">
        <ele>43.3</ele>
        <time>2023-01-27T12:24:18Z</time>
      </trkpt>
      <trkpt lat="47.8086" lon="-3.63876">
        <ele>43.4</ele>
        <time>2023-01-27T12:24:19Z</time>
      </trkpt>
      <trkpt lat="47.8086" lon="-3.63884">
        <ele>43.4</ele>
        <time>2023-01-27T12:24:20Z</time>
      </trkpt>
      <trkpt lat="47.80859" lon="-3.63893">
        <ele>43.5</ele>
        <time>2023-01-27T12:24:21Z</time>
      </trkpt>
      <trkpt lat="47.80858" lon="-3.63902">
        <ele>43.6</ele>
        <time>2023-01-27T12:24:22Z</time>
      </trkpt>
      <trkpt lat="47.80857" lon="-3.6391">
        <ele>43.7</ele>
        <time>2023-01-27T12:24:23Z</time>
      </trkpt>
      <trkpt lat="47.80857" lon="-3.63919">
        <ele>43.8</ele>
        <time>2023-01-27T12:24:24Z</time>
      </trkpt>
      <trkpt lat="47.80856" lon="-3.63927">
        <ele>44</ele>
        <time>2023-01-27T12:24:25Z</time>
      </trkpt>
      <trkpt lat="47.80855" lon="-3.63935">
        <ele>44.1</ele>
        <time>2023-01-27T12:24:26Z</time>
      </trkpt>
      <trkpt lat="47.80854" lon="-3.63944">
        <ele>44.2</ele>
        <time>2023-01-27T12:24:27Z</time>
      </trkpt>
      <trkpt lat="47.80854" lon="-3.63952">
        <ele>44.4</ele>
        <time>2023-01-27T12:24:28Z</time>
      </trkpt>
      <trkpt lat="47.80854" lon="-3.63961">
        <ele>44.5</ele>
        <time>2023-01-27T12:24:29Z</time>
      </trkpt>
      <trkpt lat="47.80854" lon="-3.6397">
        <ele>44.6</ele>
        <time>2023-01-27T12:24:30Z</time>
      </trkpt>
      <trkpt lat="47.80854" lon="-3.63978">
        <ele>44.6</ele>
        <time>2023-01-27T12:24:31Z</time>
      </trkpt>
      <trkpt lat="47.80853" lon="-3.63987">
        <ele>44.7</ele>
        <time>2023-01-27T12:24:32Z</time>
      </trkpt>
      <trkpt lat="47.80854" lon="-3.63996">
        <ele>44.7</ele>
        <time>2023-01-27T12:24:33Z</time>
      </trkpt>
      <trkpt lat="47.80854" lon="-3.64005">
        <ele>44.8</ele>
        <time>2023-01-27T12:24:34Z</time>
      </trkpt>
      <trkpt lat="47.80854" lon="-3.64013">
        <ele>44.8</ele>
        <time>2023-01-27T12:24:35Z</time>
      </trkpt>
      <trkpt lat="47.80854" lon="-3.64022">
        <ele>44.8</ele>
        <time>2023-01-27T12:24:36Z</time>
      </trkpt>
      <trkpt lat="47.80854" lon="-3.6403">
        <ele>44.8</ele>
        <time>2023-01-27T12:24:37Z</time>
      </trkpt>
      <trkpt lat="47.80854" lon="-3.64039">
        <ele>44.8</ele>
        <time>2023-01-27T12:24:38Z</time>
      </trkpt>
      <trkpt lat="47.80853" lon="-3.64048">
        <ele>44.8</ele>
        <time>2023-01-27T12:24:39Z</time>
      </trkpt>
      <trkpt lat="47.80853" lon="-3.64057">
        <ele>44.8</ele>
        <time>2023-01-27T12:24:40Z</time>
      </trkpt>
      <trkpt lat="47.80853" lon="-3.64066">
        <ele>44.8</ele>
        <time>2023-01-27T12:24:41Z</time>
      </trkpt>
      <trkpt lat="47.80853" lon="-3.64075">
        <ele>44.7</ele>
        <time>2023-01-27T12:24:42Z</time>
      </trkpt>
      <trkpt lat="47.80854" lon="-3.64085">
        <ele>44.7</ele>
        <time>2023-01-27T12:24:43Z</time>
      </trkpt>
      <trkpt lat="47.80853" lon="-3.64094">
        <ele>44.7</ele>
        <time>2023-01-27T12:24:44Z</time>
      </trkpt>
      <trkpt lat="47.80853" lon="-3.64103">
        <ele>44.7</ele>
        <time>2023-01-27T12:24:45Z</time>
      </trkpt>
      <trkpt lat="47.80853" lon="-3.64112">
        <ele>44.7</ele>
        <time>2023-01-27T12:24:46Z</time>
      </trkpt>
      <trkpt lat="47.80853" lon="-3.64122">
        <ele>44.7</ele>
        <time>2023-01-27T12:24:47Z</time>
      </trkpt>
      <trkpt lat="47.80853" lon="-3.64131">
        <ele>44.8</ele>
        <time>2023-01-27T12:24:48Z</time>
      </trkpt>
      <trkpt lat="47.80853" lon="-3.64141">
        <ele>44.9</ele>
        <time>2023-01-27T12:24:49Z</time>
      </trkpt>
      <trkpt lat="47.80853" lon="-3.6415">
        <ele>44.9</ele>
        <time>2023-01-27T12:24:50Z</time>
      </trkpt>
      <trkpt lat="47.80853" lon="-3.64159">
        <ele>45</ele>
        <time>2023-01-27T12:24:51Z</time>
      </trkpt>
      <trkpt lat="47.80853" lon="-3.64169">
        <ele>45.1</ele>
        <time>2023-01-27T12:24:52Z</time>
      </trkpt>
      <trkpt lat="47.80854" lon="-3.64178">
        <ele>45.2</ele>
        <time>2023-01-27T12:24:53Z</time>
      </trkpt>
      <trkpt lat="47.80854" lon="-3.64188">
        <ele>45.3</ele>
        <time>2023-01-27T12:24:54Z</time>
      </trkpt>
      <trkpt lat="47.80854" lon="-3.64197">
        <ele>45.4</ele>
        <time>2023-01-27T12:24:55Z</time>
      </trkpt>
      <trkpt lat="47.80854" lon="-3.64206">
        <ele>45.5</ele>
        <time>2023-01-27T12:24:56Z</time>
      </trkpt>
      <trkpt lat="47.80855" lon="-3.64216">
        <ele>45.6</ele>
        <time>2023-01-27T12:24:57Z</time>
      </trkpt>
      <trkpt lat="47.80855" lon="-3.64225">
        <ele>45.8</ele>
        <time>2023-01-27T12:24:58Z</time>
      </trkpt>
      <trkpt lat="47.80855" lon="-3.64234">
        <ele>45.9</ele>
        <time>2023-01-27T12:24:59Z</time>
      </trkpt>
      <trkpt lat="47.80856" lon="-3.64243">
        <ele>46.1</ele>
        <time>2023-01-27T12:25:00Z</time>
      </trkpt>
      <trkpt lat="47.80856" lon="-3.64252">
        <ele>46.3</ele>
        <time>2023-01-27T12:25:01Z</time>
      </trkpt>
      <trkpt lat="47.80857" lon="-3.64261">
        <ele>46.4</ele>
        <time>2023-01-27T12:25:02Z</time>
      </trkpt>
      <trkpt lat="47.80858" lon="-3.6427">
        <ele>46.6</ele>
        <time>2023-01-27T12:25:03Z</time>
      </trkpt>
      <trkpt lat="47.80859" lon="-3.64279">
        <ele>46.9</ele>
        <time>2023-01-27T12:25:04Z</time>
      </trkpt>
      <trkpt lat="47.80862" lon="-3.64286">
        <ele>47.1</ele>
        <time>2023-01-27T12:25:05Z</time>
      </trkpt>
      <trkpt lat="47.80866" lon="-3.64292">
        <ele>48</ele>
        <time>2023-01-27T12:25:06Z</time>
      </trkpt>
      <trkpt lat="47.80872" lon="-3.64296">
        <ele>48.1</ele>
        <time>2023-01-27T12:25:07Z</time>
      </trkpt>
      <trkpt lat="47.80877" lon="-3.64297">
        <ele>48.1</ele>
        <time>2023-01-27T12:25:08Z</time>
      </trkpt>
      <trkpt lat="47.80883" lon="-3.64296">
        <ele>48.2</ele>
        <time>2023-01-27T12:25:09Z</time>
      </trkpt>
      <trkpt lat="47.80888" lon="-3.64293">
        <ele>48.2</ele>
        <time>2023-01-27T12:25:10Z</time>
      </trkpt>
      <trkpt lat="47.80893" lon="-3.64291">
        <ele>48.3</ele>
        <time>2023-01-27T12:25:11Z</time>
      </trkpt>
      <trkpt lat="47.80899" lon="-3.64288">
        <ele>48.4</ele>
        <time>2023-01-27T12:25:12Z</time>
      </trkpt>
      <trkpt lat="47.80905" lon="-3.64285">
        <ele>48.4</ele>
        <time>2023-01-27T12:25:13Z</time>
      </trkpt>
      <trkpt lat="47.8091" lon="-3.64283">
        <ele>48.5</ele>
        <time>2023-01-27T12:25:14Z</time>
      </trkpt>
      <trkpt lat="47.80916" lon="-3.64281">
        <ele>48.6</ele>
        <time>2023-01-27T12:25:15Z</time>
      </trkpt>
      <trkpt lat="47.80922" lon="-3.64279">
        <ele>48.7</ele>
        <time>2023-01-27T12:25:16Z</time>
      </trkpt>
      <trkpt lat="47.80927" lon="-3.64277">
        <ele>48.8</ele>
        <time>2023-01-27T12:25:17Z</time>
      </trkpt>
      <trkpt lat="47.80933" lon="-3.64275">
        <ele>48.9</ele>
        <time>2023-01-27T12:25:18Z</time>
      </trkpt>
      <trkpt lat="47.80938" lon="-3.64272">
        <ele>49</ele>
        <time>2023-01-27T12:25:19Z</time>
      </trkpt>
      <trkpt lat="47.80943" lon="-3.6427">
        <ele>49.1</ele>
        <time>2023-01-27T12:25:20Z</time>
      </trkpt>
      <trkpt lat="47.80948" lon="-3.64267">
        <ele>49.2</ele>
        <time>2023-01-27T12:25:21Z</time>
      </trkpt>
      <trkpt lat="47.80954" lon="-3.64265">
        <ele>49.3</ele>
        <time>2023-01-27T12:25:22Z</time>
      </trkpt>
      <trkpt lat="47.80959" lon="-3.64263">
        <ele>49.4</ele>
        <time>2023-01-27T12:25:23Z</time>
      </trkpt>
      <trkpt lat="47.80964" lon="-3.6426">
        <ele>49.5</ele>
        <time>2023-01-27T12:25:24Z</time>
      </trkpt>
      <trkpt lat="47.80969" lon="-3.64258">
        <ele>49.6</ele>
        <time>2023-01-27T12:25:25Z</time>
      </trkpt>
      <trkpt lat="47.80975" lon="-3.64256">
        <ele>49.6</ele>
        <time>2023-01-27T12:25:26Z</time>
      </trkpt>
      <trkpt lat="47.8098" lon="-3.64254">
        <ele>49.7</ele>
        <time>2023-01-27T12:25:27Z</time>
      </trkpt>
      <trkpt lat="47.80986" lon="-3.64252">
        <ele>49.8</ele>
        <time>2023-01-27T12:25:28Z</time>
      </trkpt>
      <trkpt lat="47.80991" lon="-3.6425">
        <ele>49.9</ele>
        <time>2023-01-27T12:25:29Z</time>
      </trkpt>
      <trkpt lat="47.80996" lon="-3.64248">
        <ele>50</ele>
        <time>2023-01-27T12:25:30Z</time>
      </trkpt>
      <trkpt lat="47.81002" lon="-3.64246">
        <ele>50.1</ele>
        <time>2023-01-27T12:25:31Z</time>
      </trkpt>
      <trkpt lat="47.81007" lon="-3.64244">
        <ele>50.2</ele>
        <time>2023-01-27T12:25:32Z</time>
      </trkpt>
      <trkpt lat="47.81013" lon="-3.64242">
        <ele>50.2</ele>
        <time>2023-01-27T12:25:33Z</time>
      </trkpt>
      <trkpt lat="47.81018" lon="-3.64241">
        <ele>50.3</ele>
        <time>2023-01-27T12:25:34Z</time>
      </trkpt>
      <trkpt lat="47.81023" lon="-3.6424">
        <ele>50.3</ele>
        <time>2023-01-27T12:25:35Z</time>
      </trkpt>
      <trkpt lat="47.81029" lon="-3.64239">
        <ele>50.4</ele>
        <time>2023-01-27T12:25:36Z</time>
      </trkpt>
      <trkpt lat="47.81034" lon="-3.64239">
        <ele>50.4</ele>
        <time>2023-01-27T12:25:37Z</time>
      </trkpt>
      <trkpt lat="47.81039" lon="-3.64239">
        <ele>50.5</ele>
        <time>2023-01-27T12:25:38Z</time>
      </trkpt>
      <trkpt lat="47.81044" lon="-3.6424">
        <ele>50.5</ele>
        <time>2023-01-27T12:25:39Z</time>
      </trkpt>
      <trkpt lat="47.81049" lon="-3.6424">
        <ele>50.5</ele>
        <time>2023-01-27T12:25:40Z</time>
      </trkpt>
      <trkpt lat="47.81054" lon="-3.64242">
        <ele>50.5</ele>
        <time>2023-01-27T12:25:41Z</time>
      </trkpt>
      <trkpt lat="47.81059" lon="-3.64244">
        <ele>50.5</ele>
        <time>2023-01-27T12:25:42Z</time>
      </trkpt>
      <trkpt lat="47.81064" lon="-3.64246">
        <ele>50.5</ele>
        <time>2023-01-27T12:25:43Z</time>
      </trkpt>
      <trkpt lat="47.81068" lon="-3.64248">
        <ele>50.4</ele>
        <time>2023-01-27T12:25:44Z</time>
      </trkpt>
      <trkpt lat="47.81073" lon="-3.6425">
        <ele>50.4</ele>
        <time>2023-01-27T12:25:45Z</time>
      </trkpt>
      <trkpt lat="47.81078" lon="-3.64253">
        <ele>50.4</ele>
        <time>2023-01-27T12:25:46Z</time>
      </trkpt>
      <trkpt lat="47.81083" lon="-3.64256">
        <ele>50.3</ele>
        <time>2023-01-27T12:25:47Z</time>
      </trkpt>
      <trkpt lat="47.81088" lon="-3.64259">
        <ele>50.2</ele>
        <time>2023-01-27T12:25:48Z</time>
      </trkpt>
      <trkpt lat="47.81094" lon="-3.64262">
        <ele>50.1</ele>
        <time>2023-01-27T12:25:49Z</time>
      </trkpt>
      <trkpt lat="47.81098" lon="-3.64266">
        <ele>50.1</ele>
        <time>2023-01-27T12:25:50Z</time>
      </trkpt>
      <trkpt lat="47.81104" lon="-3.64269">
        <ele>50</ele>
        <time>2023-01-27T12:25:51Z</time>
      </trkpt>
      <trkpt lat="47.81109" lon="-3.64273">
        <ele>49.9</ele>
        <time>2023-01-27T12:25:52Z</time>
      </trkpt>
      <trkpt lat="47.81115" lon="-3.64276">
        <ele>49.8</ele>
        <time>2023-01-27T12:25:53Z</time>
      </trkpt>
      <trkpt lat="47.8112" lon="-3.6428">
        <ele>49.7</ele>
        <time>2023-01-27T12:25:54Z</time>
      </trkpt>
      <trkpt lat="47.81125" lon="-3.64284">
        <ele>49.6</ele>
        <time>2023-01-27T12:25:55Z</time>
      </trkpt>
      <trkpt lat="47.8113" lon="-3.64288">
        <ele>49.5</ele>
        <time>2023-01-27T12:25:56Z</time>
      </trkpt>
      <trkpt lat="47.81136" lon="-3.64292">
        <ele>49.4</ele>
        <time>2023-01-27T12:25:57Z</time>
      </trkpt>
      <trkpt lat="47.81141" lon="-3.64296">
        <ele>49.3</ele>
        <time>2023-01-27T12:25:58Z</time>
      </trkpt>
      <trkpt lat="47.81146" lon="-3.643">
        <ele>49.2</ele>
        <time>2023-01-27T12:25:59Z</time>
      </trkpt>
      <trkpt lat="47.81151" lon="-3.64304">
        <ele>49.1</ele>
        <time>2023-01-27T12:26:00Z</time>
      </trkpt>
      <trkpt lat="47.81157" lon="-3.64308">
        <ele>48.9</ele>
        <time>2023-01-27T12:26:01Z</time>
      </trkpt>
      <trkpt lat="47.81162" lon="-3.64312">
        <ele>48.7</ele>
        <time>2023-01-27T12:26:02Z</time>
      </trkpt>
      <trkpt lat="47.81167" lon="-3.64315">
        <ele>48.6</ele>
        <time>2023-01-27T12:26:03Z</time>
      </trkpt>
      <trkpt lat="47.81173" lon="-3.6432">
        <ele>48.4</ele>
        <time>2023-01-27T12:26:04Z</time>
      </trkpt>
      <trkpt lat="47.81178" lon="-3.64323">
        <ele>48.2</ele>
        <time>2023-01-27T12:26:05Z</time>
      </trkpt>
      <trkpt lat="47.81184" lon="-3.64326">
        <ele>47.9</ele>
        <time>2023-01-27T12:26:06Z</time>
      </trkpt>
      <trkpt lat="47.81191" lon="-3.64328">
        <ele>47.7</ele>
        <time>2023-01-27T12:26:07Z</time>
      </trkpt>
      <trkpt lat="47.81197" lon="-3.6433">
        <ele>47.5</ele>
        <time>2023-01-27T12:26:08Z</time>
      </trkpt>
      <trkpt lat="47.81203" lon="-3.64332">
        <ele>47.2</ele>
        <time>2023-01-27T12:26:09Z</time>
      </trkpt>
      <trkpt lat="47.8121" lon="-3.64334">
        <ele>46.9</ele>
        <time>2023-01-27T12:26:10Z</time>
      </trkpt>
      <trkpt lat="47.81216" lon="-3.64335">
        <ele>46.6</ele>
        <time>2023-01-27T12:26:11Z</time>
      </trkpt>
      <trkpt lat="47.81223" lon="-3.64337">
        <ele>46.2</ele>
        <time>2023-01-27T12:26:12Z</time>
      </trkpt>
      <trkpt lat="47.8123" lon="-3.64338">
        <ele>45.9</ele>
        <time>2023-01-27T12:26:13Z</time>
      </trkpt>
      <trkpt lat="47.81237" lon="-3.64338">
        <ele>45.5</ele>
        <time>2023-01-27T12:26:14Z</time>
      </trkpt>
      <trkpt lat="47.81244" lon="-3.64339">
        <ele>45.1</ele>
        <time>2023-01-27T12:26:15Z</time>
      </trkpt>
      <trkpt lat="47.81251" lon="-3.6434">
        <ele>44.7</ele>
        <time>2023-01-27T12:26:16Z</time>
      </trkpt>
      <trkpt lat="47.81258" lon="-3.64341">
        <ele>44.4</ele>
        <time>2023-01-27T12:26:17Z</time>
      </trkpt>
      <trkpt lat="47.81266" lon="-3.64342">
        <ele>44</ele>
        <time>2023-01-27T12:26:18Z</time>
      </trkpt>
      <trkpt lat="47.81273" lon="-3.64343">
        <ele>43.6</ele>
        <time>2023-01-27T12:26:19Z</time>
      </trkpt>
      <trkpt lat="47.8128" lon="-3.64344">
        <ele>43.2</ele>
        <time>2023-01-27T12:26:20Z</time>
      </trkpt>
      <trkpt lat="47.81288" lon="-3.64345">
        <ele>42.8</ele>
        <time>2023-01-27T12:26:21Z</time>
      </trkpt>
      <trkpt lat="47.81296" lon="-3.64346">
        <ele>42.4</ele>
        <time>2023-01-27T12:26:22Z</time>
      </trkpt>
      <trkpt lat="47.81304" lon="-3.64347">
        <ele>42.1</ele>
        <time>2023-01-27T12:26:23Z</time>
      </trkpt>
      <trkpt lat="47.81312" lon="-3.64348">
        <ele>41.7</ele>
        <time>2023-01-27T12:26:24Z</time>
      </trkpt>
      <trkpt lat="47.8132" lon="-3.64349">
        <ele>41.4</ele>
        <time>2023-01-27T12:26:25Z</time>
      </trkpt>
      <trkpt lat="47.81328" lon="-3.6435">
        <ele>41</ele>
        <time>2023-01-27T12:26:26Z</time>
      </trkpt>
      <trkpt lat="47.81336" lon="-3.6435">
        <ele>41.2</ele>
        <time>2023-01-27T12:26:27Z</time>
      </trkpt>
      <trkpt lat="47.81343" lon="-3.64348">
        <ele>41.3</ele>
        <time>2023-01-27T12:26:28Z</time>
      </trkpt>
      <trkpt lat="47.81349" lon="-3.64345">
        <ele>41.4</ele>
        <time>2023-01-27T12:26:29Z</time>
      </trkpt>
      <trkpt lat="47.81353" lon="-3.64342">
        <ele>41.4</ele>
        <time>2023-01-27T12:26:30Z</time>
      </trkpt>
      <trkpt lat="47.81357" lon="-3.64341">
        <ele>41.4</ele>
        <time>2023-01-27T12:26:31Z</time>
      </trkpt>
      <trkpt lat="47.8136" lon="-3.64342">
        <ele>41.4</ele>
        <time>2023-01-27T12:26:32Z</time>
      </trkpt>
      <trkpt lat="47.81363" lon="-3.64345">
        <ele>41.4</ele>
        <time>2023-01-27T12:26:33Z</time>
      </trkpt>
      <trkpt lat="47.81368" lon="-3.64348">
        <ele>41</ele>
        <time>2023-01-27T12:26:34Z</time>
      </trkpt>
      <trkpt lat="47.81373" lon="-3.64348">
        <ele>40.8</ele>
        <time>2023-01-27T12:26:35Z</time>
      </trkpt>
      <trkpt lat="47.81378" lon="-3.64347">
        <ele>40.5</ele>
        <time>2023-01-27T12:26:36Z</time>
      </trkpt>
      <trkpt lat="47.81382" lon="-3.64341">
        <ele>40.3</ele>
        <time>2023-01-27T12:26:37Z</time>
      </trkpt>
      <trkpt lat="47.81386" lon="-3.64336">
        <ele>40.1</ele>
        <time>2023-01-27T12:26:38Z</time>
      </trkpt>
      <trkpt lat="47.8139" lon="-3.64332">
        <ele>40</ele>
        <time>2023-01-27T12:26:39Z</time>
      </trkpt>
      <trkpt lat="47.81394" lon="-3.64325">
        <ele>39.9</ele>
        <time>2023-01-27T12:26:40Z</time>
      </trkpt>
      <trkpt lat="47.81398" lon="-3.64322">
        <ele>39.8</ele>
        <time>2023-01-27T12:26:41Z</time>
      </trkpt>
      <trkpt lat="47.81401" lon="-3.64321">
        <ele>39.8</ele>
        <time>2023-01-27T12:26:42Z</time>
      </trkpt>
      <trkpt lat="47.81405" lon="-3.64318">
        <ele>39.7</ele>
        <time>2023-01-27T12:26:43Z</time>
      </trkpt>
      <trkpt lat="47.8141" lon="-3.64315">
        <ele>39.6</ele>
        <time>2023-01-27T12:26:44Z</time>
      </trkpt>
      <trkpt lat="47.81415" lon="-3.64313">
        <ele>39.5</ele>
        <time>2023-01-27T12:26:45Z</time>
      </trkpt>
      <trkpt lat="47.8142" lon="-3.64311">
        <ele>39.5</ele>
        <time>2023-01-27T12:26:46Z</time>
      </trkpt>
      <trkpt lat="47.81424" lon="-3.64311">
        <ele>39.5</ele>
        <time>2023-01-27T12:26:47Z</time>
      </trkpt>
      <trkpt lat="47.81428" lon="-3.64309">
        <ele>39.4</ele>
        <time>2023-01-27T12:26:48Z</time>
      </trkpt>
      <trkpt lat="47.81432" lon="-3.64308">
        <ele>39.4</ele>
        <time>2023-01-27T12:26:49Z</time>
      </trkpt>
      <trkpt lat="47.81437" lon="-3.64309">
        <ele>39.5</ele>
        <time>2023-01-27T12:26:50Z</time>
      </trkpt>
      <trkpt lat="47.8144" lon="-3.64308">
        <ele>39.5</ele>
        <time>2023-01-27T12:26:51Z</time>
      </trkpt>
      <trkpt lat="47.81442" lon="-3.64307">
        <ele>39.5</ele>
        <time>2023-01-27T12:26:52Z</time>
      </trkpt>
      <trkpt lat="47.81445" lon="-3.64306">
        <ele>39.5</ele>
        <time>2023-01-27T12:26:53Z</time>
      </trkpt>
      <trkpt lat="47.81446" lon="-3.64306">
        <ele>39.5</ele>
        <time>2023-01-27T12:26:54Z</time>
      </trkpt>
      <trkpt lat="47.81452" lon="-3.64306">
        <ele>39.5</ele>
        <time>2023-01-27T12:26:56Z</time>
      </trkpt>
      <trkpt lat="47.81454" lon="-3.64307">
        <ele>39.5</ele>
        <time>2023-01-27T12:26:58Z</time>
      </trkpt>
      <trkpt lat="47.81454" lon="-3.64306">
        <ele>39.5</ele>
        <time>2023-01-27T12:27:00Z</time>
      </trkpt>
      <trkpt lat="47.81455" lon="-3.64306">
        <ele>39.5</ele>
        <time>2023-01-27T12:27:01Z</time>
      </trkpt>
      <trkpt lat="47.81457" lon="-3.64306">
        <ele>39.5</ele>
        <time>2023-01-27T12:27:03Z</time>
      </trkpt>
      <trkpt lat="47.81459" lon="-3.64306">
        <ele>39.5</ele>
        <time>2023-01-27T12:27:04Z</time>
      </trkpt>
      <trkpt lat="47.81461" lon="-3.64306">
        <ele>39.5</ele>
        <time>2023-01-27T12:27:06Z</time>
      </trkpt>
      <trkpt lat="47.81464" lon="-3.64306">
        <ele>39.5</ele>
        <time>2023-01-27T12:27:07Z</time>
      </trkpt>
      <trkpt lat="47.81467" lon="-3.64305">
        <ele>39.5</ele>
        <time>2023-01-27T12:27:08Z</time>
      </trkpt>
      <trkpt lat="47.81469" lon="-3.64304">
        <ele>39.5</ele>
        <time>2023-01-27T12:27:09Z</time>
      </trkpt>
      <trkpt lat="47.81472" lon="-3.64305">
        <ele>39.6</ele>
        <time>2023-01-27T12:27:11Z</time>
      </trkpt>
      <trkpt lat="47.81473" lon="-3.64304">
        <ele>39.6</ele>
        <time>2023-01-27T12:27:12Z</time>
      </trkpt>
      <trkpt lat="47.81474" lon="-3.64304">
        <ele>39.6</ele>
        <time>2023-01-27T12:27:13Z</time>
      </trkpt>
      <trkpt lat="47.81477" lon="-3.64305">
        <ele>39.6</ele>
        <time>2023-01-27T12:27:14Z</time>
      </trkpt>
      <trkpt lat="47.81479" lon="-3.64305">
        <ele>39.6</ele>
        <time>2023-01-27T12:27:16Z</time>
      </trkpt>
      <trkpt lat="47.81481" lon="-3.64305">
        <ele>39.6</ele>
        <time>2023-01-27T12:27:17Z</time>
      </trkpt>
      <trkpt lat="47.81487" lon="-3.64308">
        <ele>39.6</ele>
        <time>2023-01-27T12:27:19Z</time>
      </trkpt>
      <trkpt lat="47.81492" lon="-3.64309">
        <ele>39.5</ele>
        <time>2023-01-27T12:27:21Z</time>
      </trkpt>
      <trkpt lat="47.81496" lon="-3.64309">
        <ele>39.5</ele>
        <time>2023-01-27T12:27:22Z</time>
      </trkpt>
      <trkpt lat="47.81503" lon="-3.64308">
        <ele>39.3</ele>
        <time>2023-01-27T12:27:24Z</time>
      </trkpt>
      <trkpt lat="47.81507" lon="-3.64308">
        <ele>39.3</ele>
        <time>2023-01-27T12:27:26Z</time>
      </trkpt>
      <trkpt lat="47.81513" lon="-3.64309">
        <ele>39.1</ele>
        <time>2023-01-27T12:27:27Z</time>
      </trkpt>
      <trkpt lat="47.81519" lon="-3.64307">
        <ele>39</ele>
        <time>2023-01-27T12:27:28Z</time>
      </trkpt>
      <trkpt lat="47.81521" lon="-3.64307">
        <ele>39</ele>
        <time>2023-01-27T12:27:29Z</time>
      </trkpt>
      <trkpt lat="47.81525" lon="-3.64306">
        <ele>38.9</ele>
        <time>2023-01-27T12:27:31Z</time>
      </trkpt>
      <trkpt lat="47.81529" lon="-3.64306">
        <ele>38.8</ele>
        <time>2023-01-27T12:27:32Z</time>
      </trkpt>
      <trkpt lat="47.81533" lon="-3.64306">
        <ele>38.8</ele>
        <time>2023-01-27T12:27:33Z</time>
      </trkpt>
      <trkpt lat="47.81537" lon="-3.64306">
        <ele>38.7</ele>
        <time>2023-01-27T12:27:34Z</time>
      </trkpt>
      <trkpt lat="47.81541" lon="-3.64307">
        <ele>38.7</ele>
        <time>2023-01-27T12:27:35Z</time>
      </trkpt>
      <trkpt lat="47.81546" lon="-3.64308">
        <ele>38.6</ele>
        <time>2023-01-27T12:27:36Z</time>
      </trkpt>
      <trkpt lat="47.81549" lon="-3.64308">
        <ele>38.6</ele>
        <time>2023-01-27T12:27:37Z</time>
      </trkpt>
      <trkpt lat="47.81552" lon="-3.64306">
        <ele>38.5</ele>
        <time>2023-01-27T12:27:38Z</time>
      </trkpt>
      <trkpt lat="47.81553" lon="-3.64306">
        <ele>38.5</ele>
        <time>2023-01-27T12:27:39Z</time>
      </trkpt>
      <trkpt lat="47.81556" lon="-3.64305">
        <ele>38.5</ele>
        <time>2023-01-27T12:27:40Z</time>
      </trkpt>
      <trkpt lat="47.81557" lon="-3.64305">
        <ele>38.5</ele>
        <time>2023-01-27T12:27:41Z</time>
      </trkpt>
      <trkpt lat="47.8156" lon="-3.64304">
        <ele>38.5</ele>
        <time>2023-01-27T12:27:42Z</time>
      </trkpt>
      <trkpt lat="47.81564" lon="-3.64303">
        <ele>38.4</ele>
        <time>2023-01-27T12:27:43Z</time>
      </trkpt>
      <trkpt lat="47.81568" lon="-3.64301">
        <ele>38.4</ele>
        <time>2023-01-27T12:27:44Z</time>
      </trkpt>
      <trkpt lat="47.81571" lon="-3.64301">
        <ele>38.4</ele>
        <time>2023-01-27T12:27:45Z</time>
      </trkpt>
      <trkpt lat="47.81576" lon="-3.64301">
        <ele>38.4</ele>
        <time>2023-01-27T12:27:46Z</time>
      </trkpt>
      <trkpt lat="47.81579" lon="-3.64301">
        <ele>38.4</ele>
        <time>2023-01-27T12:27:47Z</time>
      </trkpt>
      <trkpt lat="47.81583" lon="-3.643">
        <ele>38.4</ele>
        <time>2023-01-27T12:27:48Z</time>
      </trkpt>
      <trkpt lat="47.81586" lon="-3.643">
        <ele>38.4</ele>
        <time>2023-01-27T12:27:49Z</time>
      </trkpt>
      <trkpt lat="47.81588" lon="-3.643">
        <ele>38.4</ele>
        <time>2023-01-27T12:27:50Z</time>
      </trkpt>
      <trkpt lat="47.81589" lon="-3.643">
        <ele>38.4</ele>
        <time>2023-01-27T12:27:51Z</time>
      </trkpt>
      <trkpt lat="47.8159" lon="-3.643">
        <ele>38.4</ele>
        <time>2023-01-27T12:27:52Z</time>
      </trkpt>
      <trkpt lat="47.8159" lon="-3.643">
        <ele>38.4</ele>
        <time>2023-01-27T12:27:53Z</time>
      </trkpt>
      <trkpt lat="47.8159" lon="-3.643">
        <ele>38.4</ele>
        <time>2023-01-27T12:27:54Z</time>
      </trkpt>
      <trkpt lat="47.81589" lon="-3.643">
        <ele>38.4</ele>
        <time>2023-01-27T12:27:55Z</time>
      </trkpt>
      <trkpt lat="47.81589" lon="-3.643">
        <ele>38.4</ele>
        <time>2023-01-27T12:27:56Z</time>
      </trkpt>
      <trkpt lat="47.81589" lon="-3.643">
        <ele>38.4</ele>
        <time>2023-01-27T12:27:57Z</time>
      </trkpt>
      <trkpt lat="47.81589" lon="-3.643">
        <ele>38.4</ele>
        <time>2023-01-27T12:27:58Z</time>
      </trkpt>
      <trkpt lat="47.81589" lon="-3.643">
        <ele>38.4</ele>
        <time>2023-01-27T12:27:59Z</time>
      </trkpt>
      <trkpt lat="47.81589" lon="-3.643">
        <ele>38.4</ele>
        <time>2023-01-27T12:28:01Z</time>
      </trkpt>
      <trkpt lat="47.81593" lon="-3.64299">
        <ele>38.4</ele>
        <time>2023-01-27T12:28:26Z</time>
      </trkpt>
      <trkpt lat="47.81595" lon="-3.64298">
        <ele>38.4</ele>
        <time>2023-01-27T12:28:27Z</time>
      </trkpt>
      <trkpt lat="47.81598" lon="-3.64296">
        <ele>38.4</ele>
        <time>2023-01-27T12:28:28Z</time>
      </trkpt>
      <trkpt lat="47.816" lon="-3.64295">
        <ele>38.4</ele>
        <time>2023-01-27T12:28:29Z</time>
      </trkpt>
      <trkpt lat="47.81604" lon="-3.64294">
        <ele>38.5</ele>
        <time>2023-01-27T12:28:30Z</time>
      </trkpt>
      <trkpt lat="47.81608" lon="-3.64294">
        <ele>38.5</ele>
        <time>2023-01-27T12:28:31Z</time>
      </trkpt>
      <trkpt lat="47.81611" lon="-3.64293">
        <ele>38.5</ele>
        <time>2023-01-27T12:28:32Z</time>
      </trkpt>
      <trkpt lat="47.81614" lon="-3.64292">
        <ele>38.5</ele>
        <time>2023-01-27T12:28:33Z</time>
      </trkpt>
      <trkpt lat="47.81619" lon="-3.64291">
        <ele>38.5</ele>
        <time>2023-01-27T12:28:34Z</time>
      </trkpt>
      <trkpt lat="47.81623" lon="-3.64292">
        <ele>38.5</ele>
        <time>2023-01-27T12:28:35Z</time>
      </trkpt>
      <trkpt lat="47.81626" lon="-3.64291">
        <ele>38.4</ele>
        <time>2023-01-27T12:28:36Z</time>
      </trkpt>
      <trkpt lat="47.8163" lon="-3.6429">
        <ele>38.4</ele>
        <time>2023-01-27T12:28:38Z</time>
      </trkpt>
      <trkpt lat="47.81633" lon="-3.6429">
        <ele>38.4</ele>
        <time>2023-01-27T12:28:39Z</time>
      </trkpt>
      <trkpt lat="47.81639" lon="-3.64289">
        <ele>38.4</ele>
        <time>2023-01-27T12:28:40Z</time>
      </trkpt>
      <trkpt lat="47.81648" lon="-3.64287">
        <ele>38.4</ele>
        <time>2023-01-27T12:28:42Z</time>
      </trkpt>
      <trkpt lat="47.81651" lon="-3.64287">
        <ele>38.4</ele>
        <time>2023-01-27T12:28:43Z</time>
      </trkpt>
      <trkpt lat="47.81653" lon="-3.64288">
        <ele>38.4</ele>
        <time>2023-01-27T12:28:44Z</time>
      </trkpt>
      <trkpt lat="47.81657" lon="-3.64289">
        <ele>38.4</ele>
        <time>2023-01-27T12:28:46Z</time>
      </trkpt>
      <trkpt lat="47.81663" lon="-3.64289">
        <ele>38.4</ele>
        <time>2023-01-27T12:28:47Z</time>
      </trkpt>
      <trkpt lat="47.81667" lon="-3.64289">
        <ele>38.4</ele>
        <time>2023-01-27T12:28:48Z</time>
      </trkpt>
      <trkpt lat="47.81668" lon="-3.64289">
        <ele>38.4</ele>
        <time>2023-01-27T12:28:49Z</time>
      </trkpt>
      <trkpt lat="47.81673" lon="-3.64288">
        <ele>38.4</ele>
        <time>2023-01-27T12:28:51Z</time>
      </trkpt>
      <trkpt lat="47.81674" lon="-3.64288">
        <ele>38.4</ele>
        <time>2023-01-27T12:28:52Z</time>
      </trkpt>
      <trkpt lat="47.81675" lon="-3.64288">
        <ele>38.4</ele>
        <time>2023-01-27T12:28:53Z</time>
      </trkpt>
      <trkpt lat="47.8168" lon="-3.64288">
        <ele>38.4</ele>
        <time>2023-01-27T12:28:54Z</time>
      </trkpt>
      <trkpt lat="47.81682" lon="-3.64288">
        <ele>38.4</ele>
        <time>2023-01-27T12:28:55Z</time>
      </trkpt>
      <trkpt lat="47.81686" lon="-3.64287">
        <ele>38.4</ele>
        <time>2023-01-27T12:28:57Z</time>
      </trkpt>
      <trkpt lat="47.81689" lon="-3.64287">
        <ele>38.5</ele>
        <time>2023-01-27T12:28:58Z</time>
      </trkpt>
      <trkpt lat="47.81693" lon="-3.64286">
        <ele>38.5</ele>
        <time>2023-01-27T12:28:59Z</time>
      </trkpt>
      <trkpt lat="47.81695" lon="-3.64285">
        <ele>38.5</ele>
        <time>2023-01-27T12:29:00Z</time>
      </trkpt>
      <trkpt lat="47.81699" lon="-3.64284">
        <ele>38.5</ele>
        <time>2023-01-27T12:29:01Z</time>
      </trkpt>
      <trkpt lat="47.81702" lon="-3.64283">
        <ele>38.6</ele>
        <time>2023-01-27T12:29:02Z</time>
      </trkpt>
      <trkpt lat="47.81705" lon="-3.64283">
        <ele>38.6</ele>
        <time>2023-01-27T12:29:03Z</time>
      </trkpt>
      <trkpt lat="47.81707" lon="-3.64288">
        <ele>38.7</ele>
        <time>2023-01-27T12:29:04Z</time>
      </trkpt>
      <trkpt lat="47.81708" lon="-3.64292">
        <ele>38.7</ele>
        <time>2023-01-27T12:29:05Z</time>
      </trkpt>
      <trkpt lat="47.81709" lon="-3.64296">
        <ele>38.7</ele>
        <time>2023-01-27T12:29:07Z</time>
      </trkpt>
      <trkpt lat="47.8171" lon="-3.64301">
        <ele>38.8</ele>
        <time>2023-01-27T12:29:08Z</time>
      </trkpt>
      <trkpt lat="47.8171" lon="-3.64305">
        <ele>38.8</ele>
        <time>2023-01-27T12:29:09Z</time>
      </trkpt>
      <trkpt lat="47.8171" lon="-3.6431">
        <ele>38.9</ele>
        <time>2023-01-27T12:29:10Z</time>
      </trkpt>
      <trkpt lat="47.81711" lon="-3.64315">
        <ele>38.9</ele>
        <time>2023-01-27T12:29:11Z</time>
      </trkpt>
      <trkpt lat="47.81712" lon="-3.64319">
        <ele>39</ele>
        <time>2023-01-27T12:29:12Z</time>
      </trkpt>
      <trkpt lat="47.81713" lon="-3.64322">
        <ele>39</ele>
        <time>2023-01-27T12:29:13Z</time>
      </trkpt>
      <trkpt lat="47.81714" lon="-3.64326">
        <ele>39.1</ele>
        <time>2023-01-27T12:29:14Z</time>
      </trkpt>
      <trkpt lat="47.81715" lon="-3.6433">
        <ele>39.2</ele>
        <time>2023-01-27T12:29:15Z</time>
      </trkpt>
      <trkpt lat="47.81715" lon="-3.64335">
        <ele>39.2</ele>
        <time>2023-01-27T12:29:16Z</time>
      </trkpt>
      <trkpt lat="47.81716" lon="-3.6434">
        <ele>39.3</ele>
        <time>2023-01-27T12:29:17Z</time>
      </trkpt>
      <trkpt lat="47.81718" lon="-3.64344">
        <ele>39.3</ele>
        <time>2023-01-27T12:29:18Z</time>
      </trkpt>
      <trkpt lat="47.81719" lon="-3.64349">
        <ele>39.4</ele>
        <time>2023-01-27T12:29:19Z</time>
      </trkpt>
      <trkpt lat="47.8172" lon="-3.64353">
        <ele>39.4</ele>
        <time>2023-01-27T12:29:20Z</time>
      </trkpt>
      <trkpt lat="47.81721" lon="-3.64358">
        <ele>39.5</ele>
        <time>2023-01-27T12:29:21Z</time>
      </trkpt>
      <trkpt lat="47.81722" lon="-3.64363">
        <ele>39.5</ele>
        <time>2023-01-27T12:29:22Z</time>
      </trkpt>
      <trkpt lat="47.81723" lon="-3.64367">
        <ele>39.6</ele>
        <time>2023-01-27T12:29:23Z</time>
      </trkpt>
      <trkpt lat="47.81724" lon="-3.64372">
        <ele>39.6</ele>
        <time>2023-01-27T12:29:24Z</time>
      </trkpt>
      <trkpt lat="47.81725" lon="-3.64377">
        <ele>39.7</ele>
        <time>2023-01-27T12:29:25Z</time>
      </trkpt>
      <trkpt lat="47.81726" lon="-3.64382">
        <ele>39.7</ele>
        <time>2023-01-27T12:29:26Z</time>
      </trkpt>
      <trkpt lat="47.81727" lon="-3.64388">
        <ele>39.8</ele>
        <time>2023-01-27T12:29:27Z</time>
      </trkpt>
      <trkpt lat="47.81728" lon="-3.64393">
        <ele>39.9</ele>
        <time>2023-01-27T12:29:28Z</time>
      </trkpt>
      <trkpt lat="47.8173" lon="-3.64398">
        <ele>39.9</ele>
        <time>2023-01-27T12:29:29Z</time>
      </trkpt>
      <trkpt lat="47.8173" lon="-3.64403">
        <ele>40</ele>
        <time>2023-01-27T12:29:30Z</time>
      </trkpt>
      <trkpt lat="47.81731" lon="-3.64408">
        <ele>40.1</ele>
        <time>2023-01-27T12:29:31Z</time>
      </trkpt>
      <trkpt lat="47.81733" lon="-3.64412">
        <ele>40.2</ele>
        <time>2023-01-27T12:29:32Z</time>
      </trkpt>
      <trkpt lat="47.81734" lon="-3.64416">
        <ele>40.3</ele>
        <time>2023-01-27T12:29:33Z</time>
      </trkpt>
      <trkpt lat="47.81738" lon="-3.64429">
        <ele>40.5</ele>
        <time>2023-01-27T12:29:35Z</time>
      </trkpt>
      <trkpt lat="47.81739" lon="-3.64434">
        <ele>40.7</ele>
        <time>2023-01-27T12:29:36Z</time>
      </trkpt>
      <trkpt lat="47.8174" lon="-3.64437">
        <ele>40.7</ele>
        <time>2023-01-27T12:29:37Z</time>
      </trkpt>
      <trkpt lat="47.81742" lon="-3.64445">
        <ele>40.9</ele>
        <time>2023-01-27T12:29:39Z</time>
      </trkpt>
      <trkpt lat="47.81743" lon="-3.64449">
        <ele>41</ele>
        <time>2023-01-27T12:29:40Z</time>
      </trkpt>
      <trkpt lat="47.81744" lon="-3.64456">
        <ele>41.1</ele>
        <time>2023-01-27T12:29:42Z</time>
      </trkpt>
      <trkpt lat="47.81744" lon="-3.6446">
        <ele>41.2</ele>
        <time>2023-01-27T12:29:43Z</time>
      </trkpt>
      <trkpt lat="47.81745" lon="-3.64462">
        <ele>41.2</ele>
        <time>2023-01-27T12:29:44Z</time>
      </trkpt>
      <trkpt lat="47.81746" lon="-3.64465">
        <ele>41.3</ele>
        <time>2023-01-27T12:29:45Z</time>
      </trkpt>
      <trkpt lat="47.81747" lon="-3.6447">
        <ele>41.4</ele>
        <time>2023-01-27T12:29:47Z</time>
      </trkpt>
      <trkpt lat="47.81748" lon="-3.64474">
        <ele>41.5</ele>
        <time>2023-01-27T12:29:48Z</time>
      </trkpt>
      <trkpt lat="47.81749" lon="-3.64479">
        <ele>41.6</ele>
        <time>2023-01-27T12:29:49Z</time>
      </trkpt>
      <trkpt lat="47.81749" lon="-3.64481">
        <ele>41.6</ele>
        <time>2023-01-27T12:29:50Z</time>
      </trkpt>
      <trkpt lat="47.81749" lon="-3.64483">
        <ele>41.6</ele>
        <time>2023-01-27T12:29:51Z</time>
      </trkpt>
      <trkpt lat="47.81749" lon="-3.64486">
        <ele>41.7</ele>
        <time>2023-01-27T12:29:52Z</time>
      </trkpt>
      <trkpt lat="47.8175" lon="-3.64488">
        <ele>41.7</ele>
        <time>2023-01-27T12:29:53Z</time>
      </trkpt>
      <trkpt lat="47.8175" lon="-3.6449">
        <ele>41.7</ele>
        <time>2023-01-27T12:29:54Z</time>
      </trkpt>
      <trkpt lat="47.81751" lon="-3.64493">
        <ele>41.8</ele>
        <time>2023-01-27T12:29:55Z</time>
      </trkpt>
      <trkpt lat="47.81751" lon="-3.64495">
        <ele>41.8</ele>
        <time>2023-01-27T12:29:56Z</time>
      </trkpt>
      <trkpt lat="47.81751" lon="-3.64497">
        <ele>41.8</ele>
        <time>2023-01-27T12:29:57Z</time>
      </trkpt>
      <trkpt lat="47.81752" lon="-3.645">
        <ele>41.9</ele>
        <time>2023-01-27T12:29:58Z</time>
      </trkpt>
      <trkpt lat="47.81752" lon="-3.64502">
        <ele>41.9</ele>
        <time>2023-01-27T12:29:59Z</time>
      </trkpt>
      <trkpt lat="47.81752" lon="-3.64503">
        <ele>41.9</ele>
        <time>2023-01-27T12:30:00Z</time>
      </trkpt>
      <trkpt lat="47.81753" lon="-3.64504">
        <ele>41.9</ele>
        <time>2023-01-27T12:30:01Z</time>
      </trkpt>
      <trkpt lat="47.81753" lon="-3.64506">
        <ele>42</ele>
        <time>2023-01-27T12:30:02Z</time>
      </trkpt>
      <trkpt lat="47.81754" lon="-3.64507">
        <ele>42</ele>
        <time>2023-01-27T12:30:03Z</time>
      </trkpt>
      <trkpt lat="47.81754" lon="-3.64509">
        <ele>42</ele>
        <time>2023-01-27T12:30:04Z</time>
      </trkpt>
      <trkpt lat="47.81755" lon="-3.64515">
        <ele>42.1</ele>
        <time>2023-01-27T12:30:05Z</time>
      </trkpt>
      <trkpt lat="47.81755" lon="-3.64518">
        <ele>42.1</ele>
        <time>2023-01-27T12:30:06Z</time>
      </trkpt>
      <trkpt lat="47.81757" lon="-3.64522">
        <ele>42.2</ele>
        <time>2023-01-27T12:30:08Z</time>
      </trkpt>
      <trkpt lat="47.81756" lon="-3.64527">
        <ele>42.3</ele>
        <time>2023-01-27T12:30:09Z</time>
      </trkpt>
      <trkpt lat="47.81757" lon="-3.64531">
        <ele>42.3</ele>
        <time>2023-01-27T12:30:10Z</time>
      </trkpt>
      <trkpt lat="47.81759" lon="-3.64536">
        <ele>42.4</ele>
        <time>2023-01-27T12:30:11Z</time>
      </trkpt>
      <trkpt lat="47.81762" lon="-3.64544">
        <ele>42.6</ele>
        <time>2023-01-27T12:30:12Z</time>
      </trkpt>
      <trkpt lat="47.81762" lon="-3.64547">
        <ele>42.6</ele>
        <time>2023-01-27T12:30:13Z</time>
      </trkpt>
      <trkpt lat="47.81765" lon="-3.64559">
        <ele>42.9</ele>
        <time>2023-01-27T12:30:15Z</time>
      </trkpt>
      <trkpt lat="47.81769" lon="-3.64567">
        <ele>43.1</ele>
        <time>2023-01-27T12:30:17Z</time>
      </trkpt>
      <trkpt lat="47.81771" lon="-3.64575">
        <ele>43.3</ele>
        <time>2023-01-27T12:30:18Z</time>
      </trkpt>
      <trkpt lat="47.81773" lon="-3.64582">
        <ele>43.5</ele>
        <time>2023-01-27T12:30:19Z</time>
      </trkpt>
      <trkpt lat="47.81775" lon="-3.64588">
        <ele>43.6</ele>
        <time>2023-01-27T12:30:20Z</time>
      </trkpt>
      <trkpt lat="47.81777" lon="-3.64598">
        <ele>43.9</ele>
        <time>2023-01-27T12:30:22Z</time>
      </trkpt>
      <trkpt lat="47.8178" lon="-3.64608">
        <ele>44.1</ele>
        <time>2023-01-27T12:30:24Z</time>
      </trkpt>
      <trkpt lat="47.81781" lon="-3.64619">
        <ele>44.3</ele>
        <time>2023-01-27T12:30:26Z</time>
      </trkpt>
      <trkpt lat="47.81782" lon="-3.64625">
        <ele>44.4</ele>
        <time>2023-01-27T12:30:27Z</time>
      </trkpt>
      <trkpt lat="47.81783" lon="-3.64629">
        <ele>44.4</ele>
        <time>2023-01-27T12:30:28Z</time>
      </trkpt>
      <trkpt lat="47.81784" lon="-3.64641">
        <ele>44.5</ele>
        <time>2023-01-27T12:30:30Z</time>
      </trkpt>
      <trkpt lat="47.81785" lon="-3.64647">
        <ele>44.5</ele>
        <time>2023-01-27T12:30:32Z</time>
      </trkpt>
      <trkpt lat="47.81786" lon="-3.64652">
        <ele>44.4</ele>
        <time>2023-01-27T12:30:33Z</time>
      </trkpt>
      <trkpt lat="47.81786" lon="-3.64658">
        <ele>44.4</ele>
        <time>2023-01-27T12:30:34Z</time>
      </trkpt>
      <trkpt lat="47.81786" lon="-3.64665">
        <ele>44.4</ele>
        <time>2023-01-27T12:30:35Z</time>
      </trkpt>
      <trkpt lat="47.81786" lon="-3.64672">
        <ele>44.3</ele>
        <time>2023-01-27T12:30:36Z</time>
      </trkpt>
      <trkpt lat="47.81784" lon="-3.64678">
        <ele>44.2</ele>
        <time>2023-01-27T12:30:37Z</time>
      </trkpt>
      <trkpt lat="47.81784" lon="-3.64684">
        <ele>44.1</ele>
        <time>2023-01-27T12:30:38Z</time>
      </trkpt>
      <trkpt lat="47.81784" lon="-3.64691">
        <ele>43.9</ele>
        <time>2023-01-27T12:30:39Z</time>
      </trkpt>
      <trkpt lat="47.81784" lon="-3.64697">
        <ele>43.8</ele>
        <time>2023-01-27T12:30:40Z</time>
      </trkpt>
      <trkpt lat="47.81785" lon="-3.64706">
        <ele>43.5</ele>
        <time>2023-01-27T12:30:41Z</time>
      </trkpt>
      <trkpt lat="47.81786" lon="-3.64713">
        <ele>43.3</ele>
        <time>2023-01-27T12:30:42Z</time>
      </trkpt>
      <trkpt lat="47.81787" lon="-3.64714">
        <ele>43.3</ele>
        <time>2023-01-27T12:30:44Z</time>
      </trkpt>
      <trkpt lat="47.81787" lon="-3.64714">
        <ele>43.2</ele>
        <time>2023-01-27T12:30:45Z</time>
      </trkpt>
      <trkpt lat="47.81787" lon="-3.64717">
        <ele>43.1</ele>
        <time>2023-01-27T12:30:46Z</time>
      </trkpt>
      <trkpt lat="47.81787" lon="-3.64718">
        <ele>43.1</ele>
        <time>2023-01-27T12:30:48Z</time>
      </trkpt>
      <trkpt lat="47.81787" lon="-3.64718">
        <ele>43.1</ele>
        <time>2023-01-27T12:30:49Z</time>
      </trkpt>
      <trkpt lat="47.81787" lon="-3.64719">
        <ele>43.1</ele>
        <time>2023-01-27T12:30:50Z</time>
      </trkpt>
      <trkpt lat="47.81788" lon="-3.64723">
        <ele>42.9</ele>
        <time>2023-01-27T12:30:52Z</time>
      </trkpt>
      <trkpt lat="47.81792" lon="-3.64731">
        <ele>42.5</ele>
        <time>2023-01-27T12:30:54Z</time>
      </trkpt>
      <trkpt lat="47.81794" lon="-3.64735">
        <ele>42.3</ele>
        <time>2023-01-27T12:30:56Z</time>
      </trkpt>
      <trkpt lat="47.81797" lon="-3.64741">
        <ele>42</ele>
        <time>2023-01-27T12:30:57Z</time>
      </trkpt>
      <trkpt lat="47.81799" lon="-3.64746">
        <ele>41.7</ele>
        <time>2023-01-27T12:30:58Z</time>
      </trkpt>
      <trkpt lat="47.81802" lon="-3.64751">
        <ele>41.3</ele>
        <time>2023-01-27T12:30:59Z</time>
      </trkpt>
      <trkpt lat="47.81807" lon="-3.64759">
        <ele>40.8</ele>
        <time>2023-01-27T12:31:00Z</time>
      </trkpt>
      <trkpt lat="47.81812" lon="-3.64765">
        <ele>40.3</ele>
        <time>2023-01-27T12:31:01Z</time>
      </trkpt>
      <trkpt lat="47.81816" lon="-3.64772">
        <ele>39.8</ele>
        <time>2023-01-27T12:31:02Z</time>
      </trkpt>
      <trkpt lat="47.81822" lon="-3.64777">
        <ele>39.4</ele>
        <time>2023-01-27T12:31:03Z</time>
      </trkpt>
      <trkpt lat="47.81825" lon="-3.64782">
        <ele>39</ele>
        <time>2023-01-27T12:31:04Z</time>
      </trkpt>
      <trkpt lat="47.81828" lon="-3.64789">
        <ele>38.7</ele>
        <time>2023-01-27T12:31:05Z</time>
      </trkpt>
      <trkpt lat="47.81833" lon="-3.64796">
        <ele>38.2</ele>
        <time>2023-01-27T12:31:06Z</time>
      </trkpt>
      <trkpt lat="47.81838" lon="-3.64804">
        <ele>37.7</ele>
        <time>2023-01-27T12:31:07Z</time>
      </trkpt>
      <trkpt lat="47.81843" lon="-3.64812">
        <ele>37.2</ele>
        <time>2023-01-27T12:31:08Z</time>
      </trkpt>
      <trkpt lat="47.81848" lon="-3.64819">
        <ele>36.7</ele>
        <time>2023-01-27T12:31:09Z</time>
      </trkpt>
      <trkpt lat="47.81851" lon="-3.64827">
        <ele>36.2</ele>
        <time>2023-01-27T12:31:10Z</time>
      </trkpt>
      <trkpt lat="47.81855" lon="-3.64834">
        <ele>35.8</ele>
        <time>2023-01-27T12:31:11Z</time>
      </trkpt>
      <trkpt lat="47.81857" lon="-3.64841">
        <ele>35.4</ele>
        <time>2023-01-27T12:31:12Z</time>
      </trkpt>
      <trkpt lat="47.8186" lon="-3.64849">
        <ele>34.9</ele>
        <time>2023-01-27T12:31:13Z</time>
      </trkpt>
      <trkpt lat="47.81862" lon="-3.64857">
        <ele>34.6</ele>
        <time>2023-01-27T12:31:14Z</time>
      </trkpt>
      <trkpt lat="47.81864" lon="-3.64864">
        <ele>34.4</ele>
        <time>2023-01-27T12:31:15Z</time>
      </trkpt>
      <trkpt lat="47.81864" lon="-3.64868">
        <ele>34.3</ele>
        <time>2023-01-27T12:31:16Z</time>
      </trkpt>
      <trkpt lat="47.81863" lon="-3.64875">
        <ele>34.3</ele>
        <time>2023-01-27T12:31:17Z</time>
      </trkpt>
      <trkpt lat="47.81862" lon="-3.64881">
        <ele>34.2</ele>
        <time>2023-01-27T12:31:18Z</time>
      </trkpt>
      <trkpt lat="47.81859" lon="-3.64886">
        <ele>34.2</ele>
        <time>2023-01-27T12:31:19Z</time>
      </trkpt>
      <trkpt lat="47.81856" lon="-3.64891">
        <ele>34.3</ele>
        <time>2023-01-27T12:31:20Z</time>
      </trkpt>
      <trkpt lat="47.81855" lon="-3.64894">
        <ele>34.3</ele>
        <time>2023-01-27T12:31:21Z</time>
      </trkpt>
      <trkpt lat="47.81853" lon="-3.64899">
        <ele>34.4</ele>
        <time>2023-01-27T12:31:22Z</time>
      </trkpt>
      <trkpt lat="47.81852" lon="-3.64904">
        <ele>34.5</ele>
        <time>2023-01-27T12:31:23Z</time>
      </trkpt>
      <trkpt lat="47.8185" lon="-3.6491">
        <ele>34.7</ele>
        <time>2023-01-27T12:31:24Z</time>
      </trkpt>
      <trkpt lat="47.81848" lon="-3.64916">
        <ele>34.9</ele>
        <time>2023-01-27T12:31:25Z</time>
      </trkpt>
      <trkpt lat="47.81844" lon="-3.6492">
        <ele>35.1</ele>
        <time>2023-01-27T12:31:26Z</time>
      </trkpt>
      <trkpt lat="47.8184" lon="-3.64922">
        <ele>35.3</ele>
        <time>2023-01-27T12:31:27Z</time>
      </trkpt>
      <trkpt lat="47.81837" lon="-3.64928">
        <ele>35.6</ele>
        <time>2023-01-27T12:31:28Z</time>
      </trkpt>
      <trkpt lat="47.81835" lon="-3.64933">
        <ele>35.8</ele>
        <time>2023-01-27T12:31:29Z</time>
      </trkpt>
      <trkpt lat="47.81834" lon="-3.64936">
        <ele>35.9</ele>
        <time>2023-01-27T12:31:30Z</time>
      </trkpt>
      <trkpt lat="47.81832" lon="-3.64939">
        <ele>36</ele>
        <time>2023-01-27T12:31:31Z</time>
      </trkpt>
      <trkpt lat="47.81829" lon="-3.64946">
        <ele>36.2</ele>
        <time>2023-01-27T12:31:32Z</time>
      </trkpt>
      <trkpt lat="47.81828" lon="-3.6495">
        <ele>36.3</ele>
        <time>2023-01-27T12:31:33Z</time>
      </trkpt>
      <trkpt lat="47.81826" lon="-3.64962">
        <ele>36.5</ele>
        <time>2023-01-27T12:31:35Z</time>
      </trkpt>
      <trkpt lat="47.81824" lon="-3.64968">
        <ele>36.6</ele>
        <time>2023-01-27T12:31:37Z</time>
      </trkpt>
      <trkpt lat="47.81823" lon="-3.64974">
        <ele>36.6</ele>
        <time>2023-01-27T12:31:38Z</time>
      </trkpt>
      <trkpt lat="47.81821" lon="-3.64984">
        <ele>36.6</ele>
        <time>2023-01-27T12:31:39Z</time>
      </trkpt>
      <trkpt lat="47.81819" lon="-3.64991">
        <ele>36.6</ele>
        <time>2023-01-27T12:31:41Z</time>
      </trkpt>
      <trkpt lat="47.81818" lon="-3.64997">
        <ele>36.6</ele>
        <time>2023-01-27T12:31:42Z</time>
      </trkpt>
      <trkpt lat="47.81816" lon="-3.65009">
        <ele>36.5</ele>
        <time>2023-01-27T12:31:43Z</time>
      </trkpt>
      <trkpt lat="47.81815" lon="-3.65015">
        <ele>36.5</ele>
        <time>2023-01-27T12:31:45Z</time>
      </trkpt>
      <trkpt lat="47.81812" lon="-3.65022">
        <ele>36.5</ele>
        <time>2023-01-27T12:31:46Z</time>
      </trkpt>
      <trkpt lat="47.81809" lon="-3.65026">
        <ele>36.5</ele>
        <time>2023-01-27T12:31:47Z</time>
      </trkpt>
      <trkpt lat="47.81807" lon="-3.65029">
        <ele>36.4</ele>
        <time>2023-01-27T12:31:48Z</time>
      </trkpt>
      <trkpt lat="47.81801" lon="-3.65032">
        <ele>36.4</ele>
        <time>2023-01-27T12:31:49Z</time>
      </trkpt>
      <trkpt lat="47.81792" lon="-3.65039">
        <ele>36.1</ele>
        <time>2023-01-27T12:31:51Z</time>
      </trkpt>
      <trkpt lat="47.81785" lon="-3.65044">
        <ele>35.8</ele>
        <time>2023-01-27T12:31:53Z</time>
      </trkpt>
      <trkpt lat="47.81777" lon="-3.65051">
        <ele>35.3</ele>
        <time>2023-01-27T12:31:55Z</time>
      </trkpt>
      <trkpt lat="47.81772" lon="-3.65054">
        <ele>34.9</ele>
        <time>2023-01-27T12:31:57Z</time>
      </trkpt>
      <trkpt lat="47.81767" lon="-3.6506">
        <ele>34.3</ele>
        <time>2023-01-27T12:31:58Z</time>
      </trkpt>
      <trkpt lat="47.81764" lon="-3.65066">
        <ele>33.8</ele>
        <time>2023-01-27T12:31:59Z</time>
      </trkpt>
      <trkpt lat="47.81763" lon="-3.65072">
        <ele>33.4</ele>
        <time>2023-01-27T12:32:00Z</time>
      </trkpt>
      <trkpt lat="47.81762" lon="-3.6508">
        <ele>32.9</ele>
        <time>2023-01-27T12:32:01Z</time>
      </trkpt>
      <trkpt lat="47.81763" lon="-3.65088">
        <ele>32.4</ele>
        <time>2023-01-27T12:32:02Z</time>
      </trkpt>
      <trkpt lat="47.81764" lon="-3.65092">
        <ele>32.1</ele>
        <time>2023-01-27T12:32:03Z</time>
      </trkpt>
      <trkpt lat="47.81766" lon="-3.65112">
        <ele>30.8</ele>
        <time>2023-01-27T12:32:05Z</time>
      </trkpt>
      <trkpt lat="47.81767" lon="-3.65122">
        <ele>30.1</ele>
        <time>2023-01-27T12:32:07Z</time>
      </trkpt>
      <trkpt lat="47.81769" lon="-3.65129">
        <ele>29.5</ele>
        <time>2023-01-27T12:32:08Z</time>
      </trkpt>
      <trkpt lat="47.81773" lon="-3.65135">
        <ele>28.9</ele>
        <time>2023-01-27T12:32:09Z</time>
      </trkpt>
      <trkpt lat="47.81777" lon="-3.6514">
        <ele>28.4</ele>
        <time>2023-01-27T12:32:10Z</time>
      </trkpt>
      <trkpt lat="47.8178" lon="-3.65143">
        <ele>28.1</ele>
        <time>2023-01-27T12:32:11Z</time>
      </trkpt>
      <trkpt lat="47.81782" lon="-3.65147">
        <ele>27.8</ele>
        <time>2023-01-27T12:32:12Z</time>
      </trkpt>
      <trkpt lat="47.81783" lon="-3.65149">
        <ele>27.7</ele>
        <time>2023-01-27T12:32:13Z</time>
      </trkpt>
      <trkpt lat="47.81783" lon="-3.65155">
        <ele>27.5</ele>
        <time>2023-01-27T12:32:14Z</time>
      </trkpt>
      <trkpt lat="47.81782" lon="-3.65157">
        <ele>27.4</ele>
        <time>2023-01-27T12:32:15Z</time>
      </trkpt>
      <trkpt lat="47.81781" lon="-3.65164">
        <ele>27.2</ele>
        <time>2023-01-27T12:32:16Z</time>
      </trkpt>
      <trkpt lat="47.8178" lon="-3.65169">
        <ele>27</ele>
        <time>2023-01-27T12:32:17Z</time>
      </trkpt>
      <trkpt lat="47.81777" lon="-3.65174">
        <ele>26.8</ele>
        <time>2023-01-27T12:32:18Z</time>
      </trkpt>
      <trkpt lat="47.81775" lon="-3.65179">
        <ele>26.7</ele>
        <time>2023-01-27T12:32:19Z</time>
      </trkpt>
      <trkpt lat="47.81772" lon="-3.65185">
        <ele>26.5</ele>
        <time>2023-01-27T12:32:20Z</time>
      </trkpt>
      <trkpt lat="47.81769" lon="-3.65188">
        <ele>26.4</ele>
        <time>2023-01-27T12:32:21Z</time>
      </trkpt>
      <trkpt lat="47.81766" lon="-3.65191">
        <ele>26.3</ele>
        <time>2023-01-27T12:32:22Z</time>
      </trkpt>
      <trkpt lat="47.81762" lon="-3.65196">
        <ele>26.1</ele>
        <time>2023-01-27T12:32:23Z</time>
      </trkpt>
      <trkpt lat="47.81759" lon="-3.652">
        <ele>26</ele>
        <time>2023-01-27T12:32:25Z</time>
      </trkpt>
      <trkpt lat="47.81757" lon="-3.65208">
        <ele>25.8</ele>
        <time>2023-01-27T12:32:26Z</time>
      </trkpt>
      <trkpt lat="47.81757" lon="-3.65214">
        <ele>25.7</ele>
        <time>2023-01-27T12:32:28Z</time>
      </trkpt>
      <trkpt lat="47.8176" lon="-3.6522">
        <ele>25.6</ele>
        <time>2023-01-27T12:32:29Z</time>
      </trkpt>
      <trkpt lat="47.81762" lon="-3.65226">
        <ele>25.5</ele>
        <time>2023-01-27T12:32:30Z</time>
      </trkpt>
      <trkpt lat="47.81763" lon="-3.65232">
        <ele>25.4</ele>
        <time>2023-01-27T12:32:31Z</time>
      </trkpt>
      <trkpt lat="47.81763" lon="-3.65245">
        <ele>25.1</ele>
        <time>2023-01-27T12:32:32Z</time>
      </trkpt>
      <trkpt lat="47.81761" lon="-3.65259">
        <ele>25.4</ele>
        <time>2023-01-27T12:32:34Z</time>
      </trkpt>
      <trkpt lat="47.81758" lon="-3.65269">
        <ele>25.9</ele>
        <time>2023-01-27T12:32:36Z</time>
      </trkpt>
      <trkpt lat="47.81757" lon="-3.65273">
        <ele>26.2</ele>
        <time>2023-01-27T12:32:37Z</time>
      </trkpt>
      <trkpt lat="47.81755" lon="-3.65283">
        <ele>26.7</ele>
        <time>2023-01-27T12:32:38Z</time>
      </trkpt>
      <trkpt lat="47.81755" lon="-3.6529">
        <ele>27.1</ele>
        <time>2023-01-27T12:32:40Z</time>
      </trkpt>
      <trkpt lat="47.81755" lon="-3.65294">
        <ele>27.3</ele>
        <time>2023-01-27T12:32:41Z</time>
      </trkpt>
      <trkpt lat="47.81756" lon="-3.65303">
        <ele>27.8</ele>
        <time>2023-01-27T12:32:42Z</time>
      </trkpt>
      <trkpt lat="47.81757" lon="-3.65308">
        <ele>28</ele>
        <time>2023-01-27T12:32:44Z</time>
      </trkpt>
      <trkpt lat="47.81758" lon="-3.65313">
        <ele>28.3</ele>
        <time>2023-01-27T12:32:45Z</time>
      </trkpt>
      <trkpt lat="47.81759" lon="-3.65318">
        <ele>28.5</ele>
        <time>2023-01-27T12:32:46Z</time>
      </trkpt>
      <trkpt lat="47.8176" lon="-3.65323">
        <ele>28.8</ele>
        <time>2023-01-27T12:32:47Z</time>
      </trkpt>
      <trkpt lat="47.8176" lon="-3.65327">
        <ele>29</ele>
        <time>2023-01-27T12:32:48Z</time>
      </trkpt>
      <trkpt lat="47.81761" lon="-3.65331">
        <ele>29.2</ele>
        <time>2023-01-27T12:32:49Z</time>
      </trkpt>
      <trkpt lat="47.81761" lon="-3.65337">
        <ele>29.5</ele>
        <time>2023-01-27T12:32:50Z</time>
      </trkpt>
      <trkpt lat="47.81762" lon="-3.65342">
        <ele>29.8</ele>
        <time>2023-01-27T12:32:51Z</time>
      </trkpt>
      <trkpt lat="47.81763" lon="-3.65347">
        <ele>30</ele>
        <time>2023-01-27T12:32:52Z</time>
      </trkpt>
      <trkpt lat="47.81763" lon="-3.65357">
        <ele>30.4</ele>
        <time>2023-01-27T12:32:53Z</time>
      </trkpt>
      <trkpt lat="47.81763" lon="-3.65362">
        <ele>30.6</ele>
        <time>2023-01-27T12:32:55Z</time>
      </trkpt>
      <trkpt lat="47.81761" lon="-3.65372">
        <ele>31</ele>
        <time>2023-01-27T12:32:56Z</time>
      </trkpt>
      <trkpt lat="47.81759" lon="-3.65377">
        <ele>31.2</ele>
        <time>2023-01-27T12:32:57Z</time>
      </trkpt>
      <trkpt lat="47.81758" lon="-3.65384">
        <ele>31.5</ele>
        <time>2023-01-27T12:32:59Z</time>
      </trkpt>
      <trkpt lat="47.81756" lon="-3.65388">
        <ele>31.8</ele>
        <time>2023-01-27T12:33:00Z</time>
      </trkpt>
      <trkpt lat="47.81755" lon="-3.65393">
        <ele>32</ele>
        <time>2023-01-27T12:33:01Z</time>
      </trkpt>
      <trkpt lat="47.81754" lon="-3.65398">
        <ele>32.2</ele>
        <time>2023-01-27T12:33:02Z</time>
      </trkpt>
      <trkpt lat="47.81754" lon="-3.65403">
        <ele>32.4</ele>
        <time>2023-01-27T12:33:03Z</time>
      </trkpt>
      <trkpt lat="47.81753" lon="-3.65409">
        <ele>32.7</ele>
        <time>2023-01-27T12:33:04Z</time>
      </trkpt>
      <trkpt lat="47.81752" lon="-3.65415">
        <ele>33</ele>
        <time>2023-01-27T12:33:05Z</time>
      </trkpt>
      <trkpt lat="47.81752" lon="-3.65421">
        <ele>33.3</ele>
        <time>2023-01-27T12:33:06Z</time>
      </trkpt>
      <trkpt lat="47.81753" lon="-3.65426">
        <ele>33.6</ele>
        <time>2023-01-27T12:33:07Z</time>
      </trkpt>
      <trkpt lat="47.81753" lon="-3.65432">
        <ele>33.9</ele>
        <time>2023-01-27T12:33:08Z</time>
      </trkpt>
      <trkpt lat="47.81754" lon="-3.65438">
        <ele>34.2</ele>
        <time>2023-01-27T12:33:09Z</time>
      </trkpt>
      <trkpt lat="47.81755" lon="-3.65443">
        <ele>34.4</ele>
        <time>2023-01-27T12:33:10Z</time>
      </trkpt>
      <trkpt lat="47.81755" lon="-3.65448">
        <ele>34.6</ele>
        <time>2023-01-27T12:33:11Z</time>
      </trkpt>
      <trkpt lat="47.81756" lon="-3.65453">
        <ele>34.8</ele>
        <time>2023-01-27T12:33:12Z</time>
      </trkpt>
      <trkpt lat="47.81756" lon="-3.65458">
        <ele>35</ele>
        <time>2023-01-27T12:33:13Z</time>
      </trkpt>
      <trkpt lat="47.81757" lon="-3.65463">
        <ele>35.2</ele>
        <time>2023-01-27T12:33:14Z</time>
      </trkpt>
      <trkpt lat="47.81757" lon="-3.65468">
        <ele>35.4</ele>
        <time>2023-01-27T12:33:15Z</time>
      </trkpt>
      <trkpt lat="47.81758" lon="-3.65473">
        <ele>35.6</ele>
        <time>2023-01-27T12:33:16Z</time>
      </trkpt>
      <trkpt lat="47.81758" lon="-3.65478">
        <ele>35.7</ele>
        <time>2023-01-27T12:33:17Z</time>
      </trkpt>
      <trkpt lat="47.81758" lon="-3.65483">
        <ele>35.9</ele>
        <time>2023-01-27T12:33:18Z</time>
      </trkpt>
      <trkpt lat="47.81758" lon="-3.65489">
        <ele>36.1</ele>
        <time>2023-01-27T12:33:19Z</time>
      </trkpt>
      <trkpt lat="47.81757" lon="-3.65494">
        <ele>36.2</ele>
        <time>2023-01-27T12:33:20Z</time>
      </trkpt>
      <trkpt lat="47.81757" lon="-3.655">
        <ele>36.3</ele>
        <time>2023-01-27T12:33:21Z</time>
      </trkpt>
      <trkpt lat="47.81757" lon="-3.65505">
        <ele>36.4</ele>
        <time>2023-01-27T12:33:22Z</time>
      </trkpt>
      <trkpt lat="47.81757" lon="-3.65511">
        <ele>36.5</ele>
        <time>2023-01-27T12:33:23Z</time>
      </trkpt>
      <trkpt lat="47.81757" lon="-3.65517">
        <ele>36.6</ele>
        <time>2023-01-27T12:33:24Z</time>
      </trkpt>
      <trkpt lat="47.81758" lon="-3.65523">
        <ele>36.7</ele>
        <time>2023-01-27T12:33:25Z</time>
      </trkpt>
      <trkpt lat="47.81759" lon="-3.65529">
        <ele>36.7</ele>
        <time>2023-01-27T12:33:26Z</time>
      </trkpt>
      <trkpt lat="47.81759" lon="-3.65535">
        <ele>36.6</ele>
        <time>2023-01-27T12:33:27Z</time>
      </trkpt>
      <trkpt lat="47.8176" lon="-3.65542">
        <ele>36.6</ele>
        <time>2023-01-27T12:33:28Z</time>
      </trkpt>
      <trkpt lat="47.81761" lon="-3.65548">
        <ele>36.5</ele>
        <time>2023-01-27T12:33:29Z</time>
      </trkpt>
      <trkpt lat="47.81762" lon="-3.65557">
        <ele>36.2</ele>
        <time>2023-01-27T12:33:30Z</time>
      </trkpt>
      <trkpt lat="47.81763" lon="-3.65566">
        <ele>36</ele>
        <time>2023-01-27T12:33:31Z</time>
      </trkpt>
      <trkpt lat="47.81763" lon="-3.65575">
        <ele>35.7</ele>
        <time>2023-01-27T12:33:32Z</time>
      </trkpt>
      <trkpt lat="47.81763" lon="-3.65584">
        <ele>35.4</ele>
        <time>2023-01-27T12:33:33Z</time>
      </trkpt>
      <trkpt lat="47.81763" lon="-3.65594">
        <ele>35.1</ele>
        <time>2023-01-27T12:33:34Z</time>
      </trkpt>
      <trkpt lat="47.81763" lon="-3.65604">
        <ele>34.7</ele>
        <time>2023-01-27T12:33:35Z</time>
      </trkpt>
      <trkpt lat="47.81761" lon="-3.65614">
        <ele>34.4</ele>
        <time>2023-01-27T12:33:36Z</time>
      </trkpt>
      <trkpt lat="47.81759" lon="-3.65624">
        <ele>34</ele>
        <time>2023-01-27T12:33:37Z</time>
      </trkpt>
      <trkpt lat="47.81756" lon="-3.65634">
        <ele>33.6</ele>
        <time>2023-01-27T12:33:38Z</time>
      </trkpt>
      <trkpt lat="47.81752" lon="-3.65644">
        <ele>33.2</ele>
        <time>2023-01-27T12:33:39Z</time>
      </trkpt>
      <trkpt lat="47.81748" lon="-3.65653">
        <ele>32.7</ele>
        <time>2023-01-27T12:33:40Z</time>
      </trkpt>
      <trkpt lat="47.81743" lon="-3.65661">
        <ele>32.2</ele>
        <time>2023-01-27T12:33:41Z</time>
      </trkpt>
      <trkpt lat="47.81739" lon="-3.65671">
        <ele>31.8</ele>
        <time>2023-01-27T12:33:42Z</time>
      </trkpt>
      <trkpt lat="47.81734" lon="-3.65682">
        <ele>31.3</ele>
        <time>2023-01-27T12:33:43Z</time>
      </trkpt>
      <trkpt lat="47.8173" lon="-3.65693">
        <ele>30.8</ele>
        <time>2023-01-27T12:33:44Z</time>
      </trkpt>
      <trkpt lat="47.81725" lon="-3.65703">
        <ele>30.4</ele>
        <time>2023-01-27T12:33:45Z</time>
      </trkpt>
      <trkpt lat="47.8172" lon="-3.65713">
        <ele>30</ele>
        <time>2023-01-27T12:33:46Z</time>
      </trkpt>
      <trkpt lat="47.81715" lon="-3.65723">
        <ele>29.6</ele>
        <time>2023-01-27T12:33:47Z</time>
      </trkpt>
      <trkpt lat="47.81709" lon="-3.65733">
        <ele>29.2</ele>
        <time>2023-01-27T12:33:48Z</time>
      </trkpt>
      <trkpt lat="47.81703" lon="-3.65744">
        <ele>28.9</ele>
        <time>2023-01-27T12:33:49Z</time>
      </trkpt>
      <trkpt lat="47.81697" lon="-3.65754">
        <ele>28.7</ele>
        <time>2023-01-27T12:33:50Z</time>
      </trkpt>
      <trkpt lat="47.81692" lon="-3.65765">
        <ele>28.6</ele>
        <time>2023-01-27T12:33:51Z</time>
      </trkpt>
      <trkpt lat="47.81686" lon="-3.65774">
        <ele>28.6</ele>
        <time>2023-01-27T12:33:52Z</time>
      </trkpt>
      <trkpt lat="47.81681" lon="-3.65784">
        <ele>28.7</ele>
        <time>2023-01-27T12:33:53Z</time>
      </trkpt>
      <trkpt lat="47.81677" lon="-3.65793">
        <ele>28.8</ele>
        <time>2023-01-27T12:33:54Z</time>
      </trkpt>
      <trkpt lat="47.81672" lon="-3.65802">
        <ele>29</ele>
        <time>2023-01-27T12:33:55Z</time>
      </trkpt>
      <trkpt lat="47.81667" lon="-3.65811">
        <ele>29.2</ele>
        <time>2023-01-27T12:33:56Z</time>
      </trkpt>
      <trkpt lat="47.81662" lon="-3.6582">
        <ele>29.4</ele>
        <time>2023-01-27T12:33:57Z</time>
      </trkpt>
      <trkpt lat="47.81659" lon="-3.65828">
        <ele>29.7</ele>
        <time>2023-01-27T12:33:58Z</time>
      </trkpt>
      <trkpt lat="47.81657" lon="-3.65837">
        <ele>29.9</ele>
        <time>2023-01-27T12:33:59Z</time>
      </trkpt>
      <trkpt lat="47.81655" lon="-3.65846">
        <ele>30.2</ele>
        <time>2023-01-27T12:34:00Z</time>
      </trkpt>
      <trkpt lat="47.81652" lon="-3.65855">
        <ele>30.5</ele>
        <time>2023-01-27T12:34:01Z</time>
      </trkpt>
      <trkpt lat="47.81651" lon="-3.65863">
        <ele>30.8</ele>
        <time>2023-01-27T12:34:02Z</time>
      </trkpt>
      <trkpt lat="47.81651" lon="-3.65871">
        <ele>31.1</ele>
        <time>2023-01-27T12:34:03Z</time>
      </trkpt>
      <trkpt lat="47.8165" lon="-3.65878">
        <ele>31.3</ele>
        <time>2023-01-27T12:34:04Z</time>
      </trkpt>
      <trkpt lat="47.8165" lon="-3.65885">
        <ele>31.6</ele>
        <time>2023-01-27T12:34:05Z</time>
      </trkpt>
      <trkpt lat="47.81649" lon="-3.65892">
        <ele>31.9</ele>
        <time>2023-01-27T12:34:06Z</time>
      </trkpt>
      <trkpt lat="47.81649" lon="-3.65898">
        <ele>32.2</ele>
        <time>2023-01-27T12:34:07Z</time>
      </trkpt>
      <trkpt lat="47.81648" lon="-3.65902">
        <ele>32.4</ele>
        <time>2023-01-27T12:34:08Z</time>
      </trkpt>
      <trkpt lat="47.81648" lon="-3.6591">
        <ele>32.7</ele>
        <time>2023-01-27T12:34:09Z</time>
      </trkpt>
      <trkpt lat="47.81648" lon="-3.65918">
        <ele>33.1</ele>
        <time>2023-01-27T12:34:10Z</time>
      </trkpt>
      <trkpt lat="47.81647" lon="-3.65925">
        <ele>33.4</ele>
        <time>2023-01-27T12:34:11Z</time>
      </trkpt>
      <trkpt lat="47.81647" lon="-3.6593">
        <ele>33.6</ele>
        <time>2023-01-27T12:34:12Z</time>
      </trkpt>
      <trkpt lat="47.81647" lon="-3.65937">
        <ele>33.9</ele>
        <time>2023-01-27T12:34:13Z</time>
      </trkpt>
      <trkpt lat="47.81648" lon="-3.65948">
        <ele>34.4</ele>
        <time>2023-01-27T12:34:14Z</time>
      </trkpt>
      <trkpt lat="47.81647" lon="-3.65951">
        <ele>34.5</ele>
        <time>2023-01-27T12:34:15Z</time>
      </trkpt>
      <trkpt lat="47.81646" lon="-3.65956">
        <ele>34.7</ele>
        <time>2023-01-27T12:34:16Z</time>
      </trkpt>
      <trkpt lat="47.81646" lon="-3.65964">
        <ele>35.1</ele>
        <time>2023-01-27T12:34:18Z</time>
      </trkpt>
      <trkpt lat="47.81645" lon="-3.65971">
        <ele>35.5</ele>
        <time>2023-01-27T12:34:19Z</time>
      </trkpt>
      <trkpt lat="47.81645" lon="-3.65976">
        <ele>35.7</ele>
        <time>2023-01-27T12:34:20Z</time>
      </trkpt>
      <trkpt lat="47.81645" lon="-3.65981">
        <ele>36</ele>
        <time>2023-01-27T12:34:21Z</time>
      </trkpt>
      <trkpt lat="47.81645" lon="-3.65986">
        <ele>36.2</ele>
        <time>2023-01-27T12:34:22Z</time>
      </trkpt>
      <trkpt lat="47.81645" lon="-3.65992">
        <ele>36.5</ele>
        <time>2023-01-27T12:34:23Z</time>
      </trkpt>
      <trkpt lat="47.81644" lon="-3.66001">
        <ele>37.1</ele>
        <time>2023-01-27T12:34:24Z</time>
      </trkpt>
      <trkpt lat="47.81643" lon="-3.66015">
        <ele>37.8</ele>
        <time>2023-01-27T12:34:26Z</time>
      </trkpt>
      <trkpt lat="47.81643" lon="-3.66027">
        <ele>38.4</ele>
        <time>2023-01-27T12:34:28Z</time>
      </trkpt>
      <trkpt lat="47.81643" lon="-3.66033">
        <ele>38.8</ele>
        <time>2023-01-27T12:34:30Z</time>
      </trkpt>
      <trkpt lat="47.81643" lon="-3.66039">
        <ele>39.1</ele>
        <time>2023-01-27T12:34:31Z</time>
      </trkpt>
      <trkpt lat="47.81643" lon="-3.66044">
        <ele>39.4</ele>
        <time>2023-01-27T12:34:32Z</time>
      </trkpt>
      <trkpt lat="47.81643" lon="-3.66049">
        <ele>39.6</ele>
        <time>2023-01-27T12:34:33Z</time>
      </trkpt>
      <trkpt lat="47.81642" lon="-3.66058">
        <ele>40.1</ele>
        <time>2023-01-27T12:34:35Z</time>
      </trkpt>
      <trkpt lat="47.81641" lon="-3.66064">
        <ele>40.4</ele>
        <time>2023-01-27T12:34:36Z</time>
      </trkpt>
      <trkpt lat="47.81639" lon="-3.66071">
        <ele>41</ele>
        <time>2023-01-27T12:34:37Z</time>
      </trkpt>
      <trkpt lat="47.81636" lon="-3.66083">
        <ele>41.7</ele>
        <time>2023-01-27T12:34:39Z</time>
      </trkpt>
      <trkpt lat="47.81634" lon="-3.66092">
        <ele>42.4</ele>
        <time>2023-01-27T12:34:41Z</time>
      </trkpt>
      <trkpt lat="47.81635" lon="-3.66095">
        <ele>42.3</ele>
        <time>2023-01-27T12:34:43Z</time>
      </trkpt>
      <trkpt lat="47.81639" lon="-3.66094">
        <ele>42.1</ele>
        <time>2023-01-27T12:34:44Z</time>
      </trkpt>
      <trkpt lat="47.81641" lon="-3.66093">
        <ele>41.9</ele>
        <time>2023-01-27T12:34:45Z</time>
      </trkpt>
      <trkpt lat="47.81644" lon="-3.66092">
        <ele>41.7</ele>
        <time>2023-01-27T12:34:47Z</time>
      </trkpt>
      <trkpt lat="47.8165" lon="-3.66086">
        <ele>41.3</ele>
        <time>2023-01-27T12:34:48Z</time>
      </trkpt>
      <trkpt lat="47.81657" lon="-3.66081">
        <ele>40.7</ele>
        <time>2023-01-27T12:34:50Z</time>
      </trkpt>
      <trkpt lat="47.81661" lon="-3.66077">
        <ele>40.4</ele>
        <time>2023-01-27T12:34:52Z</time>
      </trkpt>
      <trkpt lat="47.81667" lon="-3.6607">
        <ele>39.9</ele>
        <time>2023-01-27T12:34:53Z</time>
      </trkpt>
      <trkpt lat="47.81671" lon="-3.66066">
        <ele>39.5</ele>
        <time>2023-01-27T12:34:55Z</time>
      </trkpt>
      <trkpt lat="47.81674" lon="-3.66062">
        <ele>39.3</ele>
        <time>2023-01-27T12:34:56Z</time>
      </trkpt>
      <trkpt lat="47.8168" lon="-3.66055">
        <ele>38.8</ele>
        <time>2023-01-27T12:34:57Z</time>
      </trkpt>
      <trkpt lat="47.81688" lon="-3.66048">
        <ele>38.3</ele>
        <time>2023-01-27T12:34:59Z</time>
      </trkpt>
      <trkpt lat="47.81692" lon="-3.66045">
        <ele>38</ele>
        <time>2023-01-27T12:35:01Z</time>
      </trkpt>
      <trkpt lat="47.81696" lon="-3.66042">
        <ele>37.7</ele>
        <time>2023-01-27T12:35:02Z</time>
      </trkpt>
      <trkpt lat="47.81699" lon="-3.66039">
        <ele>37.5</ele>
        <time>2023-01-27T12:35:03Z</time>
      </trkpt>
      <trkpt lat="47.81703" lon="-3.66037">
        <ele>37.2</ele>
        <time>2023-01-27T12:35:04Z</time>
      </trkpt>
      <trkpt lat="47.81708" lon="-3.66031">
        <ele>36.8</ele>
        <time>2023-01-27T12:35:05Z</time>
      </trkpt>
      <trkpt lat="47.81713" lon="-3.66024">
        <ele>36.3</ele>
        <time>2023-01-27T12:35:06Z</time>
      </trkpt>
      <trkpt lat="47.81718" lon="-3.66018">
        <ele>35.9</ele>
        <time>2023-01-27T12:35:07Z</time>
      </trkpt>
      <trkpt lat="47.81724" lon="-3.66014">
        <ele>35.4</ele>
        <time>2023-01-27T12:35:08Z</time>
      </trkpt>
      <trkpt lat="47.81729" lon="-3.66009">
        <ele>35</ele>
        <time>2023-01-27T12:35:09Z</time>
      </trkpt>
      <trkpt lat="47.81734" lon="-3.66004">
        <ele>34.5</ele>
        <time>2023-01-27T12:35:10Z</time>
      </trkpt>
      <trkpt lat="47.81739" lon="-3.66001">
        <ele>34.1</ele>
        <time>2023-01-27T12:35:11Z</time>
      </trkpt>
      <trkpt lat="47.81742" lon="-3.65998">
        <ele>33.8</ele>
        <time>2023-01-27T12:35:12Z</time>
      </trkpt>
      <trkpt lat="47.81747" lon="-3.65994">
        <ele>33.4</ele>
        <time>2023-01-27T12:35:13Z</time>
      </trkpt>
      <trkpt lat="47.81753" lon="-3.65991">
        <ele>33</ele>
        <time>2023-01-27T12:35:14Z</time>
      </trkpt>
      <trkpt lat="47.81759" lon="-3.65988">
        <ele>32.7</ele>
        <time>2023-01-27T12:35:15Z</time>
      </trkpt>
      <trkpt lat="47.81765" lon="-3.65985">
        <ele>32.4</ele>
        <time>2023-01-27T12:35:16Z</time>
      </trkpt>
      <trkpt lat="47.81769" lon="-3.65982">
        <ele>32.2</ele>
        <time>2023-01-27T12:35:17Z</time>
      </trkpt>
      <trkpt lat="47.81774" lon="-3.65979">
        <ele>32.1</ele>
        <time>2023-01-27T12:35:18Z</time>
      </trkpt>
      <trkpt lat="47.81779" lon="-3.65977">
        <ele>31.9</ele>
        <time>2023-01-27T12:35:19Z</time>
      </trkpt>
      <trkpt lat="47.81784" lon="-3.65975">
        <ele>31.8</ele>
        <time>2023-01-27T12:35:20Z</time>
      </trkpt>
      <trkpt lat="47.81786" lon="-3.65977">
        <ele>31.7</ele>
        <time>2023-01-27T12:35:21Z</time>
      </trkpt>
      <trkpt lat="47.81793" lon="-3.65971">
        <ele>31.4</ele>
        <time>2023-01-27T12:35:23Z</time>
      </trkpt>
      <trkpt lat="47.818" lon="-3.65964">
        <ele>31.1</ele>
        <time>2023-01-27T12:35:24Z</time>
      </trkpt>
      <trkpt lat="47.81805" lon="-3.65962">
        <ele>30.9</ele>
        <time>2023-01-27T12:35:26Z</time>
      </trkpt>
      <trkpt lat="47.81809" lon="-3.6596">
        <ele>30.6</ele>
        <time>2023-01-27T12:35:27Z</time>
      </trkpt>
      <trkpt lat="47.81813" lon="-3.65959">
        <ele>30.7</ele>
        <time>2023-01-27T12:35:28Z</time>
      </trkpt>
      <trkpt lat="47.81816" lon="-3.65957">
        <ele>30.8</ele>
        <time>2023-01-27T12:35:29Z</time>
      </trkpt>
      <trkpt lat="47.81819" lon="-3.65957">
        <ele>30.9</ele>
        <time>2023-01-27T12:35:30Z</time>
      </trkpt>
      <trkpt lat="47.8182" lon="-3.65957">
        <ele>30.9</ele>
        <time>2023-01-27T12:35:31Z</time>
      </trkpt>
      <trkpt lat="47.8182" lon="-3.65957">
        <ele>30.9</ele>
        <time>2023-01-27T12:35:32Z</time>
      </trkpt>
      <trkpt lat="47.81821" lon="-3.65956">
        <ele>31</ele>
        <time>2023-01-27T12:35:33Z</time>
      </trkpt>
      <trkpt lat="47.81822" lon="-3.65956">
        <ele>31</ele>
        <time>2023-01-27T12:35:35Z</time>
      </trkpt>
      <trkpt lat="47.81823" lon="-3.65955">
        <ele>31</ele>
        <time>2023-01-27T12:35:36Z</time>
      </trkpt>
      <trkpt lat="47.81823" lon="-3.65956">
        <ele>31.1</ele>
        <time>2023-01-27T12:35:37Z</time>
      </trkpt>
      <trkpt lat="47.81823" lon="-3.65958">
        <ele>31.1</ele>
        <time>2023-01-27T12:35:38Z</time>
      </trkpt>
      <trkpt lat="47.81823" lon="-3.65959">
        <ele>31.1</ele>
        <time>2023-01-27T12:35:40Z</time>
      </trkpt>
      <trkpt lat="47.81823" lon="-3.6596">
        <ele>31.1</ele>
        <time>2023-01-27T12:35:41Z</time>
      </trkpt>
      <trkpt lat="47.81823" lon="-3.6596">
        <ele>31.2</ele>
        <time>2023-01-27T12:35:42Z</time>
      </trkpt>
      <trkpt lat="47.81823" lon="-3.65961">
        <ele>31.2</ele>
        <time>2023-01-27T12:35:43Z</time>
      </trkpt>
      <trkpt lat="47.81824" lon="-3.65961">
        <ele>31.2</ele>
        <time>2023-01-27T12:35:44Z</time>
      </trkpt>
      <trkpt lat="47.81824" lon="-3.65961">
        <ele>31.2</ele>
        <time>2023-01-27T12:35:45Z</time>
      </trkpt>
      <trkpt lat="47.81824" lon="-3.65963">
        <ele>31.2</ele>
        <time>2023-01-27T12:35:46Z</time>
      </trkpt>
      <trkpt lat="47.81824" lon="-3.65963">
        <ele>31.2</ele>
        <time>2023-01-27T12:35:47Z</time>
      </trkpt>
      <trkpt lat="47.81823" lon="-3.65963">
        <ele>31.3</ele>
        <time>2023-01-27T12:35:48Z</time>
      </trkpt>
      <trkpt lat="47.81823" lon="-3.65963">
        <ele>31.3</ele>
        <time>2023-01-27T12:35:49Z</time>
      </trkpt>
      <trkpt lat="47.81822" lon="-3.65964">
        <ele>31.3</ele>
        <time>2023-01-27T12:35:50Z</time>
      </trkpt>
      <trkpt lat="47.81818" lon="-3.65966">
        <ele>31.4</ele>
        <time>2023-01-27T12:35:51Z</time>
      </trkpt>
      <trkpt lat="47.81815" lon="-3.65967">
        <ele>31.5</ele>
        <time>2023-01-27T12:35:52Z</time>
      </trkpt>
      <trkpt lat="47.81812" lon="-3.65968">
        <ele>31.6</ele>
        <time>2023-01-27T12:35:53Z</time>
      </trkpt>
      <trkpt lat="47.81808" lon="-3.6597">
        <ele>31.7</ele>
        <time>2023-01-27T12:35:54Z</time>
      </trkpt>
      <trkpt lat="47.81804" lon="-3.65972">
        <ele>31.8</ele>
        <time>2023-01-27T12:35:55Z</time>
      </trkpt>
      <trkpt lat="47.81799" lon="-3.65976">
        <ele>32</ele>
        <time>2023-01-27T12:35:56Z</time>
      </trkpt>
      <trkpt lat="47.81796" lon="-3.65979">
        <ele>32.1</ele>
        <time>2023-01-27T12:35:57Z</time>
      </trkpt>
      <trkpt lat="47.81792" lon="-3.65982">
        <ele>32.2</ele>
        <time>2023-01-27T12:35:59Z</time>
      </trkpt>
      <trkpt lat="47.81788" lon="-3.65984">
        <ele>32.3</ele>
        <time>2023-01-27T12:36:00Z</time>
      </trkpt>
      <trkpt lat="47.81782" lon="-3.65988">
        <ele>32.6</ele>
        <time>2023-01-27T12:36:02Z</time>
      </trkpt>
      <trkpt lat="47.81779" lon="-3.65992">
        <ele>32.7</ele>
        <time>2023-01-27T12:36:04Z</time>
      </trkpt>
      <trkpt lat="47.81778" lon="-3.65995">
        <ele>32.8</ele>
        <time>2023-01-27T12:36:05Z</time>
      </trkpt>
      <trkpt lat="47.81775" lon="-3.65998">
        <ele>33</ele>
        <time>2023-01-27T12:36:07Z</time>
      </trkpt>
      <trkpt lat="47.81772" lon="-3.66002">
        <ele>33.2</ele>
        <time>2023-01-27T12:36:08Z</time>
      </trkpt>
      <trkpt lat="47.81771" lon="-3.66007">
        <ele>33.4</ele>
        <time>2023-01-27T12:36:10Z</time>
      </trkpt>
      <trkpt lat="47.8177" lon="-3.66013">
        <ele>33.6</ele>
        <time>2023-01-27T12:36:11Z</time>
      </trkpt>
      <trkpt lat="47.8177" lon="-3.66015">
        <ele>33.7</ele>
        <time>2023-01-27T12:36:12Z</time>
      </trkpt>
      <trkpt lat="47.8177" lon="-3.66018">
        <ele>33.9</ele>
        <time>2023-01-27T12:36:14Z</time>
      </trkpt>
      <trkpt lat="47.81766" lon="-3.66023">
        <ele>34.2</ele>
        <time>2023-01-27T12:36:15Z</time>
      </trkpt>
      <trkpt lat="47.81762" lon="-3.66025">
        <ele>34.5</ele>
        <time>2023-01-27T12:36:16Z</time>
      </trkpt>
      <trkpt lat="47.81758" lon="-3.6603">
        <ele>34.9</ele>
        <time>2023-01-27T12:36:18Z</time>
      </trkpt>
      <trkpt lat="47.81755" lon="-3.66032">
        <ele>35.1</ele>
        <time>2023-01-27T12:36:19Z</time>
      </trkpt>
      <trkpt lat="47.81753" lon="-3.66034">
        <ele>35.3</ele>
        <time>2023-01-27T12:36:20Z</time>
      </trkpt>
      <trkpt lat="47.8175" lon="-3.66036">
        <ele>35.5</ele>
        <time>2023-01-27T12:36:21Z</time>
      </trkpt>
      <trkpt lat="47.81744" lon="-3.6604">
        <ele>35.9</ele>
        <time>2023-01-27T12:36:23Z</time>
      </trkpt>
      <trkpt lat="47.81741" lon="-3.66043">
        <ele>36.1</ele>
        <time>2023-01-27T12:36:24Z</time>
      </trkpt>
      <trkpt lat="47.81736" lon="-3.66048">
        <ele>36.5</ele>
        <time>2023-01-27T12:36:26Z</time>
      </trkpt>
      <trkpt lat="47.81733" lon="-3.66051">
        <ele>36.7</ele>
        <time>2023-01-27T12:36:28Z</time>
      </trkpt>
      <trkpt lat="47.8173" lon="-3.66053">
        <ele>36.9</ele>
        <time>2023-01-27T12:36:29Z</time>
      </trkpt>
      <trkpt lat="47.81728" lon="-3.66058">
        <ele>37.1</ele>
        <time>2023-01-27T12:36:30Z</time>
      </trkpt>
      <trkpt lat="47.81727" lon="-3.6606">
        <ele>37.2</ele>
        <time>2023-01-27T12:36:31Z</time>
      </trkpt>
      <trkpt lat="47.81724" lon="-3.66064">
        <ele>37.4</ele>
        <time>2023-01-27T12:36:33Z</time>
      </trkpt>
      <trkpt lat="47.81719" lon="-3.66071">
        <ele>37.8</ele>
        <time>2023-01-27T12:36:34Z</time>
      </trkpt>
      <trkpt lat="47.81717" lon="-3.66076">
        <ele>38</ele>
        <time>2023-01-27T12:36:36Z</time>
      </trkpt>
      <trkpt lat="47.81714" lon="-3.66082">
        <ele>38.2</ele>
        <time>2023-01-27T12:36:37Z</time>
      </trkpt>
      <trkpt lat="47.81712" lon="-3.66084">
        <ele>38.4</ele>
        <time>2023-01-27T12:36:38Z</time>
      </trkpt>
      <trkpt lat="47.81707" lon="-3.66089">
        <ele>38.7</ele>
        <time>2023-01-27T12:36:40Z</time>
      </trkpt>
      <trkpt lat="47.81702" lon="-3.66095">
        <ele>39.1</ele>
        <time>2023-01-27T12:36:41Z</time>
      </trkpt>
      <trkpt lat="47.81699" lon="-3.66099">
        <ele>39.3</ele>
        <time>2023-01-27T12:36:43Z</time>
      </trkpt>
      <trkpt lat="47.81693" lon="-3.66103">
        <ele>39.6</ele>
        <time>2023-01-27T12:36:44Z</time>
      </trkpt>
      <trkpt lat="47.8169" lon="-3.66106">
        <ele>39.9</ele>
        <time>2023-01-27T12:36:46Z</time>
      </trkpt>
      <trkpt lat="47.81686" lon="-3.66108">
        <ele>40.1</ele>
        <time>2023-01-27T12:36:47Z</time>
      </trkpt>
      <trkpt lat="47.81683" lon="-3.6611">
        <ele>40.3</ele>
        <time>2023-01-27T12:36:48Z</time>
      </trkpt>
      <trkpt lat="47.81679" lon="-3.66112">
        <ele>40.5</ele>
        <time>2023-01-27T12:36:49Z</time>
      </trkpt>
      <trkpt lat="47.81678" lon="-3.66113">
        <ele>40.6</ele>
        <time>2023-01-27T12:36:50Z</time>
      </trkpt>
      <trkpt lat="47.81675" lon="-3.66115">
        <ele>40.8</ele>
        <time>2023-01-27T12:36:51Z</time>
      </trkpt>
      <trkpt lat="47.81673" lon="-3.66117">
        <ele>41</ele>
        <time>2023-01-27T12:36:52Z</time>
      </trkpt>
      <trkpt lat="47.81672" lon="-3.66117">
        <ele>41.1</ele>
        <time>2023-01-27T12:36:53Z</time>
      </trkpt>
      <trkpt lat="47.81669" lon="-3.66119">
        <ele>41.2</ele>
        <time>2023-01-27T12:36:54Z</time>
      </trkpt>
      <trkpt lat="47.81668" lon="-3.6612">
        <ele>41.3</ele>
        <time>2023-01-27T12:36:55Z</time>
      </trkpt>
      <trkpt lat="47.81665" lon="-3.66121">
        <ele>41.5</ele>
        <time>2023-01-27T12:36:56Z</time>
      </trkpt>
      <trkpt lat="47.81662" lon="-3.66121">
        <ele>41.6</ele>
        <time>2023-01-27T12:36:57Z</time>
      </trkpt>
      <trkpt lat="47.8166" lon="-3.66119">
        <ele>41.8</ele>
        <time>2023-01-27T12:36:58Z</time>
      </trkpt>
      <trkpt lat="47.81655" lon="-3.66119">
        <ele>42</ele>
        <time>2023-01-27T12:36:59Z</time>
      </trkpt>
      <trkpt lat="47.81653" lon="-3.6612">
        <ele>42.1</ele>
        <time>2023-01-27T12:37:00Z</time>
      </trkpt>
      <trkpt lat="47.81652" lon="-3.66123">
        <ele>42.2</ele>
        <time>2023-01-27T12:37:02Z</time>
      </trkpt>
      <trkpt lat="47.81651" lon="-3.66125">
        <ele>41.9</ele>
        <time>2023-01-27T12:37:03Z</time>
      </trkpt>
      <trkpt lat="47.81651" lon="-3.66127">
        <ele>41.9</ele>
        <time>2023-01-27T12:37:04Z</time>
      </trkpt>
      <trkpt lat="47.81649" lon="-3.66131">
        <ele>41.9</ele>
        <time>2023-01-27T12:37:05Z</time>
      </trkpt>
      <trkpt lat="47.81647" lon="-3.66133">
        <ele>41.9</ele>
        <time>2023-01-27T12:37:06Z</time>
      </trkpt>
      <trkpt lat="47.81645" lon="-3.66136">
        <ele>41.9</ele>
        <time>2023-01-27T12:37:07Z</time>
      </trkpt>
      <trkpt lat="47.81643" lon="-3.66139">
        <ele>42.6</ele>
        <time>2023-01-27T12:37:08Z</time>
      </trkpt>
      <trkpt lat="47.81642" lon="-3.6614">
        <ele>42.6</ele>
        <time>2023-01-27T12:37:09Z</time>
      </trkpt>
      <trkpt lat="47.81641" lon="-3.66144">
        <ele>42.8</ele>
        <time>2023-01-27T12:37:10Z</time>
      </trkpt>
      <trkpt lat="47.8164" lon="-3.66145">
        <ele>42.8</ele>
        <time>2023-01-27T12:37:11Z</time>
      </trkpt>
      <trkpt lat="47.81637" lon="-3.66148">
        <ele>42.9</ele>
        <time>2023-01-27T12:37:12Z</time>
      </trkpt>
      <trkpt lat="47.81635" lon="-3.66151">
        <ele>43</ele>
        <time>2023-01-27T12:37:13Z</time>
      </trkpt>
      <trkpt lat="47.81633" lon="-3.66154">
        <ele>43.1</ele>
        <time>2023-01-27T12:37:14Z</time>
      </trkpt>
      <trkpt lat="47.81631" lon="-3.66158">
        <ele>43.3</ele>
        <time>2023-01-27T12:37:15Z</time>
      </trkpt>
      <trkpt lat="47.8163" lon="-3.6616">
        <ele>43.3</ele>
        <time>2023-01-27T12:37:16Z</time>
      </trkpt>
      <trkpt lat="47.8163" lon="-3.66164">
        <ele>43.4</ele>
        <time>2023-01-27T12:37:17Z</time>
      </trkpt>
      <trkpt lat="47.8163" lon="-3.66166">
        <ele>43.4</ele>
        <time>2023-01-27T12:37:18Z</time>
      </trkpt>
      <trkpt lat="47.8163" lon="-3.66172">
        <ele>43.6</ele>
        <time>2023-01-27T12:37:20Z</time>
      </trkpt>
      <trkpt lat="47.8163" lon="-3.66174">
        <ele>43.6</ele>
        <time>2023-01-27T12:37:21Z</time>
      </trkpt>
      <trkpt lat="47.81631" lon="-3.66179">
        <ele>43.7</ele>
        <time>2023-01-27T12:37:23Z</time>
      </trkpt>
      <trkpt lat="47.81629" lon="-3.66186">
        <ele>43.8</ele>
        <time>2023-01-27T12:37:24Z</time>
      </trkpt>
      <trkpt lat="47.81627" lon="-3.66191">
        <ele>43.9</ele>
        <time>2023-01-27T12:37:26Z</time>
      </trkpt>
      <trkpt lat="47.81626" lon="-3.66193">
        <ele>43.9</ele>
        <time>2023-01-27T12:37:27Z</time>
      </trkpt>
      <trkpt lat="47.81622" lon="-3.662">
        <ele>44</ele>
        <time>2023-01-27T12:37:28Z</time>
      </trkpt>
      <trkpt lat="47.8162" lon="-3.66205">
        <ele>44.1</ele>
        <time>2023-01-27T12:37:29Z</time>
      </trkpt>
      <trkpt lat="47.81619" lon="-3.66207">
        <ele>44.1</ele>
        <time>2023-01-27T12:37:30Z</time>
      </trkpt>
      <trkpt lat="47.81615" lon="-3.66213">
        <ele>44.2</ele>
        <time>2023-01-27T12:37:32Z</time>
      </trkpt>
      <trkpt lat="47.81613" lon="-3.66219">
        <ele>44.2</ele>
        <time>2023-01-27T12:37:34Z</time>
      </trkpt>
      <trkpt lat="47.81613" lon="-3.66223">
        <ele>44.2</ele>
        <time>2023-01-27T12:37:36Z</time>
      </trkpt>
      <trkpt lat="47.81612" lon="-3.66226">
        <ele>44.2</ele>
        <time>2023-01-27T12:37:37Z</time>
      </trkpt>
      <trkpt lat="47.81612" lon="-3.66227">
        <ele>44.2</ele>
        <time>2023-01-27T12:37:38Z</time>
      </trkpt>
      <trkpt lat="47.81612" lon="-3.66229">
        <ele>44.2</ele>
        <time>2023-01-27T12:37:39Z</time>
      </trkpt>
      <trkpt lat="47.81611" lon="-3.6623">
        <ele>44.2</ele>
        <time>2023-01-27T12:37:40Z</time>
      </trkpt>
      <trkpt lat="47.81611" lon="-3.66231">
        <ele>44.2</ele>
        <time>2023-01-27T12:37:41Z</time>
      </trkpt>
      <trkpt lat="47.81611" lon="-3.66231">
        <ele>44.2</ele>
        <time>2023-01-27T12:37:42Z</time>
      </trkpt>
      <trkpt lat="47.81611" lon="-3.66231">
        <ele>44.2</ele>
        <time>2023-01-27T12:37:43Z</time>
      </trkpt>
      <trkpt lat="47.81611" lon="-3.66231">
        <ele>44.2</ele>
        <time>2023-01-27T12:37:44Z</time>
      </trkpt>
      <trkpt lat="47.81611" lon="-3.66231">
        <ele>44.2</ele>
        <time>2023-01-27T12:37:45Z</time>
      </trkpt>
      <trkpt lat="47.81611" lon="-3.66231">
        <ele>44.2</ele>
        <time>2023-01-27T12:37:46Z</time>
      </trkpt>
      <trkpt lat="47.8161" lon="-3.66231">
        <ele>44.2</ele>
        <time>2023-01-27T12:37:47Z</time>
      </trkpt>
      <trkpt lat="47.8161" lon="-3.66231">
        <ele>44.2</ele>
        <time>2023-01-27T12:37:48Z</time>
      </trkpt>
      <trkpt lat="47.81611" lon="-3.66237">
        <ele>44.1</ele>
        <time>2023-01-27T12:38:13Z</time>
      </trkpt>
      <trkpt lat="47.81607" lon="-3.66244">
        <ele>44.1</ele>
        <time>2023-01-27T12:38:14Z</time>
      </trkpt>
      <trkpt lat="47.81604" lon="-3.6625">
        <ele>44.1</ele>
        <time>2023-01-27T12:38:16Z</time>
      </trkpt>
      <trkpt lat="47.81603" lon="-3.66255">
        <ele>44.2</ele>
        <time>2023-01-27T12:38:18Z</time>
      </trkpt>
      <trkpt lat="47.81601" lon="-3.66259">
        <ele>44.2</ele>
        <time>2023-01-27T12:38:19Z</time>
      </trkpt>
      <trkpt lat="47.816" lon="-3.66263">
        <ele>44.2</ele>
        <time>2023-01-27T12:38:20Z</time>
      </trkpt>
      <trkpt lat="47.81599" lon="-3.6627">
        <ele>44.4</ele>
        <time>2023-01-27T12:38:21Z</time>
      </trkpt>
      <trkpt lat="47.81595" lon="-3.66277">
        <ele>44.6</ele>
        <time>2023-01-27T12:38:23Z</time>
      </trkpt>
      <trkpt lat="47.81593" lon="-3.66279">
        <ele>44.8</ele>
        <time>2023-01-27T12:38:24Z</time>
      </trkpt>
      <trkpt lat="47.8159" lon="-3.66287">
        <ele>45.2</ele>
        <time>2023-01-27T12:38:26Z</time>
      </trkpt>
      <trkpt lat="47.81587" lon="-3.6629">
        <ele>45.4</ele>
        <time>2023-01-27T12:38:28Z</time>
      </trkpt>
      <trkpt lat="47.81585" lon="-3.66294">
        <ele>45.6</ele>
        <time>2023-01-27T12:38:29Z</time>
      </trkpt>
      <trkpt lat="47.81582" lon="-3.66298">
        <ele>45.8</ele>
        <time>2023-01-27T12:38:30Z</time>
      </trkpt>
      <trkpt lat="47.81582" lon="-3.66299">
        <ele>45.8</ele>
        <time>2023-01-27T12:38:31Z</time>
      </trkpt>
      <trkpt lat="47.81579" lon="-3.66301">
        <ele>46</ele>
        <time>2023-01-27T12:38:32Z</time>
      </trkpt>
      <trkpt lat="47.81575" lon="-3.66303">
        <ele>46.1</ele>
        <time>2023-01-27T12:38:33Z</time>
      </trkpt>
      <trkpt lat="47.81572" lon="-3.66306">
        <ele>46.3</ele>
        <time>2023-01-27T12:38:34Z</time>
      </trkpt>
      <trkpt lat="47.81569" lon="-3.6631">
        <ele>46.5</ele>
        <time>2023-01-27T12:38:35Z</time>
      </trkpt>
      <trkpt lat="47.81568" lon="-3.66311">
        <ele>46.6</ele>
        <time>2023-01-27T12:38:36Z</time>
      </trkpt>
      <trkpt lat="47.81566" lon="-3.66315">
        <ele>46.7</ele>
        <time>2023-01-27T12:38:37Z</time>
      </trkpt>
      <trkpt lat="47.81565" lon="-3.66316">
        <ele>46.7</ele>
        <time>2023-01-27T12:38:38Z</time>
      </trkpt>
      <trkpt lat="47.81565" lon="-3.66321">
        <ele>46.9</ele>
        <time>2023-01-27T12:38:39Z</time>
      </trkpt>
      <trkpt lat="47.81565" lon="-3.66322">
        <ele>46.9</ele>
        <time>2023-01-27T12:38:40Z</time>
      </trkpt>
      <trkpt lat="47.81564" lon="-3.66327">
        <ele>47.1</ele>
        <time>2023-01-27T12:38:41Z</time>
      </trkpt>
      <trkpt lat="47.81564" lon="-3.66333">
        <ele>47.2</ele>
        <time>2023-01-27T12:38:42Z</time>
      </trkpt>
      <trkpt lat="47.81564" lon="-3.66335">
        <ele>47.3</ele>
        <time>2023-01-27T12:38:43Z</time>
      </trkpt>
      <trkpt lat="47.81564" lon="-3.66339">
        <ele>47.4</ele>
        <time>2023-01-27T12:38:44Z</time>
      </trkpt>
      <trkpt lat="47.81564" lon="-3.66344">
        <ele>47.5</ele>
        <time>2023-01-27T12:38:45Z</time>
      </trkpt>
      <trkpt lat="47.81564" lon="-3.66349">
        <ele>47.5</ele>
        <time>2023-01-27T12:38:46Z</time>
      </trkpt>
      <trkpt lat="47.81563" lon="-3.66356">
        <ele>47.6</ele>
        <time>2023-01-27T12:38:47Z</time>
      </trkpt>
      <trkpt lat="47.81562" lon="-3.66365">
        <ele>47.7</ele>
        <time>2023-01-27T12:38:48Z</time>
      </trkpt>
      <trkpt lat="47.81561" lon="-3.66366">
        <ele>47.8</ele>
        <time>2023-01-27T12:38:49Z</time>
      </trkpt>
      <trkpt lat="47.81559" lon="-3.66366">
        <ele>47.8</ele>
        <time>2023-01-27T12:38:50Z</time>
      </trkpt>
      <trkpt lat="47.81555" lon="-3.66366">
        <ele>47.8</ele>
        <time>2023-01-27T12:38:52Z</time>
      </trkpt>
      <trkpt lat="47.81553" lon="-3.66366">
        <ele>47.8</ele>
        <time>2023-01-27T12:38:53Z</time>
      </trkpt>
      <trkpt lat="47.81553" lon="-3.66366">
        <ele>47.8</ele>
        <time>2023-01-27T12:38:54Z</time>
      </trkpt>
      <trkpt lat="47.81551" lon="-3.66364">
        <ele>47.8</ele>
        <time>2023-01-27T12:38:56Z</time>
      </trkpt>
      <trkpt lat="47.81552" lon="-3.66364">
        <ele>47.8</ele>
        <time>2023-01-27T12:38:57Z</time>
      </trkpt>
      <trkpt lat="47.81552" lon="-3.66364">
        <ele>47.8</ele>
        <time>2023-01-27T12:38:59Z</time>
      </trkpt>
      <trkpt lat="47.81553" lon="-3.66365">
        <ele>47.8</ele>
        <time>2023-01-27T12:39:00Z</time>
      </trkpt>
      <trkpt lat="47.81554" lon="-3.66365">
        <ele>47.8</ele>
        <time>2023-01-27T12:39:01Z</time>
      </trkpt>
      <trkpt lat="47.81555" lon="-3.66365">
        <ele>47.8</ele>
        <time>2023-01-27T12:39:02Z</time>
      </trkpt>
      <trkpt lat="47.81557" lon="-3.66366">
        <ele>47.7</ele>
        <time>2023-01-27T12:39:04Z</time>
      </trkpt>
      <trkpt lat="47.81562" lon="-3.66373">
        <ele>47.6</ele>
        <time>2023-01-27T12:39:06Z</time>
      </trkpt>
      <trkpt lat="47.81563" lon="-3.66377">
        <ele>47.6</ele>
        <time>2023-01-27T12:39:08Z</time>
      </trkpt>
      <trkpt lat="47.81565" lon="-3.6638">
        <ele>47.5</ele>
        <time>2023-01-27T12:39:09Z</time>
      </trkpt>
      <trkpt lat="47.81568" lon="-3.6638">
        <ele>47.4</ele>
        <time>2023-01-27T12:39:10Z</time>
      </trkpt>
      <trkpt lat="47.81573" lon="-3.66382">
        <ele>47.3</ele>
        <time>2023-01-27T12:39:12Z</time>
      </trkpt>
      <trkpt lat="47.81573" lon="-3.66384">
        <ele>47.3</ele>
        <time>2023-01-27T12:39:14Z</time>
      </trkpt>
      <trkpt lat="47.81574" lon="-3.66385">
        <ele>47.2</ele>
        <time>2023-01-27T12:39:15Z</time>
      </trkpt>
      <trkpt lat="47.81575" lon="-3.66386">
        <ele>47.2</ele>
        <time>2023-01-27T12:39:16Z</time>
      </trkpt>
      <trkpt lat="47.81576" lon="-3.66387">
        <ele>47.2</ele>
        <time>2023-01-27T12:39:17Z</time>
      </trkpt>
      <trkpt lat="47.81576" lon="-3.66389">
        <ele>47.1</ele>
        <time>2023-01-27T12:39:18Z</time>
      </trkpt>
      <trkpt lat="47.81576" lon="-3.66389">
        <ele>47.1</ele>
        <time>2023-01-27T12:39:19Z</time>
      </trkpt>
      <trkpt lat="47.81576" lon="-3.6639">
        <ele>47.1</ele>
        <time>2023-01-27T12:39:20Z</time>
      </trkpt>
      <trkpt lat="47.81576" lon="-3.6639">
        <ele>47.1</ele>
        <time>2023-01-27T12:39:22Z</time>
      </trkpt>
      <trkpt lat="47.81576" lon="-3.6639">
        <ele>47.1</ele>
        <time>2023-01-27T12:39:23Z</time>
      </trkpt>
      <trkpt lat="47.81576" lon="-3.6639">
        <ele>47.1</ele>
        <time>2023-01-27T12:39:24Z</time>
      </trkpt>
      <trkpt lat="47.81576" lon="-3.6639">
        <ele>47.1</ele>
        <time>2023-01-27T12:39:25Z</time>
      </trkpt>
      <trkpt lat="47.81576" lon="-3.66391">
        <ele>47.1</ele>
        <time>2023-01-27T12:39:27Z</time>
      </trkpt>
      <trkpt lat="47.81576" lon="-3.66391">
        <ele>47.1</ele>
        <time>2023-01-27T12:39:28Z</time>
      </trkpt>
      <trkpt lat="47.81576" lon="-3.66392">
        <ele>47.1</ele>
        <time>2023-01-27T12:39:29Z</time>
      </trkpt>
      <trkpt lat="47.81576" lon="-3.66392">
        <ele>47.1</ele>
        <time>2023-01-27T12:39:30Z</time>
      </trkpt>
      <trkpt lat="47.81576" lon="-3.66392">
        <ele>47.1</ele>
        <time>2023-01-27T12:39:31Z</time>
      </trkpt>
      <trkpt lat="47.81576" lon="-3.66392">
        <ele>47.1</ele>
        <time>2023-01-27T12:39:32Z</time>
      </trkpt>
      <trkpt lat="47.81576" lon="-3.66393">
        <ele>47.1</ele>
        <time>2023-01-27T12:39:33Z</time>
      </trkpt>
      <trkpt lat="47.81577" lon="-3.66396">
        <ele>47.1</ele>
        <time>2023-01-27T12:39:34Z</time>
      </trkpt>
      <trkpt lat="47.81577" lon="-3.66397">
        <ele>47.1</ele>
        <time>2023-01-27T12:39:35Z</time>
      </trkpt>
      <trkpt lat="47.81576" lon="-3.66398">
        <ele>47</ele>
        <time>2023-01-27T12:39:36Z</time>
      </trkpt>
      <trkpt lat="47.81576" lon="-3.66398">
        <ele>47</ele>
        <time>2023-01-27T12:39:37Z</time>
      </trkpt>
      <trkpt lat="47.81576" lon="-3.66404">
        <ele>47</ele>
        <time>2023-01-27T12:39:38Z</time>
      </trkpt>
      <trkpt lat="47.81575" lon="-3.66407">
        <ele>47.1</ele>
        <time>2023-01-27T12:39:39Z</time>
      </trkpt>
      <trkpt lat="47.81575" lon="-3.66409">
        <ele>47.1</ele>
        <time>2023-01-27T12:39:40Z</time>
      </trkpt>
      <trkpt lat="47.81574" lon="-3.6641">
        <ele>47.1</ele>
        <time>2023-01-27T12:39:41Z</time>
      </trkpt>
      <trkpt lat="47.81574" lon="-3.66411">
        <ele>47.1</ele>
        <time>2023-01-27T12:39:42Z</time>
      </trkpt>
      <trkpt lat="47.81574" lon="-3.66414">
        <ele>47.2</ele>
        <time>2023-01-27T12:39:44Z</time>
      </trkpt>
      <trkpt lat="47.81574" lon="-3.66415">
        <ele>47.2</ele>
        <time>2023-01-27T12:39:45Z</time>
      </trkpt>
      <trkpt lat="47.81574" lon="-3.66415">
        <ele>47.2</ele>
        <time>2023-01-27T12:39:46Z</time>
      </trkpt>
      <trkpt lat="47.81575" lon="-3.66416">
        <ele>47.2</ele>
        <time>2023-01-27T12:39:47Z</time>
      </trkpt>
      <trkpt lat="47.81575" lon="-3.66417">
        <ele>47.2</ele>
        <time>2023-01-27T12:39:48Z</time>
      </trkpt>
      <trkpt lat="47.81575" lon="-3.66417">
        <ele>47.3</ele>
        <time>2023-01-27T12:39:49Z</time>
      </trkpt>
      <trkpt lat="47.81577" lon="-3.66422">
        <ele>47.4</ele>
        <time>2023-01-27T12:39:50Z</time>
      </trkpt>
      <trkpt lat="47.81577" lon="-3.66425">
        <ele>47.5</ele>
        <time>2023-01-27T12:39:51Z</time>
      </trkpt>
      <trkpt lat="47.81576" lon="-3.66431">
        <ele>47.7</ele>
        <time>2023-01-27T12:39:53Z</time>
      </trkpt>
      <trkpt lat="47.81574" lon="-3.66435">
        <ele>47.9</ele>
        <time>2023-01-27T12:39:54Z</time>
      </trkpt>
      <trkpt lat="47.81574" lon="-3.66438">
        <ele>48</ele>
        <time>2023-01-27T12:39:56Z</time>
      </trkpt>
      <trkpt lat="47.81573" lon="-3.66439">
        <ele>48</ele>
        <time>2023-01-27T12:39:57Z</time>
      </trkpt>
      <trkpt lat="47.81573" lon="-3.66439">
        <ele>48.1</ele>
        <time>2023-01-27T12:39:58Z</time>
      </trkpt>
      <trkpt lat="47.81573" lon="-3.66439">
        <ele>48.1</ele>
        <time>2023-01-27T12:39:59Z</time>
      </trkpt>
      <trkpt lat="47.81572" lon="-3.6644">
        <ele>48.1</ele>
        <time>2023-01-27T12:40:00Z</time>
      </trkpt>
      <trkpt lat="47.81572" lon="-3.6644">
        <ele>48.1</ele>
        <time>2023-01-27T12:40:01Z</time>
      </trkpt>
      <trkpt lat="47.81572" lon="-3.66441">
        <ele>48.2</ele>
        <time>2023-01-27T12:40:02Z</time>
      </trkpt>
      <trkpt lat="47.81571" lon="-3.66441">
        <ele>48.2</ele>
        <time>2023-01-27T12:40:03Z</time>
      </trkpt>
      <trkpt lat="47.81571" lon="-3.66441">
        <ele>48.2</ele>
        <time>2023-01-27T12:40:04Z</time>
      </trkpt>
      <trkpt lat="47.81571" lon="-3.66442">
        <ele>48.2</ele>
        <time>2023-01-27T12:40:05Z</time>
      </trkpt>
      <trkpt lat="47.8157" lon="-3.66442">
        <ele>48.2</ele>
        <time>2023-01-27T12:40:06Z</time>
      </trkpt>
      <trkpt lat="47.8157" lon="-3.66442">
        <ele>48.3</ele>
        <time>2023-01-27T12:40:19Z</time>
      </trkpt>
      <trkpt lat="47.81569" lon="-3.66443">
        <ele>48.3</ele>
        <time>2023-01-27T12:40:21Z</time>
      </trkpt>
      <trkpt lat="47.81569" lon="-3.66443">
        <ele>48.3</ele>
        <time>2023-01-27T12:40:22Z</time>
      </trkpt>
      <trkpt lat="47.81569" lon="-3.66444">
        <ele>48.3</ele>
        <time>2023-01-27T12:40:23Z</time>
      </trkpt>
      <trkpt lat="47.81568" lon="-3.66444">
        <ele>48.4</ele>
        <time>2023-01-27T12:40:24Z</time>
      </trkpt>
      <trkpt lat="47.81568" lon="-3.66444">
        <ele>48.4</ele>
        <time>2023-01-27T12:40:25Z</time>
      </trkpt>
      <trkpt lat="47.81568" lon="-3.66445">
        <ele>48.4</ele>
        <time>2023-01-27T12:40:26Z</time>
      </trkpt>
      <trkpt lat="47.81567" lon="-3.66446">
        <ele>48.4</ele>
        <time>2023-01-27T12:40:27Z</time>
      </trkpt>
      <trkpt lat="47.81567" lon="-3.66447">
        <ele>48.5</ele>
        <time>2023-01-27T12:40:28Z</time>
      </trkpt>
      <trkpt lat="47.81566" lon="-3.66448">
        <ele>48.5</ele>
        <time>2023-01-27T12:40:29Z</time>
      </trkpt>
      <trkpt lat="47.81565" lon="-3.66448">
        <ele>48.6</ele>
        <time>2023-01-27T12:40:30Z</time>
      </trkpt>
      <trkpt lat="47.81564" lon="-3.66449">
        <ele>48.6</ele>
        <time>2023-01-27T12:40:31Z</time>
      </trkpt>
      <trkpt lat="47.81564" lon="-3.6645">
        <ele>48.6</ele>
        <time>2023-01-27T12:40:32Z</time>
      </trkpt>
      <trkpt lat="47.81563" lon="-3.66451">
        <ele>48.7</ele>
        <time>2023-01-27T12:40:33Z</time>
      </trkpt>
      <trkpt lat="47.81563" lon="-3.66453">
        <ele>48.7</ele>
        <time>2023-01-27T12:40:34Z</time>
      </trkpt>
      <trkpt lat="47.81563" lon="-3.66455">
        <ele>48.8</ele>
        <time>2023-01-27T12:40:35Z</time>
      </trkpt>
      <trkpt lat="47.81563" lon="-3.66456">
        <ele>48.8</ele>
        <time>2023-01-27T12:40:36Z</time>
      </trkpt>
      <trkpt lat="47.81562" lon="-3.66458">
        <ele>48.8</ele>
        <time>2023-01-27T12:40:37Z</time>
      </trkpt>
      <trkpt lat="47.81563" lon="-3.66462">
        <ele>48.9</ele>
        <time>2023-01-27T12:40:39Z</time>
      </trkpt>
      <trkpt lat="47.81563" lon="-3.66463">
        <ele>48.9</ele>
        <time>2023-01-27T12:40:40Z</time>
      </trkpt>
      <trkpt lat="47.81562" lon="-3.66467">
        <ele>49</ele>
        <time>2023-01-27T12:40:41Z</time>
      </trkpt>
      <trkpt lat="47.81561" lon="-3.66468">
        <ele>49</ele>
        <time>2023-01-27T12:40:43Z</time>
      </trkpt>
      <trkpt lat="47.8156" lon="-3.66469">
        <ele>49</ele>
        <time>2023-01-27T12:40:44Z</time>
      </trkpt>
      <trkpt lat="47.8156" lon="-3.66474">
        <ele>49</ele>
        <time>2023-01-27T12:40:45Z</time>
      </trkpt>
      <trkpt lat="47.81559" lon="-3.66476">
        <ele>49.1</ele>
        <time>2023-01-27T12:40:47Z</time>
      </trkpt>
      <trkpt lat="47.81557" lon="-3.66479">
        <ele>49.1</ele>
        <time>2023-01-27T12:40:48Z</time>
      </trkpt>
      <trkpt lat="47.81555" lon="-3.66486">
        <ele>49.2</ele>
        <time>2023-01-27T12:40:50Z</time>
      </trkpt>
      <trkpt lat="47.81554" lon="-3.6649">
        <ele>49.2</ele>
        <time>2023-01-27T12:40:51Z</time>
      </trkpt>
      <trkpt lat="47.81554" lon="-3.66496">
        <ele>49.2</ele>
        <time>2023-01-27T12:40:53Z</time>
      </trkpt>
      <trkpt lat="47.81554" lon="-3.665">
        <ele>49.3</ele>
        <time>2023-01-27T12:40:54Z</time>
      </trkpt>
      <trkpt lat="47.81553" lon="-3.66506">
        <ele>49.3</ele>
        <time>2023-01-27T12:40:56Z</time>
      </trkpt>
      <trkpt lat="47.81551" lon="-3.66511">
        <ele>49.4</ele>
        <time>2023-01-27T12:40:57Z</time>
      </trkpt>
      <trkpt lat="47.81551" lon="-3.66515">
        <ele>49.4</ele>
        <time>2023-01-27T12:40:58Z</time>
      </trkpt>
      <trkpt lat="47.81552" lon="-3.66521">
        <ele>49.5</ele>
        <time>2023-01-27T12:41:00Z</time>
      </trkpt>
      <trkpt lat="47.81552" lon="-3.66522">
        <ele>49.5</ele>
        <time>2023-01-27T12:41:01Z</time>
      </trkpt>
      <trkpt lat="47.81553" lon="-3.66529">
        <ele>49.6</ele>
        <time>2023-01-27T12:41:02Z</time>
      </trkpt>
      <trkpt lat="47.81554" lon="-3.66532">
        <ele>49.6</ele>
        <time>2023-01-27T12:41:03Z</time>
      </trkpt>
      <trkpt lat="47.81555" lon="-3.66536">
        <ele>49.6</ele>
        <time>2023-01-27T12:41:05Z</time>
      </trkpt>
      <trkpt lat="47.81556" lon="-3.66538">
        <ele>49.6</ele>
        <time>2023-01-27T12:41:06Z</time>
      </trkpt>
      <trkpt lat="47.81558" lon="-3.66542">
        <ele>49.5</ele>
        <time>2023-01-27T12:41:07Z</time>
      </trkpt>
      <trkpt lat="47.81558" lon="-3.66547">
        <ele>49.5</ele>
        <time>2023-01-27T12:41:09Z</time>
      </trkpt>
      <trkpt lat="47.81558" lon="-3.66551">
        <ele>49.4</ele>
        <time>2023-01-27T12:41:10Z</time>
      </trkpt>
      <trkpt lat="47.81558" lon="-3.66553">
        <ele>49.4</ele>
        <time>2023-01-27T12:41:11Z</time>
      </trkpt>
      <trkpt lat="47.81558" lon="-3.66557">
        <ele>49.2</ele>
        <time>2023-01-27T12:41:12Z</time>
      </trkpt>
      <trkpt lat="47.81557" lon="-3.66558">
        <ele>49.2</ele>
        <time>2023-01-27T12:41:13Z</time>
      </trkpt>
      <trkpt lat="47.81557" lon="-3.66562">
        <ele>49.1</ele>
        <time>2023-01-27T12:41:14Z</time>
      </trkpt>
      <trkpt lat="47.81556" lon="-3.66565">
        <ele>49</ele>
        <time>2023-01-27T12:41:16Z</time>
      </trkpt>
      <trkpt lat="47.81555" lon="-3.6657">
        <ele>48.8</ele>
        <time>2023-01-27T12:41:17Z</time>
      </trkpt>
      <trkpt lat="47.81554" lon="-3.66575">
        <ele>48.6</ele>
        <time>2023-01-27T12:41:18Z</time>
      </trkpt>
      <trkpt lat="47.81553" lon="-3.66581">
        <ele>48.4</ele>
        <time>2023-01-27T12:41:20Z</time>
      </trkpt>
      <trkpt lat="47.81553" lon="-3.66583">
        <ele>48.3</ele>
        <time>2023-01-27T12:41:21Z</time>
      </trkpt>
      <trkpt lat="47.81553" lon="-3.66585">
        <ele>48.3</ele>
        <time>2023-01-27T12:41:22Z</time>
      </trkpt>
      <trkpt lat="47.81553" lon="-3.66586">
        <ele>48.2</ele>
        <time>2023-01-27T12:41:23Z</time>
      </trkpt>
      <trkpt lat="47.81553" lon="-3.66589">
        <ele>48.2</ele>
        <time>2023-01-27T12:41:24Z</time>
      </trkpt>
      <trkpt lat="47.81554" lon="-3.66591">
        <ele>48.1</ele>
        <time>2023-01-27T12:41:25Z</time>
      </trkpt>
      <trkpt lat="47.81552" lon="-3.66595">
        <ele>48</ele>
        <time>2023-01-27T12:41:26Z</time>
      </trkpt>
      <trkpt lat="47.81549" lon="-3.66599">
        <ele>47.9</ele>
        <time>2023-01-27T12:41:28Z</time>
      </trkpt>
      <trkpt lat="47.81547" lon="-3.66603">
        <ele>47.9</ele>
        <time>2023-01-27T12:41:29Z</time>
      </trkpt>
      <trkpt lat="47.81547" lon="-3.66604">
        <ele>47.9</ele>
        <time>2023-01-27T12:41:30Z</time>
      </trkpt>
      <trkpt lat="47.81547" lon="-3.66606">
        <ele>47.9</ele>
        <time>2023-01-27T12:41:31Z</time>
      </trkpt>
      <trkpt lat="47.81546" lon="-3.66607">
        <ele>47.9</ele>
        <time>2023-01-27T12:41:32Z</time>
      </trkpt>
      <trkpt lat="47.81544" lon="-3.66608">
        <ele>47.9</ele>
        <time>2023-01-27T12:41:33Z</time>
      </trkpt>
      <trkpt lat="47.81542" lon="-3.6661">
        <ele>47.9</ele>
        <time>2023-01-27T12:41:34Z</time>
      </trkpt>
      <trkpt lat="47.81539" lon="-3.66611">
        <ele>47.9</ele>
        <time>2023-01-27T12:41:35Z</time>
      </trkpt>
      <trkpt lat="47.81535" lon="-3.6661">
        <ele>47.9</ele>
        <time>2023-01-27T12:41:37Z</time>
      </trkpt>
      <trkpt lat="47.81534" lon="-3.66609">
        <ele>47.9</ele>
        <time>2023-01-27T12:41:39Z</time>
      </trkpt>
      <trkpt lat="47.81533" lon="-3.66609">
        <ele>47.9</ele>
        <time>2023-01-27T12:41:40Z</time>
      </trkpt>
      <trkpt lat="47.81532" lon="-3.66609">
        <ele>48</ele>
        <time>2023-01-27T12:41:41Z</time>
      </trkpt>
      <trkpt lat="47.81528" lon="-3.66608">
        <ele>48</ele>
        <time>2023-01-27T12:41:42Z</time>
      </trkpt>
      <trkpt lat="47.81527" lon="-3.66608">
        <ele>48</ele>
        <time>2023-01-27T12:41:43Z</time>
      </trkpt>
      <trkpt lat="47.81523" lon="-3.66607">
        <ele>48</ele>
        <time>2023-01-27T12:41:44Z</time>
      </trkpt>
      <trkpt lat="47.81522" lon="-3.66607">
        <ele>48</ele>
        <time>2023-01-27T12:41:45Z</time>
      </trkpt>
      <trkpt lat="47.8152" lon="-3.66604">
        <ele>48</ele>
        <time>2023-01-27T12:41:46Z</time>
      </trkpt>
      <trkpt lat="47.81516" lon="-3.66602">
        <ele>48.1</ele>
        <time>2023-01-27T12:41:47Z</time>
      </trkpt>
      <trkpt lat="47.81514" lon="-3.66601">
        <ele>48.1</ele>
        <time>2023-01-27T12:41:48Z</time>
      </trkpt>
      <trkpt lat="47.81509" lon="-3.66599">
        <ele>48.1</ele>
        <time>2023-01-27T12:41:49Z</time>
      </trkpt>
      <trkpt lat="47.81505" lon="-3.66597">
        <ele>48.1</ele>
        <time>2023-01-27T12:41:51Z</time>
      </trkpt>
      <trkpt lat="47.81502" lon="-3.66594">
        <ele>48.1</ele>
        <time>2023-01-27T12:41:52Z</time>
      </trkpt>
      <trkpt lat="47.81498" lon="-3.6659">
        <ele>48.1</ele>
        <time>2023-01-27T12:41:53Z</time>
      </trkpt>
      <trkpt lat="47.81496" lon="-3.66588">
        <ele>48.1</ele>
        <time>2023-01-27T12:41:54Z</time>
      </trkpt>
      <trkpt lat="47.81493" lon="-3.66587">
        <ele>48.2</ele>
        <time>2023-01-27T12:41:55Z</time>
      </trkpt>
      <trkpt lat="47.81492" lon="-3.66587">
        <ele>48.2</ele>
        <time>2023-01-27T12:41:56Z</time>
      </trkpt>
      <trkpt lat="47.81491" lon="-3.66585">
        <ele>48.2</ele>
        <time>2023-01-27T12:41:57Z</time>
      </trkpt>
      <trkpt lat="47.81489" lon="-3.66584">
        <ele>48.3</ele>
        <time>2023-01-27T12:41:58Z</time>
      </trkpt>
      <trkpt lat="47.81488" lon="-3.66581">
        <ele>48.3</ele>
        <time>2023-01-27T12:41:59Z</time>
      </trkpt>
      <trkpt lat="47.81487" lon="-3.6658">
        <ele>48.3</ele>
        <time>2023-01-27T12:42:00Z</time>
      </trkpt>
      <trkpt lat="47.81487" lon="-3.66579">
        <ele>48.4</ele>
        <time>2023-01-27T12:42:02Z</time>
      </trkpt>
      <trkpt lat="47.81486" lon="-3.66578">
        <ele>48.4</ele>
        <time>2023-01-27T12:42:03Z</time>
      </trkpt>
      <trkpt lat="47.81485" lon="-3.66578">
        <ele>48.4</ele>
        <time>2023-01-27T12:42:04Z</time>
      </trkpt>
      <trkpt lat="47.81485" lon="-3.66577">
        <ele>48.5</ele>
        <time>2023-01-27T12:42:05Z</time>
      </trkpt>
      <trkpt lat="47.81484" lon="-3.66575">
        <ele>48.5</ele>
        <time>2023-01-27T12:42:06Z</time>
      </trkpt>
      <trkpt lat="47.81484" lon="-3.66575">
        <ele>48.5</ele>
        <time>2023-01-27T12:42:07Z</time>
      </trkpt>
      <trkpt lat="47.81483" lon="-3.66573">
        <ele>48.6</ele>
        <time>2023-01-27T12:42:08Z</time>
      </trkpt>
      <trkpt lat="47.81482" lon="-3.66571">
        <ele>48.6</ele>
        <time>2023-01-27T12:42:10Z</time>
      </trkpt>
      <trkpt lat="47.81481" lon="-3.6657">
        <ele>48.7</ele>
        <time>2023-01-27T12:42:11Z</time>
      </trkpt>
      <trkpt lat="47.8148" lon="-3.6657">
        <ele>48.7</ele>
        <time>2023-01-27T12:42:12Z</time>
      </trkpt>
      <trkpt lat="47.81479" lon="-3.6657">
        <ele>48.7</ele>
        <time>2023-01-27T12:42:13Z</time>
      </trkpt>
      <trkpt lat="47.81479" lon="-3.6657">
        <ele>48.8</ele>
        <time>2023-01-27T12:42:14Z</time>
      </trkpt>
      <trkpt lat="47.81479" lon="-3.6657">
        <ele>48.8</ele>
        <time>2023-01-27T12:42:15Z</time>
      </trkpt>
      <trkpt lat="47.81478" lon="-3.6657">
        <ele>48.8</ele>
        <time>2023-01-27T12:42:16Z</time>
      </trkpt>
      <trkpt lat="47.81478" lon="-3.66569">
        <ele>48.8</ele>
        <time>2023-01-27T12:42:17Z</time>
      </trkpt>
      <trkpt lat="47.81477" lon="-3.66568">
        <ele>48.9</ele>
        <time>2023-01-27T12:42:18Z</time>
      </trkpt>
      <trkpt lat="47.81476" lon="-3.66566">
        <ele>49</ele>
        <time>2023-01-27T12:42:19Z</time>
      </trkpt>
      <trkpt lat="47.81476" lon="-3.66565">
        <ele>49</ele>
        <time>2023-01-27T12:42:20Z</time>
      </trkpt>
      <trkpt lat="47.81475" lon="-3.66563">
        <ele>49.1</ele>
        <time>2023-01-27T12:42:21Z</time>
      </trkpt>
      <trkpt lat="47.81475" lon="-3.66562">
        <ele>49.1</ele>
        <time>2023-01-27T12:42:22Z</time>
      </trkpt>
      <trkpt lat="47.81475" lon="-3.66561">
        <ele>49.1</ele>
        <time>2023-01-27T12:42:24Z</time>
      </trkpt>
      <trkpt lat="47.81474" lon="-3.6656">
        <ele>49.2</ele>
        <time>2023-01-27T12:42:25Z</time>
      </trkpt>
      <trkpt lat="47.81474" lon="-3.66557">
        <ele>49.3</ele>
        <time>2023-01-27T12:42:26Z</time>
      </trkpt>
      <trkpt lat="47.81471" lon="-3.66555">
        <ele>49.4</ele>
        <time>2023-01-27T12:42:27Z</time>
      </trkpt>
      <trkpt lat="47.81469" lon="-3.66555">
        <ele>49.5</ele>
        <time>2023-01-27T12:42:28Z</time>
      </trkpt>
      <trkpt lat="47.81469" lon="-3.66554">
        <ele>49.5</ele>
        <time>2023-01-27T12:42:29Z</time>
      </trkpt>
      <trkpt lat="47.81467" lon="-3.66553">
        <ele>49.6</ele>
        <time>2023-01-27T12:42:30Z</time>
      </trkpt>
      <trkpt lat="47.81466" lon="-3.66552">
        <ele>49.7</ele>
        <time>2023-01-27T12:42:32Z</time>
      </trkpt>
      <trkpt lat="47.81466" lon="-3.6655">
        <ele>49.7</ele>
        <time>2023-01-27T12:42:33Z</time>
      </trkpt>
      <trkpt lat="47.81466" lon="-3.6655">
        <ele>49.7</ele>
        <time>2023-01-27T12:42:34Z</time>
      </trkpt>
      <trkpt lat="47.81466" lon="-3.66549">
        <ele>49.8</ele>
        <time>2023-01-27T12:42:35Z</time>
      </trkpt>
      <trkpt lat="47.81465" lon="-3.66548">
        <ele>49.8</ele>
        <time>2023-01-27T12:42:36Z</time>
      </trkpt>
      <trkpt lat="47.81465" lon="-3.66547">
        <ele>49.8</ele>
        <time>2023-01-27T12:42:37Z</time>
      </trkpt>
      <trkpt lat="47.81464" lon="-3.66546">
        <ele>49.9</ele>
        <time>2023-01-27T12:42:38Z</time>
      </trkpt>
      <trkpt lat="47.81464" lon="-3.66545">
        <ele>49.9</ele>
        <time>2023-01-27T12:42:39Z</time>
      </trkpt>
      <trkpt lat="47.81463" lon="-3.66544">
        <ele>49.9</ele>
        <time>2023-01-27T12:42:40Z</time>
      </trkpt>
      <trkpt lat="47.81463" lon="-3.66543">
        <ele>50</ele>
        <time>2023-01-27T12:42:41Z</time>
      </trkpt>
      <trkpt lat="47.81462" lon="-3.66543">
        <ele>50</ele>
        <time>2023-01-27T12:42:42Z</time>
      </trkpt>
      <trkpt lat="47.81461" lon="-3.66542">
        <ele>50</ele>
        <time>2023-01-27T12:42:43Z</time>
      </trkpt>
      <trkpt lat="47.81461" lon="-3.66541">
        <ele>50</ele>
        <time>2023-01-27T12:42:44Z</time>
      </trkpt>
      <trkpt lat="47.8146" lon="-3.6654">
        <ele>50.1</ele>
        <time>2023-01-27T12:42:45Z</time>
      </trkpt>
      <trkpt lat="47.81459" lon="-3.66539">
        <ele>50.1</ele>
        <time>2023-01-27T12:42:46Z</time>
      </trkpt>
      <trkpt lat="47.81455" lon="-3.66536">
        <ele>50.2</ele>
        <time>2023-01-27T12:42:47Z</time>
      </trkpt>
      <trkpt lat="47.8145" lon="-3.66535">
        <ele>50.3</ele>
        <time>2023-01-27T12:42:48Z</time>
      </trkpt>
      <trkpt lat="47.81448" lon="-3.66534">
        <ele>50.3</ele>
        <time>2023-01-27T12:42:49Z</time>
      </trkpt>
      <trkpt lat="47.81444" lon="-3.66534">
        <ele>50.3</ele>
        <time>2023-01-27T12:42:50Z</time>
      </trkpt>
      <trkpt lat="47.81441" lon="-3.66535">
        <ele>50.3</ele>
        <time>2023-01-27T12:42:51Z</time>
      </trkpt>
      <trkpt lat="47.81437" lon="-3.66537">
        <ele>50.3</ele>
        <time>2023-01-27T12:42:53Z</time>
      </trkpt>
      <trkpt lat="47.81432" lon="-3.66538">
        <ele>50.2</ele>
        <time>2023-01-27T12:42:55Z</time>
      </trkpt>
      <trkpt lat="47.81428" lon="-3.66537">
        <ele>50.2</ele>
        <time>2023-01-27T12:42:57Z</time>
      </trkpt>
      <trkpt lat="47.81425" lon="-3.66534">
        <ele>50.2</ele>
        <time>2023-01-27T12:42:59Z</time>
      </trkpt>
      <trkpt lat="47.81422" lon="-3.66534">
        <ele>50.2</ele>
        <time>2023-01-27T12:43:01Z</time>
      </trkpt>
      <trkpt lat="47.81419" lon="-3.66535">
        <ele>50.2</ele>
        <time>2023-01-27T12:43:02Z</time>
      </trkpt>
      <trkpt lat="47.81416" lon="-3.66537">
        <ele>50.1</ele>
        <time>2023-01-27T12:43:03Z</time>
      </trkpt>
      <trkpt lat="47.81413" lon="-3.6654">
        <ele>49.8</ele>
        <time>2023-01-27T12:43:04Z</time>
      </trkpt>
      <trkpt lat="47.81407" lon="-3.66546">
        <ele>49.8</ele>
        <time>2023-01-27T12:43:05Z</time>
      </trkpt>
      <trkpt lat="47.81404" lon="-3.66551">
        <ele>49.8</ele>
        <time>2023-01-27T12:43:07Z</time>
      </trkpt>
      <trkpt lat="47.814" lon="-3.66563">
        <ele>49.7</ele>
        <time>2023-01-27T12:43:08Z</time>
      </trkpt>
      <trkpt lat="47.81396" lon="-3.66573">
        <ele>49.6</ele>
        <time>2023-01-27T12:43:10Z</time>
      </trkpt>
      <trkpt lat="47.81393" lon="-3.6658">
        <ele>49.5</ele>
        <time>2023-01-27T12:43:11Z</time>
      </trkpt>
      <trkpt lat="47.8139" lon="-3.66587">
        <ele>49.4</ele>
        <time>2023-01-27T12:43:12Z</time>
      </trkpt>
      <trkpt lat="47.81388" lon="-3.66594">
        <ele>49.4</ele>
        <time>2023-01-27T12:43:13Z</time>
      </trkpt>
      <trkpt lat="47.81385" lon="-3.66601">
        <ele>49.3</ele>
        <time>2023-01-27T12:43:14Z</time>
      </trkpt>
      <trkpt lat="47.81383" lon="-3.66607">
        <ele>49.3</ele>
        <time>2023-01-27T12:43:15Z</time>
      </trkpt>
      <trkpt lat="47.8138" lon="-3.66614">
        <ele>49.2</ele>
        <time>2023-01-27T12:43:16Z</time>
      </trkpt>
      <trkpt lat="47.81377" lon="-3.66621">
        <ele>49.2</ele>
        <time>2023-01-27T12:43:17Z</time>
      </trkpt>
      <trkpt lat="47.81375" lon="-3.66628">
        <ele>49.1</ele>
        <time>2023-01-27T12:43:18Z</time>
      </trkpt>
      <trkpt lat="47.81373" lon="-3.66635">
        <ele>49.1</ele>
        <time>2023-01-27T12:43:19Z</time>
      </trkpt>
      <trkpt lat="47.8137" lon="-3.66642">
        <ele>49</ele>
        <time>2023-01-27T12:43:20Z</time>
      </trkpt>
      <trkpt lat="47.81368" lon="-3.6665">
        <ele>49</ele>
        <time>2023-01-27T12:43:21Z</time>
      </trkpt>
      <trkpt lat="47.81365" lon="-3.66657">
        <ele>48.9</ele>
        <time>2023-01-27T12:43:22Z</time>
      </trkpt>
      <trkpt lat="47.81363" lon="-3.66665">
        <ele>48.9</ele>
        <time>2023-01-27T12:43:23Z</time>
      </trkpt>
      <trkpt lat="47.8136" lon="-3.66673">
        <ele>48.8</ele>
        <time>2023-01-27T12:43:24Z</time>
      </trkpt>
      <trkpt lat="47.81358" lon="-3.6668">
        <ele>48.7</ele>
        <time>2023-01-27T12:43:25Z</time>
      </trkpt>
      <trkpt lat="47.81355" lon="-3.66689">
        <ele>48.7</ele>
        <time>2023-01-27T12:43:26Z</time>
      </trkpt>
      <trkpt lat="47.81353" lon="-3.66697">
        <ele>48.7</ele>
        <time>2023-01-27T12:43:27Z</time>
      </trkpt>
      <trkpt lat="47.8135" lon="-3.66705">
        <ele>48.7</ele>
        <time>2023-01-27T12:43:28Z</time>
      </trkpt>
      <trkpt lat="47.81348" lon="-3.66712">
        <ele>48.6</ele>
        <time>2023-01-27T12:43:29Z</time>
      </trkpt>
      <trkpt lat="47.81346" lon="-3.66718">
        <ele>48.6</ele>
        <time>2023-01-27T12:43:30Z</time>
      </trkpt>
      <trkpt lat="47.81343" lon="-3.66723">
        <ele>48.6</ele>
        <time>2023-01-27T12:43:31Z</time>
      </trkpt>
      <trkpt lat="47.81341" lon="-3.66728">
        <ele>48.6</ele>
        <time>2023-01-27T12:43:32Z</time>
      </trkpt>
      <trkpt lat="47.8134" lon="-3.66733">
        <ele>48.5</ele>
        <time>2023-01-27T12:43:33Z</time>
      </trkpt>
      <trkpt lat="47.81339" lon="-3.66738">
        <ele>48.4</ele>
        <time>2023-01-27T12:43:34Z</time>
      </trkpt>
      <trkpt lat="47.8134" lon="-3.66744">
        <ele>48.4</ele>
        <time>2023-01-27T12:43:35Z</time>
      </trkpt>
      <trkpt lat="47.8134" lon="-3.66749">
        <ele>48.3</ele>
        <time>2023-01-27T12:43:36Z</time>
      </trkpt>
      <trkpt lat="47.81339" lon="-3.66754">
        <ele>48.2</ele>
        <time>2023-01-27T12:43:37Z</time>
      </trkpt>
      <trkpt lat="47.81338" lon="-3.6676">
        <ele>48</ele>
        <time>2023-01-27T12:43:38Z</time>
      </trkpt>
      <trkpt lat="47.81336" lon="-3.66765">
        <ele>47.8</ele>
        <time>2023-01-27T12:43:39Z</time>
      </trkpt>
      <trkpt lat="47.81334" lon="-3.66772">
        <ele>47.5</ele>
        <time>2023-01-27T12:43:40Z</time>
      </trkpt>
      <trkpt lat="47.81332" lon="-3.66779">
        <ele>47.3</ele>
        <time>2023-01-27T12:43:41Z</time>
      </trkpt>
      <trkpt lat="47.8133" lon="-3.66786">
        <ele>47.1</ele>
        <time>2023-01-27T12:43:42Z</time>
      </trkpt>
      <trkpt lat="47.81328" lon="-3.66793">
        <ele>46.8</ele>
        <time>2023-01-27T12:43:43Z</time>
      </trkpt>
      <trkpt lat="47.81325" lon="-3.668">
        <ele>46.6</ele>
        <time>2023-01-27T12:43:44Z</time>
      </trkpt>
      <trkpt lat="47.81323" lon="-3.66807">
        <ele>46.4</ele>
        <time>2023-01-27T12:43:45Z</time>
      </trkpt>
      <trkpt lat="47.8132" lon="-3.66815">
        <ele>46.3</ele>
        <time>2023-01-27T12:43:46Z</time>
      </trkpt>
      <trkpt lat="47.81318" lon="-3.66822">
        <ele>46.1</ele>
        <time>2023-01-27T12:43:47Z</time>
      </trkpt>
      <trkpt lat="47.81317" lon="-3.66829">
        <ele>46</ele>
        <time>2023-01-27T12:43:48Z</time>
      </trkpt>
      <trkpt lat="47.81315" lon="-3.66836">
        <ele>46</ele>
        <time>2023-01-27T12:43:49Z</time>
      </trkpt>
      <trkpt lat="47.81315" lon="-3.66841">
        <ele>46</ele>
        <time>2023-01-27T12:43:50Z</time>
      </trkpt>
      <trkpt lat="47.81313" lon="-3.66846">
        <ele>46</ele>
        <time>2023-01-27T12:43:51Z</time>
      </trkpt>
      <trkpt lat="47.81311" lon="-3.66853">
        <ele>46</ele>
        <time>2023-01-27T12:43:52Z</time>
      </trkpt>
      <trkpt lat="47.81309" lon="-3.6686">
        <ele>46.1</ele>
        <time>2023-01-27T12:43:53Z</time>
      </trkpt>
      <trkpt lat="47.81307" lon="-3.66867">
        <ele>46.1</ele>
        <time>2023-01-27T12:43:54Z</time>
      </trkpt>
      <trkpt lat="47.81307" lon="-3.6687">
        <ele>46.2</ele>
        <time>2023-01-27T12:43:55Z</time>
      </trkpt>
      <trkpt lat="47.81305" lon="-3.66875">
        <ele>46.3</ele>
        <time>2023-01-27T12:43:56Z</time>
      </trkpt>
      <trkpt lat="47.81301" lon="-3.66888">
        <ele>46.5</ele>
        <time>2023-01-27T12:43:58Z</time>
      </trkpt>
      <trkpt lat="47.81299" lon="-3.66894">
        <ele>46.6</ele>
        <time>2023-01-27T12:43:59Z</time>
      </trkpt>
      <trkpt lat="47.81297" lon="-3.66904">
        <ele>46.7</ele>
        <time>2023-01-27T12:44:01Z</time>
      </trkpt>
      <trkpt lat="47.81296" lon="-3.6691">
        <ele>46.8</ele>
        <time>2023-01-27T12:44:02Z</time>
      </trkpt>
      <trkpt lat="47.81295" lon="-3.66916">
        <ele>46.8</ele>
        <time>2023-01-27T12:44:04Z</time>
      </trkpt>
      <trkpt lat="47.81292" lon="-3.66927">
        <ele>46.9</ele>
        <time>2023-01-27T12:44:05Z</time>
      </trkpt>
      <trkpt lat="47.8129" lon="-3.66932">
        <ele>47</ele>
        <time>2023-01-27T12:44:06Z</time>
      </trkpt>
      <trkpt lat="47.81289" lon="-3.66938">
        <ele>47.1</ele>
        <time>2023-01-27T12:44:08Z</time>
      </trkpt>
      <trkpt lat="47.81288" lon="-3.66943">
        <ele>47.1</ele>
        <time>2023-01-27T12:44:09Z</time>
      </trkpt>
      <trkpt lat="47.81287" lon="-3.66949">
        <ele>47.2</ele>
        <time>2023-01-27T12:44:10Z</time>
      </trkpt>
      <trkpt lat="47.81286" lon="-3.66954">
        <ele>47.2</ele>
        <time>2023-01-27T12:44:11Z</time>
      </trkpt>
      <trkpt lat="47.81285" lon="-3.66959">
        <ele>47.3</ele>
        <time>2023-01-27T12:44:12Z</time>
      </trkpt>
      <trkpt lat="47.81284" lon="-3.66965">
        <ele>47.4</ele>
        <time>2023-01-27T12:44:13Z</time>
      </trkpt>
      <trkpt lat="47.81283" lon="-3.66971">
        <ele>47.5</ele>
        <time>2023-01-27T12:44:14Z</time>
      </trkpt>
      <trkpt lat="47.81282" lon="-3.66975">
        <ele>47.6</ele>
        <time>2023-01-27T12:44:15Z</time>
      </trkpt>
      <trkpt lat="47.81282" lon="-3.66981">
        <ele>47.6</ele>
        <time>2023-01-27T12:44:16Z</time>
      </trkpt>
      <trkpt lat="47.81281" lon="-3.66986">
        <ele>47.7</ele>
        <time>2023-01-27T12:44:17Z</time>
      </trkpt>
      <trkpt lat="47.8128" lon="-3.66992">
        <ele>47.8</ele>
        <time>2023-01-27T12:44:18Z</time>
      </trkpt>
      <trkpt lat="47.81279" lon="-3.66999">
        <ele>47.9</ele>
        <time>2023-01-27T12:44:19Z</time>
      </trkpt>
      <trkpt lat="47.81277" lon="-3.67006">
        <ele>48</ele>
        <time>2023-01-27T12:44:20Z</time>
      </trkpt>
      <trkpt lat="47.81276" lon="-3.67013">
        <ele>48.1</ele>
        <time>2023-01-27T12:44:22Z</time>
      </trkpt>
      <trkpt lat="47.81274" lon="-3.67023">
        <ele>48.2</ele>
        <time>2023-01-27T12:44:23Z</time>
      </trkpt>
      <trkpt lat="47.81273" lon="-3.67033">
        <ele>48.3</ele>
        <time>2023-01-27T12:44:25Z</time>
      </trkpt>
      <trkpt lat="47.81272" lon="-3.67038">
        <ele>48.3</ele>
        <time>2023-01-27T12:44:26Z</time>
      </trkpt>
      <trkpt lat="47.81272" lon="-3.67043">
        <ele>48.3</ele>
        <time>2023-01-27T12:44:28Z</time>
      </trkpt>
      <trkpt lat="47.81271" lon="-3.67049">
        <ele>48.4</ele>
        <time>2023-01-27T12:44:29Z</time>
      </trkpt>
      <trkpt lat="47.8127" lon="-3.67054">
        <ele>48.4</ele>
        <time>2023-01-27T12:44:30Z</time>
      </trkpt>
      <trkpt lat="47.8127" lon="-3.67059">
        <ele>48.4</ele>
        <time>2023-01-27T12:44:31Z</time>
      </trkpt>
      <trkpt lat="47.81269" lon="-3.67064">
        <ele>48.5</ele>
        <time>2023-01-27T12:44:32Z</time>
      </trkpt>
      <trkpt lat="47.81268" lon="-3.67069">
        <ele>48.5</ele>
        <time>2023-01-27T12:44:33Z</time>
      </trkpt>
      <trkpt lat="47.81267" lon="-3.67075">
        <ele>48.6</ele>
        <time>2023-01-27T12:44:34Z</time>
      </trkpt>
      <trkpt lat="47.81267" lon="-3.6708">
        <ele>48.6</ele>
        <time>2023-01-27T12:44:35Z</time>
      </trkpt>
      <trkpt lat="47.81266" lon="-3.67086">
        <ele>48.7</ele>
        <time>2023-01-27T12:44:36Z</time>
      </trkpt>
      <trkpt lat="47.81265" lon="-3.67091">
        <ele>48.7</ele>
        <time>2023-01-27T12:44:37Z</time>
      </trkpt>
      <trkpt lat="47.81264" lon="-3.67096">
        <ele>48.8</ele>
        <time>2023-01-27T12:44:38Z</time>
      </trkpt>
      <trkpt lat="47.81264" lon="-3.67101">
        <ele>48.8</ele>
        <time>2023-01-27T12:44:39Z</time>
      </trkpt>
      <trkpt lat="47.81263" lon="-3.67106">
        <ele>48.8</ele>
        <time>2023-01-27T12:44:40Z</time>
      </trkpt>
      <trkpt lat="47.81262" lon="-3.67111">
        <ele>48.9</ele>
        <time>2023-01-27T12:44:41Z</time>
      </trkpt>
      <trkpt lat="47.81261" lon="-3.67118">
        <ele>49</ele>
        <time>2023-01-27T12:44:42Z</time>
      </trkpt>
      <trkpt lat="47.81261" lon="-3.67123">
        <ele>48.9</ele>
        <time>2023-01-27T12:44:43Z</time>
      </trkpt>
      <trkpt lat="47.81264" lon="-3.67126">
        <ele>48.9</ele>
        <time>2023-01-27T12:44:44Z</time>
      </trkpt>
      <trkpt lat="47.81267" lon="-3.67128">
        <ele>48.8</ele>
        <time>2023-01-27T12:44:45Z</time>
      </trkpt>
      <trkpt lat="47.81271" lon="-3.67128">
        <ele>48.8</ele>
        <time>2023-01-27T12:44:46Z</time>
      </trkpt>
      <trkpt lat="47.81276" lon="-3.67129">
        <ele>48.7</ele>
        <time>2023-01-27T12:44:48Z</time>
      </trkpt>
      <trkpt lat="47.8128" lon="-3.67131">
        <ele>48.6</ele>
        <time>2023-01-27T12:44:49Z</time>
      </trkpt>
      <trkpt lat="47.81284" lon="-3.67132">
        <ele>48.6</ele>
        <time>2023-01-27T12:44:50Z</time>
      </trkpt>
      <trkpt lat="47.81288" lon="-3.67134">
        <ele>48.5</ele>
        <time>2023-01-27T12:44:51Z</time>
      </trkpt>
      <trkpt lat="47.81296" lon="-3.67137">
        <ele>48.4</ele>
        <time>2023-01-27T12:44:52Z</time>
      </trkpt>
      <trkpt lat="47.81302" lon="-3.67142">
        <ele>48.3</ele>
        <time>2023-01-27T12:44:54Z</time>
      </trkpt>
      <trkpt lat="47.81304" lon="-3.67148">
        <ele>48.1</ele>
        <time>2023-01-27T12:44:55Z</time>
      </trkpt>
      <trkpt lat="47.813" lon="-3.67158">
        <ele>47.9</ele>
        <time>2023-01-27T12:44:57Z</time>
      </trkpt>
      <trkpt lat="47.81297" lon="-3.67162">
        <ele>47.8</ele>
        <time>2023-01-27T12:44:58Z</time>
      </trkpt>
      <trkpt lat="47.81295" lon="-3.67168">
        <ele>47.7</ele>
        <time>2023-01-27T12:45:00Z</time>
      </trkpt>
      <trkpt lat="47.81293" lon="-3.67179">
        <ele>47.6</ele>
        <time>2023-01-27T12:45:01Z</time>
      </trkpt>
      <trkpt lat="47.81292" lon="-3.67185">
        <ele>47.5</ele>
        <time>2023-01-27T12:45:03Z</time>
      </trkpt>
      <trkpt lat="47.8129" lon="-3.67196">
        <ele>47.5</ele>
        <time>2023-01-27T12:45:04Z</time>
      </trkpt>
      <trkpt lat="47.81288" lon="-3.67201">
        <ele>47.5</ele>
        <time>2023-01-27T12:45:06Z</time>
      </trkpt>
      <trkpt lat="47.81285" lon="-3.67212">
        <ele>47.5</ele>
        <time>2023-01-27T12:45:07Z</time>
      </trkpt>
      <trkpt lat="47.81284" lon="-3.67217">
        <ele>47.5</ele>
        <time>2023-01-27T12:45:08Z</time>
      </trkpt>
      <trkpt lat="47.81283" lon="-3.67223">
        <ele>47.5</ele>
        <time>2023-01-27T12:45:10Z</time>
      </trkpt>
      <trkpt lat="47.8128" lon="-3.67234">
        <ele>47.5</ele>
        <time>2023-01-27T12:45:11Z</time>
      </trkpt>
      <trkpt lat="47.81279" lon="-3.6724">
        <ele>47.5</ele>
        <time>2023-01-27T12:45:13Z</time>
      </trkpt>
      <trkpt lat="47.81277" lon="-3.67245">
        <ele>47.5</ele>
        <time>2023-01-27T12:45:14Z</time>
      </trkpt>
      <trkpt lat="47.81276" lon="-3.6725">
        <ele>47.5</ele>
        <time>2023-01-27T12:45:15Z</time>
      </trkpt>
      <trkpt lat="47.81276" lon="-3.67255">
        <ele>47.6</ele>
        <time>2023-01-27T12:45:16Z</time>
      </trkpt>
      <trkpt lat="47.81274" lon="-3.67261">
        <ele>47.6</ele>
        <time>2023-01-27T12:45:17Z</time>
      </trkpt>
      <trkpt lat="47.81273" lon="-3.67266">
        <ele>47.6</ele>
        <time>2023-01-27T12:45:18Z</time>
      </trkpt>
      <trkpt lat="47.81271" lon="-3.67274">
        <ele>47.6</ele>
        <time>2023-01-27T12:45:19Z</time>
      </trkpt>
      <trkpt lat="47.81269" lon="-3.67285">
        <ele>47.6</ele>
        <time>2023-01-27T12:45:21Z</time>
      </trkpt>
      <trkpt lat="47.81266" lon="-3.67295">
        <ele>47.6</ele>
        <time>2023-01-27T12:45:23Z</time>
      </trkpt>
      <trkpt lat="47.81263" lon="-3.67306">
        <ele>47.5</ele>
        <time>2023-01-27T12:45:25Z</time>
      </trkpt>
      <trkpt lat="47.81262" lon="-3.67312">
        <ele>47.5</ele>
        <time>2023-01-27T12:45:27Z</time>
      </trkpt>
      <trkpt lat="47.81261" lon="-3.67318">
        <ele>47.5</ele>
        <time>2023-01-27T12:45:28Z</time>
      </trkpt>
      <trkpt lat="47.81258" lon="-3.67329">
        <ele>47.5</ele>
        <time>2023-01-27T12:45:29Z</time>
      </trkpt>
      <trkpt lat="47.81257" lon="-3.67334">
        <ele>47.4</ele>
        <time>2023-01-27T12:45:31Z</time>
      </trkpt>
      <trkpt lat="47.81255" lon="-3.67338">
        <ele>47.4</ele>
        <time>2023-01-27T12:45:32Z</time>
      </trkpt>
      <trkpt lat="47.81251" lon="-3.67348">
        <ele>47.4</ele>
        <time>2023-01-27T12:45:33Z</time>
      </trkpt>
      <trkpt lat="47.8125" lon="-3.67353">
        <ele>47.4</ele>
        <time>2023-01-27T12:45:34Z</time>
      </trkpt>
      <trkpt lat="47.81249" lon="-3.67358">
        <ele>47.3</ele>
        <time>2023-01-27T12:45:35Z</time>
      </trkpt>
      <trkpt lat="47.81247" lon="-3.67367">
        <ele>47.3</ele>
        <time>2023-01-27T12:45:37Z</time>
      </trkpt>
      <trkpt lat="47.81246" lon="-3.67373">
        <ele>47.3</ele>
        <time>2023-01-27T12:45:39Z</time>
      </trkpt>
      <trkpt lat="47.81246" lon="-3.67379">
        <ele>47.2</ele>
        <time>2023-01-27T12:45:40Z</time>
      </trkpt>
      <trkpt lat="47.81245" lon="-3.67385">
        <ele>47.2</ele>
        <time>2023-01-27T12:45:41Z</time>
      </trkpt>
      <trkpt lat="47.81245" lon="-3.6739">
        <ele>47.1</ele>
        <time>2023-01-27T12:45:42Z</time>
      </trkpt>
      <trkpt lat="47.81244" lon="-3.67395">
        <ele>47.1</ele>
        <time>2023-01-27T12:45:43Z</time>
      </trkpt>
      <trkpt lat="47.81242" lon="-3.67401">
        <ele>47</ele>
        <time>2023-01-27T12:45:44Z</time>
      </trkpt>
      <trkpt lat="47.81242" lon="-3.67405">
        <ele>47</ele>
        <time>2023-01-27T12:45:45Z</time>
      </trkpt>
      <trkpt lat="47.81244" lon="-3.67412">
        <ele>46.9</ele>
        <time>2023-01-27T12:45:46Z</time>
      </trkpt>
      <trkpt lat="47.81247" lon="-3.67419">
        <ele>46.6</ele>
        <time>2023-01-27T12:45:47Z</time>
      </trkpt>
      <trkpt lat="47.81252" lon="-3.67424">
        <ele>46.4</ele>
        <time>2023-01-27T12:45:48Z</time>
      </trkpt>
      <trkpt lat="47.81257" lon="-3.67429">
        <ele>46.1</ele>
        <time>2023-01-27T12:45:49Z</time>
      </trkpt>
      <trkpt lat="47.81262" lon="-3.67435">
        <ele>45.9</ele>
        <time>2023-01-27T12:45:50Z</time>
      </trkpt>
      <trkpt lat="47.81266" lon="-3.6744">
        <ele>45.7</ele>
        <time>2023-01-27T12:45:51Z</time>
      </trkpt>
      <trkpt lat="47.81272" lon="-3.67447">
        <ele>45.4</ele>
        <time>2023-01-27T12:45:52Z</time>
      </trkpt>
      <trkpt lat="47.81278" lon="-3.67454">
        <ele>45.1</ele>
        <time>2023-01-27T12:45:53Z</time>
      </trkpt>
      <trkpt lat="47.81283" lon="-3.6746">
        <ele>44.8</ele>
        <time>2023-01-27T12:45:54Z</time>
      </trkpt>
      <trkpt lat="47.81289" lon="-3.67467">
        <ele>44.4</ele>
        <time>2023-01-27T12:45:55Z</time>
      </trkpt>
      <trkpt lat="47.81295" lon="-3.67474">
        <ele>44</ele>
        <time>2023-01-27T12:45:56Z</time>
      </trkpt>
      <trkpt lat="47.81301" lon="-3.67481">
        <ele>43.6</ele>
        <time>2023-01-27T12:45:57Z</time>
      </trkpt>
      <trkpt lat="47.81307" lon="-3.67488">
        <ele>43.3</ele>
        <time>2023-01-27T12:45:58Z</time>
      </trkpt>
      <trkpt lat="47.81312" lon="-3.67493">
        <ele>43</ele>
        <time>2023-01-27T12:45:59Z</time>
      </trkpt>
      <trkpt lat="47.81317" lon="-3.67496">
        <ele>42.8</ele>
        <time>2023-01-27T12:46:00Z</time>
      </trkpt>
      <trkpt lat="47.81325" lon="-3.67496">
        <ele>42.5</ele>
        <time>2023-01-27T12:46:01Z</time>
      </trkpt>
      <trkpt lat="47.81331" lon="-3.67495">
        <ele>42.3</ele>
        <time>2023-01-27T12:46:02Z</time>
      </trkpt>
      <trkpt lat="47.81338" lon="-3.67494">
        <ele>42</ele>
        <time>2023-01-27T12:46:03Z</time>
      </trkpt>
      <trkpt lat="47.81345" lon="-3.67491">
        <ele>41.8</ele>
        <time>2023-01-27T12:46:04Z</time>
      </trkpt>
      <trkpt lat="47.81351" lon="-3.67488">
        <ele>41.7</ele>
        <time>2023-01-27T12:46:05Z</time>
      </trkpt>
      <trkpt lat="47.81357" lon="-3.67486">
        <ele>41.6</ele>
        <time>2023-01-27T12:46:06Z</time>
      </trkpt>
      <trkpt lat="47.81364" lon="-3.67483">
        <ele>41.5</ele>
        <time>2023-01-27T12:46:07Z</time>
      </trkpt>
      <trkpt lat="47.81368" lon="-3.67482">
        <ele>41.5</ele>
        <time>2023-01-27T12:46:08Z</time>
      </trkpt>
      <trkpt lat="47.81372" lon="-3.67481">
        <ele>41.4</ele>
        <time>2023-01-27T12:46:09Z</time>
      </trkpt>
      <trkpt lat="47.81377" lon="-3.67479">
        <ele>41.4</ele>
        <time>2023-01-27T12:46:10Z</time>
      </trkpt>
      <trkpt lat="47.8138" lon="-3.67478">
        <ele>41.4</ele>
        <time>2023-01-27T12:46:11Z</time>
      </trkpt>
      <trkpt lat="47.81383" lon="-3.67479">
        <ele>41.4</ele>
        <time>2023-01-27T12:46:12Z</time>
      </trkpt>
      <trkpt lat="47.81387" lon="-3.67479">
        <ele>41.4</ele>
        <time>2023-01-27T12:46:13Z</time>
      </trkpt>
      <trkpt lat="47.81391" lon="-3.6748">
        <ele>41.4</ele>
        <time>2023-01-27T12:46:14Z</time>
      </trkpt>
      <trkpt lat="47.81394" lon="-3.6748">
        <ele>41.4</ele>
        <time>2023-01-27T12:46:15Z</time>
      </trkpt>
      <trkpt lat="47.81397" lon="-3.67479">
        <ele>41.4</ele>
        <time>2023-01-27T12:46:16Z</time>
      </trkpt>
      <trkpt lat="47.81401" lon="-3.67478">
        <ele>41.4</ele>
        <time>2023-01-27T12:46:17Z</time>
      </trkpt>
      <trkpt lat="47.81403" lon="-3.67477">
        <ele>41.4</ele>
        <time>2023-01-27T12:46:18Z</time>
      </trkpt>
      <trkpt lat="47.81409" lon="-3.67472">
        <ele>41.4</ele>
        <time>2023-01-27T12:46:19Z</time>
      </trkpt>
      <trkpt lat="47.81413" lon="-3.67464">
        <ele>41.4</ele>
        <time>2023-01-27T12:46:21Z</time>
      </trkpt>
      <trkpt lat="47.81414" lon="-3.6746">
        <ele>41.4</ele>
        <time>2023-01-27T12:46:22Z</time>
      </trkpt>
      <trkpt lat="47.81415" lon="-3.67451">
        <ele>41.4</ele>
        <time>2023-01-27T12:46:24Z</time>
      </trkpt>
      <trkpt lat="47.81415" lon="-3.67447">
        <ele>41.4</ele>
        <time>2023-01-27T12:46:25Z</time>
      </trkpt>
      <trkpt lat="47.81416" lon="-3.67441">
        <ele>41.5</ele>
        <time>2023-01-27T12:46:26Z</time>
      </trkpt>
      <trkpt lat="47.81417" lon="-3.67437">
        <ele>41.5</ele>
        <time>2023-01-27T12:46:27Z</time>
      </trkpt>
      <trkpt lat="47.81418" lon="-3.6743">
        <ele>41.5</ele>
        <time>2023-01-27T12:46:28Z</time>
      </trkpt>
      <trkpt lat="47.81419" lon="-3.67426">
        <ele>41.6</ele>
        <time>2023-01-27T12:46:30Z</time>
      </trkpt>
      <trkpt lat="47.8142" lon="-3.67421">
        <ele>41.6</ele>
        <time>2023-01-27T12:46:31Z</time>
      </trkpt>
      <trkpt lat="47.81421" lon="-3.67417">
        <ele>41.6</ele>
        <time>2023-01-27T12:46:32Z</time>
      </trkpt>
      <trkpt lat="47.81423" lon="-3.67412">
        <ele>41.7</ele>
        <time>2023-01-27T12:46:33Z</time>
      </trkpt>
      <trkpt lat="47.81424" lon="-3.67408">
        <ele>41.7</ele>
        <time>2023-01-27T12:46:34Z</time>
      </trkpt>
      <trkpt lat="47.81426" lon="-3.67403">
        <ele>41.8</ele>
        <time>2023-01-27T12:46:35Z</time>
      </trkpt>
      <trkpt lat="47.81427" lon="-3.67401">
        <ele>41.8</ele>
        <time>2023-01-27T12:46:36Z</time>
      </trkpt>
      <trkpt lat="47.81429" lon="-3.67397">
        <ele>41.9</ele>
        <time>2023-01-27T12:46:37Z</time>
      </trkpt>
      <trkpt lat="47.8143" lon="-3.67395">
        <ele>41.9</ele>
        <time>2023-01-27T12:46:38Z</time>
      </trkpt>
      <trkpt lat="47.81434" lon="-3.67392">
        <ele>42</ele>
        <time>2023-01-27T12:46:39Z</time>
      </trkpt>
      <trkpt lat="47.81437" lon="-3.67389">
        <ele>42</ele>
        <time>2023-01-27T12:46:40Z</time>
      </trkpt>
      <trkpt lat="47.81438" lon="-3.67385">
        <ele>42.1</ele>
        <time>2023-01-27T12:46:41Z</time>
      </trkpt>
      <trkpt lat="47.8144" lon="-3.67381">
        <ele>42.2</ele>
        <time>2023-01-27T12:46:42Z</time>
      </trkpt>
      <trkpt lat="47.81443" lon="-3.67377">
        <ele>42.2</ele>
        <time>2023-01-27T12:46:43Z</time>
      </trkpt>
      <trkpt lat="47.81444" lon="-3.67376">
        <ele>42.2</ele>
        <time>2023-01-27T12:46:44Z</time>
      </trkpt>
      <trkpt lat="47.81445" lon="-3.67373">
        <ele>42.3</ele>
        <time>2023-01-27T12:46:45Z</time>
      </trkpt>
      <trkpt lat="47.81448" lon="-3.6737">
        <ele>42.4</ele>
        <time>2023-01-27T12:46:46Z</time>
      </trkpt>
      <trkpt lat="47.81449" lon="-3.67369">
        <ele>42.4</ele>
        <time>2023-01-27T12:46:47Z</time>
      </trkpt>
      <trkpt lat="47.81452" lon="-3.67366">
        <ele>42.5</ele>
        <time>2023-01-27T12:46:49Z</time>
      </trkpt>
      <trkpt lat="47.81454" lon="-3.67363">
        <ele>42.6</ele>
        <time>2023-01-27T12:46:50Z</time>
      </trkpt>
      <trkpt lat="47.81458" lon="-3.67361">
        <ele>42.7</ele>
        <time>2023-01-27T12:46:52Z</time>
      </trkpt>
      <trkpt lat="47.81459" lon="-3.6736">
        <ele>42.8</ele>
        <time>2023-01-27T12:46:53Z</time>
      </trkpt>
      <trkpt lat="47.81462" lon="-3.67358">
        <ele>42.9</ele>
        <time>2023-01-27T12:46:54Z</time>
      </trkpt>
      <trkpt lat="47.81465" lon="-3.67356">
        <ele>43</ele>
        <time>2023-01-27T12:46:55Z</time>
      </trkpt>
      <trkpt lat="47.81469" lon="-3.67353">
        <ele>43.2</ele>
        <time>2023-01-27T12:46:56Z</time>
      </trkpt>
      <trkpt lat="47.81472" lon="-3.67352">
        <ele>43.3</ele>
        <time>2023-01-27T12:46:57Z</time>
      </trkpt>
      <trkpt lat="47.81475" lon="-3.67351">
        <ele>43.5</ele>
        <time>2023-01-27T12:46:58Z</time>
      </trkpt>
      <trkpt lat="47.81478" lon="-3.67349">
        <ele>43.6</ele>
        <time>2023-01-27T12:46:59Z</time>
      </trkpt>
      <trkpt lat="47.81481" lon="-3.6735">
        <ele>43.7</ele>
        <time>2023-01-27T12:47:00Z</time>
      </trkpt>
      <trkpt lat="47.81483" lon="-3.67356">
        <ele>43.9</ele>
        <time>2023-01-27T12:47:01Z</time>
      </trkpt>
      <trkpt lat="47.81484" lon="-3.67361">
        <ele>43.9</ele>
        <time>2023-01-27T12:47:02Z</time>
      </trkpt>
      <trkpt lat="47.81486" lon="-3.67366">
        <ele>43.8</ele>
        <time>2023-01-27T12:47:03Z</time>
      </trkpt>
      <trkpt lat="47.81488" lon="-3.67372">
        <ele>43.7</ele>
        <time>2023-01-27T12:47:04Z</time>
      </trkpt>
      <trkpt lat="47.81493" lon="-3.67384">
        <ele>43.6</ele>
        <time>2023-01-27T12:47:06Z</time>
      </trkpt>
      <trkpt lat="47.81494" lon="-3.67392">
        <ele>43.5</ele>
        <time>2023-01-27T12:47:07Z</time>
      </trkpt>
      <trkpt lat="47.81496" lon="-3.67399">
        <ele>43.4</ele>
        <time>2023-01-27T12:47:08Z</time>
      </trkpt>
      <trkpt lat="47.81498" lon="-3.67407">
        <ele>43.4</ele>
        <time>2023-01-27T12:47:09Z</time>
      </trkpt>
      <trkpt lat="47.815" lon="-3.67415">
        <ele>43.3</ele>
        <time>2023-01-27T12:47:10Z</time>
      </trkpt>
      <trkpt lat="47.81502" lon="-3.67424">
        <ele>43.2</ele>
        <time>2023-01-27T12:47:11Z</time>
      </trkpt>
      <trkpt lat="47.81504" lon="-3.67432">
        <ele>43.1</ele>
        <time>2023-01-27T12:47:12Z</time>
      </trkpt>
      <trkpt lat="47.81506" lon="-3.6744">
        <ele>43</ele>
        <time>2023-01-27T12:47:13Z</time>
      </trkpt>
      <trkpt lat="47.81508" lon="-3.67448">
        <ele>43</ele>
        <time>2023-01-27T12:47:14Z</time>
      </trkpt>
      <trkpt lat="47.8151" lon="-3.67456">
        <ele>42.9</ele>
        <time>2023-01-27T12:47:15Z</time>
      </trkpt>
      <trkpt lat="47.81512" lon="-3.67465">
        <ele>42.9</ele>
        <time>2023-01-27T12:47:16Z</time>
      </trkpt>
      <trkpt lat="47.81514" lon="-3.67474">
        <ele>42.8</ele>
        <time>2023-01-27T12:47:17Z</time>
      </trkpt>
      <trkpt lat="47.81516" lon="-3.67482">
        <ele>42.8</ele>
        <time>2023-01-27T12:47:18Z</time>
      </trkpt>
      <trkpt lat="47.81518" lon="-3.6749">
        <ele>42.7</ele>
        <time>2023-01-27T12:47:19Z</time>
      </trkpt>
      <trkpt lat="47.8152" lon="-3.67498">
        <ele>42.7</ele>
        <time>2023-01-27T12:47:20Z</time>
      </trkpt>
      <trkpt lat="47.81522" lon="-3.67506">
        <ele>42.7</ele>
        <time>2023-01-27T12:47:21Z</time>
      </trkpt>
      <trkpt lat="47.81524" lon="-3.67514">
        <ele>42.6</ele>
        <time>2023-01-27T12:47:22Z</time>
      </trkpt>
      <trkpt lat="47.81526" lon="-3.67522">
        <ele>42.6</ele>
        <time>2023-01-27T12:47:23Z</time>
      </trkpt>
      <trkpt lat="47.81528" lon="-3.67531">
        <ele>42.5</ele>
        <time>2023-01-27T12:47:24Z</time>
      </trkpt>
      <trkpt lat="47.8153" lon="-3.67539">
        <ele>42.5</ele>
        <time>2023-01-27T12:47:25Z</time>
      </trkpt>
      <trkpt lat="47.81532" lon="-3.67548">
        <ele>42.5</ele>
        <time>2023-01-27T12:47:26Z</time>
      </trkpt>
      <trkpt lat="47.81533" lon="-3.67557">
        <ele>42.6</ele>
        <time>2023-01-27T12:47:27Z</time>
      </trkpt>
      <trkpt lat="47.81535" lon="-3.67567">
        <ele>42.6</ele>
        <time>2023-01-27T12:47:28Z</time>
      </trkpt>
      <trkpt lat="47.81537" lon="-3.67575">
        <ele>42.8</ele>
        <time>2023-01-27T12:47:29Z</time>
      </trkpt>
      <trkpt lat="47.81539" lon="-3.67584">
        <ele>42.9</ele>
        <time>2023-01-27T12:47:30Z</time>
      </trkpt>
      <trkpt lat="47.81541" lon="-3.67592">
        <ele>43</ele>
        <time>2023-01-27T12:47:31Z</time>
      </trkpt>
      <trkpt lat="47.81543" lon="-3.676">
        <ele>43.1</ele>
        <time>2023-01-27T12:47:32Z</time>
      </trkpt>
      <trkpt lat="47.81545" lon="-3.67608">
        <ele>43.3</ele>
        <time>2023-01-27T12:47:33Z</time>
      </trkpt>
      <trkpt lat="47.81547" lon="-3.67615">
        <ele>43.4</ele>
        <time>2023-01-27T12:47:34Z</time>
      </trkpt>
      <trkpt lat="47.81549" lon="-3.67623">
        <ele>43.6</ele>
        <time>2023-01-27T12:47:35Z</time>
      </trkpt>
      <trkpt lat="47.8155" lon="-3.6763">
        <ele>43.7</ele>
        <time>2023-01-27T12:47:36Z</time>
      </trkpt>
      <trkpt lat="47.81552" lon="-3.67638">
        <ele>43.9</ele>
        <time>2023-01-27T12:47:37Z</time>
      </trkpt>
      <trkpt lat="47.81554" lon="-3.67645">
        <ele>44.1</ele>
        <time>2023-01-27T12:47:38Z</time>
      </trkpt>
      <trkpt lat="47.81555" lon="-3.67652">
        <ele>44.3</ele>
        <time>2023-01-27T12:47:39Z</time>
      </trkpt>
      <trkpt lat="47.81557" lon="-3.67659">
        <ele>44.4</ele>
        <time>2023-01-27T12:47:40Z</time>
      </trkpt>
      <trkpt lat="47.81558" lon="-3.67666">
        <ele>44.6</ele>
        <time>2023-01-27T12:47:41Z</time>
      </trkpt>
      <trkpt lat="47.81559" lon="-3.67673">
        <ele>44.8</ele>
        <time>2023-01-27T12:47:42Z</time>
      </trkpt>
      <trkpt lat="47.81561" lon="-3.67679">
        <ele>45</ele>
        <time>2023-01-27T12:47:43Z</time>
      </trkpt>
      <trkpt lat="47.81563" lon="-3.67686">
        <ele>45.1</ele>
        <time>2023-01-27T12:47:44Z</time>
      </trkpt>
      <trkpt lat="47.81564" lon="-3.67692">
        <ele>45.3</ele>
        <time>2023-01-27T12:47:45Z</time>
      </trkpt>
      <trkpt lat="47.81565" lon="-3.677">
        <ele>45.5</ele>
        <time>2023-01-27T12:47:46Z</time>
      </trkpt>
      <trkpt lat="47.81566" lon="-3.67707">
        <ele>45.6</ele>
        <time>2023-01-27T12:47:47Z</time>
      </trkpt>
      <trkpt lat="47.81568" lon="-3.67714">
        <ele>45.8</ele>
        <time>2023-01-27T12:47:48Z</time>
      </trkpt>
      <trkpt lat="47.81569" lon="-3.6772">
        <ele>45.9</ele>
        <time>2023-01-27T12:47:49Z</time>
      </trkpt>
      <trkpt lat="47.81569" lon="-3.67724">
        <ele>46</ele>
        <time>2023-01-27T12:47:50Z</time>
      </trkpt>
      <trkpt lat="47.81572" lon="-3.67731">
        <ele>46.1</ele>
        <time>2023-01-27T12:47:51Z</time>
      </trkpt>
      <trkpt lat="47.81573" lon="-3.67738">
        <ele>46.2</ele>
        <time>2023-01-27T12:47:52Z</time>
      </trkpt>
      <trkpt lat="47.81575" lon="-3.67744">
        <ele>46.3</ele>
        <time>2023-01-27T12:47:53Z</time>
      </trkpt>
      <trkpt lat="47.81576" lon="-3.67751">
        <ele>46.4</ele>
        <time>2023-01-27T12:47:54Z</time>
      </trkpt>
      <trkpt lat="47.81578" lon="-3.67757">
        <ele>46.5</ele>
        <time>2023-01-27T12:47:55Z</time>
      </trkpt>
      <trkpt lat="47.81579" lon="-3.67764">
        <ele>46.6</ele>
        <time>2023-01-27T12:47:56Z</time>
      </trkpt>
      <trkpt lat="47.81581" lon="-3.6777">
        <ele>46.7</ele>
        <time>2023-01-27T12:47:57Z</time>
      </trkpt>
      <trkpt lat="47.81583" lon="-3.67777">
        <ele>46.8</ele>
        <time>2023-01-27T12:47:58Z</time>
      </trkpt>
      <trkpt lat="47.81584" lon="-3.67783">
        <ele>46.9</ele>
        <time>2023-01-27T12:47:59Z</time>
      </trkpt>
      <trkpt lat="47.81586" lon="-3.67789">
        <ele>47</ele>
        <time>2023-01-27T12:48:00Z</time>
      </trkpt>
      <trkpt lat="47.81587" lon="-3.67796">
        <ele>47</ele>
        <time>2023-01-27T12:48:01Z</time>
      </trkpt>
      <trkpt lat="47.81588" lon="-3.67802">
        <ele>47.1</ele>
        <time>2023-01-27T12:48:02Z</time>
      </trkpt>
      <trkpt lat="47.8159" lon="-3.67809">
        <ele>47.2</ele>
        <time>2023-01-27T12:48:03Z</time>
      </trkpt>
      <trkpt lat="47.81591" lon="-3.67816">
        <ele>47.3</ele>
        <time>2023-01-27T12:48:04Z</time>
      </trkpt>
      <trkpt lat="47.81592" lon="-3.67822">
        <ele>47.4</ele>
        <time>2023-01-27T12:48:05Z</time>
      </trkpt>
      <trkpt lat="47.81594" lon="-3.67829">
        <ele>47.4</ele>
        <time>2023-01-27T12:48:06Z</time>
      </trkpt>
      <trkpt lat="47.81595" lon="-3.67836">
        <ele>47.5</ele>
        <time>2023-01-27T12:48:07Z</time>
      </trkpt>
      <trkpt lat="47.81597" lon="-3.67843">
        <ele>47.6</ele>
        <time>2023-01-27T12:48:08Z</time>
      </trkpt>
      <trkpt lat="47.81598" lon="-3.6785">
        <ele>47.6</ele>
        <time>2023-01-27T12:48:09Z</time>
      </trkpt>
      <trkpt lat="47.81599" lon="-3.67857">
        <ele>47.6</ele>
        <time>2023-01-27T12:48:10Z</time>
      </trkpt>
      <trkpt lat="47.81601" lon="-3.67864">
        <ele>47.7</ele>
        <time>2023-01-27T12:48:11Z</time>
      </trkpt>
      <trkpt lat="47.81603" lon="-3.67871">
        <ele>47.7</ele>
        <time>2023-01-27T12:48:12Z</time>
      </trkpt>
      <trkpt lat="47.81605" lon="-3.67878">
        <ele>47.7</ele>
        <time>2023-01-27T12:48:13Z</time>
      </trkpt>
      <trkpt lat="47.81606" lon="-3.67885">
        <ele>47.6</ele>
        <time>2023-01-27T12:48:14Z</time>
      </trkpt>
      <trkpt lat="47.81607" lon="-3.67893">
        <ele>47.5</ele>
        <time>2023-01-27T12:48:15Z</time>
      </trkpt>
      <trkpt lat="47.81608" lon="-3.67901">
        <ele>47.5</ele>
        <time>2023-01-27T12:48:16Z</time>
      </trkpt>
      <trkpt lat="47.81609" lon="-3.67909">
        <ele>47.4</ele>
        <time>2023-01-27T12:48:17Z</time>
      </trkpt>
      <trkpt lat="47.8161" lon="-3.67916">
        <ele>47.3</ele>
        <time>2023-01-27T12:48:18Z</time>
      </trkpt>
      <trkpt lat="47.8161" lon="-3.67923">
        <ele>47.2</ele>
        <time>2023-01-27T12:48:19Z</time>
      </trkpt>
      <trkpt lat="47.81611" lon="-3.67929">
        <ele>47.1</ele>
        <time>2023-01-27T12:48:20Z</time>
      </trkpt>
      <trkpt lat="47.81613" lon="-3.67933">
        <ele>47</ele>
        <time>2023-01-27T12:48:21Z</time>
      </trkpt>
      <trkpt lat="47.81616" lon="-3.67939">
        <ele>46.9</ele>
        <time>2023-01-27T12:48:22Z</time>
      </trkpt>
      <trkpt lat="47.8162" lon="-3.67944">
        <ele>46.8</ele>
        <time>2023-01-27T12:48:23Z</time>
      </trkpt>
      <trkpt lat="47.81624" lon="-3.67949">
        <ele>46.7</ele>
        <time>2023-01-27T12:48:24Z</time>
      </trkpt>
      <trkpt lat="47.81629" lon="-3.67955">
        <ele>46.6</ele>
        <time>2023-01-27T12:48:25Z</time>
      </trkpt>
      <trkpt lat="47.81633" lon="-3.6796">
        <ele>46.6</ele>
        <time>2023-01-27T12:48:26Z</time>
      </trkpt>
      <trkpt lat="47.81636" lon="-3.67965">
        <ele>46.5</ele>
        <time>2023-01-27T12:48:27Z</time>
      </trkpt>
      <trkpt lat="47.8164" lon="-3.67971">
        <ele>46.5</ele>
        <time>2023-01-27T12:48:28Z</time>
      </trkpt>
      <trkpt lat="47.81644" lon="-3.67977">
        <ele>46.5</ele>
        <time>2023-01-27T12:48:29Z</time>
      </trkpt>
      <trkpt lat="47.81648" lon="-3.67983">
        <ele>46.4</ele>
        <time>2023-01-27T12:48:30Z</time>
      </trkpt>
      <trkpt lat="47.81651" lon="-3.67988">
        <ele>46.4</ele>
        <time>2023-01-27T12:48:31Z</time>
      </trkpt>
      <trkpt lat="47.81654" lon="-3.67994">
        <ele>46.3</ele>
        <time>2023-01-27T12:48:32Z</time>
      </trkpt>
      <trkpt lat="47.81658" lon="-3.68">
        <ele>46.1</ele>
        <time>2023-01-27T12:48:33Z</time>
      </trkpt>
      <trkpt lat="47.81661" lon="-3.68006">
        <ele>45.9</ele>
        <time>2023-01-27T12:48:34Z</time>
      </trkpt>
      <trkpt lat="47.81663" lon="-3.68013">
        <ele>45.7</ele>
        <time>2023-01-27T12:48:35Z</time>
      </trkpt>
      <trkpt lat="47.81665" lon="-3.6802">
        <ele>45.4</ele>
        <time>2023-01-27T12:48:36Z</time>
      </trkpt>
      <trkpt lat="47.81667" lon="-3.68029">
        <ele>45</ele>
        <time>2023-01-27T12:48:37Z</time>
      </trkpt>
      <trkpt lat="47.81669" lon="-3.68038">
        <ele>44.5</ele>
        <time>2023-01-27T12:48:38Z</time>
      </trkpt>
      <trkpt lat="47.81671" lon="-3.68048">
        <ele>44</ele>
        <time>2023-01-27T12:48:39Z</time>
      </trkpt>
      <trkpt lat="47.81672" lon="-3.68059">
        <ele>43.4</ele>
        <time>2023-01-27T12:48:40Z</time>
      </trkpt>
      <trkpt lat="47.81674" lon="-3.68069">
        <ele>42.8</ele>
        <time>2023-01-27T12:48:41Z</time>
      </trkpt>
      <trkpt lat="47.81677" lon="-3.68078">
        <ele>42.1</ele>
        <time>2023-01-27T12:48:42Z</time>
      </trkpt>
      <trkpt lat="47.81681" lon="-3.68089">
        <ele>41.2</ele>
        <time>2023-01-27T12:48:43Z</time>
      </trkpt>
      <trkpt lat="47.81684" lon="-3.68101">
        <ele>40.2</ele>
        <time>2023-01-27T12:48:44Z</time>
      </trkpt>
      <trkpt lat="47.81687" lon="-3.68114">
        <ele>39.2</ele>
        <time>2023-01-27T12:48:45Z</time>
      </trkpt>
      <trkpt lat="47.81691" lon="-3.68126">
        <ele>38.5</ele>
        <time>2023-01-27T12:48:46Z</time>
      </trkpt>
      <trkpt lat="47.81695" lon="-3.68139">
        <ele>37.8</ele>
        <time>2023-01-27T12:48:47Z</time>
      </trkpt>
      <trkpt lat="47.817" lon="-3.68151">
        <ele>37.2</ele>
        <time>2023-01-27T12:48:48Z</time>
      </trkpt>
      <trkpt lat="47.81706" lon="-3.68161">
        <ele>36.6</ele>
        <time>2023-01-27T12:48:49Z</time>
      </trkpt>
      <trkpt lat="47.81712" lon="-3.68172">
        <ele>36</ele>
        <time>2023-01-27T12:48:50Z</time>
      </trkpt>
      <trkpt lat="47.81719" lon="-3.68183">
        <ele>35.2</ele>
        <time>2023-01-27T12:48:51Z</time>
      </trkpt>
      <trkpt lat="47.81725" lon="-3.68194">
        <ele>34.5</ele>
        <time>2023-01-27T12:48:52Z</time>
      </trkpt>
      <trkpt lat="47.81732" lon="-3.68205">
        <ele>33.7</ele>
        <time>2023-01-27T12:48:53Z</time>
      </trkpt>
      <trkpt lat="47.81738" lon="-3.68217">
        <ele>33.2</ele>
        <time>2023-01-27T12:48:54Z</time>
      </trkpt>
      <trkpt lat="47.81744" lon="-3.68229">
        <ele>32.7</ele>
        <time>2023-01-27T12:48:55Z</time>
      </trkpt>
      <trkpt lat="47.81748" lon="-3.68238">
        <ele>32.3</ele>
        <time>2023-01-27T12:48:56Z</time>
      </trkpt>
      <trkpt lat="47.81753" lon="-3.68246">
        <ele>31.9</ele>
        <time>2023-01-27T12:48:57Z</time>
      </trkpt>
      <trkpt lat="47.81759" lon="-3.68254">
        <ele>31.5</ele>
        <time>2023-01-27T12:48:58Z</time>
      </trkpt>
      <trkpt lat="47.81766" lon="-3.6826">
        <ele>31.1</ele>
        <time>2023-01-27T12:48:59Z</time>
      </trkpt>
      <trkpt lat="47.81774" lon="-3.68265">
        <ele>30.7</ele>
        <time>2023-01-27T12:49:00Z</time>
      </trkpt>
      <trkpt lat="47.81782" lon="-3.68268">
        <ele>30.1</ele>
        <time>2023-01-27T12:49:01Z</time>
      </trkpt>
      <trkpt lat="47.81791" lon="-3.68269">
        <ele>29.5</ele>
        <time>2023-01-27T12:49:02Z</time>
      </trkpt>
      <trkpt lat="47.81799" lon="-3.6827">
        <ele>29</ele>
        <time>2023-01-27T12:49:03Z</time>
      </trkpt>
      <trkpt lat="47.81807" lon="-3.6827">
        <ele>28.5</ele>
        <time>2023-01-27T12:49:04Z</time>
      </trkpt>
      <trkpt lat="47.81814" lon="-3.68268">
        <ele>28</ele>
        <time>2023-01-27T12:49:05Z</time>
      </trkpt>
      <trkpt lat="47.81821" lon="-3.68263">
        <ele>27.5</ele>
        <time>2023-01-27T12:49:06Z</time>
      </trkpt>
      <trkpt lat="47.81828" lon="-3.68256">
        <ele>26.9</ele>
        <time>2023-01-27T12:49:07Z</time>
      </trkpt>
      <trkpt lat="47.81835" lon="-3.6825">
        <ele>26.4</ele>
        <time>2023-01-27T12:49:08Z</time>
      </trkpt>
      <trkpt lat="47.81837" lon="-3.68245">
        <ele>26.2</ele>
        <time>2023-01-27T12:49:09Z</time>
      </trkpt>
      <trkpt lat="47.8184" lon="-3.68241">
        <ele>25.9</ele>
        <time>2023-01-27T12:49:10Z</time>
      </trkpt>
      <trkpt lat="47.81841" lon="-3.68241">
        <ele>25.9</ele>
        <time>2023-01-27T12:49:11Z</time>
      </trkpt>
      <trkpt lat="47.81843" lon="-3.68241">
        <ele>25.7</ele>
        <time>2023-01-27T12:49:12Z</time>
      </trkpt>
      <trkpt lat="47.81844" lon="-3.68242">
        <ele>25.7</ele>
        <time>2023-01-27T12:49:13Z</time>
      </trkpt>
      <trkpt lat="47.81844" lon="-3.68242">
        <ele>24.7</ele>
        <time>2023-01-27T12:49:14Z</time>
      </trkpt>
      <trkpt lat="47.81845" lon="-3.68243">
        <ele>24.7</ele>
        <time>2023-01-27T12:49:15Z</time>
      </trkpt>
      <trkpt lat="47.81845" lon="-3.68244">
        <ele>24.7</ele>
        <time>2023-01-27T12:49:16Z</time>
      </trkpt>
      <trkpt lat="47.81845" lon="-3.68246">
        <ele>24.7</ele>
        <time>2023-01-27T12:49:17Z</time>
      </trkpt>
      <trkpt lat="47.81845" lon="-3.68247">
        <ele>24.6</ele>
        <time>2023-01-27T12:49:18Z</time>
      </trkpt>
      <trkpt lat="47.81846" lon="-3.68249">
        <ele>24.6</ele>
        <time>2023-01-27T12:49:19Z</time>
      </trkpt>
      <trkpt lat="47.81846" lon="-3.68252">
        <ele>24.6</ele>
        <time>2023-01-27T12:49:20Z</time>
      </trkpt>
      <trkpt lat="47.81846" lon="-3.6826">
        <ele>24.6</ele>
        <time>2023-01-27T12:49:21Z</time>
      </trkpt>
      <trkpt lat="47.81845" lon="-3.68266">
        <ele>24.6</ele>
        <time>2023-01-27T12:49:22Z</time>
      </trkpt>
      <trkpt lat="47.81846" lon="-3.68273">
        <ele>24.8</ele>
        <time>2023-01-27T12:49:23Z</time>
      </trkpt>
      <trkpt lat="47.81847" lon="-3.68278">
        <ele>24.9</ele>
        <time>2023-01-27T12:49:24Z</time>
      </trkpt>
      <trkpt lat="47.81847" lon="-3.68284">
        <ele>25</ele>
        <time>2023-01-27T12:49:25Z</time>
      </trkpt>
      <trkpt lat="47.81849" lon="-3.6829">
        <ele>25.2</ele>
        <time>2023-01-27T12:49:26Z</time>
      </trkpt>
      <trkpt lat="47.8185" lon="-3.68292">
        <ele>25.3</ele>
        <time>2023-01-27T12:49:27Z</time>
      </trkpt>
      <trkpt lat="47.81851" lon="-3.68292">
        <ele>25.3</ele>
        <time>2023-01-27T12:49:28Z</time>
      </trkpt>
      <trkpt lat="47.81851" lon="-3.68294">
        <ele>25.3</ele>
        <time>2023-01-27T12:49:29Z</time>
      </trkpt>
      <trkpt lat="47.81853" lon="-3.68297">
        <ele>25.3</ele>
        <time>2023-01-27T12:49:31Z</time>
      </trkpt>
      <trkpt lat="47.81856" lon="-3.683">
        <ele>25.3</ele>
        <time>2023-01-27T12:49:32Z</time>
      </trkpt>
      <trkpt lat="47.8186" lon="-3.68304">
        <ele>25.3</ele>
        <time>2023-01-27T12:49:33Z</time>
      </trkpt>
      <trkpt lat="47.81864" lon="-3.68308">
        <ele>25.3</ele>
        <time>2023-01-27T12:49:34Z</time>
      </trkpt>
      <trkpt lat="47.81867" lon="-3.68312">
        <ele>25.2</ele>
        <time>2023-01-27T12:49:35Z</time>
      </trkpt>
      <trkpt lat="47.81869" lon="-3.68317">
        <ele>25.1</ele>
        <time>2023-01-27T12:49:36Z</time>
      </trkpt>
      <trkpt lat="47.8187" lon="-3.68322">
        <ele>25</ele>
        <time>2023-01-27T12:49:37Z</time>
      </trkpt>
      <trkpt lat="47.81871" lon="-3.68329">
        <ele>24.8</ele>
        <time>2023-01-27T12:49:38Z</time>
      </trkpt>
      <trkpt lat="47.81871" lon="-3.68334">
        <ele>24.6</ele>
        <time>2023-01-27T12:49:39Z</time>
      </trkpt>
      <trkpt lat="47.81871" lon="-3.68343">
        <ele>24.3</ele>
        <time>2023-01-27T12:49:40Z</time>
      </trkpt>
      <trkpt lat="47.81872" lon="-3.68352">
        <ele>24</ele>
        <time>2023-01-27T12:49:41Z</time>
      </trkpt>
      <trkpt lat="47.81873" lon="-3.68364">
        <ele>23.7</ele>
        <time>2023-01-27T12:49:43Z</time>
      </trkpt>
      <trkpt lat="47.81874" lon="-3.68369">
        <ele>23.7</ele>
        <time>2023-01-27T12:49:44Z</time>
      </trkpt>
      <trkpt lat="47.81874" lon="-3.6837">
        <ele>23.6</ele>
        <time>2023-01-27T12:49:45Z</time>
      </trkpt>
      <trkpt lat="47.81873" lon="-3.68376">
        <ele>23.6</ele>
        <time>2023-01-27T12:49:47Z</time>
      </trkpt>
      <trkpt lat="47.8187" lon="-3.68378">
        <ele>23.5</ele>
        <time>2023-01-27T12:49:49Z</time>
      </trkpt>
      <trkpt lat="47.8187" lon="-3.68379">
        <ele>23.5</ele>
        <time>2023-01-27T12:49:50Z</time>
      </trkpt>
      <trkpt lat="47.81869" lon="-3.68383">
        <ele>23.5</ele>
        <time>2023-01-27T12:49:51Z</time>
      </trkpt>
      <trkpt lat="47.81866" lon="-3.68386">
        <ele>23.5</ele>
        <time>2023-01-27T12:49:52Z</time>
      </trkpt>
      <trkpt lat="47.81865" lon="-3.68387">
        <ele>23.4</ele>
        <time>2023-01-27T12:49:53Z</time>
      </trkpt>
      <trkpt lat="47.81862" lon="-3.6839">
        <ele>23.4</ele>
        <time>2023-01-27T12:49:54Z</time>
      </trkpt>
      <trkpt lat="47.81861" lon="-3.6839">
        <ele>23.5</ele>
        <time>2023-01-27T12:49:55Z</time>
      </trkpt>
      <trkpt lat="47.81858" lon="-3.68391">
        <ele>23.5</ele>
        <time>2023-01-27T12:49:57Z</time>
      </trkpt>
      <trkpt lat="47.81855" lon="-3.68391">
        <ele>23.5</ele>
        <time>2023-01-27T12:49:58Z</time>
      </trkpt>
      <trkpt lat="47.81851" lon="-3.68393">
        <ele>23.6</ele>
        <time>2023-01-27T12:49:59Z</time>
      </trkpt>
      <trkpt lat="47.8185" lon="-3.68393">
        <ele>23.7</ele>
        <time>2023-01-27T12:50:00Z</time>
      </trkpt>
      <trkpt lat="47.81847" lon="-3.68396">
        <ele>23.8</ele>
        <time>2023-01-27T12:50:01Z</time>
      </trkpt>
      <trkpt lat="47.81847" lon="-3.68396">
        <ele>23.8</ele>
        <time>2023-01-27T12:50:02Z</time>
      </trkpt>
      <trkpt lat="47.81846" lon="-3.68398">
        <ele>23.8</ele>
        <time>2023-01-27T12:50:03Z</time>
      </trkpt>
      <trkpt lat="47.81846" lon="-3.68399">
        <ele>23.9</ele>
        <time>2023-01-27T12:50:04Z</time>
      </trkpt>
      <trkpt lat="47.81845" lon="-3.684">
        <ele>23.9</ele>
        <time>2023-01-27T12:50:05Z</time>
      </trkpt>
      <trkpt lat="47.81845" lon="-3.68401">
        <ele>24</ele>
        <time>2023-01-27T12:50:06Z</time>
      </trkpt>
      <trkpt lat="47.81845" lon="-3.68402">
        <ele>24</ele>
        <time>2023-01-27T12:50:07Z</time>
      </trkpt>
      <trkpt lat="47.81845" lon="-3.68402">
        <ele>24</ele>
        <time>2023-01-27T12:50:08Z</time>
      </trkpt>
      <trkpt lat="47.81845" lon="-3.68402">
        <ele>23.9</ele>
        <time>2023-01-27T12:50:09Z</time>
      </trkpt>
      <trkpt lat="47.81844" lon="-3.68402">
        <ele>23.8</ele>
        <time>2023-01-27T12:50:10Z</time>
      </trkpt>
      <trkpt lat="47.81844" lon="-3.68402">
        <ele>23.8</ele>
        <time>2023-01-27T12:50:11Z</time>
      </trkpt>
      <trkpt lat="47.81843" lon="-3.68403">
        <ele>22.9</ele>
        <time>2023-01-27T12:50:12Z</time>
      </trkpt>
      <trkpt lat="47.81843" lon="-3.68405">
        <ele>22.8</ele>
        <time>2023-01-27T12:50:14Z</time>
      </trkpt>
      <trkpt lat="47.81842" lon="-3.68411">
        <ele>22.7</ele>
        <time>2023-01-27T12:50:15Z</time>
      </trkpt>
      <trkpt lat="47.81842" lon="-3.68414">
        <ele>22.6</ele>
        <time>2023-01-27T12:50:16Z</time>
      </trkpt>
      <trkpt lat="47.8184" lon="-3.68419">
        <ele>22.6</ele>
        <time>2023-01-27T12:50:17Z</time>
      </trkpt>
      <trkpt lat="47.81839" lon="-3.68423">
        <ele>21.4</ele>
        <time>2023-01-27T12:50:18Z</time>
      </trkpt>
      <trkpt lat="47.81839" lon="-3.68431">
        <ele>21.4</ele>
        <time>2023-01-27T12:50:20Z</time>
      </trkpt>
      <trkpt lat="47.81839" lon="-3.68434">
        <ele>21.3</ele>
        <time>2023-01-27T12:50:21Z</time>
      </trkpt>
      <trkpt lat="47.81838" lon="-3.68437">
        <ele>20.2</ele>
        <time>2023-01-27T12:50:22Z</time>
      </trkpt>
      <trkpt lat="47.8184" lon="-3.6844">
        <ele>20.1</ele>
        <time>2023-01-27T12:50:24Z</time>
      </trkpt>
      <trkpt lat="47.81841" lon="-3.68442">
        <ele>20</ele>
        <time>2023-01-27T12:50:25Z</time>
      </trkpt>
      <trkpt lat="47.81841" lon="-3.68445">
        <ele>19.9</ele>
        <time>2023-01-27T12:50:26Z</time>
      </trkpt>
      <trkpt lat="47.8184" lon="-3.68449">
        <ele>19.9</ele>
        <time>2023-01-27T12:50:27Z</time>
      </trkpt>
      <trkpt lat="47.8184" lon="-3.68451">
        <ele>19.8</ele>
        <time>2023-01-27T12:50:29Z</time>
      </trkpt>
      <trkpt lat="47.8184" lon="-3.68453">
        <ele>19.7</ele>
        <time>2023-01-27T12:50:30Z</time>
      </trkpt>
      <trkpt lat="47.81839" lon="-3.68455">
        <ele>19.2</ele>
        <time>2023-01-27T12:50:31Z</time>
      </trkpt>
      <trkpt lat="47.81837" lon="-3.68459">
        <ele>19.1</ele>
        <time>2023-01-27T12:50:32Z</time>
      </trkpt>
      <trkpt lat="47.81836" lon="-3.68461">
        <ele>19.1</ele>
        <time>2023-01-27T12:50:34Z</time>
      </trkpt>
      <trkpt lat="47.81836" lon="-3.68462">
        <ele>19</ele>
        <time>2023-01-27T12:50:35Z</time>
      </trkpt>
      <trkpt lat="47.81835" lon="-3.68464">
        <ele>18.9</ele>
        <time>2023-01-27T12:50:36Z</time>
      </trkpt>
      <trkpt lat="47.81835" lon="-3.68466">
        <ele>18.8</ele>
        <time>2023-01-27T12:50:37Z</time>
      </trkpt>
      <trkpt lat="47.81835" lon="-3.68467">
        <ele>18.8</ele>
        <time>2023-01-27T12:50:38Z</time>
      </trkpt>
      <trkpt lat="47.81836" lon="-3.68468">
        <ele>18.7</ele>
        <time>2023-01-27T12:50:39Z</time>
      </trkpt>
      <trkpt lat="47.81837" lon="-3.6847">
        <ele>18.6</ele>
        <time>2023-01-27T12:50:40Z</time>
      </trkpt>
      <trkpt lat="47.81837" lon="-3.6847">
        <ele>18.5</ele>
        <time>2023-01-27T12:50:41Z</time>
      </trkpt>
      <trkpt lat="47.81837" lon="-3.68471">
        <ele>18.5</ele>
        <time>2023-01-27T12:50:42Z</time>
      </trkpt>
      <trkpt lat="47.81837" lon="-3.68472">
        <ele>18.6</ele>
        <time>2023-01-27T12:50:43Z</time>
      </trkpt>
      <trkpt lat="47.81836" lon="-3.68474">
        <ele>18.6</ele>
        <time>2023-01-27T12:50:44Z</time>
      </trkpt>
      <trkpt lat="47.81835" lon="-3.68476">
        <ele>18.5</ele>
        <time>2023-01-27T12:50:45Z</time>
      </trkpt>
      <trkpt lat="47.81835" lon="-3.68477">
        <ele>18.6</ele>
        <time>2023-01-27T12:50:46Z</time>
      </trkpt>
      <trkpt lat="47.81834" lon="-3.68477">
        <ele>18.9</ele>
        <time>2023-01-27T12:50:48Z</time>
      </trkpt>
      <trkpt lat="47.81833" lon="-3.68476">
        <ele>19.2</ele>
        <time>2023-01-27T12:50:50Z</time>
      </trkpt>
      <trkpt lat="47.81831" lon="-3.68476">
        <ele>19.4</ele>
        <time>2023-01-27T12:50:51Z</time>
      </trkpt>
      <trkpt lat="47.81831" lon="-3.68476">
        <ele>19.5</ele>
        <time>2023-01-27T12:50:52Z</time>
      </trkpt>
      <trkpt lat="47.8183" lon="-3.68476">
        <ele>19.6</ele>
        <time>2023-01-27T12:50:53Z</time>
      </trkpt>
      <trkpt lat="47.81829" lon="-3.68476">
        <ele>19.8</ele>
        <time>2023-01-27T12:50:54Z</time>
      </trkpt>
      <trkpt lat="47.81828" lon="-3.68476">
        <ele>20</ele>
        <time>2023-01-27T12:50:55Z</time>
      </trkpt>
      <trkpt lat="47.81828" lon="-3.68475">
        <ele>20.1</ele>
        <time>2023-01-27T12:50:56Z</time>
      </trkpt>
      <trkpt lat="47.81827" lon="-3.68475">
        <ele>20.2</ele>
        <time>2023-01-27T12:50:57Z</time>
      </trkpt>
      <trkpt lat="47.81826" lon="-3.68476">
        <ele>20.4</ele>
        <time>2023-01-27T12:50:58Z</time>
      </trkpt>
      <trkpt lat="47.81825" lon="-3.68476">
        <ele>20.6</ele>
        <time>2023-01-27T12:50:59Z</time>
      </trkpt>
      <trkpt lat="47.81823" lon="-3.68476">
        <ele>20.8</ele>
        <time>2023-01-27T12:51:00Z</time>
      </trkpt>
      <trkpt lat="47.81823" lon="-3.68475">
        <ele>20.9</ele>
        <time>2023-01-27T12:51:01Z</time>
      </trkpt>
      <trkpt lat="47.81822" lon="-3.68475">
        <ele>21</ele>
        <time>2023-01-27T12:51:02Z</time>
      </trkpt>
      <trkpt lat="47.81822" lon="-3.68474">
        <ele>21.2</ele>
        <time>2023-01-27T12:51:03Z</time>
      </trkpt>
      <trkpt lat="47.81822" lon="-3.68473">
        <ele>21.2</ele>
        <time>2023-01-27T12:51:04Z</time>
      </trkpt>
      <trkpt lat="47.81821" lon="-3.68471">
        <ele>21.4</ele>
        <time>2023-01-27T12:51:05Z</time>
      </trkpt>
      <trkpt lat="47.8182" lon="-3.6847">
        <ele>21.6</ele>
        <time>2023-01-27T12:51:06Z</time>
      </trkpt>
      <trkpt lat="47.81818" lon="-3.68469">
        <ele>21.8</ele>
        <time>2023-01-27T12:51:07Z</time>
      </trkpt>
      <trkpt lat="47.81818" lon="-3.68468">
        <ele>21.9</ele>
        <time>2023-01-27T12:51:08Z</time>
      </trkpt>
      <trkpt lat="47.81817" lon="-3.68467">
        <ele>22</ele>
        <time>2023-01-27T12:51:09Z</time>
      </trkpt>
      <trkpt lat="47.81816" lon="-3.68465">
        <ele>22.2</ele>
        <time>2023-01-27T12:51:11Z</time>
      </trkpt>
      <trkpt lat="47.81816" lon="-3.68464">
        <ele>22.2</ele>
        <time>2023-01-27T12:51:12Z</time>
      </trkpt>
      <trkpt lat="47.81815" lon="-3.68463">
        <ele>22.3</ele>
        <time>2023-01-27T12:51:13Z</time>
      </trkpt>
      <trkpt lat="47.81815" lon="-3.68461">
        <ele>22.4</ele>
        <time>2023-01-27T12:51:14Z</time>
      </trkpt>
      <trkpt lat="47.81814" lon="-3.6846">
        <ele>22.5</ele>
        <time>2023-01-27T12:51:15Z</time>
      </trkpt>
      <trkpt lat="47.81813" lon="-3.68459">
        <ele>22.6</ele>
        <time>2023-01-27T12:51:16Z</time>
      </trkpt>
      <trkpt lat="47.81813" lon="-3.68458">
        <ele>22.7</ele>
        <time>2023-01-27T12:51:17Z</time>
      </trkpt>
      <trkpt lat="47.81811" lon="-3.68455">
        <ele>22.8</ele>
        <time>2023-01-27T12:51:18Z</time>
      </trkpt>
      <trkpt lat="47.8181" lon="-3.68454">
        <ele>22.9</ele>
        <time>2023-01-27T12:51:19Z</time>
      </trkpt>
      <trkpt lat="47.81809" lon="-3.68452">
        <ele>23</ele>
        <time>2023-01-27T12:51:20Z</time>
      </trkpt>
      <trkpt lat="47.81809" lon="-3.68451">
        <ele>23</ele>
        <time>2023-01-27T12:51:21Z</time>
      </trkpt>
      <trkpt lat="47.81808" lon="-3.6845">
        <ele>23.1</ele>
        <time>2023-01-27T12:51:22Z</time>
      </trkpt>
      <trkpt lat="47.81807" lon="-3.68447">
        <ele>23.1</ele>
        <time>2023-01-27T12:51:23Z</time>
      </trkpt>
      <trkpt lat="47.81807" lon="-3.68445">
        <ele>23.2</ele>
        <time>2023-01-27T12:51:24Z</time>
      </trkpt>
      <trkpt lat="47.81806" lon="-3.68442">
        <ele>23.3</ele>
        <time>2023-01-27T12:51:25Z</time>
      </trkpt>
      <trkpt lat="47.81805" lon="-3.6844">
        <ele>23.3</ele>
        <time>2023-01-27T12:51:26Z</time>
      </trkpt>
      <trkpt lat="47.81805" lon="-3.68436">
        <ele>23.4</ele>
        <time>2023-01-27T12:51:27Z</time>
      </trkpt>
      <trkpt lat="47.81804" lon="-3.68432">
        <ele>23.5</ele>
        <time>2023-01-27T12:51:28Z</time>
      </trkpt>
      <trkpt lat="47.81803" lon="-3.68428">
        <ele>23.6</ele>
        <time>2023-01-27T12:51:29Z</time>
      </trkpt>
      <trkpt lat="47.81802" lon="-3.68427">
        <ele>23.6</ele>
        <time>2023-01-27T12:51:30Z</time>
      </trkpt>
      <trkpt lat="47.81801" lon="-3.68426">
        <ele>23.6</ele>
        <time>2023-01-27T12:51:31Z</time>
      </trkpt>
      <trkpt lat="47.81799" lon="-3.68424">
        <ele>23.6</ele>
        <time>2023-01-27T12:51:32Z</time>
      </trkpt>
      <trkpt lat="47.81796" lon="-3.68422">
        <ele>23.7</ele>
        <time>2023-01-27T12:51:33Z</time>
      </trkpt>
      <trkpt lat="47.81795" lon="-3.68421">
        <ele>23.7</ele>
        <time>2023-01-27T12:51:34Z</time>
      </trkpt>
      <trkpt lat="47.81792" lon="-3.68419">
        <ele>23.9</ele>
        <time>2023-01-27T12:51:35Z</time>
      </trkpt>
      <trkpt lat="47.81791" lon="-3.68418">
        <ele>23.9</ele>
        <time>2023-01-27T12:51:36Z</time>
      </trkpt>
      <trkpt lat="47.81788" lon="-3.68416">
        <ele>24.1</ele>
        <time>2023-01-27T12:51:38Z</time>
      </trkpt>
      <trkpt lat="47.81787" lon="-3.68415">
        <ele>24.1</ele>
        <time>2023-01-27T12:51:39Z</time>
      </trkpt>
      <trkpt lat="47.81783" lon="-3.68413">
        <ele>24.4</ele>
        <time>2023-01-27T12:51:40Z</time>
      </trkpt>
      <trkpt lat="47.81782" lon="-3.68412">
        <ele>24.5</ele>
        <time>2023-01-27T12:51:41Z</time>
      </trkpt>
      <trkpt lat="47.81778" lon="-3.68409">
        <ele>24.8</ele>
        <time>2023-01-27T12:51:42Z</time>
      </trkpt>
      <trkpt lat="47.81777" lon="-3.68408">
        <ele>24.9</ele>
        <time>2023-01-27T12:51:43Z</time>
      </trkpt>
      <trkpt lat="47.81775" lon="-3.68406">
        <ele>25.1</ele>
        <time>2023-01-27T12:51:45Z</time>
      </trkpt>
      <trkpt lat="47.81772" lon="-3.68403">
        <ele>25.4</ele>
        <time>2023-01-27T12:51:46Z</time>
      </trkpt>
      <trkpt lat="47.81771" lon="-3.68402">
        <ele>25.5</ele>
        <time>2023-01-27T12:51:47Z</time>
      </trkpt>
      <trkpt lat="47.81768" lon="-3.68398">
        <ele>25.9</ele>
        <time>2023-01-27T12:51:48Z</time>
      </trkpt>
      <trkpt lat="47.81767" lon="-3.68397">
        <ele>26</ele>
        <time>2023-01-27T12:51:49Z</time>
      </trkpt>
      <trkpt lat="47.81764" lon="-3.68394">
        <ele>26.3</ele>
        <time>2023-01-27T12:51:50Z</time>
      </trkpt>
      <trkpt lat="47.81763" lon="-3.68394">
        <ele>26.4</ele>
        <time>2023-01-27T12:51:51Z</time>
      </trkpt>
      <trkpt lat="47.8176" lon="-3.68391">
        <ele>26.8</ele>
        <time>2023-01-27T12:51:52Z</time>
      </trkpt>
      <trkpt lat="47.81759" lon="-3.6839">
        <ele>26.9</ele>
        <time>2023-01-27T12:51:53Z</time>
      </trkpt>
      <trkpt lat="47.81757" lon="-3.68388">
        <ele>27.2</ele>
        <time>2023-01-27T12:51:54Z</time>
      </trkpt>
      <trkpt lat="47.81754" lon="-3.68386">
        <ele>27.5</ele>
        <time>2023-01-27T12:51:55Z</time>
      </trkpt>
      <trkpt lat="47.81751" lon="-3.68383">
        <ele>27.8</ele>
        <time>2023-01-27T12:51:56Z</time>
      </trkpt>
      <trkpt lat="47.81751" lon="-3.68383">
        <ele>27.9</ele>
        <time>2023-01-27T12:51:57Z</time>
      </trkpt>
      <trkpt lat="47.81747" lon="-3.6838">
        <ele>28.3</ele>
        <time>2023-01-27T12:51:58Z</time>
      </trkpt>
      <trkpt lat="47.81746" lon="-3.68379">
        <ele>28.5</ele>
        <time>2023-01-27T12:51:59Z</time>
      </trkpt>
      <trkpt lat="47.81743" lon="-3.68377">
        <ele>28.8</ele>
        <time>2023-01-27T12:52:00Z</time>
      </trkpt>
      <trkpt lat="47.8174" lon="-3.68375">
        <ele>29.3</ele>
        <time>2023-01-27T12:52:02Z</time>
      </trkpt>
      <trkpt lat="47.81736" lon="-3.68372">
        <ele>29.9</ele>
        <time>2023-01-27T12:52:03Z</time>
      </trkpt>
      <trkpt lat="47.81732" lon="-3.6837">
        <ele>30.4</ele>
        <time>2023-01-27T12:52:05Z</time>
      </trkpt>
      <trkpt lat="47.81731" lon="-3.68369">
        <ele>30.6</ele>
        <time>2023-01-27T12:52:06Z</time>
      </trkpt>
      <trkpt lat="47.8173" lon="-3.68368">
        <ele>30.7</ele>
        <time>2023-01-27T12:52:07Z</time>
      </trkpt>
      <trkpt lat="47.81728" lon="-3.68367">
        <ele>31</ele>
        <time>2023-01-27T12:52:08Z</time>
      </trkpt>
      <trkpt lat="47.81727" lon="-3.68367">
        <ele>31.1</ele>
        <time>2023-01-27T12:52:09Z</time>
      </trkpt>
      <trkpt lat="47.81726" lon="-3.68366">
        <ele>31.3</ele>
        <time>2023-01-27T12:52:10Z</time>
      </trkpt>
      <trkpt lat="47.81725" lon="-3.68365">
        <ele>31.4</ele>
        <time>2023-01-27T12:52:11Z</time>
      </trkpt>
      <trkpt lat="47.81724" lon="-3.68364">
        <ele>31.5</ele>
        <time>2023-01-27T12:52:12Z</time>
      </trkpt>
      <trkpt lat="47.81723" lon="-3.68359">
        <ele>31.8</ele>
        <time>2023-01-27T12:52:13Z</time>
      </trkpt>
      <trkpt lat="47.81723" lon="-3.68357">
        <ele>32</ele>
        <time>2023-01-27T12:52:14Z</time>
      </trkpt>
      <trkpt lat="47.81721" lon="-3.68353">
        <ele>32.2</ele>
        <time>2023-01-27T12:52:15Z</time>
      </trkpt>
      <trkpt lat="47.8172" lon="-3.68352">
        <ele>32.3</ele>
        <time>2023-01-27T12:52:16Z</time>
      </trkpt>
      <trkpt lat="47.81719" lon="-3.68352">
        <ele>32.4</ele>
        <time>2023-01-27T12:52:17Z</time>
      </trkpt>
      <trkpt lat="47.81717" lon="-3.68351">
        <ele>32.3</ele>
        <time>2023-01-27T12:52:18Z</time>
      </trkpt>
      <trkpt lat="47.81716" lon="-3.68351">
        <ele>32.3</ele>
        <time>2023-01-27T12:52:19Z</time>
      </trkpt>
      <trkpt lat="47.81714" lon="-3.68349">
        <ele>32.3</ele>
        <time>2023-01-27T12:52:21Z</time>
      </trkpt>
      <trkpt lat="47.81712" lon="-3.68345">
        <ele>32.3</ele>
        <time>2023-01-27T12:52:22Z</time>
      </trkpt>
      <trkpt lat="47.81711" lon="-3.68345">
        <ele>32.3</ele>
        <time>2023-01-27T12:52:23Z</time>
      </trkpt>
      <trkpt lat="47.81709" lon="-3.68343">
        <ele>32.3</ele>
        <time>2023-01-27T12:52:24Z</time>
      </trkpt>
      <trkpt lat="47.81708" lon="-3.68343">
        <ele>32.3</ele>
        <time>2023-01-27T12:52:25Z</time>
      </trkpt>
      <trkpt lat="47.81706" lon="-3.68342">
        <ele>32.4</ele>
        <time>2023-01-27T12:52:26Z</time>
      </trkpt>
      <trkpt lat="47.81705" lon="-3.68342">
        <ele>32.4</ele>
        <time>2023-01-27T12:52:27Z</time>
      </trkpt>
      <trkpt lat="47.81704" lon="-3.68342">
        <ele>32.5</ele>
        <time>2023-01-27T12:52:28Z</time>
      </trkpt>
      <trkpt lat="47.81703" lon="-3.68341">
        <ele>32.5</ele>
        <time>2023-01-27T12:52:29Z</time>
      </trkpt>
      <trkpt lat="47.81703" lon="-3.6834">
        <ele>32.6</ele>
        <time>2023-01-27T12:52:30Z</time>
      </trkpt>
      <trkpt lat="47.81701" lon="-3.6834">
        <ele>32.7</ele>
        <time>2023-01-27T12:52:31Z</time>
      </trkpt>
      <trkpt lat="47.81699" lon="-3.68339">
        <ele>32.8</ele>
        <time>2023-01-27T12:52:32Z</time>
      </trkpt>
      <trkpt lat="47.81698" lon="-3.68338">
        <ele>32.9</ele>
        <time>2023-01-27T12:52:34Z</time>
      </trkpt>
      <trkpt lat="47.81697" lon="-3.68339">
        <ele>33</ele>
        <time>2023-01-27T12:52:35Z</time>
      </trkpt>
      <trkpt lat="47.81695" lon="-3.68339">
        <ele>33.1</ele>
        <time>2023-01-27T12:52:36Z</time>
      </trkpt>
      <trkpt lat="47.81694" lon="-3.68339">
        <ele>33.2</ele>
        <time>2023-01-27T12:52:37Z</time>
      </trkpt>
      <trkpt lat="47.81693" lon="-3.68339">
        <ele>33.3</ele>
        <time>2023-01-27T12:52:38Z</time>
      </trkpt>
      <trkpt lat="47.81692" lon="-3.68337">
        <ele>33.4</ele>
        <time>2023-01-27T12:52:39Z</time>
      </trkpt>
      <trkpt lat="47.81691" lon="-3.68337">
        <ele>33.5</ele>
        <time>2023-01-27T12:52:40Z</time>
      </trkpt>
      <trkpt lat="47.8169" lon="-3.68337">
        <ele>33.6</ele>
        <time>2023-01-27T12:52:41Z</time>
      </trkpt>
      <trkpt lat="47.81689" lon="-3.68337">
        <ele>33.7</ele>
        <time>2023-01-27T12:52:42Z</time>
      </trkpt>
      <trkpt lat="47.81687" lon="-3.68337">
        <ele>33.7</ele>
        <time>2023-01-27T12:52:43Z</time>
      </trkpt>
      <trkpt lat="47.81685" lon="-3.68337">
        <ele>33.9</ele>
        <time>2023-01-27T12:52:44Z</time>
      </trkpt>
      <trkpt lat="47.81684" lon="-3.68337">
        <ele>34</ele>
        <time>2023-01-27T12:52:45Z</time>
      </trkpt>
      <trkpt lat="47.81683" lon="-3.68337">
        <ele>34.1</ele>
        <time>2023-01-27T12:52:47Z</time>
      </trkpt>
      <trkpt lat="47.81682" lon="-3.68338">
        <ele>34.1</ele>
        <time>2023-01-27T12:52:48Z</time>
      </trkpt>
      <trkpt lat="47.8168" lon="-3.68338">
        <ele>34.2</ele>
        <time>2023-01-27T12:52:49Z</time>
      </trkpt>
      <trkpt lat="47.81679" lon="-3.68338">
        <ele>34.3</ele>
        <time>2023-01-27T12:52:50Z</time>
      </trkpt>
      <trkpt lat="47.81678" lon="-3.68336">
        <ele>34.4</ele>
        <time>2023-01-27T12:52:51Z</time>
      </trkpt>
      <trkpt lat="47.81676" lon="-3.68334">
        <ele>34.5</ele>
        <time>2023-01-27T12:52:53Z</time>
      </trkpt>
      <trkpt lat="47.81675" lon="-3.68333">
        <ele>34.5</ele>
        <time>2023-01-27T12:52:54Z</time>
      </trkpt>
      <trkpt lat="47.81674" lon="-3.68331">
        <ele>34.6</ele>
        <time>2023-01-27T12:52:55Z</time>
      </trkpt>
      <trkpt lat="47.81673" lon="-3.6833">
        <ele>34.6</ele>
        <time>2023-01-27T12:52:57Z</time>
      </trkpt>
      <trkpt lat="47.81672" lon="-3.68329">
        <ele>34.6</ele>
        <time>2023-01-27T12:52:58Z</time>
      </trkpt>
      <trkpt lat="47.81671" lon="-3.68327">
        <ele>34.7</ele>
        <time>2023-01-27T12:52:59Z</time>
      </trkpt>
      <trkpt lat="47.81668" lon="-3.68325">
        <ele>34.7</ele>
        <time>2023-01-27T12:53:00Z</time>
      </trkpt>
      <trkpt lat="47.81667" lon="-3.68324">
        <ele>34.7</ele>
        <time>2023-01-27T12:53:01Z</time>
      </trkpt>
      <trkpt lat="47.81664" lon="-3.68321">
        <ele>34.8</ele>
        <time>2023-01-27T12:53:02Z</time>
      </trkpt>
      <trkpt lat="47.81661" lon="-3.68319">
        <ele>34.7</ele>
        <time>2023-01-27T12:53:03Z</time>
      </trkpt>
      <trkpt lat="47.81657" lon="-3.68316">
        <ele>34.7</ele>
        <time>2023-01-27T12:53:05Z</time>
      </trkpt>
      <trkpt lat="47.81656" lon="-3.68315">
        <ele>34.7</ele>
        <time>2023-01-27T12:53:06Z</time>
      </trkpt>
      <trkpt lat="47.81655" lon="-3.68314">
        <ele>34.7</ele>
        <time>2023-01-27T12:53:07Z</time>
      </trkpt>
      <trkpt lat="47.81655" lon="-3.68313">
        <ele>34.6</ele>
        <time>2023-01-27T12:53:08Z</time>
      </trkpt>
      <trkpt lat="47.81653" lon="-3.68312">
        <ele>34.6</ele>
        <time>2023-01-27T12:53:09Z</time>
      </trkpt>
      <trkpt lat="47.81651" lon="-3.6831">
        <ele>34.5</ele>
        <time>2023-01-27T12:53:10Z</time>
      </trkpt>
      <trkpt lat="47.81647" lon="-3.68308">
        <ele>34.4</ele>
        <time>2023-01-27T12:53:13Z</time>
      </trkpt>
      <trkpt lat="47.81647" lon="-3.68307">
        <ele>34.4</ele>
        <time>2023-01-27T12:53:14Z</time>
      </trkpt>
      <trkpt lat="47.81646" lon="-3.68306">
        <ele>34.4</ele>
        <time>2023-01-27T12:53:15Z</time>
      </trkpt>
      <trkpt lat="47.81645" lon="-3.68306">
        <ele>34.4</ele>
        <time>2023-01-27T12:53:16Z</time>
      </trkpt>
      <trkpt lat="47.81644" lon="-3.68305">
        <ele>34.3</ele>
        <time>2023-01-27T12:53:17Z</time>
      </trkpt>
      <trkpt lat="47.81642" lon="-3.68304">
        <ele>32.6</ele>
        <time>2023-01-27T12:53:18Z</time>
      </trkpt>
      <trkpt lat="47.81637" lon="-3.68304">
        <ele>32.8</ele>
        <time>2023-01-27T12:53:19Z</time>
      </trkpt>
      <trkpt lat="47.81636" lon="-3.68305">
        <ele>32.9</ele>
        <time>2023-01-27T12:53:20Z</time>
      </trkpt>
      <trkpt lat="47.81635" lon="-3.68309">
        <ele>33</ele>
        <time>2023-01-27T12:53:22Z</time>
      </trkpt>
      <trkpt lat="47.81634" lon="-3.68314">
        <ele>33.2</ele>
        <time>2023-01-27T12:53:23Z</time>
      </trkpt>
      <trkpt lat="47.81634" lon="-3.68315">
        <ele>33.3</ele>
        <time>2023-01-27T12:53:24Z</time>
      </trkpt>
      <trkpt lat="47.81633" lon="-3.68318">
        <ele>33.4</ele>
        <time>2023-01-27T12:53:25Z</time>
      </trkpt>
      <trkpt lat="47.81633" lon="-3.68324">
        <ele>33.7</ele>
        <time>2023-01-27T12:53:27Z</time>
      </trkpt>
      <trkpt lat="47.8163" lon="-3.68326">
        <ele>33.9</ele>
        <time>2023-01-27T12:53:28Z</time>
      </trkpt>
      <trkpt lat="47.81628" lon="-3.68328">
        <ele>34</ele>
        <time>2023-01-27T12:53:29Z</time>
      </trkpt>
      <trkpt lat="47.81627" lon="-3.6833">
        <ele>34.2</ele>
        <time>2023-01-27T12:53:31Z</time>
      </trkpt>
      <trkpt lat="47.81627" lon="-3.68332">
        <ele>34.3</ele>
        <time>2023-01-27T12:53:32Z</time>
      </trkpt>
      <trkpt lat="47.81626" lon="-3.68334">
        <ele>34.4</ele>
        <time>2023-01-27T12:53:33Z</time>
      </trkpt>
      <trkpt lat="47.81623" lon="-3.68336">
        <ele>34.6</ele>
        <time>2023-01-27T12:53:34Z</time>
      </trkpt>
      <trkpt lat="47.81621" lon="-3.68337">
        <ele>34.7</ele>
        <time>2023-01-27T12:53:35Z</time>
      </trkpt>
      <trkpt lat="47.81618" lon="-3.68342">
        <ele>35.1</ele>
        <time>2023-01-27T12:53:36Z</time>
      </trkpt>
      <trkpt lat="47.81616" lon="-3.68345">
        <ele>35.2</ele>
        <time>2023-01-27T12:53:37Z</time>
      </trkpt>
      <trkpt lat="47.81614" lon="-3.68347">
        <ele>35.4</ele>
        <time>2023-01-27T12:53:39Z</time>
      </trkpt>
      <trkpt lat="47.81611" lon="-3.68353">
        <ele>35.8</ele>
        <time>2023-01-27T12:53:40Z</time>
      </trkpt>
      <trkpt lat="47.8161" lon="-3.68356">
        <ele>36</ele>
        <time>2023-01-27T12:53:41Z</time>
      </trkpt>
      <trkpt lat="47.81609" lon="-3.68359">
        <ele>36.1</ele>
        <time>2023-01-27T12:53:43Z</time>
      </trkpt>
      <trkpt lat="47.81607" lon="-3.68363">
        <ele>36.4</ele>
        <time>2023-01-27T12:53:44Z</time>
      </trkpt>
      <trkpt lat="47.81607" lon="-3.68365">
        <ele>36.5</ele>
        <time>2023-01-27T12:53:45Z</time>
      </trkpt>
      <trkpt lat="47.81605" lon="-3.68368">
        <ele>36.7</ele>
        <time>2023-01-27T12:53:46Z</time>
      </trkpt>
      <trkpt lat="47.81603" lon="-3.68372">
        <ele>36.9</ele>
        <time>2023-01-27T12:53:47Z</time>
      </trkpt>
      <trkpt lat="47.81602" lon="-3.68375">
        <ele>37.1</ele>
        <time>2023-01-27T12:53:48Z</time>
      </trkpt>
      <trkpt lat="47.816" lon="-3.6838">
        <ele>37.4</ele>
        <time>2023-01-27T12:53:49Z</time>
      </trkpt>
      <trkpt lat="47.816" lon="-3.68382">
        <ele>37.4</ele>
        <time>2023-01-27T12:53:50Z</time>
      </trkpt>
      <trkpt lat="47.81599" lon="-3.68387">
        <ele>37.7</ele>
        <time>2023-01-27T12:53:51Z</time>
      </trkpt>
      <trkpt lat="47.81599" lon="-3.68389">
        <ele>37.8</ele>
        <time>2023-01-27T12:53:52Z</time>
      </trkpt>
      <trkpt lat="47.81599" lon="-3.68397">
        <ele>38.2</ele>
        <time>2023-01-27T12:53:54Z</time>
      </trkpt>
      <trkpt lat="47.81597" lon="-3.68401">
        <ele>38.5</ele>
        <time>2023-01-27T12:53:56Z</time>
      </trkpt>
      <trkpt lat="47.81596" lon="-3.68409">
        <ele>38.9</ele>
        <time>2023-01-27T12:53:57Z</time>
      </trkpt>
      <trkpt lat="47.81595" lon="-3.68412">
        <ele>39.1</ele>
        <time>2023-01-27T12:53:58Z</time>
      </trkpt>
      <trkpt lat="47.81595" lon="-3.68416">
        <ele>39.3</ele>
        <time>2023-01-27T12:53:59Z</time>
      </trkpt>
      <trkpt lat="47.81596" lon="-3.68423">
        <ele>39.7</ele>
        <time>2023-01-27T12:54:01Z</time>
      </trkpt>
      <trkpt lat="47.81597" lon="-3.68426">
        <ele>39.8</ele>
        <time>2023-01-27T12:54:02Z</time>
      </trkpt>
      <trkpt lat="47.81598" lon="-3.68429">
        <ele>40</ele>
        <time>2023-01-27T12:54:03Z</time>
      </trkpt>
      <trkpt lat="47.81598" lon="-3.68433">
        <ele>40.2</ele>
        <time>2023-01-27T12:54:04Z</time>
      </trkpt>
      <trkpt lat="47.81599" lon="-3.68438">
        <ele>40.5</ele>
        <time>2023-01-27T12:54:06Z</time>
      </trkpt>
      <trkpt lat="47.81599" lon="-3.68441">
        <ele>40.6</ele>
        <time>2023-01-27T12:54:07Z</time>
      </trkpt>
      <trkpt lat="47.816" lon="-3.68443">
        <ele>40.7</ele>
        <time>2023-01-27T12:54:09Z</time>
      </trkpt>
      <trkpt lat="47.81601" lon="-3.68445">
        <ele>40.8</ele>
        <time>2023-01-27T12:54:10Z</time>
      </trkpt>
      <trkpt lat="47.81601" lon="-3.68448">
        <ele>40.9</ele>
        <time>2023-01-27T12:54:11Z</time>
      </trkpt>
      <trkpt lat="47.81602" lon="-3.68449">
        <ele>41</ele>
        <time>2023-01-27T12:54:12Z</time>
      </trkpt>
      <trkpt lat="47.81603" lon="-3.6845">
        <ele>41.1</ele>
        <time>2023-01-27T12:54:13Z</time>
      </trkpt>
      <trkpt lat="47.81605" lon="-3.68451">
        <ele>41.2</ele>
        <time>2023-01-27T12:54:14Z</time>
      </trkpt>
      <trkpt lat="47.81606" lon="-3.68452">
        <ele>41.3</ele>
        <time>2023-01-27T12:54:15Z</time>
      </trkpt>
      <trkpt lat="47.81607" lon="-3.68453">
        <ele>41.4</ele>
        <time>2023-01-27T12:54:16Z</time>
      </trkpt>
      <trkpt lat="47.81609" lon="-3.68454">
        <ele>41.5</ele>
        <time>2023-01-27T12:54:17Z</time>
      </trkpt>
      <trkpt lat="47.81613" lon="-3.68456">
        <ele>41.8</ele>
        <time>2023-01-27T12:54:18Z</time>
      </trkpt>
      <trkpt lat="47.81615" lon="-3.68457">
        <ele>41.8</ele>
        <time>2023-01-27T12:54:19Z</time>
      </trkpt>
      <trkpt lat="47.81618" lon="-3.68457">
        <ele>42</ele>
        <time>2023-01-27T12:54:20Z</time>
      </trkpt>
      <trkpt lat="47.81621" lon="-3.6846">
        <ele>42.2</ele>
        <time>2023-01-27T12:54:21Z</time>
      </trkpt>
      <trkpt lat="47.81622" lon="-3.6846">
        <ele>42.2</ele>
        <time>2023-01-27T12:54:22Z</time>
      </trkpt>
      <trkpt lat="47.81625" lon="-3.68462">
        <ele>42.4</ele>
        <time>2023-01-27T12:54:23Z</time>
      </trkpt>
      <trkpt lat="47.81626" lon="-3.68463">
        <ele>42.4</ele>
        <time>2023-01-27T12:54:24Z</time>
      </trkpt>
      <trkpt lat="47.81628" lon="-3.68465">
        <ele>42.5</ele>
        <time>2023-01-27T12:54:25Z</time>
      </trkpt>
      <trkpt lat="47.81629" lon="-3.68465">
        <ele>42.6</ele>
        <time>2023-01-27T12:54:26Z</time>
      </trkpt>
      <trkpt lat="47.81631" lon="-3.68466">
        <ele>42.6</ele>
        <time>2023-01-27T12:54:27Z</time>
      </trkpt>
      <trkpt lat="47.81632" lon="-3.68466">
        <ele>42.7</ele>
        <time>2023-01-27T12:54:28Z</time>
      </trkpt>
      <trkpt lat="47.81634" lon="-3.68466">
        <ele>42.7</ele>
        <time>2023-01-27T12:54:29Z</time>
      </trkpt>
      <trkpt lat="47.81635" lon="-3.68466">
        <ele>42.8</ele>
        <time>2023-01-27T12:54:30Z</time>
      </trkpt>
      <trkpt lat="47.81637" lon="-3.68467">
        <ele>42.9</ele>
        <time>2023-01-27T12:54:32Z</time>
      </trkpt>
      <trkpt lat="47.81638" lon="-3.68468">
        <ele>42.9</ele>
        <time>2023-01-27T12:54:33Z</time>
      </trkpt>
      <trkpt lat="47.8164" lon="-3.6847">
        <ele>43</ele>
        <time>2023-01-27T12:54:34Z</time>
      </trkpt>
      <trkpt lat="47.81641" lon="-3.6847">
        <ele>43</ele>
        <time>2023-01-27T12:54:35Z</time>
      </trkpt>
      <trkpt lat="47.81644" lon="-3.68472">
        <ele>43.1</ele>
        <time>2023-01-27T12:54:36Z</time>
      </trkpt>
      <trkpt lat="47.81646" lon="-3.68474">
        <ele>43.2</ele>
        <time>2023-01-27T12:54:37Z</time>
      </trkpt>
      <trkpt lat="47.81647" lon="-3.68475">
        <ele>43.2</ele>
        <time>2023-01-27T12:54:38Z</time>
      </trkpt>
      <trkpt lat="47.8165" lon="-3.68479">
        <ele>43.4</ele>
        <time>2023-01-27T12:54:39Z</time>
      </trkpt>
      <trkpt lat="47.81651" lon="-3.68481">
        <ele>43.4</ele>
        <time>2023-01-27T12:54:40Z</time>
      </trkpt>
      <trkpt lat="47.81653" lon="-3.68484">
        <ele>43.5</ele>
        <time>2023-01-27T12:54:41Z</time>
      </trkpt>
      <trkpt lat="47.81655" lon="-3.68488">
        <ele>43.6</ele>
        <time>2023-01-27T12:54:42Z</time>
      </trkpt>
      <trkpt lat="47.81656" lon="-3.68492">
        <ele>43.7</ele>
        <time>2023-01-27T12:54:43Z</time>
      </trkpt>
      <trkpt lat="47.81657" lon="-3.68496">
        <ele>43.7</ele>
        <time>2023-01-27T12:54:44Z</time>
      </trkpt>
      <trkpt lat="47.81658" lon="-3.685">
        <ele>43.8</ele>
        <time>2023-01-27T12:54:45Z</time>
      </trkpt>
      <trkpt lat="47.81659" lon="-3.68506">
        <ele>43.8</ele>
        <time>2023-01-27T12:54:47Z</time>
      </trkpt>
      <trkpt lat="47.8166" lon="-3.68511">
        <ele>43.9</ele>
        <time>2023-01-27T12:54:48Z</time>
      </trkpt>
      <trkpt lat="47.81661" lon="-3.68515">
        <ele>43.9</ele>
        <time>2023-01-27T12:54:49Z</time>
      </trkpt>
      <trkpt lat="47.81662" lon="-3.68521">
        <ele>43.9</ele>
        <time>2023-01-27T12:54:50Z</time>
      </trkpt>
      <trkpt lat="47.81663" lon="-3.68523">
        <ele>44</ele>
        <time>2023-01-27T12:54:51Z</time>
      </trkpt>
      <trkpt lat="47.81663" lon="-3.68529">
        <ele>44</ele>
        <time>2023-01-27T12:54:52Z</time>
      </trkpt>
      <trkpt lat="47.81664" lon="-3.68531">
        <ele>44</ele>
        <time>2023-01-27T12:54:53Z</time>
      </trkpt>
      <trkpt lat="47.81665" lon="-3.68536">
        <ele>44</ele>
        <time>2023-01-27T12:54:54Z</time>
      </trkpt>
      <trkpt lat="47.81665" lon="-3.6854">
        <ele>44</ele>
        <time>2023-01-27T12:54:55Z</time>
      </trkpt>
      <trkpt lat="47.81665" lon="-3.68545">
        <ele>44</ele>
        <time>2023-01-27T12:54:56Z</time>
      </trkpt>
      <trkpt lat="47.81666" lon="-3.68549">
        <ele>44</ele>
        <time>2023-01-27T12:54:57Z</time>
      </trkpt>
      <trkpt lat="47.81666" lon="-3.68554">
        <ele>44</ele>
        <time>2023-01-27T12:54:58Z</time>
      </trkpt>
      <trkpt lat="47.81666" lon="-3.6856">
        <ele>44</ele>
        <time>2023-01-27T12:54:59Z</time>
      </trkpt>
      <trkpt lat="47.81666" lon="-3.68565">
        <ele>44</ele>
        <time>2023-01-27T12:55:00Z</time>
      </trkpt>
      <trkpt lat="47.81666" lon="-3.68569">
        <ele>43.9</ele>
        <time>2023-01-27T12:55:01Z</time>
      </trkpt>
      <trkpt lat="47.81667" lon="-3.68574">
        <ele>43.9</ele>
        <time>2023-01-27T12:55:02Z</time>
      </trkpt>
      <trkpt lat="47.81667" lon="-3.68578">
        <ele>43.9</ele>
        <time>2023-01-27T12:55:03Z</time>
      </trkpt>
      <trkpt lat="47.81668" lon="-3.68583">
        <ele>43.8</ele>
        <time>2023-01-27T12:55:04Z</time>
      </trkpt>
      <trkpt lat="47.81668" lon="-3.68588">
        <ele>43.8</ele>
        <time>2023-01-27T12:55:05Z</time>
      </trkpt>
      <trkpt lat="47.81667" lon="-3.68593">
        <ele>43.8</ele>
        <time>2023-01-27T12:55:06Z</time>
      </trkpt>
      <trkpt lat="47.81667" lon="-3.68596">
        <ele>43.8</ele>
        <time>2023-01-27T12:55:07Z</time>
      </trkpt>
      <trkpt lat="47.81667" lon="-3.68601">
        <ele>43.7</ele>
        <time>2023-01-27T12:55:08Z</time>
      </trkpt>
      <trkpt lat="47.81668" lon="-3.68603">
        <ele>43.7</ele>
        <time>2023-01-27T12:55:09Z</time>
      </trkpt>
      <trkpt lat="47.81668" lon="-3.68608">
        <ele>43.7</ele>
        <time>2023-01-27T12:55:10Z</time>
      </trkpt>
      <trkpt lat="47.81667" lon="-3.68614">
        <ele>43.6</ele>
        <time>2023-01-27T12:55:11Z</time>
      </trkpt>
      <trkpt lat="47.81667" lon="-3.68616">
        <ele>43.6</ele>
        <time>2023-01-27T12:55:12Z</time>
      </trkpt>
      <trkpt lat="47.81666" lon="-3.68622">
        <ele>43.5</ele>
        <time>2023-01-27T12:55:13Z</time>
      </trkpt>
      <trkpt lat="47.81664" lon="-3.68629">
        <ele>43.5</ele>
        <time>2023-01-27T12:55:14Z</time>
      </trkpt>
      <trkpt lat="47.81663" lon="-3.68636">
        <ele>43.4</ele>
        <time>2023-01-27T12:55:15Z</time>
      </trkpt>
      <trkpt lat="47.81663" lon="-3.68639">
        <ele>43.4</ele>
        <time>2023-01-27T12:55:16Z</time>
      </trkpt>
      <trkpt lat="47.81662" lon="-3.68645">
        <ele>43.4</ele>
        <time>2023-01-27T12:55:17Z</time>
      </trkpt>
      <trkpt lat="47.81661" lon="-3.68652">
        <ele>43.3</ele>
        <time>2023-01-27T12:55:18Z</time>
      </trkpt>
      <trkpt lat="47.81659" lon="-3.68659">
        <ele>43.3</ele>
        <time>2023-01-27T12:55:19Z</time>
      </trkpt>
      <trkpt lat="47.81657" lon="-3.68666">
        <ele>43.3</ele>
        <time>2023-01-27T12:55:20Z</time>
      </trkpt>
      <trkpt lat="47.81655" lon="-3.68669">
        <ele>43.3</ele>
        <time>2023-01-27T12:55:21Z</time>
      </trkpt>
      <trkpt lat="47.81654" lon="-3.68674">
        <ele>43.3</ele>
        <time>2023-01-27T12:55:23Z</time>
      </trkpt>
      <trkpt lat="47.8165" lon="-3.68683">
        <ele>43.3</ele>
        <time>2023-01-27T12:55:24Z</time>
      </trkpt>
      <trkpt lat="47.81648" lon="-3.68689">
        <ele>43.4</ele>
        <time>2023-01-27T12:55:25Z</time>
      </trkpt>
      <trkpt lat="47.81644" lon="-3.68697">
        <ele>43.6</ele>
        <time>2023-01-27T12:55:27Z</time>
      </trkpt>
      <trkpt lat="47.8164" lon="-3.68702">
        <ele>43.8</ele>
        <time>2023-01-27T12:55:29Z</time>
      </trkpt>
      <trkpt lat="47.81638" lon="-3.68706">
        <ele>43.9</ele>
        <time>2023-01-27T12:55:30Z</time>
      </trkpt>
      <trkpt lat="47.81635" lon="-3.68709">
        <ele>44</ele>
        <time>2023-01-27T12:55:31Z</time>
      </trkpt>
      <trkpt lat="47.81634" lon="-3.68714">
        <ele>44.1</ele>
        <time>2023-01-27T12:55:32Z</time>
      </trkpt>
      <trkpt lat="47.81633" lon="-3.68716">
        <ele>44.2</ele>
        <time>2023-01-27T12:55:33Z</time>
      </trkpt>
      <trkpt lat="47.81632" lon="-3.6872">
        <ele>44.3</ele>
        <time>2023-01-27T12:55:34Z</time>
      </trkpt>
      <trkpt lat="47.8163" lon="-3.68724">
        <ele>44.4</ele>
        <time>2023-01-27T12:55:35Z</time>
      </trkpt>
      <trkpt lat="47.81627" lon="-3.68727">
        <ele>44.5</ele>
        <time>2023-01-27T12:55:36Z</time>
      </trkpt>
      <trkpt lat="47.81625" lon="-3.68731">
        <ele>44.5</ele>
        <time>2023-01-27T12:55:37Z</time>
      </trkpt>
      <trkpt lat="47.81624" lon="-3.68734">
        <ele>44.6</ele>
        <time>2023-01-27T12:55:38Z</time>
      </trkpt>
      <trkpt lat="47.81622" lon="-3.68738">
        <ele>44.6</ele>
        <time>2023-01-27T12:55:39Z</time>
      </trkpt>
      <trkpt lat="47.81618" lon="-3.68746">
        <ele>44.7</ele>
        <time>2023-01-27T12:55:40Z</time>
      </trkpt>
      <trkpt lat="47.81616" lon="-3.68753">
        <ele>44.6</ele>
        <time>2023-01-27T12:55:42Z</time>
      </trkpt>
      <trkpt lat="47.81613" lon="-3.68759">
        <ele>44.6</ele>
        <time>2023-01-27T12:55:43Z</time>
      </trkpt>
      <trkpt lat="47.81611" lon="-3.68766">
        <ele>44.5</ele>
        <time>2023-01-27T12:55:44Z</time>
      </trkpt>
      <trkpt lat="47.8161" lon="-3.68771">
        <ele>44.5</ele>
        <time>2023-01-27T12:55:45Z</time>
      </trkpt>
      <trkpt lat="47.81608" lon="-3.68779">
        <ele>44.4</ele>
        <time>2023-01-27T12:55:46Z</time>
      </trkpt>
      <trkpt lat="47.81606" lon="-3.68783">
        <ele>44.3</ele>
        <time>2023-01-27T12:55:47Z</time>
      </trkpt>
      <trkpt lat="47.81603" lon="-3.68791">
        <ele>44.2</ele>
        <time>2023-01-27T12:55:48Z</time>
      </trkpt>
      <trkpt lat="47.81599" lon="-3.68803">
        <ele>44</ele>
        <time>2023-01-27T12:55:50Z</time>
      </trkpt>
      <trkpt lat="47.81596" lon="-3.68814">
        <ele>43.9</ele>
        <time>2023-01-27T12:55:52Z</time>
      </trkpt>
      <trkpt lat="47.81595" lon="-3.68823">
        <ele>43.7</ele>
        <time>2023-01-27T12:55:53Z</time>
      </trkpt>
      <trkpt lat="47.81593" lon="-3.68829">
        <ele>43.6</ele>
        <time>2023-01-27T12:55:54Z</time>
      </trkpt>
      <trkpt lat="47.81592" lon="-3.68833">
        <ele>43.5</ele>
        <time>2023-01-27T12:55:55Z</time>
      </trkpt>
      <trkpt lat="47.81589" lon="-3.68842">
        <ele>43.4</ele>
        <time>2023-01-27T12:55:56Z</time>
      </trkpt>
      <trkpt lat="47.81585" lon="-3.68856">
        <ele>43.1</ele>
        <time>2023-01-27T12:55:58Z</time>
      </trkpt>
      <trkpt lat="47.81583" lon="-3.68864">
        <ele>43</ele>
        <time>2023-01-27T12:55:59Z</time>
      </trkpt>
      <trkpt lat="47.8158" lon="-3.68871">
        <ele>42.9</ele>
        <time>2023-01-27T12:56:00Z</time>
      </trkpt>
      <trkpt lat="47.81578" lon="-3.68875">
        <ele>42.8</ele>
        <time>2023-01-27T12:56:01Z</time>
      </trkpt>
      <trkpt lat="47.81576" lon="-3.68881">
        <ele>42.7</ele>
        <time>2023-01-27T12:56:02Z</time>
      </trkpt>
      <trkpt lat="47.81574" lon="-3.68889">
        <ele>42.6</ele>
        <time>2023-01-27T12:56:03Z</time>
      </trkpt>
      <trkpt lat="47.81572" lon="-3.68896">
        <ele>42.5</ele>
        <time>2023-01-27T12:56:04Z</time>
      </trkpt>
      <trkpt lat="47.8157" lon="-3.68902">
        <ele>42.4</ele>
        <time>2023-01-27T12:56:05Z</time>
      </trkpt>
      <trkpt lat="47.81568" lon="-3.68909">
        <ele>42.3</ele>
        <time>2023-01-27T12:56:06Z</time>
      </trkpt>
      <trkpt lat="47.81565" lon="-3.68916">
        <ele>42.3</ele>
        <time>2023-01-27T12:56:07Z</time>
      </trkpt>
      <trkpt lat="47.81563" lon="-3.68923">
        <ele>42.2</ele>
        <time>2023-01-27T12:56:08Z</time>
      </trkpt>
      <trkpt lat="47.81562" lon="-3.68929">
        <ele>42.1</ele>
        <time>2023-01-27T12:56:09Z</time>
      </trkpt>
      <trkpt lat="47.81561" lon="-3.68934">
        <ele>42</ele>
        <time>2023-01-27T12:56:10Z</time>
      </trkpt>
      <trkpt lat="47.81561" lon="-3.6894">
        <ele>41.9</ele>
        <time>2023-01-27T12:56:11Z</time>
      </trkpt>
      <trkpt lat="47.8156" lon="-3.68947">
        <ele>41.8</ele>
        <time>2023-01-27T12:56:12Z</time>
      </trkpt>
      <trkpt lat="47.81561" lon="-3.68957">
        <ele>41.6</ele>
        <time>2023-01-27T12:56:13Z</time>
      </trkpt>
      <trkpt lat="47.81558" lon="-3.6897">
        <ele>41.5</ele>
        <time>2023-01-27T12:56:15Z</time>
      </trkpt>
      <trkpt lat="47.81558" lon="-3.68978">
        <ele>41.4</ele>
        <time>2023-01-27T12:56:16Z</time>
      </trkpt>
      <trkpt lat="47.81556" lon="-3.68985">
        <ele>41.4</ele>
        <time>2023-01-27T12:56:17Z</time>
      </trkpt>
      <trkpt lat="47.81555" lon="-3.68993">
        <ele>41.3</ele>
        <time>2023-01-27T12:56:18Z</time>
      </trkpt>
      <trkpt lat="47.81555" lon="-3.69002">
        <ele>41.3</ele>
        <time>2023-01-27T12:56:19Z</time>
      </trkpt>
      <trkpt lat="47.81555" lon="-3.69009">
        <ele>41.3</ele>
        <time>2023-01-27T12:56:20Z</time>
      </trkpt>
      <trkpt lat="47.81554" lon="-3.69014">
        <ele>41.3</ele>
        <time>2023-01-27T12:56:21Z</time>
      </trkpt>
      <trkpt lat="47.81552" lon="-3.69022">
        <ele>41.3</ele>
        <time>2023-01-27T12:56:23Z</time>
      </trkpt>
      <trkpt lat="47.81549" lon="-3.69034">
        <ele>41.4</ele>
        <time>2023-01-27T12:56:24Z</time>
      </trkpt>
      <trkpt lat="47.81549" lon="-3.69046">
        <ele>41.5</ele>
        <time>2023-01-27T12:56:26Z</time>
      </trkpt>
      <trkpt lat="47.81547" lon="-3.69056">
        <ele>41.6</ele>
        <time>2023-01-27T12:56:28Z</time>
      </trkpt>
      <trkpt lat="47.81547" lon="-3.6906">
        <ele>41.6</ele>
        <time>2023-01-27T12:56:29Z</time>
      </trkpt>
      <trkpt lat="47.81546" lon="-3.69065">
        <ele>41.6</ele>
        <time>2023-01-27T12:56:30Z</time>
      </trkpt>
      <trkpt lat="47.81546" lon="-3.69073">
        <ele>41.7</ele>
        <time>2023-01-27T12:56:31Z</time>
      </trkpt>
      <trkpt lat="47.81545" lon="-3.69079">
        <ele>41.8</ele>
        <time>2023-01-27T12:56:33Z</time>
      </trkpt>
      <trkpt lat="47.81546" lon="-3.69091">
        <ele>41.9</ele>
        <time>2023-01-27T12:56:34Z</time>
      </trkpt>
      <trkpt lat="47.81545" lon="-3.69097">
        <ele>42</ele>
        <time>2023-01-27T12:56:35Z</time>
      </trkpt>
      <trkpt lat="47.81546" lon="-3.69107">
        <ele>42.1</ele>
        <time>2023-01-27T12:56:37Z</time>
      </trkpt>
      <trkpt lat="47.81547" lon="-3.69112">
        <ele>42.1</ele>
        <time>2023-01-27T12:56:39Z</time>
      </trkpt>
      <trkpt lat="47.81548" lon="-3.69117">
        <ele>42.2</ele>
        <time>2023-01-27T12:56:40Z</time>
      </trkpt>
      <trkpt lat="47.81548" lon="-3.69119">
        <ele>42.2</ele>
        <time>2023-01-27T12:56:41Z</time>
      </trkpt>
      <trkpt lat="47.81549" lon="-3.69125">
        <ele>42.3</ele>
        <time>2023-01-27T12:56:42Z</time>
      </trkpt>
      <trkpt lat="47.81547" lon="-3.69132">
        <ele>42.4</ele>
        <time>2023-01-27T12:56:43Z</time>
      </trkpt>
      <trkpt lat="47.81544" lon="-3.69137">
        <ele>42.4</ele>
        <time>2023-01-27T12:56:44Z</time>
      </trkpt>
      <trkpt lat="47.8154" lon="-3.69141">
        <ele>42.5</ele>
        <time>2023-01-27T12:56:46Z</time>
      </trkpt>
      <trkpt lat="47.81537" lon="-3.69143">
        <ele>42.6</ele>
        <time>2023-01-27T12:56:47Z</time>
      </trkpt>
      <trkpt lat="47.81532" lon="-3.69145">
        <ele>42.6</ele>
        <time>2023-01-27T12:56:48Z</time>
      </trkpt>
      <trkpt lat="47.81528" lon="-3.69147">
        <ele>42.6</ele>
        <time>2023-01-27T12:56:50Z</time>
      </trkpt>
      <trkpt lat="47.81525" lon="-3.69148">
        <ele>42.6</ele>
        <time>2023-01-27T12:56:51Z</time>
      </trkpt>
      <trkpt lat="47.81521" lon="-3.69149">
        <ele>42.7</ele>
        <time>2023-01-27T12:56:52Z</time>
      </trkpt>
      <trkpt lat="47.81517" lon="-3.69149">
        <ele>42.6</ele>
        <time>2023-01-27T12:56:53Z</time>
      </trkpt>
      <trkpt lat="47.81513" lon="-3.6915">
        <ele>42.6</ele>
        <time>2023-01-27T12:56:54Z</time>
      </trkpt>
      <trkpt lat="47.8151" lon="-3.69151">
        <ele>42.6</ele>
        <time>2023-01-27T12:56:55Z</time>
      </trkpt>
      <trkpt lat="47.81505" lon="-3.69151">
        <ele>42.6</ele>
        <time>2023-01-27T12:56:56Z</time>
      </trkpt>
      <trkpt lat="47.81499" lon="-3.69151">
        <ele>42.5</ele>
        <time>2023-01-27T12:56:57Z</time>
      </trkpt>
      <trkpt lat="47.81495" lon="-3.69151">
        <ele>42.5</ele>
        <time>2023-01-27T12:56:58Z</time>
      </trkpt>
      <trkpt lat="47.81491" lon="-3.69151">
        <ele>42.5</ele>
        <time>2023-01-27T12:56:59Z</time>
      </trkpt>
      <trkpt lat="47.81486" lon="-3.6915">
        <ele>42.4</ele>
        <time>2023-01-27T12:57:01Z</time>
      </trkpt>
      <trkpt lat="47.81479" lon="-3.69152">
        <ele>42.4</ele>
        <time>2023-01-27T12:57:02Z</time>
      </trkpt>
      <trkpt lat="47.81472" lon="-3.69152">
        <ele>42.3</ele>
        <time>2023-01-27T12:57:04Z</time>
      </trkpt>
      <trkpt lat="47.81468" lon="-3.69151">
        <ele>42.3</ele>
        <time>2023-01-27T12:57:06Z</time>
      </trkpt>
      <trkpt lat="47.81465" lon="-3.6915">
        <ele>42.3</ele>
        <time>2023-01-27T12:57:07Z</time>
      </trkpt>
      <trkpt lat="47.8146" lon="-3.69149">
        <ele>42.3</ele>
        <time>2023-01-27T12:57:08Z</time>
      </trkpt>
      <trkpt lat="47.81456" lon="-3.69149">
        <ele>42.3</ele>
        <time>2023-01-27T12:57:09Z</time>
      </trkpt>
      <trkpt lat="47.81452" lon="-3.69149">
        <ele>42.3</ele>
        <time>2023-01-27T12:57:10Z</time>
      </trkpt>
      <trkpt lat="47.81448" lon="-3.6915">
        <ele>42.2</ele>
        <time>2023-01-27T12:57:11Z</time>
      </trkpt>
      <trkpt lat="47.81445" lon="-3.6915">
        <ele>42.2</ele>
        <time>2023-01-27T12:57:12Z</time>
      </trkpt>
      <trkpt lat="47.81441" lon="-3.6915">
        <ele>42.2</ele>
        <time>2023-01-27T12:57:13Z</time>
      </trkpt>
      <trkpt lat="47.81438" lon="-3.6915">
        <ele>42.2</ele>
        <time>2023-01-27T12:57:14Z</time>
      </trkpt>
      <trkpt lat="47.81434" lon="-3.69151">
        <ele>42.2</ele>
        <time>2023-01-27T12:57:15Z</time>
      </trkpt>
      <trkpt lat="47.8143" lon="-3.69147">
        <ele>42.2</ele>
        <time>2023-01-27T12:57:16Z</time>
      </trkpt>
      <trkpt lat="47.81426" lon="-3.69147">
        <ele>42.3</ele>
        <time>2023-01-27T12:57:17Z</time>
      </trkpt>
      <trkpt lat="47.81421" lon="-3.69147">
        <ele>42.4</ele>
        <time>2023-01-27T12:57:18Z</time>
      </trkpt>
      <trkpt lat="47.81418" lon="-3.69145">
        <ele>42.4</ele>
        <time>2023-01-27T12:57:19Z</time>
      </trkpt>
      <trkpt lat="47.81413" lon="-3.69144">
        <ele>42.5</ele>
        <time>2023-01-27T12:57:20Z</time>
      </trkpt>
      <trkpt lat="47.81409" lon="-3.69144">
        <ele>42.5</ele>
        <time>2023-01-27T12:57:21Z</time>
      </trkpt>
      <trkpt lat="47.81406" lon="-3.69142">
        <ele>42.6</ele>
        <time>2023-01-27T12:57:22Z</time>
      </trkpt>
      <trkpt lat="47.81401" lon="-3.69141">
        <ele>42.6</ele>
        <time>2023-01-27T12:57:23Z</time>
      </trkpt>
      <trkpt lat="47.81397" lon="-3.6914">
        <ele>42.6</ele>
        <time>2023-01-27T12:57:24Z</time>
      </trkpt>
      <trkpt lat="47.81392" lon="-3.69139">
        <ele>42.7</ele>
        <time>2023-01-27T12:57:25Z</time>
      </trkpt>
      <trkpt lat="47.81388" lon="-3.69138">
        <ele>42.7</ele>
        <time>2023-01-27T12:57:26Z</time>
      </trkpt>
      <trkpt lat="47.81382" lon="-3.69136">
        <ele>42.7</ele>
        <time>2023-01-27T12:57:27Z</time>
      </trkpt>
      <trkpt lat="47.81377" lon="-3.69136">
        <ele>42.7</ele>
        <time>2023-01-27T12:57:28Z</time>
      </trkpt>
      <trkpt lat="47.81372" lon="-3.69136">
        <ele>42.7</ele>
        <time>2023-01-27T12:57:29Z</time>
      </trkpt>
      <trkpt lat="47.81367" lon="-3.69135">
        <ele>42.7</ele>
        <time>2023-01-27T12:57:30Z</time>
      </trkpt>
      <trkpt lat="47.81362" lon="-3.69134">
        <ele>42.7</ele>
        <time>2023-01-27T12:57:31Z</time>
      </trkpt>
      <trkpt lat="47.81357" lon="-3.69133">
        <ele>42.7</ele>
        <time>2023-01-27T12:57:32Z</time>
      </trkpt>
      <trkpt lat="47.81353" lon="-3.69132">
        <ele>42.7</ele>
        <time>2023-01-27T12:57:33Z</time>
      </trkpt>
      <trkpt lat="47.81348" lon="-3.69131">
        <ele>42.7</ele>
        <time>2023-01-27T12:57:34Z</time>
      </trkpt>
      <trkpt lat="47.81343" lon="-3.69129">
        <ele>42.7</ele>
        <time>2023-01-27T12:57:35Z</time>
      </trkpt>
      <trkpt lat="47.81338" lon="-3.69128">
        <ele>42.7</ele>
        <time>2023-01-27T12:57:36Z</time>
      </trkpt>
      <trkpt lat="47.81334" lon="-3.69127">
        <ele>42.8</ele>
        <time>2023-01-27T12:57:37Z</time>
      </trkpt>
      <trkpt lat="47.81329" lon="-3.69126">
        <ele>42.8</ele>
        <time>2023-01-27T12:57:38Z</time>
      </trkpt>
      <trkpt lat="47.81324" lon="-3.69126">
        <ele>42.8</ele>
        <time>2023-01-27T12:57:39Z</time>
      </trkpt>
      <trkpt lat="47.81319" lon="-3.69128">
        <ele>42.8</ele>
        <time>2023-01-27T12:57:40Z</time>
      </trkpt>
      <trkpt lat="47.81315" lon="-3.69132">
        <ele>42.9</ele>
        <time>2023-01-27T12:57:41Z</time>
      </trkpt>
      <trkpt lat="47.81314" lon="-3.69139">
        <ele>42.9</ele>
        <time>2023-01-27T12:57:42Z</time>
      </trkpt>
      <trkpt lat="47.81314" lon="-3.69146">
        <ele>42.9</ele>
        <time>2023-01-27T12:57:43Z</time>
      </trkpt>
      <trkpt lat="47.81314" lon="-3.69152">
        <ele>42.9</ele>
        <time>2023-01-27T12:57:44Z</time>
      </trkpt>
      <trkpt lat="47.81315" lon="-3.69158">
        <ele>42.8</ele>
        <time>2023-01-27T12:57:45Z</time>
      </trkpt>
      <trkpt lat="47.81315" lon="-3.69164">
        <ele>42.8</ele>
        <time>2023-01-27T12:57:46Z</time>
      </trkpt>
      <trkpt lat="47.81315" lon="-3.69171">
        <ele>42.8</ele>
        <time>2023-01-27T12:57:47Z</time>
      </trkpt>
      <trkpt lat="47.81316" lon="-3.69178">
        <ele>42.8</ele>
        <time>2023-01-27T12:57:48Z</time>
      </trkpt>
      <trkpt lat="47.81317" lon="-3.69185">
        <ele>42.7</ele>
        <time>2023-01-27T12:57:49Z</time>
      </trkpt>
      <trkpt lat="47.81318" lon="-3.69192">
        <ele>42.7</ele>
        <time>2023-01-27T12:57:50Z</time>
      </trkpt>
      <trkpt lat="47.81319" lon="-3.69199">
        <ele>42.7</ele>
        <time>2023-01-27T12:57:51Z</time>
      </trkpt>
      <trkpt lat="47.81318" lon="-3.69206">
        <ele>42.7</ele>
        <time>2023-01-27T12:57:52Z</time>
      </trkpt>
      <trkpt lat="47.81318" lon="-3.69213">
        <ele>42.7</ele>
        <time>2023-01-27T12:57:53Z</time>
      </trkpt>
      <trkpt lat="47.81318" lon="-3.6922">
        <ele>42.7</ele>
        <time>2023-01-27T12:57:54Z</time>
      </trkpt>
      <trkpt lat="47.81318" lon="-3.69227">
        <ele>42.6</ele>
        <time>2023-01-27T12:57:55Z</time>
      </trkpt>
      <trkpt lat="47.81317" lon="-3.69234">
        <ele>42.6</ele>
        <time>2023-01-27T12:57:56Z</time>
      </trkpt>
      <trkpt lat="47.81316" lon="-3.69242">
        <ele>42.6</ele>
        <time>2023-01-27T12:57:57Z</time>
      </trkpt>
      <trkpt lat="47.81316" lon="-3.69249">
        <ele>42.6</ele>
        <time>2023-01-27T12:57:58Z</time>
      </trkpt>
      <trkpt lat="47.81314" lon="-3.69256">
        <ele>42.6</ele>
        <time>2023-01-27T12:57:59Z</time>
      </trkpt>
      <trkpt lat="47.81312" lon="-3.69262">
        <ele>42.7</ele>
        <time>2023-01-27T12:58:00Z</time>
      </trkpt>
      <trkpt lat="47.81309" lon="-3.69266">
        <ele>42.7</ele>
        <time>2023-01-27T12:58:01Z</time>
      </trkpt>
      <trkpt lat="47.81305" lon="-3.69266">
        <ele>42.8</ele>
        <time>2023-01-27T12:58:02Z</time>
      </trkpt>
      <trkpt lat="47.81301" lon="-3.69266">
        <ele>42.8</ele>
        <time>2023-01-27T12:58:03Z</time>
      </trkpt>
      <trkpt lat="47.81296" lon="-3.69264">
        <ele>42.9</ele>
        <time>2023-01-27T12:58:04Z</time>
      </trkpt>
      <trkpt lat="47.81291" lon="-3.69262">
        <ele>42.9</ele>
        <time>2023-01-27T12:58:05Z</time>
      </trkpt>
      <trkpt lat="47.81286" lon="-3.69261">
        <ele>42.9</ele>
        <time>2023-01-27T12:58:06Z</time>
      </trkpt>
      <trkpt lat="47.81282" lon="-3.6926">
        <ele>43</ele>
        <time>2023-01-27T12:58:07Z</time>
      </trkpt>
      <trkpt lat="47.81277" lon="-3.69259">
        <ele>43</ele>
        <time>2023-01-27T12:58:08Z</time>
      </trkpt>
      <trkpt lat="47.81273" lon="-3.69258">
        <ele>43</ele>
        <time>2023-01-27T12:58:09Z</time>
      </trkpt>
      <trkpt lat="47.81268" lon="-3.69256">
        <ele>43.1</ele>
        <time>2023-01-27T12:58:10Z</time>
      </trkpt>
      <trkpt lat="47.81263" lon="-3.69254">
        <ele>43.1</ele>
        <time>2023-01-27T12:58:11Z</time>
      </trkpt>
      <trkpt lat="47.81258" lon="-3.69253">
        <ele>43.1</ele>
        <time>2023-01-27T12:58:12Z</time>
      </trkpt>
      <trkpt lat="47.81253" lon="-3.69252">
        <ele>43.1</ele>
        <time>2023-01-27T12:58:13Z</time>
      </trkpt>
      <trkpt lat="47.81248" lon="-3.6925">
        <ele>43.2</ele>
        <time>2023-01-27T12:58:14Z</time>
      </trkpt>
      <trkpt lat="47.81242" lon="-3.69249">
        <ele>43.2</ele>
        <time>2023-01-27T12:58:15Z</time>
      </trkpt>
      <trkpt lat="47.81237" lon="-3.69248">
        <ele>43.2</ele>
        <time>2023-01-27T12:58:16Z</time>
      </trkpt>
      <trkpt lat="47.81232" lon="-3.69247">
        <ele>43.3</ele>
        <time>2023-01-27T12:58:17Z</time>
      </trkpt>
      <trkpt lat="47.81227" lon="-3.69245">
        <ele>43.3</ele>
        <time>2023-01-27T12:58:18Z</time>
      </trkpt>
      <trkpt lat="47.81222" lon="-3.69244">
        <ele>43.4</ele>
        <time>2023-01-27T12:58:19Z</time>
      </trkpt>
      <trkpt lat="47.81217" lon="-3.69243">
        <ele>43.4</ele>
        <time>2023-01-27T12:58:20Z</time>
      </trkpt>
      <trkpt lat="47.81212" lon="-3.69242">
        <ele>43.4</ele>
        <time>2023-01-27T12:58:21Z</time>
      </trkpt>
      <trkpt lat="47.81207" lon="-3.69241">
        <ele>43.3</ele>
        <time>2023-01-27T12:58:22Z</time>
      </trkpt>
      <trkpt lat="47.81202" lon="-3.6924">
        <ele>43.3</ele>
        <time>2023-01-27T12:58:23Z</time>
      </trkpt>
      <trkpt lat="47.81197" lon="-3.69239">
        <ele>43.3</ele>
        <time>2023-01-27T12:58:24Z</time>
      </trkpt>
      <trkpt lat="47.81191" lon="-3.69237">
        <ele>43.2</ele>
        <time>2023-01-27T12:58:25Z</time>
      </trkpt>
      <trkpt lat="47.81186" lon="-3.69236">
        <ele>43.2</ele>
        <time>2023-01-27T12:58:26Z</time>
      </trkpt>
      <trkpt lat="47.81181" lon="-3.69235">
        <ele>43.1</ele>
        <time>2023-01-27T12:58:27Z</time>
      </trkpt>
      <trkpt lat="47.81175" lon="-3.69233">
        <ele>43.1</ele>
        <time>2023-01-27T12:58:28Z</time>
      </trkpt>
      <trkpt lat="47.8117" lon="-3.69232">
        <ele>43</ele>
        <time>2023-01-27T12:58:29Z</time>
      </trkpt>
      <trkpt lat="47.81164" lon="-3.6923">
        <ele>43</ele>
        <time>2023-01-27T12:58:30Z</time>
      </trkpt>
      <trkpt lat="47.81158" lon="-3.69228">
        <ele>42.9</ele>
        <time>2023-01-27T12:58:31Z</time>
      </trkpt>
      <trkpt lat="47.81153" lon="-3.69226">
        <ele>42.8</ele>
        <time>2023-01-27T12:58:32Z</time>
      </trkpt>
      <trkpt lat="47.81147" lon="-3.69225">
        <ele>42.8</ele>
        <time>2023-01-27T12:58:33Z</time>
      </trkpt>
      <trkpt lat="47.81141" lon="-3.69223">
        <ele>42.7</ele>
        <time>2023-01-27T12:58:34Z</time>
      </trkpt>
      <trkpt lat="47.81136" lon="-3.69221">
        <ele>42.6</ele>
        <time>2023-01-27T12:58:35Z</time>
      </trkpt>
      <trkpt lat="47.8113" lon="-3.69219">
        <ele>42.6</ele>
        <time>2023-01-27T12:58:36Z</time>
      </trkpt>
      <trkpt lat="47.81124" lon="-3.69215">
        <ele>42.5</ele>
        <time>2023-01-27T12:58:37Z</time>
      </trkpt>
      <trkpt lat="47.81119" lon="-3.69212">
        <ele>42.4</ele>
        <time>2023-01-27T12:58:38Z</time>
      </trkpt>
      <trkpt lat="47.81113" lon="-3.69208">
        <ele>42.3</ele>
        <time>2023-01-27T12:58:39Z</time>
      </trkpt>
      <trkpt lat="47.81108" lon="-3.69203">
        <ele>42.2</ele>
        <time>2023-01-27T12:58:40Z</time>
      </trkpt>
      <trkpt lat="47.81103" lon="-3.69198">
        <ele>42.1</ele>
        <time>2023-01-27T12:58:41Z</time>
      </trkpt>
      <trkpt lat="47.81098" lon="-3.69192">
        <ele>42</ele>
        <time>2023-01-27T12:58:42Z</time>
      </trkpt>
      <trkpt lat="47.81093" lon="-3.69186">
        <ele>41.9</ele>
        <time>2023-01-27T12:58:43Z</time>
      </trkpt>
      <trkpt lat="47.81088" lon="-3.69181">
        <ele>41.8</ele>
        <time>2023-01-27T12:58:44Z</time>
      </trkpt>
      <trkpt lat="47.81082" lon="-3.69175">
        <ele>41.7</ele>
        <time>2023-01-27T12:58:45Z</time>
      </trkpt>
      <trkpt lat="47.81077" lon="-3.69169">
        <ele>41.5</ele>
        <time>2023-01-27T12:58:46Z</time>
      </trkpt>
      <trkpt lat="47.81072" lon="-3.69163">
        <ele>41.4</ele>
        <time>2023-01-27T12:58:47Z</time>
      </trkpt>
      <trkpt lat="47.81067" lon="-3.69157">
        <ele>41.3</ele>
        <time>2023-01-27T12:58:48Z</time>
      </trkpt>
      <trkpt lat="47.81062" lon="-3.69151">
        <ele>41.2</ele>
        <time>2023-01-27T12:58:49Z</time>
      </trkpt>
      <trkpt lat="47.81057" lon="-3.69145">
        <ele>41.1</ele>
        <time>2023-01-27T12:58:50Z</time>
      </trkpt>
      <trkpt lat="47.81052" lon="-3.69139">
        <ele>41</ele>
        <time>2023-01-27T12:58:51Z</time>
      </trkpt>
      <trkpt lat="47.81047" lon="-3.69133">
        <ele>41</ele>
        <time>2023-01-27T12:58:52Z</time>
      </trkpt>
      <trkpt lat="47.81042" lon="-3.69127">
        <ele>40.9</ele>
        <time>2023-01-27T12:58:53Z</time>
      </trkpt>
      <trkpt lat="47.81037" lon="-3.69121">
        <ele>40.9</ele>
        <time>2023-01-27T12:58:54Z</time>
      </trkpt>
      <trkpt lat="47.81032" lon="-3.69116">
        <ele>40.8</ele>
        <time>2023-01-27T12:58:55Z</time>
      </trkpt>
      <trkpt lat="47.81026" lon="-3.69112">
        <ele>40.8</ele>
        <time>2023-01-27T12:58:56Z</time>
      </trkpt>
      <trkpt lat="47.8102" lon="-3.69111">
        <ele>40.8</ele>
        <time>2023-01-27T12:58:57Z</time>
      </trkpt>
      <trkpt lat="47.81014" lon="-3.69109">
        <ele>40.7</ele>
        <time>2023-01-27T12:58:58Z</time>
      </trkpt>
      <trkpt lat="47.81007" lon="-3.69109">
        <ele>40.7</ele>
        <time>2023-01-27T12:58:59Z</time>
      </trkpt>
      <trkpt lat="47.81001" lon="-3.69108">
        <ele>40.7</ele>
        <time>2023-01-27T12:59:00Z</time>
      </trkpt>
      <trkpt lat="47.80995" lon="-3.69109">
        <ele>40.7</ele>
        <time>2023-01-27T12:59:01Z</time>
      </trkpt>
      <trkpt lat="47.80989" lon="-3.69112">
        <ele>40.6</ele>
        <time>2023-01-27T12:59:02Z</time>
      </trkpt>
      <trkpt lat="47.80984" lon="-3.69117">
        <ele>40.6</ele>
        <time>2023-01-27T12:59:03Z</time>
      </trkpt>
      <trkpt lat="47.8098" lon="-3.69123">
        <ele>40.6</ele>
        <time>2023-01-27T12:59:04Z</time>
      </trkpt>
      <trkpt lat="47.80977" lon="-3.69129">
        <ele>40.6</ele>
        <time>2023-01-27T12:59:05Z</time>
      </trkpt>
      <trkpt lat="47.80973" lon="-3.69136">
        <ele>40.6</ele>
        <time>2023-01-27T12:59:06Z</time>
      </trkpt>
      <trkpt lat="47.8097" lon="-3.69142">
        <ele>40.6</ele>
        <time>2023-01-27T12:59:07Z</time>
      </trkpt>
      <trkpt lat="47.80966" lon="-3.69147">
        <ele>40.6</ele>
        <time>2023-01-27T12:59:08Z</time>
      </trkpt>
      <trkpt lat="47.8096" lon="-3.69148">
        <ele>40.6</ele>
        <time>2023-01-27T12:59:09Z</time>
      </trkpt>
      <trkpt lat="47.80954" lon="-3.69148">
        <ele>40.6</ele>
        <time>2023-01-27T12:59:10Z</time>
      </trkpt>
      <trkpt lat="47.80948" lon="-3.69146">
        <ele>40.4</ele>
        <time>2023-01-27T12:59:11Z</time>
      </trkpt>
      <trkpt lat="47.80943" lon="-3.69144">
        <ele>40.3</ele>
        <time>2023-01-27T12:59:12Z</time>
      </trkpt>
      <trkpt lat="47.80938" lon="-3.69143">
        <ele>40.2</ele>
        <time>2023-01-27T12:59:13Z</time>
      </trkpt>
      <trkpt lat="47.80932" lon="-3.69143">
        <ele>40</ele>
        <time>2023-01-27T12:59:14Z</time>
      </trkpt>
      <trkpt lat="47.80926" lon="-3.69143">
        <ele>39.9</ele>
        <time>2023-01-27T12:59:15Z</time>
      </trkpt>
      <trkpt lat="47.80921" lon="-3.69143">
        <ele>39.7</ele>
        <time>2023-01-27T12:59:16Z</time>
      </trkpt>
      <trkpt lat="47.80916" lon="-3.69143">
        <ele>39.6</ele>
        <time>2023-01-27T12:59:17Z</time>
      </trkpt>
      <trkpt lat="47.80912" lon="-3.69143">
        <ele>39.4</ele>
        <time>2023-01-27T12:59:18Z</time>
      </trkpt>
      <trkpt lat="47.80906" lon="-3.69143">
        <ele>39.2</ele>
        <time>2023-01-27T12:59:19Z</time>
      </trkpt>
      <trkpt lat="47.80902" lon="-3.69143">
        <ele>39</ele>
        <time>2023-01-27T12:59:20Z</time>
      </trkpt>
      <trkpt lat="47.80896" lon="-3.69142">
        <ele>38.7</ele>
        <time>2023-01-27T12:59:21Z</time>
      </trkpt>
      <trkpt lat="47.80889" lon="-3.69142">
        <ele>38.4</ele>
        <time>2023-01-27T12:59:22Z</time>
      </trkpt>
      <trkpt lat="47.80882" lon="-3.69142">
        <ele>37.9</ele>
        <time>2023-01-27T12:59:23Z</time>
      </trkpt>
      <trkpt lat="47.80876" lon="-3.69144">
        <ele>37.5</ele>
        <time>2023-01-27T12:59:24Z</time>
      </trkpt>
      <trkpt lat="47.80869" lon="-3.69148">
        <ele>37</ele>
        <time>2023-01-27T12:59:25Z</time>
      </trkpt>
      <trkpt lat="47.80861" lon="-3.69148">
        <ele>36.6</ele>
        <time>2023-01-27T12:59:26Z</time>
      </trkpt>
      <trkpt lat="47.80854" lon="-3.69146">
        <ele>36</ele>
        <time>2023-01-27T12:59:27Z</time>
      </trkpt>
      <trkpt lat="47.80846" lon="-3.69145">
        <ele>35.5</ele>
        <time>2023-01-27T12:59:28Z</time>
      </trkpt>
      <trkpt lat="47.80837" lon="-3.69142">
        <ele>34.8</ele>
        <time>2023-01-27T12:59:29Z</time>
      </trkpt>
      <trkpt lat="47.8083" lon="-3.69139">
        <ele>34.2</ele>
        <time>2023-01-27T12:59:30Z</time>
      </trkpt>
      <trkpt lat="47.80824" lon="-3.69135">
        <ele>33.8</ele>
        <time>2023-01-27T12:59:31Z</time>
      </trkpt>
      <trkpt lat="47.8082" lon="-3.69129">
        <ele>33.3</ele>
        <time>2023-01-27T12:59:32Z</time>
      </trkpt>
      <trkpt lat="47.80817" lon="-3.69122">
        <ele>32.9</ele>
        <time>2023-01-27T12:59:33Z</time>
      </trkpt>
      <trkpt lat="47.80815" lon="-3.69115">
        <ele>32.4</ele>
        <time>2023-01-27T12:59:34Z</time>
      </trkpt>
      <trkpt lat="47.80813" lon="-3.69108">
        <ele>32</ele>
        <time>2023-01-27T12:59:35Z</time>
      </trkpt>
      <trkpt lat="47.80811" lon="-3.69102">
        <ele>31.7</ele>
        <time>2023-01-27T12:59:36Z</time>
      </trkpt>
      <trkpt lat="47.80808" lon="-3.69099">
        <ele>31.4</ele>
        <time>2023-01-27T12:59:37Z</time>
      </trkpt>
      <trkpt lat="47.80806" lon="-3.69099">
        <ele>31.2</ele>
        <time>2023-01-27T12:59:38Z</time>
      </trkpt>
      <trkpt lat="47.80803" lon="-3.69096">
        <ele>30.9</ele>
        <time>2023-01-27T12:59:39Z</time>
      </trkpt>
      <trkpt lat="47.808" lon="-3.69095">
        <ele>30.6</ele>
        <time>2023-01-27T12:59:40Z</time>
      </trkpt>
      <trkpt lat="47.80796" lon="-3.69095">
        <ele>30.2</ele>
        <time>2023-01-27T12:59:41Z</time>
      </trkpt>
      <trkpt lat="47.80793" lon="-3.69096">
        <ele>29.9</ele>
        <time>2023-01-27T12:59:42Z</time>
      </trkpt>
      <trkpt lat="47.80788" lon="-3.69101">
        <ele>29.2</ele>
        <time>2023-01-27T12:59:43Z</time>
      </trkpt>
      <trkpt lat="47.80789" lon="-3.69105">
        <ele>28.8</ele>
        <time>2023-01-27T12:59:44Z</time>
      </trkpt>
      <trkpt lat="47.80788" lon="-3.69108">
        <ele>28.5</ele>
        <time>2023-01-27T12:59:45Z</time>
      </trkpt>
      <trkpt lat="47.80784" lon="-3.69116">
        <ele>27.6</ele>
        <time>2023-01-27T12:59:46Z</time>
      </trkpt>
      <trkpt lat="47.80782" lon="-3.69126">
        <ele>26.5</ele>
        <time>2023-01-27T12:59:47Z</time>
      </trkpt>
      <trkpt lat="47.80782" lon="-3.69137">
        <ele>25.4</ele>
        <time>2023-01-27T12:59:48Z</time>
      </trkpt>
      <trkpt lat="47.80782" lon="-3.69146">
        <ele>24.6</ele>
        <time>2023-01-27T12:59:49Z</time>
      </trkpt>
      <trkpt lat="47.80782" lon="-3.69156">
        <ele>23.7</ele>
        <time>2023-01-27T12:59:50Z</time>
      </trkpt>
      <trkpt lat="47.80782" lon="-3.69167">
        <ele>22.9</ele>
        <time>2023-01-27T12:59:51Z</time>
      </trkpt>
      <trkpt lat="47.80781" lon="-3.69176">
        <ele>22.4</ele>
        <time>2023-01-27T12:59:52Z</time>
      </trkpt>
      <trkpt lat="47.80779" lon="-3.69184">
        <ele>21.9</ele>
        <time>2023-01-27T12:59:53Z</time>
      </trkpt>
      <trkpt lat="47.8078" lon="-3.6919">
        <ele>21.6</ele>
        <time>2023-01-27T12:59:54Z</time>
      </trkpt>
      <trkpt lat="47.80782" lon="-3.69195">
        <ele>21.3</ele>
        <time>2023-01-27T12:59:55Z</time>
      </trkpt>
      <trkpt lat="47.80783" lon="-3.69199">
        <ele>21.1</ele>
        <time>2023-01-27T12:59:57Z</time>
      </trkpt>
      <trkpt lat="47.80782" lon="-3.69205">
        <ele>20.8</ele>
        <time>2023-01-27T12:59:58Z</time>
      </trkpt>
      <trkpt lat="47.80779" lon="-3.69209">
        <ele>20.5</ele>
        <time>2023-01-27T12:59:59Z</time>
      </trkpt>
      <trkpt lat="47.80776" lon="-3.69209">
        <ele>20.3</ele>
        <time>2023-01-27T13:00:00Z</time>
      </trkpt>
      <trkpt lat="47.80776" lon="-3.69209">
        <ele>20.3</ele>
        <time>2023-01-27T13:00:01Z</time>
      </trkpt>
      <trkpt lat="47.80776" lon="-3.6921">
        <ele>20.2</ele>
        <time>2023-01-27T13:00:02Z</time>
      </trkpt>
      <trkpt lat="47.80776" lon="-3.6921">
        <ele>20.2</ele>
        <time>2023-01-27T13:00:03Z</time>
      </trkpt>
      <trkpt lat="47.80776" lon="-3.69211">
        <ele>20.2</ele>
        <time>2023-01-27T13:00:04Z</time>
      </trkpt>
      <trkpt lat="47.80776" lon="-3.69211">
        <ele>20.2</ele>
        <time>2023-01-27T13:00:05Z</time>
      </trkpt>
      <trkpt lat="47.80776" lon="-3.69211">
        <ele>20.2</ele>
        <time>2023-01-27T13:00:06Z</time>
      </trkpt>
      <trkpt lat="47.80776" lon="-3.69211">
        <ele>20.1</ele>
        <time>2023-01-27T13:00:07Z</time>
      </trkpt>
      <trkpt lat="47.80777" lon="-3.69211">
        <ele>20.1</ele>
        <time>2023-01-27T13:00:09Z</time>
      </trkpt>
      <trkpt lat="47.80777" lon="-3.69211">
        <ele>20.1</ele>
        <time>2023-01-27T13:00:11Z</time>
      </trkpt>
      <trkpt lat="47.80777" lon="-3.69211">
        <ele>20.1</ele>
        <time>2023-01-27T13:00:12Z</time>
      </trkpt>
      <trkpt lat="47.80777" lon="-3.69211">
        <ele>20</ele>
        <time>2023-01-27T13:00:13Z</time>
      </trkpt>
      <trkpt lat="47.80778" lon="-3.69211">
        <ele>20</ele>
        <time>2023-01-27T13:00:14Z</time>
      </trkpt>
      <trkpt lat="47.80779" lon="-3.69211">
        <ele>19.9</ele>
        <time>2023-01-27T13:00:15Z</time>
      </trkpt>
      <trkpt lat="47.8078" lon="-3.69211">
        <ele>19.8</ele>
        <time>2023-01-27T13:00:16Z</time>
      </trkpt>
      <trkpt lat="47.80781" lon="-3.69211">
        <ele>19.7</ele>
        <time>2023-01-27T13:00:18Z</time>
      </trkpt>
      <trkpt lat="47.80782" lon="-3.69209">
        <ele>19.6</ele>
        <time>2023-01-27T13:00:19Z</time>
      </trkpt>
      <trkpt lat="47.80781" lon="-3.69209">
        <ele>19.6</ele>
        <time>2023-01-27T13:00:20Z</time>
      </trkpt>
      <trkpt lat="47.80781" lon="-3.69209">
        <ele>19.5</ele>
        <time>2023-01-27T13:00:21Z</time>
      </trkpt>
      <trkpt lat="47.80781" lon="-3.69209">
        <ele>19.5</ele>
        <time>2023-01-27T13:00:22Z</time>
      </trkpt>
      <trkpt lat="47.80781" lon="-3.69208">
        <ele>19.5</ele>
        <time>2023-01-27T13:00:23Z</time>
      </trkpt>
      <trkpt lat="47.80781" lon="-3.69208">
        <ele>19.5</ele>
        <time>2023-01-27T13:00:24Z</time>
      </trkpt>
      <trkpt lat="47.80781" lon="-3.69207">
        <ele>19.4</ele>
        <time>2023-01-27T13:00:25Z</time>
      </trkpt>
      <trkpt lat="47.8078" lon="-3.69207">
        <ele>19.4</ele>
        <time>2023-01-27T13:00:26Z</time>
      </trkpt>
      <trkpt lat="47.8078" lon="-3.69207">
        <ele>19.4</ele>
        <time>2023-01-27T13:00:27Z</time>
      </trkpt>
      <trkpt lat="47.8078" lon="-3.69207">
        <ele>19.4</ele>
        <time>2023-01-27T13:00:28Z</time>
      </trkpt>
      <trkpt lat="47.8078" lon="-3.69207">
        <ele>19.4</ele>
        <time>2023-01-27T13:00:29Z</time>
      </trkpt>
      <trkpt lat="47.8078" lon="-3.69207">
        <ele>19.4</ele>
        <time>2023-01-27T13:00:30Z</time>
      </trkpt>
      <trkpt lat="47.8078" lon="-3.69209">
        <ele>19.3</ele>
        <time>2023-01-27T13:00:31Z</time>
      </trkpt>
      <trkpt lat="47.80779" lon="-3.6921">
        <ele>19.2</ele>
        <time>2023-01-27T13:00:32Z</time>
      </trkpt>
      <trkpt lat="47.80779" lon="-3.69212">
        <ele>19.1</ele>
        <time>2023-01-27T13:00:33Z</time>
      </trkpt>
      <trkpt lat="47.80779" lon="-3.69212">
        <ele>19.1</ele>
        <time>2023-01-27T13:00:34Z</time>
      </trkpt>
      <trkpt lat="47.80779" lon="-3.69213">
        <ele>19</ele>
        <time>2023-01-27T13:00:35Z</time>
      </trkpt>
      <trkpt lat="47.80779" lon="-3.69213">
        <ele>19</ele>
        <time>2023-01-27T13:00:36Z</time>
      </trkpt>
      <trkpt lat="47.80778" lon="-3.69213">
        <ele>19</ele>
        <time>2023-01-27T13:00:37Z</time>
      </trkpt>
      <trkpt lat="47.80778" lon="-3.69213">
        <ele>19</ele>
        <time>2023-01-27T13:00:38Z</time>
      </trkpt>
      <trkpt lat="47.80778" lon="-3.69213">
        <ele>18.9</ele>
        <time>2023-01-27T13:00:39Z</time>
      </trkpt>
      <trkpt lat="47.80778" lon="-3.69212">
        <ele>18.9</ele>
        <time>2023-01-27T13:00:40Z</time>
      </trkpt>
      <trkpt lat="47.80778" lon="-3.69212">
        <ele>18.9</ele>
        <time>2023-01-27T13:00:41Z</time>
      </trkpt>
      <trkpt lat="47.80778" lon="-3.69212">
        <ele>18.9</ele>
        <time>2023-01-27T13:00:42Z</time>
      </trkpt>
      <trkpt lat="47.80778" lon="-3.69212">
        <ele>18.8</ele>
        <time>2023-01-27T13:00:43Z</time>
      </trkpt>
      <trkpt lat="47.80778" lon="-3.69212">
        <ele>18.8</ele>
        <time>2023-01-27T13:00:44Z</time>
      </trkpt>
      <trkpt lat="47.80778" lon="-3.69213">
        <ele>18.8</ele>
        <time>2023-01-27T13:00:45Z</time>
      </trkpt>
      <trkpt lat="47.80778" lon="-3.69212">
        <ele>18.8</ele>
        <time>2023-01-27T13:00:46Z</time>
      </trkpt>
      <trkpt lat="47.80777" lon="-3.69212">
        <ele>18.8</ele>
        <time>2023-01-27T13:00:47Z</time>
      </trkpt>
      <trkpt lat="47.80777" lon="-3.69212">
        <ele>18.8</ele>
        <time>2023-01-27T13:00:48Z</time>
      </trkpt>
      <trkpt lat="47.80777" lon="-3.69212">
        <ele>18.8</ele>
        <time>2023-01-27T13:00:49Z</time>
      </trkpt>
      <trkpt lat="47.80776" lon="-3.69214">
        <ele>18.7</ele>
        <time>2023-01-27T13:00:54Z</time>
      </trkpt>
      <trkpt lat="47.80776" lon="-3.69214">
        <ele>18.6</ele>
        <time>2023-01-27T13:00:55Z</time>
      </trkpt>
      <trkpt lat="47.80775" lon="-3.69214">
        <ele>18.5</ele>
        <time>2023-01-27T13:00:57Z</time>
      </trkpt>
      <trkpt lat="47.80774" lon="-3.69214">
        <ele>18.5</ele>
        <time>2023-01-27T13:00:58Z</time>
      </trkpt>
      <trkpt lat="47.80772" lon="-3.69214">
        <ele>18.4</ele>
        <time>2023-01-27T13:00:59Z</time>
      </trkpt>
      <trkpt lat="47.80771" lon="-3.69214">
        <ele>18.3</ele>
        <time>2023-01-27T13:01:01Z</time>
      </trkpt>
      <trkpt lat="47.8077" lon="-3.69215">
        <ele>18.2</ele>
        <time>2023-01-27T13:01:02Z</time>
      </trkpt>
      <trkpt lat="47.80769" lon="-3.69216">
        <ele>18.2</ele>
        <time>2023-01-27T13:01:03Z</time>
      </trkpt>
      <trkpt lat="47.80769" lon="-3.69216">
        <ele>18.2</ele>
        <time>2023-01-27T13:01:05Z</time>
      </trkpt>
      <trkpt lat="47.80769" lon="-3.69216">
        <ele>18.2</ele>
        <time>2023-01-27T13:01:06Z</time>
      </trkpt>
      <trkpt lat="47.80769" lon="-3.69216">
        <ele>18.2</ele>
        <time>2023-01-27T13:01:07Z</time>
      </trkpt>
      <trkpt lat="47.80769" lon="-3.69216">
        <ele>18.2</ele>
        <time>2023-01-27T13:01:08Z</time>
      </trkpt>
      <trkpt lat="47.80769" lon="-3.69216">
        <ele>18.2</ele>
        <time>2023-01-27T13:01:09Z</time>
      </trkpt>
      <trkpt lat="47.80769" lon="-3.69216">
        <ele>18.1</ele>
        <time>2023-01-27T13:01:10Z</time>
      </trkpt>
      <trkpt lat="47.80768" lon="-3.69216">
        <ele>18.1</ele>
        <time>2023-01-27T13:01:11Z</time>
      </trkpt>
      <trkpt lat="47.80768" lon="-3.69216">
        <ele>18.1</ele>
        <time>2023-01-27T13:01:12Z</time>
      </trkpt>
      <trkpt lat="47.80768" lon="-3.69216">
        <ele>18.1</ele>
        <time>2023-01-27T13:01:13Z</time>
      </trkpt>
      <trkpt lat="47.80763" lon="-3.69217">
        <ele>17.9</ele>
        <time>2023-01-27T13:01:22Z</time>
      </trkpt>
      <trkpt lat="47.80761" lon="-3.69218">
        <ele>17.9</ele>
        <time>2023-01-27T13:01:23Z</time>
      </trkpt>
      <trkpt lat="47.80761" lon="-3.69218">
        <ele>17.8</ele>
        <time>2023-01-27T13:01:24Z</time>
      </trkpt>
      <trkpt lat="47.80761" lon="-3.69218">
        <ele>17.8</ele>
        <time>2023-01-27T13:01:25Z</time>
      </trkpt>
      <trkpt lat="47.80761" lon="-3.69218">
        <ele>17.8</ele>
        <time>2023-01-27T13:01:26Z</time>
      </trkpt>
      <trkpt lat="47.80762" lon="-3.69219">
        <ele>17.8</ele>
        <time>2023-01-27T13:01:28Z</time>
      </trkpt>
      <trkpt lat="47.80762" lon="-3.6922">
        <ele>17.8</ele>
        <time>2023-01-27T13:01:30Z</time>
      </trkpt>
      <trkpt lat="47.80762" lon="-3.69221">
        <ele>17.8</ele>
        <time>2023-01-27T13:01:31Z</time>
      </trkpt>
      <trkpt lat="47.80763" lon="-3.69223">
        <ele>17.8</ele>
        <time>2023-01-27T13:01:32Z</time>
      </trkpt>
      <trkpt lat="47.80763" lon="-3.69226">
        <ele>17.7</ele>
        <time>2023-01-27T13:01:33Z</time>
      </trkpt>
      <trkpt lat="47.80763" lon="-3.69228">
        <ele>17.7</ele>
        <time>2023-01-27T13:01:34Z</time>
      </trkpt>
      <trkpt lat="47.80762" lon="-3.69233">
        <ele>17.7</ele>
        <time>2023-01-27T13:01:35Z</time>
      </trkpt>
      <trkpt lat="47.80762" lon="-3.69238">
        <ele>17.7</ele>
        <time>2023-01-27T13:01:36Z</time>
      </trkpt>
      <trkpt lat="47.80761" lon="-3.69244">
        <ele>17.8</ele>
        <time>2023-01-27T13:01:37Z</time>
      </trkpt>
      <trkpt lat="47.80761" lon="-3.69246">
        <ele>17.8</ele>
        <time>2023-01-27T13:01:38Z</time>
      </trkpt>
      <trkpt lat="47.80761" lon="-3.69247">
        <ele>17.9</ele>
        <time>2023-01-27T13:01:39Z</time>
      </trkpt>
      <trkpt lat="47.80761" lon="-3.6925">
        <ele>18</ele>
        <time>2023-01-27T13:01:40Z</time>
      </trkpt>
      <trkpt lat="47.80761" lon="-3.69253">
        <ele>18</ele>
        <time>2023-01-27T13:01:41Z</time>
      </trkpt>
      <trkpt lat="47.8076" lon="-3.69255">
        <ele>18.1</ele>
        <time>2023-01-27T13:01:42Z</time>
      </trkpt>
      <trkpt lat="47.8076" lon="-3.69259">
        <ele>18.2</ele>
        <time>2023-01-27T13:01:43Z</time>
      </trkpt>
      <trkpt lat="47.80757" lon="-3.69263">
        <ele>18.4</ele>
        <time>2023-01-27T13:01:44Z</time>
      </trkpt>
      <trkpt lat="47.80756" lon="-3.69264">
        <ele>18.4</ele>
        <time>2023-01-27T13:01:45Z</time>
      </trkpt>
      <trkpt lat="47.80754" lon="-3.69265">
        <ele>18.6</ele>
        <time>2023-01-27T13:01:46Z</time>
      </trkpt>
      <trkpt lat="47.8075" lon="-3.69267">
        <ele>18.8</ele>
        <time>2023-01-27T13:01:48Z</time>
      </trkpt>
      <trkpt lat="47.80749" lon="-3.69269">
        <ele>18.9</ele>
        <time>2023-01-27T13:01:49Z</time>
      </trkpt>
      <trkpt lat="47.80746" lon="-3.69272">
        <ele>19.1</ele>
        <time>2023-01-27T13:01:51Z</time>
      </trkpt>
      <trkpt lat="47.80745" lon="-3.69273">
        <ele>19.1</ele>
        <time>2023-01-27T13:01:53Z</time>
      </trkpt>
      <trkpt lat="47.80744" lon="-3.69274">
        <ele>19.2</ele>
        <time>2023-01-27T13:01:54Z</time>
      </trkpt>
      <trkpt lat="47.80742" lon="-3.69278">
        <ele>19.4</ele>
        <time>2023-01-27T13:01:55Z</time>
      </trkpt>
      <trkpt lat="47.80742" lon="-3.69284">
        <ele>19.6</ele>
        <time>2023-01-27T13:01:57Z</time>
      </trkpt>
      <trkpt lat="47.80742" lon="-3.69286">
        <ele>19.7</ele>
        <time>2023-01-27T13:01:58Z</time>
      </trkpt>
      <trkpt lat="47.8074" lon="-3.6929">
        <ele>19.9</ele>
        <time>2023-01-27T13:02:00Z</time>
      </trkpt>
      <trkpt lat="47.8074" lon="-3.69293">
        <ele>20</ele>
        <time>2023-01-27T13:02:01Z</time>
      </trkpt>
      <trkpt lat="47.80741" lon="-3.69295">
        <ele>20.1</ele>
        <time>2023-01-27T13:02:02Z</time>
      </trkpt>
      <trkpt lat="47.8074" lon="-3.693">
        <ele>20.4</ele>
        <time>2023-01-27T13:02:03Z</time>
      </trkpt>
      <trkpt lat="47.80739" lon="-3.69302">
        <ele>20.5</ele>
        <time>2023-01-27T13:02:04Z</time>
      </trkpt>
      <trkpt lat="47.80739" lon="-3.69307">
        <ele>20.7</ele>
        <time>2023-01-27T13:02:05Z</time>
      </trkpt>
      <trkpt lat="47.8074" lon="-3.69308">
        <ele>20.7</ele>
        <time>2023-01-27T13:02:06Z</time>
      </trkpt>
      <trkpt lat="47.80742" lon="-3.69311">
        <ele>20.9</ele>
        <time>2023-01-27T13:02:07Z</time>
      </trkpt>
      <trkpt lat="47.80743" lon="-3.69313">
        <ele>21</ele>
        <time>2023-01-27T13:02:08Z</time>
      </trkpt>
      <trkpt lat="47.80745" lon="-3.69315">
        <ele>21.2</ele>
        <time>2023-01-27T13:02:10Z</time>
      </trkpt>
      <trkpt lat="47.80746" lon="-3.69316">
        <ele>21.3</ele>
        <time>2023-01-27T13:02:11Z</time>
      </trkpt>
      <trkpt lat="47.80747" lon="-3.69318">
        <ele>21.4</ele>
        <time>2023-01-27T13:02:12Z</time>
      </trkpt>
      <trkpt lat="47.80747" lon="-3.69319">
        <ele>21.4</ele>
        <time>2023-01-27T13:02:13Z</time>
      </trkpt>
      <trkpt lat="47.80747" lon="-3.6932">
        <ele>21.5</ele>
        <time>2023-01-27T13:02:14Z</time>
      </trkpt>
      <trkpt lat="47.80748" lon="-3.69322">
        <ele>21.6</ele>
        <time>2023-01-27T13:02:15Z</time>
      </trkpt>
      <trkpt lat="47.80749" lon="-3.69324">
        <ele>21.7</ele>
        <time>2023-01-27T13:02:16Z</time>
      </trkpt>
      <trkpt lat="47.80749" lon="-3.69326">
        <ele>21.8</ele>
        <time>2023-01-27T13:02:17Z</time>
      </trkpt>
      <trkpt lat="47.8075" lon="-3.69327">
        <ele>21.9</ele>
        <time>2023-01-27T13:02:18Z</time>
      </trkpt>
      <trkpt lat="47.80751" lon="-3.6933">
        <ele>22</ele>
        <time>2023-01-27T13:02:19Z</time>
      </trkpt>
      <trkpt lat="47.80752" lon="-3.69334">
        <ele>22.2</ele>
        <time>2023-01-27T13:02:21Z</time>
      </trkpt>
      <trkpt lat="47.80752" lon="-3.69335">
        <ele>22.3</ele>
        <time>2023-01-27T13:02:22Z</time>
      </trkpt>
      <trkpt lat="47.80753" lon="-3.69344">
        <ele>22.7</ele>
        <time>2023-01-27T13:02:23Z</time>
      </trkpt>
      <trkpt lat="47.80754" lon="-3.69349">
        <ele>22.9</ele>
        <time>2023-01-27T13:02:25Z</time>
      </trkpt>
      <trkpt lat="47.80755" lon="-3.69353">
        <ele>23.1</ele>
        <time>2023-01-27T13:02:26Z</time>
      </trkpt>
      <trkpt lat="47.80756" lon="-3.69358">
        <ele>23.4</ele>
        <time>2023-01-27T13:02:27Z</time>
      </trkpt>
      <trkpt lat="47.80757" lon="-3.6936">
        <ele>23.4</ele>
        <time>2023-01-27T13:02:28Z</time>
      </trkpt>
      <trkpt lat="47.80757" lon="-3.69365">
        <ele>23.6</ele>
        <time>2023-01-27T13:02:29Z</time>
      </trkpt>
      <trkpt lat="47.80758" lon="-3.69367">
        <ele>23.7</ele>
        <time>2023-01-27T13:02:30Z</time>
      </trkpt>
      <trkpt lat="47.8076" lon="-3.69371">
        <ele>23.9</ele>
        <time>2023-01-27T13:02:31Z</time>
      </trkpt>
      <trkpt lat="47.80762" lon="-3.69375">
        <ele>24</ele>
        <time>2023-01-27T13:02:32Z</time>
      </trkpt>
      <trkpt lat="47.80763" lon="-3.69375">
        <ele>24.1</ele>
        <time>2023-01-27T13:02:33Z</time>
      </trkpt>
      <trkpt lat="47.80765" lon="-3.69377">
        <ele>24.2</ele>
        <time>2023-01-27T13:02:34Z</time>
      </trkpt>
      <trkpt lat="47.80768" lon="-3.69381">
        <ele>24.4</ele>
        <time>2023-01-27T13:02:35Z</time>
      </trkpt>
      <trkpt lat="47.80769" lon="-3.69382">
        <ele>24.4</ele>
        <time>2023-01-27T13:02:36Z</time>
      </trkpt>
      <trkpt lat="47.8077" lon="-3.69386">
        <ele>24.6</ele>
        <time>2023-01-27T13:02:37Z</time>
      </trkpt>
      <trkpt lat="47.80772" lon="-3.6939">
        <ele>24.7</ele>
        <time>2023-01-27T13:02:38Z</time>
      </trkpt>
      <trkpt lat="47.80773" lon="-3.69396">
        <ele>24.9</ele>
        <time>2023-01-27T13:02:39Z</time>
      </trkpt>
      <trkpt lat="47.80773" lon="-3.69398">
        <ele>25</ele>
        <time>2023-01-27T13:02:40Z</time>
      </trkpt>
      <trkpt lat="47.80773" lon="-3.69403">
        <ele>25.1</ele>
        <time>2023-01-27T13:02:41Z</time>
      </trkpt>
      <trkpt lat="47.80773" lon="-3.69405">
        <ele>25.2</ele>
        <time>2023-01-27T13:02:42Z</time>
      </trkpt>
      <trkpt lat="47.80773" lon="-3.69409">
        <ele>25.4</ele>
        <time>2023-01-27T13:02:43Z</time>
      </trkpt>
      <trkpt lat="47.80772" lon="-3.69415">
        <ele>25.6</ele>
        <time>2023-01-27T13:02:44Z</time>
      </trkpt>
      <trkpt lat="47.80772" lon="-3.69417">
        <ele>25.7</ele>
        <time>2023-01-27T13:02:45Z</time>
      </trkpt>
      <trkpt lat="47.80771" lon="-3.69421">
        <ele>25.9</ele>
        <time>2023-01-27T13:02:46Z</time>
      </trkpt>
      <trkpt lat="47.80771" lon="-3.69422">
        <ele>25.9</ele>
        <time>2023-01-27T13:02:47Z</time>
      </trkpt>
      <trkpt lat="47.80772" lon="-3.69428">
        <ele>26.2</ele>
        <time>2023-01-27T13:02:49Z</time>
      </trkpt>
      <trkpt lat="47.80773" lon="-3.69435">
        <ele>26.5</ele>
        <time>2023-01-27T13:02:50Z</time>
      </trkpt>
      <trkpt lat="47.80774" lon="-3.69438">
        <ele>26.6</ele>
        <time>2023-01-27T13:02:51Z</time>
      </trkpt>
      <trkpt lat="47.80776" lon="-3.69441">
        <ele>26.8</ele>
        <time>2023-01-27T13:02:52Z</time>
      </trkpt>
      <trkpt lat="47.80779" lon="-3.69445">
        <ele>27</ele>
        <time>2023-01-27T13:02:54Z</time>
      </trkpt>
      <trkpt lat="47.80779" lon="-3.69446">
        <ele>27.1</ele>
        <time>2023-01-27T13:02:55Z</time>
      </trkpt>
      <trkpt lat="47.80781" lon="-3.69451">
        <ele>27.3</ele>
        <time>2023-01-27T13:02:56Z</time>
      </trkpt>
      <trkpt lat="47.80781" lon="-3.69453">
        <ele>27.4</ele>
        <time>2023-01-27T13:02:57Z</time>
      </trkpt>
      <trkpt lat="47.80782" lon="-3.69458">
        <ele>27.6</ele>
        <time>2023-01-27T13:02:58Z</time>
      </trkpt>
      <trkpt lat="47.80783" lon="-3.6946">
        <ele>27.7</ele>
        <time>2023-01-27T13:02:59Z</time>
      </trkpt>
      <trkpt lat="47.80784" lon="-3.69465">
        <ele>28</ele>
        <time>2023-01-27T13:03:00Z</time>
      </trkpt>
      <trkpt lat="47.80785" lon="-3.69467">
        <ele>28.1</ele>
        <time>2023-01-27T13:03:01Z</time>
      </trkpt>
      <trkpt lat="47.80785" lon="-3.69474">
        <ele>28.4</ele>
        <time>2023-01-27T13:03:02Z</time>
      </trkpt>
      <trkpt lat="47.80786" lon="-3.69477">
        <ele>28.6</ele>
        <time>2023-01-27T13:03:03Z</time>
      </trkpt>
      <trkpt lat="47.80786" lon="-3.69481">
        <ele>28.8</ele>
        <time>2023-01-27T13:03:05Z</time>
      </trkpt>
      <trkpt lat="47.80784" lon="-3.69486">
        <ele>29.1</ele>
        <time>2023-01-27T13:03:06Z</time>
      </trkpt>
      <trkpt lat="47.80783" lon="-3.69488">
        <ele>29.2</ele>
        <time>2023-01-27T13:03:07Z</time>
      </trkpt>
      <trkpt lat="47.80783" lon="-3.69491">
        <ele>29.3</ele>
        <time>2023-01-27T13:03:08Z</time>
      </trkpt>
      <trkpt lat="47.80783" lon="-3.69493">
        <ele>29.4</ele>
        <time>2023-01-27T13:03:09Z</time>
      </trkpt>
      <trkpt lat="47.80782" lon="-3.69496">
        <ele>29.6</ele>
        <time>2023-01-27T13:03:10Z</time>
      </trkpt>
      <trkpt lat="47.8078" lon="-3.69502">
        <ele>29.9</ele>
        <time>2023-01-27T13:03:12Z</time>
      </trkpt>
      <trkpt lat="47.8078" lon="-3.69506">
        <ele>30.1</ele>
        <time>2023-01-27T13:03:14Z</time>
      </trkpt>
      <trkpt lat="47.80779" lon="-3.69507">
        <ele>30.2</ele>
        <time>2023-01-27T13:03:15Z</time>
      </trkpt>
      <trkpt lat="47.80779" lon="-3.69512">
        <ele>30.4</ele>
        <time>2023-01-27T13:03:16Z</time>
      </trkpt>
      <trkpt lat="47.80779" lon="-3.69514">
        <ele>30.4</ele>
        <time>2023-01-27T13:03:17Z</time>
      </trkpt>
      <trkpt lat="47.80777" lon="-3.69521">
        <ele>30.7</ele>
        <time>2023-01-27T13:03:18Z</time>
      </trkpt>
      <trkpt lat="47.80777" lon="-3.69525">
        <ele>30.9</ele>
        <time>2023-01-27T13:03:20Z</time>
      </trkpt>
      <trkpt lat="47.80776" lon="-3.69531">
        <ele>31.1</ele>
        <time>2023-01-27T13:03:21Z</time>
      </trkpt>
      <trkpt lat="47.80776" lon="-3.69533">
        <ele>31.2</ele>
        <time>2023-01-27T13:03:22Z</time>
      </trkpt>
      <trkpt lat="47.80776" lon="-3.69537">
        <ele>31.4</ele>
        <time>2023-01-27T13:03:24Z</time>
      </trkpt>
      <trkpt lat="47.80775" lon="-3.69543">
        <ele>31.6</ele>
        <time>2023-01-27T13:03:25Z</time>
      </trkpt>
      <trkpt lat="47.80774" lon="-3.69547">
        <ele>31.8</ele>
        <time>2023-01-27T13:03:26Z</time>
      </trkpt>
      <trkpt lat="47.80773" lon="-3.69553">
        <ele>32</ele>
        <time>2023-01-27T13:03:28Z</time>
      </trkpt>
      <trkpt lat="47.80773" lon="-3.69557">
        <ele>32.1</ele>
        <time>2023-01-27T13:03:29Z</time>
      </trkpt>
      <trkpt lat="47.80772" lon="-3.69561">
        <ele>32.3</ele>
        <time>2023-01-27T13:03:31Z</time>
      </trkpt>
      <trkpt lat="47.8077" lon="-3.69565">
        <ele>32.6</ele>
        <time>2023-01-27T13:03:32Z</time>
      </trkpt>
      <trkpt lat="47.80769" lon="-3.69568">
        <ele>32.7</ele>
        <time>2023-01-27T13:03:33Z</time>
      </trkpt>
      <trkpt lat="47.80768" lon="-3.69573">
        <ele>32.9</ele>
        <time>2023-01-27T13:03:34Z</time>
      </trkpt>
      <trkpt lat="47.80765" lon="-3.69579">
        <ele>33.3</ele>
        <time>2023-01-27T13:03:36Z</time>
      </trkpt>
      <trkpt lat="47.80764" lon="-3.69583">
        <ele>33.5</ele>
        <time>2023-01-27T13:03:38Z</time>
      </trkpt>
      <trkpt lat="47.80763" lon="-3.69586">
        <ele>33.7</ele>
        <time>2023-01-27T13:03:39Z</time>
      </trkpt>
      <trkpt lat="47.8076" lon="-3.6959">
        <ele>34</ele>
        <time>2023-01-27T13:03:40Z</time>
      </trkpt>
      <trkpt lat="47.8076" lon="-3.69591">
        <ele>34</ele>
        <time>2023-01-27T13:03:41Z</time>
      </trkpt>
      <trkpt lat="47.80758" lon="-3.69595">
        <ele>34.3</ele>
        <time>2023-01-27T13:03:42Z</time>
      </trkpt>
      <trkpt lat="47.80757" lon="-3.69596">
        <ele>34.4</ele>
        <time>2023-01-27T13:03:43Z</time>
      </trkpt>
      <trkpt lat="47.80754" lon="-3.696">
        <ele>34.7</ele>
        <time>2023-01-27T13:03:44Z</time>
      </trkpt>
      <trkpt lat="47.80754" lon="-3.69602">
        <ele>34.8</ele>
        <time>2023-01-27T13:03:45Z</time>
      </trkpt>
      <trkpt lat="47.80751" lon="-3.69605">
        <ele>35.1</ele>
        <time>2023-01-27T13:03:46Z</time>
      </trkpt>
      <trkpt lat="47.8075" lon="-3.69606">
        <ele>35.2</ele>
        <time>2023-01-27T13:03:47Z</time>
      </trkpt>
      <trkpt lat="47.80747" lon="-3.69609">
        <ele>35.5</ele>
        <time>2023-01-27T13:03:48Z</time>
      </trkpt>
      <trkpt lat="47.80745" lon="-3.69612">
        <ele>35.7</ele>
        <time>2023-01-27T13:03:50Z</time>
      </trkpt>
      <trkpt lat="47.80742" lon="-3.69615">
        <ele>36</ele>
        <time>2023-01-27T13:03:51Z</time>
      </trkpt>
      <trkpt lat="47.80737" lon="-3.6962">
        <ele>36.4</ele>
        <time>2023-01-27T13:03:53Z</time>
      </trkpt>
      <trkpt lat="47.80735" lon="-3.69621">
        <ele>36.6</ele>
        <time>2023-01-27T13:03:55Z</time>
      </trkpt>
      <trkpt lat="47.80734" lon="-3.69622">
        <ele>36.7</ele>
        <time>2023-01-27T13:03:56Z</time>
      </trkpt>
      <trkpt lat="47.80732" lon="-3.69623">
        <ele>36.8</ele>
        <time>2023-01-27T13:03:57Z</time>
      </trkpt>
      <trkpt lat="47.80728" lon="-3.69625">
        <ele>37.1</ele>
        <time>2023-01-27T13:03:58Z</time>
      </trkpt>
      <trkpt lat="47.80723" lon="-3.69629">
        <ele>37.5</ele>
        <time>2023-01-27T13:04:00Z</time>
      </trkpt>
      <trkpt lat="47.80721" lon="-3.6963">
        <ele>37.7</ele>
        <time>2023-01-27T13:04:01Z</time>
      </trkpt>
      <trkpt lat="47.80719" lon="-3.69632">
        <ele>37.8</ele>
        <time>2023-01-27T13:04:02Z</time>
      </trkpt>
      <trkpt lat="47.80716" lon="-3.69633">
        <ele>38</ele>
        <time>2023-01-27T13:04:04Z</time>
      </trkpt>
      <trkpt lat="47.80713" lon="-3.69634">
        <ele>38.3</ele>
        <time>2023-01-27T13:04:05Z</time>
      </trkpt>
      <trkpt lat="47.80712" lon="-3.69634">
        <ele>38.3</ele>
        <time>2023-01-27T13:04:06Z</time>
      </trkpt>
      <trkpt lat="47.80709" lon="-3.69636">
        <ele>38.5</ele>
        <time>2023-01-27T13:04:07Z</time>
      </trkpt>
      <trkpt lat="47.80706" lon="-3.69637">
        <ele>38.8</ele>
        <time>2023-01-27T13:04:08Z</time>
      </trkpt>
      <trkpt lat="47.80705" lon="-3.69637">
        <ele>38.8</ele>
        <time>2023-01-27T13:04:09Z</time>
      </trkpt>
      <trkpt lat="47.80702" lon="-3.69638">
        <ele>39.1</ele>
        <time>2023-01-27T13:04:10Z</time>
      </trkpt>
      <trkpt lat="47.80701" lon="-3.69639">
        <ele>39.2</ele>
        <time>2023-01-27T13:04:11Z</time>
      </trkpt>
      <trkpt lat="47.80698" lon="-3.6964">
        <ele>39.4</ele>
        <time>2023-01-27T13:04:12Z</time>
      </trkpt>
      <trkpt lat="47.80697" lon="-3.6964">
        <ele>39.4</ele>
        <time>2023-01-27T13:04:13Z</time>
      </trkpt>
      <trkpt lat="47.80694" lon="-3.69642">
        <ele>39.7</ele>
        <time>2023-01-27T13:04:14Z</time>
      </trkpt>
      <trkpt lat="47.80693" lon="-3.69643">
        <ele>39.8</ele>
        <time>2023-01-27T13:04:15Z</time>
      </trkpt>
      <trkpt lat="47.8069" lon="-3.69644">
        <ele>40</ele>
        <time>2023-01-27T13:04:16Z</time>
      </trkpt>
      <trkpt lat="47.80689" lon="-3.69644">
        <ele>40.1</ele>
        <time>2023-01-27T13:04:17Z</time>
      </trkpt>
      <trkpt lat="47.80686" lon="-3.69646">
        <ele>40.3</ele>
        <time>2023-01-27T13:04:18Z</time>
      </trkpt>
      <trkpt lat="47.80684" lon="-3.69648">
        <ele>40.5</ele>
        <time>2023-01-27T13:04:19Z</time>
      </trkpt>
      <trkpt lat="47.8068" lon="-3.69651">
        <ele>40.7</ele>
        <time>2023-01-27T13:04:20Z</time>
      </trkpt>
      <trkpt lat="47.80679" lon="-3.69651">
        <ele>40.7</ele>
        <time>2023-01-27T13:04:21Z</time>
      </trkpt>
      <trkpt lat="47.80676" lon="-3.69653">
        <ele>40.9</ele>
        <time>2023-01-27T13:04:22Z</time>
      </trkpt>
      <trkpt lat="47.80673" lon="-3.69655">
        <ele>41.1</ele>
        <time>2023-01-27T13:04:23Z</time>
      </trkpt>
      <trkpt lat="47.80671" lon="-3.69656">
        <ele>41.2</ele>
        <time>2023-01-27T13:04:24Z</time>
      </trkpt>
      <trkpt lat="47.80669" lon="-3.69658">
        <ele>41.3</ele>
        <time>2023-01-27T13:04:25Z</time>
      </trkpt>
      <trkpt lat="47.80664" lon="-3.69661">
        <ele>41.5</ele>
        <time>2023-01-27T13:04:26Z</time>
      </trkpt>
      <trkpt lat="47.80661" lon="-3.69663">
        <ele>41.6</ele>
        <time>2023-01-27T13:04:27Z</time>
      </trkpt>
      <trkpt lat="47.80659" lon="-3.69666">
        <ele>41.7</ele>
        <time>2023-01-27T13:04:29Z</time>
      </trkpt>
      <trkpt lat="47.80655" lon="-3.69669">
        <ele>41.8</ele>
        <time>2023-01-27T13:04:30Z</time>
      </trkpt>
      <trkpt lat="47.80652" lon="-3.69671">
        <ele>41.9</ele>
        <time>2023-01-27T13:04:31Z</time>
      </trkpt>
      <trkpt lat="47.8065" lon="-3.69675">
        <ele>42</ele>
        <time>2023-01-27T13:04:33Z</time>
      </trkpt>
      <trkpt lat="47.80648" lon="-3.69678">
        <ele>42.1</ele>
        <time>2023-01-27T13:04:34Z</time>
      </trkpt>
      <trkpt lat="47.80648" lon="-3.69684">
        <ele>42.2</ele>
        <time>2023-01-27T13:04:35Z</time>
      </trkpt>
      <trkpt lat="47.80649" lon="-3.6969">
        <ele>41.9</ele>
        <time>2023-01-27T13:04:36Z</time>
      </trkpt>
      <trkpt lat="47.80652" lon="-3.697">
        <ele>41.7</ele>
        <time>2023-01-27T13:04:37Z</time>
      </trkpt>
      <trkpt lat="47.80657" lon="-3.69705">
        <ele>41.5</ele>
        <time>2023-01-27T13:04:38Z</time>
      </trkpt>
      <trkpt lat="47.80662" lon="-3.69712">
        <ele>41.3</ele>
        <time>2023-01-27T13:04:39Z</time>
      </trkpt>
      <trkpt lat="47.80668" lon="-3.69721">
        <ele>40.9</ele>
        <time>2023-01-27T13:04:41Z</time>
      </trkpt>
      <trkpt lat="47.80671" lon="-3.69728">
        <ele>40.7</ele>
        <time>2023-01-27T13:04:42Z</time>
      </trkpt>
      <trkpt lat="47.80673" lon="-3.69734">
        <ele>40.5</ele>
        <time>2023-01-27T13:04:43Z</time>
      </trkpt>
      <trkpt lat="47.80676" lon="-3.69741">
        <ele>40.2</ele>
        <time>2023-01-27T13:04:44Z</time>
      </trkpt>
      <trkpt lat="47.80678" lon="-3.69749">
        <ele>39.9</ele>
        <time>2023-01-27T13:04:45Z</time>
      </trkpt>
      <trkpt lat="47.8068" lon="-3.69757">
        <ele>39.7</ele>
        <time>2023-01-27T13:04:46Z</time>
      </trkpt>
      <trkpt lat="47.80681" lon="-3.69766">
        <ele>39.4</ele>
        <time>2023-01-27T13:04:47Z</time>
      </trkpt>
      <trkpt lat="47.80682" lon="-3.69775">
        <ele>39.1</ele>
        <time>2023-01-27T13:04:48Z</time>
      </trkpt>
      <trkpt lat="47.80683" lon="-3.69783">
        <ele>38.8</ele>
        <time>2023-01-27T13:04:49Z</time>
      </trkpt>
      <trkpt lat="47.80684" lon="-3.69793">
        <ele>38.5</ele>
        <time>2023-01-27T13:04:50Z</time>
      </trkpt>
      <trkpt lat="47.80684" lon="-3.69803">
        <ele>38.1</ele>
        <time>2023-01-27T13:04:51Z</time>
      </trkpt>
      <trkpt lat="47.80684" lon="-3.69812">
        <ele>37.7</ele>
        <time>2023-01-27T13:04:52Z</time>
      </trkpt>
      <trkpt lat="47.80684" lon="-3.69822">
        <ele>37.3</ele>
        <time>2023-01-27T13:04:53Z</time>
      </trkpt>
      <trkpt lat="47.80685" lon="-3.69831">
        <ele>36.9</ele>
        <time>2023-01-27T13:04:54Z</time>
      </trkpt>
      <trkpt lat="47.80685" lon="-3.6984">
        <ele>36.6</ele>
        <time>2023-01-27T13:04:55Z</time>
      </trkpt>
      <trkpt lat="47.80686" lon="-3.69848">
        <ele>36.2</ele>
        <time>2023-01-27T13:04:56Z</time>
      </trkpt>
      <trkpt lat="47.80685" lon="-3.69855">
        <ele>35.9</ele>
        <time>2023-01-27T13:04:57Z</time>
      </trkpt>
      <trkpt lat="47.80683" lon="-3.6986">
        <ele>35.6</ele>
        <time>2023-01-27T13:04:58Z</time>
      </trkpt>
      <trkpt lat="47.8068" lon="-3.69862">
        <ele>35.4</ele>
        <time>2023-01-27T13:04:59Z</time>
      </trkpt>
      <trkpt lat="47.80673" lon="-3.69863">
        <ele>35.4</ele>
        <time>2023-01-27T13:05:00Z</time>
      </trkpt>
      <trkpt lat="47.8067" lon="-3.69863">
        <ele>35.5</ele>
        <time>2023-01-27T13:05:01Z</time>
      </trkpt>
      <trkpt lat="47.80666" lon="-3.69863">
        <ele>35.5</ele>
        <time>2023-01-27T13:05:02Z</time>
      </trkpt>
      <trkpt lat="47.80662" lon="-3.69862">
        <ele>35.6</ele>
        <time>2023-01-27T13:05:03Z</time>
      </trkpt>
      <trkpt lat="47.80657" lon="-3.69862">
        <ele>35.7</ele>
        <time>2023-01-27T13:05:04Z</time>
      </trkpt>
      <trkpt lat="47.80653" lon="-3.69858">
        <ele>35.9</ele>
        <time>2023-01-27T13:05:05Z</time>
      </trkpt>
      <trkpt lat="47.80648" lon="-3.69859">
        <ele>36.1</ele>
        <time>2023-01-27T13:05:06Z</time>
      </trkpt>
      <trkpt lat="47.80645" lon="-3.6986">
        <ele>36.2</ele>
        <time>2023-01-27T13:05:07Z</time>
      </trkpt>
      <trkpt lat="47.80638" lon="-3.69863">
        <ele>36.6</ele>
        <time>2023-01-27T13:05:09Z</time>
      </trkpt>
      <trkpt lat="47.80632" lon="-3.69864">
        <ele>37</ele>
        <time>2023-01-27T13:05:11Z</time>
      </trkpt>
      <trkpt lat="47.80628" lon="-3.69863">
        <ele>37.2</ele>
        <time>2023-01-27T13:05:12Z</time>
      </trkpt>
      <trkpt lat="47.80626" lon="-3.69863">
        <ele>37.4</ele>
        <time>2023-01-27T13:05:13Z</time>
      </trkpt>
      <trkpt lat="47.80623" lon="-3.69863">
        <ele>37.6</ele>
        <time>2023-01-27T13:05:15Z</time>
      </trkpt>
      <trkpt lat="47.80621" lon="-3.69863">
        <ele>37.8</ele>
        <time>2023-01-27T13:05:16Z</time>
      </trkpt>
      <trkpt lat="47.80615" lon="-3.69862">
        <ele>38.1</ele>
        <time>2023-01-27T13:05:17Z</time>
      </trkpt>
      <trkpt lat="47.80613" lon="-3.69861">
        <ele>38.3</ele>
        <time>2023-01-27T13:05:19Z</time>
      </trkpt>
      <trkpt lat="47.80609" lon="-3.69861">
        <ele>38.6</ele>
        <time>2023-01-27T13:05:20Z</time>
      </trkpt>
      <trkpt lat="47.80608" lon="-3.69861">
        <ele>38.6</ele>
        <time>2023-01-27T13:05:21Z</time>
      </trkpt>
      <trkpt lat="47.80603" lon="-3.69861">
        <ele>38.9</ele>
        <time>2023-01-27T13:05:22Z</time>
      </trkpt>
      <trkpt lat="47.80602" lon="-3.69861">
        <ele>38.9</ele>
        <time>2023-01-27T13:05:23Z</time>
      </trkpt>
      <trkpt lat="47.80599" lon="-3.69863">
        <ele>39.1</ele>
        <time>2023-01-27T13:05:24Z</time>
      </trkpt>
      <trkpt lat="47.80595" lon="-3.69864">
        <ele>39.3</ele>
        <time>2023-01-27T13:05:25Z</time>
      </trkpt>
      <trkpt lat="47.80592" lon="-3.69866">
        <ele>39.4</ele>
        <time>2023-01-27T13:05:26Z</time>
      </trkpt>
      <trkpt lat="47.80589" lon="-3.69867">
        <ele>39.5</ele>
        <time>2023-01-27T13:05:27Z</time>
      </trkpt>
      <trkpt lat="47.80586" lon="-3.69868">
        <ele>39.6</ele>
        <time>2023-01-27T13:05:28Z</time>
      </trkpt>
      <trkpt lat="47.80583" lon="-3.69869">
        <ele>39.7</ele>
        <time>2023-01-27T13:05:29Z</time>
      </trkpt>
      <trkpt lat="47.80579" lon="-3.69871">
        <ele>39.8</ele>
        <time>2023-01-27T13:05:30Z</time>
      </trkpt>
      <trkpt lat="47.80573" lon="-3.69876">
        <ele>40</ele>
        <time>2023-01-27T13:05:31Z</time>
      </trkpt>
      <trkpt lat="47.80571" lon="-3.6988">
        <ele>39.9</ele>
        <time>2023-01-27T13:05:33Z</time>
      </trkpt>
      <trkpt lat="47.80572" lon="-3.69885">
        <ele>39.9</ele>
        <time>2023-01-27T13:05:34Z</time>
      </trkpt>
      <trkpt lat="47.80573" lon="-3.6989">
        <ele>39.9</ele>
        <time>2023-01-27T13:05:35Z</time>
      </trkpt>
      <trkpt lat="47.80575" lon="-3.69895">
        <ele>39.9</ele>
        <time>2023-01-27T13:05:36Z</time>
      </trkpt>
      <trkpt lat="47.80576" lon="-3.699">
        <ele>39.8</ele>
        <time>2023-01-27T13:05:37Z</time>
      </trkpt>
      <trkpt lat="47.80577" lon="-3.69906">
        <ele>39.8</ele>
        <time>2023-01-27T13:05:38Z</time>
      </trkpt>
      <trkpt lat="47.80577" lon="-3.69912">
        <ele>39.7</ele>
        <time>2023-01-27T13:05:39Z</time>
      </trkpt>
      <trkpt lat="47.80576" lon="-3.6992">
        <ele>39.6</ele>
        <time>2023-01-27T13:05:40Z</time>
      </trkpt>
      <trkpt lat="47.80575" lon="-3.69928">
        <ele>39.5</ele>
        <time>2023-01-27T13:05:41Z</time>
      </trkpt>
      <trkpt lat="47.80575" lon="-3.69936">
        <ele>39.5</ele>
        <time>2023-01-27T13:05:42Z</time>
      </trkpt>
      <trkpt lat="47.80573" lon="-3.69943">
        <ele>39.4</ele>
        <time>2023-01-27T13:05:43Z</time>
      </trkpt>
      <trkpt lat="47.80572" lon="-3.69951">
        <ele>39.3</ele>
        <time>2023-01-27T13:05:44Z</time>
      </trkpt>
      <trkpt lat="47.8057" lon="-3.69959">
        <ele>39.2</ele>
        <time>2023-01-27T13:05:45Z</time>
      </trkpt>
      <trkpt lat="47.80568" lon="-3.69967">
        <ele>39.1</ele>
        <time>2023-01-27T13:05:46Z</time>
      </trkpt>
      <trkpt lat="47.80567" lon="-3.69976">
        <ele>39</ele>
        <time>2023-01-27T13:05:47Z</time>
      </trkpt>
      <trkpt lat="47.80567" lon="-3.69984">
        <ele>38.9</ele>
        <time>2023-01-27T13:05:48Z</time>
      </trkpt>
      <trkpt lat="47.80566" lon="-3.69993">
        <ele>38.9</ele>
        <time>2023-01-27T13:05:49Z</time>
      </trkpt>
      <trkpt lat="47.80566" lon="-3.70002">
        <ele>38.8</ele>
        <time>2023-01-27T13:05:50Z</time>
      </trkpt>
      <trkpt lat="47.80566" lon="-3.7001">
        <ele>38.8</ele>
        <time>2023-01-27T13:05:51Z</time>
      </trkpt>
      <trkpt lat="47.80568" lon="-3.70019">
        <ele>38.7</ele>
        <time>2023-01-27T13:05:52Z</time>
      </trkpt>
      <trkpt lat="47.80568" lon="-3.70027">
        <ele>38.6</ele>
        <time>2023-01-27T13:05:53Z</time>
      </trkpt>
      <trkpt lat="47.80567" lon="-3.70035">
        <ele>38.5</ele>
        <time>2023-01-27T13:05:54Z</time>
      </trkpt>
      <trkpt lat="47.80567" lon="-3.70043">
        <ele>38.3</ele>
        <time>2023-01-27T13:05:55Z</time>
      </trkpt>
      <trkpt lat="47.80566" lon="-3.70052">
        <ele>38.2</ele>
        <time>2023-01-27T13:05:56Z</time>
      </trkpt>
      <trkpt lat="47.80566" lon="-3.7006">
        <ele>38.1</ele>
        <time>2023-01-27T13:05:57Z</time>
      </trkpt>
      <trkpt lat="47.80566" lon="-3.70069">
        <ele>37.9</ele>
        <time>2023-01-27T13:05:58Z</time>
      </trkpt>
      <trkpt lat="47.80566" lon="-3.70078">
        <ele>37.8</ele>
        <time>2023-01-27T13:05:59Z</time>
      </trkpt>
      <trkpt lat="47.80564" lon="-3.70086">
        <ele>37.7</ele>
        <time>2023-01-27T13:06:00Z</time>
      </trkpt>
      <trkpt lat="47.80563" lon="-3.70095">
        <ele>37.5</ele>
        <time>2023-01-27T13:06:01Z</time>
      </trkpt>
      <trkpt lat="47.80563" lon="-3.70104">
        <ele>37.3</ele>
        <time>2023-01-27T13:06:02Z</time>
      </trkpt>
      <trkpt lat="47.80563" lon="-3.70114">
        <ele>37.2</ele>
        <time>2023-01-27T13:06:03Z</time>
      </trkpt>
      <trkpt lat="47.80562" lon="-3.70123">
        <ele>37</ele>
        <time>2023-01-27T13:06:04Z</time>
      </trkpt>
      <trkpt lat="47.80562" lon="-3.70133">
        <ele>36.8</ele>
        <time>2023-01-27T13:06:05Z</time>
      </trkpt>
      <trkpt lat="47.80562" lon="-3.70142">
        <ele>36.7</ele>
        <time>2023-01-27T13:06:06Z</time>
      </trkpt>
      <trkpt lat="47.80562" lon="-3.70151">
        <ele>36.5</ele>
        <time>2023-01-27T13:06:07Z</time>
      </trkpt>
      <trkpt lat="47.80561" lon="-3.7016">
        <ele>36.4</ele>
        <time>2023-01-27T13:06:08Z</time>
      </trkpt>
      <trkpt lat="47.80561" lon="-3.70169">
        <ele>36.3</ele>
        <time>2023-01-27T13:06:09Z</time>
      </trkpt>
      <trkpt lat="47.80559" lon="-3.70177">
        <ele>36.2</ele>
        <time>2023-01-27T13:06:10Z</time>
      </trkpt>
      <trkpt lat="47.80558" lon="-3.70186">
        <ele>36.1</ele>
        <time>2023-01-27T13:06:11Z</time>
      </trkpt>
      <trkpt lat="47.80557" lon="-3.70194">
        <ele>36.1</ele>
        <time>2023-01-27T13:06:12Z</time>
      </trkpt>
      <trkpt lat="47.80556" lon="-3.70203">
        <ele>36</ele>
        <time>2023-01-27T13:06:13Z</time>
      </trkpt>
      <trkpt lat="47.80554" lon="-3.7021">
        <ele>35.9</ele>
        <time>2023-01-27T13:06:14Z</time>
      </trkpt>
      <trkpt lat="47.80552" lon="-3.70218">
        <ele>35.9</ele>
        <time>2023-01-27T13:06:15Z</time>
      </trkpt>
      <trkpt lat="47.8055" lon="-3.70226">
        <ele>35.8</ele>
        <time>2023-01-27T13:06:16Z</time>
      </trkpt>
      <trkpt lat="47.80549" lon="-3.70234">
        <ele>35.7</ele>
        <time>2023-01-27T13:06:17Z</time>
      </trkpt>
      <trkpt lat="47.80549" lon="-3.70242">
        <ele>35.7</ele>
        <time>2023-01-27T13:06:18Z</time>
      </trkpt>
      <trkpt lat="47.80548" lon="-3.70251">
        <ele>35.6</ele>
        <time>2023-01-27T13:06:19Z</time>
      </trkpt>
      <trkpt lat="47.80546" lon="-3.70259">
        <ele>35.6</ele>
        <time>2023-01-27T13:06:20Z</time>
      </trkpt>
      <trkpt lat="47.80546" lon="-3.70268">
        <ele>35.5</ele>
        <time>2023-01-27T13:06:21Z</time>
      </trkpt>
      <trkpt lat="47.80544" lon="-3.70276">
        <ele>35.5</ele>
        <time>2023-01-27T13:06:22Z</time>
      </trkpt>
      <trkpt lat="47.80543" lon="-3.70284">
        <ele>35.5</ele>
        <time>2023-01-27T13:06:23Z</time>
      </trkpt>
      <trkpt lat="47.80543" lon="-3.70293">
        <ele>35.5</ele>
        <time>2023-01-27T13:06:24Z</time>
      </trkpt>
      <trkpt lat="47.80542" lon="-3.70302">
        <ele>35.4</ele>
        <time>2023-01-27T13:06:25Z</time>
      </trkpt>
      <trkpt lat="47.80541" lon="-3.7031">
        <ele>35.3</ele>
        <time>2023-01-27T13:06:26Z</time>
      </trkpt>
      <trkpt lat="47.80541" lon="-3.70317">
        <ele>35.4</ele>
        <time>2023-01-27T13:06:27Z</time>
      </trkpt>
      <trkpt lat="47.80539" lon="-3.70324">
        <ele>35.4</ele>
        <time>2023-01-27T13:06:28Z</time>
      </trkpt>
      <trkpt lat="47.80538" lon="-3.70331">
        <ele>35.5</ele>
        <time>2023-01-27T13:06:29Z</time>
      </trkpt>
      <trkpt lat="47.80536" lon="-3.70337">
        <ele>35.6</ele>
        <time>2023-01-27T13:06:30Z</time>
      </trkpt>
      <trkpt lat="47.80535" lon="-3.70344">
        <ele>35.6</ele>
        <time>2023-01-27T13:06:31Z</time>
      </trkpt>
      <trkpt lat="47.80533" lon="-3.70351">
        <ele>35.7</ele>
        <time>2023-01-27T13:06:32Z</time>
      </trkpt>
      <trkpt lat="47.80532" lon="-3.70357">
        <ele>35.7</ele>
        <time>2023-01-27T13:06:33Z</time>
      </trkpt>
      <trkpt lat="47.8053" lon="-3.70362">
        <ele>35.8</ele>
        <time>2023-01-27T13:06:34Z</time>
      </trkpt>
      <trkpt lat="47.80529" lon="-3.70367">
        <ele>35.8</ele>
        <time>2023-01-27T13:06:35Z</time>
      </trkpt>
      <trkpt lat="47.80527" lon="-3.70373">
        <ele>35.7</ele>
        <time>2023-01-27T13:06:36Z</time>
      </trkpt>
      <trkpt lat="47.80525" lon="-3.70379">
        <ele>35.7</ele>
        <time>2023-01-27T13:06:37Z</time>
      </trkpt>
      <trkpt lat="47.80524" lon="-3.70384">
        <ele>35.7</ele>
        <time>2023-01-27T13:06:38Z</time>
      </trkpt>
      <trkpt lat="47.80522" lon="-3.70391">
        <ele>35.7</ele>
        <time>2023-01-27T13:06:39Z</time>
      </trkpt>
      <trkpt lat="47.80521" lon="-3.70398">
        <ele>35.7</ele>
        <time>2023-01-27T13:06:40Z</time>
      </trkpt>
      <trkpt lat="47.80519" lon="-3.70404">
        <ele>35.7</ele>
        <time>2023-01-27T13:06:41Z</time>
      </trkpt>
      <trkpt lat="47.80518" lon="-3.70409">
        <ele>35.7</ele>
        <time>2023-01-27T13:06:42Z</time>
      </trkpt>
      <trkpt lat="47.80517" lon="-3.70417">
        <ele>35.7</ele>
        <time>2023-01-27T13:06:43Z</time>
      </trkpt>
      <trkpt lat="47.80515" lon="-3.70424">
        <ele>35.7</ele>
        <time>2023-01-27T13:06:44Z</time>
      </trkpt>
      <trkpt lat="47.80514" lon="-3.70431">
        <ele>35.7</ele>
        <time>2023-01-27T13:06:45Z</time>
      </trkpt>
      <trkpt lat="47.80513" lon="-3.70437">
        <ele>35.7</ele>
        <time>2023-01-27T13:06:46Z</time>
      </trkpt>
      <trkpt lat="47.80512" lon="-3.70446">
        <ele>35.7</ele>
        <time>2023-01-27T13:06:47Z</time>
      </trkpt>
      <trkpt lat="47.80511" lon="-3.70455">
        <ele>35.7</ele>
        <time>2023-01-27T13:06:48Z</time>
      </trkpt>
      <trkpt lat="47.80511" lon="-3.70462">
        <ele>35.7</ele>
        <time>2023-01-27T13:06:49Z</time>
      </trkpt>
      <trkpt lat="47.80512" lon="-3.70469">
        <ele>35.7</ele>
        <time>2023-01-27T13:06:50Z</time>
      </trkpt>
      <trkpt lat="47.80511" lon="-3.70473">
        <ele>35.7</ele>
        <time>2023-01-27T13:06:51Z</time>
      </trkpt>
      <trkpt lat="47.80511" lon="-3.70481">
        <ele>35.7</ele>
        <time>2023-01-27T13:06:52Z</time>
      </trkpt>
      <trkpt lat="47.80512" lon="-3.70488">
        <ele>35.6</ele>
        <time>2023-01-27T13:06:53Z</time>
      </trkpt>
      <trkpt lat="47.80511" lon="-3.70495">
        <ele>35.6</ele>
        <time>2023-01-27T13:06:54Z</time>
      </trkpt>
      <trkpt lat="47.80511" lon="-3.70502">
        <ele>35.6</ele>
        <time>2023-01-27T13:06:55Z</time>
      </trkpt>
      <trkpt lat="47.80513" lon="-3.70509">
        <ele>35.5</ele>
        <time>2023-01-27T13:06:56Z</time>
      </trkpt>
      <trkpt lat="47.80513" lon="-3.70517">
        <ele>35.5</ele>
        <time>2023-01-27T13:06:57Z</time>
      </trkpt>
      <trkpt lat="47.80514" lon="-3.70523">
        <ele>35.5</ele>
        <time>2023-01-27T13:06:58Z</time>
      </trkpt>
      <trkpt lat="47.80515" lon="-3.7053">
        <ele>35.5</ele>
        <time>2023-01-27T13:06:59Z</time>
      </trkpt>
      <trkpt lat="47.80515" lon="-3.70534">
        <ele>35.5</ele>
        <time>2023-01-27T13:07:00Z</time>
      </trkpt>
      <trkpt lat="47.80515" lon="-3.70542">
        <ele>35.5</ele>
        <time>2023-01-27T13:07:01Z</time>
      </trkpt>
      <trkpt lat="47.80516" lon="-3.70549">
        <ele>35.6</ele>
        <time>2023-01-27T13:07:02Z</time>
      </trkpt>
      <trkpt lat="47.80518" lon="-3.70555">
        <ele>35.6</ele>
        <time>2023-01-27T13:07:03Z</time>
      </trkpt>
      <trkpt lat="47.80519" lon="-3.70561">
        <ele>35.7</ele>
        <time>2023-01-27T13:07:04Z</time>
      </trkpt>
      <trkpt lat="47.80519" lon="-3.70565">
        <ele>35.7</ele>
        <time>2023-01-27T13:07:05Z</time>
      </trkpt>
      <trkpt lat="47.80521" lon="-3.70582">
        <ele>35.9</ele>
        <time>2023-01-27T13:07:07Z</time>
      </trkpt>
      <trkpt lat="47.8052" lon="-3.70589">
        <ele>36</ele>
        <time>2023-01-27T13:07:09Z</time>
      </trkpt>
      <trkpt lat="47.80521" lon="-3.70594">
        <ele>36.1</ele>
        <time>2023-01-27T13:07:10Z</time>
      </trkpt>
      <trkpt lat="47.80522" lon="-3.70603">
        <ele>36.2</ele>
        <time>2023-01-27T13:07:11Z</time>
      </trkpt>
      <trkpt lat="47.80521" lon="-3.70607">
        <ele>36.2</ele>
        <time>2023-01-27T13:07:12Z</time>
      </trkpt>
      <trkpt lat="47.8052" lon="-3.70613">
        <ele>36.3</ele>
        <time>2023-01-27T13:07:13Z</time>
      </trkpt>
      <trkpt lat="47.80521" lon="-3.70621">
        <ele>36.3</ele>
        <time>2023-01-27T13:07:15Z</time>
      </trkpt>
      <trkpt lat="47.8052" lon="-3.70634">
        <ele>36.4</ele>
        <time>2023-01-27T13:07:16Z</time>
      </trkpt>
      <trkpt lat="47.80522" lon="-3.70643">
        <ele>36.4</ele>
        <time>2023-01-27T13:07:18Z</time>
      </trkpt>
      <trkpt lat="47.80522" lon="-3.70649">
        <ele>36.4</ele>
        <time>2023-01-27T13:07:19Z</time>
      </trkpt>
      <trkpt lat="47.8052" lon="-3.70655">
        <ele>36.4</ele>
        <time>2023-01-27T13:07:20Z</time>
      </trkpt>
      <trkpt lat="47.80518" lon="-3.70661">
        <ele>36.4</ele>
        <time>2023-01-27T13:07:21Z</time>
      </trkpt>
      <trkpt lat="47.80517" lon="-3.70667">
        <ele>36.4</ele>
        <time>2023-01-27T13:07:22Z</time>
      </trkpt>
      <trkpt lat="47.80517" lon="-3.70673">
        <ele>36.4</ele>
        <time>2023-01-27T13:07:23Z</time>
      </trkpt>
      <trkpt lat="47.80516" lon="-3.70679">
        <ele>36.4</ele>
        <time>2023-01-27T13:07:24Z</time>
      </trkpt>
      <trkpt lat="47.80516" lon="-3.70686">
        <ele>36.4</ele>
        <time>2023-01-27T13:07:25Z</time>
      </trkpt>
      <trkpt lat="47.80516" lon="-3.70691">
        <ele>36.4</ele>
        <time>2023-01-27T13:07:26Z</time>
      </trkpt>
      <trkpt lat="47.80515" lon="-3.70696">
        <ele>36.4</ele>
        <time>2023-01-27T13:07:27Z</time>
      </trkpt>
      <trkpt lat="47.80514" lon="-3.70704">
        <ele>36.4</ele>
        <time>2023-01-27T13:07:28Z</time>
      </trkpt>
      <trkpt lat="47.80513" lon="-3.70712">
        <ele>36.4</ele>
        <time>2023-01-27T13:07:29Z</time>
      </trkpt>
      <trkpt lat="47.80512" lon="-3.70716">
        <ele>36.4</ele>
        <time>2023-01-27T13:07:30Z</time>
      </trkpt>
      <trkpt lat="47.80512" lon="-3.70725">
        <ele>36.3</ele>
        <time>2023-01-27T13:07:31Z</time>
      </trkpt>
      <trkpt lat="47.80512" lon="-3.7073">
        <ele>36.3</ele>
        <time>2023-01-27T13:07:32Z</time>
      </trkpt>
      <trkpt lat="47.80511" lon="-3.70737">
        <ele>36.3</ele>
        <time>2023-01-27T13:07:33Z</time>
      </trkpt>
      <trkpt lat="47.8051" lon="-3.70744">
        <ele>36.2</ele>
        <time>2023-01-27T13:07:34Z</time>
      </trkpt>
      <trkpt lat="47.80509" lon="-3.70751">
        <ele>36.1</ele>
        <time>2023-01-27T13:07:35Z</time>
      </trkpt>
      <trkpt lat="47.80508" lon="-3.70754">
        <ele>36</ele>
        <time>2023-01-27T13:07:36Z</time>
      </trkpt>
      <trkpt lat="47.80506" lon="-3.70767">
        <ele>35.8</ele>
        <time>2023-01-27T13:07:38Z</time>
      </trkpt>
      <trkpt lat="47.80505" lon="-3.70773">
        <ele>35.7</ele>
        <time>2023-01-27T13:07:39Z</time>
      </trkpt>
      <trkpt lat="47.80505" lon="-3.7078">
        <ele>35.6</ele>
        <time>2023-01-27T13:07:40Z</time>
      </trkpt>
      <trkpt lat="47.80503" lon="-3.70786">
        <ele>35.6</ele>
        <time>2023-01-27T13:07:41Z</time>
      </trkpt>
      <trkpt lat="47.80502" lon="-3.7079">
        <ele>35.5</ele>
        <time>2023-01-27T13:07:42Z</time>
      </trkpt>
      <trkpt lat="47.80502" lon="-3.70805">
        <ele>35.5</ele>
        <time>2023-01-27T13:07:44Z</time>
      </trkpt>
      <trkpt lat="47.80502" lon="-3.70813">
        <ele>35.5</ele>
        <time>2023-01-27T13:07:45Z</time>
      </trkpt>
      <trkpt lat="47.80501" lon="-3.7082">
        <ele>35.6</ele>
        <time>2023-01-27T13:07:46Z</time>
      </trkpt>
      <trkpt lat="47.80499" lon="-3.70826">
        <ele>35.7</ele>
        <time>2023-01-27T13:07:47Z</time>
      </trkpt>
      <trkpt lat="47.80498" lon="-3.70831">
        <ele>35.7</ele>
        <time>2023-01-27T13:07:48Z</time>
      </trkpt>
      <trkpt lat="47.80496" lon="-3.70837">
        <ele>35.8</ele>
        <time>2023-01-27T13:07:49Z</time>
      </trkpt>
      <trkpt lat="47.80494" lon="-3.70845">
        <ele>35.8</ele>
        <time>2023-01-27T13:07:50Z</time>
      </trkpt>
      <trkpt lat="47.80489" lon="-3.70854">
        <ele>35.8</ele>
        <time>2023-01-27T13:07:52Z</time>
      </trkpt>
      <trkpt lat="47.80486" lon="-3.70858">
        <ele>35.8</ele>
        <time>2023-01-27T13:07:53Z</time>
      </trkpt>
      <trkpt lat="47.80485" lon="-3.70866">
        <ele>35.7</ele>
        <time>2023-01-27T13:07:54Z</time>
      </trkpt>
      <trkpt lat="47.80484" lon="-3.70872">
        <ele>35.7</ele>
        <time>2023-01-27T13:07:55Z</time>
      </trkpt>
      <trkpt lat="47.80482" lon="-3.70883">
        <ele>35.6</ele>
        <time>2023-01-27T13:07:57Z</time>
      </trkpt>
      <trkpt lat="47.80481" lon="-3.70891">
        <ele>35.5</ele>
        <time>2023-01-27T13:07:58Z</time>
      </trkpt>
      <trkpt lat="47.8048" lon="-3.70899">
        <ele>35.4</ele>
        <time>2023-01-27T13:07:59Z</time>
      </trkpt>
      <trkpt lat="47.80479" lon="-3.70905">
        <ele>35.4</ele>
        <time>2023-01-27T13:08:00Z</time>
      </trkpt>
      <trkpt lat="47.80478" lon="-3.70914">
        <ele>35.3</ele>
        <time>2023-01-27T13:08:01Z</time>
      </trkpt>
      <trkpt lat="47.80478" lon="-3.70919">
        <ele>35.3</ele>
        <time>2023-01-27T13:08:02Z</time>
      </trkpt>
      <trkpt lat="47.80479" lon="-3.70926">
        <ele>35.2</ele>
        <time>2023-01-27T13:08:03Z</time>
      </trkpt>
      <trkpt lat="47.80476" lon="-3.7093">
        <ele>35.2</ele>
        <time>2023-01-27T13:08:05Z</time>
      </trkpt>
      <trkpt lat="47.80472" lon="-3.70931">
        <ele>34.9</ele>
        <time>2023-01-27T13:08:06Z</time>
      </trkpt>
      <trkpt lat="47.80464" lon="-3.70933">
        <ele>33.9</ele>
        <time>2023-01-27T13:08:07Z</time>
      </trkpt>
      <trkpt lat="47.80459" lon="-3.70933">
        <ele>33.3</ele>
        <time>2023-01-27T13:08:09Z</time>
      </trkpt>
      <trkpt lat="47.80456" lon="-3.70932">
        <ele>32.9</ele>
        <time>2023-01-27T13:08:10Z</time>
      </trkpt>
      <trkpt lat="47.80454" lon="-3.70931">
        <ele>32.6</ele>
        <time>2023-01-27T13:08:11Z</time>
      </trkpt>
      <trkpt lat="47.8045" lon="-3.7093">
        <ele>32.1</ele>
        <time>2023-01-27T13:08:12Z</time>
      </trkpt>
      <trkpt lat="47.80444" lon="-3.70929">
        <ele>31.4</ele>
        <time>2023-01-27T13:08:14Z</time>
      </trkpt>
      <trkpt lat="47.80436" lon="-3.70926">
        <ele>30.4</ele>
        <time>2023-01-27T13:08:15Z</time>
      </trkpt>
      <trkpt lat="47.80432" lon="-3.70924">
        <ele>29.8</ele>
        <time>2023-01-27T13:08:16Z</time>
      </trkpt>
      <trkpt lat="47.80429" lon="-3.70919">
        <ele>29.3</ele>
        <time>2023-01-27T13:08:17Z</time>
      </trkpt>
      <trkpt lat="47.80426" lon="-3.70919">
        <ele>29</ele>
        <time>2023-01-27T13:08:18Z</time>
      </trkpt>
      <trkpt lat="47.80418" lon="-3.70921">
        <ele>27.8</ele>
        <time>2023-01-27T13:08:20Z</time>
      </trkpt>
      <trkpt lat="47.80413" lon="-3.70921">
        <ele>27.3</ele>
        <time>2023-01-27T13:08:21Z</time>
      </trkpt>
      <trkpt lat="47.8041" lon="-3.70921">
        <ele>27.3</ele>
        <time>2023-01-27T13:08:23Z</time>
      </trkpt>
      <trkpt lat="47.80409" lon="-3.70922">
        <ele>27.3</ele>
        <time>2023-01-27T13:08:24Z</time>
      </trkpt>
      <trkpt lat="47.80408" lon="-3.70921">
        <ele>27.2</ele>
        <time>2023-01-27T13:08:25Z</time>
      </trkpt>
      <trkpt lat="47.80407" lon="-3.70921">
        <ele>27</ele>
        <time>2023-01-27T13:08:26Z</time>
      </trkpt>
      <trkpt lat="47.80406" lon="-3.7092">
        <ele>26.9</ele>
        <time>2023-01-27T13:08:27Z</time>
      </trkpt>
      <trkpt lat="47.80405" lon="-3.70921">
        <ele>26.7</ele>
        <time>2023-01-27T13:08:28Z</time>
      </trkpt>
      <trkpt lat="47.80403" lon="-3.70921">
        <ele>26.5</ele>
        <time>2023-01-27T13:08:29Z</time>
      </trkpt>
      <trkpt lat="47.80399" lon="-3.70919">
        <ele>25.9</ele>
        <time>2023-01-27T13:08:30Z</time>
      </trkpt>
      <trkpt lat="47.80398" lon="-3.70918">
        <ele>25.7</ele>
        <time>2023-01-27T13:08:31Z</time>
      </trkpt>
      <trkpt lat="47.80395" lon="-3.70916">
        <ele>25.2</ele>
        <time>2023-01-27T13:08:32Z</time>
      </trkpt>
      <trkpt lat="47.80392" lon="-3.70913">
        <ele>24.5</ele>
        <time>2023-01-27T13:08:33Z</time>
      </trkpt>
      <trkpt lat="47.80391" lon="-3.70912">
        <ele>24.2</ele>
        <time>2023-01-27T13:08:34Z</time>
      </trkpt>
      <trkpt lat="47.8039" lon="-3.7091">
        <ele>23.7</ele>
        <time>2023-01-27T13:08:35Z</time>
      </trkpt>
      <trkpt lat="47.80389" lon="-3.70909">
        <ele>23.4</ele>
        <time>2023-01-27T13:08:36Z</time>
      </trkpt>
      <trkpt lat="47.80388" lon="-3.70908">
        <ele>23.2</ele>
        <time>2023-01-27T13:08:37Z</time>
      </trkpt>
      <trkpt lat="47.80386" lon="-3.70908">
        <ele>22.7</ele>
        <time>2023-01-27T13:08:38Z</time>
      </trkpt>
      <trkpt lat="47.80386" lon="-3.70908">
        <ele>22.7</ele>
        <time>2023-01-27T13:08:39Z</time>
      </trkpt>
      <trkpt lat="47.80382" lon="-3.70909">
        <ele>22</ele>
        <time>2023-01-27T13:08:40Z</time>
      </trkpt>
      <trkpt lat="47.80379" lon="-3.70909">
        <ele>21.2</ele>
        <time>2023-01-27T13:08:41Z</time>
      </trkpt>
      <trkpt lat="47.80372" lon="-3.70913">
        <ele>19.7</ele>
        <time>2023-01-27T13:08:43Z</time>
      </trkpt>
      <trkpt lat="47.80368" lon="-3.70914">
        <ele>19</ele>
        <time>2023-01-27T13:08:44Z</time>
      </trkpt>
      <trkpt lat="47.80364" lon="-3.70913">
        <ele>18.4</ele>
        <time>2023-01-27T13:08:45Z</time>
      </trkpt>
      <trkpt lat="47.8036" lon="-3.70912">
        <ele>18</ele>
        <time>2023-01-27T13:08:47Z</time>
      </trkpt>
      <trkpt lat="47.80358" lon="-3.70912">
        <ele>17.7</ele>
        <time>2023-01-27T13:08:48Z</time>
      </trkpt>
      <trkpt lat="47.80358" lon="-3.70912">
        <ele>17.7</ele>
        <time>2023-01-27T13:08:49Z</time>
      </trkpt>
      <trkpt lat="47.80357" lon="-3.70912">
        <ele>17.7</ele>
        <time>2023-01-27T13:08:50Z</time>
      </trkpt>
      <trkpt lat="47.80356" lon="-3.70912">
        <ele>17.7</ele>
        <time>2023-01-27T13:08:51Z</time>
      </trkpt>
      <trkpt lat="47.80356" lon="-3.70912">
        <ele>17.7</ele>
        <time>2023-01-27T13:08:52Z</time>
      </trkpt>
      <trkpt lat="47.80356" lon="-3.70912">
        <ele>17.7</ele>
        <time>2023-01-27T13:08:54Z</time>
      </trkpt>
      <trkpt lat="47.80356" lon="-3.70913">
        <ele>17.7</ele>
        <time>2023-01-27T13:08:55Z</time>
      </trkpt>
      <trkpt lat="47.80355" lon="-3.70913">
        <ele>17.7</ele>
        <time>2023-01-27T13:08:56Z</time>
      </trkpt>
      <trkpt lat="47.80355" lon="-3.70913">
        <ele>17.7</ele>
        <time>2023-01-27T13:08:57Z</time>
      </trkpt>
      <trkpt lat="47.80355" lon="-3.70913">
        <ele>17.7</ele>
        <time>2023-01-27T13:08:58Z</time>
      </trkpt>
      <trkpt lat="47.80355" lon="-3.70913">
        <ele>17.7</ele>
        <time>2023-01-27T13:08:59Z</time>
      </trkpt>
      <trkpt lat="47.80355" lon="-3.70914">
        <ele>17.7</ele>
        <time>2023-01-27T13:09:01Z</time>
      </trkpt>
      <trkpt lat="47.80355" lon="-3.70913">
        <ele>17.6</ele>
        <time>2023-01-27T13:09:02Z</time>
      </trkpt>
      <trkpt lat="47.80355" lon="-3.70913">
        <ele>17.6</ele>
        <time>2023-01-27T13:09:03Z</time>
      </trkpt>
      <trkpt lat="47.80355" lon="-3.70913">
        <ele>17.6</ele>
        <time>2023-01-27T13:09:04Z</time>
      </trkpt>
      <trkpt lat="47.80355" lon="-3.70913">
        <ele>17.6</ele>
        <time>2023-01-27T13:09:05Z</time>
      </trkpt>
      <trkpt lat="47.80355" lon="-3.70912">
        <ele>17.6</ele>
        <time>2023-01-27T13:09:06Z</time>
      </trkpt>
      <trkpt lat="47.80355" lon="-3.70912">
        <ele>17.6</ele>
        <time>2023-01-27T13:09:07Z</time>
      </trkpt>
      <trkpt lat="47.80355" lon="-3.70912">
        <ele>17.6</ele>
        <time>2023-01-27T13:09:08Z</time>
      </trkpt>
      <trkpt lat="47.80354" lon="-3.70912">
        <ele>17.6</ele>
        <time>2023-01-27T13:09:09Z</time>
      </trkpt>
      <trkpt lat="47.80354" lon="-3.70912">
        <ele>17.6</ele>
        <time>2023-01-27T13:09:10Z</time>
      </trkpt>
      <trkpt lat="47.80354" lon="-3.70912">
        <ele>17.6</ele>
        <time>2023-01-27T13:09:11Z</time>
      </trkpt>
      <trkpt lat="47.80354" lon="-3.70911">
        <ele>17.6</ele>
        <time>2023-01-27T13:09:13Z</time>
      </trkpt>
      <trkpt lat="47.80353" lon="-3.7091">
        <ele>17.6</ele>
        <time>2023-01-27T13:09:22Z</time>
      </trkpt>
      <trkpt lat="47.80353" lon="-3.70911">
        <ele>17.6</ele>
        <time>2023-01-27T13:09:23Z</time>
      </trkpt>
      <trkpt lat="47.80352" lon="-3.70911">
        <ele>17.6</ele>
        <time>2023-01-27T13:09:24Z</time>
      </trkpt>
      <trkpt lat="47.80351" lon="-3.70912">
        <ele>17.6</ele>
        <time>2023-01-27T13:09:25Z</time>
      </trkpt>
      <trkpt lat="47.80351" lon="-3.70913">
        <ele>17.6</ele>
        <time>2023-01-27T13:09:26Z</time>
      </trkpt>
      <trkpt lat="47.80348" lon="-3.70916">
        <ele>17.5</ele>
        <time>2023-01-27T13:09:27Z</time>
      </trkpt>
      <trkpt lat="47.80346" lon="-3.70918">
        <ele>17.5</ele>
        <time>2023-01-27T13:09:28Z</time>
      </trkpt>
      <trkpt lat="47.80341" lon="-3.70927">
        <ele>17.3</ele>
        <time>2023-01-27T13:09:30Z</time>
      </trkpt>
      <trkpt lat="47.80339" lon="-3.70932">
        <ele>17.3</ele>
        <time>2023-01-27T13:09:31Z</time>
      </trkpt>
      <trkpt lat="47.80338" lon="-3.70935">
        <ele>17.3</ele>
        <time>2023-01-27T13:09:32Z</time>
      </trkpt>
      <trkpt lat="47.80336" lon="-3.70939">
        <ele>17.2</ele>
        <time>2023-01-27T13:09:33Z</time>
      </trkpt>
      <trkpt lat="47.80336" lon="-3.70941">
        <ele>17.2</ele>
        <time>2023-01-27T13:09:34Z</time>
      </trkpt>
      <trkpt lat="47.80335" lon="-3.70944">
        <ele>17.2</ele>
        <time>2023-01-27T13:09:35Z</time>
      </trkpt>
      <trkpt lat="47.80334" lon="-3.70948">
        <ele>17.2</ele>
        <time>2023-01-27T13:09:37Z</time>
      </trkpt>
      <trkpt lat="47.80332" lon="-3.70954">
        <ele>17.2</ele>
        <time>2023-01-27T13:09:38Z</time>
      </trkpt>
      <trkpt lat="47.80331" lon="-3.70956">
        <ele>17.3</ele>
        <time>2023-01-27T13:09:39Z</time>
      </trkpt>
      <trkpt lat="47.80328" lon="-3.70963">
        <ele>17.3</ele>
        <time>2023-01-27T13:09:40Z</time>
      </trkpt>
      <trkpt lat="47.80326" lon="-3.70968">
        <ele>17.4</ele>
        <time>2023-01-27T13:09:42Z</time>
      </trkpt>
      <trkpt lat="47.80323" lon="-3.70977">
        <ele>17.6</ele>
        <time>2023-01-27T13:09:43Z</time>
      </trkpt>
      <trkpt lat="47.8032" lon="-3.70986">
        <ele>17.8</ele>
        <time>2023-01-27T13:09:45Z</time>
      </trkpt>
      <trkpt lat="47.80316" lon="-3.70992">
        <ele>18</ele>
        <time>2023-01-27T13:09:47Z</time>
      </trkpt>
      <trkpt lat="47.80315" lon="-3.70995">
        <ele>18.1</ele>
        <time>2023-01-27T13:09:48Z</time>
      </trkpt>
      <trkpt lat="47.80315" lon="-3.70996">
        <ele>18.2</ele>
        <time>2023-01-27T13:09:49Z</time>
      </trkpt>
      <trkpt lat="47.80313" lon="-3.70999">
        <ele>18.3</ele>
        <time>2023-01-27T13:09:50Z</time>
      </trkpt>
      <trkpt lat="47.80311" lon="-3.71004">
        <ele>18.6</ele>
        <time>2023-01-27T13:09:52Z</time>
      </trkpt>
      <trkpt lat="47.8031" lon="-3.71006">
        <ele>18.7</ele>
        <time>2023-01-27T13:09:53Z</time>
      </trkpt>
      <trkpt lat="47.80309" lon="-3.71007">
        <ele>18.8</ele>
        <time>2023-01-27T13:09:54Z</time>
      </trkpt>
      <trkpt lat="47.80308" lon="-3.71011">
        <ele>19</ele>
        <time>2023-01-27T13:09:55Z</time>
      </trkpt>
      <trkpt lat="47.80307" lon="-3.71016">
        <ele>19.3</ele>
        <time>2023-01-27T13:09:56Z</time>
      </trkpt>
      <trkpt lat="47.80307" lon="-3.71018">
        <ele>19.4</ele>
        <time>2023-01-27T13:09:57Z</time>
      </trkpt>
      <trkpt lat="47.80306" lon="-3.71021">
        <ele>19.5</ele>
        <time>2023-01-27T13:09:58Z</time>
      </trkpt>
      <trkpt lat="47.80307" lon="-3.71023">
        <ele>19.7</ele>
        <time>2023-01-27T13:09:59Z</time>
      </trkpt>
      <trkpt lat="47.80307" lon="-3.71027">
        <ele>19.9</ele>
        <time>2023-01-27T13:10:00Z</time>
      </trkpt>
      <trkpt lat="47.80306" lon="-3.71028">
        <ele>20</ele>
        <time>2023-01-27T13:10:01Z</time>
      </trkpt>
      <trkpt lat="47.80305" lon="-3.71032">
        <ele>20.2</ele>
        <time>2023-01-27T13:10:02Z</time>
      </trkpt>
      <trkpt lat="47.80304" lon="-3.71033">
        <ele>20.3</ele>
        <time>2023-01-27T13:10:03Z</time>
      </trkpt>
      <trkpt lat="47.80302" lon="-3.71038">
        <ele>20.6</ele>
        <time>2023-01-27T13:10:04Z</time>
      </trkpt>
      <trkpt lat="47.80302" lon="-3.71039">
        <ele>20.6</ele>
        <time>2023-01-27T13:10:05Z</time>
      </trkpt>
      <trkpt lat="47.803" lon="-3.71043">
        <ele>20.9</ele>
        <time>2023-01-27T13:10:06Z</time>
      </trkpt>
      <trkpt lat="47.80299" lon="-3.71044">
        <ele>21</ele>
        <time>2023-01-27T13:10:07Z</time>
      </trkpt>
      <trkpt lat="47.80297" lon="-3.71047">
        <ele>21.2</ele>
        <time>2023-01-27T13:10:08Z</time>
      </trkpt>
      <trkpt lat="47.80294" lon="-3.71053">
        <ele>21.6</ele>
        <time>2023-01-27T13:10:10Z</time>
      </trkpt>
      <trkpt lat="47.80293" lon="-3.71055">
        <ele>21.6</ele>
        <time>2023-01-27T13:10:11Z</time>
      </trkpt>
      <trkpt lat="47.80292" lon="-3.71057">
        <ele>21.8</ele>
        <time>2023-01-27T13:10:12Z</time>
      </trkpt>
      <trkpt lat="47.80291" lon="-3.7106">
        <ele>22</ele>
        <time>2023-01-27T13:10:13Z</time>
      </trkpt>
      <trkpt lat="47.8029" lon="-3.71061">
        <ele>22.1</ele>
        <time>2023-01-27T13:10:14Z</time>
      </trkpt>
      <trkpt lat="47.80288" lon="-3.71066">
        <ele>22.5</ele>
        <time>2023-01-27T13:10:15Z</time>
      </trkpt>
      <trkpt lat="47.80286" lon="-3.7107">
        <ele>22.8</ele>
        <time>2023-01-27T13:10:17Z</time>
      </trkpt>
      <trkpt lat="47.80285" lon="-3.71071">
        <ele>22.9</ele>
        <time>2023-01-27T13:10:18Z</time>
      </trkpt>
      <trkpt lat="47.80283" lon="-3.71072">
        <ele>23.1</ele>
        <time>2023-01-27T13:10:19Z</time>
      </trkpt>
      <trkpt lat="47.80281" lon="-3.71075">
        <ele>23.3</ele>
        <time>2023-01-27T13:10:20Z</time>
      </trkpt>
      <trkpt lat="47.80278" lon="-3.71079">
        <ele>23.7</ele>
        <time>2023-01-27T13:10:22Z</time>
      </trkpt>
      <trkpt lat="47.80277" lon="-3.71081">
        <ele>23.9</ele>
        <time>2023-01-27T13:10:24Z</time>
      </trkpt>
      <trkpt lat="47.80275" lon="-3.71083">
        <ele>24.2</ele>
        <time>2023-01-27T13:10:25Z</time>
      </trkpt>
      <trkpt lat="47.80273" lon="-3.71084">
        <ele>24.4</ele>
        <time>2023-01-27T13:10:26Z</time>
      </trkpt>
      <trkpt lat="47.80271" lon="-3.71085">
        <ele>24.5</ele>
        <time>2023-01-27T13:10:27Z</time>
      </trkpt>
      <trkpt lat="47.80268" lon="-3.71087">
        <ele>24.9</ele>
        <time>2023-01-27T13:10:28Z</time>
      </trkpt>
      <trkpt lat="47.80267" lon="-3.71089">
        <ele>25</ele>
        <time>2023-01-27T13:10:29Z</time>
      </trkpt>
      <trkpt lat="47.80265" lon="-3.71092">
        <ele>25.3</ele>
        <time>2023-01-27T13:10:30Z</time>
      </trkpt>
      <trkpt lat="47.80264" lon="-3.71092">
        <ele>25.4</ele>
        <time>2023-01-27T13:10:31Z</time>
      </trkpt>
      <trkpt lat="47.80261" lon="-3.71094">
        <ele>25.7</ele>
        <time>2023-01-27T13:10:32Z</time>
      </trkpt>
      <trkpt lat="47.8026" lon="-3.71096">
        <ele>25.8</ele>
        <time>2023-01-27T13:10:33Z</time>
      </trkpt>
      <trkpt lat="47.80257" lon="-3.71098">
        <ele>26.1</ele>
        <time>2023-01-27T13:10:34Z</time>
      </trkpt>
      <trkpt lat="47.80256" lon="-3.71098">
        <ele>26.2</ele>
        <time>2023-01-27T13:10:35Z</time>
      </trkpt>
      <trkpt lat="47.80255" lon="-3.711">
        <ele>26.3</ele>
        <time>2023-01-27T13:10:36Z</time>
      </trkpt>
      <trkpt lat="47.80253" lon="-3.71102">
        <ele>26.4</ele>
        <time>2023-01-27T13:10:37Z</time>
      </trkpt>
      <trkpt lat="47.80251" lon="-3.71105">
        <ele>26.7</ele>
        <time>2023-01-27T13:10:38Z</time>
      </trkpt>
      <trkpt lat="47.8025" lon="-3.71106">
        <ele>26.8</ele>
        <time>2023-01-27T13:10:39Z</time>
      </trkpt>
      <trkpt lat="47.80247" lon="-3.71109">
        <ele>27</ele>
        <time>2023-01-27T13:10:40Z</time>
      </trkpt>
      <trkpt lat="47.80246" lon="-3.7111">
        <ele>27.1</ele>
        <time>2023-01-27T13:10:41Z</time>
      </trkpt>
      <trkpt lat="47.80245" lon="-3.71113">
        <ele>27.3</ele>
        <time>2023-01-27T13:10:42Z</time>
      </trkpt>
      <trkpt lat="47.80244" lon="-3.71115">
        <ele>27.3</ele>
        <time>2023-01-27T13:10:43Z</time>
      </trkpt>
      <trkpt lat="47.80243" lon="-3.71117">
        <ele>27.5</ele>
        <time>2023-01-27T13:10:44Z</time>
      </trkpt>
      <trkpt lat="47.80242" lon="-3.7112">
        <ele>27.6</ele>
        <time>2023-01-27T13:10:46Z</time>
      </trkpt>
      <trkpt lat="47.80241" lon="-3.71127">
        <ele>27.9</ele>
        <time>2023-01-27T13:10:47Z</time>
      </trkpt>
      <trkpt lat="47.80239" lon="-3.71132">
        <ele>28.1</ele>
        <time>2023-01-27T13:10:48Z</time>
      </trkpt>
      <trkpt lat="47.80237" lon="-3.71137">
        <ele>28.3</ele>
        <time>2023-01-27T13:10:50Z</time>
      </trkpt>
      <trkpt lat="47.80235" lon="-3.71141">
        <ele>28.5</ele>
        <time>2023-01-27T13:10:51Z</time>
      </trkpt>
      <trkpt lat="47.80234" lon="-3.71143">
        <ele>28.5</ele>
        <time>2023-01-27T13:10:52Z</time>
      </trkpt>
      <trkpt lat="47.80231" lon="-3.71147">
        <ele>28.7</ele>
        <time>2023-01-27T13:10:53Z</time>
      </trkpt>
      <trkpt lat="47.80228" lon="-3.71148">
        <ele>28.8</ele>
        <time>2023-01-27T13:10:55Z</time>
      </trkpt>
      <trkpt lat="47.80225" lon="-3.71146">
        <ele>28.9</ele>
        <time>2023-01-27T13:10:56Z</time>
      </trkpt>
      <trkpt lat="47.80219" lon="-3.71142">
        <ele>29.3</ele>
        <time>2023-01-27T13:10:57Z</time>
      </trkpt>
      <trkpt lat="47.80216" lon="-3.71139">
        <ele>29.5</ele>
        <time>2023-01-27T13:10:58Z</time>
      </trkpt>
      <trkpt lat="47.80214" lon="-3.71137">
        <ele>29.6</ele>
        <time>2023-01-27T13:10:59Z</time>
      </trkpt>
      <trkpt lat="47.80212" lon="-3.71134">
        <ele>29.8</ele>
        <time>2023-01-27T13:11:01Z</time>
      </trkpt>
      <trkpt lat="47.8021" lon="-3.71131">
        <ele>30</ele>
        <time>2023-01-27T13:11:02Z</time>
      </trkpt>
      <trkpt lat="47.80207" lon="-3.71128">
        <ele>30.1</ele>
        <time>2023-01-27T13:11:03Z</time>
      </trkpt>
      <trkpt lat="47.80204" lon="-3.71124">
        <ele>30.4</ele>
        <time>2023-01-27T13:11:04Z</time>
      </trkpt>
      <trkpt lat="47.80201" lon="-3.71122">
        <ele>30.6</ele>
        <time>2023-01-27T13:11:05Z</time>
      </trkpt>
      <trkpt lat="47.80199" lon="-3.71119">
        <ele>30.8</ele>
        <time>2023-01-27T13:11:06Z</time>
      </trkpt>
      <trkpt lat="47.80197" lon="-3.71116">
        <ele>31</ele>
        <time>2023-01-27T13:11:08Z</time>
      </trkpt>
      <trkpt lat="47.80193" lon="-3.71113">
        <ele>31.3</ele>
        <time>2023-01-27T13:11:09Z</time>
      </trkpt>
      <trkpt lat="47.80192" lon="-3.71111">
        <ele>31.4</ele>
        <time>2023-01-27T13:11:10Z</time>
      </trkpt>
      <trkpt lat="47.80188" lon="-3.71108">
        <ele>31.6</ele>
        <time>2023-01-27T13:11:11Z</time>
      </trkpt>
      <trkpt lat="47.80187" lon="-3.71107">
        <ele>31.7</ele>
        <time>2023-01-27T13:11:12Z</time>
      </trkpt>
      <trkpt lat="47.80183" lon="-3.71102">
        <ele>32</ele>
        <time>2023-01-27T13:11:13Z</time>
      </trkpt>
      <trkpt lat="47.80181" lon="-3.71098">
        <ele>32.2</ele>
        <time>2023-01-27T13:11:15Z</time>
      </trkpt>
      <trkpt lat="47.8018" lon="-3.71094">
        <ele>32.4</ele>
        <time>2023-01-27T13:11:16Z</time>
      </trkpt>
      <trkpt lat="47.8018" lon="-3.71089">
        <ele>32.5</ele>
        <time>2023-01-27T13:11:17Z</time>
      </trkpt>
      <trkpt lat="47.80181" lon="-3.7108">
        <ele>32.9</ele>
        <time>2023-01-27T13:11:18Z</time>
      </trkpt>
      <trkpt lat="47.80182" lon="-3.71074">
        <ele>33.1</ele>
        <time>2023-01-27T13:11:20Z</time>
      </trkpt>
      <trkpt lat="47.80183" lon="-3.7107">
        <ele>33.2</ele>
        <time>2023-01-27T13:11:21Z</time>
      </trkpt>
      <trkpt lat="47.80184" lon="-3.71066">
        <ele>33.4</ele>
        <time>2023-01-27T13:11:22Z</time>
      </trkpt>
      <trkpt lat="47.80184" lon="-3.71061">
        <ele>33.5</ele>
        <time>2023-01-27T13:11:23Z</time>
      </trkpt>
      <trkpt lat="47.80184" lon="-3.71056">
        <ele>33.7</ele>
        <time>2023-01-27T13:11:24Z</time>
      </trkpt>
      <trkpt lat="47.80184" lon="-3.71054">
        <ele>33.8</ele>
        <time>2023-01-27T13:11:25Z</time>
      </trkpt>
      <trkpt lat="47.80185" lon="-3.71044">
        <ele>34.1</ele>
        <time>2023-01-27T13:11:26Z</time>
      </trkpt>
      <trkpt lat="47.80186" lon="-3.71037">
        <ele>34.4</ele>
        <time>2023-01-27T13:11:28Z</time>
      </trkpt>
      <trkpt lat="47.80186" lon="-3.71034">
        <ele>34.4</ele>
        <time>2023-01-27T13:11:29Z</time>
      </trkpt>
      <trkpt lat="47.80186" lon="-3.71031">
        <ele>34.5</ele>
        <time>2023-01-27T13:11:30Z</time>
      </trkpt>
      <trkpt lat="47.80187" lon="-3.71023">
        <ele>34.7</ele>
        <time>2023-01-27T13:11:31Z</time>
      </trkpt>
      <trkpt lat="47.80189" lon="-3.71018">
        <ele>34.8</ele>
        <time>2023-01-27T13:11:33Z</time>
      </trkpt>
      <trkpt lat="47.8019" lon="-3.71014">
        <ele>34.9</ele>
        <time>2023-01-27T13:11:34Z</time>
      </trkpt>
      <trkpt lat="47.80191" lon="-3.71006">
        <ele>34.9</ele>
        <time>2023-01-27T13:11:35Z</time>
      </trkpt>
      <trkpt lat="47.80192" lon="-3.71003">
        <ele>34.9</ele>
        <time>2023-01-27T13:11:36Z</time>
      </trkpt>
      <trkpt lat="47.80192" lon="-3.70998">
        <ele>34.9</ele>
        <time>2023-01-27T13:11:38Z</time>
      </trkpt>
      <trkpt lat="47.80192" lon="-3.70993">
        <ele>34.9</ele>
        <time>2023-01-27T13:11:39Z</time>
      </trkpt>
      <trkpt lat="47.80193" lon="-3.70987">
        <ele>34.9</ele>
        <time>2023-01-27T13:11:40Z</time>
      </trkpt>
      <trkpt lat="47.80193" lon="-3.70982">
        <ele>34.9</ele>
        <time>2023-01-27T13:11:41Z</time>
      </trkpt>
      <trkpt lat="47.80193" lon="-3.70977">
        <ele>34.9</ele>
        <time>2023-01-27T13:11:42Z</time>
      </trkpt>
      <trkpt lat="47.80193" lon="-3.70973">
        <ele>35</ele>
        <time>2023-01-27T13:11:43Z</time>
      </trkpt>
      <trkpt lat="47.80193" lon="-3.70964">
        <ele>35</ele>
        <time>2023-01-27T13:11:44Z</time>
      </trkpt>
      <trkpt lat="47.80193" lon="-3.70957">
        <ele>35</ele>
        <time>2023-01-27T13:11:46Z</time>
      </trkpt>
      <trkpt lat="47.80193" lon="-3.70952">
        <ele>35</ele>
        <time>2023-01-27T13:11:47Z</time>
      </trkpt>
      <trkpt lat="47.80194" lon="-3.70948">
        <ele>35</ele>
        <time>2023-01-27T13:11:48Z</time>
      </trkpt>
      <trkpt lat="47.80194" lon="-3.70943">
        <ele>35</ele>
        <time>2023-01-27T13:11:49Z</time>
      </trkpt>
      <trkpt lat="47.80193" lon="-3.70938">
        <ele>35</ele>
        <time>2023-01-27T13:11:50Z</time>
      </trkpt>
      <trkpt lat="47.80192" lon="-3.70932">
        <ele>35</ele>
        <time>2023-01-27T13:11:51Z</time>
      </trkpt>
      <trkpt lat="47.80192" lon="-3.70928">
        <ele>35</ele>
        <time>2023-01-27T13:11:52Z</time>
      </trkpt>
      <trkpt lat="47.80194" lon="-3.7092">
        <ele>34.9</ele>
        <time>2023-01-27T13:11:53Z</time>
      </trkpt>
      <trkpt lat="47.80195" lon="-3.70914">
        <ele>34.9</ele>
        <time>2023-01-27T13:11:54Z</time>
      </trkpt>
      <trkpt lat="47.80196" lon="-3.70908">
        <ele>34.9</ele>
        <time>2023-01-27T13:11:55Z</time>
      </trkpt>
      <trkpt lat="47.80196" lon="-3.70903">
        <ele>34.9</ele>
        <time>2023-01-27T13:11:56Z</time>
      </trkpt>
      <trkpt lat="47.80197" lon="-3.70898">
        <ele>34.8</ele>
        <time>2023-01-27T13:11:57Z</time>
      </trkpt>
      <trkpt lat="47.80199" lon="-3.7089">
        <ele>34.8</ele>
        <time>2023-01-27T13:11:58Z</time>
      </trkpt>
      <trkpt lat="47.802" lon="-3.70884">
        <ele>34.7</ele>
        <time>2023-01-27T13:11:59Z</time>
      </trkpt>
      <trkpt lat="47.80201" lon="-3.70877">
        <ele>34.7</ele>
        <time>2023-01-27T13:12:00Z</time>
      </trkpt>
      <trkpt lat="47.80202" lon="-3.70869">
        <ele>34.6</ele>
        <time>2023-01-27T13:12:02Z</time>
      </trkpt>
      <trkpt lat="47.80202" lon="-3.70856">
        <ele>34.6</ele>
        <time>2023-01-27T13:12:04Z</time>
      </trkpt>
      <trkpt lat="47.80202" lon="-3.70851">
        <ele>34.6</ele>
        <time>2023-01-27T13:12:05Z</time>
      </trkpt>
      <trkpt lat="47.802" lon="-3.70841">
        <ele>34.5</ele>
        <time>2023-01-27T13:12:07Z</time>
      </trkpt>
      <trkpt lat="47.802" lon="-3.70833">
        <ele>34.4</ele>
        <time>2023-01-27T13:12:08Z</time>
      </trkpt>
      <trkpt lat="47.80199" lon="-3.70828">
        <ele>34.4</ele>
        <time>2023-01-27T13:12:09Z</time>
      </trkpt>
      <trkpt lat="47.80197" lon="-3.70822">
        <ele>34.3</ele>
        <time>2023-01-27T13:12:10Z</time>
      </trkpt>
      <trkpt lat="47.80195" lon="-3.70815">
        <ele>34.2</ele>
        <time>2023-01-27T13:12:11Z</time>
      </trkpt>
      <trkpt lat="47.80192" lon="-3.70802">
        <ele>34</ele>
        <time>2023-01-27T13:12:13Z</time>
      </trkpt>
      <trkpt lat="47.8019" lon="-3.70797">
        <ele>33.9</ele>
        <time>2023-01-27T13:12:15Z</time>
      </trkpt>
      <trkpt lat="47.80186" lon="-3.70791">
        <ele>33.8</ele>
        <time>2023-01-27T13:12:16Z</time>
      </trkpt>
      <trkpt lat="47.80184" lon="-3.70787">
        <ele>33.7</ele>
        <time>2023-01-27T13:12:17Z</time>
      </trkpt>
      <trkpt lat="47.80183" lon="-3.70784">
        <ele>33.6</ele>
        <time>2023-01-27T13:12:18Z</time>
      </trkpt>
      <trkpt lat="47.80182" lon="-3.70781">
        <ele>33.6</ele>
        <time>2023-01-27T13:12:19Z</time>
      </trkpt>
      <trkpt lat="47.80183" lon="-3.70773">
        <ele>33.3</ele>
        <time>2023-01-27T13:12:21Z</time>
      </trkpt>
      <trkpt lat="47.80183" lon="-3.7076">
        <ele>32.9</ele>
        <time>2023-01-27T13:12:23Z</time>
      </trkpt>
      <trkpt lat="47.80182" lon="-3.70753">
        <ele>32.6</ele>
        <time>2023-01-27T13:12:25Z</time>
      </trkpt>
      <trkpt lat="47.80183" lon="-3.7074">
        <ele>32.2</ele>
        <time>2023-01-27T13:12:26Z</time>
      </trkpt>
      <trkpt lat="47.80184" lon="-3.70734">
        <ele>32</ele>
        <time>2023-01-27T13:12:28Z</time>
      </trkpt>
      <trkpt lat="47.80184" lon="-3.70729">
        <ele>31.9</ele>
        <time>2023-01-27T13:12:29Z</time>
      </trkpt>
      <trkpt lat="47.80186" lon="-3.7072">
        <ele>31.3</ele>
        <time>2023-01-27T13:12:30Z</time>
      </trkpt>
      <trkpt lat="47.80188" lon="-3.70717">
        <ele>31.1</ele>
        <time>2023-01-27T13:12:32Z</time>
      </trkpt>
      <trkpt lat="47.80192" lon="-3.70716">
        <ele>30.9</ele>
        <time>2023-01-27T13:12:33Z</time>
      </trkpt>
      <trkpt lat="47.80195" lon="-3.70714">
        <ele>30.8</ele>
        <time>2023-01-27T13:12:34Z</time>
      </trkpt>
      <trkpt lat="47.802" lon="-3.70713">
        <ele>30.6</ele>
        <time>2023-01-27T13:12:35Z</time>
      </trkpt>
      <trkpt lat="47.80203" lon="-3.70711">
        <ele>30.4</ele>
        <time>2023-01-27T13:12:36Z</time>
      </trkpt>
      <trkpt lat="47.8021" lon="-3.70707">
        <ele>30.2</ele>
        <time>2023-01-27T13:12:37Z</time>
      </trkpt>
      <trkpt lat="47.80214" lon="-3.70704">
        <ele>30.1</ele>
        <time>2023-01-27T13:12:39Z</time>
      </trkpt>
      <trkpt lat="47.80221" lon="-3.70699">
        <ele>30</ele>
        <time>2023-01-27T13:12:40Z</time>
      </trkpt>
      <trkpt lat="47.80226" lon="-3.70697">
        <ele>29.9</ele>
        <time>2023-01-27T13:12:41Z</time>
      </trkpt>
      <trkpt lat="47.80231" lon="-3.70695">
        <ele>29.8</ele>
        <time>2023-01-27T13:12:42Z</time>
      </trkpt>
      <trkpt lat="47.80239" lon="-3.70692">
        <ele>29.7</ele>
        <time>2023-01-27T13:12:44Z</time>
      </trkpt>
      <trkpt lat="47.80243" lon="-3.7069">
        <ele>29.6</ele>
        <time>2023-01-27T13:12:45Z</time>
      </trkpt>
      <trkpt lat="47.80248" lon="-3.70688">
        <ele>29.6</ele>
        <time>2023-01-27T13:12:46Z</time>
      </trkpt>
      <trkpt lat="47.80252" lon="-3.70687">
        <ele>29.5</ele>
        <time>2023-01-27T13:12:47Z</time>
      </trkpt>
      <trkpt lat="47.8026" lon="-3.70684">
        <ele>29.5</ele>
        <time>2023-01-27T13:12:48Z</time>
      </trkpt>
      <trkpt lat="47.80265" lon="-3.70683">
        <ele>29.4</ele>
        <time>2023-01-27T13:12:49Z</time>
      </trkpt>
      <trkpt lat="47.8027" lon="-3.70682">
        <ele>29.3</ele>
        <time>2023-01-27T13:12:51Z</time>
      </trkpt>
      <trkpt lat="47.80274" lon="-3.70681">
        <ele>29.2</ele>
        <time>2023-01-27T13:12:52Z</time>
      </trkpt>
      <trkpt lat="47.80279" lon="-3.70679">
        <ele>29.1</ele>
        <time>2023-01-27T13:12:53Z</time>
      </trkpt>
      <trkpt lat="47.80287" lon="-3.70677">
        <ele>28.9</ele>
        <time>2023-01-27T13:12:54Z</time>
      </trkpt>
      <trkpt lat="47.80294" lon="-3.70675">
        <ele>28.8</ele>
        <time>2023-01-27T13:12:56Z</time>
      </trkpt>
      <trkpt lat="47.80298" lon="-3.70674">
        <ele>28.7</ele>
        <time>2023-01-27T13:12:57Z</time>
      </trkpt>
      <trkpt lat="47.80303" lon="-3.70672">
        <ele>28.5</ele>
        <time>2023-01-27T13:12:59Z</time>
      </trkpt>
      <trkpt lat="47.80304" lon="-3.70671">
        <ele>28.5</ele>
        <time>2023-01-27T13:13:00Z</time>
      </trkpt>
      <trkpt lat="47.80304" lon="-3.7067">
        <ele>28.5</ele>
        <time>2023-01-27T13:13:01Z</time>
      </trkpt>
      <trkpt lat="47.80304" lon="-3.7067">
        <ele>28.5</ele>
        <time>2023-01-27T13:13:02Z</time>
      </trkpt>
      <trkpt lat="47.80304" lon="-3.7067">
        <ele>28.5</ele>
        <time>2023-01-27T13:13:03Z</time>
      </trkpt>
      <trkpt lat="47.80305" lon="-3.7067">
        <ele>28.5</ele>
        <time>2023-01-27T13:13:04Z</time>
      </trkpt>
      <trkpt lat="47.80307" lon="-3.7067">
        <ele>28.4</ele>
        <time>2023-01-27T13:13:05Z</time>
      </trkpt>
      <trkpt lat="47.80313" lon="-3.70669">
        <ele>28.2</ele>
        <time>2023-01-27T13:13:07Z</time>
      </trkpt>
      <trkpt lat="47.80317" lon="-3.70667">
        <ele>28</ele>
        <time>2023-01-27T13:13:08Z</time>
      </trkpt>
      <trkpt lat="47.80321" lon="-3.70665">
        <ele>27.7</ele>
        <time>2023-01-27T13:13:10Z</time>
      </trkpt>
      <trkpt lat="47.80328" lon="-3.70659">
        <ele>27.3</ele>
        <time>2023-01-27T13:13:11Z</time>
      </trkpt>
      <trkpt lat="47.80332" lon="-3.70654">
        <ele>27.1</ele>
        <time>2023-01-27T13:13:12Z</time>
      </trkpt>
      <trkpt lat="47.80336" lon="-3.70651">
        <ele>26.9</ele>
        <time>2023-01-27T13:13:13Z</time>
      </trkpt>
      <trkpt lat="47.8034" lon="-3.70647">
        <ele>26.8</ele>
        <time>2023-01-27T13:13:14Z</time>
      </trkpt>
      <trkpt lat="47.80343" lon="-3.70644">
        <ele>27</ele>
        <time>2023-01-27T13:13:16Z</time>
      </trkpt>
      <trkpt lat="47.80347" lon="-3.70639">
        <ele>27.3</ele>
        <time>2023-01-27T13:13:17Z</time>
      </trkpt>
      <trkpt lat="47.80349" lon="-3.70638">
        <ele>27.4</ele>
        <time>2023-01-27T13:13:19Z</time>
      </trkpt>
      <trkpt lat="47.8035" lon="-3.70637">
        <ele>27.4</ele>
        <time>2023-01-27T13:13:20Z</time>
      </trkpt>
      <trkpt lat="47.80351" lon="-3.70635">
        <ele>27.5</ele>
        <time>2023-01-27T13:13:21Z</time>
      </trkpt>
      <trkpt lat="47.80352" lon="-3.70635">
        <ele>27.5</ele>
        <time>2023-01-27T13:13:22Z</time>
      </trkpt>
      <trkpt lat="47.80351" lon="-3.70635">
        <ele>27.5</ele>
        <time>2023-01-27T13:13:23Z</time>
      </trkpt>
      <trkpt lat="47.80351" lon="-3.70635">
        <ele>27.6</ele>
        <time>2023-01-27T13:13:24Z</time>
      </trkpt>
      <trkpt lat="47.8035" lon="-3.70635">
        <ele>27.6</ele>
        <time>2023-01-27T13:13:25Z</time>
      </trkpt>
      <trkpt lat="47.8035" lon="-3.70635">
        <ele>27.6</ele>
        <time>2023-01-27T13:13:26Z</time>
      </trkpt>
      <trkpt lat="47.8035" lon="-3.70635">
        <ele>27.6</ele>
        <time>2023-01-27T13:13:27Z</time>
      </trkpt>
      <trkpt lat="47.8035" lon="-3.70635">
        <ele>27.6</ele>
        <time>2023-01-27T13:13:28Z</time>
      </trkpt>
      <trkpt lat="47.8035" lon="-3.70635">
        <ele>27.6</ele>
        <time>2023-01-27T13:13:29Z</time>
      </trkpt>
      <trkpt lat="47.8035" lon="-3.70635">
        <ele>27.6</ele>
        <time>2023-01-27T13:13:30Z</time>
      </trkpt>
      <trkpt lat="47.8035" lon="-3.70635">
        <ele>27.6</ele>
        <time>2023-01-27T13:13:31Z</time>
      </trkpt>
      <trkpt lat="47.8035" lon="-3.70635">
        <ele>27.6</ele>
        <time>2023-01-27T13:13:32Z</time>
      </trkpt>
      <trkpt lat="47.80354" lon="-3.70632">
        <ele>27.7</ele>
        <time>2023-01-27T13:14:01Z</time>
      </trkpt>
      <trkpt lat="47.80357" lon="-3.7063">
        <ele>27.7</ele>
        <time>2023-01-27T13:14:02Z</time>
      </trkpt>
      <trkpt lat="47.8036" lon="-3.70628">
        <ele>27.8</ele>
        <time>2023-01-27T13:14:03Z</time>
      </trkpt>
      <trkpt lat="47.80361" lon="-3.70627">
        <ele>27.8</ele>
        <time>2023-01-27T13:14:04Z</time>
      </trkpt>
      <trkpt lat="47.80364" lon="-3.70625">
        <ele>27.9</ele>
        <time>2023-01-27T13:14:05Z</time>
      </trkpt>
      <trkpt lat="47.80368" lon="-3.70623">
        <ele>28.1</ele>
        <time>2023-01-27T13:14:06Z</time>
      </trkpt>
      <trkpt lat="47.80369" lon="-3.70622">
        <ele>28.2</ele>
        <time>2023-01-27T13:14:07Z</time>
      </trkpt>
      <trkpt lat="47.80372" lon="-3.70617">
        <ele>28.4</ele>
        <time>2023-01-27T13:14:08Z</time>
      </trkpt>
      <trkpt lat="47.80374" lon="-3.70612">
        <ele>28.6</ele>
        <time>2023-01-27T13:14:10Z</time>
      </trkpt>
      <trkpt lat="47.80373" lon="-3.70611">
        <ele>28.7</ele>
        <time>2023-01-27T13:14:12Z</time>
      </trkpt>
      <trkpt lat="47.80372" lon="-3.7061">
        <ele>28.8</ele>
        <time>2023-01-27T13:14:14Z</time>
      </trkpt>
      <trkpt lat="47.80372" lon="-3.7061">
        <ele>28.8</ele>
        <time>2023-01-27T13:14:15Z</time>
      </trkpt>
      <trkpt lat="47.80373" lon="-3.7061">
        <ele>28.9</ele>
        <time>2023-01-27T13:14:16Z</time>
      </trkpt>
      <trkpt lat="47.80373" lon="-3.7061">
        <ele>28.9</ele>
        <time>2023-01-27T13:14:17Z</time>
      </trkpt>
      <trkpt lat="47.80374" lon="-3.7061">
        <ele>28.9</ele>
        <time>2023-01-27T13:14:18Z</time>
      </trkpt>
      <trkpt lat="47.80374" lon="-3.7061">
        <ele>29</ele>
        <time>2023-01-27T13:14:19Z</time>
      </trkpt>
      <trkpt lat="47.80375" lon="-3.7061">
        <ele>29</ele>
        <time>2023-01-27T13:14:20Z</time>
      </trkpt>
      <trkpt lat="47.80375" lon="-3.70609">
        <ele>29</ele>
        <time>2023-01-27T13:14:21Z</time>
      </trkpt>
      <trkpt lat="47.80377" lon="-3.70607">
        <ele>28.9</ele>
        <time>2023-01-27T13:14:22Z</time>
      </trkpt>
      <trkpt lat="47.80379" lon="-3.70604">
        <ele>28.7</ele>
        <time>2023-01-27T13:14:24Z</time>
      </trkpt>
      <trkpt lat="47.8038" lon="-3.70602">
        <ele>28.5</ele>
        <time>2023-01-27T13:14:25Z</time>
      </trkpt>
      <trkpt lat="47.80381" lon="-3.70601">
        <ele>28.3</ele>
        <time>2023-01-27T13:14:26Z</time>
      </trkpt>
      <trkpt lat="47.80382" lon="-3.70598">
        <ele>28.2</ele>
        <time>2023-01-27T13:14:27Z</time>
      </trkpt>
      <trkpt lat="47.80382" lon="-3.70596">
        <ele>28</ele>
        <time>2023-01-27T13:14:28Z</time>
      </trkpt>
      <trkpt lat="47.80385" lon="-3.70592">
        <ele>27.8</ele>
        <time>2023-01-27T13:14:29Z</time>
      </trkpt>
      <trkpt lat="47.80385" lon="-3.70591">
        <ele>27.7</ele>
        <time>2023-01-27T13:14:30Z</time>
      </trkpt>
      <trkpt lat="47.80388" lon="-3.70587">
        <ele>27.5</ele>
        <time>2023-01-27T13:14:31Z</time>
      </trkpt>
      <trkpt lat="47.8039" lon="-3.70585">
        <ele>27.5</ele>
        <time>2023-01-27T13:14:32Z</time>
      </trkpt>
      <trkpt lat="47.80392" lon="-3.70583">
        <ele>27.5</ele>
        <time>2023-01-27T13:14:33Z</time>
      </trkpt>
      <trkpt lat="47.80393" lon="-3.70583">
        <ele>27.5</ele>
        <time>2023-01-27T13:14:35Z</time>
      </trkpt>
      <trkpt lat="47.80394" lon="-3.70583">
        <ele>27.5</ele>
        <time>2023-01-27T13:14:36Z</time>
      </trkpt>
      <trkpt lat="47.80397" lon="-3.70583">
        <ele>27.6</ele>
        <time>2023-01-27T13:14:37Z</time>
      </trkpt>
      <trkpt lat="47.80397" lon="-3.70582">
        <ele>27.6</ele>
        <time>2023-01-27T13:14:38Z</time>
      </trkpt>
      <trkpt lat="47.80398" lon="-3.70582">
        <ele>27.7</ele>
        <time>2023-01-27T13:14:39Z</time>
      </trkpt>
      <trkpt lat="47.80401" lon="-3.70582">
        <ele>27.8</ele>
        <time>2023-01-27T13:14:40Z</time>
      </trkpt>
      <trkpt lat="47.80402" lon="-3.70581">
        <ele>27.8</ele>
        <time>2023-01-27T13:14:41Z</time>
      </trkpt>
      <trkpt lat="47.80403" lon="-3.70581">
        <ele>27.9</ele>
        <time>2023-01-27T13:14:42Z</time>
      </trkpt>
      <trkpt lat="47.80405" lon="-3.70579">
        <ele>28</ele>
        <time>2023-01-27T13:14:43Z</time>
      </trkpt>
      <trkpt lat="47.80406" lon="-3.70579">
        <ele>28.1</ele>
        <time>2023-01-27T13:14:44Z</time>
      </trkpt>
      <trkpt lat="47.80407" lon="-3.70578">
        <ele>28.1</ele>
        <time>2023-01-27T13:14:45Z</time>
      </trkpt>
      <trkpt lat="47.80408" lon="-3.70577">
        <ele>28.2</ele>
        <time>2023-01-27T13:14:46Z</time>
      </trkpt>
      <trkpt lat="47.80409" lon="-3.70575">
        <ele>28.3</ele>
        <time>2023-01-27T13:14:47Z</time>
      </trkpt>
      <trkpt lat="47.80409" lon="-3.70574">
        <ele>28.3</ele>
        <time>2023-01-27T13:14:48Z</time>
      </trkpt>
      <trkpt lat="47.80411" lon="-3.70572">
        <ele>28.4</ele>
        <time>2023-01-27T13:14:49Z</time>
      </trkpt>
      <trkpt lat="47.80414" lon="-3.7057">
        <ele>28.5</ele>
        <time>2023-01-27T13:14:50Z</time>
      </trkpt>
      <trkpt lat="47.80414" lon="-3.70569">
        <ele>28.5</ele>
        <time>2023-01-27T13:14:51Z</time>
      </trkpt>
      <trkpt lat="47.80417" lon="-3.70568">
        <ele>28.6</ele>
        <time>2023-01-27T13:14:52Z</time>
      </trkpt>
      <trkpt lat="47.80418" lon="-3.70567">
        <ele>28.6</ele>
        <time>2023-01-27T13:14:53Z</time>
      </trkpt>
      <trkpt lat="47.8042" lon="-3.70563">
        <ele>28.7</ele>
        <time>2023-01-27T13:14:54Z</time>
      </trkpt>
      <trkpt lat="47.80421" lon="-3.70562">
        <ele>28.7</ele>
        <time>2023-01-27T13:14:55Z</time>
      </trkpt>
      <trkpt lat="47.80422" lon="-3.7056">
        <ele>28.7</ele>
        <time>2023-01-27T13:14:56Z</time>
      </trkpt>
      <trkpt lat="47.80421" lon="-3.70557">
        <ele>28.8</ele>
        <time>2023-01-27T13:14:57Z</time>
      </trkpt>
      <trkpt lat="47.80421" lon="-3.70552">
        <ele>28.8</ele>
        <time>2023-01-27T13:14:58Z</time>
      </trkpt>
      <trkpt lat="47.80421" lon="-3.7055">
        <ele>28.8</ele>
        <time>2023-01-27T13:14:59Z</time>
      </trkpt>
      <trkpt lat="47.80421" lon="-3.70546">
        <ele>28.8</ele>
        <time>2023-01-27T13:15:00Z</time>
      </trkpt>
      <trkpt lat="47.80421" lon="-3.70544">
        <ele>28.8</ele>
        <time>2023-01-27T13:15:01Z</time>
      </trkpt>
      <trkpt lat="47.8042" lon="-3.7054">
        <ele>28.9</ele>
        <time>2023-01-27T13:15:02Z</time>
      </trkpt>
      <trkpt lat="47.80421" lon="-3.70539">
        <ele>28.9</ele>
        <time>2023-01-27T13:15:03Z</time>
      </trkpt>
      <trkpt lat="47.80422" lon="-3.70535">
        <ele>28.9</ele>
        <time>2023-01-27T13:15:04Z</time>
      </trkpt>
      <trkpt lat="47.80424" lon="-3.70531">
        <ele>28.9</ele>
        <time>2023-01-27T13:15:05Z</time>
      </trkpt>
      <trkpt lat="47.80426" lon="-3.70527">
        <ele>28.9</ele>
        <time>2023-01-27T13:15:06Z</time>
      </trkpt>
      <trkpt lat="47.80427" lon="-3.70522">
        <ele>28.9</ele>
        <time>2023-01-27T13:15:07Z</time>
      </trkpt>
      <trkpt lat="47.80429" lon="-3.70517">
        <ele>28.9</ele>
        <time>2023-01-27T13:15:08Z</time>
      </trkpt>
      <trkpt lat="47.80428" lon="-3.70512">
        <ele>28.9</ele>
        <time>2023-01-27T13:15:09Z</time>
      </trkpt>
      <trkpt lat="47.80427" lon="-3.70508">
        <ele>28.9</ele>
        <time>2023-01-27T13:15:10Z</time>
      </trkpt>
      <trkpt lat="47.80423" lon="-3.70502">
        <ele>28.9</ele>
        <time>2023-01-27T13:15:11Z</time>
      </trkpt>
      <trkpt lat="47.80419" lon="-3.70493">
        <ele>28.9</ele>
        <time>2023-01-27T13:15:13Z</time>
      </trkpt>
      <trkpt lat="47.80418" lon="-3.70489">
        <ele>28.9</ele>
        <time>2023-01-27T13:15:15Z</time>
      </trkpt>
      <trkpt lat="47.80418" lon="-3.70484">
        <ele>28.9</ele>
        <time>2023-01-27T13:15:16Z</time>
      </trkpt>
      <trkpt lat="47.80418" lon="-3.70476">
        <ele>28.9</ele>
        <time>2023-01-27T13:15:17Z</time>
      </trkpt>
      <trkpt lat="47.80417" lon="-3.7047">
        <ele>28.9</ele>
        <time>2023-01-27T13:15:19Z</time>
      </trkpt>
      <trkpt lat="47.80418" lon="-3.70465">
        <ele>29</ele>
        <time>2023-01-27T13:15:20Z</time>
      </trkpt>
      <trkpt lat="47.80419" lon="-3.7046">
        <ele>29</ele>
        <time>2023-01-27T13:15:21Z</time>
      </trkpt>
      <trkpt lat="47.8042" lon="-3.70455">
        <ele>29</ele>
        <time>2023-01-27T13:15:22Z</time>
      </trkpt>
      <trkpt lat="47.80421" lon="-3.7045">
        <ele>29.1</ele>
        <time>2023-01-27T13:15:23Z</time>
      </trkpt>
      <trkpt lat="47.80422" lon="-3.70446">
        <ele>29.1</ele>
        <time>2023-01-27T13:15:24Z</time>
      </trkpt>
      <trkpt lat="47.80424" lon="-3.70442">
        <ele>29.2</ele>
        <time>2023-01-27T13:15:25Z</time>
      </trkpt>
      <trkpt lat="47.80425" lon="-3.70437">
        <ele>29.2</ele>
        <time>2023-01-27T13:15:26Z</time>
      </trkpt>
      <trkpt lat="47.80426" lon="-3.70435">
        <ele>29.3</ele>
        <time>2023-01-27T13:15:27Z</time>
      </trkpt>
      <trkpt lat="47.80425" lon="-3.70431">
        <ele>29.3</ele>
        <time>2023-01-27T13:15:28Z</time>
      </trkpt>
      <trkpt lat="47.80425" lon="-3.70426">
        <ele>29.4</ele>
        <time>2023-01-27T13:15:29Z</time>
      </trkpt>
      <trkpt lat="47.80426" lon="-3.70421">
        <ele>29.5</ele>
        <time>2023-01-27T13:15:30Z</time>
      </trkpt>
      <trkpt lat="47.80427" lon="-3.70417">
        <ele>29.6</ele>
        <time>2023-01-27T13:15:31Z</time>
      </trkpt>
      <trkpt lat="47.80428" lon="-3.70413">
        <ele>29.7</ele>
        <time>2023-01-27T13:15:32Z</time>
      </trkpt>
      <trkpt lat="47.80429" lon="-3.70408">
        <ele>29.7</ele>
        <time>2023-01-27T13:15:33Z</time>
      </trkpt>
      <trkpt lat="47.8043" lon="-3.70403">
        <ele>29.8</ele>
        <time>2023-01-27T13:15:34Z</time>
      </trkpt>
      <trkpt lat="47.8043" lon="-3.70401">
        <ele>29.9</ele>
        <time>2023-01-27T13:15:35Z</time>
      </trkpt>
      <trkpt lat="47.80431" lon="-3.70396">
        <ele>30</ele>
        <time>2023-01-27T13:15:36Z</time>
      </trkpt>
      <trkpt lat="47.80433" lon="-3.7039">
        <ele>30.1</ele>
        <time>2023-01-27T13:15:37Z</time>
      </trkpt>
      <trkpt lat="47.80434" lon="-3.70386">
        <ele>30.2</ele>
        <time>2023-01-27T13:15:38Z</time>
      </trkpt>
      <trkpt lat="47.80434" lon="-3.7038">
        <ele>30.3</ele>
        <time>2023-01-27T13:15:39Z</time>
      </trkpt>
      <trkpt lat="47.80434" lon="-3.70375">
        <ele>30.4</ele>
        <time>2023-01-27T13:15:40Z</time>
      </trkpt>
      <trkpt lat="47.80434" lon="-3.70373">
        <ele>30.4</ele>
        <time>2023-01-27T13:15:41Z</time>
      </trkpt>
      <trkpt lat="47.80434" lon="-3.70367">
        <ele>30.5</ele>
        <time>2023-01-27T13:15:42Z</time>
      </trkpt>
      <trkpt lat="47.80435" lon="-3.70366">
        <ele>30.6</ele>
        <time>2023-01-27T13:15:43Z</time>
      </trkpt>
      <trkpt lat="47.80435" lon="-3.70361">
        <ele>30.7</ele>
        <time>2023-01-27T13:15:44Z</time>
      </trkpt>
      <trkpt lat="47.80436" lon="-3.70356">
        <ele>30.8</ele>
        <time>2023-01-27T13:15:45Z</time>
      </trkpt>
      <trkpt lat="47.80437" lon="-3.70351">
        <ele>30.8</ele>
        <time>2023-01-27T13:15:47Z</time>
      </trkpt>
      <trkpt lat="47.80438" lon="-3.70346">
        <ele>30.9</ele>
        <time>2023-01-27T13:15:48Z</time>
      </trkpt>
      <trkpt lat="47.80439" lon="-3.70341">
        <ele>30.9</ele>
        <time>2023-01-27T13:15:49Z</time>
      </trkpt>
      <trkpt lat="47.8044" lon="-3.70337">
        <ele>31</ele>
        <time>2023-01-27T13:15:50Z</time>
      </trkpt>
      <trkpt lat="47.80441" lon="-3.70332">
        <ele>31</ele>
        <time>2023-01-27T13:15:51Z</time>
      </trkpt>
      <trkpt lat="47.80444" lon="-3.70322">
        <ele>31.1</ele>
        <time>2023-01-27T13:15:52Z</time>
      </trkpt>
      <trkpt lat="47.80446" lon="-3.70317">
        <ele>31.2</ele>
        <time>2023-01-27T13:15:53Z</time>
      </trkpt>
      <trkpt lat="47.80447" lon="-3.7031">
        <ele>31.2</ele>
        <time>2023-01-27T13:15:55Z</time>
      </trkpt>
      <trkpt lat="47.80446" lon="-3.70308">
        <ele>31.2</ele>
        <time>2023-01-27T13:15:56Z</time>
      </trkpt>
      <trkpt lat="47.80446" lon="-3.70306">
        <ele>31.2</ele>
        <time>2023-01-27T13:15:57Z</time>
      </trkpt>
      <trkpt lat="47.80444" lon="-3.70301">
        <ele>31.2</ele>
        <time>2023-01-27T13:15:58Z</time>
      </trkpt>
      <trkpt lat="47.80443" lon="-3.703">
        <ele>31.2</ele>
        <time>2023-01-27T13:15:59Z</time>
      </trkpt>
      <trkpt lat="47.80441" lon="-3.70297">
        <ele>31.2</ele>
        <time>2023-01-27T13:16:00Z</time>
      </trkpt>
      <trkpt lat="47.80437" lon="-3.70293">
        <ele>31.2</ele>
        <time>2023-01-27T13:16:01Z</time>
      </trkpt>
      <trkpt lat="47.80432" lon="-3.70286">
        <ele>30.7</ele>
        <time>2023-01-27T13:16:02Z</time>
      </trkpt>
      <trkpt lat="47.80427" lon="-3.70281">
        <ele>30.6</ele>
        <time>2023-01-27T13:16:03Z</time>
      </trkpt>
      <trkpt lat="47.80422" lon="-3.70273">
        <ele>30.5</ele>
        <time>2023-01-27T13:16:05Z</time>
      </trkpt>
      <trkpt lat="47.80418" lon="-3.70265">
        <ele>30.5</ele>
        <time>2023-01-27T13:16:06Z</time>
      </trkpt>
      <trkpt lat="47.80416" lon="-3.70259">
        <ele>30.5</ele>
        <time>2023-01-27T13:16:07Z</time>
      </trkpt>
      <trkpt lat="47.80413" lon="-3.70256">
        <ele>30.5</ele>
        <time>2023-01-27T13:16:08Z</time>
      </trkpt>
      <trkpt lat="47.80409" lon="-3.70249">
        <ele>30.6</ele>
        <time>2023-01-27T13:16:09Z</time>
      </trkpt>
      <trkpt lat="47.80407" lon="-3.70245">
        <ele>30.7</ele>
        <time>2023-01-27T13:16:10Z</time>
      </trkpt>
      <trkpt lat="47.80405" lon="-3.70238">
        <ele>30.8</ele>
        <time>2023-01-27T13:16:11Z</time>
      </trkpt>
      <trkpt lat="47.80404" lon="-3.70232">
        <ele>30.9</ele>
        <time>2023-01-27T13:16:12Z</time>
      </trkpt>
      <trkpt lat="47.80402" lon="-3.70225">
        <ele>31</ele>
        <time>2023-01-27T13:16:13Z</time>
      </trkpt>
      <trkpt lat="47.80401" lon="-3.7022">
        <ele>31.1</ele>
        <time>2023-01-27T13:16:14Z</time>
      </trkpt>
      <trkpt lat="47.80398" lon="-3.70214">
        <ele>31.1</ele>
        <time>2023-01-27T13:16:15Z</time>
      </trkpt>
      <trkpt lat="47.80397" lon="-3.70212">
        <ele>31.2</ele>
        <time>2023-01-27T13:16:16Z</time>
      </trkpt>
      <trkpt lat="47.80394" lon="-3.70207">
        <ele>31.3</ele>
        <time>2023-01-27T13:16:17Z</time>
      </trkpt>
      <trkpt lat="47.80393" lon="-3.70205">
        <ele>31.3</ele>
        <time>2023-01-27T13:16:18Z</time>
      </trkpt>
      <trkpt lat="47.80391" lon="-3.70202">
        <ele>31.4</ele>
        <time>2023-01-27T13:16:19Z</time>
      </trkpt>
      <trkpt lat="47.80388" lon="-3.70197">
        <ele>31.5</ele>
        <time>2023-01-27T13:16:20Z</time>
      </trkpt>
      <trkpt lat="47.80385" lon="-3.70193">
        <ele>31.5</ele>
        <time>2023-01-27T13:16:21Z</time>
      </trkpt>
      <trkpt lat="47.80381" lon="-3.70187">
        <ele>31.6</ele>
        <time>2023-01-27T13:16:23Z</time>
      </trkpt>
      <trkpt lat="47.80377" lon="-3.70177">
        <ele>31.7</ele>
        <time>2023-01-27T13:16:24Z</time>
      </trkpt>
      <trkpt lat="47.80375" lon="-3.70171">
        <ele>31.8</ele>
        <time>2023-01-27T13:16:26Z</time>
      </trkpt>
      <trkpt lat="47.80372" lon="-3.70162">
        <ele>31.9</ele>
        <time>2023-01-27T13:16:27Z</time>
      </trkpt>
      <trkpt lat="47.8037" lon="-3.70158">
        <ele>31.9</ele>
        <time>2023-01-27T13:16:29Z</time>
      </trkpt>
      <trkpt lat="47.80369" lon="-3.70155">
        <ele>31.9</ele>
        <time>2023-01-27T13:16:30Z</time>
      </trkpt>
      <trkpt lat="47.80364" lon="-3.70148">
        <ele>31.9</ele>
        <time>2023-01-27T13:16:31Z</time>
      </trkpt>
      <trkpt lat="47.80362" lon="-3.70145">
        <ele>31.9</ele>
        <time>2023-01-27T13:16:32Z</time>
      </trkpt>
      <trkpt lat="47.80359" lon="-3.70138">
        <ele>31.8</ele>
        <time>2023-01-27T13:16:34Z</time>
      </trkpt>
      <trkpt lat="47.80356" lon="-3.70127">
        <ele>31.7</ele>
        <time>2023-01-27T13:16:35Z</time>
      </trkpt>
      <trkpt lat="47.80355" lon="-3.70122">
        <ele>31.7</ele>
        <time>2023-01-27T13:16:36Z</time>
      </trkpt>
      <trkpt lat="47.80352" lon="-3.70116">
        <ele>31.6</ele>
        <time>2023-01-27T13:16:38Z</time>
      </trkpt>
      <trkpt lat="47.8035" lon="-3.70111">
        <ele>31.5</ele>
        <time>2023-01-27T13:16:39Z</time>
      </trkpt>
      <trkpt lat="47.80347" lon="-3.70106">
        <ele>31.4</ele>
        <time>2023-01-27T13:16:40Z</time>
      </trkpt>
      <trkpt lat="47.80345" lon="-3.70099">
        <ele>31.3</ele>
        <time>2023-01-27T13:16:41Z</time>
      </trkpt>
      <trkpt lat="47.80344" lon="-3.70092">
        <ele>31.3</ele>
        <time>2023-01-27T13:16:42Z</time>
      </trkpt>
      <trkpt lat="47.80343" lon="-3.70086">
        <ele>31.2</ele>
        <time>2023-01-27T13:16:43Z</time>
      </trkpt>
      <trkpt lat="47.80342" lon="-3.70078">
        <ele>31.2</ele>
        <time>2023-01-27T13:16:44Z</time>
      </trkpt>
      <trkpt lat="47.80341" lon="-3.70071">
        <ele>31.2</ele>
        <time>2023-01-27T13:16:45Z</time>
      </trkpt>
      <trkpt lat="47.8034" lon="-3.70066">
        <ele>31.2</ele>
        <time>2023-01-27T13:16:46Z</time>
      </trkpt>
      <trkpt lat="47.80339" lon="-3.70055">
        <ele>31.2</ele>
        <time>2023-01-27T13:16:47Z</time>
      </trkpt>
      <trkpt lat="47.80339" lon="-3.70043">
        <ele>31.3</ele>
        <time>2023-01-27T13:16:49Z</time>
      </trkpt>
      <trkpt lat="47.80338" lon="-3.70032">
        <ele>31.3</ele>
        <time>2023-01-27T13:16:51Z</time>
      </trkpt>
      <trkpt lat="47.80337" lon="-3.7002">
        <ele>31.3</ele>
        <time>2023-01-27T13:16:53Z</time>
      </trkpt>
      <trkpt lat="47.80336" lon="-3.70007">
        <ele>31.2</ele>
        <time>2023-01-27T13:16:55Z</time>
      </trkpt>
      <trkpt lat="47.80336" lon="-3.7">
        <ele>31.1</ele>
        <time>2023-01-27T13:16:56Z</time>
      </trkpt>
      <trkpt lat="47.80337" lon="-3.69994">
        <ele>31.1</ele>
        <time>2023-01-27T13:16:57Z</time>
      </trkpt>
      <trkpt lat="47.80335" lon="-3.69981">
        <ele>31</ele>
        <time>2023-01-27T13:16:59Z</time>
      </trkpt>
      <trkpt lat="47.80334" lon="-3.69975">
        <ele>31</ele>
        <time>2023-01-27T13:17:01Z</time>
      </trkpt>
      <trkpt lat="47.80336" lon="-3.69964">
        <ele>31.1</ele>
        <time>2023-01-27T13:17:02Z</time>
      </trkpt>
      <trkpt lat="47.80337" lon="-3.69953">
        <ele>31.3</ele>
        <time>2023-01-27T13:17:04Z</time>
      </trkpt>
      <trkpt lat="47.80338" lon="-3.69945">
        <ele>31.5</ele>
        <time>2023-01-27T13:17:06Z</time>
      </trkpt>
      <trkpt lat="47.80338" lon="-3.69942">
        <ele>31.5</ele>
        <time>2023-01-27T13:17:07Z</time>
      </trkpt>
      <trkpt lat="47.80337" lon="-3.69939">
        <ele>31.6</ele>
        <time>2023-01-27T13:17:08Z</time>
      </trkpt>
      <trkpt lat="47.80339" lon="-3.69932">
        <ele>31.8</ele>
        <time>2023-01-27T13:17:09Z</time>
      </trkpt>
      <trkpt lat="47.8034" lon="-3.69927">
        <ele>31.9</ele>
        <time>2023-01-27T13:17:10Z</time>
      </trkpt>
      <trkpt lat="47.80342" lon="-3.69921">
        <ele>32.1</ele>
        <time>2023-01-27T13:17:11Z</time>
      </trkpt>
      <trkpt lat="47.80345" lon="-3.69917">
        <ele>32.3</ele>
        <time>2023-01-27T13:17:12Z</time>
      </trkpt>
      <trkpt lat="47.80348" lon="-3.69914">
        <ele>32.4</ele>
        <time>2023-01-27T13:17:13Z</time>
      </trkpt>
      <trkpt lat="47.80349" lon="-3.69912">
        <ele>32.6</ele>
        <time>2023-01-27T13:17:14Z</time>
      </trkpt>
      <trkpt lat="47.80351" lon="-3.6991">
        <ele>32.7</ele>
        <time>2023-01-27T13:17:16Z</time>
      </trkpt>
      <trkpt lat="47.80352" lon="-3.69909">
        <ele>32.8</ele>
        <time>2023-01-27T13:17:18Z</time>
      </trkpt>
      <trkpt lat="47.80353" lon="-3.69907">
        <ele>32.9</ele>
        <time>2023-01-27T13:17:19Z</time>
      </trkpt>
      <trkpt lat="47.80354" lon="-3.69906">
        <ele>33</ele>
        <time>2023-01-27T13:17:21Z</time>
      </trkpt>
      <trkpt lat="47.80356" lon="-3.69904">
        <ele>33.1</ele>
        <time>2023-01-27T13:17:22Z</time>
      </trkpt>
      <trkpt lat="47.80358" lon="-3.69903">
        <ele>33.2</ele>
        <time>2023-01-27T13:17:24Z</time>
      </trkpt>
      <trkpt lat="47.80358" lon="-3.69903">
        <ele>33.3</ele>
        <time>2023-01-27T13:17:25Z</time>
      </trkpt>
      <trkpt lat="47.80359" lon="-3.69902">
        <ele>33.3</ele>
        <time>2023-01-27T13:17:26Z</time>
      </trkpt>
      <trkpt lat="47.8036" lon="-3.69901">
        <ele>33.4</ele>
        <time>2023-01-27T13:17:27Z</time>
      </trkpt>
      <trkpt lat="47.8036" lon="-3.699">
        <ele>33.5</ele>
        <time>2023-01-27T13:17:28Z</time>
      </trkpt>
      <trkpt lat="47.80361" lon="-3.69898">
        <ele>33.6</ele>
        <time>2023-01-27T13:17:29Z</time>
      </trkpt>
      <trkpt lat="47.80362" lon="-3.69897">
        <ele>33.7</ele>
        <time>2023-01-27T13:17:30Z</time>
      </trkpt>
      <trkpt lat="47.80363" lon="-3.69896">
        <ele>33.8</ele>
        <time>2023-01-27T13:17:31Z</time>
      </trkpt>
      <trkpt lat="47.80363" lon="-3.69895">
        <ele>33.8</ele>
        <time>2023-01-27T13:17:32Z</time>
      </trkpt>
      <trkpt lat="47.80364" lon="-3.69893">
        <ele>33.8</ele>
        <time>2023-01-27T13:17:33Z</time>
      </trkpt>
      <trkpt lat="47.80366" lon="-3.69891">
        <ele>33.8</ele>
        <time>2023-01-27T13:17:34Z</time>
      </trkpt>
      <trkpt lat="47.80367" lon="-3.6989">
        <ele>33.9</ele>
        <time>2023-01-27T13:17:35Z</time>
      </trkpt>
      <trkpt lat="47.80368" lon="-3.69888">
        <ele>33.9</ele>
        <time>2023-01-27T13:17:36Z</time>
      </trkpt>
      <trkpt lat="47.8037" lon="-3.69887">
        <ele>33.9</ele>
        <time>2023-01-27T13:17:37Z</time>
      </trkpt>
      <trkpt lat="47.80373" lon="-3.69882">
        <ele>34</ele>
        <time>2023-01-27T13:17:38Z</time>
      </trkpt>
      <trkpt lat="47.80374" lon="-3.6988">
        <ele>34.1</ele>
        <time>2023-01-27T13:17:39Z</time>
      </trkpt>
      <trkpt lat="47.80375" lon="-3.69877">
        <ele>34.1</ele>
        <time>2023-01-27T13:17:40Z</time>
      </trkpt>
      <trkpt lat="47.80376" lon="-3.69872">
        <ele>34.2</ele>
        <time>2023-01-27T13:17:41Z</time>
      </trkpt>
      <trkpt lat="47.80376" lon="-3.6987">
        <ele>34.2</ele>
        <time>2023-01-27T13:17:42Z</time>
      </trkpt>
      <trkpt lat="47.80377" lon="-3.69866">
        <ele>34.2</ele>
        <time>2023-01-27T13:17:43Z</time>
      </trkpt>
      <trkpt lat="47.80377" lon="-3.69865">
        <ele>34.2</ele>
        <time>2023-01-27T13:17:44Z</time>
      </trkpt>
      <trkpt lat="47.80378" lon="-3.69861">
        <ele>34.2</ele>
        <time>2023-01-27T13:17:45Z</time>
      </trkpt>
      <trkpt lat="47.80379" lon="-3.69856">
        <ele>34.3</ele>
        <time>2023-01-27T13:17:46Z</time>
      </trkpt>
      <trkpt lat="47.80379" lon="-3.69855">
        <ele>34.3</ele>
        <time>2023-01-27T13:17:47Z</time>
      </trkpt>
      <trkpt lat="47.8038" lon="-3.6985">
        <ele>34.3</ele>
        <time>2023-01-27T13:17:48Z</time>
      </trkpt>
      <trkpt lat="47.80381" lon="-3.69845">
        <ele>34.4</ele>
        <time>2023-01-27T13:17:49Z</time>
      </trkpt>
      <trkpt lat="47.80381" lon="-3.69841">
        <ele>34.4</ele>
        <time>2023-01-27T13:17:50Z</time>
      </trkpt>
      <trkpt lat="47.80382" lon="-3.69837">
        <ele>34.4</ele>
        <time>2023-01-27T13:17:51Z</time>
      </trkpt>
      <trkpt lat="47.80384" lon="-3.69832">
        <ele>34.5</ele>
        <time>2023-01-27T13:17:52Z</time>
      </trkpt>
      <trkpt lat="47.80386" lon="-3.69827">
        <ele>34.5</ele>
        <time>2023-01-27T13:17:53Z</time>
      </trkpt>
      <trkpt lat="47.80387" lon="-3.69823">
        <ele>34.5</ele>
        <time>2023-01-27T13:17:54Z</time>
      </trkpt>
      <trkpt lat="47.80389" lon="-3.69818">
        <ele>34.5</ele>
        <time>2023-01-27T13:17:55Z</time>
      </trkpt>
      <trkpt lat="47.80389" lon="-3.69813">
        <ele>34.6</ele>
        <time>2023-01-27T13:17:56Z</time>
      </trkpt>
      <trkpt lat="47.8039" lon="-3.69809">
        <ele>34.6</ele>
        <time>2023-01-27T13:17:57Z</time>
      </trkpt>
      <trkpt lat="47.8039" lon="-3.69805">
        <ele>34.6</ele>
        <time>2023-01-27T13:17:58Z</time>
      </trkpt>
      <trkpt lat="47.80391" lon="-3.69798">
        <ele>34.6</ele>
        <time>2023-01-27T13:17:59Z</time>
      </trkpt>
      <trkpt lat="47.80391" lon="-3.69796">
        <ele>34.7</ele>
        <time>2023-01-27T13:18:00Z</time>
      </trkpt>
      <trkpt lat="47.80392" lon="-3.69792">
        <ele>34.7</ele>
        <time>2023-01-27T13:18:01Z</time>
      </trkpt>
      <trkpt lat="47.80393" lon="-3.69787">
        <ele>34.7</ele>
        <time>2023-01-27T13:18:02Z</time>
      </trkpt>
      <trkpt lat="47.80394" lon="-3.69783">
        <ele>34.7</ele>
        <time>2023-01-27T13:18:03Z</time>
      </trkpt>
      <trkpt lat="47.80397" lon="-3.69778">
        <ele>34.8</ele>
        <time>2023-01-27T13:18:04Z</time>
      </trkpt>
      <trkpt lat="47.80398" lon="-3.69773">
        <ele>34.8</ele>
        <time>2023-01-27T13:18:05Z</time>
      </trkpt>
      <trkpt lat="47.80399" lon="-3.69772">
        <ele>34.8</ele>
        <time>2023-01-27T13:18:06Z</time>
      </trkpt>
      <trkpt lat="47.80401" lon="-3.69767">
        <ele>34.8</ele>
        <time>2023-01-27T13:18:07Z</time>
      </trkpt>
      <trkpt lat="47.80401" lon="-3.69766">
        <ele>34.8</ele>
        <time>2023-01-27T13:18:08Z</time>
      </trkpt>
      <trkpt lat="47.80404" lon="-3.69762">
        <ele>34.9</ele>
        <time>2023-01-27T13:18:09Z</time>
      </trkpt>
      <trkpt lat="47.80406" lon="-3.69758">
        <ele>34.9</ele>
        <time>2023-01-27T13:18:10Z</time>
      </trkpt>
      <trkpt lat="47.80411" lon="-3.69751">
        <ele>35</ele>
        <time>2023-01-27T13:18:12Z</time>
      </trkpt>
      <trkpt lat="47.80413" lon="-3.69748">
        <ele>35.1</ele>
        <time>2023-01-27T13:18:13Z</time>
      </trkpt>
      <trkpt lat="47.80416" lon="-3.69745">
        <ele>35.2</ele>
        <time>2023-01-27T13:18:15Z</time>
      </trkpt>
      <trkpt lat="47.80419" lon="-3.69742">
        <ele>35.3</ele>
        <time>2023-01-27T13:18:16Z</time>
      </trkpt>
      <trkpt lat="47.80421" lon="-3.6974">
        <ele>35.4</ele>
        <time>2023-01-27T13:18:17Z</time>
      </trkpt>
      <trkpt lat="47.80424" lon="-3.69735">
        <ele>35.6</ele>
        <time>2023-01-27T13:18:18Z</time>
      </trkpt>
      <trkpt lat="47.80427" lon="-3.69732">
        <ele>35.8</ele>
        <time>2023-01-27T13:18:20Z</time>
      </trkpt>
      <trkpt lat="47.8043" lon="-3.6973">
        <ele>36</ele>
        <time>2023-01-27T13:18:21Z</time>
      </trkpt>
      <trkpt lat="47.80433" lon="-3.69729">
        <ele>36.1</ele>
        <time>2023-01-27T13:18:22Z</time>
      </trkpt>
      <trkpt lat="47.80436" lon="-3.69727">
        <ele>36.3</ele>
        <time>2023-01-27T13:18:23Z</time>
      </trkpt>
      <trkpt lat="47.8044" lon="-3.69726">
        <ele>36.6</ele>
        <time>2023-01-27T13:18:24Z</time>
      </trkpt>
      <trkpt lat="47.80444" lon="-3.69725">
        <ele>36.8</ele>
        <time>2023-01-27T13:18:25Z</time>
      </trkpt>
      <trkpt lat="47.80446" lon="-3.69725">
        <ele>36.9</ele>
        <time>2023-01-27T13:18:26Z</time>
      </trkpt>
      <trkpt lat="47.80449" lon="-3.69725">
        <ele>37</ele>
        <time>2023-01-27T13:18:27Z</time>
      </trkpt>
      <trkpt lat="47.80448" lon="-3.69725">
        <ele>37</ele>
        <time>2023-01-27T13:18:28Z</time>
      </trkpt>
      <trkpt lat="47.80449" lon="-3.69725">
        <ele>37.1</ele>
        <time>2023-01-27T13:18:29Z</time>
      </trkpt>
      <trkpt lat="47.80452" lon="-3.69725">
        <ele>37.2</ele>
        <time>2023-01-27T13:18:30Z</time>
      </trkpt>
      <trkpt lat="47.80455" lon="-3.69726">
        <ele>37.4</ele>
        <time>2023-01-27T13:18:31Z</time>
      </trkpt>
      <trkpt lat="47.80456" lon="-3.69726">
        <ele>37.4</ele>
        <time>2023-01-27T13:18:33Z</time>
      </trkpt>
      <trkpt lat="47.80456" lon="-3.69726">
        <ele>37.4</ele>
        <time>2023-01-27T13:18:34Z</time>
      </trkpt>
      <trkpt lat="47.80456" lon="-3.69726">
        <ele>37.4</ele>
        <time>2023-01-27T13:18:35Z</time>
      </trkpt>
      <trkpt lat="47.80456" lon="-3.69726">
        <ele>37.5</ele>
        <time>2023-01-27T13:18:37Z</time>
      </trkpt>
      <trkpt lat="47.80456" lon="-3.69727">
        <ele>37.5</ele>
        <time>2023-01-27T13:18:38Z</time>
      </trkpt>
      <trkpt lat="47.80457" lon="-3.69727">
        <ele>37.5</ele>
        <time>2023-01-27T13:18:39Z</time>
      </trkpt>
      <trkpt lat="47.80457" lon="-3.69726">
        <ele>37.5</ele>
        <time>2023-01-27T13:18:40Z</time>
      </trkpt>
      <trkpt lat="47.80458" lon="-3.69726">
        <ele>37.5</ele>
        <time>2023-01-27T13:18:41Z</time>
      </trkpt>
      <trkpt lat="47.80458" lon="-3.69727">
        <ele>37.6</ele>
        <time>2023-01-27T13:18:43Z</time>
      </trkpt>
      <trkpt lat="47.80458" lon="-3.69727">
        <ele>37.6</ele>
        <time>2023-01-27T13:18:44Z</time>
      </trkpt>
      <trkpt lat="47.80458" lon="-3.69727">
        <ele>37.6</ele>
        <time>2023-01-27T13:18:45Z</time>
      </trkpt>
      <trkpt lat="47.80458" lon="-3.69726">
        <ele>37.6</ele>
        <time>2023-01-27T13:18:47Z</time>
      </trkpt>
      <trkpt lat="47.80473" lon="-3.69718">
        <ele>38.3</ele>
        <time>2023-01-27T13:19:54Z</time>
      </trkpt>
      <trkpt lat="47.80477" lon="-3.69718">
        <ele>38.5</ele>
        <time>2023-01-27T13:19:55Z</time>
      </trkpt>
      <trkpt lat="47.80481" lon="-3.69716">
        <ele>38.6</ele>
        <time>2023-01-27T13:19:57Z</time>
      </trkpt>
      <trkpt lat="47.80482" lon="-3.69717">
        <ele>38.7</ele>
        <time>2023-01-27T13:19:58Z</time>
      </trkpt>
      <trkpt lat="47.80482" lon="-3.69717">
        <ele>38.7</ele>
        <time>2023-01-27T13:19:59Z</time>
      </trkpt>
      <trkpt lat="47.80482" lon="-3.69717">
        <ele>38.7</ele>
        <time>2023-01-27T13:20:00Z</time>
      </trkpt>
      <trkpt lat="47.80482" lon="-3.69717">
        <ele>38.7</ele>
        <time>2023-01-27T13:20:02Z</time>
      </trkpt>
      <trkpt lat="47.80488" lon="-3.69723">
        <ele>39</ele>
        <time>2023-01-27T13:20:04Z</time>
      </trkpt>
      <trkpt lat="47.80491" lon="-3.69726">
        <ele>39.1</ele>
        <time>2023-01-27T13:20:06Z</time>
      </trkpt>
      <trkpt lat="47.80494" lon="-3.6973">
        <ele>39.2</ele>
        <time>2023-01-27T13:20:07Z</time>
      </trkpt>
      <trkpt lat="47.80494" lon="-3.69733">
        <ele>39.2</ele>
        <time>2023-01-27T13:20:09Z</time>
      </trkpt>
      <trkpt lat="47.80494" lon="-3.69736">
        <ele>39.2</ele>
        <time>2023-01-27T13:20:10Z</time>
      </trkpt>
      <trkpt lat="47.80494" lon="-3.69737">
        <ele>39.2</ele>
        <time>2023-01-27T13:20:11Z</time>
      </trkpt>
      <trkpt lat="47.80495" lon="-3.69738">
        <ele>39.2</ele>
        <time>2023-01-27T13:20:12Z</time>
      </trkpt>
      <trkpt lat="47.80495" lon="-3.69739">
        <ele>39.3</ele>
        <time>2023-01-27T13:20:13Z</time>
      </trkpt>
      <trkpt lat="47.80496" lon="-3.69739">
        <ele>39.3</ele>
        <time>2023-01-27T13:20:14Z</time>
      </trkpt>
      <trkpt lat="47.80496" lon="-3.6974">
        <ele>39.3</ele>
        <time>2023-01-27T13:20:15Z</time>
      </trkpt>
      <trkpt lat="47.80496" lon="-3.6974">
        <ele>39.3</ele>
        <time>2023-01-27T13:20:16Z</time>
      </trkpt>
      <trkpt lat="47.80496" lon="-3.69741">
        <ele>39.3</ele>
        <time>2023-01-27T13:20:17Z</time>
      </trkpt>
      <trkpt lat="47.80497" lon="-3.69741">
        <ele>39.3</ele>
        <time>2023-01-27T13:20:18Z</time>
      </trkpt>
      <trkpt lat="47.80497" lon="-3.69742">
        <ele>39.3</ele>
        <time>2023-01-27T13:20:19Z</time>
      </trkpt>
      <trkpt lat="47.80497" lon="-3.69742">
        <ele>39.3</ele>
        <time>2023-01-27T13:20:20Z</time>
      </trkpt>
      <trkpt lat="47.80498" lon="-3.69742">
        <ele>39.3</ele>
        <time>2023-01-27T13:20:21Z</time>
      </trkpt>
      <trkpt lat="47.80498" lon="-3.69743">
        <ele>39.3</ele>
        <time>2023-01-27T13:20:22Z</time>
      </trkpt>
      <trkpt lat="47.80499" lon="-3.69747">
        <ele>39.3</ele>
        <time>2023-01-27T13:20:23Z</time>
      </trkpt>
      <trkpt lat="47.80501" lon="-3.69751">
        <ele>39.4</ele>
        <time>2023-01-27T13:20:24Z</time>
      </trkpt>
      <trkpt lat="47.80505" lon="-3.69758">
        <ele>39.5</ele>
        <time>2023-01-27T13:20:25Z</time>
      </trkpt>
      <trkpt lat="47.8051" lon="-3.69767">
        <ele>39.6</ele>
        <time>2023-01-27T13:20:27Z</time>
      </trkpt>
      <trkpt lat="47.80511" lon="-3.69769">
        <ele>39.6</ele>
        <time>2023-01-27T13:20:28Z</time>
      </trkpt>
      <trkpt lat="47.80514" lon="-3.69773">
        <ele>39.7</ele>
        <time>2023-01-27T13:20:30Z</time>
      </trkpt>
      <trkpt lat="47.80517" lon="-3.69776">
        <ele>39.7</ele>
        <time>2023-01-27T13:20:32Z</time>
      </trkpt>
      <trkpt lat="47.80521" lon="-3.69778">
        <ele>39.8</ele>
        <time>2023-01-27T13:20:33Z</time>
      </trkpt>
      <trkpt lat="47.80526" lon="-3.69781">
        <ele>39.9</ele>
        <time>2023-01-27T13:20:34Z</time>
      </trkpt>
      <trkpt lat="47.8053" lon="-3.69785">
        <ele>40.1</ele>
        <time>2023-01-27T13:20:35Z</time>
      </trkpt>
      <trkpt lat="47.80534" lon="-3.69786">
        <ele>40.2</ele>
        <time>2023-01-27T13:20:36Z</time>
      </trkpt>
      <trkpt lat="47.80538" lon="-3.69788">
        <ele>40.3</ele>
        <time>2023-01-27T13:20:37Z</time>
      </trkpt>
      <trkpt lat="47.80543" lon="-3.69789">
        <ele>40.4</ele>
        <time>2023-01-27T13:20:39Z</time>
      </trkpt>
      <trkpt lat="47.80545" lon="-3.6979">
        <ele>40.5</ele>
        <time>2023-01-27T13:20:40Z</time>
      </trkpt>
      <trkpt lat="47.80549" lon="-3.69792">
        <ele>40.6</ele>
        <time>2023-01-27T13:20:41Z</time>
      </trkpt>
      <trkpt lat="47.80555" lon="-3.69793">
        <ele>40.7</ele>
        <time>2023-01-27T13:20:42Z</time>
      </trkpt>
      <trkpt lat="47.80558" lon="-3.69787">
        <ele>40.9</ele>
        <time>2023-01-27T13:20:44Z</time>
      </trkpt>
      <trkpt lat="47.8056" lon="-3.69782">
        <ele>41</ele>
        <time>2023-01-27T13:20:45Z</time>
      </trkpt>
      <trkpt lat="47.8056" lon="-3.69778">
        <ele>41</ele>
        <time>2023-01-27T13:20:46Z</time>
      </trkpt>
      <trkpt lat="47.80561" lon="-3.69773">
        <ele>41.1</ele>
        <time>2023-01-27T13:20:47Z</time>
      </trkpt>
      <trkpt lat="47.80562" lon="-3.69768">
        <ele>41.1</ele>
        <time>2023-01-27T13:20:48Z</time>
      </trkpt>
      <trkpt lat="47.80562" lon="-3.69763">
        <ele>41.2</ele>
        <time>2023-01-27T13:20:49Z</time>
      </trkpt>
      <trkpt lat="47.80562" lon="-3.69758">
        <ele>41.3</ele>
        <time>2023-01-27T13:20:50Z</time>
      </trkpt>
      <trkpt lat="47.80563" lon="-3.69752">
        <ele>41.3</ele>
        <time>2023-01-27T13:20:51Z</time>
      </trkpt>
      <trkpt lat="47.80564" lon="-3.69746">
        <ele>41.4</ele>
        <time>2023-01-27T13:20:52Z</time>
      </trkpt>
      <trkpt lat="47.80564" lon="-3.6974">
        <ele>41.5</ele>
        <time>2023-01-27T13:20:53Z</time>
      </trkpt>
      <trkpt lat="47.80565" lon="-3.69733">
        <ele>41.5</ele>
        <time>2023-01-27T13:20:54Z</time>
      </trkpt>
      <trkpt lat="47.80566" lon="-3.69721">
        <ele>41.6</ele>
        <time>2023-01-27T13:20:55Z</time>
      </trkpt>
      <trkpt lat="47.80568" lon="-3.69714">
        <ele>41.7</ele>
        <time>2023-01-27T13:20:57Z</time>
      </trkpt>
      <trkpt lat="47.80569" lon="-3.69707">
        <ele>41.7</ele>
        <time>2023-01-27T13:20:58Z</time>
      </trkpt>
      <trkpt lat="47.80571" lon="-3.697">
        <ele>41.8</ele>
        <time>2023-01-27T13:20:59Z</time>
      </trkpt>
      <trkpt lat="47.80573" lon="-3.69693">
        <ele>41.8</ele>
        <time>2023-01-27T13:21:00Z</time>
      </trkpt>
      <trkpt lat="47.80575" lon="-3.69687">
        <ele>41.9</ele>
        <time>2023-01-27T13:21:01Z</time>
      </trkpt>
      <trkpt lat="47.80577" lon="-3.69681">
        <ele>41.9</ele>
        <time>2023-01-27T13:21:02Z</time>
      </trkpt>
      <trkpt lat="47.80582" lon="-3.69671">
        <ele>42</ele>
        <time>2023-01-27T13:21:04Z</time>
      </trkpt>
      <trkpt lat="47.80584" lon="-3.69664">
        <ele>42</ele>
        <time>2023-01-27T13:21:05Z</time>
      </trkpt>
      <trkpt lat="47.80586" lon="-3.69657">
        <ele>42.1</ele>
        <time>2023-01-27T13:21:06Z</time>
      </trkpt>
      <trkpt lat="47.80587" lon="-3.69651">
        <ele>42.1</ele>
        <time>2023-01-27T13:21:07Z</time>
      </trkpt>
      <trkpt lat="47.80589" lon="-3.69645">
        <ele>42.1</ele>
        <time>2023-01-27T13:21:08Z</time>
      </trkpt>
      <trkpt lat="47.80591" lon="-3.69639">
        <ele>42.2</ele>
        <time>2023-01-27T13:21:09Z</time>
      </trkpt>
      <trkpt lat="47.80593" lon="-3.69632">
        <ele>42.2</ele>
        <time>2023-01-27T13:21:10Z</time>
      </trkpt>
      <trkpt lat="47.80594" lon="-3.69626">
        <ele>42.3</ele>
        <time>2023-01-27T13:21:11Z</time>
      </trkpt>
      <trkpt lat="47.80596" lon="-3.69618">
        <ele>42.3</ele>
        <time>2023-01-27T13:21:12Z</time>
      </trkpt>
      <trkpt lat="47.80596" lon="-3.69612">
        <ele>42.4</ele>
        <time>2023-01-27T13:21:13Z</time>
      </trkpt>
      <trkpt lat="47.80594" lon="-3.69604">
        <ele>42.4</ele>
        <time>2023-01-27T13:21:14Z</time>
      </trkpt>
      <trkpt lat="47.80591" lon="-3.69595">
        <ele>42.3</ele>
        <time>2023-01-27T13:21:16Z</time>
      </trkpt>
      <trkpt lat="47.80588" lon="-3.69589">
        <ele>42.3</ele>
        <time>2023-01-27T13:21:17Z</time>
      </trkpt>
      <trkpt lat="47.80588" lon="-3.69582">
        <ele>42.3</ele>
        <time>2023-01-27T13:21:18Z</time>
      </trkpt>
      <trkpt lat="47.80588" lon="-3.69575">
        <ele>42.4</ele>
        <time>2023-01-27T13:21:19Z</time>
      </trkpt>
      <trkpt lat="47.80592" lon="-3.69569">
        <ele>42.5</ele>
        <time>2023-01-27T13:21:20Z</time>
      </trkpt>
      <trkpt lat="47.80597" lon="-3.69565">
        <ele>42.6</ele>
        <time>2023-01-27T13:21:21Z</time>
      </trkpt>
      <trkpt lat="47.80601" lon="-3.69563">
        <ele>42.8</ele>
        <time>2023-01-27T13:21:22Z</time>
      </trkpt>
      <trkpt lat="47.80605" lon="-3.69559">
        <ele>42.8</ele>
        <time>2023-01-27T13:21:23Z</time>
      </trkpt>
      <trkpt lat="47.80608" lon="-3.69555">
        <ele>42.9</ele>
        <time>2023-01-27T13:21:24Z</time>
      </trkpt>
      <trkpt lat="47.80611" lon="-3.6955">
        <ele>42.9</ele>
        <time>2023-01-27T13:21:25Z</time>
      </trkpt>
      <trkpt lat="47.80614" lon="-3.69545">
        <ele>43</ele>
        <time>2023-01-27T13:21:26Z</time>
      </trkpt>
      <trkpt lat="47.80615" lon="-3.69541">
        <ele>42.9</ele>
        <time>2023-01-27T13:21:27Z</time>
      </trkpt>
      <trkpt lat="47.80617" lon="-3.69533">
        <ele>42.9</ele>
        <time>2023-01-27T13:21:28Z</time>
      </trkpt>
      <trkpt lat="47.80618" lon="-3.69526">
        <ele>42.8</ele>
        <time>2023-01-27T13:21:29Z</time>
      </trkpt>
      <trkpt lat="47.80619" lon="-3.69519">
        <ele>42.7</ele>
        <time>2023-01-27T13:21:30Z</time>
      </trkpt>
      <trkpt lat="47.80621" lon="-3.69511">
        <ele>42.6</ele>
        <time>2023-01-27T13:21:31Z</time>
      </trkpt>
      <trkpt lat="47.80621" lon="-3.69503">
        <ele>42.5</ele>
        <time>2023-01-27T13:21:32Z</time>
      </trkpt>
      <trkpt lat="47.80622" lon="-3.69494">
        <ele>42.3</ele>
        <time>2023-01-27T13:21:33Z</time>
      </trkpt>
      <trkpt lat="47.80624" lon="-3.69486">
        <ele>42.2</ele>
        <time>2023-01-27T13:21:34Z</time>
      </trkpt>
      <trkpt lat="47.80626" lon="-3.6948">
        <ele>42</ele>
        <time>2023-01-27T13:21:35Z</time>
      </trkpt>
      <trkpt lat="47.8063" lon="-3.69476">
        <ele>41.3</ele>
        <time>2023-01-27T13:21:36Z</time>
      </trkpt>
      <trkpt lat="47.80632" lon="-3.69472">
        <ele>41.1</ele>
        <time>2023-01-27T13:21:37Z</time>
      </trkpt>
      <trkpt lat="47.80633" lon="-3.69466">
        <ele>40.8</ele>
        <time>2023-01-27T13:21:38Z</time>
      </trkpt>
      <trkpt lat="47.80634" lon="-3.6946">
        <ele>40.5</ele>
        <time>2023-01-27T13:21:39Z</time>
      </trkpt>
      <trkpt lat="47.80634" lon="-3.69453">
        <ele>40.2</ele>
        <time>2023-01-27T13:21:40Z</time>
      </trkpt>
      <trkpt lat="47.80635" lon="-3.69449">
        <ele>40</ele>
        <time>2023-01-27T13:21:41Z</time>
      </trkpt>
      <trkpt lat="47.80635" lon="-3.69441">
        <ele>39.6</ele>
        <time>2023-01-27T13:21:42Z</time>
      </trkpt>
      <trkpt lat="47.80635" lon="-3.69435">
        <ele>39.3</ele>
        <time>2023-01-27T13:21:43Z</time>
      </trkpt>
      <trkpt lat="47.80636" lon="-3.69427">
        <ele>38.9</ele>
        <time>2023-01-27T13:21:44Z</time>
      </trkpt>
      <trkpt lat="47.80636" lon="-3.6942">
        <ele>38.6</ele>
        <time>2023-01-27T13:21:45Z</time>
      </trkpt>
      <trkpt lat="47.80636" lon="-3.69413">
        <ele>38.2</ele>
        <time>2023-01-27T13:21:46Z</time>
      </trkpt>
      <trkpt lat="47.80636" lon="-3.69409">
        <ele>38.1</ele>
        <time>2023-01-27T13:21:47Z</time>
      </trkpt>
      <trkpt lat="47.80638" lon="-3.69401">
        <ele>37.6</ele>
        <time>2023-01-27T13:21:48Z</time>
      </trkpt>
      <trkpt lat="47.80638" lon="-3.69394">
        <ele>37.2</ele>
        <time>2023-01-27T13:21:49Z</time>
      </trkpt>
      <trkpt lat="47.80639" lon="-3.6939">
        <ele>37</ele>
        <time>2023-01-27T13:21:50Z</time>
      </trkpt>
      <trkpt lat="47.80638" lon="-3.69385">
        <ele>36.7</ele>
        <time>2023-01-27T13:21:52Z</time>
      </trkpt>
      <trkpt lat="47.80638" lon="-3.69381">
        <ele>36.4</ele>
        <time>2023-01-27T13:21:53Z</time>
      </trkpt>
      <trkpt lat="47.8064" lon="-3.69376">
        <ele>36.1</ele>
        <time>2023-01-27T13:21:54Z</time>
      </trkpt>
      <trkpt lat="47.80639" lon="-3.69369">
        <ele>35.7</ele>
        <time>2023-01-27T13:21:56Z</time>
      </trkpt>
      <trkpt lat="47.80637" lon="-3.69363">
        <ele>35.2</ele>
        <time>2023-01-27T13:21:58Z</time>
      </trkpt>
      <trkpt lat="47.80636" lon="-3.69352">
        <ele>34.6</ele>
        <time>2023-01-27T13:21:59Z</time>
      </trkpt>
      <trkpt lat="47.80635" lon="-3.69337">
        <ele>33.8</ele>
        <time>2023-01-27T13:22:01Z</time>
      </trkpt>
      <trkpt lat="47.80634" lon="-3.69333">
        <ele>33.6</ele>
        <time>2023-01-27T13:22:03Z</time>
      </trkpt>
      <trkpt lat="47.80633" lon="-3.69328">
        <ele>33.4</ele>
        <time>2023-01-27T13:22:04Z</time>
      </trkpt>
      <trkpt lat="47.80632" lon="-3.69321">
        <ele>33.2</ele>
        <time>2023-01-27T13:22:05Z</time>
      </trkpt>
      <trkpt lat="47.8063" lon="-3.69314">
        <ele>32.9</ele>
        <time>2023-01-27T13:22:06Z</time>
      </trkpt>
      <trkpt lat="47.8063" lon="-3.69309">
        <ele>32.7</ele>
        <time>2023-01-27T13:22:07Z</time>
      </trkpt>
      <trkpt lat="47.80628" lon="-3.69303">
        <ele>32.5</ele>
        <time>2023-01-27T13:22:08Z</time>
      </trkpt>
      <trkpt lat="47.80627" lon="-3.69297">
        <ele>32.3</ele>
        <time>2023-01-27T13:22:09Z</time>
      </trkpt>
      <trkpt lat="47.80626" lon="-3.69295">
        <ele>32.2</ele>
        <time>2023-01-27T13:22:10Z</time>
      </trkpt>
      <trkpt lat="47.80627" lon="-3.6929">
        <ele>32</ele>
        <time>2023-01-27T13:22:11Z</time>
      </trkpt>
      <trkpt lat="47.80626" lon="-3.69286">
        <ele>31.8</ele>
        <time>2023-01-27T13:22:12Z</time>
      </trkpt>
      <trkpt lat="47.80626" lon="-3.69282">
        <ele>31.6</ele>
        <time>2023-01-27T13:22:13Z</time>
      </trkpt>
      <trkpt lat="47.80624" lon="-3.69275">
        <ele>31.3</ele>
        <time>2023-01-27T13:22:15Z</time>
      </trkpt>
      <trkpt lat="47.80622" lon="-3.69267">
        <ele>30.9</ele>
        <time>2023-01-27T13:22:16Z</time>
      </trkpt>
      <trkpt lat="47.80622" lon="-3.69262">
        <ele>30.8</ele>
        <time>2023-01-27T13:22:17Z</time>
      </trkpt>
      <trkpt lat="47.80624" lon="-3.69257">
        <ele>30.5</ele>
        <time>2023-01-27T13:22:18Z</time>
      </trkpt>
      <trkpt lat="47.80627" lon="-3.6925">
        <ele>30.3</ele>
        <time>2023-01-27T13:22:20Z</time>
      </trkpt>
      <trkpt lat="47.8063" lon="-3.69241">
        <ele>30.2</ele>
        <time>2023-01-27T13:22:21Z</time>
      </trkpt>
      <trkpt lat="47.80633" lon="-3.69233">
        <ele>30.1</ele>
        <time>2023-01-27T13:22:22Z</time>
      </trkpt>
      <trkpt lat="47.80635" lon="-3.69226">
        <ele>30.1</ele>
        <time>2023-01-27T13:22:23Z</time>
      </trkpt>
      <trkpt lat="47.80637" lon="-3.69218">
        <ele>30.1</ele>
        <time>2023-01-27T13:22:24Z</time>
      </trkpt>
      <trkpt lat="47.8064" lon="-3.6921">
        <ele>30.1</ele>
        <time>2023-01-27T13:22:25Z</time>
      </trkpt>
      <trkpt lat="47.80643" lon="-3.69203">
        <ele>30.2</ele>
        <time>2023-01-27T13:22:26Z</time>
      </trkpt>
      <trkpt lat="47.80645" lon="-3.69198">
        <ele>30.4</ele>
        <time>2023-01-27T13:22:27Z</time>
      </trkpt>
      <trkpt lat="47.80647" lon="-3.69191">
        <ele>30.6</ele>
        <time>2023-01-27T13:22:28Z</time>
      </trkpt>
      <trkpt lat="47.80648" lon="-3.69185">
        <ele>30.8</ele>
        <time>2023-01-27T13:22:29Z</time>
      </trkpt>
      <trkpt lat="47.8065" lon="-3.6918">
        <ele>31</ele>
        <time>2023-01-27T13:22:30Z</time>
      </trkpt>
      <trkpt lat="47.80651" lon="-3.69175">
        <ele>31.3</ele>
        <time>2023-01-27T13:22:31Z</time>
      </trkpt>
      <trkpt lat="47.80652" lon="-3.69171">
        <ele>31.5</ele>
        <time>2023-01-27T13:22:32Z</time>
      </trkpt>
      <trkpt lat="47.80652" lon="-3.69167">
        <ele>31.7</ele>
        <time>2023-01-27T13:22:33Z</time>
      </trkpt>
      <trkpt lat="47.80654" lon="-3.69161">
        <ele>32</ele>
        <time>2023-01-27T13:22:34Z</time>
      </trkpt>
      <trkpt lat="47.80655" lon="-3.6916">
        <ele>32.1</ele>
        <time>2023-01-27T13:22:35Z</time>
      </trkpt>
      <trkpt lat="47.80655" lon="-3.69154">
        <ele>32.4</ele>
        <time>2023-01-27T13:22:36Z</time>
      </trkpt>
      <trkpt lat="47.80656" lon="-3.69152">
        <ele>32.5</ele>
        <time>2023-01-27T13:22:37Z</time>
      </trkpt>
      <trkpt lat="47.80656" lon="-3.69148">
        <ele>32.7</ele>
        <time>2023-01-27T13:22:38Z</time>
      </trkpt>
      <trkpt lat="47.80656" lon="-3.69142">
        <ele>32.8</ele>
        <time>2023-01-27T13:22:39Z</time>
      </trkpt>
      <trkpt lat="47.80656" lon="-3.69141">
        <ele>32.9</ele>
        <time>2023-01-27T13:22:40Z</time>
      </trkpt>
      <trkpt lat="47.80657" lon="-3.69134">
        <ele>33.2</ele>
        <time>2023-01-27T13:22:41Z</time>
      </trkpt>
      <trkpt lat="47.80656" lon="-3.69129">
        <ele>33.4</ele>
        <time>2023-01-27T13:22:42Z</time>
      </trkpt>
      <trkpt lat="47.80656" lon="-3.69126">
        <ele>33.5</ele>
        <time>2023-01-27T13:22:43Z</time>
      </trkpt>
      <trkpt lat="47.80655" lon="-3.69122">
        <ele>33.7</ele>
        <time>2023-01-27T13:22:44Z</time>
      </trkpt>
      <trkpt lat="47.80656" lon="-3.69117">
        <ele>33.9</ele>
        <time>2023-01-27T13:22:45Z</time>
      </trkpt>
      <trkpt lat="47.80656" lon="-3.69109">
        <ele>34.1</ele>
        <time>2023-01-27T13:22:47Z</time>
      </trkpt>
      <trkpt lat="47.80657" lon="-3.69104">
        <ele>34.3</ele>
        <time>2023-01-27T13:22:49Z</time>
      </trkpt>
      <trkpt lat="47.80658" lon="-3.691">
        <ele>34.4</ele>
        <time>2023-01-27T13:22:50Z</time>
      </trkpt>
      <trkpt lat="47.80658" lon="-3.69096">
        <ele>34.5</ele>
        <time>2023-01-27T13:22:51Z</time>
      </trkpt>
      <trkpt lat="47.80659" lon="-3.69092">
        <ele>34.6</ele>
        <time>2023-01-27T13:22:52Z</time>
      </trkpt>
      <trkpt lat="47.80661" lon="-3.69087">
        <ele>34.7</ele>
        <time>2023-01-27T13:22:53Z</time>
      </trkpt>
      <trkpt lat="47.80663" lon="-3.69083">
        <ele>34.8</ele>
        <time>2023-01-27T13:22:54Z</time>
      </trkpt>
      <trkpt lat="47.80663" lon="-3.69078">
        <ele>35</ele>
        <time>2023-01-27T13:22:55Z</time>
      </trkpt>
      <trkpt lat="47.80663" lon="-3.69076">
        <ele>35</ele>
        <time>2023-01-27T13:22:56Z</time>
      </trkpt>
      <trkpt lat="47.80663" lon="-3.69072">
        <ele>35.1</ele>
        <time>2023-01-27T13:22:57Z</time>
      </trkpt>
      <trkpt lat="47.80664" lon="-3.69067">
        <ele>35.2</ele>
        <time>2023-01-27T13:22:58Z</time>
      </trkpt>
      <trkpt lat="47.80664" lon="-3.69062">
        <ele>35.3</ele>
        <time>2023-01-27T13:22:59Z</time>
      </trkpt>
      <trkpt lat="47.80662" lon="-3.69058">
        <ele>35.4</ele>
        <time>2023-01-27T13:23:00Z</time>
      </trkpt>
      <trkpt lat="47.80661" lon="-3.69053">
        <ele>35.5</ele>
        <time>2023-01-27T13:23:01Z</time>
      </trkpt>
      <trkpt lat="47.80659" lon="-3.6905">
        <ele>35.6</ele>
        <time>2023-01-27T13:23:02Z</time>
      </trkpt>
      <trkpt lat="47.80657" lon="-3.69046">
        <ele>35.7</ele>
        <time>2023-01-27T13:23:03Z</time>
      </trkpt>
      <trkpt lat="47.80656" lon="-3.69041">
        <ele>35.9</ele>
        <time>2023-01-27T13:23:04Z</time>
      </trkpt>
      <trkpt lat="47.80656" lon="-3.69039">
        <ele>35.9</ele>
        <time>2023-01-27T13:23:05Z</time>
      </trkpt>
      <trkpt lat="47.80656" lon="-3.69033">
        <ele>36</ele>
        <time>2023-01-27T13:23:06Z</time>
      </trkpt>
      <trkpt lat="47.80656" lon="-3.69029">
        <ele>36</ele>
        <time>2023-01-27T13:23:07Z</time>
      </trkpt>
      <trkpt lat="47.80655" lon="-3.69025">
        <ele>36.1</ele>
        <time>2023-01-27T13:23:08Z</time>
      </trkpt>
      <trkpt lat="47.80654" lon="-3.6902">
        <ele>36.2</ele>
        <time>2023-01-27T13:23:09Z</time>
      </trkpt>
      <trkpt lat="47.80654" lon="-3.69014">
        <ele>36.3</ele>
        <time>2023-01-27T13:23:10Z</time>
      </trkpt>
      <trkpt lat="47.80653" lon="-3.69008">
        <ele>36.4</ele>
        <time>2023-01-27T13:23:11Z</time>
      </trkpt>
      <trkpt lat="47.80653" lon="-3.69003">
        <ele>36.5</ele>
        <time>2023-01-27T13:23:12Z</time>
      </trkpt>
      <trkpt lat="47.80653" lon="-3.68998">
        <ele>36.6</ele>
        <time>2023-01-27T13:23:13Z</time>
      </trkpt>
      <trkpt lat="47.80652" lon="-3.68992">
        <ele>36.7</ele>
        <time>2023-01-27T13:23:14Z</time>
      </trkpt>
      <trkpt lat="47.80652" lon="-3.68985">
        <ele>36.8</ele>
        <time>2023-01-27T13:23:15Z</time>
      </trkpt>
      <trkpt lat="47.80651" lon="-3.6898">
        <ele>36.9</ele>
        <time>2023-01-27T13:23:17Z</time>
      </trkpt>
      <trkpt lat="47.80651" lon="-3.68974">
        <ele>37</ele>
        <time>2023-01-27T13:23:18Z</time>
      </trkpt>
      <trkpt lat="47.80651" lon="-3.68969">
        <ele>37.1</ele>
        <time>2023-01-27T13:23:19Z</time>
      </trkpt>
      <trkpt lat="47.80651" lon="-3.68963">
        <ele>37.2</ele>
        <time>2023-01-27T13:23:20Z</time>
      </trkpt>
      <trkpt lat="47.80651" lon="-3.68959">
        <ele>37.3</ele>
        <time>2023-01-27T13:23:21Z</time>
      </trkpt>
      <trkpt lat="47.8065" lon="-3.68954">
        <ele>37.4</ele>
        <time>2023-01-27T13:23:22Z</time>
      </trkpt>
      <trkpt lat="47.80649" lon="-3.68951">
        <ele>37.4</ele>
        <time>2023-01-27T13:23:23Z</time>
      </trkpt>
      <trkpt lat="47.80649" lon="-3.68946">
        <ele>37.5</ele>
        <time>2023-01-27T13:23:24Z</time>
      </trkpt>
      <trkpt lat="47.80649" lon="-3.68941">
        <ele>37.6</ele>
        <time>2023-01-27T13:23:25Z</time>
      </trkpt>
      <trkpt lat="47.8065" lon="-3.68937">
        <ele>37.7</ele>
        <time>2023-01-27T13:23:26Z</time>
      </trkpt>
      <trkpt lat="47.80651" lon="-3.68933">
        <ele>37.7</ele>
        <time>2023-01-27T13:23:27Z</time>
      </trkpt>
      <trkpt lat="47.80652" lon="-3.68928">
        <ele>37.8</ele>
        <time>2023-01-27T13:23:28Z</time>
      </trkpt>
      <trkpt lat="47.80654" lon="-3.68924">
        <ele>37.8</ele>
        <time>2023-01-27T13:23:29Z</time>
      </trkpt>
      <trkpt lat="47.80655" lon="-3.68919">
        <ele>37.9</ele>
        <time>2023-01-27T13:23:30Z</time>
      </trkpt>
      <trkpt lat="47.80657" lon="-3.68914">
        <ele>37.9</ele>
        <time>2023-01-27T13:23:31Z</time>
      </trkpt>
      <trkpt lat="47.80658" lon="-3.68908">
        <ele>37.9</ele>
        <time>2023-01-27T13:23:32Z</time>
      </trkpt>
      <trkpt lat="47.8066" lon="-3.68902">
        <ele>38</ele>
        <time>2023-01-27T13:23:33Z</time>
      </trkpt>
      <trkpt lat="47.80661" lon="-3.68896">
        <ele>38</ele>
        <time>2023-01-27T13:23:34Z</time>
      </trkpt>
      <trkpt lat="47.80662" lon="-3.68892">
        <ele>38</ele>
        <time>2023-01-27T13:23:35Z</time>
      </trkpt>
      <trkpt lat="47.80662" lon="-3.68887">
        <ele>38</ele>
        <time>2023-01-27T13:23:36Z</time>
      </trkpt>
      <trkpt lat="47.80661" lon="-3.68882">
        <ele>38.1</ele>
        <time>2023-01-27T13:23:37Z</time>
      </trkpt>
      <trkpt lat="47.80659" lon="-3.68876">
        <ele>38.1</ele>
        <time>2023-01-27T13:23:38Z</time>
      </trkpt>
      <trkpt lat="47.80659" lon="-3.68869">
        <ele>38.2</ele>
        <time>2023-01-27T13:23:39Z</time>
      </trkpt>
      <trkpt lat="47.80659" lon="-3.68865">
        <ele>38.3</ele>
        <time>2023-01-27T13:23:40Z</time>
      </trkpt>
      <trkpt lat="47.8066" lon="-3.6886">
        <ele>38.3</ele>
        <time>2023-01-27T13:23:41Z</time>
      </trkpt>
      <trkpt lat="47.8066" lon="-3.68854">
        <ele>38.4</ele>
        <time>2023-01-27T13:23:42Z</time>
      </trkpt>
      <trkpt lat="47.8066" lon="-3.68848">
        <ele>38.5</ele>
        <time>2023-01-27T13:23:43Z</time>
      </trkpt>
      <trkpt lat="47.8066" lon="-3.68844">
        <ele>38.6</ele>
        <time>2023-01-27T13:23:44Z</time>
      </trkpt>
      <trkpt lat="47.80659" lon="-3.6884">
        <ele>38.6</ele>
        <time>2023-01-27T13:23:45Z</time>
      </trkpt>
      <trkpt lat="47.80657" lon="-3.68833">
        <ele>38.8</ele>
        <time>2023-01-27T13:23:46Z</time>
      </trkpt>
      <trkpt lat="47.80656" lon="-3.68828">
        <ele>38.8</ele>
        <time>2023-01-27T13:23:47Z</time>
      </trkpt>
      <trkpt lat="47.80655" lon="-3.68824">
        <ele>38.9</ele>
        <time>2023-01-27T13:23:48Z</time>
      </trkpt>
      <trkpt lat="47.80654" lon="-3.68817">
        <ele>39</ele>
        <time>2023-01-27T13:23:50Z</time>
      </trkpt>
      <trkpt lat="47.80653" lon="-3.68811">
        <ele>39</ele>
        <time>2023-01-27T13:23:51Z</time>
      </trkpt>
      <trkpt lat="47.80652" lon="-3.688">
        <ele>39.1</ele>
        <time>2023-01-27T13:23:52Z</time>
      </trkpt>
      <trkpt lat="47.80651" lon="-3.68794">
        <ele>39.1</ele>
        <time>2023-01-27T13:23:54Z</time>
      </trkpt>
      <trkpt lat="47.8065" lon="-3.68788">
        <ele>39</ele>
        <time>2023-01-27T13:23:55Z</time>
      </trkpt>
      <trkpt lat="47.80649" lon="-3.68783">
        <ele>39</ele>
        <time>2023-01-27T13:23:56Z</time>
      </trkpt>
      <trkpt lat="47.80648" lon="-3.68778">
        <ele>39</ele>
        <time>2023-01-27T13:23:57Z</time>
      </trkpt>
      <trkpt lat="47.80649" lon="-3.68767">
        <ele>38.9</ele>
        <time>2023-01-27T13:23:58Z</time>
      </trkpt>
      <trkpt lat="47.80652" lon="-3.68762">
        <ele>38.8</ele>
        <time>2023-01-27T13:24:00Z</time>
      </trkpt>
      <trkpt lat="47.80657" lon="-3.68757">
        <ele>38.6</ele>
        <time>2023-01-27T13:24:01Z</time>
      </trkpt>
      <trkpt lat="47.80663" lon="-3.68753">
        <ele>38.5</ele>
        <time>2023-01-27T13:24:02Z</time>
      </trkpt>
      <trkpt lat="47.80666" lon="-3.68749">
        <ele>38.4</ele>
        <time>2023-01-27T13:24:03Z</time>
      </trkpt>
      <trkpt lat="47.8067" lon="-3.68743">
        <ele>38.3</ele>
        <time>2023-01-27T13:24:04Z</time>
      </trkpt>
      <trkpt lat="47.80672" lon="-3.6874">
        <ele>38.2</ele>
        <time>2023-01-27T13:24:05Z</time>
      </trkpt>
      <trkpt lat="47.80675" lon="-3.68735">
        <ele>38.1</ele>
        <time>2023-01-27T13:24:06Z</time>
      </trkpt>
      <trkpt lat="47.80678" lon="-3.6873">
        <ele>38.1</ele>
        <time>2023-01-27T13:24:07Z</time>
      </trkpt>
      <trkpt lat="47.8068" lon="-3.68724">
        <ele>38.1</ele>
        <time>2023-01-27T13:24:08Z</time>
      </trkpt>
      <trkpt lat="47.8068" lon="-3.68721">
        <ele>38.1</ele>
        <time>2023-01-27T13:24:09Z</time>
      </trkpt>
      <trkpt lat="47.80681" lon="-3.68714">
        <ele>38.2</ele>
        <time>2023-01-27T13:24:10Z</time>
      </trkpt>
      <trkpt lat="47.80682" lon="-3.68704">
        <ele>38.3</ele>
        <time>2023-01-27T13:24:12Z</time>
      </trkpt>
      <trkpt lat="47.80683" lon="-3.68696">
        <ele>38.4</ele>
        <time>2023-01-27T13:24:14Z</time>
      </trkpt>
      <trkpt lat="47.80685" lon="-3.68689">
        <ele>38.5</ele>
        <time>2023-01-27T13:24:16Z</time>
      </trkpt>
      <trkpt lat="47.80687" lon="-3.68684">
        <ele>38.6</ele>
        <time>2023-01-27T13:24:17Z</time>
      </trkpt>
      <trkpt lat="47.80688" lon="-3.68678">
        <ele>38.7</ele>
        <time>2023-01-27T13:24:18Z</time>
      </trkpt>
      <trkpt lat="47.8069" lon="-3.68673">
        <ele>38.8</ele>
        <time>2023-01-27T13:24:19Z</time>
      </trkpt>
      <trkpt lat="47.80692" lon="-3.68664">
        <ele>39</ele>
        <time>2023-01-27T13:24:20Z</time>
      </trkpt>
      <trkpt lat="47.80693" lon="-3.68658">
        <ele>39.1</ele>
        <time>2023-01-27T13:24:21Z</time>
      </trkpt>
      <trkpt lat="47.80693" lon="-3.68652">
        <ele>39.2</ele>
        <time>2023-01-27T13:24:22Z</time>
      </trkpt>
      <trkpt lat="47.80693" lon="-3.68646">
        <ele>39.3</ele>
        <time>2023-01-27T13:24:23Z</time>
      </trkpt>
      <trkpt lat="47.80694" lon="-3.68641">
        <ele>39.2</ele>
        <time>2023-01-27T13:24:24Z</time>
      </trkpt>
      <trkpt lat="47.80696" lon="-3.68636">
        <ele>39.1</ele>
        <time>2023-01-27T13:24:25Z</time>
      </trkpt>
      <trkpt lat="47.80698" lon="-3.68631">
        <ele>39.1</ele>
        <time>2023-01-27T13:24:26Z</time>
      </trkpt>
      <trkpt lat="47.80701" lon="-3.68626">
        <ele>39</ele>
        <time>2023-01-27T13:24:27Z</time>
      </trkpt>
      <trkpt lat="47.80704" lon="-3.68621">
        <ele>38.9</ele>
        <time>2023-01-27T13:24:28Z</time>
      </trkpt>
      <trkpt lat="47.80706" lon="-3.68616">
        <ele>38.8</ele>
        <time>2023-01-27T13:24:29Z</time>
      </trkpt>
      <trkpt lat="47.8071" lon="-3.68611">
        <ele>38.7</ele>
        <time>2023-01-27T13:24:30Z</time>
      </trkpt>
      <trkpt lat="47.80713" lon="-3.68606">
        <ele>38.5</ele>
        <time>2023-01-27T13:24:31Z</time>
      </trkpt>
      <trkpt lat="47.80716" lon="-3.686">
        <ele>38.4</ele>
        <time>2023-01-27T13:24:32Z</time>
      </trkpt>
      <trkpt lat="47.8072" lon="-3.68595">
        <ele>38.3</ele>
        <time>2023-01-27T13:24:33Z</time>
      </trkpt>
      <trkpt lat="47.80723" lon="-3.68588">
        <ele>38.2</ele>
        <time>2023-01-27T13:24:34Z</time>
      </trkpt>
      <trkpt lat="47.80725" lon="-3.68582">
        <ele>38.1</ele>
        <time>2023-01-27T13:24:35Z</time>
      </trkpt>
      <trkpt lat="47.80728" lon="-3.68576">
        <ele>37.9</ele>
        <time>2023-01-27T13:24:36Z</time>
      </trkpt>
      <trkpt lat="47.80731" lon="-3.68569">
        <ele>37.8</ele>
        <time>2023-01-27T13:24:37Z</time>
      </trkpt>
      <trkpt lat="47.80734" lon="-3.68562">
        <ele>37.7</ele>
        <time>2023-01-27T13:24:38Z</time>
      </trkpt>
      <trkpt lat="47.80736" lon="-3.68556">
        <ele>37.5</ele>
        <time>2023-01-27T13:24:39Z</time>
      </trkpt>
      <trkpt lat="47.80739" lon="-3.68549">
        <ele>37.4</ele>
        <time>2023-01-27T13:24:40Z</time>
      </trkpt>
      <trkpt lat="47.80743" lon="-3.68542">
        <ele>37.2</ele>
        <time>2023-01-27T13:24:41Z</time>
      </trkpt>
      <trkpt lat="47.80746" lon="-3.68535">
        <ele>37.1</ele>
        <time>2023-01-27T13:24:42Z</time>
      </trkpt>
      <trkpt lat="47.80749" lon="-3.68528">
        <ele>36.9</ele>
        <time>2023-01-27T13:24:43Z</time>
      </trkpt>
      <trkpt lat="47.80752" lon="-3.68521">
        <ele>36.7</ele>
        <time>2023-01-27T13:24:44Z</time>
      </trkpt>
      <trkpt lat="47.80755" lon="-3.68514">
        <ele>36.5</ele>
        <time>2023-01-27T13:24:45Z</time>
      </trkpt>
      <trkpt lat="47.80758" lon="-3.68507">
        <ele>36.3</ele>
        <time>2023-01-27T13:24:46Z</time>
      </trkpt>
      <trkpt lat="47.80761" lon="-3.68499">
        <ele>36.1</ele>
        <time>2023-01-27T13:24:47Z</time>
      </trkpt>
      <trkpt lat="47.80765" lon="-3.68491">
        <ele>35.8</ele>
        <time>2023-01-27T13:24:48Z</time>
      </trkpt>
      <trkpt lat="47.80767" lon="-3.68482">
        <ele>35.6</ele>
        <time>2023-01-27T13:24:49Z</time>
      </trkpt>
      <trkpt lat="47.8077" lon="-3.68472">
        <ele>35.3</ele>
        <time>2023-01-27T13:24:50Z</time>
      </trkpt>
      <trkpt lat="47.80772" lon="-3.68463">
        <ele>35</ele>
        <time>2023-01-27T13:24:51Z</time>
      </trkpt>
      <trkpt lat="47.80774" lon="-3.68453">
        <ele>34.7</ele>
        <time>2023-01-27T13:24:52Z</time>
      </trkpt>
      <trkpt lat="47.80776" lon="-3.68444">
        <ele>34.5</ele>
        <time>2023-01-27T13:24:53Z</time>
      </trkpt>
      <trkpt lat="47.80778" lon="-3.68434">
        <ele>34.2</ele>
        <time>2023-01-27T13:24:54Z</time>
      </trkpt>
      <trkpt lat="47.80779" lon="-3.68424">
        <ele>34</ele>
        <time>2023-01-27T13:24:55Z</time>
      </trkpt>
      <trkpt lat="47.80779" lon="-3.68414">
        <ele>33.9</ele>
        <time>2023-01-27T13:24:56Z</time>
      </trkpt>
      <trkpt lat="47.8078" lon="-3.68403">
        <ele>33.7</ele>
        <time>2023-01-27T13:24:57Z</time>
      </trkpt>
      <trkpt lat="47.80782" lon="-3.68393">
        <ele>33.6</ele>
        <time>2023-01-27T13:24:58Z</time>
      </trkpt>
      <trkpt lat="47.80782" lon="-3.68383">
        <ele>33.4</ele>
        <time>2023-01-27T13:24:59Z</time>
      </trkpt>
      <trkpt lat="47.80783" lon="-3.68374">
        <ele>33.3</ele>
        <time>2023-01-27T13:25:00Z</time>
      </trkpt>
      <trkpt lat="47.80784" lon="-3.68364">
        <ele>33.2</ele>
        <time>2023-01-27T13:25:01Z</time>
      </trkpt>
      <trkpt lat="47.80784" lon="-3.68355">
        <ele>33</ele>
        <time>2023-01-27T13:25:02Z</time>
      </trkpt>
      <trkpt lat="47.80784" lon="-3.68346">
        <ele>32.9</ele>
        <time>2023-01-27T13:25:03Z</time>
      </trkpt>
      <trkpt lat="47.80785" lon="-3.68338">
        <ele>32.8</ele>
        <time>2023-01-27T13:25:04Z</time>
      </trkpt>
      <trkpt lat="47.80786" lon="-3.6833">
        <ele>32.8</ele>
        <time>2023-01-27T13:25:05Z</time>
      </trkpt>
      <trkpt lat="47.80786" lon="-3.68321">
        <ele>32.7</ele>
        <time>2023-01-27T13:25:06Z</time>
      </trkpt>
      <trkpt lat="47.80787" lon="-3.68313">
        <ele>32.7</ele>
        <time>2023-01-27T13:25:07Z</time>
      </trkpt>
      <trkpt lat="47.80788" lon="-3.68305">
        <ele>32.6</ele>
        <time>2023-01-27T13:25:08Z</time>
      </trkpt>
      <trkpt lat="47.80788" lon="-3.68297">
        <ele>32.6</ele>
        <time>2023-01-27T13:25:09Z</time>
      </trkpt>
      <trkpt lat="47.80788" lon="-3.6829">
        <ele>32.5</ele>
        <time>2023-01-27T13:25:10Z</time>
      </trkpt>
      <trkpt lat="47.80789" lon="-3.68283">
        <ele>32.5</ele>
        <time>2023-01-27T13:25:11Z</time>
      </trkpt>
      <trkpt lat="47.80791" lon="-3.68276">
        <ele>32.4</ele>
        <time>2023-01-27T13:25:12Z</time>
      </trkpt>
      <trkpt lat="47.80795" lon="-3.6827">
        <ele>32.2</ele>
        <time>2023-01-27T13:25:13Z</time>
      </trkpt>
      <trkpt lat="47.80799" lon="-3.68265">
        <ele>32</ele>
        <time>2023-01-27T13:25:14Z</time>
      </trkpt>
      <trkpt lat="47.80804" lon="-3.6826">
        <ele>31.8</ele>
        <time>2023-01-27T13:25:15Z</time>
      </trkpt>
      <trkpt lat="47.80809" lon="-3.68254">
        <ele>31.5</ele>
        <time>2023-01-27T13:25:16Z</time>
      </trkpt>
      <trkpt lat="47.80814" lon="-3.68247">
        <ele>31.3</ele>
        <time>2023-01-27T13:25:17Z</time>
      </trkpt>
      <trkpt lat="47.80819" lon="-3.68241">
        <ele>31</ele>
        <time>2023-01-27T13:25:18Z</time>
      </trkpt>
      <trkpt lat="47.80825" lon="-3.68234">
        <ele>30.7</ele>
        <time>2023-01-27T13:25:19Z</time>
      </trkpt>
      <trkpt lat="47.8083" lon="-3.68226">
        <ele>30.5</ele>
        <time>2023-01-27T13:25:20Z</time>
      </trkpt>
      <trkpt lat="47.80836" lon="-3.68219">
        <ele>30.3</ele>
        <time>2023-01-27T13:25:21Z</time>
      </trkpt>
      <trkpt lat="47.80841" lon="-3.68212">
        <ele>30.2</ele>
        <time>2023-01-27T13:25:22Z</time>
      </trkpt>
      <trkpt lat="47.80847" lon="-3.68205">
        <ele>30.1</ele>
        <time>2023-01-27T13:25:23Z</time>
      </trkpt>
      <trkpt lat="47.80853" lon="-3.68199">
        <ele>30</ele>
        <time>2023-01-27T13:25:24Z</time>
      </trkpt>
      <trkpt lat="47.80859" lon="-3.68193">
        <ele>30</ele>
        <time>2023-01-27T13:25:25Z</time>
      </trkpt>
      <trkpt lat="47.80865" lon="-3.68188">
        <ele>30.1</ele>
        <time>2023-01-27T13:25:26Z</time>
      </trkpt>
      <trkpt lat="47.80871" lon="-3.68184">
        <ele>30.2</ele>
        <time>2023-01-27T13:25:27Z</time>
      </trkpt>
      <trkpt lat="47.80877" lon="-3.68181">
        <ele>30.3</ele>
        <time>2023-01-27T13:25:28Z</time>
      </trkpt>
      <trkpt lat="47.80883" lon="-3.68178">
        <ele>30.6</ele>
        <time>2023-01-27T13:25:29Z</time>
      </trkpt>
      <trkpt lat="47.80889" lon="-3.68175">
        <ele>30.8</ele>
        <time>2023-01-27T13:25:30Z</time>
      </trkpt>
      <trkpt lat="47.80894" lon="-3.68172">
        <ele>31.1</ele>
        <time>2023-01-27T13:25:31Z</time>
      </trkpt>
      <trkpt lat="47.809" lon="-3.6817">
        <ele>31.3</ele>
        <time>2023-01-27T13:25:32Z</time>
      </trkpt>
      <trkpt lat="47.80905" lon="-3.68169">
        <ele>31.6</ele>
        <time>2023-01-27T13:25:33Z</time>
      </trkpt>
      <trkpt lat="47.8091" lon="-3.68167">
        <ele>31.8</ele>
        <time>2023-01-27T13:25:34Z</time>
      </trkpt>
      <trkpt lat="47.80915" lon="-3.68166">
        <ele>32</ele>
        <time>2023-01-27T13:25:35Z</time>
      </trkpt>
      <trkpt lat="47.80919" lon="-3.68165">
        <ele>32.3</ele>
        <time>2023-01-27T13:25:36Z</time>
      </trkpt>
      <trkpt lat="47.80923" lon="-3.68162">
        <ele>32.7</ele>
        <time>2023-01-27T13:25:37Z</time>
      </trkpt>
      <trkpt lat="47.80926" lon="-3.68156">
        <ele>33</ele>
        <time>2023-01-27T13:25:38Z</time>
      </trkpt>
      <trkpt lat="47.80926" lon="-3.68149">
        <ele>33.1</ele>
        <time>2023-01-27T13:25:39Z</time>
      </trkpt>
      <trkpt lat="47.80924" lon="-3.68146">
        <ele>33.2</ele>
        <time>2023-01-27T13:25:40Z</time>
      </trkpt>
      <trkpt lat="47.80919" lon="-3.68139">
        <ele>33.3</ele>
        <time>2023-01-27T13:25:41Z</time>
      </trkpt>
      <trkpt lat="47.80915" lon="-3.68134">
        <ele>33.4</ele>
        <time>2023-01-27T13:25:42Z</time>
      </trkpt>
      <trkpt lat="47.80911" lon="-3.68129">
        <ele>33.4</ele>
        <time>2023-01-27T13:25:43Z</time>
      </trkpt>
      <trkpt lat="47.80907" lon="-3.68124">
        <ele>33.4</ele>
        <time>2023-01-27T13:25:44Z</time>
      </trkpt>
      <trkpt lat="47.80903" lon="-3.68118">
        <ele>33.4</ele>
        <time>2023-01-27T13:25:45Z</time>
      </trkpt>
      <trkpt lat="47.80899" lon="-3.68113">
        <ele>33.4</ele>
        <time>2023-01-27T13:25:46Z</time>
      </trkpt>
      <trkpt lat="47.80895" lon="-3.68107">
        <ele>33.5</ele>
        <time>2023-01-27T13:25:47Z</time>
      </trkpt>
      <trkpt lat="47.80891" lon="-3.68102">
        <ele>33.6</ele>
        <time>2023-01-27T13:25:48Z</time>
      </trkpt>
      <trkpt lat="47.80887" lon="-3.68096">
        <ele>33.7</ele>
        <time>2023-01-27T13:25:49Z</time>
      </trkpt>
      <trkpt lat="47.80884" lon="-3.68091">
        <ele>33.8</ele>
        <time>2023-01-27T13:25:50Z</time>
      </trkpt>
      <trkpt lat="47.8088" lon="-3.68085">
        <ele>33.9</ele>
        <time>2023-01-27T13:25:51Z</time>
      </trkpt>
      <trkpt lat="47.80876" lon="-3.6808">
        <ele>34</ele>
        <time>2023-01-27T13:25:52Z</time>
      </trkpt>
      <trkpt lat="47.80873" lon="-3.68074">
        <ele>34.2</ele>
        <time>2023-01-27T13:25:53Z</time>
      </trkpt>
      <trkpt lat="47.8087" lon="-3.68068">
        <ele>34.4</ele>
        <time>2023-01-27T13:25:54Z</time>
      </trkpt>
      <trkpt lat="47.80866" lon="-3.68063">
        <ele>34.5</ele>
        <time>2023-01-27T13:25:55Z</time>
      </trkpt>
      <trkpt lat="47.80863" lon="-3.68058">
        <ele>34.7</ele>
        <time>2023-01-27T13:25:56Z</time>
      </trkpt>
      <trkpt lat="47.80859" lon="-3.68052">
        <ele>34.9</ele>
        <time>2023-01-27T13:25:57Z</time>
      </trkpt>
      <trkpt lat="47.80856" lon="-3.68047">
        <ele>35.1</ele>
        <time>2023-01-27T13:25:58Z</time>
      </trkpt>
      <trkpt lat="47.80853" lon="-3.68041">
        <ele>35.3</ele>
        <time>2023-01-27T13:25:59Z</time>
      </trkpt>
      <trkpt lat="47.8085" lon="-3.68035">
        <ele>35.5</ele>
        <time>2023-01-27T13:26:00Z</time>
      </trkpt>
      <trkpt lat="47.80847" lon="-3.68029">
        <ele>35.6</ele>
        <time>2023-01-27T13:26:01Z</time>
      </trkpt>
      <trkpt lat="47.80845" lon="-3.68022">
        <ele>35.8</ele>
        <time>2023-01-27T13:26:02Z</time>
      </trkpt>
      <trkpt lat="47.80842" lon="-3.68015">
        <ele>36</ele>
        <time>2023-01-27T13:26:03Z</time>
      </trkpt>
      <trkpt lat="47.8084" lon="-3.68009">
        <ele>36.1</ele>
        <time>2023-01-27T13:26:04Z</time>
      </trkpt>
      <trkpt lat="47.80837" lon="-3.68003">
        <ele>36.2</ele>
        <time>2023-01-27T13:26:05Z</time>
      </trkpt>
      <trkpt lat="47.80835" lon="-3.67997">
        <ele>36.3</ele>
        <time>2023-01-27T13:26:06Z</time>
      </trkpt>
      <trkpt lat="47.80833" lon="-3.67991">
        <ele>36.4</ele>
        <time>2023-01-27T13:26:07Z</time>
      </trkpt>
      <trkpt lat="47.8083" lon="-3.67985">
        <ele>36.5</ele>
        <time>2023-01-27T13:26:08Z</time>
      </trkpt>
      <trkpt lat="47.80827" lon="-3.67979">
        <ele>36.6</ele>
        <time>2023-01-27T13:26:09Z</time>
      </trkpt>
      <trkpt lat="47.80825" lon="-3.67973">
        <ele>36.7</ele>
        <time>2023-01-27T13:26:10Z</time>
      </trkpt>
      <trkpt lat="47.80822" lon="-3.67968">
        <ele>36.8</ele>
        <time>2023-01-27T13:26:11Z</time>
      </trkpt>
      <trkpt lat="47.80819" lon="-3.67965">
        <ele>36.8</ele>
        <time>2023-01-27T13:26:12Z</time>
      </trkpt>
      <trkpt lat="47.80817" lon="-3.67958">
        <ele>36.8</ele>
        <time>2023-01-27T13:26:13Z</time>
      </trkpt>
      <trkpt lat="47.80815" lon="-3.67952">
        <ele>36.9</ele>
        <time>2023-01-27T13:26:14Z</time>
      </trkpt>
      <trkpt lat="47.80812" lon="-3.67944">
        <ele>37</ele>
        <time>2023-01-27T13:26:15Z</time>
      </trkpt>
      <trkpt lat="47.80809" lon="-3.67938">
        <ele>37</ele>
        <time>2023-01-27T13:26:16Z</time>
      </trkpt>
      <trkpt lat="47.80807" lon="-3.67932">
        <ele>37.1</ele>
        <time>2023-01-27T13:26:17Z</time>
      </trkpt>
      <trkpt lat="47.80805" lon="-3.67928">
        <ele>37.1</ele>
        <time>2023-01-27T13:26:18Z</time>
      </trkpt>
      <trkpt lat="47.80801" lon="-3.67923">
        <ele>37.1</ele>
        <time>2023-01-27T13:26:19Z</time>
      </trkpt>
      <trkpt lat="47.80798" lon="-3.67916">
        <ele>37.2</ele>
        <time>2023-01-27T13:26:20Z</time>
      </trkpt>
      <trkpt lat="47.80796" lon="-3.67907">
        <ele>37.2</ele>
        <time>2023-01-27T13:26:21Z</time>
      </trkpt>
      <trkpt lat="47.80793" lon="-3.67898">
        <ele>37.2</ele>
        <time>2023-01-27T13:26:22Z</time>
      </trkpt>
      <trkpt lat="47.80792" lon="-3.67891">
        <ele>37.2</ele>
        <time>2023-01-27T13:26:23Z</time>
      </trkpt>
      <trkpt lat="47.80793" lon="-3.67886">
        <ele>37.2</ele>
        <time>2023-01-27T13:26:24Z</time>
      </trkpt>
      <trkpt lat="47.80792" lon="-3.67879">
        <ele>37.1</ele>
        <time>2023-01-27T13:26:25Z</time>
      </trkpt>
      <trkpt lat="47.8079" lon="-3.67871">
        <ele>37.1</ele>
        <time>2023-01-27T13:26:26Z</time>
      </trkpt>
      <trkpt lat="47.80789" lon="-3.67862">
        <ele>37.1</ele>
        <time>2023-01-27T13:26:27Z</time>
      </trkpt>
      <trkpt lat="47.80788" lon="-3.67854">
        <ele>37.1</ele>
        <time>2023-01-27T13:26:28Z</time>
      </trkpt>
      <trkpt lat="47.80787" lon="-3.67846">
        <ele>37.1</ele>
        <time>2023-01-27T13:26:29Z</time>
      </trkpt>
      <trkpt lat="47.80786" lon="-3.67839">
        <ele>37.1</ele>
        <time>2023-01-27T13:26:30Z</time>
      </trkpt>
      <trkpt lat="47.80785" lon="-3.67833">
        <ele>37.2</ele>
        <time>2023-01-27T13:26:31Z</time>
      </trkpt>
      <trkpt lat="47.80783" lon="-3.67825">
        <ele>37.2</ele>
        <time>2023-01-27T13:26:32Z</time>
      </trkpt>
      <trkpt lat="47.80781" lon="-3.67817">
        <ele>37.2</ele>
        <time>2023-01-27T13:26:33Z</time>
      </trkpt>
      <trkpt lat="47.80781" lon="-3.67808">
        <ele>37.3</ele>
        <time>2023-01-27T13:26:34Z</time>
      </trkpt>
      <trkpt lat="47.80779" lon="-3.67801">
        <ele>37.4</ele>
        <time>2023-01-27T13:26:35Z</time>
      </trkpt>
      <trkpt lat="47.80778" lon="-3.67794">
        <ele>37.5</ele>
        <time>2023-01-27T13:26:36Z</time>
      </trkpt>
      <trkpt lat="47.80775" lon="-3.67787">
        <ele>37.7</ele>
        <time>2023-01-27T13:26:37Z</time>
      </trkpt>
      <trkpt lat="47.80771" lon="-3.6778">
        <ele>38</ele>
        <time>2023-01-27T13:26:39Z</time>
      </trkpt>
      <trkpt lat="47.80766" lon="-3.67772">
        <ele>38.2</ele>
        <time>2023-01-27T13:26:40Z</time>
      </trkpt>
      <trkpt lat="47.80763" lon="-3.67766">
        <ele>38.4</ele>
        <time>2023-01-27T13:26:41Z</time>
      </trkpt>
      <trkpt lat="47.8076" lon="-3.67755">
        <ele>38.7</ele>
        <time>2023-01-27T13:26:43Z</time>
      </trkpt>
      <trkpt lat="47.80758" lon="-3.67749">
        <ele>38.9</ele>
        <time>2023-01-27T13:26:45Z</time>
      </trkpt>
      <trkpt lat="47.80752" lon="-3.67738">
        <ele>39.3</ele>
        <time>2023-01-27T13:26:46Z</time>
      </trkpt>
      <trkpt lat="47.80747" lon="-3.67731">
        <ele>39.6</ele>
        <time>2023-01-27T13:26:48Z</time>
      </trkpt>
      <trkpt lat="47.80743" lon="-3.67728">
        <ele>39.8</ele>
        <time>2023-01-27T13:26:49Z</time>
      </trkpt>
      <trkpt lat="47.80739" lon="-3.67716">
        <ele>40.1</ele>
        <time>2023-01-27T13:26:50Z</time>
      </trkpt>
      <trkpt lat="47.80737" lon="-3.67711">
        <ele>40.3</ele>
        <time>2023-01-27T13:26:52Z</time>
      </trkpt>
      <trkpt lat="47.80735" lon="-3.67706">
        <ele>40.4</ele>
        <time>2023-01-27T13:26:53Z</time>
      </trkpt>
      <trkpt lat="47.80733" lon="-3.67701">
        <ele>40.6</ele>
        <time>2023-01-27T13:26:54Z</time>
      </trkpt>
      <trkpt lat="47.8073" lon="-3.67697">
        <ele>40.8</ele>
        <time>2023-01-27T13:26:55Z</time>
      </trkpt>
      <trkpt lat="47.80727" lon="-3.67691">
        <ele>41.1</ele>
        <time>2023-01-27T13:26:56Z</time>
      </trkpt>
      <trkpt lat="47.80725" lon="-3.67685">
        <ele>41.3</ele>
        <time>2023-01-27T13:26:57Z</time>
      </trkpt>
      <trkpt lat="47.80722" lon="-3.67679">
        <ele>41.6</ele>
        <time>2023-01-27T13:26:58Z</time>
      </trkpt>
      <trkpt lat="47.8072" lon="-3.67672">
        <ele>41.9</ele>
        <time>2023-01-27T13:26:59Z</time>
      </trkpt>
      <trkpt lat="47.80718" lon="-3.67668">
        <ele>42</ele>
        <time>2023-01-27T13:27:00Z</time>
      </trkpt>
      <trkpt lat="47.80717" lon="-3.67663">
        <ele>42.2</ele>
        <time>2023-01-27T13:27:01Z</time>
      </trkpt>
      <trkpt lat="47.80716" lon="-3.67656">
        <ele>42.4</ele>
        <time>2023-01-27T13:27:02Z</time>
      </trkpt>
      <trkpt lat="47.80716" lon="-3.6765">
        <ele>42.7</ele>
        <time>2023-01-27T13:27:03Z</time>
      </trkpt>
      <trkpt lat="47.80716" lon="-3.67645">
        <ele>42.8</ele>
        <time>2023-01-27T13:27:04Z</time>
      </trkpt>
      <trkpt lat="47.80715" lon="-3.67636">
        <ele>43.2</ele>
        <time>2023-01-27T13:27:06Z</time>
      </trkpt>
      <trkpt lat="47.80714" lon="-3.67626">
        <ele>43.5</ele>
        <time>2023-01-27T13:27:07Z</time>
      </trkpt>
      <trkpt lat="47.80714" lon="-3.67618">
        <ele>43.7</ele>
        <time>2023-01-27T13:27:08Z</time>
      </trkpt>
      <trkpt lat="47.80714" lon="-3.67612">
        <ele>43.9</ele>
        <time>2023-01-27T13:27:09Z</time>
      </trkpt>
      <trkpt lat="47.80714" lon="-3.67606">
        <ele>44.1</ele>
        <time>2023-01-27T13:27:10Z</time>
      </trkpt>
      <trkpt lat="47.80714" lon="-3.67601">
        <ele>44.2</ele>
        <time>2023-01-27T13:27:12Z</time>
      </trkpt>
      <trkpt lat="47.80715" lon="-3.67593">
        <ele>44.4</ele>
        <time>2023-01-27T13:27:13Z</time>
      </trkpt>
      <trkpt lat="47.80717" lon="-3.67587">
        <ele>44.6</ele>
        <time>2023-01-27T13:27:15Z</time>
      </trkpt>
      <trkpt lat="47.80718" lon="-3.67582">
        <ele>44.7</ele>
        <time>2023-01-27T13:27:16Z</time>
      </trkpt>
      <trkpt lat="47.80719" lon="-3.6758">
        <ele>44.8</ele>
        <time>2023-01-27T13:27:17Z</time>
      </trkpt>
      <trkpt lat="47.80719" lon="-3.67578">
        <ele>44.9</ele>
        <time>2023-01-27T13:27:18Z</time>
      </trkpt>
      <trkpt lat="47.8072" lon="-3.67576">
        <ele>44.9</ele>
        <time>2023-01-27T13:27:19Z</time>
      </trkpt>
      <trkpt lat="47.8072" lon="-3.67575">
        <ele>44.9</ele>
        <time>2023-01-27T13:27:20Z</time>
      </trkpt>
      <trkpt lat="47.8072" lon="-3.67574">
        <ele>44.9</ele>
        <time>2023-01-27T13:27:21Z</time>
      </trkpt>
      <trkpt lat="47.8072" lon="-3.67573">
        <ele>44.9</ele>
        <time>2023-01-27T13:27:22Z</time>
      </trkpt>
      <trkpt lat="47.8072" lon="-3.67572">
        <ele>44.9</ele>
        <time>2023-01-27T13:27:23Z</time>
      </trkpt>
      <trkpt lat="47.8072" lon="-3.67571">
        <ele>44.9</ele>
        <time>2023-01-27T13:27:24Z</time>
      </trkpt>
      <trkpt lat="47.80719" lon="-3.67571">
        <ele>44.9</ele>
        <time>2023-01-27T13:27:25Z</time>
      </trkpt>
      <trkpt lat="47.80719" lon="-3.6757">
        <ele>44.9</ele>
        <time>2023-01-27T13:27:26Z</time>
      </trkpt>
      <trkpt lat="47.80719" lon="-3.67569">
        <ele>44.9</ele>
        <time>2023-01-27T13:27:27Z</time>
      </trkpt>
      <trkpt lat="47.80719" lon="-3.67568">
        <ele>44.9</ele>
        <time>2023-01-27T13:27:54Z</time>
      </trkpt>
      <trkpt lat="47.80719" lon="-3.67567">
        <ele>44.9</ele>
        <time>2023-01-27T13:27:55Z</time>
      </trkpt>
      <trkpt lat="47.80719" lon="-3.67567">
        <ele>44.9</ele>
        <time>2023-01-27T13:27:56Z</time>
      </trkpt>
      <trkpt lat="47.80719" lon="-3.67566">
        <ele>44.9</ele>
        <time>2023-01-27T13:27:57Z</time>
      </trkpt>
      <trkpt lat="47.80719" lon="-3.67563">
        <ele>44.9</ele>
        <time>2023-01-27T13:27:58Z</time>
      </trkpt>
      <trkpt lat="47.80719" lon="-3.67561">
        <ele>44.9</ele>
        <time>2023-01-27T13:27:59Z</time>
      </trkpt>
      <trkpt lat="47.80719" lon="-3.67559">
        <ele>45</ele>
        <time>2023-01-27T13:28:00Z</time>
      </trkpt>
      <trkpt lat="47.80719" lon="-3.67555">
        <ele>45</ele>
        <time>2023-01-27T13:28:01Z</time>
      </trkpt>
      <trkpt lat="47.8072" lon="-3.6755">
        <ele>45.1</ele>
        <time>2023-01-27T13:28:03Z</time>
      </trkpt>
      <trkpt lat="47.8072" lon="-3.67549">
        <ele>45.2</ele>
        <time>2023-01-27T13:28:04Z</time>
      </trkpt>
      <trkpt lat="47.8072" lon="-3.67544">
        <ele>45.3</ele>
        <time>2023-01-27T13:28:05Z</time>
      </trkpt>
      <trkpt lat="47.80721" lon="-3.67538">
        <ele>45.4</ele>
        <time>2023-01-27T13:28:07Z</time>
      </trkpt>
      <trkpt lat="47.80722" lon="-3.67533">
        <ele>45.5</ele>
        <time>2023-01-27T13:28:08Z</time>
      </trkpt>
      <trkpt lat="47.80723" lon="-3.67529">
        <ele>45.6</ele>
        <time>2023-01-27T13:28:09Z</time>
      </trkpt>
      <trkpt lat="47.80723" lon="-3.67526">
        <ele>45.7</ele>
        <time>2023-01-27T13:28:10Z</time>
      </trkpt>
      <trkpt lat="47.80723" lon="-3.67523">
        <ele>45.7</ele>
        <time>2023-01-27T13:28:12Z</time>
      </trkpt>
      <trkpt lat="47.80723" lon="-3.67519">
        <ele>45.8</ele>
        <time>2023-01-27T13:28:13Z</time>
      </trkpt>
      <trkpt lat="47.80723" lon="-3.67517">
        <ele>45.8</ele>
        <time>2023-01-27T13:28:14Z</time>
      </trkpt>
      <trkpt lat="47.80725" lon="-3.6751">
        <ele>45.9</ele>
        <time>2023-01-27T13:28:15Z</time>
      </trkpt>
      <trkpt lat="47.80726" lon="-3.67506">
        <ele>46</ele>
        <time>2023-01-27T13:28:17Z</time>
      </trkpt>
      <trkpt lat="47.80726" lon="-3.67504">
        <ele>46</ele>
        <time>2023-01-27T13:28:18Z</time>
      </trkpt>
      <trkpt lat="47.80725" lon="-3.67502">
        <ele>46.1</ele>
        <time>2023-01-27T13:28:19Z</time>
      </trkpt>
      <trkpt lat="47.80726" lon="-3.67496">
        <ele>46.2</ele>
        <time>2023-01-27T13:28:20Z</time>
      </trkpt>
      <trkpt lat="47.80726" lon="-3.67494">
        <ele>46.2</ele>
        <time>2023-01-27T13:28:21Z</time>
      </trkpt>
      <trkpt lat="47.80727" lon="-3.6749">
        <ele>46.3</ele>
        <time>2023-01-27T13:28:23Z</time>
      </trkpt>
      <trkpt lat="47.80728" lon="-3.67485">
        <ele>46.4</ele>
        <time>2023-01-27T13:28:24Z</time>
      </trkpt>
      <trkpt lat="47.80728" lon="-3.67483">
        <ele>46.4</ele>
        <time>2023-01-27T13:28:25Z</time>
      </trkpt>
      <trkpt lat="47.80729" lon="-3.67481">
        <ele>46.4</ele>
        <time>2023-01-27T13:28:26Z</time>
      </trkpt>
      <trkpt lat="47.80729" lon="-3.67478">
        <ele>46.5</ele>
        <time>2023-01-27T13:28:27Z</time>
      </trkpt>
      <trkpt lat="47.80729" lon="-3.67473">
        <ele>46.5</ele>
        <time>2023-01-27T13:28:28Z</time>
      </trkpt>
      <trkpt lat="47.8073" lon="-3.67468">
        <ele>46.6</ele>
        <time>2023-01-27T13:28:29Z</time>
      </trkpt>
      <trkpt lat="47.8073" lon="-3.67467">
        <ele>46.7</ele>
        <time>2023-01-27T13:28:30Z</time>
      </trkpt>
      <trkpt lat="47.8073" lon="-3.67461">
        <ele>46.8</ele>
        <time>2023-01-27T13:28:31Z</time>
      </trkpt>
      <trkpt lat="47.8073" lon="-3.67456">
        <ele>46.9</ele>
        <time>2023-01-27T13:28:32Z</time>
      </trkpt>
      <trkpt lat="47.80731" lon="-3.67451">
        <ele>47</ele>
        <time>2023-01-27T13:28:33Z</time>
      </trkpt>
      <trkpt lat="47.80731" lon="-3.67449">
        <ele>47</ele>
        <time>2023-01-27T13:28:34Z</time>
      </trkpt>
      <trkpt lat="47.80732" lon="-3.67444">
        <ele>47.1</ele>
        <time>2023-01-27T13:28:35Z</time>
      </trkpt>
      <trkpt lat="47.80733" lon="-3.67441">
        <ele>47.1</ele>
        <time>2023-01-27T13:28:36Z</time>
      </trkpt>
      <trkpt lat="47.80734" lon="-3.67436">
        <ele>47.2</ele>
        <time>2023-01-27T13:28:37Z</time>
      </trkpt>
      <trkpt lat="47.80734" lon="-3.67434">
        <ele>47.2</ele>
        <time>2023-01-27T13:28:38Z</time>
      </trkpt>
      <trkpt lat="47.80735" lon="-3.6743">
        <ele>47.3</ele>
        <time>2023-01-27T13:28:39Z</time>
      </trkpt>
      <trkpt lat="47.80735" lon="-3.67424">
        <ele>47.3</ele>
        <time>2023-01-27T13:28:41Z</time>
      </trkpt>
      <trkpt lat="47.80737" lon="-3.67419">
        <ele>47.4</ele>
        <time>2023-01-27T13:28:42Z</time>
      </trkpt>
      <trkpt lat="47.80738" lon="-3.67417">
        <ele>47.4</ele>
        <time>2023-01-27T13:28:43Z</time>
      </trkpt>
      <trkpt lat="47.80738" lon="-3.67413">
        <ele>47.4</ele>
        <time>2023-01-27T13:28:44Z</time>
      </trkpt>
      <trkpt lat="47.80739" lon="-3.67409">
        <ele>47.5</ele>
        <time>2023-01-27T13:28:45Z</time>
      </trkpt>
      <trkpt lat="47.80741" lon="-3.67403">
        <ele>47.6</ele>
        <time>2023-01-27T13:28:46Z</time>
      </trkpt>
      <trkpt lat="47.80742" lon="-3.67397">
        <ele>47.7</ele>
        <time>2023-01-27T13:28:48Z</time>
      </trkpt>
      <trkpt lat="47.80743" lon="-3.67396">
        <ele>47.7</ele>
        <time>2023-01-27T13:28:49Z</time>
      </trkpt>
      <trkpt lat="47.80744" lon="-3.6739">
        <ele>47.8</ele>
        <time>2023-01-27T13:28:50Z</time>
      </trkpt>
      <trkpt lat="47.80744" lon="-3.67388">
        <ele>47.9</ele>
        <time>2023-01-27T13:28:51Z</time>
      </trkpt>
      <trkpt lat="47.80745" lon="-3.67383">
        <ele>48</ele>
        <time>2023-01-27T13:28:52Z</time>
      </trkpt>
      <trkpt lat="47.80746" lon="-3.67381">
        <ele>48</ele>
        <time>2023-01-27T13:28:53Z</time>
      </trkpt>
      <trkpt lat="47.80746" lon="-3.67377">
        <ele>48.1</ele>
        <time>2023-01-27T13:28:54Z</time>
      </trkpt>
      <trkpt lat="47.80746" lon="-3.67375">
        <ele>48.1</ele>
        <time>2023-01-27T13:28:55Z</time>
      </trkpt>
      <trkpt lat="47.80746" lon="-3.6737">
        <ele>48.2</ele>
        <time>2023-01-27T13:28:56Z</time>
      </trkpt>
      <trkpt lat="47.80746" lon="-3.67368">
        <ele>48.2</ele>
        <time>2023-01-27T13:28:57Z</time>
      </trkpt>
      <trkpt lat="47.80747" lon="-3.67364">
        <ele>48.3</ele>
        <time>2023-01-27T13:28:58Z</time>
      </trkpt>
      <trkpt lat="47.80748" lon="-3.6736">
        <ele>48.4</ele>
        <time>2023-01-27T13:28:59Z</time>
      </trkpt>
      <trkpt lat="47.80748" lon="-3.67355">
        <ele>48.4</ele>
        <time>2023-01-27T13:29:00Z</time>
      </trkpt>
      <trkpt lat="47.80748" lon="-3.67351">
        <ele>48.4</ele>
        <time>2023-01-27T13:29:01Z</time>
      </trkpt>
      <trkpt lat="47.80749" lon="-3.67346">
        <ele>48.5</ele>
        <time>2023-01-27T13:29:02Z</time>
      </trkpt>
      <trkpt lat="47.80749" lon="-3.67344">
        <ele>48.5</ele>
        <time>2023-01-27T13:29:03Z</time>
      </trkpt>
      <trkpt lat="47.80752" lon="-3.67334">
        <ele>48.4</ele>
        <time>2023-01-27T13:29:04Z</time>
      </trkpt>
      <trkpt lat="47.80753" lon="-3.67329">
        <ele>48.4</ele>
        <time>2023-01-27T13:29:06Z</time>
      </trkpt>
      <trkpt lat="47.80755" lon="-3.67325">
        <ele>48.4</ele>
        <time>2023-01-27T13:29:07Z</time>
      </trkpt>
      <trkpt lat="47.80757" lon="-3.67322">
        <ele>48.4</ele>
        <time>2023-01-27T13:29:08Z</time>
      </trkpt>
      <trkpt lat="47.80757" lon="-3.67317">
        <ele>48.4</ele>
        <time>2023-01-27T13:29:09Z</time>
      </trkpt>
      <trkpt lat="47.80757" lon="-3.67312">
        <ele>48.4</ele>
        <time>2023-01-27T13:29:10Z</time>
      </trkpt>
      <trkpt lat="47.80758" lon="-3.67307">
        <ele>48.4</ele>
        <time>2023-01-27T13:29:11Z</time>
      </trkpt>
      <trkpt lat="47.80758" lon="-3.67295">
        <ele>48.3</ele>
        <time>2023-01-27T13:29:13Z</time>
      </trkpt>
      <trkpt lat="47.80758" lon="-3.67289">
        <ele>48.3</ele>
        <time>2023-01-27T13:29:14Z</time>
      </trkpt>
      <trkpt lat="47.80758" lon="-3.67285">
        <ele>48.3</ele>
        <time>2023-01-27T13:29:16Z</time>
      </trkpt>
      <trkpt lat="47.80758" lon="-3.67276">
        <ele>48.2</ele>
        <time>2023-01-27T13:29:17Z</time>
      </trkpt>
      <trkpt lat="47.8076" lon="-3.67268">
        <ele>48.2</ele>
        <time>2023-01-27T13:29:19Z</time>
      </trkpt>
      <trkpt lat="47.80763" lon="-3.67262">
        <ele>48.2</ele>
        <time>2023-01-27T13:29:20Z</time>
      </trkpt>
      <trkpt lat="47.80764" lon="-3.67256">
        <ele>48.1</ele>
        <time>2023-01-27T13:29:21Z</time>
      </trkpt>
      <trkpt lat="47.80766" lon="-3.67252">
        <ele>48.1</ele>
        <time>2023-01-27T13:29:22Z</time>
      </trkpt>
      <trkpt lat="47.80767" lon="-3.67246">
        <ele>48</ele>
        <time>2023-01-27T13:29:23Z</time>
      </trkpt>
      <trkpt lat="47.80768" lon="-3.6724">
        <ele>48</ele>
        <time>2023-01-27T13:29:24Z</time>
      </trkpt>
      <trkpt lat="47.8077" lon="-3.67234">
        <ele>47.9</ele>
        <time>2023-01-27T13:29:25Z</time>
      </trkpt>
      <trkpt lat="47.80771" lon="-3.67229">
        <ele>47.9</ele>
        <time>2023-01-27T13:29:26Z</time>
      </trkpt>
      <trkpt lat="47.80773" lon="-3.67223">
        <ele>47.8</ele>
        <time>2023-01-27T13:29:27Z</time>
      </trkpt>
      <trkpt lat="47.80775" lon="-3.67218">
        <ele>47.8</ele>
        <time>2023-01-27T13:29:28Z</time>
      </trkpt>
      <trkpt lat="47.80777" lon="-3.67213">
        <ele>47.7</ele>
        <time>2023-01-27T13:29:29Z</time>
      </trkpt>
      <trkpt lat="47.80778" lon="-3.67208">
        <ele>47.7</ele>
        <time>2023-01-27T13:29:30Z</time>
      </trkpt>
      <trkpt lat="47.8078" lon="-3.67202">
        <ele>47.7</ele>
        <time>2023-01-27T13:29:31Z</time>
      </trkpt>
      <trkpt lat="47.80782" lon="-3.67196">
        <ele>47.7</ele>
        <time>2023-01-27T13:29:32Z</time>
      </trkpt>
      <trkpt lat="47.80786" lon="-3.67194">
        <ele>47.6</ele>
        <time>2023-01-27T13:29:33Z</time>
      </trkpt>
      <trkpt lat="47.8079" lon="-3.67194">
        <ele>47.6</ele>
        <time>2023-01-27T13:29:34Z</time>
      </trkpt>
      <trkpt lat="47.80793" lon="-3.67195">
        <ele>47.6</ele>
        <time>2023-01-27T13:29:35Z</time>
      </trkpt>
      <trkpt lat="47.80797" lon="-3.67196">
        <ele>47.6</ele>
        <time>2023-01-27T13:29:36Z</time>
      </trkpt>
      <trkpt lat="47.80801" lon="-3.67197">
        <ele>47.6</ele>
        <time>2023-01-27T13:29:37Z</time>
      </trkpt>
      <trkpt lat="47.80805" lon="-3.67198">
        <ele>47.6</ele>
        <time>2023-01-27T13:29:38Z</time>
      </trkpt>
      <trkpt lat="47.80809" lon="-3.67199">
        <ele>47.6</ele>
        <time>2023-01-27T13:29:39Z</time>
      </trkpt>
      <trkpt lat="47.80813" lon="-3.67198">
        <ele>47.6</ele>
        <time>2023-01-27T13:29:40Z</time>
      </trkpt>
      <trkpt lat="47.80817" lon="-3.67198">
        <ele>47.5</ele>
        <time>2023-01-27T13:29:41Z</time>
      </trkpt>
      <trkpt lat="47.80821" lon="-3.67199">
        <ele>47.5</ele>
        <time>2023-01-27T13:29:42Z</time>
      </trkpt>
      <trkpt lat="47.80825" lon="-3.67201">
        <ele>47.5</ele>
        <time>2023-01-27T13:29:43Z</time>
      </trkpt>
      <trkpt lat="47.80829" lon="-3.67203">
        <ele>47.5</ele>
        <time>2023-01-27T13:29:44Z</time>
      </trkpt>
      <trkpt lat="47.80833" lon="-3.67205">
        <ele>47.5</ele>
        <time>2023-01-27T13:29:45Z</time>
      </trkpt>
      <trkpt lat="47.80838" lon="-3.67206">
        <ele>47.5</ele>
        <time>2023-01-27T13:29:46Z</time>
      </trkpt>
      <trkpt lat="47.80842" lon="-3.67207">
        <ele>47.5</ele>
        <time>2023-01-27T13:29:47Z</time>
      </trkpt>
      <trkpt lat="47.80846" lon="-3.67208">
        <ele>47.5</ele>
        <time>2023-01-27T13:29:48Z</time>
      </trkpt>
      <trkpt lat="47.8085" lon="-3.67209">
        <ele>47.5</ele>
        <time>2023-01-27T13:29:49Z</time>
      </trkpt>
      <trkpt lat="47.80855" lon="-3.6721">
        <ele>47.6</ele>
        <time>2023-01-27T13:29:50Z</time>
      </trkpt>
      <trkpt lat="47.80859" lon="-3.6721">
        <ele>47.6</ele>
        <time>2023-01-27T13:29:51Z</time>
      </trkpt>
      <trkpt lat="47.80863" lon="-3.67211">
        <ele>47.6</ele>
        <time>2023-01-27T13:29:52Z</time>
      </trkpt>
      <trkpt lat="47.80867" lon="-3.67212">
        <ele>47.6</ele>
        <time>2023-01-27T13:29:53Z</time>
      </trkpt>
      <trkpt lat="47.8087" lon="-3.67214">
        <ele>47.6</ele>
        <time>2023-01-27T13:29:54Z</time>
      </trkpt>
      <trkpt lat="47.80875" lon="-3.67215">
        <ele>47.5</ele>
        <time>2023-01-27T13:29:55Z</time>
      </trkpt>
      <trkpt lat="47.80879" lon="-3.67216">
        <ele>47.5</ele>
        <time>2023-01-27T13:29:56Z</time>
      </trkpt>
      <trkpt lat="47.80883" lon="-3.67216">
        <ele>47.5</ele>
        <time>2023-01-27T13:29:57Z</time>
      </trkpt>
      <trkpt lat="47.80887" lon="-3.67217">
        <ele>47.5</ele>
        <time>2023-01-27T13:29:58Z</time>
      </trkpt>
      <trkpt lat="47.80891" lon="-3.67218">
        <ele>47.5</ele>
        <time>2023-01-27T13:29:59Z</time>
      </trkpt>
      <trkpt lat="47.80895" lon="-3.67219">
        <ele>47.5</ele>
        <time>2023-01-27T13:30:00Z</time>
      </trkpt>
      <trkpt lat="47.80899" lon="-3.6722">
        <ele>47.5</ele>
        <time>2023-01-27T13:30:01Z</time>
      </trkpt>
      <trkpt lat="47.80904" lon="-3.67221">
        <ele>47.5</ele>
        <time>2023-01-27T13:30:02Z</time>
      </trkpt>
      <trkpt lat="47.80909" lon="-3.67222">
        <ele>47.4</ele>
        <time>2023-01-27T13:30:03Z</time>
      </trkpt>
      <trkpt lat="47.80913" lon="-3.67224">
        <ele>47.3</ele>
        <time>2023-01-27T13:30:04Z</time>
      </trkpt>
      <trkpt lat="47.80918" lon="-3.67225">
        <ele>47.3</ele>
        <time>2023-01-27T13:30:05Z</time>
      </trkpt>
      <trkpt lat="47.80922" lon="-3.67226">
        <ele>47.2</ele>
        <time>2023-01-27T13:30:06Z</time>
      </trkpt>
      <trkpt lat="47.80929" lon="-3.67227">
        <ele>47.2</ele>
        <time>2023-01-27T13:30:07Z</time>
      </trkpt>
      <trkpt lat="47.80933" lon="-3.67227">
        <ele>47.3</ele>
        <time>2023-01-27T13:30:08Z</time>
      </trkpt>
      <trkpt lat="47.80937" lon="-3.67223">
        <ele>47.4</ele>
        <time>2023-01-27T13:30:09Z</time>
      </trkpt>
      <trkpt lat="47.80938" lon="-3.67212">
        <ele>47.4</ele>
        <time>2023-01-27T13:30:11Z</time>
      </trkpt>
      <trkpt lat="47.80937" lon="-3.67201">
        <ele>47.5</ele>
        <time>2023-01-27T13:30:13Z</time>
      </trkpt>
      <trkpt lat="47.80937" lon="-3.67186">
        <ele>47.6</ele>
        <time>2023-01-27T13:30:15Z</time>
      </trkpt>
      <trkpt lat="47.80939" lon="-3.67172">
        <ele>47.8</ele>
        <time>2023-01-27T13:30:17Z</time>
      </trkpt>
      <trkpt lat="47.8094" lon="-3.67165">
        <ele>47.8</ele>
        <time>2023-01-27T13:30:19Z</time>
      </trkpt>
      <trkpt lat="47.8094" lon="-3.67159">
        <ele>47.9</ele>
        <time>2023-01-27T13:30:20Z</time>
      </trkpt>
      <trkpt lat="47.8094" lon="-3.67152">
        <ele>48</ele>
        <time>2023-01-27T13:30:21Z</time>
      </trkpt>
      <trkpt lat="47.8094" lon="-3.6714">
        <ele>48</ele>
        <time>2023-01-27T13:30:22Z</time>
      </trkpt>
      <trkpt lat="47.8094" lon="-3.67132">
        <ele>48.1</ele>
        <time>2023-01-27T13:30:23Z</time>
      </trkpt>
      <trkpt lat="47.80942" lon="-3.67119">
        <ele>48.1</ele>
        <time>2023-01-27T13:30:25Z</time>
      </trkpt>
      <trkpt lat="47.80942" lon="-3.67113">
        <ele>48.1</ele>
        <time>2023-01-27T13:30:27Z</time>
      </trkpt>
      <trkpt lat="47.80942" lon="-3.67107">
        <ele>48</ele>
        <time>2023-01-27T13:30:28Z</time>
      </trkpt>
      <trkpt lat="47.80943" lon="-3.671">
        <ele>48</ele>
        <time>2023-01-27T13:30:29Z</time>
      </trkpt>
      <trkpt lat="47.80944" lon="-3.67095">
        <ele>48</ele>
        <time>2023-01-27T13:30:30Z</time>
      </trkpt>
      <trkpt lat="47.80944" lon="-3.67089">
        <ele>47.9</ele>
        <time>2023-01-27T13:30:31Z</time>
      </trkpt>
      <trkpt lat="47.80945" lon="-3.67084">
        <ele>47.9</ele>
        <time>2023-01-27T13:30:32Z</time>
      </trkpt>
      <trkpt lat="47.80946" lon="-3.67079">
        <ele>47.9</ele>
        <time>2023-01-27T13:30:33Z</time>
      </trkpt>
      <trkpt lat="47.80947" lon="-3.67073">
        <ele>47.8</ele>
        <time>2023-01-27T13:30:34Z</time>
      </trkpt>
      <trkpt lat="47.80947" lon="-3.67067">
        <ele>47.8</ele>
        <time>2023-01-27T13:30:35Z</time>
      </trkpt>
      <trkpt lat="47.80947" lon="-3.67061">
        <ele>47.7</ele>
        <time>2023-01-27T13:30:36Z</time>
      </trkpt>
      <trkpt lat="47.80948" lon="-3.67056">
        <ele>47.7</ele>
        <time>2023-01-27T13:30:37Z</time>
      </trkpt>
      <trkpt lat="47.80948" lon="-3.67049">
        <ele>47.6</ele>
        <time>2023-01-27T13:30:38Z</time>
      </trkpt>
      <trkpt lat="47.80949" lon="-3.67043">
        <ele>47.6</ele>
        <time>2023-01-27T13:30:39Z</time>
      </trkpt>
      <trkpt lat="47.8095" lon="-3.67036">
        <ele>47.5</ele>
        <time>2023-01-27T13:30:40Z</time>
      </trkpt>
      <trkpt lat="47.80951" lon="-3.67031">
        <ele>47.5</ele>
        <time>2023-01-27T13:30:41Z</time>
      </trkpt>
      <trkpt lat="47.80951" lon="-3.67025">
        <ele>47.4</ele>
        <time>2023-01-27T13:30:42Z</time>
      </trkpt>
      <trkpt lat="47.80951" lon="-3.67018">
        <ele>47.4</ele>
        <time>2023-01-27T13:30:43Z</time>
      </trkpt>
      <trkpt lat="47.80951" lon="-3.67013">
        <ele>47.3</ele>
        <time>2023-01-27T13:30:44Z</time>
      </trkpt>
      <trkpt lat="47.80951" lon="-3.67006">
        <ele>47.3</ele>
        <time>2023-01-27T13:30:45Z</time>
      </trkpt>
      <trkpt lat="47.80952" lon="-3.67001">
        <ele>47.3</ele>
        <time>2023-01-27T13:30:46Z</time>
      </trkpt>
      <trkpt lat="47.80952" lon="-3.66994">
        <ele>47.2</ele>
        <time>2023-01-27T13:30:47Z</time>
      </trkpt>
      <trkpt lat="47.80953" lon="-3.66984">
        <ele>47.2</ele>
        <time>2023-01-27T13:30:49Z</time>
      </trkpt>
      <trkpt lat="47.80954" lon="-3.66977">
        <ele>47.1</ele>
        <time>2023-01-27T13:30:50Z</time>
      </trkpt>
      <trkpt lat="47.80954" lon="-3.66972">
        <ele>47.1</ele>
        <time>2023-01-27T13:30:51Z</time>
      </trkpt>
      <trkpt lat="47.80955" lon="-3.66966">
        <ele>47.1</ele>
        <time>2023-01-27T13:30:52Z</time>
      </trkpt>
      <trkpt lat="47.80955" lon="-3.6696">
        <ele>47.1</ele>
        <time>2023-01-27T13:30:53Z</time>
      </trkpt>
      <trkpt lat="47.80956" lon="-3.66952">
        <ele>47</ele>
        <time>2023-01-27T13:30:54Z</time>
      </trkpt>
      <trkpt lat="47.80956" lon="-3.66947">
        <ele>47</ele>
        <time>2023-01-27T13:30:55Z</time>
      </trkpt>
      <trkpt lat="47.80956" lon="-3.66939">
        <ele>47</ele>
        <time>2023-01-27T13:30:56Z</time>
      </trkpt>
      <trkpt lat="47.80958" lon="-3.66926">
        <ele>47</ele>
        <time>2023-01-27T13:30:58Z</time>
      </trkpt>
      <trkpt lat="47.80959" lon="-3.66919">
        <ele>47</ele>
        <time>2023-01-27T13:30:59Z</time>
      </trkpt>
      <trkpt lat="47.80959" lon="-3.66911">
        <ele>46.9</ele>
        <time>2023-01-27T13:31:00Z</time>
      </trkpt>
      <trkpt lat="47.80961" lon="-3.669">
        <ele>46.9</ele>
        <time>2023-01-27T13:31:02Z</time>
      </trkpt>
      <trkpt lat="47.80963" lon="-3.66887">
        <ele>46.9</ele>
        <time>2023-01-27T13:31:04Z</time>
      </trkpt>
      <trkpt lat="47.80963" lon="-3.66879">
        <ele>47</ele>
        <time>2023-01-27T13:31:05Z</time>
      </trkpt>
      <trkpt lat="47.80963" lon="-3.66873">
        <ele>47</ele>
        <time>2023-01-27T13:31:06Z</time>
      </trkpt>
      <trkpt lat="47.80964" lon="-3.66865">
        <ele>47</ele>
        <time>2023-01-27T13:31:08Z</time>
      </trkpt>
      <trkpt lat="47.80964" lon="-3.66859">
        <ele>47.1</ele>
        <time>2023-01-27T13:31:09Z</time>
      </trkpt>
      <trkpt lat="47.80965" lon="-3.66853">
        <ele>47.1</ele>
        <time>2023-01-27T13:31:10Z</time>
      </trkpt>
      <trkpt lat="47.80965" lon="-3.66843">
        <ele>47.2</ele>
        <time>2023-01-27T13:31:11Z</time>
      </trkpt>
      <trkpt lat="47.80966" lon="-3.66836">
        <ele>47.2</ele>
        <time>2023-01-27T13:31:13Z</time>
      </trkpt>
      <trkpt lat="47.80967" lon="-3.6683">
        <ele>47.2</ele>
        <time>2023-01-27T13:31:14Z</time>
      </trkpt>
      <trkpt lat="47.80968" lon="-3.66825">
        <ele>47.3</ele>
        <time>2023-01-27T13:31:15Z</time>
      </trkpt>
      <trkpt lat="47.80968" lon="-3.66818">
        <ele>47.3</ele>
        <time>2023-01-27T13:31:16Z</time>
      </trkpt>
      <trkpt lat="47.80968" lon="-3.66812">
        <ele>47.4</ele>
        <time>2023-01-27T13:31:17Z</time>
      </trkpt>
      <trkpt lat="47.80969" lon="-3.66805">
        <ele>47.4</ele>
        <time>2023-01-27T13:31:18Z</time>
      </trkpt>
      <trkpt lat="47.80969" lon="-3.66799">
        <ele>47.5</ele>
        <time>2023-01-27T13:31:19Z</time>
      </trkpt>
      <trkpt lat="47.8097" lon="-3.66793">
        <ele>47.6</ele>
        <time>2023-01-27T13:31:20Z</time>
      </trkpt>
      <trkpt lat="47.80971" lon="-3.66786">
        <ele>47.7</ele>
        <time>2023-01-27T13:31:21Z</time>
      </trkpt>
      <trkpt lat="47.80971" lon="-3.66781">
        <ele>47.7</ele>
        <time>2023-01-27T13:31:22Z</time>
      </trkpt>
      <trkpt lat="47.80972" lon="-3.66774">
        <ele>47.8</ele>
        <time>2023-01-27T13:31:23Z</time>
      </trkpt>
      <trkpt lat="47.80971" lon="-3.66767">
        <ele>47.9</ele>
        <time>2023-01-27T13:31:24Z</time>
      </trkpt>
      <trkpt lat="47.80971" lon="-3.66761">
        <ele>48</ele>
        <time>2023-01-27T13:31:25Z</time>
      </trkpt>
      <trkpt lat="47.80972" lon="-3.66755">
        <ele>48.1</ele>
        <time>2023-01-27T13:31:26Z</time>
      </trkpt>
      <trkpt lat="47.80972" lon="-3.66748">
        <ele>48.2</ele>
        <time>2023-01-27T13:31:27Z</time>
      </trkpt>
      <trkpt lat="47.80972" lon="-3.66739">
        <ele>48.4</ele>
        <time>2023-01-27T13:31:28Z</time>
      </trkpt>
      <trkpt lat="47.80973" lon="-3.66733">
        <ele>48.5</ele>
        <time>2023-01-27T13:31:29Z</time>
      </trkpt>
      <trkpt lat="47.80975" lon="-3.66721">
        <ele>48.7</ele>
        <time>2023-01-27T13:31:31Z</time>
      </trkpt>
      <trkpt lat="47.80976" lon="-3.66714">
        <ele>48.8</ele>
        <time>2023-01-27T13:31:32Z</time>
      </trkpt>
      <trkpt lat="47.80977" lon="-3.66707">
        <ele>49</ele>
        <time>2023-01-27T13:31:33Z</time>
      </trkpt>
      <trkpt lat="47.80978" lon="-3.66694">
        <ele>49.2</ele>
        <time>2023-01-27T13:31:35Z</time>
      </trkpt>
      <trkpt lat="47.80979" lon="-3.66682">
        <ele>49.3</ele>
        <time>2023-01-27T13:31:37Z</time>
      </trkpt>
      <trkpt lat="47.80981" lon="-3.6667">
        <ele>49.5</ele>
        <time>2023-01-27T13:31:39Z</time>
      </trkpt>
      <trkpt lat="47.80982" lon="-3.66664">
        <ele>49.5</ele>
        <time>2023-01-27T13:31:40Z</time>
      </trkpt>
      <trkpt lat="47.80983" lon="-3.66658">
        <ele>49.6</ele>
        <time>2023-01-27T13:31:42Z</time>
      </trkpt>
      <trkpt lat="47.80984" lon="-3.66648">
        <ele>49.7</ele>
        <time>2023-01-27T13:31:43Z</time>
      </trkpt>
      <trkpt lat="47.80986" lon="-3.66642">
        <ele>49.8</ele>
        <time>2023-01-27T13:31:45Z</time>
      </trkpt>
      <trkpt lat="47.80986" lon="-3.66632">
        <ele>49.9</ele>
        <time>2023-01-27T13:31:46Z</time>
      </trkpt>
      <trkpt lat="47.80987" lon="-3.66625">
        <ele>49.9</ele>
        <time>2023-01-27T13:31:48Z</time>
      </trkpt>
      <trkpt lat="47.80988" lon="-3.6662">
        <ele>50</ele>
        <time>2023-01-27T13:31:49Z</time>
      </trkpt>
      <trkpt lat="47.80989" lon="-3.66614">
        <ele>50</ele>
        <time>2023-01-27T13:31:50Z</time>
      </trkpt>
      <trkpt lat="47.80988" lon="-3.66608">
        <ele>50.1</ele>
        <time>2023-01-27T13:31:51Z</time>
      </trkpt>
      <trkpt lat="47.80989" lon="-3.66602">
        <ele>50.1</ele>
        <time>2023-01-27T13:31:52Z</time>
      </trkpt>
      <trkpt lat="47.80989" lon="-3.66596">
        <ele>50.1</ele>
        <time>2023-01-27T13:31:53Z</time>
      </trkpt>
      <trkpt lat="47.80989" lon="-3.66591">
        <ele>50.2</ele>
        <time>2023-01-27T13:31:54Z</time>
      </trkpt>
      <trkpt lat="47.80989" lon="-3.66584">
        <ele>50.2</ele>
        <time>2023-01-27T13:31:55Z</time>
      </trkpt>
      <trkpt lat="47.8099" lon="-3.66578">
        <ele>50.2</ele>
        <time>2023-01-27T13:31:56Z</time>
      </trkpt>
      <trkpt lat="47.8099" lon="-3.66573">
        <ele>50.3</ele>
        <time>2023-01-27T13:31:57Z</time>
      </trkpt>
      <trkpt lat="47.80991" lon="-3.66568">
        <ele>50.3</ele>
        <time>2023-01-27T13:31:58Z</time>
      </trkpt>
      <trkpt lat="47.80992" lon="-3.66563">
        <ele>50.3</ele>
        <time>2023-01-27T13:31:59Z</time>
      </trkpt>
      <trkpt lat="47.80992" lon="-3.66556">
        <ele>50.3</ele>
        <time>2023-01-27T13:32:00Z</time>
      </trkpt>
      <trkpt lat="47.80994" lon="-3.66548">
        <ele>50.3</ele>
        <time>2023-01-27T13:32:01Z</time>
      </trkpt>
      <trkpt lat="47.80994" lon="-3.6654">
        <ele>50.4</ele>
        <time>2023-01-27T13:32:02Z</time>
      </trkpt>
      <trkpt lat="47.80997" lon="-3.66528">
        <ele>50.4</ele>
        <time>2023-01-27T13:32:04Z</time>
      </trkpt>
      <trkpt lat="47.80999" lon="-3.66521">
        <ele>50.4</ele>
        <time>2023-01-27T13:32:06Z</time>
      </trkpt>
      <trkpt lat="47.80999" lon="-3.66516">
        <ele>50.4</ele>
        <time>2023-01-27T13:32:07Z</time>
      </trkpt>
      <trkpt lat="47.81001" lon="-3.66504">
        <ele>50.4</ele>
        <time>2023-01-27T13:32:08Z</time>
      </trkpt>
      <trkpt lat="47.81002" lon="-3.66498">
        <ele>50.4</ele>
        <time>2023-01-27T13:32:09Z</time>
      </trkpt>
      <trkpt lat="47.81003" lon="-3.66486">
        <ele>50.4</ele>
        <time>2023-01-27T13:32:11Z</time>
      </trkpt>
      <trkpt lat="47.81003" lon="-3.66479">
        <ele>50.4</ele>
        <time>2023-01-27T13:32:13Z</time>
      </trkpt>
      <trkpt lat="47.81004" lon="-3.66473">
        <ele>50.5</ele>
        <time>2023-01-27T13:32:14Z</time>
      </trkpt>
      <trkpt lat="47.81004" lon="-3.66466">
        <ele>50.5</ele>
        <time>2023-01-27T13:32:15Z</time>
      </trkpt>
      <trkpt lat="47.81004" lon="-3.66461">
        <ele>50.5</ele>
        <time>2023-01-27T13:32:16Z</time>
      </trkpt>
      <trkpt lat="47.81004" lon="-3.66455">
        <ele>50.5</ele>
        <time>2023-01-27T13:32:17Z</time>
      </trkpt>
      <trkpt lat="47.81004" lon="-3.66449">
        <ele>50.5</ele>
        <time>2023-01-27T13:32:18Z</time>
      </trkpt>
      <trkpt lat="47.81" lon="-3.66444">
        <ele>50.5</ele>
        <time>2023-01-27T13:32:19Z</time>
      </trkpt>
      <trkpt lat="47.80996" lon="-3.6644">
        <ele>50.4</ele>
        <time>2023-01-27T13:32:20Z</time>
      </trkpt>
      <trkpt lat="47.80992" lon="-3.66436">
        <ele>50.4</ele>
        <time>2023-01-27T13:32:21Z</time>
      </trkpt>
      <trkpt lat="47.80987" lon="-3.66432">
        <ele>50.3</ele>
        <time>2023-01-27T13:32:22Z</time>
      </trkpt>
      <trkpt lat="47.80983" lon="-3.66428">
        <ele>50.2</ele>
        <time>2023-01-27T13:32:23Z</time>
      </trkpt>
      <trkpt lat="47.80978" lon="-3.66424">
        <ele>50.1</ele>
        <time>2023-01-27T13:32:24Z</time>
      </trkpt>
      <trkpt lat="47.80974" lon="-3.66419">
        <ele>50.1</ele>
        <time>2023-01-27T13:32:25Z</time>
      </trkpt>
      <trkpt lat="47.80969" lon="-3.66415">
        <ele>50</ele>
        <time>2023-01-27T13:32:26Z</time>
      </trkpt>
      <trkpt lat="47.80965" lon="-3.6641">
        <ele>49.9</ele>
        <time>2023-01-27T13:32:27Z</time>
      </trkpt>
      <trkpt lat="47.8096" lon="-3.66405">
        <ele>49.8</ele>
        <time>2023-01-27T13:32:28Z</time>
      </trkpt>
      <trkpt lat="47.80955" lon="-3.664">
        <ele>49.8</ele>
        <time>2023-01-27T13:32:29Z</time>
      </trkpt>
      <trkpt lat="47.8095" lon="-3.66395">
        <ele>49.6</ele>
        <time>2023-01-27T13:32:30Z</time>
      </trkpt>
      <trkpt lat="47.80944" lon="-3.66389">
        <ele>49.5</ele>
        <time>2023-01-27T13:32:31Z</time>
      </trkpt>
      <trkpt lat="47.80938" lon="-3.66383">
        <ele>49.4</ele>
        <time>2023-01-27T13:32:32Z</time>
      </trkpt>
      <trkpt lat="47.80932" lon="-3.66378">
        <ele>49.3</ele>
        <time>2023-01-27T13:32:33Z</time>
      </trkpt>
      <trkpt lat="47.80926" lon="-3.66373">
        <ele>49.2</ele>
        <time>2023-01-27T13:32:34Z</time>
      </trkpt>
      <trkpt lat="47.80921" lon="-3.66369">
        <ele>49.1</ele>
        <time>2023-01-27T13:32:35Z</time>
      </trkpt>
      <trkpt lat="47.80915" lon="-3.66363">
        <ele>48.9</ele>
        <time>2023-01-27T13:32:36Z</time>
      </trkpt>
      <trkpt lat="47.80909" lon="-3.66358">
        <ele>48.8</ele>
        <time>2023-01-27T13:32:37Z</time>
      </trkpt>
      <trkpt lat="47.80902" lon="-3.66353">
        <ele>48.7</ele>
        <time>2023-01-27T13:32:38Z</time>
      </trkpt>
      <trkpt lat="47.80896" lon="-3.66347">
        <ele>48.5</ele>
        <time>2023-01-27T13:32:39Z</time>
      </trkpt>
      <trkpt lat="47.80889" lon="-3.66343">
        <ele>48.4</ele>
        <time>2023-01-27T13:32:40Z</time>
      </trkpt>
      <trkpt lat="47.80883" lon="-3.66339">
        <ele>48.3</ele>
        <time>2023-01-27T13:32:41Z</time>
      </trkpt>
      <trkpt lat="47.80877" lon="-3.66335">
        <ele>48.1</ele>
        <time>2023-01-27T13:32:42Z</time>
      </trkpt>
      <trkpt lat="47.8087" lon="-3.66331">
        <ele>48</ele>
        <time>2023-01-27T13:32:43Z</time>
      </trkpt>
      <trkpt lat="47.80864" lon="-3.66327">
        <ele>47.9</ele>
        <time>2023-01-27T13:32:44Z</time>
      </trkpt>
      <trkpt lat="47.80857" lon="-3.66322">
        <ele>47.7</ele>
        <time>2023-01-27T13:32:45Z</time>
      </trkpt>
      <trkpt lat="47.8085" lon="-3.66317">
        <ele>47.5</ele>
        <time>2023-01-27T13:32:46Z</time>
      </trkpt>
      <trkpt lat="47.80843" lon="-3.66313">
        <ele>47.3</ele>
        <time>2023-01-27T13:32:47Z</time>
      </trkpt>
      <trkpt lat="47.80836" lon="-3.66308">
        <ele>47.1</ele>
        <time>2023-01-27T13:32:48Z</time>
      </trkpt>
      <trkpt lat="47.80828" lon="-3.66304">
        <ele>47</ele>
        <time>2023-01-27T13:32:49Z</time>
      </trkpt>
      <trkpt lat="47.80822" lon="-3.66299">
        <ele>46.8</ele>
        <time>2023-01-27T13:32:50Z</time>
      </trkpt>
      <trkpt lat="47.80815" lon="-3.66296">
        <ele>46.7</ele>
        <time>2023-01-27T13:32:51Z</time>
      </trkpt>
      <trkpt lat="47.80808" lon="-3.66292">
        <ele>46.6</ele>
        <time>2023-01-27T13:32:52Z</time>
      </trkpt>
      <trkpt lat="47.80801" lon="-3.66287">
        <ele>46.6</ele>
        <time>2023-01-27T13:32:53Z</time>
      </trkpt>
      <trkpt lat="47.80795" lon="-3.66283">
        <ele>46.5</ele>
        <time>2023-01-27T13:32:54Z</time>
      </trkpt>
      <trkpt lat="47.80788" lon="-3.66278">
        <ele>46.5</ele>
        <time>2023-01-27T13:32:55Z</time>
      </trkpt>
      <trkpt lat="47.80783" lon="-3.66276">
        <ele>46.5</ele>
        <time>2023-01-27T13:32:56Z</time>
      </trkpt>
      <trkpt lat="47.80778" lon="-3.66274">
        <ele>46.5</ele>
        <time>2023-01-27T13:32:57Z</time>
      </trkpt>
      <trkpt lat="47.80775" lon="-3.66275">
        <ele>46.5</ele>
        <time>2023-01-27T13:32:58Z</time>
      </trkpt>
      <trkpt lat="47.80772" lon="-3.66275">
        <ele>46.5</ele>
        <time>2023-01-27T13:32:59Z</time>
      </trkpt>
      <trkpt lat="47.80772" lon="-3.66275">
        <ele>46.5</ele>
        <time>2023-01-27T13:33:00Z</time>
      </trkpt>
      <trkpt lat="47.80769" lon="-3.66273">
        <ele>46.5</ele>
        <time>2023-01-27T13:33:01Z</time>
      </trkpt>
      <trkpt lat="47.80768" lon="-3.66272">
        <ele>46.5</ele>
        <time>2023-01-27T13:33:02Z</time>
      </trkpt>
      <trkpt lat="47.80765" lon="-3.66269">
        <ele>46.5</ele>
        <time>2023-01-27T13:33:03Z</time>
      </trkpt>
      <trkpt lat="47.80763" lon="-3.66266">
        <ele>46.5</ele>
        <time>2023-01-27T13:33:04Z</time>
      </trkpt>
      <trkpt lat="47.8076" lon="-3.66261">
        <ele>46.4</ele>
        <time>2023-01-27T13:33:05Z</time>
      </trkpt>
      <trkpt lat="47.80758" lon="-3.66256">
        <ele>46.3</ele>
        <time>2023-01-27T13:33:06Z</time>
      </trkpt>
      <trkpt lat="47.80755" lon="-3.6625">
        <ele>46.2</ele>
        <time>2023-01-27T13:33:07Z</time>
      </trkpt>
      <trkpt lat="47.80751" lon="-3.66244">
        <ele>46</ele>
        <time>2023-01-27T13:33:08Z</time>
      </trkpt>
      <trkpt lat="47.80748" lon="-3.66237">
        <ele>45.9</ele>
        <time>2023-01-27T13:33:09Z</time>
      </trkpt>
      <trkpt lat="47.80744" lon="-3.66231">
        <ele>45.8</ele>
        <time>2023-01-27T13:33:10Z</time>
      </trkpt>
      <trkpt lat="47.80741" lon="-3.66224">
        <ele>45.7</ele>
        <time>2023-01-27T13:33:11Z</time>
      </trkpt>
      <trkpt lat="47.80737" lon="-3.66217">
        <ele>45.6</ele>
        <time>2023-01-27T13:33:12Z</time>
      </trkpt>
      <trkpt lat="47.80734" lon="-3.6621">
        <ele>45.5</ele>
        <time>2023-01-27T13:33:13Z</time>
      </trkpt>
      <trkpt lat="47.8073" lon="-3.66203">
        <ele>45.5</ele>
        <time>2023-01-27T13:33:14Z</time>
      </trkpt>
      <trkpt lat="47.80727" lon="-3.66195">
        <ele>45.4</ele>
        <time>2023-01-27T13:33:15Z</time>
      </trkpt>
      <trkpt lat="47.80724" lon="-3.66188">
        <ele>45.4</ele>
        <time>2023-01-27T13:33:16Z</time>
      </trkpt>
      <trkpt lat="47.80721" lon="-3.66181">
        <ele>45.4</ele>
        <time>2023-01-27T13:33:17Z</time>
      </trkpt>
      <trkpt lat="47.80717" lon="-3.66173">
        <ele>45.3</ele>
        <time>2023-01-27T13:33:18Z</time>
      </trkpt>
      <trkpt lat="47.80714" lon="-3.66165">
        <ele>45.3</ele>
        <time>2023-01-27T13:33:19Z</time>
      </trkpt>
      <trkpt lat="47.80711" lon="-3.66156">
        <ele>45.3</ele>
        <time>2023-01-27T13:33:20Z</time>
      </trkpt>
      <trkpt lat="47.80707" lon="-3.66148">
        <ele>45.4</ele>
        <time>2023-01-27T13:33:21Z</time>
      </trkpt>
      <trkpt lat="47.80704" lon="-3.6614">
        <ele>45.4</ele>
        <time>2023-01-27T13:33:22Z</time>
      </trkpt>
      <trkpt lat="47.807" lon="-3.66132">
        <ele>45.5</ele>
        <time>2023-01-27T13:33:23Z</time>
      </trkpt>
      <trkpt lat="47.80696" lon="-3.66124">
        <ele>45.5</ele>
        <time>2023-01-27T13:33:24Z</time>
      </trkpt>
      <trkpt lat="47.80692" lon="-3.66116">
        <ele>45.6</ele>
        <time>2023-01-27T13:33:25Z</time>
      </trkpt>
      <trkpt lat="47.80689" lon="-3.66109">
        <ele>45.7</ele>
        <time>2023-01-27T13:33:26Z</time>
      </trkpt>
      <trkpt lat="47.80685" lon="-3.66102">
        <ele>45.8</ele>
        <time>2023-01-27T13:33:27Z</time>
      </trkpt>
      <trkpt lat="47.80681" lon="-3.66094">
        <ele>45.9</ele>
        <time>2023-01-27T13:33:28Z</time>
      </trkpt>
      <trkpt lat="47.80677" lon="-3.66087">
        <ele>46.1</ele>
        <time>2023-01-27T13:33:29Z</time>
      </trkpt>
      <trkpt lat="47.80673" lon="-3.66079">
        <ele>46.1</ele>
        <time>2023-01-27T13:33:30Z</time>
      </trkpt>
      <trkpt lat="47.8067" lon="-3.66073">
        <ele>46.2</ele>
        <time>2023-01-27T13:33:31Z</time>
      </trkpt>
      <trkpt lat="47.80667" lon="-3.66066">
        <ele>46.3</ele>
        <time>2023-01-27T13:33:32Z</time>
      </trkpt>
      <trkpt lat="47.80664" lon="-3.66059">
        <ele>46.3</ele>
        <time>2023-01-27T13:33:33Z</time>
      </trkpt>
      <trkpt lat="47.80661" lon="-3.66052">
        <ele>46.4</ele>
        <time>2023-01-27T13:33:34Z</time>
      </trkpt>
      <trkpt lat="47.80658" lon="-3.66047">
        <ele>46.5</ele>
        <time>2023-01-27T13:33:35Z</time>
      </trkpt>
      <trkpt lat="47.80656" lon="-3.66043">
        <ele>46.5</ele>
        <time>2023-01-27T13:33:36Z</time>
      </trkpt>
      <trkpt lat="47.80652" lon="-3.66037">
        <ele>46.6</ele>
        <time>2023-01-27T13:33:37Z</time>
      </trkpt>
      <trkpt lat="47.80649" lon="-3.6603">
        <ele>46.7</ele>
        <time>2023-01-27T13:33:38Z</time>
      </trkpt>
      <trkpt lat="47.80645" lon="-3.66023">
        <ele>46.7</ele>
        <time>2023-01-27T13:33:39Z</time>
      </trkpt>
      <trkpt lat="47.80641" lon="-3.66016">
        <ele>46.7</ele>
        <time>2023-01-27T13:33:40Z</time>
      </trkpt>
      <trkpt lat="47.80637" lon="-3.66008">
        <ele>46.8</ele>
        <time>2023-01-27T13:33:41Z</time>
      </trkpt>
      <trkpt lat="47.80633" lon="-3.66003">
        <ele>46.8</ele>
        <time>2023-01-27T13:33:42Z</time>
      </trkpt>
      <trkpt lat="47.8063" lon="-3.65995">
        <ele>46.7</ele>
        <time>2023-01-27T13:33:43Z</time>
      </trkpt>
      <trkpt lat="47.80626" lon="-3.65988">
        <ele>46.7</ele>
        <time>2023-01-27T13:33:44Z</time>
      </trkpt>
      <trkpt lat="47.80623" lon="-3.6598">
        <ele>46.6</ele>
        <time>2023-01-27T13:33:45Z</time>
      </trkpt>
      <trkpt lat="47.80619" lon="-3.65972">
        <ele>46.5</ele>
        <time>2023-01-27T13:33:46Z</time>
      </trkpt>
      <trkpt lat="47.80616" lon="-3.65964">
        <ele>46.4</ele>
        <time>2023-01-27T13:33:47Z</time>
      </trkpt>
      <trkpt lat="47.80613" lon="-3.65957">
        <ele>46.3</ele>
        <time>2023-01-27T13:33:48Z</time>
      </trkpt>
      <trkpt lat="47.80609" lon="-3.6595">
        <ele>46.2</ele>
        <time>2023-01-27T13:33:49Z</time>
      </trkpt>
      <trkpt lat="47.80605" lon="-3.65943">
        <ele>46.1</ele>
        <time>2023-01-27T13:33:50Z</time>
      </trkpt>
      <trkpt lat="47.80601" lon="-3.65937">
        <ele>46</ele>
        <time>2023-01-27T13:33:51Z</time>
      </trkpt>
      <trkpt lat="47.80598" lon="-3.6593">
        <ele>45.8</ele>
        <time>2023-01-27T13:33:52Z</time>
      </trkpt>
      <trkpt lat="47.80594" lon="-3.65923">
        <ele>45.7</ele>
        <time>2023-01-27T13:33:53Z</time>
      </trkpt>
      <trkpt lat="47.8059" lon="-3.65915">
        <ele>45.6</ele>
        <time>2023-01-27T13:33:54Z</time>
      </trkpt>
      <trkpt lat="47.80586" lon="-3.65908">
        <ele>45.5</ele>
        <time>2023-01-27T13:33:55Z</time>
      </trkpt>
      <trkpt lat="47.80582" lon="-3.65899">
        <ele>45.3</ele>
        <time>2023-01-27T13:33:56Z</time>
      </trkpt>
      <trkpt lat="47.80578" lon="-3.65891">
        <ele>45.1</ele>
        <time>2023-01-27T13:33:57Z</time>
      </trkpt>
      <trkpt lat="47.80573" lon="-3.65882">
        <ele>45</ele>
        <time>2023-01-27T13:33:58Z</time>
      </trkpt>
      <trkpt lat="47.80569" lon="-3.65873">
        <ele>44.8</ele>
        <time>2023-01-27T13:33:59Z</time>
      </trkpt>
      <trkpt lat="47.80566" lon="-3.65865">
        <ele>44.7</ele>
        <time>2023-01-27T13:34:00Z</time>
      </trkpt>
      <trkpt lat="47.80561" lon="-3.65856">
        <ele>44.7</ele>
        <time>2023-01-27T13:34:01Z</time>
      </trkpt>
      <trkpt lat="47.80557" lon="-3.65848">
        <ele>44.6</ele>
        <time>2023-01-27T13:34:02Z</time>
      </trkpt>
      <trkpt lat="47.80554" lon="-3.65839">
        <ele>44.6</ele>
        <time>2023-01-27T13:34:03Z</time>
      </trkpt>
      <trkpt lat="47.8055" lon="-3.65831">
        <ele>44.6</ele>
        <time>2023-01-27T13:34:04Z</time>
      </trkpt>
      <trkpt lat="47.80545" lon="-3.65824">
        <ele>44.5</ele>
        <time>2023-01-27T13:34:05Z</time>
      </trkpt>
      <trkpt lat="47.80541" lon="-3.65817">
        <ele>44.5</ele>
        <time>2023-01-27T13:34:06Z</time>
      </trkpt>
      <trkpt lat="47.80537" lon="-3.6581">
        <ele>44.5</ele>
        <time>2023-01-27T13:34:07Z</time>
      </trkpt>
      <trkpt lat="47.80533" lon="-3.65804">
        <ele>44.5</ele>
        <time>2023-01-27T13:34:08Z</time>
      </trkpt>
      <trkpt lat="47.80528" lon="-3.65798">
        <ele>44.4</ele>
        <time>2023-01-27T13:34:09Z</time>
      </trkpt>
      <trkpt lat="47.80524" lon="-3.65791">
        <ele>44.4</ele>
        <time>2023-01-27T13:34:10Z</time>
      </trkpt>
      <trkpt lat="47.80519" lon="-3.65785">
        <ele>44.4</ele>
        <time>2023-01-27T13:34:11Z</time>
      </trkpt>
      <trkpt lat="47.80515" lon="-3.6578">
        <ele>44.4</ele>
        <time>2023-01-27T13:34:12Z</time>
      </trkpt>
      <trkpt lat="47.8051" lon="-3.65775">
        <ele>44.4</ele>
        <time>2023-01-27T13:34:13Z</time>
      </trkpt>
      <trkpt lat="47.80504" lon="-3.6577">
        <ele>44.3</ele>
        <time>2023-01-27T13:34:14Z</time>
      </trkpt>
      <trkpt lat="47.80499" lon="-3.65768">
        <ele>44.3</ele>
        <time>2023-01-27T13:34:15Z</time>
      </trkpt>
      <trkpt lat="47.80493" lon="-3.6577">
        <ele>44.3</ele>
        <time>2023-01-27T13:34:16Z</time>
      </trkpt>
      <trkpt lat="47.80487" lon="-3.65772">
        <ele>44.2</ele>
        <time>2023-01-27T13:34:17Z</time>
      </trkpt>
      <trkpt lat="47.80479" lon="-3.65776">
        <ele>44.1</ele>
        <time>2023-01-27T13:34:18Z</time>
      </trkpt>
      <trkpt lat="47.80473" lon="-3.6578">
        <ele>44</ele>
        <time>2023-01-27T13:34:19Z</time>
      </trkpt>
      <trkpt lat="47.80466" lon="-3.65784">
        <ele>43.9</ele>
        <time>2023-01-27T13:34:20Z</time>
      </trkpt>
      <trkpt lat="47.8046" lon="-3.6579">
        <ele>43.9</ele>
        <time>2023-01-27T13:34:21Z</time>
      </trkpt>
      <trkpt lat="47.80453" lon="-3.65795">
        <ele>43.8</ele>
        <time>2023-01-27T13:34:22Z</time>
      </trkpt>
      <trkpt lat="47.80447" lon="-3.65799">
        <ele>43.8</ele>
        <time>2023-01-27T13:34:23Z</time>
      </trkpt>
      <trkpt lat="47.8044" lon="-3.65804">
        <ele>43.7</ele>
        <time>2023-01-27T13:34:24Z</time>
      </trkpt>
      <trkpt lat="47.80434" lon="-3.65809">
        <ele>43.6</ele>
        <time>2023-01-27T13:34:25Z</time>
      </trkpt>
      <trkpt lat="47.80428" lon="-3.65814">
        <ele>43.5</ele>
        <time>2023-01-27T13:34:26Z</time>
      </trkpt>
      <trkpt lat="47.80421" lon="-3.65818">
        <ele>43.4</ele>
        <time>2023-01-27T13:34:27Z</time>
      </trkpt>
      <trkpt lat="47.80415" lon="-3.65823">
        <ele>43.3</ele>
        <time>2023-01-27T13:34:28Z</time>
      </trkpt>
      <trkpt lat="47.8041" lon="-3.65828">
        <ele>43.2</ele>
        <time>2023-01-27T13:34:29Z</time>
      </trkpt>
      <trkpt lat="47.80404" lon="-3.65832">
        <ele>43.1</ele>
        <time>2023-01-27T13:34:30Z</time>
      </trkpt>
      <trkpt lat="47.80398" lon="-3.65837">
        <ele>43</ele>
        <time>2023-01-27T13:34:31Z</time>
      </trkpt>
      <trkpt lat="47.80392" lon="-3.65842">
        <ele>42.9</ele>
        <time>2023-01-27T13:34:32Z</time>
      </trkpt>
      <trkpt lat="47.80386" lon="-3.65846">
        <ele>42.7</ele>
        <time>2023-01-27T13:34:33Z</time>
      </trkpt>
      <trkpt lat="47.80381" lon="-3.65852">
        <ele>42.6</ele>
        <time>2023-01-27T13:34:34Z</time>
      </trkpt>
      <trkpt lat="47.80375" lon="-3.65857">
        <ele>42.4</ele>
        <time>2023-01-27T13:34:35Z</time>
      </trkpt>
      <trkpt lat="47.80369" lon="-3.65862">
        <ele>42.3</ele>
        <time>2023-01-27T13:34:36Z</time>
      </trkpt>
      <trkpt lat="47.80363" lon="-3.65868">
        <ele>42.1</ele>
        <time>2023-01-27T13:34:37Z</time>
      </trkpt>
      <trkpt lat="47.80357" lon="-3.65874">
        <ele>42</ele>
        <time>2023-01-27T13:34:38Z</time>
      </trkpt>
      <trkpt lat="47.80351" lon="-3.6588">
        <ele>41.9</ele>
        <time>2023-01-27T13:34:39Z</time>
      </trkpt>
      <trkpt lat="47.80346" lon="-3.65886">
        <ele>41.8</ele>
        <time>2023-01-27T13:34:40Z</time>
      </trkpt>
      <trkpt lat="47.8034" lon="-3.65892">
        <ele>41.7</ele>
        <time>2023-01-27T13:34:41Z</time>
      </trkpt>
      <trkpt lat="47.80334" lon="-3.65897">
        <ele>41.6</ele>
        <time>2023-01-27T13:34:42Z</time>
      </trkpt>
      <trkpt lat="47.80328" lon="-3.65903">
        <ele>41.5</ele>
        <time>2023-01-27T13:34:43Z</time>
      </trkpt>
      <trkpt lat="47.80322" lon="-3.65909">
        <ele>41.4</ele>
        <time>2023-01-27T13:34:44Z</time>
      </trkpt>
      <trkpt lat="47.80317" lon="-3.65914">
        <ele>41.3</ele>
        <time>2023-01-27T13:34:45Z</time>
      </trkpt>
      <trkpt lat="47.80311" lon="-3.65921">
        <ele>41.2</ele>
        <time>2023-01-27T13:34:46Z</time>
      </trkpt>
      <trkpt lat="47.80306" lon="-3.65927">
        <ele>41.1</ele>
        <time>2023-01-27T13:34:47Z</time>
      </trkpt>
      <trkpt lat="47.803" lon="-3.65933">
        <ele>41</ele>
        <time>2023-01-27T13:34:48Z</time>
      </trkpt>
      <trkpt lat="47.80294" lon="-3.65939">
        <ele>40.9</ele>
        <time>2023-01-27T13:34:49Z</time>
      </trkpt>
      <trkpt lat="47.80289" lon="-3.65946">
        <ele>40.9</ele>
        <time>2023-01-27T13:34:50Z</time>
      </trkpt>
      <trkpt lat="47.80283" lon="-3.65952">
        <ele>40.9</ele>
        <time>2023-01-27T13:34:51Z</time>
      </trkpt>
      <trkpt lat="47.80278" lon="-3.65958">
        <ele>40.8</ele>
        <time>2023-01-27T13:34:52Z</time>
      </trkpt>
      <trkpt lat="47.80272" lon="-3.65965">
        <ele>40.8</ele>
        <time>2023-01-27T13:34:53Z</time>
      </trkpt>
      <trkpt lat="47.80266" lon="-3.6597">
        <ele>40.7</ele>
        <time>2023-01-27T13:34:54Z</time>
      </trkpt>
      <trkpt lat="47.80261" lon="-3.65977">
        <ele>40.7</ele>
        <time>2023-01-27T13:34:55Z</time>
      </trkpt>
      <trkpt lat="47.80255" lon="-3.65983">
        <ele>40.7</ele>
        <time>2023-01-27T13:34:56Z</time>
      </trkpt>
      <trkpt lat="47.8025" lon="-3.65989">
        <ele>40.7</ele>
        <time>2023-01-27T13:34:57Z</time>
      </trkpt>
      <trkpt lat="47.80244" lon="-3.65996">
        <ele>40.7</ele>
        <time>2023-01-27T13:34:58Z</time>
      </trkpt>
      <trkpt lat="47.80238" lon="-3.66002">
        <ele>40.6</ele>
        <time>2023-01-27T13:34:59Z</time>
      </trkpt>
      <trkpt lat="47.80232" lon="-3.66009">
        <ele>40.6</ele>
        <time>2023-01-27T13:35:00Z</time>
      </trkpt>
      <trkpt lat="47.80227" lon="-3.66015">
        <ele>40.6</ele>
        <time>2023-01-27T13:35:01Z</time>
      </trkpt>
      <trkpt lat="47.80221" lon="-3.66022">
        <ele>40.6</ele>
        <time>2023-01-27T13:35:02Z</time>
      </trkpt>
      <trkpt lat="47.80215" lon="-3.66028">
        <ele>40.6</ele>
        <time>2023-01-27T13:35:03Z</time>
      </trkpt>
      <trkpt lat="47.8021" lon="-3.66034">
        <ele>40.7</ele>
        <time>2023-01-27T13:35:04Z</time>
      </trkpt>
      <trkpt lat="47.80204" lon="-3.6604">
        <ele>40.7</ele>
        <time>2023-01-27T13:35:05Z</time>
      </trkpt>
      <trkpt lat="47.80198" lon="-3.66047">
        <ele>40.7</ele>
        <time>2023-01-27T13:35:06Z</time>
      </trkpt>
      <trkpt lat="47.80193" lon="-3.66053">
        <ele>40.7</ele>
        <time>2023-01-27T13:35:07Z</time>
      </trkpt>
      <trkpt lat="47.80187" lon="-3.6606">
        <ele>40.7</ele>
        <time>2023-01-27T13:35:08Z</time>
      </trkpt>
      <trkpt lat="47.80182" lon="-3.66067">
        <ele>40.7</ele>
        <time>2023-01-27T13:35:09Z</time>
      </trkpt>
      <trkpt lat="47.80177" lon="-3.66074">
        <ele>40.7</ele>
        <time>2023-01-27T13:35:10Z</time>
      </trkpt>
      <trkpt lat="47.80173" lon="-3.66082">
        <ele>40.7</ele>
        <time>2023-01-27T13:35:11Z</time>
      </trkpt>
      <trkpt lat="47.80169" lon="-3.66091">
        <ele>40.7</ele>
        <time>2023-01-27T13:35:12Z</time>
      </trkpt>
      <trkpt lat="47.80165" lon="-3.66099">
        <ele>40.7</ele>
        <time>2023-01-27T13:35:13Z</time>
      </trkpt>
      <trkpt lat="47.80161" lon="-3.66107">
        <ele>40.7</ele>
        <time>2023-01-27T13:35:14Z</time>
      </trkpt>
      <trkpt lat="47.80157" lon="-3.66115">
        <ele>40.7</ele>
        <time>2023-01-27T13:35:15Z</time>
      </trkpt>
      <trkpt lat="47.80154" lon="-3.66123">
        <ele>40.7</ele>
        <time>2023-01-27T13:35:16Z</time>
      </trkpt>
      <trkpt lat="47.8015" lon="-3.66132">
        <ele>40.6</ele>
        <time>2023-01-27T13:35:17Z</time>
      </trkpt>
      <trkpt lat="47.80146" lon="-3.6614">
        <ele>40.6</ele>
        <time>2023-01-27T13:35:18Z</time>
      </trkpt>
      <trkpt lat="47.80142" lon="-3.66148">
        <ele>40.5</ele>
        <time>2023-01-27T13:35:19Z</time>
      </trkpt>
      <trkpt lat="47.80138" lon="-3.66156">
        <ele>40.4</ele>
        <time>2023-01-27T13:35:20Z</time>
      </trkpt>
      <trkpt lat="47.80134" lon="-3.66164">
        <ele>40.3</ele>
        <time>2023-01-27T13:35:21Z</time>
      </trkpt>
      <trkpt lat="47.8013" lon="-3.66172">
        <ele>40.2</ele>
        <time>2023-01-27T13:35:22Z</time>
      </trkpt>
      <trkpt lat="47.80126" lon="-3.6618">
        <ele>40.1</ele>
        <time>2023-01-27T13:35:23Z</time>
      </trkpt>
      <trkpt lat="47.80122" lon="-3.66189">
        <ele>40</ele>
        <time>2023-01-27T13:35:24Z</time>
      </trkpt>
      <trkpt lat="47.80118" lon="-3.66197">
        <ele>39.9</ele>
        <time>2023-01-27T13:35:25Z</time>
      </trkpt>
      <trkpt lat="47.80115" lon="-3.66206">
        <ele>39.8</ele>
        <time>2023-01-27T13:35:26Z</time>
      </trkpt>
      <trkpt lat="47.80111" lon="-3.66215">
        <ele>39.6</ele>
        <time>2023-01-27T13:35:27Z</time>
      </trkpt>
      <trkpt lat="47.80107" lon="-3.66224">
        <ele>39.5</ele>
        <time>2023-01-27T13:35:28Z</time>
      </trkpt>
      <trkpt lat="47.80103" lon="-3.66231">
        <ele>39.4</ele>
        <time>2023-01-27T13:35:29Z</time>
      </trkpt>
      <trkpt lat="47.80097" lon="-3.66236">
        <ele>39.4</ele>
        <time>2023-01-27T13:35:30Z</time>
      </trkpt>
      <trkpt lat="47.8009" lon="-3.66236">
        <ele>39.3</ele>
        <time>2023-01-27T13:35:31Z</time>
      </trkpt>
      <trkpt lat="47.80084" lon="-3.66231">
        <ele>39.2</ele>
        <time>2023-01-27T13:35:32Z</time>
      </trkpt>
      <trkpt lat="47.8008" lon="-3.66222">
        <ele>39.1</ele>
        <time>2023-01-27T13:35:33Z</time>
      </trkpt>
      <trkpt lat="47.80078" lon="-3.66214">
        <ele>39</ele>
        <time>2023-01-27T13:35:34Z</time>
      </trkpt>
      <trkpt lat="47.80075" lon="-3.66206">
        <ele>38.9</ele>
        <time>2023-01-27T13:35:35Z</time>
      </trkpt>
      <trkpt lat="47.80072" lon="-3.66197">
        <ele>38.8</ele>
        <time>2023-01-27T13:35:36Z</time>
      </trkpt>
      <trkpt lat="47.80069" lon="-3.66189">
        <ele>38.7</ele>
        <time>2023-01-27T13:35:37Z</time>
      </trkpt>
      <trkpt lat="47.80066" lon="-3.66181">
        <ele>38.6</ele>
        <time>2023-01-27T13:35:38Z</time>
      </trkpt>
      <trkpt lat="47.80063" lon="-3.66173">
        <ele>38.5</ele>
        <time>2023-01-27T13:35:39Z</time>
      </trkpt>
      <trkpt lat="47.80059" lon="-3.66165">
        <ele>38.3</ele>
        <time>2023-01-27T13:35:40Z</time>
      </trkpt>
      <trkpt lat="47.80054" lon="-3.66162">
        <ele>38.1</ele>
        <time>2023-01-27T13:35:41Z</time>
      </trkpt>
      <trkpt lat="47.80049" lon="-3.66163">
        <ele>37.8</ele>
        <time>2023-01-27T13:35:42Z</time>
      </trkpt>
      <trkpt lat="47.80044" lon="-3.66167">
        <ele>37.6</ele>
        <time>2023-01-27T13:35:43Z</time>
      </trkpt>
      <trkpt lat="47.80041" lon="-3.66172">
        <ele>37.3</ele>
        <time>2023-01-27T13:35:44Z</time>
      </trkpt>
      <trkpt lat="47.80038" lon="-3.66179">
        <ele>37.1</ele>
        <time>2023-01-27T13:35:45Z</time>
      </trkpt>
      <trkpt lat="47.80034" lon="-3.66184">
        <ele>36.9</ele>
        <time>2023-01-27T13:35:46Z</time>
      </trkpt>
      <trkpt lat="47.8003" lon="-3.66189">
        <ele>36.6</ele>
        <time>2023-01-27T13:35:47Z</time>
      </trkpt>
      <trkpt lat="47.80025" lon="-3.66195">
        <ele>36.4</ele>
        <time>2023-01-27T13:35:48Z</time>
      </trkpt>
      <trkpt lat="47.80021" lon="-3.66201">
        <ele>36.2</ele>
        <time>2023-01-27T13:35:49Z</time>
      </trkpt>
      <trkpt lat="47.80016" lon="-3.66206">
        <ele>36</ele>
        <time>2023-01-27T13:35:50Z</time>
      </trkpt>
      <trkpt lat="47.80012" lon="-3.66213">
        <ele>35.8</ele>
        <time>2023-01-27T13:35:51Z</time>
      </trkpt>
      <trkpt lat="47.80007" lon="-3.66219">
        <ele>35.6</ele>
        <time>2023-01-27T13:35:52Z</time>
      </trkpt>
      <trkpt lat="47.80003" lon="-3.66225">
        <ele>35.4</ele>
        <time>2023-01-27T13:35:53Z</time>
      </trkpt>
      <trkpt lat="47.79998" lon="-3.66231">
        <ele>35.2</ele>
        <time>2023-01-27T13:35:54Z</time>
      </trkpt>
      <trkpt lat="47.79993" lon="-3.66237">
        <ele>35</ele>
        <time>2023-01-27T13:35:55Z</time>
      </trkpt>
      <trkpt lat="47.79988" lon="-3.66243">
        <ele>34.8</ele>
        <time>2023-01-27T13:35:56Z</time>
      </trkpt>
      <trkpt lat="47.79983" lon="-3.66249">
        <ele>34.6</ele>
        <time>2023-01-27T13:35:57Z</time>
      </trkpt>
      <trkpt lat="47.79978" lon="-3.66256">
        <ele>34.4</ele>
        <time>2023-01-27T13:35:58Z</time>
      </trkpt>
      <trkpt lat="47.79974" lon="-3.66262">
        <ele>34.2</ele>
        <time>2023-01-27T13:35:59Z</time>
      </trkpt>
      <trkpt lat="47.79969" lon="-3.66269">
        <ele>33.9</ele>
        <time>2023-01-27T13:36:00Z</time>
      </trkpt>
      <trkpt lat="47.79964" lon="-3.66275">
        <ele>33.8</ele>
        <time>2023-01-27T13:36:01Z</time>
      </trkpt>
      <trkpt lat="47.79959" lon="-3.66281">
        <ele>33.6</ele>
        <time>2023-01-27T13:36:02Z</time>
      </trkpt>
      <trkpt lat="47.79954" lon="-3.66287">
        <ele>33.4</ele>
        <time>2023-01-27T13:36:03Z</time>
      </trkpt>
      <trkpt lat="47.79949" lon="-3.66294">
        <ele>33.3</ele>
        <time>2023-01-27T13:36:04Z</time>
      </trkpt>
      <trkpt lat="47.79945" lon="-3.66299">
        <ele>33.1</ele>
        <time>2023-01-27T13:36:05Z</time>
      </trkpt>
      <trkpt lat="47.7994" lon="-3.66305">
        <ele>33</ele>
        <time>2023-01-27T13:36:06Z</time>
      </trkpt>
      <trkpt lat="47.79935" lon="-3.6631">
        <ele>32.9</ele>
        <time>2023-01-27T13:36:07Z</time>
      </trkpt>
      <trkpt lat="47.7993" lon="-3.66316">
        <ele>32.8</ele>
        <time>2023-01-27T13:36:08Z</time>
      </trkpt>
      <trkpt lat="47.79926" lon="-3.66322">
        <ele>32.7</ele>
        <time>2023-01-27T13:36:09Z</time>
      </trkpt>
      <trkpt lat="47.79921" lon="-3.66328">
        <ele>32.6</ele>
        <time>2023-01-27T13:36:10Z</time>
      </trkpt>
      <trkpt lat="47.79917" lon="-3.66333">
        <ele>32.4</ele>
        <time>2023-01-27T13:36:11Z</time>
      </trkpt>
      <trkpt lat="47.79912" lon="-3.66339">
        <ele>32.3</ele>
        <time>2023-01-27T13:36:12Z</time>
      </trkpt>
      <trkpt lat="47.79907" lon="-3.66345">
        <ele>32.2</ele>
        <time>2023-01-27T13:36:13Z</time>
      </trkpt>
      <trkpt lat="47.79903" lon="-3.66351">
        <ele>32.1</ele>
        <time>2023-01-27T13:36:14Z</time>
      </trkpt>
      <trkpt lat="47.79899" lon="-3.66357">
        <ele>31.9</ele>
        <time>2023-01-27T13:36:15Z</time>
      </trkpt>
      <trkpt lat="47.79894" lon="-3.66363">
        <ele>31.8</ele>
        <time>2023-01-27T13:36:16Z</time>
      </trkpt>
      <trkpt lat="47.7989" lon="-3.66368">
        <ele>31.7</ele>
        <time>2023-01-27T13:36:17Z</time>
      </trkpt>
      <trkpt lat="47.79885" lon="-3.66374">
        <ele>31.6</ele>
        <time>2023-01-27T13:36:18Z</time>
      </trkpt>
      <trkpt lat="47.79881" lon="-3.6638">
        <ele>31.5</ele>
        <time>2023-01-27T13:36:19Z</time>
      </trkpt>
      <trkpt lat="47.79877" lon="-3.66386">
        <ele>31.4</ele>
        <time>2023-01-27T13:36:20Z</time>
      </trkpt>
      <trkpt lat="47.79872" lon="-3.66391">
        <ele>31.3</ele>
        <time>2023-01-27T13:36:21Z</time>
      </trkpt>
      <trkpt lat="47.79868" lon="-3.66397">
        <ele>31.2</ele>
        <time>2023-01-27T13:36:22Z</time>
      </trkpt>
      <trkpt lat="47.79864" lon="-3.66402">
        <ele>31.1</ele>
        <time>2023-01-27T13:36:23Z</time>
      </trkpt>
      <trkpt lat="47.7986" lon="-3.66408">
        <ele>31</ele>
        <time>2023-01-27T13:36:24Z</time>
      </trkpt>
      <trkpt lat="47.79856" lon="-3.66413">
        <ele>30.9</ele>
        <time>2023-01-27T13:36:25Z</time>
      </trkpt>
      <trkpt lat="47.79851" lon="-3.66418">
        <ele>30.8</ele>
        <time>2023-01-27T13:36:26Z</time>
      </trkpt>
      <trkpt lat="47.79847" lon="-3.66424">
        <ele>30.7</ele>
        <time>2023-01-27T13:36:27Z</time>
      </trkpt>
      <trkpt lat="47.79843" lon="-3.66429">
        <ele>30.6</ele>
        <time>2023-01-27T13:36:28Z</time>
      </trkpt>
      <trkpt lat="47.79838" lon="-3.66434">
        <ele>30.5</ele>
        <time>2023-01-27T13:36:29Z</time>
      </trkpt>
      <trkpt lat="47.79835" lon="-3.66439">
        <ele>30.4</ele>
        <time>2023-01-27T13:36:30Z</time>
      </trkpt>
      <trkpt lat="47.79831" lon="-3.66445">
        <ele>30.3</ele>
        <time>2023-01-27T13:36:31Z</time>
      </trkpt>
      <trkpt lat="47.79826" lon="-3.6645">
        <ele>30.1</ele>
        <time>2023-01-27T13:36:32Z</time>
      </trkpt>
      <trkpt lat="47.79821" lon="-3.66456">
        <ele>29.9</ele>
        <time>2023-01-27T13:36:33Z</time>
      </trkpt>
      <trkpt lat="47.79816" lon="-3.66462">
        <ele>29.7</ele>
        <time>2023-01-27T13:36:34Z</time>
      </trkpt>
      <trkpt lat="47.79811" lon="-3.66468">
        <ele>29.5</ele>
        <time>2023-01-27T13:36:35Z</time>
      </trkpt>
      <trkpt lat="47.79806" lon="-3.66474">
        <ele>29.2</ele>
        <time>2023-01-27T13:36:36Z</time>
      </trkpt>
      <trkpt lat="47.798" lon="-3.6648">
        <ele>29</ele>
        <time>2023-01-27T13:36:37Z</time>
      </trkpt>
      <trkpt lat="47.79795" lon="-3.66487">
        <ele>28.8</ele>
        <time>2023-01-27T13:36:38Z</time>
      </trkpt>
      <trkpt lat="47.79789" lon="-3.66493">
        <ele>28.5</ele>
        <time>2023-01-27T13:36:39Z</time>
      </trkpt>
      <trkpt lat="47.79782" lon="-3.66499">
        <ele>28.2</ele>
        <time>2023-01-27T13:36:40Z</time>
      </trkpt>
      <trkpt lat="47.79776" lon="-3.66505">
        <ele>28</ele>
        <time>2023-01-27T13:36:41Z</time>
      </trkpt>
      <trkpt lat="47.7977" lon="-3.66511">
        <ele>27.7</ele>
        <time>2023-01-27T13:36:42Z</time>
      </trkpt>
      <trkpt lat="47.79764" lon="-3.66517">
        <ele>27.5</ele>
        <time>2023-01-27T13:36:43Z</time>
      </trkpt>
      <trkpt lat="47.79757" lon="-3.66521">
        <ele>27.2</ele>
        <time>2023-01-27T13:36:44Z</time>
      </trkpt>
      <trkpt lat="47.7975" lon="-3.66525">
        <ele>27</ele>
        <time>2023-01-27T13:36:45Z</time>
      </trkpt>
      <trkpt lat="47.79742" lon="-3.66527">
        <ele>26.8</ele>
        <time>2023-01-27T13:36:46Z</time>
      </trkpt>
      <trkpt lat="47.79735" lon="-3.66529">
        <ele>26.6</ele>
        <time>2023-01-27T13:36:47Z</time>
      </trkpt>
      <trkpt lat="47.79728" lon="-3.66531">
        <ele>26.5</ele>
        <time>2023-01-27T13:36:48Z</time>
      </trkpt>
      <trkpt lat="47.79723" lon="-3.66534">
        <ele>26.4</ele>
        <time>2023-01-27T13:36:49Z</time>
      </trkpt>
      <trkpt lat="47.79718" lon="-3.66539">
        <ele>26.4</ele>
        <time>2023-01-27T13:36:50Z</time>
      </trkpt>
      <trkpt lat="47.79715" lon="-3.66548">
        <ele>26.4</ele>
        <time>2023-01-27T13:36:51Z</time>
      </trkpt>
      <trkpt lat="47.79714" lon="-3.66557">
        <ele>26.4</ele>
        <time>2023-01-27T13:36:52Z</time>
      </trkpt>
      <trkpt lat="47.79716" lon="-3.66565">
        <ele>26.4</ele>
        <time>2023-01-27T13:36:53Z</time>
      </trkpt>
      <trkpt lat="47.79718" lon="-3.66573">
        <ele>26.5</ele>
        <time>2023-01-27T13:36:54Z</time>
      </trkpt>
      <trkpt lat="47.79719" lon="-3.66581">
        <ele>26.5</ele>
        <time>2023-01-27T13:36:55Z</time>
      </trkpt>
      <trkpt lat="47.7972" lon="-3.66588">
        <ele>26.6</ele>
        <time>2023-01-27T13:36:56Z</time>
      </trkpt>
      <trkpt lat="47.79721" lon="-3.66596">
        <ele>26.6</ele>
        <time>2023-01-27T13:36:57Z</time>
      </trkpt>
      <trkpt lat="47.79722" lon="-3.66605">
        <ele>26.6</ele>
        <time>2023-01-27T13:36:58Z</time>
      </trkpt>
      <trkpt lat="47.79723" lon="-3.66613">
        <ele>26.7</ele>
        <time>2023-01-27T13:36:59Z</time>
      </trkpt>
      <trkpt lat="47.79724" lon="-3.6662">
        <ele>26.7</ele>
        <time>2023-01-27T13:37:00Z</time>
      </trkpt>
      <trkpt lat="47.79725" lon="-3.66628">
        <ele>26.7</ele>
        <time>2023-01-27T13:37:01Z</time>
      </trkpt>
      <trkpt lat="47.79727" lon="-3.66636">
        <ele>26.8</ele>
        <time>2023-01-27T13:37:02Z</time>
      </trkpt>
      <trkpt lat="47.79728" lon="-3.66644">
        <ele>26.8</ele>
        <time>2023-01-27T13:37:03Z</time>
      </trkpt>
      <trkpt lat="47.79729" lon="-3.66652">
        <ele>26.8</ele>
        <time>2023-01-27T13:37:04Z</time>
      </trkpt>
      <trkpt lat="47.7973" lon="-3.66661">
        <ele>26.8</ele>
        <time>2023-01-27T13:37:05Z</time>
      </trkpt>
      <trkpt lat="47.79731" lon="-3.66669">
        <ele>26.8</ele>
        <time>2023-01-27T13:37:06Z</time>
      </trkpt>
      <trkpt lat="47.79732" lon="-3.66676">
        <ele>26.8</ele>
        <time>2023-01-27T13:37:07Z</time>
      </trkpt>
      <trkpt lat="47.79733" lon="-3.66685">
        <ele>26.8</ele>
        <time>2023-01-27T13:37:08Z</time>
      </trkpt>
      <trkpt lat="47.79734" lon="-3.66693">
        <ele>26.7</ele>
        <time>2023-01-27T13:37:09Z</time>
      </trkpt>
      <trkpt lat="47.79735" lon="-3.66701">
        <ele>26.7</ele>
        <time>2023-01-27T13:37:10Z</time>
      </trkpt>
      <trkpt lat="47.79735" lon="-3.66709">
        <ele>26.6</ele>
        <time>2023-01-27T13:37:11Z</time>
      </trkpt>
      <trkpt lat="47.79735" lon="-3.66718">
        <ele>26.5</ele>
        <time>2023-01-27T13:37:12Z</time>
      </trkpt>
      <trkpt lat="47.79734" lon="-3.66726">
        <ele>26.3</ele>
        <time>2023-01-27T13:37:13Z</time>
      </trkpt>
      <trkpt lat="47.79734" lon="-3.66735">
        <ele>26.2</ele>
        <time>2023-01-27T13:37:14Z</time>
      </trkpt>
      <trkpt lat="47.79734" lon="-3.66743">
        <ele>26</ele>
        <time>2023-01-27T13:37:15Z</time>
      </trkpt>
      <trkpt lat="47.79734" lon="-3.66753">
        <ele>25.8</ele>
        <time>2023-01-27T13:37:16Z</time>
      </trkpt>
      <trkpt lat="47.79733" lon="-3.66763">
        <ele>25.5</ele>
        <time>2023-01-27T13:37:17Z</time>
      </trkpt>
      <trkpt lat="47.79733" lon="-3.66774">
        <ele>25.2</ele>
        <time>2023-01-27T13:37:18Z</time>
      </trkpt>
      <trkpt lat="47.79732" lon="-3.66784">
        <ele>24.9</ele>
        <time>2023-01-27T13:37:19Z</time>
      </trkpt>
      <trkpt lat="47.79732" lon="-3.66794">
        <ele>24.6</ele>
        <time>2023-01-27T13:37:20Z</time>
      </trkpt>
      <trkpt lat="47.79731" lon="-3.66805">
        <ele>24.2</ele>
        <time>2023-01-27T13:37:21Z</time>
      </trkpt>
      <trkpt lat="47.79731" lon="-3.66816">
        <ele>23.9</ele>
        <time>2023-01-27T13:37:22Z</time>
      </trkpt>
      <trkpt lat="47.7973" lon="-3.66827">
        <ele>23.5</ele>
        <time>2023-01-27T13:37:23Z</time>
      </trkpt>
      <trkpt lat="47.7973" lon="-3.66838">
        <ele>23.1</ele>
        <time>2023-01-27T13:37:24Z</time>
      </trkpt>
      <trkpt lat="47.79729" lon="-3.66849">
        <ele>22.7</ele>
        <time>2023-01-27T13:37:25Z</time>
      </trkpt>
      <trkpt lat="47.79729" lon="-3.6686">
        <ele>22.3</ele>
        <time>2023-01-27T13:37:26Z</time>
      </trkpt>
      <trkpt lat="47.79727" lon="-3.66871">
        <ele>21.9</ele>
        <time>2023-01-27T13:37:27Z</time>
      </trkpt>
      <trkpt lat="47.79726" lon="-3.6688">
        <ele>21.6</ele>
        <time>2023-01-27T13:37:28Z</time>
      </trkpt>
      <trkpt lat="47.79725" lon="-3.66887">
        <ele>21.4</ele>
        <time>2023-01-27T13:37:29Z</time>
      </trkpt>
      <trkpt lat="47.79726" lon="-3.66893">
        <ele>21.2</ele>
        <time>2023-01-27T13:37:30Z</time>
      </trkpt>
      <trkpt lat="47.79725" lon="-3.66897">
        <ele>21.1</ele>
        <time>2023-01-27T13:37:31Z</time>
      </trkpt>
      <trkpt lat="47.79722" lon="-3.66901">
        <ele>20.8</ele>
        <time>2023-01-27T13:37:32Z</time>
      </trkpt>
      <trkpt lat="47.79719" lon="-3.66903">
        <ele>20.6</ele>
        <time>2023-01-27T13:37:33Z</time>
      </trkpt>
      <trkpt lat="47.79715" lon="-3.66903">
        <ele>20.5</ele>
        <time>2023-01-27T13:37:34Z</time>
      </trkpt>
      <trkpt lat="47.7971" lon="-3.66904">
        <ele>20.3</ele>
        <time>2023-01-27T13:37:35Z</time>
      </trkpt>
      <trkpt lat="47.79706" lon="-3.66905">
        <ele>20.1</ele>
        <time>2023-01-27T13:37:36Z</time>
      </trkpt>
      <trkpt lat="47.79703" lon="-3.66906">
        <ele>20</ele>
        <time>2023-01-27T13:37:37Z</time>
      </trkpt>
      <trkpt lat="47.79699" lon="-3.66908">
        <ele>19.8</ele>
        <time>2023-01-27T13:37:38Z</time>
      </trkpt>
      <trkpt lat="47.79692" lon="-3.6691">
        <ele>19.6</ele>
        <time>2023-01-27T13:37:39Z</time>
      </trkpt>
      <trkpt lat="47.79686" lon="-3.66913">
        <ele>19.3</ele>
        <time>2023-01-27T13:37:40Z</time>
      </trkpt>
      <trkpt lat="47.79682" lon="-3.66915">
        <ele>19.1</ele>
        <time>2023-01-27T13:37:41Z</time>
      </trkpt>
      <trkpt lat="47.79678" lon="-3.66917">
        <ele>18.9</ele>
        <time>2023-01-27T13:37:42Z</time>
      </trkpt>
      <trkpt lat="47.79675" lon="-3.66919">
        <ele>18.8</ele>
        <time>2023-01-27T13:37:43Z</time>
      </trkpt>
      <trkpt lat="47.79669" lon="-3.66923">
        <ele>18.5</ele>
        <time>2023-01-27T13:37:44Z</time>
      </trkpt>
      <trkpt lat="47.79665" lon="-3.66925">
        <ele>18.2</ele>
        <time>2023-01-27T13:37:45Z</time>
      </trkpt>
      <trkpt lat="47.7966" lon="-3.66928">
        <ele>17.9</ele>
        <time>2023-01-27T13:37:46Z</time>
      </trkpt>
      <trkpt lat="47.79657" lon="-3.6693">
        <ele>17.8</ele>
        <time>2023-01-27T13:37:47Z</time>
      </trkpt>
      <trkpt lat="47.79651" lon="-3.66936">
        <ele>17.5</ele>
        <time>2023-01-27T13:37:48Z</time>
      </trkpt>
      <trkpt lat="47.79648" lon="-3.66939">
        <ele>17.3</ele>
        <time>2023-01-27T13:37:49Z</time>
      </trkpt>
      <trkpt lat="47.79647" lon="-3.66942">
        <ele>17.2</ele>
        <time>2023-01-27T13:37:50Z</time>
      </trkpt>
      <trkpt lat="47.79644" lon="-3.66947">
        <ele>17</ele>
        <time>2023-01-27T13:37:52Z</time>
      </trkpt>
      <trkpt lat="47.79643" lon="-3.66948">
        <ele>16.9</ele>
        <time>2023-01-27T13:37:53Z</time>
      </trkpt>
      <trkpt lat="47.79641" lon="-3.66948">
        <ele>16.9</ele>
        <time>2023-01-27T13:37:54Z</time>
      </trkpt>
      <trkpt lat="47.79641" lon="-3.66948">
        <ele>16.8</ele>
        <time>2023-01-27T13:37:55Z</time>
      </trkpt>
      <trkpt lat="47.79641" lon="-3.66947">
        <ele>16.8</ele>
        <time>2023-01-27T13:37:56Z</time>
      </trkpt>
      <trkpt lat="47.79641" lon="-3.66947">
        <ele>16.8</ele>
        <time>2023-01-27T13:37:57Z</time>
      </trkpt>
      <trkpt lat="47.79641" lon="-3.66947">
        <ele>16.8</ele>
        <time>2023-01-27T13:37:58Z</time>
      </trkpt>
      <trkpt lat="47.79641" lon="-3.66947">
        <ele>16.8</ele>
        <time>2023-01-27T13:37:59Z</time>
      </trkpt>
      <trkpt lat="47.79641" lon="-3.66947">
        <ele>16.8</ele>
        <time>2023-01-27T13:38:00Z</time>
      </trkpt>
      <trkpt lat="47.79641" lon="-3.66947">
        <ele>16.8</ele>
        <time>2023-01-27T13:38:01Z</time>
      </trkpt>
      <trkpt lat="47.79641" lon="-3.66947">
        <ele>16.8</ele>
        <time>2023-01-27T13:38:02Z</time>
      </trkpt>
      <trkpt lat="47.79641" lon="-3.66947">
        <ele>16.8</ele>
        <time>2023-01-27T13:38:03Z</time>
      </trkpt>
      <trkpt lat="47.79638" lon="-3.66949">
        <ele>16.7</ele>
        <time>2023-01-27T13:38:12Z</time>
      </trkpt>
      <trkpt lat="47.79636" lon="-3.66952">
        <ele>16.5</ele>
        <time>2023-01-27T13:38:13Z</time>
      </trkpt>
      <trkpt lat="47.79633" lon="-3.66954">
        <ele>16.4</ele>
        <time>2023-01-27T13:38:14Z</time>
      </trkpt>
      <trkpt lat="47.79631" lon="-3.66958">
        <ele>16.2</ele>
        <time>2023-01-27T13:38:15Z</time>
      </trkpt>
      <trkpt lat="47.79627" lon="-3.66961">
        <ele>15.9</ele>
        <time>2023-01-27T13:38:16Z</time>
      </trkpt>
      <trkpt lat="47.79624" lon="-3.66964">
        <ele>15.7</ele>
        <time>2023-01-27T13:38:17Z</time>
      </trkpt>
      <trkpt lat="47.79621" lon="-3.66967">
        <ele>15.5</ele>
        <time>2023-01-27T13:38:18Z</time>
      </trkpt>
      <trkpt lat="47.79612" lon="-3.66972">
        <ele>14.9</ele>
        <time>2023-01-27T13:38:20Z</time>
      </trkpt>
      <trkpt lat="47.79605" lon="-3.66975">
        <ele>14.4</ele>
        <time>2023-01-27T13:38:21Z</time>
      </trkpt>
      <trkpt lat="47.79599" lon="-3.66977">
        <ele>14</ele>
        <time>2023-01-27T13:38:22Z</time>
      </trkpt>
      <trkpt lat="47.79593" lon="-3.6698">
        <ele>13.6</ele>
        <time>2023-01-27T13:38:23Z</time>
      </trkpt>
      <trkpt lat="47.79588" lon="-3.66984">
        <ele>13.3</ele>
        <time>2023-01-27T13:38:24Z</time>
      </trkpt>
      <trkpt lat="47.79583" lon="-3.66988">
        <ele>13</ele>
        <time>2023-01-27T13:38:25Z</time>
      </trkpt>
      <trkpt lat="47.79579" lon="-3.66992">
        <ele>12.7</ele>
        <time>2023-01-27T13:38:26Z</time>
      </trkpt>
      <trkpt lat="47.79576" lon="-3.66994">
        <ele>12.6</ele>
        <time>2023-01-27T13:38:27Z</time>
      </trkpt>
      <trkpt lat="47.79571" lon="-3.66997">
        <ele>12.4</ele>
        <time>2023-01-27T13:38:28Z</time>
      </trkpt>
      <trkpt lat="47.79567" lon="-3.67">
        <ele>12.2</ele>
        <time>2023-01-27T13:38:29Z</time>
      </trkpt>
      <trkpt lat="47.79565" lon="-3.67006">
        <ele>12.1</ele>
        <time>2023-01-27T13:38:30Z</time>
      </trkpt>
      <trkpt lat="47.79563" lon="-3.67012">
        <ele>12</ele>
        <time>2023-01-27T13:38:32Z</time>
      </trkpt>
      <trkpt lat="47.79562" lon="-3.67014">
        <ele>12</ele>
        <time>2023-01-27T13:38:33Z</time>
      </trkpt>
      <trkpt lat="47.79562" lon="-3.67015">
        <ele>12</ele>
        <time>2023-01-27T13:38:34Z</time>
      </trkpt>
      <trkpt lat="47.79562" lon="-3.67016">
        <ele>12</ele>
        <time>2023-01-27T13:38:35Z</time>
      </trkpt>
      <trkpt lat="47.79562" lon="-3.67017">
        <ele>11.9</ele>
        <time>2023-01-27T13:38:36Z</time>
      </trkpt>
      <trkpt lat="47.79561" lon="-3.67022">
        <ele>11.9</ele>
        <time>2023-01-27T13:38:37Z</time>
      </trkpt>
      <trkpt lat="47.7956" lon="-3.67028">
        <ele>11.9</ele>
        <time>2023-01-27T13:38:38Z</time>
      </trkpt>
      <trkpt lat="47.79559" lon="-3.67032">
        <ele>11.8</ele>
        <time>2023-01-27T13:38:39Z</time>
      </trkpt>
      <trkpt lat="47.79557" lon="-3.67036">
        <ele>11.8</ele>
        <time>2023-01-27T13:38:41Z</time>
      </trkpt>
      <trkpt lat="47.79553" lon="-3.67041">
        <ele>11.8</ele>
        <time>2023-01-27T13:38:42Z</time>
      </trkpt>
      <trkpt lat="47.79548" lon="-3.67046">
        <ele>11.8</ele>
        <time>2023-01-27T13:38:44Z</time>
      </trkpt>
      <trkpt lat="47.79542" lon="-3.67052">
        <ele>11.8</ele>
        <time>2023-01-27T13:38:45Z</time>
      </trkpt>
      <trkpt lat="47.79539" lon="-3.67055">
        <ele>11.8</ele>
        <time>2023-01-27T13:38:46Z</time>
      </trkpt>
      <trkpt lat="47.79536" lon="-3.67059">
        <ele>11.8</ele>
        <time>2023-01-27T13:38:47Z</time>
      </trkpt>
      <trkpt lat="47.79531" lon="-3.67064">
        <ele>11.9</ele>
        <time>2023-01-27T13:38:49Z</time>
      </trkpt>
      <trkpt lat="47.79528" lon="-3.67067">
        <ele>11.9</ele>
        <time>2023-01-27T13:38:50Z</time>
      </trkpt>
      <trkpt lat="47.79526" lon="-3.6707">
        <ele>12</ele>
        <time>2023-01-27T13:38:51Z</time>
      </trkpt>
      <trkpt lat="47.79521" lon="-3.67072">
        <ele>12.1</ele>
        <time>2023-01-27T13:38:52Z</time>
      </trkpt>
      <trkpt lat="47.79517" lon="-3.67073">
        <ele>12.2</ele>
        <time>2023-01-27T13:38:53Z</time>
      </trkpt>
      <trkpt lat="47.79513" lon="-3.67074">
        <ele>12.3</ele>
        <time>2023-01-27T13:38:54Z</time>
      </trkpt>
      <trkpt lat="47.7951" lon="-3.67075">
        <ele>12.4</ele>
        <time>2023-01-27T13:38:55Z</time>
      </trkpt>
      <trkpt lat="47.79506" lon="-3.67074">
        <ele>12.5</ele>
        <time>2023-01-27T13:38:56Z</time>
      </trkpt>
      <trkpt lat="47.79503" lon="-3.67074">
        <ele>12.6</ele>
        <time>2023-01-27T13:38:57Z</time>
      </trkpt>
      <trkpt lat="47.795" lon="-3.67076">
        <ele>12.7</ele>
        <time>2023-01-27T13:38:58Z</time>
      </trkpt>
      <trkpt lat="47.795" lon="-3.67076">
        <ele>12.7</ele>
        <time>2023-01-27T13:38:59Z</time>
      </trkpt>
      <trkpt lat="47.79495" lon="-3.67078">
        <ele>12.9</ele>
        <time>2023-01-27T13:39:01Z</time>
      </trkpt>
      <trkpt lat="47.79494" lon="-3.67078">
        <ele>12.9</ele>
        <time>2023-01-27T13:39:02Z</time>
      </trkpt>
      <trkpt lat="47.79492" lon="-3.67078">
        <ele>13</ele>
        <time>2023-01-27T13:39:03Z</time>
      </trkpt>
      <trkpt lat="47.79488" lon="-3.67078">
        <ele>13.1</ele>
        <time>2023-01-27T13:39:04Z</time>
      </trkpt>
      <trkpt lat="47.79488" lon="-3.67079">
        <ele>13.1</ele>
        <time>2023-01-27T13:39:05Z</time>
      </trkpt>
      <trkpt lat="47.79484" lon="-3.6708">
        <ele>13.2</ele>
        <time>2023-01-27T13:39:06Z</time>
      </trkpt>
      <trkpt lat="47.79483" lon="-3.6708">
        <ele>13.2</ele>
        <time>2023-01-27T13:39:07Z</time>
      </trkpt>
      <trkpt lat="47.79478" lon="-3.67082">
        <ele>13.3</ele>
        <time>2023-01-27T13:39:08Z</time>
      </trkpt>
      <trkpt lat="47.79476" lon="-3.67084">
        <ele>13.3</ele>
        <time>2023-01-27T13:39:09Z</time>
      </trkpt>
      <trkpt lat="47.79473" lon="-3.67087">
        <ele>13.3</ele>
        <time>2023-01-27T13:39:10Z</time>
      </trkpt>
      <trkpt lat="47.7947" lon="-3.67089">
        <ele>13.2</ele>
        <time>2023-01-27T13:39:11Z</time>
      </trkpt>
      <trkpt lat="47.79467" lon="-3.67091">
        <ele>13.1</ele>
        <time>2023-01-27T13:39:12Z</time>
      </trkpt>
      <trkpt lat="47.79463" lon="-3.671">
        <ele>12.7</ele>
        <time>2023-01-27T13:39:14Z</time>
      </trkpt>
      <trkpt lat="47.79461" lon="-3.67112">
        <ele>12.1</ele>
        <time>2023-01-27T13:39:16Z</time>
      </trkpt>
      <trkpt lat="47.79459" lon="-3.67121">
        <ele>11.6</ele>
        <time>2023-01-27T13:39:17Z</time>
      </trkpt>
      <trkpt lat="47.79457" lon="-3.67129">
        <ele>11.2</ele>
        <time>2023-01-27T13:39:18Z</time>
      </trkpt>
      <trkpt lat="47.79454" lon="-3.67134">
        <ele>11</ele>
        <time>2023-01-27T13:39:19Z</time>
      </trkpt>
      <trkpt lat="47.79453" lon="-3.6714">
        <ele>10.9</ele>
        <time>2023-01-27T13:39:21Z</time>
      </trkpt>
      <trkpt lat="47.7945" lon="-3.67142">
        <ele>10.8</ele>
        <time>2023-01-27T13:39:22Z</time>
      </trkpt>
      <trkpt lat="47.79449" lon="-3.67142">
        <ele>10.8</ele>
        <time>2023-01-27T13:39:23Z</time>
      </trkpt>
      <trkpt lat="47.79449" lon="-3.67142">
        <ele>10.8</ele>
        <time>2023-01-27T13:39:24Z</time>
      </trkpt>
      <trkpt lat="47.79448" lon="-3.67142">
        <ele>10.8</ele>
        <time>2023-01-27T13:39:25Z</time>
      </trkpt>
      <trkpt lat="47.79447" lon="-3.67142">
        <ele>10.8</ele>
        <time>2023-01-27T13:39:26Z</time>
      </trkpt>
      <trkpt lat="47.79446" lon="-3.67141">
        <ele>10.8</ele>
        <time>2023-01-27T13:39:28Z</time>
      </trkpt>
      <trkpt lat="47.79445" lon="-3.67141">
        <ele>10.8</ele>
        <time>2023-01-27T13:39:29Z</time>
      </trkpt>
      <trkpt lat="47.79443" lon="-3.67139">
        <ele>10.8</ele>
        <time>2023-01-27T13:39:30Z</time>
      </trkpt>
      <trkpt lat="47.79443" lon="-3.67139">
        <ele>10.8</ele>
        <time>2023-01-27T13:39:32Z</time>
      </trkpt>
      <trkpt lat="47.79441" lon="-3.67139">
        <ele>10.9</ele>
        <time>2023-01-27T13:39:33Z</time>
      </trkpt>
      <trkpt lat="47.79441" lon="-3.67139">
        <ele>10.9</ele>
        <time>2023-01-27T13:39:35Z</time>
      </trkpt>
      <trkpt lat="47.7944" lon="-3.6714">
        <ele>10.9</ele>
        <time>2023-01-27T13:39:36Z</time>
      </trkpt>
      <trkpt lat="47.7944" lon="-3.67141">
        <ele>10.9</ele>
        <time>2023-01-27T13:39:37Z</time>
      </trkpt>
      <trkpt lat="47.79439" lon="-3.67142">
        <ele>10.9</ele>
        <time>2023-01-27T13:39:38Z</time>
      </trkpt>
      <trkpt lat="47.79439" lon="-3.67143">
        <ele>10.9</ele>
        <time>2023-01-27T13:39:39Z</time>
      </trkpt>
      <trkpt lat="47.79438" lon="-3.67144">
        <ele>10.9</ele>
        <time>2023-01-27T13:39:40Z</time>
      </trkpt>
      <trkpt lat="47.79438" lon="-3.67147">
        <ele>10.9</ele>
        <time>2023-01-27T13:39:41Z</time>
      </trkpt>
      <trkpt lat="47.79436" lon="-3.67151">
        <ele>10.9</ele>
        <time>2023-01-27T13:39:43Z</time>
      </trkpt>
      <trkpt lat="47.79435" lon="-3.67153">
        <ele>10.9</ele>
        <time>2023-01-27T13:39:44Z</time>
      </trkpt>
      <trkpt lat="47.79435" lon="-3.67156">
        <ele>11</ele>
        <time>2023-01-27T13:39:45Z</time>
      </trkpt>
      <trkpt lat="47.79434" lon="-3.67159">
        <ele>11</ele>
        <time>2023-01-27T13:39:46Z</time>
      </trkpt>
      <trkpt lat="47.79434" lon="-3.67166">
        <ele>11.1</ele>
        <time>2023-01-27T13:39:48Z</time>
      </trkpt>
      <trkpt lat="47.79435" lon="-3.67177">
        <ele>11.3</ele>
        <time>2023-01-27T13:39:49Z</time>
      </trkpt>
      <trkpt lat="47.79436" lon="-3.67181">
        <ele>11.4</ele>
        <time>2023-01-27T13:39:50Z</time>
      </trkpt>
      <trkpt lat="47.79436" lon="-3.67186">
        <ele>11.5</ele>
        <time>2023-01-27T13:39:51Z</time>
      </trkpt>
      <trkpt lat="47.79436" lon="-3.6719">
        <ele>11.6</ele>
        <time>2023-01-27T13:39:52Z</time>
      </trkpt>
      <trkpt lat="47.79435" lon="-3.67198">
        <ele>11.8</ele>
        <time>2023-01-27T13:39:54Z</time>
      </trkpt>
      <trkpt lat="47.79435" lon="-3.67203">
        <ele>11.9</ele>
        <time>2023-01-27T13:39:56Z</time>
      </trkpt>
      <trkpt lat="47.79436" lon="-3.67208">
        <ele>12.1</ele>
        <time>2023-01-27T13:39:57Z</time>
      </trkpt>
      <trkpt lat="47.79436" lon="-3.67212">
        <ele>12.3</ele>
        <time>2023-01-27T13:39:58Z</time>
      </trkpt>
      <trkpt lat="47.79437" lon="-3.67218">
        <ele>12.5</ele>
        <time>2023-01-27T13:39:59Z</time>
      </trkpt>
      <trkpt lat="47.79438" lon="-3.67225">
        <ele>12.8</ele>
        <time>2023-01-27T13:40:01Z</time>
      </trkpt>
      <trkpt lat="47.79438" lon="-3.67228">
        <ele>13</ele>
        <time>2023-01-27T13:40:02Z</time>
      </trkpt>
      <trkpt lat="47.79437" lon="-3.67238">
        <ele>13.5</ele>
        <time>2023-01-27T13:40:04Z</time>
      </trkpt>
      <trkpt lat="47.79438" lon="-3.67242">
        <ele>13.7</ele>
        <time>2023-01-27T13:40:05Z</time>
      </trkpt>
      <trkpt lat="47.79438" lon="-3.67243">
        <ele>13.8</ele>
        <time>2023-01-27T13:40:06Z</time>
      </trkpt>
      <trkpt lat="47.79438" lon="-3.67248">
        <ele>14.1</ele>
        <time>2023-01-27T13:40:08Z</time>
      </trkpt>
      <trkpt lat="47.79437" lon="-3.67252">
        <ele>14.3</ele>
        <time>2023-01-27T13:40:10Z</time>
      </trkpt>
      <trkpt lat="47.79436" lon="-3.67253">
        <ele>14.4</ele>
        <time>2023-01-27T13:40:11Z</time>
      </trkpt>
      <trkpt lat="47.79434" lon="-3.67257">
        <ele>14.6</ele>
        <time>2023-01-27T13:40:13Z</time>
      </trkpt>
      <trkpt lat="47.79434" lon="-3.6726">
        <ele>14.8</ele>
        <time>2023-01-27T13:40:15Z</time>
      </trkpt>
      <trkpt lat="47.79434" lon="-3.67265">
        <ele>15.1</ele>
        <time>2023-01-27T13:40:17Z</time>
      </trkpt>
      <trkpt lat="47.79434" lon="-3.6727">
        <ele>15.3</ele>
        <time>2023-01-27T13:40:19Z</time>
      </trkpt>
      <trkpt lat="47.79434" lon="-3.67272">
        <ele>15.4</ele>
        <time>2023-01-27T13:40:20Z</time>
      </trkpt>
      <trkpt lat="47.79434" lon="-3.67274">
        <ele>15.5</ele>
        <time>2023-01-27T13:40:21Z</time>
      </trkpt>
      <trkpt lat="47.79433" lon="-3.67278">
        <ele>15.7</ele>
        <time>2023-01-27T13:40:23Z</time>
      </trkpt>
      <trkpt lat="47.79432" lon="-3.67279">
        <ele>15.8</ele>
        <time>2023-01-27T13:40:24Z</time>
      </trkpt>
      <trkpt lat="47.79431" lon="-3.67284">
        <ele>16</ele>
        <time>2023-01-27T13:40:25Z</time>
      </trkpt>
      <trkpt lat="47.7943" lon="-3.67285">
        <ele>16.1</ele>
        <time>2023-01-27T13:40:26Z</time>
      </trkpt>
      <trkpt lat="47.79429" lon="-3.6729">
        <ele>16.3</ele>
        <time>2023-01-27T13:40:27Z</time>
      </trkpt>
      <trkpt lat="47.79428" lon="-3.67292">
        <ele>16.4</ele>
        <time>2023-01-27T13:40:28Z</time>
      </trkpt>
      <trkpt lat="47.79428" lon="-3.67297">
        <ele>16.6</ele>
        <time>2023-01-27T13:40:29Z</time>
      </trkpt>
      <trkpt lat="47.79428" lon="-3.67299">
        <ele>16.8</ele>
        <time>2023-01-27T13:40:30Z</time>
      </trkpt>
      <trkpt lat="47.79427" lon="-3.67303">
        <ele>16.9</ele>
        <time>2023-01-27T13:40:32Z</time>
      </trkpt>
      <trkpt lat="47.79426" lon="-3.67305">
        <ele>17.1</ele>
        <time>2023-01-27T13:40:33Z</time>
      </trkpt>
      <trkpt lat="47.79425" lon="-3.67307">
        <ele>17.2</ele>
        <time>2023-01-27T13:40:34Z</time>
      </trkpt>
      <trkpt lat="47.79425" lon="-3.6731">
        <ele>17.3</ele>
        <time>2023-01-27T13:40:35Z</time>
      </trkpt>
      <trkpt lat="47.79424" lon="-3.67312">
        <ele>17.4</ele>
        <time>2023-01-27T13:40:36Z</time>
      </trkpt>
      <trkpt lat="47.79423" lon="-3.67314">
        <ele>17.5</ele>
        <time>2023-01-27T13:40:37Z</time>
      </trkpt>
      <trkpt lat="47.79423" lon="-3.67316">
        <ele>17.6</ele>
        <time>2023-01-27T13:40:38Z</time>
      </trkpt>
      <trkpt lat="47.79422" lon="-3.67318">
        <ele>17.7</ele>
        <time>2023-01-27T13:40:39Z</time>
      </trkpt>
      <trkpt lat="47.79422" lon="-3.6732">
        <ele>17.8</ele>
        <time>2023-01-27T13:40:40Z</time>
      </trkpt>
      <trkpt lat="47.79421" lon="-3.67322">
        <ele>17.9</ele>
        <time>2023-01-27T13:40:41Z</time>
      </trkpt>
      <trkpt lat="47.79421" lon="-3.67324">
        <ele>18</ele>
        <time>2023-01-27T13:40:42Z</time>
      </trkpt>
      <trkpt lat="47.79419" lon="-3.67329">
        <ele>18.2</ele>
        <time>2023-01-27T13:40:43Z</time>
      </trkpt>
      <trkpt lat="47.79419" lon="-3.6733">
        <ele>18.3</ele>
        <time>2023-01-27T13:40:44Z</time>
      </trkpt>
      <trkpt lat="47.79417" lon="-3.67337">
        <ele>18.6</ele>
        <time>2023-01-27T13:40:46Z</time>
      </trkpt>
      <trkpt lat="47.79416" lon="-3.67341">
        <ele>18.9</ele>
        <time>2023-01-27T13:40:47Z</time>
      </trkpt>
      <trkpt lat="47.79415" lon="-3.67342">
        <ele>18.9</ele>
        <time>2023-01-27T13:40:48Z</time>
      </trkpt>
      <trkpt lat="47.79411" lon="-3.67345">
        <ele>19.3</ele>
        <time>2023-01-27T13:40:50Z</time>
      </trkpt>
      <trkpt lat="47.79408" lon="-3.67344">
        <ele>19.6</ele>
        <time>2023-01-27T13:40:51Z</time>
      </trkpt>
      <trkpt lat="47.79404" lon="-3.67345">
        <ele>19.9</ele>
        <time>2023-01-27T13:40:53Z</time>
      </trkpt>
      <trkpt lat="47.79401" lon="-3.67348">
        <ele>20.2</ele>
        <time>2023-01-27T13:40:55Z</time>
      </trkpt>
      <trkpt lat="47.79399" lon="-3.67349">
        <ele>20.3</ele>
        <time>2023-01-27T13:40:56Z</time>
      </trkpt>
      <trkpt lat="47.79397" lon="-3.67351">
        <ele>20.5</ele>
        <time>2023-01-27T13:40:58Z</time>
      </trkpt>
      <trkpt lat="47.79394" lon="-3.67352">
        <ele>20.7</ele>
        <time>2023-01-27T13:40:59Z</time>
      </trkpt>
      <trkpt lat="47.79393" lon="-3.67353">
        <ele>20.8</ele>
        <time>2023-01-27T13:41:00Z</time>
      </trkpt>
      <trkpt lat="47.79389" lon="-3.67353">
        <ele>21.1</ele>
        <time>2023-01-27T13:41:02Z</time>
      </trkpt>
      <trkpt lat="47.79384" lon="-3.67354">
        <ele>21.4</ele>
        <time>2023-01-27T13:41:04Z</time>
      </trkpt>
      <trkpt lat="47.7938" lon="-3.67355">
        <ele>21.7</ele>
        <time>2023-01-27T13:41:06Z</time>
      </trkpt>
      <trkpt lat="47.79377" lon="-3.67357">
        <ele>22</ele>
        <time>2023-01-27T13:41:08Z</time>
      </trkpt>
      <trkpt lat="47.79375" lon="-3.67358">
        <ele>22.1</ele>
        <time>2023-01-27T13:41:09Z</time>
      </trkpt>
      <trkpt lat="47.79373" lon="-3.67359">
        <ele>22.2</ele>
        <time>2023-01-27T13:41:10Z</time>
      </trkpt>
      <trkpt lat="47.79371" lon="-3.67361">
        <ele>22.4</ele>
        <time>2023-01-27T13:41:12Z</time>
      </trkpt>
      <trkpt lat="47.79368" lon="-3.67362">
        <ele>22.6</ele>
        <time>2023-01-27T13:41:13Z</time>
      </trkpt>
      <trkpt lat="47.79367" lon="-3.67363">
        <ele>22.6</ele>
        <time>2023-01-27T13:41:14Z</time>
      </trkpt>
      <trkpt lat="47.79363" lon="-3.67365">
        <ele>22.9</ele>
        <time>2023-01-27T13:41:15Z</time>
      </trkpt>
      <trkpt lat="47.7936" lon="-3.67367">
        <ele>23.1</ele>
        <time>2023-01-27T13:41:17Z</time>
      </trkpt>
      <trkpt lat="47.79359" lon="-3.67368">
        <ele>23.2</ele>
        <time>2023-01-27T13:41:18Z</time>
      </trkpt>
      <trkpt lat="47.79356" lon="-3.6737">
        <ele>23.4</ele>
        <time>2023-01-27T13:41:19Z</time>
      </trkpt>
      <trkpt lat="47.79355" lon="-3.67371">
        <ele>23.4</ele>
        <time>2023-01-27T13:41:20Z</time>
      </trkpt>
      <trkpt lat="47.79352" lon="-3.67374">
        <ele>23.7</ele>
        <time>2023-01-27T13:41:21Z</time>
      </trkpt>
      <trkpt lat="47.7935" lon="-3.67375">
        <ele>23.8</ele>
        <time>2023-01-27T13:41:22Z</time>
      </trkpt>
      <trkpt lat="47.79347" lon="-3.67376">
        <ele>24</ele>
        <time>2023-01-27T13:41:24Z</time>
      </trkpt>
      <trkpt lat="47.79345" lon="-3.67377">
        <ele>24.1</ele>
        <time>2023-01-27T13:41:25Z</time>
      </trkpt>
      <trkpt lat="47.79344" lon="-3.67378">
        <ele>24.1</ele>
        <time>2023-01-27T13:41:26Z</time>
      </trkpt>
      <trkpt lat="47.79343" lon="-3.67379">
        <ele>24.2</ele>
        <time>2023-01-27T13:41:27Z</time>
      </trkpt>
      <trkpt lat="47.7934" lon="-3.67381">
        <ele>24.4</ele>
        <time>2023-01-27T13:41:28Z</time>
      </trkpt>
      <trkpt lat="47.79338" lon="-3.67385">
        <ele>24.6</ele>
        <time>2023-01-27T13:41:30Z</time>
      </trkpt>
      <trkpt lat="47.79338" lon="-3.6739">
        <ele>24.8</ele>
        <time>2023-01-27T13:41:32Z</time>
      </trkpt>
      <trkpt lat="47.79337" lon="-3.67392">
        <ele>25.1</ele>
        <time>2023-01-27T13:41:33Z</time>
      </trkpt>
      <trkpt lat="47.79336" lon="-3.67398">
        <ele>25.2</ele>
        <time>2023-01-27T13:41:35Z</time>
      </trkpt>
      <trkpt lat="47.79336" lon="-3.67403">
        <ele>25.2</ele>
        <time>2023-01-27T13:41:37Z</time>
      </trkpt>
      <trkpt lat="47.79336" lon="-3.67407">
        <ele>25.3</ele>
        <time>2023-01-27T13:41:38Z</time>
      </trkpt>
      <trkpt lat="47.79336" lon="-3.67412">
        <ele>25.3</ele>
        <time>2023-01-27T13:41:40Z</time>
      </trkpt>
      <trkpt lat="47.79334" lon="-3.67415">
        <ele>25.3</ele>
        <time>2023-01-27T13:41:42Z</time>
      </trkpt>
      <trkpt lat="47.79334" lon="-3.67417">
        <ele>25.3</ele>
        <time>2023-01-27T13:41:43Z</time>
      </trkpt>
      <trkpt lat="47.79333" lon="-3.67419">
        <ele>25.3</ele>
        <time>2023-01-27T13:41:44Z</time>
      </trkpt>
      <trkpt lat="47.79332" lon="-3.67427">
        <ele>25.4</ele>
        <time>2023-01-27T13:41:45Z</time>
      </trkpt>
      <trkpt lat="47.79331" lon="-3.67432">
        <ele>25.4</ele>
        <time>2023-01-27T13:41:47Z</time>
      </trkpt>
      <trkpt lat="47.79331" lon="-3.67436">
        <ele>25.5</ele>
        <time>2023-01-27T13:41:48Z</time>
      </trkpt>
      <trkpt lat="47.79331" lon="-3.67438">
        <ele>25.5</ele>
        <time>2023-01-27T13:41:49Z</time>
      </trkpt>
      <trkpt lat="47.79331" lon="-3.67444">
        <ele>25.5</ele>
        <time>2023-01-27T13:41:50Z</time>
      </trkpt>
      <trkpt lat="47.7933" lon="-3.67448">
        <ele>25.6</ele>
        <time>2023-01-27T13:41:51Z</time>
      </trkpt>
      <trkpt lat="47.7933" lon="-3.67453">
        <ele>25.6</ele>
        <time>2023-01-27T13:41:52Z</time>
      </trkpt>
      <trkpt lat="47.7933" lon="-3.67455">
        <ele>25.6</ele>
        <time>2023-01-27T13:41:53Z</time>
      </trkpt>
      <trkpt lat="47.7933" lon="-3.6746">
        <ele>25.6</ele>
        <time>2023-01-27T13:41:54Z</time>
      </trkpt>
      <trkpt lat="47.79329" lon="-3.67466">
        <ele>25.6</ele>
        <time>2023-01-27T13:41:55Z</time>
      </trkpt>
      <trkpt lat="47.79328" lon="-3.67468">
        <ele>25.6</ele>
        <time>2023-01-27T13:41:56Z</time>
      </trkpt>
      <trkpt lat="47.79327" lon="-3.67475">
        <ele>25.5</ele>
        <time>2023-01-27T13:41:58Z</time>
      </trkpt>
      <trkpt lat="47.79326" lon="-3.67481">
        <ele>25.5</ele>
        <time>2023-01-27T13:41:59Z</time>
      </trkpt>
      <trkpt lat="47.79326" lon="-3.67483">
        <ele>25.5</ele>
        <time>2023-01-27T13:42:00Z</time>
      </trkpt>
      <trkpt lat="47.79325" lon="-3.67487">
        <ele>25.5</ele>
        <time>2023-01-27T13:42:01Z</time>
      </trkpt>
      <trkpt lat="47.79325" lon="-3.67488">
        <ele>25.5</ele>
        <time>2023-01-27T13:42:02Z</time>
      </trkpt>
      <trkpt lat="47.79325" lon="-3.67494">
        <ele>25.9</ele>
        <time>2023-01-27T13:42:03Z</time>
      </trkpt>
      <trkpt lat="47.79325" lon="-3.67496">
        <ele>25.9</ele>
        <time>2023-01-27T13:42:04Z</time>
      </trkpt>
      <trkpt lat="47.79325" lon="-3.67501">
        <ele>26</ele>
        <time>2023-01-27T13:42:05Z</time>
      </trkpt>
      <trkpt lat="47.79325" lon="-3.67508">
        <ele>26.2</ele>
        <time>2023-01-27T13:42:06Z</time>
      </trkpt>
      <trkpt lat="47.79325" lon="-3.67513">
        <ele>26.2</ele>
        <time>2023-01-27T13:42:07Z</time>
      </trkpt>
      <trkpt lat="47.79325" lon="-3.67517">
        <ele>26.3</ele>
        <time>2023-01-27T13:42:08Z</time>
      </trkpt>
      <trkpt lat="47.79325" lon="-3.67522">
        <ele>26.4</ele>
        <time>2023-01-27T13:42:09Z</time>
      </trkpt>
      <trkpt lat="47.79325" lon="-3.67523">
        <ele>26.4</ele>
        <time>2023-01-27T13:42:10Z</time>
      </trkpt>
      <trkpt lat="47.79325" lon="-3.67529">
        <ele>26.5</ele>
        <time>2023-01-27T13:42:11Z</time>
      </trkpt>
      <trkpt lat="47.79325" lon="-3.67534">
        <ele>26.5</ele>
        <time>2023-01-27T13:42:12Z</time>
      </trkpt>
      <trkpt lat="47.79325" lon="-3.67536">
        <ele>26.6</ele>
        <time>2023-01-27T13:42:13Z</time>
      </trkpt>
      <trkpt lat="47.79325" lon="-3.6754">
        <ele>26.6</ele>
        <time>2023-01-27T13:42:14Z</time>
      </trkpt>
      <trkpt lat="47.79325" lon="-3.67544">
        <ele>26.7</ele>
        <time>2023-01-27T13:42:15Z</time>
      </trkpt>
      <trkpt lat="47.79324" lon="-3.67549">
        <ele>26.7</ele>
        <time>2023-01-27T13:42:16Z</time>
      </trkpt>
      <trkpt lat="47.79323" lon="-3.67555">
        <ele>26.8</ele>
        <time>2023-01-27T13:42:17Z</time>
      </trkpt>
      <trkpt lat="47.79322" lon="-3.6756">
        <ele>26.8</ele>
        <time>2023-01-27T13:42:18Z</time>
      </trkpt>
      <trkpt lat="47.79321" lon="-3.67561">
        <ele>26.8</ele>
        <time>2023-01-27T13:42:19Z</time>
      </trkpt>
      <trkpt lat="47.79319" lon="-3.67566">
        <ele>26.9</ele>
        <time>2023-01-27T13:42:20Z</time>
      </trkpt>
      <trkpt lat="47.79319" lon="-3.67568">
        <ele>26.9</ele>
        <time>2023-01-27T13:42:21Z</time>
      </trkpt>
      <trkpt lat="47.79318" lon="-3.67572">
        <ele>26.9</ele>
        <time>2023-01-27T13:42:22Z</time>
      </trkpt>
      <trkpt lat="47.79317" lon="-3.67575">
        <ele>26.9</ele>
        <time>2023-01-27T13:42:23Z</time>
      </trkpt>
      <trkpt lat="47.79315" lon="-3.67579">
        <ele>27</ele>
        <time>2023-01-27T13:42:24Z</time>
      </trkpt>
      <trkpt lat="47.79311" lon="-3.67583">
        <ele>27</ele>
        <time>2023-01-27T13:42:26Z</time>
      </trkpt>
      <trkpt lat="47.7931" lon="-3.67587">
        <ele>27</ele>
        <time>2023-01-27T13:42:27Z</time>
      </trkpt>
      <trkpt lat="47.79307" lon="-3.6759">
        <ele>27</ele>
        <time>2023-01-27T13:42:28Z</time>
      </trkpt>
      <trkpt lat="47.79306" lon="-3.67591">
        <ele>27</ele>
        <time>2023-01-27T13:42:29Z</time>
      </trkpt>
      <trkpt lat="47.79305" lon="-3.67594">
        <ele>27</ele>
        <time>2023-01-27T13:42:30Z</time>
      </trkpt>
      <trkpt lat="47.79301" lon="-3.67599">
        <ele>27</ele>
        <time>2023-01-27T13:42:31Z</time>
      </trkpt>
      <trkpt lat="47.79295" lon="-3.67605">
        <ele>26.9</ele>
        <time>2023-01-27T13:42:33Z</time>
      </trkpt>
      <trkpt lat="47.79294" lon="-3.67607">
        <ele>26.9</ele>
        <time>2023-01-27T13:42:35Z</time>
      </trkpt>
      <trkpt lat="47.79293" lon="-3.67611">
        <ele>26.8</ele>
        <time>2023-01-27T13:42:36Z</time>
      </trkpt>
      <trkpt lat="47.79293" lon="-3.67616">
        <ele>26.7</ele>
        <time>2023-01-27T13:42:37Z</time>
      </trkpt>
      <trkpt lat="47.79295" lon="-3.67626">
        <ele>26.6</ele>
        <time>2023-01-27T13:42:38Z</time>
      </trkpt>
      <trkpt lat="47.79294" lon="-3.67632">
        <ele>26.4</ele>
        <time>2023-01-27T13:42:40Z</time>
      </trkpt>
      <trkpt lat="47.79294" lon="-3.67635">
        <ele>26.4</ele>
        <time>2023-01-27T13:42:41Z</time>
      </trkpt>
      <trkpt lat="47.79294" lon="-3.6764">
        <ele>26.3</ele>
        <time>2023-01-27T13:42:42Z</time>
      </trkpt>
      <trkpt lat="47.79294" lon="-3.67645">
        <ele>26.2</ele>
        <time>2023-01-27T13:42:43Z</time>
      </trkpt>
      <trkpt lat="47.79294" lon="-3.6765">
        <ele>26.2</ele>
        <time>2023-01-27T13:42:44Z</time>
      </trkpt>
      <trkpt lat="47.79294" lon="-3.67653">
        <ele>26.2</ele>
        <time>2023-01-27T13:42:45Z</time>
      </trkpt>
      <trkpt lat="47.79294" lon="-3.67655">
        <ele>26.2</ele>
        <time>2023-01-27T13:42:46Z</time>
      </trkpt>
      <trkpt lat="47.79294" lon="-3.67657">
        <ele>26.1</ele>
        <time>2023-01-27T13:42:47Z</time>
      </trkpt>
      <trkpt lat="47.79294" lon="-3.67665">
        <ele>26.1</ele>
        <time>2023-01-27T13:42:49Z</time>
      </trkpt>
      <trkpt lat="47.79294" lon="-3.67669">
        <ele>26.1</ele>
        <time>2023-01-27T13:42:51Z</time>
      </trkpt>
      <trkpt lat="47.79294" lon="-3.67672">
        <ele>26.1</ele>
        <time>2023-01-27T13:42:52Z</time>
      </trkpt>
      <trkpt lat="47.79294" lon="-3.67674">
        <ele>26.1</ele>
        <time>2023-01-27T13:42:53Z</time>
      </trkpt>
      <trkpt lat="47.79293" lon="-3.67678">
        <ele>26.1</ele>
        <time>2023-01-27T13:42:54Z</time>
      </trkpt>
      <trkpt lat="47.79293" lon="-3.6768">
        <ele>26.1</ele>
        <time>2023-01-27T13:42:55Z</time>
      </trkpt>
      <trkpt lat="47.79293" lon="-3.67684">
        <ele>26.1</ele>
        <time>2023-01-27T13:42:56Z</time>
      </trkpt>
      <trkpt lat="47.79293" lon="-3.67685">
        <ele>26.1</ele>
        <time>2023-01-27T13:42:57Z</time>
      </trkpt>
      <trkpt lat="47.79293" lon="-3.6769">
        <ele>26.1</ele>
        <time>2023-01-27T13:42:58Z</time>
      </trkpt>
      <trkpt lat="47.79293" lon="-3.67691">
        <ele>26.1</ele>
        <time>2023-01-27T13:42:59Z</time>
      </trkpt>
      <trkpt lat="47.79293" lon="-3.67695">
        <ele>26.1</ele>
        <time>2023-01-27T13:43:00Z</time>
      </trkpt>
      <trkpt lat="47.79293" lon="-3.67696">
        <ele>26.1</ele>
        <time>2023-01-27T13:43:01Z</time>
      </trkpt>
      <trkpt lat="47.79293" lon="-3.677">
        <ele>26.1</ele>
        <time>2023-01-27T13:43:02Z</time>
      </trkpt>
      <trkpt lat="47.79293" lon="-3.67706">
        <ele>26.1</ele>
        <time>2023-01-27T13:43:04Z</time>
      </trkpt>
      <trkpt lat="47.79294" lon="-3.67709">
        <ele>26.1</ele>
        <time>2023-01-27T13:43:05Z</time>
      </trkpt>
      <trkpt lat="47.79294" lon="-3.67711">
        <ele>26.1</ele>
        <time>2023-01-27T13:43:06Z</time>
      </trkpt>
      <trkpt lat="47.79295" lon="-3.67716">
        <ele>26.2</ele>
        <time>2023-01-27T13:43:07Z</time>
      </trkpt>
      <trkpt lat="47.79297" lon="-3.67719">
        <ele>26.2</ele>
        <time>2023-01-27T13:43:08Z</time>
      </trkpt>
      <trkpt lat="47.79298" lon="-3.6772">
        <ele>26.2</ele>
        <time>2023-01-27T13:43:09Z</time>
      </trkpt>
      <trkpt lat="47.79303" lon="-3.67722">
        <ele>26.2</ele>
        <time>2023-01-27T13:43:11Z</time>
      </trkpt>
      <trkpt lat="47.79305" lon="-3.67723">
        <ele>26.2</ele>
        <time>2023-01-27T13:43:12Z</time>
      </trkpt>
      <trkpt lat="47.79307" lon="-3.67724">
        <ele>26.2</ele>
        <time>2023-01-27T13:43:13Z</time>
      </trkpt>
      <trkpt lat="47.79309" lon="-3.67725">
        <ele>26.2</ele>
        <time>2023-01-27T13:43:15Z</time>
      </trkpt>
      <trkpt lat="47.79313" lon="-3.67727">
        <ele>26.3</ele>
        <time>2023-01-27T13:43:16Z</time>
      </trkpt>
      <trkpt lat="47.79315" lon="-3.67728">
        <ele>26.3</ele>
        <time>2023-01-27T13:43:17Z</time>
      </trkpt>
      <trkpt lat="47.79318" lon="-3.67729">
        <ele>26.3</ele>
        <time>2023-01-27T13:43:18Z</time>
      </trkpt>
      <trkpt lat="47.79321" lon="-3.67728">
        <ele>26.4</ele>
        <time>2023-01-27T13:43:20Z</time>
      </trkpt>
      <trkpt lat="47.79322" lon="-3.67729">
        <ele>26.4</ele>
        <time>2023-01-27T13:43:21Z</time>
      </trkpt>
      <trkpt lat="47.79325" lon="-3.67729">
        <ele>26.4</ele>
        <time>2023-01-27T13:43:23Z</time>
      </trkpt>
      <trkpt lat="47.79326" lon="-3.67729">
        <ele>26.5</ele>
        <time>2023-01-27T13:43:24Z</time>
      </trkpt>
      <trkpt lat="47.79326" lon="-3.67729">
        <ele>26.5</ele>
        <time>2023-01-27T13:43:25Z</time>
      </trkpt>
      <trkpt lat="47.79326" lon="-3.67729">
        <ele>26.5</ele>
        <time>2023-01-27T13:43:26Z</time>
      </trkpt>
      <trkpt lat="47.79327" lon="-3.6773">
        <ele>26.5</ele>
        <time>2023-01-27T13:43:27Z</time>
      </trkpt>
      <trkpt lat="47.79327" lon="-3.6773">
        <ele>26.5</ele>
        <time>2023-01-27T13:43:28Z</time>
      </trkpt>
      <trkpt lat="47.79328" lon="-3.67731">
        <ele>26.5</ele>
        <time>2023-01-27T13:43:29Z</time>
      </trkpt>
      <trkpt lat="47.79328" lon="-3.67731">
        <ele>26.5</ele>
        <time>2023-01-27T13:43:30Z</time>
      </trkpt>
      <trkpt lat="47.79328" lon="-3.67732">
        <ele>26.5</ele>
        <time>2023-01-27T13:43:31Z</time>
      </trkpt>
      <trkpt lat="47.79329" lon="-3.67732">
        <ele>26.5</ele>
        <time>2023-01-27T13:43:33Z</time>
      </trkpt>
      <trkpt lat="47.79329" lon="-3.67732">
        <ele>26.5</ele>
        <time>2023-01-27T13:43:34Z</time>
      </trkpt>
      <trkpt lat="47.79329" lon="-3.67733">
        <ele>26.5</ele>
        <time>2023-01-27T13:43:35Z</time>
      </trkpt>
      <trkpt lat="47.79338" lon="-3.67737">
        <ele>26.7</ele>
        <time>2023-01-27T13:43:54Z</time>
      </trkpt>
      <trkpt lat="47.79341" lon="-3.6774">
        <ele>26.7</ele>
        <time>2023-01-27T13:43:55Z</time>
      </trkpt>
      <trkpt lat="47.79344" lon="-3.67742">
        <ele>26.7</ele>
        <time>2023-01-27T13:43:56Z</time>
      </trkpt>
      <trkpt lat="47.79349" lon="-3.67743">
        <ele>26.7</ele>
        <time>2023-01-27T13:43:57Z</time>
      </trkpt>
      <trkpt lat="47.79353" lon="-3.67745">
        <ele>26.7</ele>
        <time>2023-01-27T13:43:58Z</time>
      </trkpt>
      <trkpt lat="47.79355" lon="-3.67745">
        <ele>26.7</ele>
        <time>2023-01-27T13:43:59Z</time>
      </trkpt>
      <trkpt lat="47.79359" lon="-3.67746">
        <ele>26.7</ele>
        <time>2023-01-27T13:44:00Z</time>
      </trkpt>
      <trkpt lat="47.79362" lon="-3.67748">
        <ele>26.8</ele>
        <time>2023-01-27T13:44:01Z</time>
      </trkpt>
      <trkpt lat="47.79363" lon="-3.67748">
        <ele>26.8</ele>
        <time>2023-01-27T13:44:02Z</time>
      </trkpt>
      <trkpt lat="47.79371" lon="-3.6775">
        <ele>27.1</ele>
        <time>2023-01-27T13:44:03Z</time>
      </trkpt>
      <trkpt lat="47.79373" lon="-3.67751">
        <ele>27.1</ele>
        <time>2023-01-27T13:44:04Z</time>
      </trkpt>
      <trkpt lat="47.79378" lon="-3.67753">
        <ele>27.3</ele>
        <time>2023-01-27T13:44:06Z</time>
      </trkpt>
      <trkpt lat="47.7938" lon="-3.67754">
        <ele>27.3</ele>
        <time>2023-01-27T13:44:07Z</time>
      </trkpt>
      <trkpt lat="47.79384" lon="-3.67753">
        <ele>27.4</ele>
        <time>2023-01-27T13:44:08Z</time>
      </trkpt>
      <trkpt lat="47.79386" lon="-3.67753">
        <ele>27.4</ele>
        <time>2023-01-27T13:44:09Z</time>
      </trkpt>
      <trkpt lat="47.79389" lon="-3.67754">
        <ele>27.5</ele>
        <time>2023-01-27T13:44:10Z</time>
      </trkpt>
      <trkpt lat="47.79394" lon="-3.67755">
        <ele>27.4</ele>
        <time>2023-01-27T13:44:12Z</time>
      </trkpt>
      <trkpt lat="47.79396" lon="-3.67756">
        <ele>27.3</ele>
        <time>2023-01-27T13:44:13Z</time>
      </trkpt>
      <trkpt lat="47.79398" lon="-3.67756">
        <ele>27.2</ele>
        <time>2023-01-27T13:44:14Z</time>
      </trkpt>
      <trkpt lat="47.79401" lon="-3.67756">
        <ele>27.1</ele>
        <time>2023-01-27T13:44:15Z</time>
      </trkpt>
      <trkpt lat="47.79406" lon="-3.67758">
        <ele>26.8</ele>
        <time>2023-01-27T13:44:16Z</time>
      </trkpt>
      <trkpt lat="47.79411" lon="-3.67761">
        <ele>26.6</ele>
        <time>2023-01-27T13:44:18Z</time>
      </trkpt>
      <trkpt lat="47.79413" lon="-3.67763">
        <ele>26.5</ele>
        <time>2023-01-27T13:44:19Z</time>
      </trkpt>
      <trkpt lat="47.79417" lon="-3.67765">
        <ele>26.3</ele>
        <time>2023-01-27T13:44:21Z</time>
      </trkpt>
      <trkpt lat="47.79418" lon="-3.67766">
        <ele>26.3</ele>
        <time>2023-01-27T13:44:22Z</time>
      </trkpt>
      <trkpt lat="47.7942" lon="-3.67766">
        <ele>26.2</ele>
        <time>2023-01-27T13:44:23Z</time>
      </trkpt>
      <trkpt lat="47.79425" lon="-3.67768">
        <ele>26</ele>
        <time>2023-01-27T13:44:24Z</time>
      </trkpt>
      <trkpt lat="47.79429" lon="-3.67768">
        <ele>25.9</ele>
        <time>2023-01-27T13:44:25Z</time>
      </trkpt>
      <trkpt lat="47.79432" lon="-3.67768">
        <ele>25.7</ele>
        <time>2023-01-27T13:44:27Z</time>
      </trkpt>
      <trkpt lat="47.79437" lon="-3.67771">
        <ele>25.6</ele>
        <time>2023-01-27T13:44:28Z</time>
      </trkpt>
      <trkpt lat="47.7944" lon="-3.67772">
        <ele>25.5</ele>
        <time>2023-01-27T13:44:29Z</time>
      </trkpt>
      <trkpt lat="47.79443" lon="-3.67772">
        <ele>25.4</ele>
        <time>2023-01-27T13:44:31Z</time>
      </trkpt>
      <trkpt lat="47.79448" lon="-3.67773">
        <ele>25.3</ele>
        <time>2023-01-27T13:44:32Z</time>
      </trkpt>
      <trkpt lat="47.79451" lon="-3.67775">
        <ele>25.3</ele>
        <time>2023-01-27T13:44:34Z</time>
      </trkpt>
      <trkpt lat="47.79453" lon="-3.67776">
        <ele>25.3</ele>
        <time>2023-01-27T13:44:35Z</time>
      </trkpt>
      <trkpt lat="47.79456" lon="-3.6778">
        <ele>25.2</ele>
        <time>2023-01-27T13:44:36Z</time>
      </trkpt>
      <trkpt lat="47.79457" lon="-3.67781">
        <ele>25.2</ele>
        <time>2023-01-27T13:44:37Z</time>
      </trkpt>
      <trkpt lat="47.79459" lon="-3.67783">
        <ele>25.2</ele>
        <time>2023-01-27T13:44:38Z</time>
      </trkpt>
      <trkpt lat="47.79462" lon="-3.67784">
        <ele>25.2</ele>
        <time>2023-01-27T13:44:39Z</time>
      </trkpt>
      <trkpt lat="47.79463" lon="-3.67784">
        <ele>25.2</ele>
        <time>2023-01-27T13:44:40Z</time>
      </trkpt>
      <trkpt lat="47.79466" lon="-3.67785">
        <ele>25.1</ele>
        <time>2023-01-27T13:44:41Z</time>
      </trkpt>
      <trkpt lat="47.79467" lon="-3.67785">
        <ele>25.1</ele>
        <time>2023-01-27T13:44:42Z</time>
      </trkpt>
      <trkpt lat="47.79469" lon="-3.67784">
        <ele>25</ele>
        <time>2023-01-27T13:44:43Z</time>
      </trkpt>
      <trkpt lat="47.7947" lon="-3.67784">
        <ele>25</ele>
        <time>2023-01-27T13:44:44Z</time>
      </trkpt>
      <trkpt lat="47.79473" lon="-3.67782">
        <ele>24.8</ele>
        <time>2023-01-27T13:44:45Z</time>
      </trkpt>
      <trkpt lat="47.79475" lon="-3.67782">
        <ele>24.7</ele>
        <time>2023-01-27T13:44:46Z</time>
      </trkpt>
      <trkpt lat="47.79477" lon="-3.67779">
        <ele>24.5</ele>
        <time>2023-01-27T13:44:47Z</time>
      </trkpt>
      <trkpt lat="47.7948" lon="-3.67779">
        <ele>24.3</ele>
        <time>2023-01-27T13:44:48Z</time>
      </trkpt>
      <trkpt lat="47.79481" lon="-3.67779">
        <ele>24.3</ele>
        <time>2023-01-27T13:44:49Z</time>
      </trkpt>
      <trkpt lat="47.79486" lon="-3.67785">
        <ele>23.9</ele>
        <time>2023-01-27T13:44:51Z</time>
      </trkpt>
      <trkpt lat="47.79488" lon="-3.67786">
        <ele>23.7</ele>
        <time>2023-01-27T13:44:52Z</time>
      </trkpt>
      <trkpt lat="47.79489" lon="-3.67787">
        <ele>23.7</ele>
        <time>2023-01-27T13:44:54Z</time>
      </trkpt>
      <trkpt lat="47.79489" lon="-3.67787">
        <ele>23.7</ele>
        <time>2023-01-27T13:44:55Z</time>
      </trkpt>
      <trkpt lat="47.79489" lon="-3.67787">
        <ele>23.6</ele>
        <time>2023-01-27T13:44:56Z</time>
      </trkpt>
      <trkpt lat="47.79489" lon="-3.67787">
        <ele>23.6</ele>
        <time>2023-01-27T13:44:57Z</time>
      </trkpt>
      <trkpt lat="47.79489" lon="-3.67786">
        <ele>23.6</ele>
        <time>2023-01-27T13:44:58Z</time>
      </trkpt>
      <trkpt lat="47.7949" lon="-3.67786">
        <ele>23.6</ele>
        <time>2023-01-27T13:44:59Z</time>
      </trkpt>
      <trkpt lat="47.7949" lon="-3.67786">
        <ele>23.5</ele>
        <time>2023-01-27T13:45:00Z</time>
      </trkpt>
      <trkpt lat="47.79491" lon="-3.67787">
        <ele>23.5</ele>
        <time>2023-01-27T13:45:01Z</time>
      </trkpt>
      <trkpt lat="47.79494" lon="-3.67788">
        <ele>23.3</ele>
        <time>2023-01-27T13:45:03Z</time>
      </trkpt>
      <trkpt lat="47.79495" lon="-3.67789">
        <ele>23.3</ele>
        <time>2023-01-27T13:45:04Z</time>
      </trkpt>
      <trkpt lat="47.79497" lon="-3.67789">
        <ele>23.1</ele>
        <time>2023-01-27T13:45:05Z</time>
      </trkpt>
      <trkpt lat="47.79498" lon="-3.6779">
        <ele>23</ele>
        <time>2023-01-27T13:45:06Z</time>
      </trkpt>
      <trkpt lat="47.79502" lon="-3.67791">
        <ele>22.8</ele>
        <time>2023-01-27T13:45:07Z</time>
      </trkpt>
      <trkpt lat="47.79505" lon="-3.67795">
        <ele>22.6</ele>
        <time>2023-01-27T13:45:09Z</time>
      </trkpt>
      <trkpt lat="47.79509" lon="-3.678">
        <ele>22.2</ele>
        <time>2023-01-27T13:45:10Z</time>
      </trkpt>
      <trkpt lat="47.79512" lon="-3.67804">
        <ele>22</ele>
        <time>2023-01-27T13:45:12Z</time>
      </trkpt>
      <trkpt lat="47.79515" lon="-3.67807">
        <ele>21.8</ele>
        <time>2023-01-27T13:45:13Z</time>
      </trkpt>
      <trkpt lat="47.79516" lon="-3.67808">
        <ele>21.8</ele>
        <time>2023-01-27T13:45:14Z</time>
      </trkpt>
      <trkpt lat="47.79518" lon="-3.67812">
        <ele>21.6</ele>
        <time>2023-01-27T13:45:15Z</time>
      </trkpt>
      <trkpt lat="47.79519" lon="-3.67814">
        <ele>21.6</ele>
        <time>2023-01-27T13:45:16Z</time>
      </trkpt>
      <trkpt lat="47.79521" lon="-3.67818">
        <ele>21.6</ele>
        <time>2023-01-27T13:45:17Z</time>
      </trkpt>
      <trkpt lat="47.79522" lon="-3.6782">
        <ele>21.6</ele>
        <time>2023-01-27T13:45:18Z</time>
      </trkpt>
      <trkpt lat="47.79524" lon="-3.67824">
        <ele>21.7</ele>
        <time>2023-01-27T13:45:19Z</time>
      </trkpt>
      <trkpt lat="47.79524" lon="-3.67826">
        <ele>21.8</ele>
        <time>2023-01-27T13:45:20Z</time>
      </trkpt>
      <trkpt lat="47.79524" lon="-3.67831">
        <ele>21.9</ele>
        <time>2023-01-27T13:45:21Z</time>
      </trkpt>
      <trkpt lat="47.79523" lon="-3.67832">
        <ele>22</ele>
        <time>2023-01-27T13:45:22Z</time>
      </trkpt>
      <trkpt lat="47.79521" lon="-3.67839">
        <ele>22.3</ele>
        <time>2023-01-27T13:45:23Z</time>
      </trkpt>
      <trkpt lat="47.7952" lon="-3.67844">
        <ele>22.6</ele>
        <time>2023-01-27T13:45:25Z</time>
      </trkpt>
      <trkpt lat="47.79519" lon="-3.67845">
        <ele>22.7</ele>
        <time>2023-01-27T13:45:26Z</time>
      </trkpt>
      <trkpt lat="47.79518" lon="-3.67847">
        <ele>22.8</ele>
        <time>2023-01-27T13:45:27Z</time>
      </trkpt>
      <trkpt lat="47.79518" lon="-3.67849">
        <ele>22.9</ele>
        <time>2023-01-27T13:45:28Z</time>
      </trkpt>
      <trkpt lat="47.79517" lon="-3.6785">
        <ele>23</ele>
        <time>2023-01-27T13:45:29Z</time>
      </trkpt>
      <trkpt lat="47.79516" lon="-3.67854">
        <ele>23.2</ele>
        <time>2023-01-27T13:45:30Z</time>
      </trkpt>
      <trkpt lat="47.79516" lon="-3.67856">
        <ele>23.4</ele>
        <time>2023-01-27T13:45:32Z</time>
      </trkpt>
      <trkpt lat="47.79516" lon="-3.67857">
        <ele>23.4</ele>
        <time>2023-01-27T13:45:33Z</time>
      </trkpt>
      <trkpt lat="47.79517" lon="-3.67857">
        <ele>23.5</ele>
        <time>2023-01-27T13:45:34Z</time>
      </trkpt>
      <trkpt lat="47.79517" lon="-3.67858">
        <ele>23.5</ele>
        <time>2023-01-27T13:45:35Z</time>
      </trkpt>
      <trkpt lat="47.79517" lon="-3.67859">
        <ele>23.6</ele>
        <time>2023-01-27T13:45:36Z</time>
      </trkpt>
      <trkpt lat="47.79517" lon="-3.6786">
        <ele>23.6</ele>
        <time>2023-01-27T13:45:37Z</time>
      </trkpt>
      <trkpt lat="47.79517" lon="-3.67862">
        <ele>23.8</ele>
        <time>2023-01-27T13:45:38Z</time>
      </trkpt>
      <trkpt lat="47.79517" lon="-3.67863">
        <ele>23.8</ele>
        <time>2023-01-27T13:45:39Z</time>
      </trkpt>
      <trkpt lat="47.79516" lon="-3.67864">
        <ele>23.9</ele>
        <time>2023-01-27T13:45:41Z</time>
      </trkpt>
      <trkpt lat="47.79516" lon="-3.67865">
        <ele>23.9</ele>
        <time>2023-01-27T13:45:42Z</time>
      </trkpt>
      <trkpt lat="47.79516" lon="-3.67865">
        <ele>23.9</ele>
        <time>2023-01-27T13:45:43Z</time>
      </trkpt>
      <trkpt lat="47.79515" lon="-3.67866">
        <ele>24</ele>
        <time>2023-01-27T13:45:44Z</time>
      </trkpt>
      <trkpt lat="47.79515" lon="-3.67866">
        <ele>24</ele>
        <time>2023-01-27T13:45:45Z</time>
      </trkpt>
      <trkpt lat="47.79516" lon="-3.67866">
        <ele>24</ele>
        <time>2023-01-27T13:45:46Z</time>
      </trkpt>
      <trkpt lat="47.79516" lon="-3.67867">
        <ele>24</ele>
        <time>2023-01-27T13:45:47Z</time>
      </trkpt>
      <trkpt lat="47.79516" lon="-3.67867">
        <ele>24</ele>
        <time>2023-01-27T13:45:48Z</time>
      </trkpt>
      <trkpt lat="47.79516" lon="-3.67867">
        <ele>24.1</ele>
        <time>2023-01-27T13:45:49Z</time>
      </trkpt>
      <trkpt lat="47.79516" lon="-3.67868">
        <ele>24.1</ele>
        <time>2023-01-27T13:45:50Z</time>
      </trkpt>
      <trkpt lat="47.79516" lon="-3.67868">
        <ele>24.1</ele>
        <time>2023-01-27T13:45:51Z</time>
      </trkpt>
      <trkpt lat="47.79516" lon="-3.67868">
        <ele>24.1</ele>
        <time>2023-01-27T13:45:52Z</time>
      </trkpt>
      <trkpt lat="47.79515" lon="-3.67871">
        <ele>24.2</ele>
        <time>2023-01-27T13:45:53Z</time>
      </trkpt>
      <trkpt lat="47.79515" lon="-3.67872">
        <ele>24.3</ele>
        <time>2023-01-27T13:45:54Z</time>
      </trkpt>
      <trkpt lat="47.79514" lon="-3.67873">
        <ele>24.3</ele>
        <time>2023-01-27T13:45:55Z</time>
      </trkpt>
      <trkpt lat="47.79514" lon="-3.67874">
        <ele>24.3</ele>
        <time>2023-01-27T13:45:56Z</time>
      </trkpt>
      <trkpt lat="47.79513" lon="-3.67878">
        <ele>24.5</ele>
        <time>2023-01-27T13:45:57Z</time>
      </trkpt>
      <trkpt lat="47.79513" lon="-3.6788">
        <ele>24.5</ele>
        <time>2023-01-27T13:45:58Z</time>
      </trkpt>
      <trkpt lat="47.79512" lon="-3.67886">
        <ele>24.7</ele>
        <time>2023-01-27T13:45:59Z</time>
      </trkpt>
      <trkpt lat="47.79511" lon="-3.6789">
        <ele>24.8</ele>
        <time>2023-01-27T13:46:00Z</time>
      </trkpt>
      <trkpt lat="47.79512" lon="-3.67896">
        <ele>25</ele>
        <time>2023-01-27T13:46:02Z</time>
      </trkpt>
      <trkpt lat="47.79511" lon="-3.679">
        <ele>25.1</ele>
        <time>2023-01-27T13:46:03Z</time>
      </trkpt>
      <trkpt lat="47.7951" lon="-3.67903">
        <ele>25.1</ele>
        <time>2023-01-27T13:46:04Z</time>
      </trkpt>
      <trkpt lat="47.79509" lon="-3.67907">
        <ele>25.2</ele>
        <time>2023-01-27T13:46:06Z</time>
      </trkpt>
      <trkpt lat="47.79509" lon="-3.6791">
        <ele>25.3</ele>
        <time>2023-01-27T13:46:07Z</time>
      </trkpt>
      <trkpt lat="47.79509" lon="-3.67916">
        <ele>25.4</ele>
        <time>2023-01-27T13:46:09Z</time>
      </trkpt>
      <trkpt lat="47.79509" lon="-3.67918">
        <ele>25.5</ele>
        <time>2023-01-27T13:46:10Z</time>
      </trkpt>
      <trkpt lat="47.79508" lon="-3.67922">
        <ele>25.6</ele>
        <time>2023-01-27T13:46:11Z</time>
      </trkpt>
      <trkpt lat="47.79507" lon="-3.67926">
        <ele>25.7</ele>
        <time>2023-01-27T13:46:13Z</time>
      </trkpt>
      <trkpt lat="47.79505" lon="-3.67933">
        <ele>25.9</ele>
        <time>2023-01-27T13:46:14Z</time>
      </trkpt>
      <trkpt lat="47.79504" lon="-3.67936">
        <ele>26</ele>
        <time>2023-01-27T13:46:16Z</time>
      </trkpt>
      <trkpt lat="47.79503" lon="-3.67938">
        <ele>26</ele>
        <time>2023-01-27T13:46:17Z</time>
      </trkpt>
      <trkpt lat="47.79503" lon="-3.67941">
        <ele>26.1</ele>
        <time>2023-01-27T13:46:18Z</time>
      </trkpt>
      <trkpt lat="47.79503" lon="-3.67945">
        <ele>26.2</ele>
        <time>2023-01-27T13:46:19Z</time>
      </trkpt>
      <trkpt lat="47.79503" lon="-3.67947">
        <ele>26.3</ele>
        <time>2023-01-27T13:46:20Z</time>
      </trkpt>
      <trkpt lat="47.79503" lon="-3.67952">
        <ele>26.4</ele>
        <time>2023-01-27T13:46:21Z</time>
      </trkpt>
      <trkpt lat="47.79502" lon="-3.67957">
        <ele>26.6</ele>
        <time>2023-01-27T13:46:22Z</time>
      </trkpt>
      <trkpt lat="47.79502" lon="-3.67959">
        <ele>26.7</ele>
        <time>2023-01-27T13:46:23Z</time>
      </trkpt>
      <trkpt lat="47.79503" lon="-3.67963">
        <ele>26.8</ele>
        <time>2023-01-27T13:46:24Z</time>
      </trkpt>
      <trkpt lat="47.79504" lon="-3.67964">
        <ele>26.9</ele>
        <time>2023-01-27T13:46:25Z</time>
      </trkpt>
      <trkpt lat="47.79505" lon="-3.67967">
        <ele>27</ele>
        <time>2023-01-27T13:46:26Z</time>
      </trkpt>
      <trkpt lat="47.79506" lon="-3.67973">
        <ele>27.2</ele>
        <time>2023-01-27T13:46:27Z</time>
      </trkpt>
      <trkpt lat="47.79506" lon="-3.67975">
        <ele>27.3</ele>
        <time>2023-01-27T13:46:28Z</time>
      </trkpt>
      <trkpt lat="47.79505" lon="-3.6798">
        <ele>27.4</ele>
        <time>2023-01-27T13:46:29Z</time>
      </trkpt>
      <trkpt lat="47.79505" lon="-3.67985">
        <ele>27.6</ele>
        <time>2023-01-27T13:46:30Z</time>
      </trkpt>
      <trkpt lat="47.79505" lon="-3.6799">
        <ele>27.7</ele>
        <time>2023-01-27T13:46:31Z</time>
      </trkpt>
      <trkpt lat="47.79505" lon="-3.67991">
        <ele>27.8</ele>
        <time>2023-01-27T13:46:32Z</time>
      </trkpt>
      <trkpt lat="47.79504" lon="-3.67997">
        <ele>27.9</ele>
        <time>2023-01-27T13:46:33Z</time>
      </trkpt>
      <trkpt lat="47.79504" lon="-3.67999">
        <ele>28</ele>
        <time>2023-01-27T13:46:34Z</time>
      </trkpt>
      <trkpt lat="47.79502" lon="-3.68002">
        <ele>28.1</ele>
        <time>2023-01-27T13:46:35Z</time>
      </trkpt>
      <trkpt lat="47.79502" lon="-3.68004">
        <ele>28.1</ele>
        <time>2023-01-27T13:46:36Z</time>
      </trkpt>
      <trkpt lat="47.79501" lon="-3.68008">
        <ele>28.2</ele>
        <time>2023-01-27T13:46:37Z</time>
      </trkpt>
      <trkpt lat="47.795" lon="-3.68012">
        <ele>28.3</ele>
        <time>2023-01-27T13:46:38Z</time>
      </trkpt>
      <trkpt lat="47.795" lon="-3.68016">
        <ele>28.4</ele>
        <time>2023-01-27T13:46:39Z</time>
      </trkpt>
      <trkpt lat="47.79501" lon="-3.68021">
        <ele>29</ele>
        <time>2023-01-27T13:46:40Z</time>
      </trkpt>
      <trkpt lat="47.79502" lon="-3.68022">
        <ele>29</ele>
        <time>2023-01-27T13:46:41Z</time>
      </trkpt>
      <trkpt lat="47.79503" lon="-3.68029">
        <ele>28.9</ele>
        <time>2023-01-27T13:46:42Z</time>
      </trkpt>
      <trkpt lat="47.79504" lon="-3.68033">
        <ele>28.9</ele>
        <time>2023-01-27T13:46:44Z</time>
      </trkpt>
      <trkpt lat="47.79506" lon="-3.68037">
        <ele>28.9</ele>
        <time>2023-01-27T13:46:45Z</time>
      </trkpt>
      <trkpt lat="47.79509" lon="-3.68041">
        <ele>28.8</ele>
        <time>2023-01-27T13:46:46Z</time>
      </trkpt>
      <trkpt lat="47.79511" lon="-3.68046">
        <ele>28.8</ele>
        <time>2023-01-27T13:46:47Z</time>
      </trkpt>
      <trkpt lat="47.79516" lon="-3.68053">
        <ele>28.8</ele>
        <time>2023-01-27T13:46:49Z</time>
      </trkpt>
      <trkpt lat="47.79519" lon="-3.68058">
        <ele>28.9</ele>
        <time>2023-01-27T13:46:50Z</time>
      </trkpt>
      <trkpt lat="47.79522" lon="-3.68062">
        <ele>28.9</ele>
        <time>2023-01-27T13:46:51Z</time>
      </trkpt>
      <trkpt lat="47.79524" lon="-3.68066">
        <ele>28.9</ele>
        <time>2023-01-27T13:46:52Z</time>
      </trkpt>
      <trkpt lat="47.79527" lon="-3.6807">
        <ele>29</ele>
        <time>2023-01-27T13:46:53Z</time>
      </trkpt>
      <trkpt lat="47.79534" lon="-3.68078">
        <ele>29.1</ele>
        <time>2023-01-27T13:46:54Z</time>
      </trkpt>
      <trkpt lat="47.7954" lon="-3.68084">
        <ele>29.3</ele>
        <time>2023-01-27T13:46:56Z</time>
      </trkpt>
      <trkpt lat="47.79542" lon="-3.68087">
        <ele>29.4</ele>
        <time>2023-01-27T13:46:57Z</time>
      </trkpt>
      <trkpt lat="47.79546" lon="-3.68091">
        <ele>29.6</ele>
        <time>2023-01-27T13:46:59Z</time>
      </trkpt>
      <trkpt lat="47.79549" lon="-3.68093">
        <ele>29.7</ele>
        <time>2023-01-27T13:47:00Z</time>
      </trkpt>
      <trkpt lat="47.79556" lon="-3.68097">
        <ele>30</ele>
        <time>2023-01-27T13:47:01Z</time>
      </trkpt>
      <trkpt lat="47.79563" lon="-3.68102">
        <ele>30.3</ele>
        <time>2023-01-27T13:47:03Z</time>
      </trkpt>
      <trkpt lat="47.79567" lon="-3.68104">
        <ele>30.4</ele>
        <time>2023-01-27T13:47:05Z</time>
      </trkpt>
      <trkpt lat="47.79569" lon="-3.68106">
        <ele>30.5</ele>
        <time>2023-01-27T13:47:06Z</time>
      </trkpt>
      <trkpt lat="47.79572" lon="-3.68108">
        <ele>30.6</ele>
        <time>2023-01-27T13:47:07Z</time>
      </trkpt>
      <trkpt lat="47.79574" lon="-3.6811">
        <ele>30.7</ele>
        <time>2023-01-27T13:47:08Z</time>
      </trkpt>
      <trkpt lat="47.79577" lon="-3.68111">
        <ele>30.8</ele>
        <time>2023-01-27T13:47:09Z</time>
      </trkpt>
      <trkpt lat="47.7958" lon="-3.68113">
        <ele>30.9</ele>
        <time>2023-01-27T13:47:10Z</time>
      </trkpt>
      <trkpt lat="47.79583" lon="-3.68116">
        <ele>31</ele>
        <time>2023-01-27T13:47:11Z</time>
      </trkpt>
      <trkpt lat="47.79586" lon="-3.68119">
        <ele>31.1</ele>
        <time>2023-01-27T13:47:12Z</time>
      </trkpt>
      <trkpt lat="47.79593" lon="-3.68124">
        <ele>31.3</ele>
        <time>2023-01-27T13:47:13Z</time>
      </trkpt>
      <trkpt lat="47.79596" lon="-3.68127">
        <ele>31.4</ele>
        <time>2023-01-27T13:47:15Z</time>
      </trkpt>
      <trkpt lat="47.796" lon="-3.68128">
        <ele>31.5</ele>
        <time>2023-01-27T13:47:16Z</time>
      </trkpt>
      <trkpt lat="47.79608" lon="-3.68135">
        <ele>31.7</ele>
        <time>2023-01-27T13:47:18Z</time>
      </trkpt>
      <trkpt lat="47.79613" lon="-3.68138">
        <ele>31.8</ele>
        <time>2023-01-27T13:47:20Z</time>
      </trkpt>
      <trkpt lat="47.79616" lon="-3.6814">
        <ele>31.8</ele>
        <time>2023-01-27T13:47:21Z</time>
      </trkpt>
      <trkpt lat="47.7962" lon="-3.68143">
        <ele>31.9</ele>
        <time>2023-01-27T13:47:22Z</time>
      </trkpt>
      <trkpt lat="47.79624" lon="-3.68145">
        <ele>32</ele>
        <time>2023-01-27T13:47:23Z</time>
      </trkpt>
      <trkpt lat="47.79627" lon="-3.68149">
        <ele>32</ele>
        <time>2023-01-27T13:47:24Z</time>
      </trkpt>
      <trkpt lat="47.79631" lon="-3.68152">
        <ele>32.1</ele>
        <time>2023-01-27T13:47:25Z</time>
      </trkpt>
      <trkpt lat="47.79638" lon="-3.68157">
        <ele>32.1</ele>
        <time>2023-01-27T13:47:26Z</time>
      </trkpt>
      <trkpt lat="47.79643" lon="-3.68161">
        <ele>32.2</ele>
        <time>2023-01-27T13:47:28Z</time>
      </trkpt>
      <trkpt lat="47.79646" lon="-3.68165">
        <ele>32.2</ele>
        <time>2023-01-27T13:47:29Z</time>
      </trkpt>
      <trkpt lat="47.7965" lon="-3.68168">
        <ele>32.2</ele>
        <time>2023-01-27T13:47:30Z</time>
      </trkpt>
      <trkpt lat="47.79654" lon="-3.68171">
        <ele>32.2</ele>
        <time>2023-01-27T13:47:31Z</time>
      </trkpt>
      <trkpt lat="47.79658" lon="-3.68173">
        <ele>32.3</ele>
        <time>2023-01-27T13:47:32Z</time>
      </trkpt>
      <trkpt lat="47.79663" lon="-3.68178">
        <ele>32.3</ele>
        <time>2023-01-27T13:47:33Z</time>
      </trkpt>
      <trkpt lat="47.79668" lon="-3.68182">
        <ele>32.4</ele>
        <time>2023-01-27T13:47:34Z</time>
      </trkpt>
      <trkpt lat="47.79672" lon="-3.68185">
        <ele>32.4</ele>
        <time>2023-01-27T13:47:35Z</time>
      </trkpt>
      <trkpt lat="47.79676" lon="-3.68188">
        <ele>32.4</ele>
        <time>2023-01-27T13:47:36Z</time>
      </trkpt>
      <trkpt lat="47.7968" lon="-3.68191">
        <ele>32.4</ele>
        <time>2023-01-27T13:47:37Z</time>
      </trkpt>
      <trkpt lat="47.79684" lon="-3.68194">
        <ele>32.4</ele>
        <time>2023-01-27T13:47:38Z</time>
      </trkpt>
      <trkpt lat="47.79688" lon="-3.68197">
        <ele>32.4</ele>
        <time>2023-01-27T13:47:39Z</time>
      </trkpt>
      <trkpt lat="47.79692" lon="-3.682">
        <ele>32.3</ele>
        <time>2023-01-27T13:47:40Z</time>
      </trkpt>
      <trkpt lat="47.79696" lon="-3.68201">
        <ele>32.3</ele>
        <time>2023-01-27T13:47:41Z</time>
      </trkpt>
      <trkpt lat="47.79701" lon="-3.68202">
        <ele>32.1</ele>
        <time>2023-01-27T13:47:42Z</time>
      </trkpt>
      <trkpt lat="47.79705" lon="-3.68205">
        <ele>32.1</ele>
        <time>2023-01-27T13:47:43Z</time>
      </trkpt>
      <trkpt lat="47.79708" lon="-3.6821">
        <ele>32.1</ele>
        <time>2023-01-27T13:47:45Z</time>
      </trkpt>
      <trkpt lat="47.79707" lon="-3.68221">
        <ele>32.3</ele>
        <time>2023-01-27T13:47:46Z</time>
      </trkpt>
      <trkpt lat="47.79704" lon="-3.68234">
        <ele>32.5</ele>
        <time>2023-01-27T13:47:47Z</time>
      </trkpt>
      <trkpt lat="47.79701" lon="-3.68239">
        <ele>32.6</ele>
        <time>2023-01-27T13:47:48Z</time>
      </trkpt>
      <trkpt lat="47.79695" lon="-3.68247">
        <ele>32.8</ele>
        <time>2023-01-27T13:47:50Z</time>
      </trkpt>
      <trkpt lat="47.79692" lon="-3.68252">
        <ele>32.9</ele>
        <time>2023-01-27T13:47:51Z</time>
      </trkpt>
      <trkpt lat="47.79689" lon="-3.68258">
        <ele>33</ele>
        <time>2023-01-27T13:47:52Z</time>
      </trkpt>
      <trkpt lat="47.79687" lon="-3.68264">
        <ele>33.1</ele>
        <time>2023-01-27T13:47:53Z</time>
      </trkpt>
      <trkpt lat="47.79687" lon="-3.68268">
        <ele>33.2</ele>
        <time>2023-01-27T13:47:54Z</time>
      </trkpt>
      <trkpt lat="47.79685" lon="-3.68275">
        <ele>33.3</ele>
        <time>2023-01-27T13:47:55Z</time>
      </trkpt>
      <trkpt lat="47.79681" lon="-3.68283">
        <ele>33.4</ele>
        <time>2023-01-27T13:47:56Z</time>
      </trkpt>
      <trkpt lat="47.79679" lon="-3.68293">
        <ele>33.5</ele>
        <time>2023-01-27T13:47:58Z</time>
      </trkpt>
      <trkpt lat="47.79677" lon="-3.683">
        <ele>33.5</ele>
        <time>2023-01-27T13:47:59Z</time>
      </trkpt>
      <trkpt lat="47.79675" lon="-3.68307">
        <ele>33.5</ele>
        <time>2023-01-27T13:48:00Z</time>
      </trkpt>
      <trkpt lat="47.79673" lon="-3.68313">
        <ele>33.5</ele>
        <time>2023-01-27T13:48:01Z</time>
      </trkpt>
      <trkpt lat="47.79671" lon="-3.6832">
        <ele>33.5</ele>
        <time>2023-01-27T13:48:02Z</time>
      </trkpt>
      <trkpt lat="47.79669" lon="-3.68326">
        <ele>33.6</ele>
        <time>2023-01-27T13:48:03Z</time>
      </trkpt>
      <trkpt lat="47.79666" lon="-3.68332">
        <ele>33.6</ele>
        <time>2023-01-27T13:48:04Z</time>
      </trkpt>
      <trkpt lat="47.79663" lon="-3.68338">
        <ele>33.7</ele>
        <time>2023-01-27T13:48:05Z</time>
      </trkpt>
      <trkpt lat="47.7966" lon="-3.68343">
        <ele>33.7</ele>
        <time>2023-01-27T13:48:06Z</time>
      </trkpt>
      <trkpt lat="47.79657" lon="-3.68348">
        <ele>33.8</ele>
        <time>2023-01-27T13:48:07Z</time>
      </trkpt>
      <trkpt lat="47.79654" lon="-3.68351">
        <ele>33.8</ele>
        <time>2023-01-27T13:48:08Z</time>
      </trkpt>
      <trkpt lat="47.79651" lon="-3.68358">
        <ele>33.8</ele>
        <time>2023-01-27T13:48:10Z</time>
      </trkpt>
      <trkpt lat="47.79646" lon="-3.68365">
        <ele>33.8</ele>
        <time>2023-01-27T13:48:11Z</time>
      </trkpt>
      <trkpt lat="47.79644" lon="-3.6837">
        <ele>33.8</ele>
        <time>2023-01-27T13:48:13Z</time>
      </trkpt>
      <trkpt lat="47.79641" lon="-3.68381">
        <ele>33.8</ele>
        <time>2023-01-27T13:48:14Z</time>
      </trkpt>
      <trkpt lat="47.7964" lon="-3.68386">
        <ele>33.7</ele>
        <time>2023-01-27T13:48:15Z</time>
      </trkpt>
      <trkpt lat="47.79638" lon="-3.68396">
        <ele>33.7</ele>
        <time>2023-01-27T13:48:17Z</time>
      </trkpt>
      <trkpt lat="47.79636" lon="-3.68403">
        <ele>33.7</ele>
        <time>2023-01-27T13:48:19Z</time>
      </trkpt>
      <trkpt lat="47.79634" lon="-3.68408">
        <ele>33.7</ele>
        <time>2023-01-27T13:48:20Z</time>
      </trkpt>
      <trkpt lat="47.79637" lon="-3.68412">
        <ele>33.7</ele>
        <time>2023-01-27T13:48:21Z</time>
      </trkpt>
      <trkpt lat="47.79638" lon="-3.68414">
        <ele>33.7</ele>
        <time>2023-01-27T13:48:22Z</time>
      </trkpt>
      <trkpt lat="47.79641" lon="-3.68416">
        <ele>33.7</ele>
        <time>2023-01-27T13:48:23Z</time>
      </trkpt>
      <trkpt lat="47.79646" lon="-3.68417">
        <ele>33.7</ele>
        <time>2023-01-27T13:48:24Z</time>
      </trkpt>
      <trkpt lat="47.79649" lon="-3.68418">
        <ele>33.7</ele>
        <time>2023-01-27T13:48:25Z</time>
      </trkpt>
      <trkpt lat="47.79651" lon="-3.6842">
        <ele>33.7</ele>
        <time>2023-01-27T13:48:26Z</time>
      </trkpt>
      <trkpt lat="47.79654" lon="-3.68423">
        <ele>33.7</ele>
        <time>2023-01-27T13:48:27Z</time>
      </trkpt>
      <trkpt lat="47.79656" lon="-3.68427">
        <ele>33.7</ele>
        <time>2023-01-27T13:48:28Z</time>
      </trkpt>
      <trkpt lat="47.79658" lon="-3.68432">
        <ele>33.6</ele>
        <time>2023-01-27T13:48:29Z</time>
      </trkpt>
      <trkpt lat="47.79659" lon="-3.68435">
        <ele>33.6</ele>
        <time>2023-01-27T13:48:30Z</time>
      </trkpt>
      <trkpt lat="47.79662" lon="-3.68438">
        <ele>33.6</ele>
        <time>2023-01-27T13:48:31Z</time>
      </trkpt>
      <trkpt lat="47.79665" lon="-3.68444">
        <ele>33.5</ele>
        <time>2023-01-27T13:48:32Z</time>
      </trkpt>
      <trkpt lat="47.79668" lon="-3.68449">
        <ele>33.4</ele>
        <time>2023-01-27T13:48:33Z</time>
      </trkpt>
      <trkpt lat="47.79671" lon="-3.68453">
        <ele>33.4</ele>
        <time>2023-01-27T13:48:34Z</time>
      </trkpt>
      <trkpt lat="47.79674" lon="-3.68457">
        <ele>33.3</ele>
        <time>2023-01-27T13:48:35Z</time>
      </trkpt>
      <trkpt lat="47.79677" lon="-3.68461">
        <ele>33.2</ele>
        <time>2023-01-27T13:48:36Z</time>
      </trkpt>
      <trkpt lat="47.79681" lon="-3.68467">
        <ele>33.1</ele>
        <time>2023-01-27T13:48:37Z</time>
      </trkpt>
      <trkpt lat="47.79684" lon="-3.68473">
        <ele>32.9</ele>
        <time>2023-01-27T13:48:38Z</time>
      </trkpt>
      <trkpt lat="47.79687" lon="-3.68478">
        <ele>32.8</ele>
        <time>2023-01-27T13:48:39Z</time>
      </trkpt>
      <trkpt lat="47.79693" lon="-3.68487">
        <ele>32.6</ele>
        <time>2023-01-27T13:48:41Z</time>
      </trkpt>
      <trkpt lat="47.79696" lon="-3.68491">
        <ele>32.5</ele>
        <time>2023-01-27T13:48:43Z</time>
      </trkpt>
      <trkpt lat="47.79704" lon="-3.68496">
        <ele>32.2</ele>
        <time>2023-01-27T13:48:44Z</time>
      </trkpt>
      <trkpt lat="47.79712" lon="-3.68501">
        <ele>31.9</ele>
        <time>2023-01-27T13:48:46Z</time>
      </trkpt>
      <trkpt lat="47.79715" lon="-3.68506">
        <ele>31.7</ele>
        <time>2023-01-27T13:48:47Z</time>
      </trkpt>
      <trkpt lat="47.79718" lon="-3.68511">
        <ele>31.5</ele>
        <time>2023-01-27T13:48:48Z</time>
      </trkpt>
      <trkpt lat="47.79721" lon="-3.68515">
        <ele>31.4</ele>
        <time>2023-01-27T13:48:49Z</time>
      </trkpt>
      <trkpt lat="47.79725" lon="-3.68521">
        <ele>31.1</ele>
        <time>2023-01-27T13:48:50Z</time>
      </trkpt>
      <trkpt lat="47.79729" lon="-3.68526">
        <ele>31</ele>
        <time>2023-01-27T13:48:51Z</time>
      </trkpt>
      <trkpt lat="47.79732" lon="-3.6853">
        <ele>30.7</ele>
        <time>2023-01-27T13:48:52Z</time>
      </trkpt>
      <trkpt lat="47.79737" lon="-3.68535">
        <ele>30.5</ele>
        <time>2023-01-27T13:48:53Z</time>
      </trkpt>
      <trkpt lat="47.79741" lon="-3.68539">
        <ele>30.2</ele>
        <time>2023-01-27T13:48:54Z</time>
      </trkpt>
      <trkpt lat="47.79746" lon="-3.68545">
        <ele>29.8</ele>
        <time>2023-01-27T13:48:55Z</time>
      </trkpt>
      <trkpt lat="47.7975" lon="-3.68551">
        <ele>29.4</ele>
        <time>2023-01-27T13:48:56Z</time>
      </trkpt>
      <trkpt lat="47.79754" lon="-3.68556">
        <ele>29</ele>
        <time>2023-01-27T13:48:57Z</time>
      </trkpt>
      <trkpt lat="47.79757" lon="-3.68557">
        <ele>28.8</ele>
        <time>2023-01-27T13:48:58Z</time>
      </trkpt>
      <trkpt lat="47.79761" lon="-3.68553">
        <ele>28.4</ele>
        <time>2023-01-27T13:48:59Z</time>
      </trkpt>
      <trkpt lat="47.79763" lon="-3.6855">
        <ele>28.4</ele>
        <time>2023-01-27T13:49:00Z</time>
      </trkpt>
      <trkpt lat="47.79766" lon="-3.68546">
        <ele>28.4</ele>
        <time>2023-01-27T13:49:01Z</time>
      </trkpt>
      <trkpt lat="47.79773" lon="-3.6854">
        <ele>28.4</ele>
        <time>2023-01-27T13:49:03Z</time>
      </trkpt>
      <trkpt lat="47.79777" lon="-3.68536">
        <ele>28.5</ele>
        <time>2023-01-27T13:49:04Z</time>
      </trkpt>
      <trkpt lat="47.79782" lon="-3.68531">
        <ele>28.7</ele>
        <time>2023-01-27T13:49:06Z</time>
      </trkpt>
      <trkpt lat="47.79785" lon="-3.68527">
        <ele>28.9</ele>
        <time>2023-01-27T13:49:08Z</time>
      </trkpt>
      <trkpt lat="47.79788" lon="-3.68523">
        <ele>29.1</ele>
        <time>2023-01-27T13:49:10Z</time>
      </trkpt>
      <trkpt lat="47.79791" lon="-3.68519">
        <ele>29.3</ele>
        <time>2023-01-27T13:49:11Z</time>
      </trkpt>
      <trkpt lat="47.79794" lon="-3.68515">
        <ele>29.5</ele>
        <time>2023-01-27T13:49:12Z</time>
      </trkpt>
      <trkpt lat="47.79799" lon="-3.68509">
        <ele>29.8</ele>
        <time>2023-01-27T13:49:13Z</time>
      </trkpt>
      <trkpt lat="47.79802" lon="-3.68507">
        <ele>30.1</ele>
        <time>2023-01-27T13:49:14Z</time>
      </trkpt>
      <trkpt lat="47.79806" lon="-3.68504">
        <ele>30.4</ele>
        <time>2023-01-27T13:49:16Z</time>
      </trkpt>
      <trkpt lat="47.7981" lon="-3.68504">
        <ele>30.6</ele>
        <time>2023-01-27T13:49:17Z</time>
      </trkpt>
      <trkpt lat="47.79814" lon="-3.68507">
        <ele>30.9</ele>
        <time>2023-01-27T13:49:18Z</time>
      </trkpt>
      <trkpt lat="47.79817" lon="-3.68511">
        <ele>31.2</ele>
        <time>2023-01-27T13:49:19Z</time>
      </trkpt>
      <trkpt lat="47.79819" lon="-3.68515">
        <ele>31.5</ele>
        <time>2023-01-27T13:49:20Z</time>
      </trkpt>
      <trkpt lat="47.79822" lon="-3.68524">
        <ele>32</ele>
        <time>2023-01-27T13:49:21Z</time>
      </trkpt>
      <trkpt lat="47.79823" lon="-3.68529">
        <ele>32.3</ele>
        <time>2023-01-27T13:49:23Z</time>
      </trkpt>
      <trkpt lat="47.79825" lon="-3.68534">
        <ele>32.6</ele>
        <time>2023-01-27T13:49:24Z</time>
      </trkpt>
      <trkpt lat="47.79826" lon="-3.68535">
        <ele>32.7</ele>
        <time>2023-01-27T13:49:25Z</time>
      </trkpt>
      <trkpt lat="47.79827" lon="-3.6854">
        <ele>32.9</ele>
        <time>2023-01-27T13:49:26Z</time>
      </trkpt>
      <trkpt lat="47.79827" lon="-3.68542">
        <ele>33</ele>
        <time>2023-01-27T13:49:27Z</time>
      </trkpt>
      <trkpt lat="47.79828" lon="-3.68547">
        <ele>33.2</ele>
        <time>2023-01-27T13:49:28Z</time>
      </trkpt>
      <trkpt lat="47.7983" lon="-3.68555">
        <ele>33.6</ele>
        <time>2023-01-27T13:49:29Z</time>
      </trkpt>
      <trkpt lat="47.79832" lon="-3.6856">
        <ele>33.7</ele>
        <time>2023-01-27T13:49:31Z</time>
      </trkpt>
      <trkpt lat="47.79834" lon="-3.68564">
        <ele>33.9</ele>
        <time>2023-01-27T13:49:32Z</time>
      </trkpt>
      <trkpt lat="47.79835" lon="-3.68569">
        <ele>34</ele>
        <time>2023-01-27T13:49:33Z</time>
      </trkpt>
      <trkpt lat="47.79835" lon="-3.68574">
        <ele>34.1</ele>
        <time>2023-01-27T13:49:34Z</time>
      </trkpt>
      <trkpt lat="47.79836" lon="-3.6858">
        <ele>34.2</ele>
        <time>2023-01-27T13:49:35Z</time>
      </trkpt>
      <trkpt lat="47.79836" lon="-3.68585">
        <ele>34.3</ele>
        <time>2023-01-27T13:49:36Z</time>
      </trkpt>
      <trkpt lat="47.79837" lon="-3.68591">
        <ele>34.4</ele>
        <time>2023-01-27T13:49:37Z</time>
      </trkpt>
      <trkpt lat="47.79837" lon="-3.68596">
        <ele>34.4</ele>
        <time>2023-01-27T13:49:38Z</time>
      </trkpt>
      <trkpt lat="47.79838" lon="-3.68602">
        <ele>34.5</ele>
        <time>2023-01-27T13:49:39Z</time>
      </trkpt>
      <trkpt lat="47.79838" lon="-3.6861">
        <ele>34.6</ele>
        <time>2023-01-27T13:49:40Z</time>
      </trkpt>
      <trkpt lat="47.79838" lon="-3.68616">
        <ele>34.6</ele>
        <time>2023-01-27T13:49:42Z</time>
      </trkpt>
      <trkpt lat="47.79838" lon="-3.68622">
        <ele>34.7</ele>
        <time>2023-01-27T13:49:43Z</time>
      </trkpt>
      <trkpt lat="47.79837" lon="-3.68631">
        <ele>34.8</ele>
        <time>2023-01-27T13:49:44Z</time>
      </trkpt>
      <trkpt lat="47.79835" lon="-3.6864">
        <ele>34.5</ele>
        <time>2023-01-27T13:49:46Z</time>
      </trkpt>
      <trkpt lat="47.79834" lon="-3.6865">
        <ele>34.2</ele>
        <time>2023-01-27T13:49:48Z</time>
      </trkpt>
      <trkpt lat="47.79834" lon="-3.68661">
        <ele>34</ele>
        <time>2023-01-27T13:49:50Z</time>
      </trkpt>
      <trkpt lat="47.79835" lon="-3.68668">
        <ele>33.9</ele>
        <time>2023-01-27T13:49:52Z</time>
      </trkpt>
      <trkpt lat="47.79835" lon="-3.68673">
        <ele>33.8</ele>
        <time>2023-01-27T13:49:53Z</time>
      </trkpt>
      <trkpt lat="47.79836" lon="-3.68684">
        <ele>33.7</ele>
        <time>2023-01-27T13:49:54Z</time>
      </trkpt>
      <trkpt lat="47.79836" lon="-3.6869">
        <ele>33.6</ele>
        <time>2023-01-27T13:49:56Z</time>
      </trkpt>
      <trkpt lat="47.79836" lon="-3.68696">
        <ele>33.5</ele>
        <time>2023-01-27T13:49:57Z</time>
      </trkpt>
      <trkpt lat="47.79835" lon="-3.68706">
        <ele>33.4</ele>
        <time>2023-01-27T13:49:58Z</time>
      </trkpt>
      <trkpt lat="47.79833" lon="-3.68718">
        <ele>33.2</ele>
        <time>2023-01-27T13:50:00Z</time>
      </trkpt>
      <trkpt lat="47.79833" lon="-3.68725">
        <ele>33.1</ele>
        <time>2023-01-27T13:50:02Z</time>
      </trkpt>
      <trkpt lat="47.79833" lon="-3.6873">
        <ele>33</ele>
        <time>2023-01-27T13:50:03Z</time>
      </trkpt>
      <trkpt lat="47.79834" lon="-3.68736">
        <ele>32.9</ele>
        <time>2023-01-27T13:50:04Z</time>
      </trkpt>
      <trkpt lat="47.79835" lon="-3.68739">
        <ele>32.9</ele>
        <time>2023-01-27T13:50:05Z</time>
      </trkpt>
      <trkpt lat="47.79836" lon="-3.68747">
        <ele>32.7</ele>
        <time>2023-01-27T13:50:06Z</time>
      </trkpt>
      <trkpt lat="47.79835" lon="-3.68757">
        <ele>32.5</ele>
        <time>2023-01-27T13:50:08Z</time>
      </trkpt>
      <trkpt lat="47.79836" lon="-3.68762">
        <ele>32.3</ele>
        <time>2023-01-27T13:50:09Z</time>
      </trkpt>
      <trkpt lat="47.79839" lon="-3.6877">
        <ele>32</ele>
        <time>2023-01-27T13:50:11Z</time>
      </trkpt>
      <trkpt lat="47.79839" lon="-3.68773">
        <ele>32</ele>
        <time>2023-01-27T13:50:13Z</time>
      </trkpt>
      <trkpt lat="47.79838" lon="-3.68775">
        <ele>31.9</ele>
        <time>2023-01-27T13:50:14Z</time>
      </trkpt>
      <trkpt lat="47.79837" lon="-3.68775">
        <ele>31.9</ele>
        <time>2023-01-27T13:50:16Z</time>
      </trkpt>
      <trkpt lat="47.79836" lon="-3.68776">
        <ele>31.8</ele>
        <time>2023-01-27T13:50:17Z</time>
      </trkpt>
      <trkpt lat="47.79834" lon="-3.68776">
        <ele>31.8</ele>
        <time>2023-01-27T13:50:18Z</time>
      </trkpt>
      <trkpt lat="47.79832" lon="-3.68775">
        <ele>31.6</ele>
        <time>2023-01-27T13:50:20Z</time>
      </trkpt>
      <trkpt lat="47.79829" lon="-3.68775">
        <ele>31.5</ele>
        <time>2023-01-27T13:50:21Z</time>
      </trkpt>
      <trkpt lat="47.79824" lon="-3.68775">
        <ele>31.2</ele>
        <time>2023-01-27T13:50:22Z</time>
      </trkpt>
      <trkpt lat="47.7982" lon="-3.68775">
        <ele>30.9</ele>
        <time>2023-01-27T13:50:23Z</time>
      </trkpt>
      <trkpt lat="47.79815" lon="-3.68774">
        <ele>30.5</ele>
        <time>2023-01-27T13:50:24Z</time>
      </trkpt>
      <trkpt lat="47.79809" lon="-3.68774">
        <ele>29.9</ele>
        <time>2023-01-27T13:50:25Z</time>
      </trkpt>
      <trkpt lat="47.798" lon="-3.68774">
        <ele>29.2</ele>
        <time>2023-01-27T13:50:27Z</time>
      </trkpt>
      <trkpt lat="47.79796" lon="-3.68774">
        <ele>28.8</ele>
        <time>2023-01-27T13:50:29Z</time>
      </trkpt>
      <trkpt lat="47.7979" lon="-3.68775">
        <ele>28.3</ele>
        <time>2023-01-27T13:50:30Z</time>
      </trkpt>
      <trkpt lat="47.79787" lon="-3.68776">
        <ele>28.1</ele>
        <time>2023-01-27T13:50:32Z</time>
      </trkpt>
      <trkpt lat="47.79785" lon="-3.68775">
        <ele>28</ele>
        <time>2023-01-27T13:50:33Z</time>
      </trkpt>
      <trkpt lat="47.79784" lon="-3.68775">
        <ele>27.9</ele>
        <time>2023-01-27T13:50:34Z</time>
      </trkpt>
      <trkpt lat="47.79783" lon="-3.68775">
        <ele>27.9</ele>
        <time>2023-01-27T13:50:35Z</time>
      </trkpt>
      <trkpt lat="47.79781" lon="-3.68776">
        <ele>27.7</ele>
        <time>2023-01-27T13:50:36Z</time>
      </trkpt>
      <trkpt lat="47.79777" lon="-3.68774">
        <ele>27.5</ele>
        <time>2023-01-27T13:50:38Z</time>
      </trkpt>
      <trkpt lat="47.79774" lon="-3.68774">
        <ele>27.3</ele>
        <time>2023-01-27T13:50:40Z</time>
      </trkpt>
      <trkpt lat="47.79771" lon="-3.68773">
        <ele>27.1</ele>
        <time>2023-01-27T13:50:41Z</time>
      </trkpt>
      <trkpt lat="47.7977" lon="-3.68774">
        <ele>27</ele>
        <time>2023-01-27T13:50:42Z</time>
      </trkpt>
      <trkpt lat="47.79765" lon="-3.68773">
        <ele>26.7</ele>
        <time>2023-01-27T13:50:43Z</time>
      </trkpt>
      <trkpt lat="47.79763" lon="-3.68773">
        <ele>26.5</ele>
        <time>2023-01-27T13:50:44Z</time>
      </trkpt>
      <trkpt lat="47.7976" lon="-3.68772">
        <ele>26.3</ele>
        <time>2023-01-27T13:50:45Z</time>
      </trkpt>
      <trkpt lat="47.79757" lon="-3.68771">
        <ele>26.1</ele>
        <time>2023-01-27T13:50:46Z</time>
      </trkpt>
      <trkpt lat="47.79756" lon="-3.68771">
        <ele>26.1</ele>
        <time>2023-01-27T13:50:47Z</time>
      </trkpt>
      <trkpt lat="47.79753" lon="-3.68772">
        <ele>25.9</ele>
        <time>2023-01-27T13:50:48Z</time>
      </trkpt>
      <trkpt lat="47.79752" lon="-3.68772">
        <ele>25.8</ele>
        <time>2023-01-27T13:50:49Z</time>
      </trkpt>
      <trkpt lat="47.79749" lon="-3.68771">
        <ele>25.7</ele>
        <time>2023-01-27T13:50:50Z</time>
      </trkpt>
      <trkpt lat="47.79748" lon="-3.6877">
        <ele>25.7</ele>
        <time>2023-01-27T13:50:51Z</time>
      </trkpt>
      <trkpt lat="47.79745" lon="-3.6877">
        <ele>25.6</ele>
        <time>2023-01-27T13:50:52Z</time>
      </trkpt>
      <trkpt lat="47.79741" lon="-3.68768">
        <ele>25.4</ele>
        <time>2023-01-27T13:50:53Z</time>
      </trkpt>
      <trkpt lat="47.79739" lon="-3.68768">
        <ele>25.4</ele>
        <time>2023-01-27T13:50:54Z</time>
      </trkpt>
      <trkpt lat="47.79735" lon="-3.68766">
        <ele>25.2</ele>
        <time>2023-01-27T13:50:55Z</time>
      </trkpt>
      <trkpt lat="47.79731" lon="-3.68765">
        <ele>25.1</ele>
        <time>2023-01-27T13:50:56Z</time>
      </trkpt>
      <trkpt lat="47.79727" lon="-3.68765">
        <ele>25</ele>
        <time>2023-01-27T13:50:58Z</time>
      </trkpt>
      <trkpt lat="47.79723" lon="-3.68765">
        <ele>24.9</ele>
        <time>2023-01-27T13:50:59Z</time>
      </trkpt>
      <trkpt lat="47.7972" lon="-3.68766">
        <ele>24.8</ele>
        <time>2023-01-27T13:51:01Z</time>
      </trkpt>
      <trkpt lat="47.79719" lon="-3.68767">
        <ele>24.8</ele>
        <time>2023-01-27T13:51:02Z</time>
      </trkpt>
      <trkpt lat="47.79718" lon="-3.68768">
        <ele>24.8</ele>
        <time>2023-01-27T13:51:03Z</time>
      </trkpt>
      <trkpt lat="47.79716" lon="-3.68768">
        <ele>24.7</ele>
        <time>2023-01-27T13:51:04Z</time>
      </trkpt>
      <trkpt lat="47.79713" lon="-3.68768">
        <ele>24.7</ele>
        <time>2023-01-27T13:51:05Z</time>
      </trkpt>
      <trkpt lat="47.79711" lon="-3.68768">
        <ele>24.7</ele>
        <time>2023-01-27T13:51:06Z</time>
      </trkpt>
      <trkpt lat="47.79708" lon="-3.68768">
        <ele>24.7</ele>
        <time>2023-01-27T13:51:07Z</time>
      </trkpt>
      <trkpt lat="47.79708" lon="-3.68769">
        <ele>24.7</ele>
        <time>2023-01-27T13:51:08Z</time>
      </trkpt>
      <trkpt lat="47.79706" lon="-3.68769">
        <ele>24.7</ele>
        <time>2023-01-27T13:51:09Z</time>
      </trkpt>
      <trkpt lat="47.79704" lon="-3.6877">
        <ele>24.7</ele>
        <time>2023-01-27T13:51:10Z</time>
      </trkpt>
      <trkpt lat="47.797" lon="-3.68772">
        <ele>24.7</ele>
        <time>2023-01-27T13:51:12Z</time>
      </trkpt>
      <trkpt lat="47.79698" lon="-3.68772">
        <ele>24.7</ele>
        <time>2023-01-27T13:51:14Z</time>
      </trkpt>
      <trkpt lat="47.79695" lon="-3.68772">
        <ele>24.7</ele>
        <time>2023-01-27T13:51:15Z</time>
      </trkpt>
      <trkpt lat="47.79693" lon="-3.68772">
        <ele>24.7</ele>
        <time>2023-01-27T13:51:16Z</time>
      </trkpt>
      <trkpt lat="47.79689" lon="-3.68773">
        <ele>24.7</ele>
        <time>2023-01-27T13:51:17Z</time>
      </trkpt>
      <trkpt lat="47.79684" lon="-3.68775">
        <ele>24.7</ele>
        <time>2023-01-27T13:51:19Z</time>
      </trkpt>
      <trkpt lat="47.7968" lon="-3.68776">
        <ele>24.7</ele>
        <time>2023-01-27T13:51:21Z</time>
      </trkpt>
      <trkpt lat="47.79676" lon="-3.68776">
        <ele>24.8</ele>
        <time>2023-01-27T13:51:22Z</time>
      </trkpt>
      <trkpt lat="47.79675" lon="-3.68777">
        <ele>24.8</ele>
        <time>2023-01-27T13:51:23Z</time>
      </trkpt>
      <trkpt lat="47.79671" lon="-3.68777">
        <ele>24.7</ele>
        <time>2023-01-27T13:51:24Z</time>
      </trkpt>
      <trkpt lat="47.79667" lon="-3.68779">
        <ele>24.7</ele>
        <time>2023-01-27T13:51:25Z</time>
      </trkpt>
      <trkpt lat="47.79664" lon="-3.6878">
        <ele>24.6</ele>
        <time>2023-01-27T13:51:26Z</time>
      </trkpt>
      <trkpt lat="47.79661" lon="-3.68781">
        <ele>24.6</ele>
        <time>2023-01-27T13:51:27Z</time>
      </trkpt>
      <trkpt lat="47.79658" lon="-3.68782">
        <ele>24.5</ele>
        <time>2023-01-27T13:51:28Z</time>
      </trkpt>
      <trkpt lat="47.79652" lon="-3.68784">
        <ele>24.4</ele>
        <time>2023-01-27T13:51:29Z</time>
      </trkpt>
      <trkpt lat="47.79648" lon="-3.68786">
        <ele>24.4</ele>
        <time>2023-01-27T13:51:30Z</time>
      </trkpt>
      <trkpt lat="47.79645" lon="-3.68787">
        <ele>24.4</ele>
        <time>2023-01-27T13:51:31Z</time>
      </trkpt>
      <trkpt lat="47.79642" lon="-3.68787">
        <ele>24.4</ele>
        <time>2023-01-27T13:51:32Z</time>
      </trkpt>
      <trkpt lat="47.79638" lon="-3.68787">
        <ele>24.5</ele>
        <time>2023-01-27T13:51:33Z</time>
      </trkpt>
      <trkpt lat="47.79635" lon="-3.68789">
        <ele>24.6</ele>
        <time>2023-01-27T13:51:34Z</time>
      </trkpt>
      <trkpt lat="47.79631" lon="-3.68789">
        <ele>24.6</ele>
        <time>2023-01-27T13:51:35Z</time>
      </trkpt>
      <trkpt lat="47.79628" lon="-3.68791">
        <ele>24.7</ele>
        <time>2023-01-27T13:51:36Z</time>
      </trkpt>
      <trkpt lat="47.79624" lon="-3.68792">
        <ele>24.9</ele>
        <time>2023-01-27T13:51:37Z</time>
      </trkpt>
      <trkpt lat="47.79622" lon="-3.68792">
        <ele>24.9</ele>
        <time>2023-01-27T13:51:38Z</time>
      </trkpt>
      <trkpt lat="47.79619" lon="-3.68795">
        <ele>25</ele>
        <time>2023-01-27T13:51:39Z</time>
      </trkpt>
      <trkpt lat="47.79618" lon="-3.68796">
        <ele>25.1</ele>
        <time>2023-01-27T13:51:40Z</time>
      </trkpt>
      <trkpt lat="47.79612" lon="-3.688">
        <ele>25.2</ele>
        <time>2023-01-27T13:51:42Z</time>
      </trkpt>
      <trkpt lat="47.79609" lon="-3.688">
        <ele>25.3</ele>
        <time>2023-01-27T13:51:43Z</time>
      </trkpt>
      <trkpt lat="47.79606" lon="-3.68801">
        <ele>25.4</ele>
        <time>2023-01-27T13:51:45Z</time>
      </trkpt>
      <trkpt lat="47.79603" lon="-3.68802">
        <ele>25.5</ele>
        <time>2023-01-27T13:51:46Z</time>
      </trkpt>
      <trkpt lat="47.79598" lon="-3.68804">
        <ele>25.7</ele>
        <time>2023-01-27T13:51:47Z</time>
      </trkpt>
      <trkpt lat="47.79591" lon="-3.68806">
        <ele>26</ele>
        <time>2023-01-27T13:51:48Z</time>
      </trkpt>
      <trkpt lat="47.79587" lon="-3.68807">
        <ele>26.2</ele>
        <time>2023-01-27T13:51:49Z</time>
      </trkpt>
      <trkpt lat="47.79583" lon="-3.68807">
        <ele>26.3</ele>
        <time>2023-01-27T13:51:51Z</time>
      </trkpt>
      <trkpt lat="47.79578" lon="-3.68809">
        <ele>26.5</ele>
        <time>2023-01-27T13:51:52Z</time>
      </trkpt>
      <trkpt lat="47.79571" lon="-3.68815">
        <ele>26.8</ele>
        <time>2023-01-27T13:51:54Z</time>
      </trkpt>
      <trkpt lat="47.79567" lon="-3.68816">
        <ele>26.9</ele>
        <time>2023-01-27T13:51:56Z</time>
      </trkpt>
      <trkpt lat="47.79564" lon="-3.68817">
        <ele>27</ele>
        <time>2023-01-27T13:51:57Z</time>
      </trkpt>
      <trkpt lat="47.79561" lon="-3.68818">
        <ele>27.2</ele>
        <time>2023-01-27T13:51:58Z</time>
      </trkpt>
      <trkpt lat="47.79555" lon="-3.68821">
        <ele>27.5</ele>
        <time>2023-01-27T13:51:59Z</time>
      </trkpt>
      <trkpt lat="47.7955" lon="-3.68823">
        <ele>27.8</ele>
        <time>2023-01-27T13:52:01Z</time>
      </trkpt>
      <trkpt lat="47.79543" lon="-3.68826">
        <ele>28.1</ele>
        <time>2023-01-27T13:52:02Z</time>
      </trkpt>
      <trkpt lat="47.7954" lon="-3.68828">
        <ele>28.3</ele>
        <time>2023-01-27T13:52:04Z</time>
      </trkpt>
      <trkpt lat="47.79537" lon="-3.68829">
        <ele>28.4</ele>
        <time>2023-01-27T13:52:05Z</time>
      </trkpt>
      <trkpt lat="47.79534" lon="-3.6883">
        <ele>28.6</ele>
        <time>2023-01-27T13:52:06Z</time>
      </trkpt>
      <trkpt lat="47.79531" lon="-3.6883">
        <ele>28.7</ele>
        <time>2023-01-27T13:52:07Z</time>
      </trkpt>
      <trkpt lat="47.79528" lon="-3.68832">
        <ele>28.9</ele>
        <time>2023-01-27T13:52:08Z</time>
      </trkpt>
      <trkpt lat="47.79525" lon="-3.68834">
        <ele>29</ele>
        <time>2023-01-27T13:52:09Z</time>
      </trkpt>
      <trkpt lat="47.79522" lon="-3.68836">
        <ele>29.1</ele>
        <time>2023-01-27T13:52:10Z</time>
      </trkpt>
      <trkpt lat="47.79516" lon="-3.68838">
        <ele>29.3</ele>
        <time>2023-01-27T13:52:11Z</time>
      </trkpt>
      <trkpt lat="47.79514" lon="-3.6884">
        <ele>29.4</ele>
        <time>2023-01-27T13:52:13Z</time>
      </trkpt>
      <trkpt lat="47.79511" lon="-3.68841">
        <ele>29.5</ele>
        <time>2023-01-27T13:52:14Z</time>
      </trkpt>
      <trkpt lat="47.79508" lon="-3.68843">
        <ele>29.6</ele>
        <time>2023-01-27T13:52:15Z</time>
      </trkpt>
      <trkpt lat="47.79505" lon="-3.68844">
        <ele>29.7</ele>
        <time>2023-01-27T13:52:16Z</time>
      </trkpt>
      <trkpt lat="47.79501" lon="-3.68846">
        <ele>29.7</ele>
        <time>2023-01-27T13:52:17Z</time>
      </trkpt>
      <trkpt lat="47.79499" lon="-3.68848">
        <ele>29.8</ele>
        <time>2023-01-27T13:52:18Z</time>
      </trkpt>
      <trkpt lat="47.79496" lon="-3.68849">
        <ele>29.8</ele>
        <time>2023-01-27T13:52:19Z</time>
      </trkpt>
      <trkpt lat="47.79492" lon="-3.68851">
        <ele>29.8</ele>
        <time>2023-01-27T13:52:20Z</time>
      </trkpt>
      <trkpt lat="47.79489" lon="-3.68853">
        <ele>29.9</ele>
        <time>2023-01-27T13:52:21Z</time>
      </trkpt>
      <trkpt lat="47.79484" lon="-3.68855">
        <ele>29.9</ele>
        <time>2023-01-27T13:52:22Z</time>
      </trkpt>
      <trkpt lat="47.79481" lon="-3.68856">
        <ele>29.9</ele>
        <time>2023-01-27T13:52:23Z</time>
      </trkpt>
      <trkpt lat="47.79478" lon="-3.68857">
        <ele>30</ele>
        <time>2023-01-27T13:52:24Z</time>
      </trkpt>
      <trkpt lat="47.79472" lon="-3.6886">
        <ele>30.1</ele>
        <time>2023-01-27T13:52:26Z</time>
      </trkpt>
      <trkpt lat="47.79469" lon="-3.68862">
        <ele>30.2</ele>
        <time>2023-01-27T13:52:27Z</time>
      </trkpt>
      <trkpt lat="47.79465" lon="-3.68864">
        <ele>30.3</ele>
        <time>2023-01-27T13:52:29Z</time>
      </trkpt>
      <trkpt lat="47.79462" lon="-3.68865">
        <ele>30.3</ele>
        <time>2023-01-27T13:52:30Z</time>
      </trkpt>
      <trkpt lat="47.79459" lon="-3.68867">
        <ele>30.4</ele>
        <time>2023-01-27T13:52:31Z</time>
      </trkpt>
      <trkpt lat="47.79456" lon="-3.68869">
        <ele>30.4</ele>
        <time>2023-01-27T13:52:32Z</time>
      </trkpt>
      <trkpt lat="47.79453" lon="-3.6887">
        <ele>30.3</ele>
        <time>2023-01-27T13:52:33Z</time>
      </trkpt>
      <trkpt lat="47.7945" lon="-3.68871">
        <ele>30.3</ele>
        <time>2023-01-27T13:52:34Z</time>
      </trkpt>
      <trkpt lat="47.79447" lon="-3.68873">
        <ele>30.3</ele>
        <time>2023-01-27T13:52:35Z</time>
      </trkpt>
      <trkpt lat="47.79444" lon="-3.68874">
        <ele>30.2</ele>
        <time>2023-01-27T13:52:36Z</time>
      </trkpt>
      <trkpt lat="47.79441" lon="-3.68876">
        <ele>30.2</ele>
        <time>2023-01-27T13:52:37Z</time>
      </trkpt>
      <trkpt lat="47.79438" lon="-3.68879">
        <ele>30.2</ele>
        <time>2023-01-27T13:52:38Z</time>
      </trkpt>
      <trkpt lat="47.79436" lon="-3.68883">
        <ele>30.1</ele>
        <time>2023-01-27T13:52:39Z</time>
      </trkpt>
      <trkpt lat="47.79434" lon="-3.68887">
        <ele>30.1</ele>
        <time>2023-01-27T13:52:40Z</time>
      </trkpt>
      <trkpt lat="47.79432" lon="-3.6889">
        <ele>30.1</ele>
        <time>2023-01-27T13:52:41Z</time>
      </trkpt>
      <trkpt lat="47.79429" lon="-3.68894">
        <ele>30.1</ele>
        <time>2023-01-27T13:52:42Z</time>
      </trkpt>
      <trkpt lat="47.79428" lon="-3.68895">
        <ele>29.5</ele>
        <time>2023-01-27T13:52:43Z</time>
      </trkpt>
      <trkpt lat="47.79427" lon="-3.68899">
        <ele>29.4</ele>
        <time>2023-01-27T13:52:44Z</time>
      </trkpt>
      <trkpt lat="47.79426" lon="-3.68901">
        <ele>29.4</ele>
        <time>2023-01-27T13:52:45Z</time>
      </trkpt>
      <trkpt lat="47.79427" lon="-3.68905">
        <ele>29.3</ele>
        <time>2023-01-27T13:52:46Z</time>
      </trkpt>
      <trkpt lat="47.79428" lon="-3.6891">
        <ele>29.2</ele>
        <time>2023-01-27T13:52:47Z</time>
      </trkpt>
      <trkpt lat="47.7943" lon="-3.68914">
        <ele>29.1</ele>
        <time>2023-01-27T13:52:48Z</time>
      </trkpt>
      <trkpt lat="47.79432" lon="-3.68917">
        <ele>29</ele>
        <time>2023-01-27T13:52:49Z</time>
      </trkpt>
      <trkpt lat="47.79432" lon="-3.68921">
        <ele>28.9</ele>
        <time>2023-01-27T13:52:50Z</time>
      </trkpt>
      <trkpt lat="47.79433" lon="-3.68926">
        <ele>28.8</ele>
        <time>2023-01-27T13:52:51Z</time>
      </trkpt>
      <trkpt lat="47.79437" lon="-3.68931">
        <ele>28.6</ele>
        <time>2023-01-27T13:52:52Z</time>
      </trkpt>
      <trkpt lat="47.79439" lon="-3.68936">
        <ele>28.4</ele>
        <time>2023-01-27T13:52:53Z</time>
      </trkpt>
      <trkpt lat="47.79441" lon="-3.68943">
        <ele>28.1</ele>
        <time>2023-01-27T13:52:54Z</time>
      </trkpt>
      <trkpt lat="47.79443" lon="-3.68948">
        <ele>28</ele>
        <time>2023-01-27T13:52:56Z</time>
      </trkpt>
      <trkpt lat="47.79446" lon="-3.68957">
        <ele>27.6</ele>
        <time>2023-01-27T13:52:57Z</time>
      </trkpt>
      <trkpt lat="47.79449" lon="-3.68961">
        <ele>27.4</ele>
        <time>2023-01-27T13:52:58Z</time>
      </trkpt>
      <trkpt lat="47.79453" lon="-3.68964">
        <ele>27.1</ele>
        <time>2023-01-27T13:52:59Z</time>
      </trkpt>
      <trkpt lat="47.79461" lon="-3.68963">
        <ele>26.7</ele>
        <time>2023-01-27T13:53:01Z</time>
      </trkpt>
      <trkpt lat="47.79469" lon="-3.68962">
        <ele>26.1</ele>
        <time>2023-01-27T13:53:03Z</time>
      </trkpt>
      <trkpt lat="47.79473" lon="-3.68962">
        <ele>25.9</ele>
        <time>2023-01-27T13:53:05Z</time>
      </trkpt>
      <trkpt lat="47.79477" lon="-3.68961">
        <ele>25.6</ele>
        <time>2023-01-27T13:53:06Z</time>
      </trkpt>
      <trkpt lat="47.79484" lon="-3.68963">
        <ele>24.9</ele>
        <time>2023-01-27T13:53:07Z</time>
      </trkpt>
      <trkpt lat="47.79487" lon="-3.68964">
        <ele>24.5</ele>
        <time>2023-01-27T13:53:09Z</time>
      </trkpt>
      <trkpt lat="47.7949" lon="-3.68967">
        <ele>24</ele>
        <time>2023-01-27T13:53:10Z</time>
      </trkpt>
      <trkpt lat="47.79492" lon="-3.68971">
        <ele>23.6</ele>
        <time>2023-01-27T13:53:11Z</time>
      </trkpt>
      <trkpt lat="47.79493" lon="-3.68978">
        <ele>23.1</ele>
        <time>2023-01-27T13:53:12Z</time>
      </trkpt>
      <trkpt lat="47.79492" lon="-3.68985">
        <ele>22.5</ele>
        <time>2023-01-27T13:53:13Z</time>
      </trkpt>
      <trkpt lat="47.79493" lon="-3.68993">
        <ele>21.9</ele>
        <time>2023-01-27T13:53:14Z</time>
      </trkpt>
      <trkpt lat="47.79493" lon="-3.68999">
        <ele>21.4</ele>
        <time>2023-01-27T13:53:15Z</time>
      </trkpt>
      <trkpt lat="47.79494" lon="-3.69005">
        <ele>20.9</ele>
        <time>2023-01-27T13:53:16Z</time>
      </trkpt>
      <trkpt lat="47.79496" lon="-3.69008">
        <ele>20.5</ele>
        <time>2023-01-27T13:53:17Z</time>
      </trkpt>
      <trkpt lat="47.79499" lon="-3.69012">
        <ele>20.2</ele>
        <time>2023-01-27T13:53:18Z</time>
      </trkpt>
      <trkpt lat="47.79501" lon="-3.69017">
        <ele>19.7</ele>
        <time>2023-01-27T13:53:19Z</time>
      </trkpt>
      <trkpt lat="47.79501" lon="-3.69022">
        <ele>19.4</ele>
        <time>2023-01-27T13:53:20Z</time>
      </trkpt>
      <trkpt lat="47.79497" lon="-3.69027">
        <ele>19</ele>
        <time>2023-01-27T13:53:21Z</time>
      </trkpt>
      <trkpt lat="47.79495" lon="-3.69032">
        <ele>18.7</ele>
        <time>2023-01-27T13:53:23Z</time>
      </trkpt>
      <trkpt lat="47.79489" lon="-3.6904">
        <ele>18.2</ele>
        <time>2023-01-27T13:53:24Z</time>
      </trkpt>
      <trkpt lat="47.79484" lon="-3.69043">
        <ele>17.9</ele>
        <time>2023-01-27T13:53:26Z</time>
      </trkpt>
      <trkpt lat="47.79481" lon="-3.69046">
        <ele>17.7</ele>
        <time>2023-01-27T13:53:27Z</time>
      </trkpt>
      <trkpt lat="47.79477" lon="-3.69052">
        <ele>17.4</ele>
        <time>2023-01-27T13:53:28Z</time>
      </trkpt>
      <trkpt lat="47.79473" lon="-3.69056">
        <ele>17</ele>
        <time>2023-01-27T13:53:30Z</time>
      </trkpt>
      <trkpt lat="47.79471" lon="-3.69061">
        <ele>16.8</ele>
        <time>2023-01-27T13:53:31Z</time>
      </trkpt>
      <trkpt lat="47.7947" lon="-3.69066">
        <ele>16.5</ele>
        <time>2023-01-27T13:53:32Z</time>
      </trkpt>
      <trkpt lat="47.7947" lon="-3.69071">
        <ele>16.3</ele>
        <time>2023-01-27T13:53:33Z</time>
      </trkpt>
      <trkpt lat="47.7947" lon="-3.69073">
        <ele>16.2</ele>
        <time>2023-01-27T13:53:34Z</time>
      </trkpt>
      <trkpt lat="47.79468" lon="-3.6908">
        <ele>16</ele>
        <time>2023-01-27T13:53:35Z</time>
      </trkpt>
      <trkpt lat="47.79463" lon="-3.69087">
        <ele>15.7</ele>
        <time>2023-01-27T13:53:36Z</time>
      </trkpt>
      <trkpt lat="47.79459" lon="-3.69091">
        <ele>15.7</ele>
        <time>2023-01-27T13:53:37Z</time>
      </trkpt>
      <trkpt lat="47.79456" lon="-3.69096">
        <ele>15.6</ele>
        <time>2023-01-27T13:53:38Z</time>
      </trkpt>
      <trkpt lat="47.79454" lon="-3.69098">
        <ele>15.6</ele>
        <time>2023-01-27T13:53:39Z</time>
      </trkpt>
      <trkpt lat="47.79451" lon="-3.69099">
        <ele>15.6</ele>
        <time>2023-01-27T13:53:40Z</time>
      </trkpt>
      <trkpt lat="47.7945" lon="-3.691">
        <ele>15.5</ele>
        <time>2023-01-27T13:53:41Z</time>
      </trkpt>
      <trkpt lat="47.79448" lon="-3.69102">
        <ele>15.5</ele>
        <time>2023-01-27T13:53:43Z</time>
      </trkpt>
      <trkpt lat="47.79446" lon="-3.69103">
        <ele>15.5</ele>
        <time>2023-01-27T13:53:44Z</time>
      </trkpt>
      <trkpt lat="47.79443" lon="-3.69106">
        <ele>15.5</ele>
        <time>2023-01-27T13:53:46Z</time>
      </trkpt>
      <trkpt lat="47.79441" lon="-3.69107">
        <ele>15.5</ele>
        <time>2023-01-27T13:53:48Z</time>
      </trkpt>
      <trkpt lat="47.79436" lon="-3.6911">
        <ele>15.6</ele>
        <time>2023-01-27T13:53:49Z</time>
      </trkpt>
      <trkpt lat="47.79433" lon="-3.69113">
        <ele>15.6</ele>
        <time>2023-01-27T13:53:51Z</time>
      </trkpt>
      <trkpt lat="47.79433" lon="-3.69117">
        <ele>15.7</ele>
        <time>2023-01-27T13:53:52Z</time>
      </trkpt>
      <trkpt lat="47.79433" lon="-3.69118">
        <ele>15.7</ele>
        <time>2023-01-27T13:53:53Z</time>
      </trkpt>
      <trkpt lat="47.79433" lon="-3.69124">
        <ele>15.8</ele>
        <time>2023-01-27T13:53:55Z</time>
      </trkpt>
      <trkpt lat="47.79436" lon="-3.69131">
        <ele>15.9</ele>
        <time>2023-01-27T13:53:57Z</time>
      </trkpt>
      <trkpt lat="47.79437" lon="-3.69136">
        <ele>16</ele>
        <time>2023-01-27T13:53:59Z</time>
      </trkpt>
      <trkpt lat="47.79439" lon="-3.69141">
        <ele>16.1</ele>
        <time>2023-01-27T13:54:00Z</time>
      </trkpt>
      <trkpt lat="47.79441" lon="-3.69146">
        <ele>16.2</ele>
        <time>2023-01-27T13:54:02Z</time>
      </trkpt>
      <trkpt lat="47.79441" lon="-3.69147">
        <ele>16.2</ele>
        <time>2023-01-27T13:54:03Z</time>
      </trkpt>
      <trkpt lat="47.79443" lon="-3.69152">
        <ele>16.4</ele>
        <time>2023-01-27T13:54:04Z</time>
      </trkpt>
      <trkpt lat="47.79443" lon="-3.69154">
        <ele>16.5</ele>
        <time>2023-01-27T13:54:05Z</time>
      </trkpt>
      <trkpt lat="47.79444" lon="-3.69158">
        <ele>16.6</ele>
        <time>2023-01-27T13:54:06Z</time>
      </trkpt>
      <trkpt lat="47.79445" lon="-3.69163">
        <ele>16.8</ele>
        <time>2023-01-27T13:54:07Z</time>
      </trkpt>
      <trkpt lat="47.79446" lon="-3.69167">
        <ele>17</ele>
        <time>2023-01-27T13:54:08Z</time>
      </trkpt>
      <trkpt lat="47.79447" lon="-3.69169">
        <ele>17.1</ele>
        <time>2023-01-27T13:54:09Z</time>
      </trkpt>
      <trkpt lat="47.7945" lon="-3.69174">
        <ele>17.4</ele>
        <time>2023-01-27T13:54:11Z</time>
      </trkpt>
      <trkpt lat="47.7945" lon="-3.69177">
        <ele>17.5</ele>
        <time>2023-01-27T13:54:12Z</time>
      </trkpt>
      <trkpt lat="47.7945" lon="-3.6918">
        <ele>17.7</ele>
        <time>2023-01-27T13:54:13Z</time>
      </trkpt>
      <trkpt lat="47.79449" lon="-3.69186">
        <ele>18</ele>
        <time>2023-01-27T13:54:15Z</time>
      </trkpt>
      <trkpt lat="47.79447" lon="-3.69191">
        <ele>18.3</ele>
        <time>2023-01-27T13:54:16Z</time>
      </trkpt>
      <trkpt lat="47.79446" lon="-3.69193">
        <ele>18.5</ele>
        <time>2023-01-27T13:54:17Z</time>
      </trkpt>
      <trkpt lat="47.79444" lon="-3.69196">
        <ele>18.7</ele>
        <time>2023-01-27T13:54:19Z</time>
      </trkpt>
      <trkpt lat="47.79443" lon="-3.69197">
        <ele>18.8</ele>
        <time>2023-01-27T13:54:20Z</time>
      </trkpt>
      <trkpt lat="47.7944" lon="-3.692">
        <ele>19</ele>
        <time>2023-01-27T13:54:21Z</time>
      </trkpt>
      <trkpt lat="47.79439" lon="-3.69201">
        <ele>19.1</ele>
        <time>2023-01-27T13:54:22Z</time>
      </trkpt>
      <trkpt lat="47.79436" lon="-3.69206">
        <ele>19.3</ele>
        <time>2023-01-27T13:54:23Z</time>
      </trkpt>
      <trkpt lat="47.79434" lon="-3.6921">
        <ele>19.5</ele>
        <time>2023-01-27T13:54:24Z</time>
      </trkpt>
      <trkpt lat="47.79433" lon="-3.69211">
        <ele>19.6</ele>
        <time>2023-01-27T13:54:25Z</time>
      </trkpt>
      <trkpt lat="47.79431" lon="-3.69216">
        <ele>19.8</ele>
        <time>2023-01-27T13:54:26Z</time>
      </trkpt>
      <trkpt lat="47.79429" lon="-3.6922">
        <ele>20</ele>
        <time>2023-01-27T13:54:28Z</time>
      </trkpt>
      <trkpt lat="47.79427" lon="-3.69224">
        <ele>20.2</ele>
        <time>2023-01-27T13:54:29Z</time>
      </trkpt>
      <trkpt lat="47.79426" lon="-3.69227">
        <ele>20.4</ele>
        <time>2023-01-27T13:54:30Z</time>
      </trkpt>
      <trkpt lat="47.79424" lon="-3.69235">
        <ele>20.9</ele>
        <time>2023-01-27T13:54:32Z</time>
      </trkpt>
      <trkpt lat="47.79423" lon="-3.6924">
        <ele>21.1</ele>
        <time>2023-01-27T13:54:33Z</time>
      </trkpt>
      <trkpt lat="47.79423" lon="-3.69242">
        <ele>21.2</ele>
        <time>2023-01-27T13:54:34Z</time>
      </trkpt>
      <trkpt lat="47.79423" lon="-3.69246">
        <ele>21.4</ele>
        <time>2023-01-27T13:54:35Z</time>
      </trkpt>
      <trkpt lat="47.79424" lon="-3.69252">
        <ele>21.7</ele>
        <time>2023-01-27T13:54:37Z</time>
      </trkpt>
      <trkpt lat="47.79425" lon="-3.69256">
        <ele>21.8</ele>
        <time>2023-01-27T13:54:39Z</time>
      </trkpt>
      <trkpt lat="47.79424" lon="-3.69262">
        <ele>22</ele>
        <time>2023-01-27T13:54:40Z</time>
      </trkpt>
      <trkpt lat="47.79423" lon="-3.69264">
        <ele>22.1</ele>
        <time>2023-01-27T13:54:41Z</time>
      </trkpt>
      <trkpt lat="47.79422" lon="-3.69267">
        <ele>22.2</ele>
        <time>2023-01-27T13:54:42Z</time>
      </trkpt>
      <trkpt lat="47.79421" lon="-3.69272">
        <ele>22.2</ele>
        <time>2023-01-27T13:54:43Z</time>
      </trkpt>
      <trkpt lat="47.79419" lon="-3.69281">
        <ele>22.3</ele>
        <time>2023-01-27T13:54:44Z</time>
      </trkpt>
      <trkpt lat="47.7942" lon="-3.69286">
        <ele>22.4</ele>
        <time>2023-01-27T13:54:46Z</time>
      </trkpt>
      <trkpt lat="47.79421" lon="-3.6929">
        <ele>22.5</ele>
        <time>2023-01-27T13:54:47Z</time>
      </trkpt>
      <trkpt lat="47.79422" lon="-3.69294">
        <ele>22.5</ele>
        <time>2023-01-27T13:54:48Z</time>
      </trkpt>
      <trkpt lat="47.79423" lon="-3.69302">
        <ele>22.7</ele>
        <time>2023-01-27T13:54:49Z</time>
      </trkpt>
      <trkpt lat="47.79423" lon="-3.69309">
        <ele>22.8</ele>
        <time>2023-01-27T13:54:51Z</time>
      </trkpt>
      <trkpt lat="47.79423" lon="-3.69312">
        <ele>22.9</ele>
        <time>2023-01-27T13:54:52Z</time>
      </trkpt>
      <trkpt lat="47.79422" lon="-3.69316">
        <ele>23</ele>
        <time>2023-01-27T13:54:54Z</time>
      </trkpt>
      <trkpt lat="47.79421" lon="-3.69321">
        <ele>23.1</ele>
        <time>2023-01-27T13:54:55Z</time>
      </trkpt>
      <trkpt lat="47.7942" lon="-3.69322">
        <ele>23.1</ele>
        <time>2023-01-27T13:54:56Z</time>
      </trkpt>
      <trkpt lat="47.7942" lon="-3.69328">
        <ele>23.2</ele>
        <time>2023-01-27T13:54:57Z</time>
      </trkpt>
      <trkpt lat="47.79419" lon="-3.6933">
        <ele>23.3</ele>
        <time>2023-01-27T13:54:58Z</time>
      </trkpt>
      <trkpt lat="47.79419" lon="-3.69335">
        <ele>23.4</ele>
        <time>2023-01-27T13:54:59Z</time>
      </trkpt>
      <trkpt lat="47.79418" lon="-3.69337">
        <ele>23.5</ele>
        <time>2023-01-27T13:55:00Z</time>
      </trkpt>
      <trkpt lat="47.79418" lon="-3.69341">
        <ele>23.6</ele>
        <time>2023-01-27T13:55:01Z</time>
      </trkpt>
      <trkpt lat="47.79418" lon="-3.69345">
        <ele>23.7</ele>
        <time>2023-01-27T13:55:02Z</time>
      </trkpt>
      <trkpt lat="47.79418" lon="-3.69351">
        <ele>23.9</ele>
        <time>2023-01-27T13:55:03Z</time>
      </trkpt>
      <trkpt lat="47.79419" lon="-3.69353">
        <ele>23.9</ele>
        <time>2023-01-27T13:55:04Z</time>
      </trkpt>
      <trkpt lat="47.79418" lon="-3.69358">
        <ele>24.1</ele>
        <time>2023-01-27T13:55:05Z</time>
      </trkpt>
      <trkpt lat="47.79418" lon="-3.69359">
        <ele>24.1</ele>
        <time>2023-01-27T13:55:06Z</time>
      </trkpt>
      <trkpt lat="47.79418" lon="-3.69364">
        <ele>24.3</ele>
        <time>2023-01-27T13:55:07Z</time>
      </trkpt>
      <trkpt lat="47.79418" lon="-3.69366">
        <ele>24.3</ele>
        <time>2023-01-27T13:55:08Z</time>
      </trkpt>
      <trkpt lat="47.79419" lon="-3.69371">
        <ele>24.5</ele>
        <time>2023-01-27T13:55:09Z</time>
      </trkpt>
      <trkpt lat="47.79419" lon="-3.69373">
        <ele>24.5</ele>
        <time>2023-01-27T13:55:10Z</time>
      </trkpt>
      <trkpt lat="47.79419" lon="-3.69378">
        <ele>24.7</ele>
        <time>2023-01-27T13:55:11Z</time>
      </trkpt>
      <trkpt lat="47.79419" lon="-3.6938">
        <ele>24.7</ele>
        <time>2023-01-27T13:55:12Z</time>
      </trkpt>
      <trkpt lat="47.79419" lon="-3.69385">
        <ele>24.8</ele>
        <time>2023-01-27T13:55:13Z</time>
      </trkpt>
      <trkpt lat="47.79419" lon="-3.69387">
        <ele>24.9</ele>
        <time>2023-01-27T13:55:14Z</time>
      </trkpt>
      <trkpt lat="47.79418" lon="-3.69391">
        <ele>25</ele>
        <time>2023-01-27T13:55:15Z</time>
      </trkpt>
      <trkpt lat="47.79418" lon="-3.69393">
        <ele>25</ele>
        <time>2023-01-27T13:55:16Z</time>
      </trkpt>
      <trkpt lat="47.7942" lon="-3.69397">
        <ele>25.2</ele>
        <time>2023-01-27T13:55:17Z</time>
      </trkpt>
      <trkpt lat="47.7942" lon="-3.69398">
        <ele>25.2</ele>
        <time>2023-01-27T13:55:18Z</time>
      </trkpt>
      <trkpt lat="47.7942" lon="-3.69402">
        <ele>25.3</ele>
        <time>2023-01-27T13:55:19Z</time>
      </trkpt>
      <trkpt lat="47.7942" lon="-3.69404">
        <ele>25.3</ele>
        <time>2023-01-27T13:55:20Z</time>
      </trkpt>
      <trkpt lat="47.79421" lon="-3.69409">
        <ele>25.4</ele>
        <time>2023-01-27T13:55:21Z</time>
      </trkpt>
      <trkpt lat="47.79421" lon="-3.69411">
        <ele>25.5</ele>
        <time>2023-01-27T13:55:22Z</time>
      </trkpt>
      <trkpt lat="47.79422" lon="-3.69413">
        <ele>25.5</ele>
        <time>2023-01-27T13:55:23Z</time>
      </trkpt>
      <trkpt lat="47.79423" lon="-3.69415">
        <ele>25.5</ele>
        <time>2023-01-27T13:55:24Z</time>
      </trkpt>
      <trkpt lat="47.79424" lon="-3.69414">
        <ele>25.6</ele>
        <time>2023-01-27T13:55:25Z</time>
      </trkpt>
      <trkpt lat="47.79425" lon="-3.69413">
        <ele>25.6</ele>
        <time>2023-01-27T13:55:26Z</time>
      </trkpt>
      <trkpt lat="47.79425" lon="-3.69413">
        <ele>25.6</ele>
        <time>2023-01-27T13:55:27Z</time>
      </trkpt>
      <trkpt lat="47.79425" lon="-3.69414">
        <ele>25.6</ele>
        <time>2023-01-27T13:55:28Z</time>
      </trkpt>
      <trkpt lat="47.79426" lon="-3.69415">
        <ele>25.7</ele>
        <time>2023-01-27T13:55:29Z</time>
      </trkpt>
      <trkpt lat="47.79426" lon="-3.69417">
        <ele>25.7</ele>
        <time>2023-01-27T13:55:30Z</time>
      </trkpt>
      <trkpt lat="47.79426" lon="-3.69418">
        <ele>25.7</ele>
        <time>2023-01-27T13:55:31Z</time>
      </trkpt>
      <trkpt lat="47.79426" lon="-3.69419">
        <ele>25.7</ele>
        <time>2023-01-27T13:55:32Z</time>
      </trkpt>
      <trkpt lat="47.79426" lon="-3.6942">
        <ele>25.7</ele>
        <time>2023-01-27T13:55:33Z</time>
      </trkpt>
      <trkpt lat="47.79426" lon="-3.69421">
        <ele>25.8</ele>
        <time>2023-01-27T13:55:34Z</time>
      </trkpt>
      <trkpt lat="47.79426" lon="-3.69422">
        <ele>25.8</ele>
        <time>2023-01-27T13:55:45Z</time>
      </trkpt>
      <trkpt lat="47.79426" lon="-3.69424">
        <ele>25.8</ele>
        <time>2023-01-27T13:55:46Z</time>
      </trkpt>
      <trkpt lat="47.79426" lon="-3.69425">
        <ele>25.8</ele>
        <time>2023-01-27T13:55:47Z</time>
      </trkpt>
      <trkpt lat="47.79427" lon="-3.69429">
        <ele>25.9</ele>
        <time>2023-01-27T13:55:48Z</time>
      </trkpt>
      <trkpt lat="47.79427" lon="-3.69431">
        <ele>25.9</ele>
        <time>2023-01-27T13:55:49Z</time>
      </trkpt>
      <trkpt lat="47.79427" lon="-3.69435">
        <ele>25.9</ele>
        <time>2023-01-27T13:55:50Z</time>
      </trkpt>
      <trkpt lat="47.79428" lon="-3.6944">
        <ele>26</ele>
        <time>2023-01-27T13:55:52Z</time>
      </trkpt>
      <trkpt lat="47.79428" lon="-3.69445">
        <ele>26</ele>
        <time>2023-01-27T13:55:53Z</time>
      </trkpt>
      <trkpt lat="47.79428" lon="-3.6945">
        <ele>26</ele>
        <time>2023-01-27T13:55:54Z</time>
      </trkpt>
      <trkpt lat="47.79428" lon="-3.69455">
        <ele>26</ele>
        <time>2023-01-27T13:55:55Z</time>
      </trkpt>
      <trkpt lat="47.79427" lon="-3.69461">
        <ele>26</ele>
        <time>2023-01-27T13:55:56Z</time>
      </trkpt>
      <trkpt lat="47.79427" lon="-3.69466">
        <ele>25.9</ele>
        <time>2023-01-27T13:55:57Z</time>
      </trkpt>
      <trkpt lat="47.79426" lon="-3.69471">
        <ele>25.9</ele>
        <time>2023-01-27T13:55:58Z</time>
      </trkpt>
      <trkpt lat="47.79425" lon="-3.69476">
        <ele>25.8</ele>
        <time>2023-01-27T13:55:59Z</time>
      </trkpt>
      <trkpt lat="47.79425" lon="-3.69482">
        <ele>25.7</ele>
        <time>2023-01-27T13:56:00Z</time>
      </trkpt>
      <trkpt lat="47.79424" lon="-3.69487">
        <ele>25.6</ele>
        <time>2023-01-27T13:56:01Z</time>
      </trkpt>
      <trkpt lat="47.79422" lon="-3.69492">
        <ele>25.5</ele>
        <time>2023-01-27T13:56:02Z</time>
      </trkpt>
      <trkpt lat="47.79422" lon="-3.695">
        <ele>25.3</ele>
        <time>2023-01-27T13:56:03Z</time>
      </trkpt>
      <trkpt lat="47.79423" lon="-3.69507">
        <ele>25.1</ele>
        <time>2023-01-27T13:56:04Z</time>
      </trkpt>
      <trkpt lat="47.79424" lon="-3.69513">
        <ele>24.9</ele>
        <time>2023-01-27T13:56:05Z</time>
      </trkpt>
      <trkpt lat="47.79423" lon="-3.69523">
        <ele>24.5</ele>
        <time>2023-01-27T13:56:07Z</time>
      </trkpt>
      <trkpt lat="47.79422" lon="-3.69531">
        <ele>24.2</ele>
        <time>2023-01-27T13:56:08Z</time>
      </trkpt>
      <trkpt lat="47.79421" lon="-3.6954">
        <ele>23.9</ele>
        <time>2023-01-27T13:56:09Z</time>
      </trkpt>
      <trkpt lat="47.7942" lon="-3.69547">
        <ele>23.7</ele>
        <time>2023-01-27T13:56:10Z</time>
      </trkpt>
      <trkpt lat="47.79419" lon="-3.69551">
        <ele>23.5</ele>
        <time>2023-01-27T13:56:11Z</time>
      </trkpt>
      <trkpt lat="47.7942" lon="-3.69556">
        <ele>23.4</ele>
        <time>2023-01-27T13:56:12Z</time>
      </trkpt>
      <trkpt lat="47.7942" lon="-3.6956">
        <ele>23.3</ele>
        <time>2023-01-27T13:56:13Z</time>
      </trkpt>
      <trkpt lat="47.79419" lon="-3.69564">
        <ele>23.2</ele>
        <time>2023-01-27T13:56:14Z</time>
      </trkpt>
      <trkpt lat="47.7942" lon="-3.69569">
        <ele>23</ele>
        <time>2023-01-27T13:56:15Z</time>
      </trkpt>
      <trkpt lat="47.7942" lon="-3.69571">
        <ele>23</ele>
        <time>2023-01-27T13:56:16Z</time>
      </trkpt>
      <trkpt lat="47.7942" lon="-3.69576">
        <ele>22.9</ele>
        <time>2023-01-27T13:56:17Z</time>
      </trkpt>
      <trkpt lat="47.7942" lon="-3.69577">
        <ele>22.8</ele>
        <time>2023-01-27T13:56:18Z</time>
      </trkpt>
      <trkpt lat="47.79419" lon="-3.69582">
        <ele>22.8</ele>
        <time>2023-01-27T13:56:19Z</time>
      </trkpt>
      <trkpt lat="47.79419" lon="-3.69583">
        <ele>22.7</ele>
        <time>2023-01-27T13:56:20Z</time>
      </trkpt>
      <trkpt lat="47.79419" lon="-3.69586">
        <ele>22.7</ele>
        <time>2023-01-27T13:56:21Z</time>
      </trkpt>
      <trkpt lat="47.7942" lon="-3.69589">
        <ele>22.6</ele>
        <time>2023-01-27T13:56:23Z</time>
      </trkpt>
      <trkpt lat="47.79419" lon="-3.6959">
        <ele>22.6</ele>
        <time>2023-01-27T13:56:24Z</time>
      </trkpt>
      <trkpt lat="47.79419" lon="-3.6959">
        <ele>22.6</ele>
        <time>2023-01-27T13:56:25Z</time>
      </trkpt>
      <trkpt lat="47.79419" lon="-3.6959">
        <ele>22.6</ele>
        <time>2023-01-27T13:56:26Z</time>
      </trkpt>
      <trkpt lat="47.79419" lon="-3.6959">
        <ele>22.6</ele>
        <time>2023-01-27T13:56:27Z</time>
      </trkpt>
      <trkpt lat="47.79419" lon="-3.6959">
        <ele>22.6</ele>
        <time>2023-01-27T13:56:28Z</time>
      </trkpt>
      <trkpt lat="47.79419" lon="-3.6959">
        <ele>22.6</ele>
        <time>2023-01-27T13:56:29Z</time>
      </trkpt>
      <trkpt lat="47.79419" lon="-3.69591">
        <ele>22.6</ele>
        <time>2023-01-27T13:56:30Z</time>
      </trkpt>
      <trkpt lat="47.79418" lon="-3.69591">
        <ele>22.6</ele>
        <time>2023-01-27T13:56:32Z</time>
      </trkpt>
      <trkpt lat="47.79418" lon="-3.69591">
        <ele>22.6</ele>
        <time>2023-01-27T13:56:33Z</time>
      </trkpt>
      <trkpt lat="47.79417" lon="-3.69596">
        <ele>22.5</ele>
        <time>2023-01-27T13:56:57Z</time>
      </trkpt>
      <trkpt lat="47.79417" lon="-3.696">
        <ele>22.5</ele>
        <time>2023-01-27T13:56:58Z</time>
      </trkpt>
      <trkpt lat="47.79417" lon="-3.69601">
        <ele>22.5</ele>
        <time>2023-01-27T13:56:59Z</time>
      </trkpt>
      <trkpt lat="47.79417" lon="-3.69603">
        <ele>22.5</ele>
        <time>2023-01-27T13:57:00Z</time>
      </trkpt>
      <trkpt lat="47.79417" lon="-3.69605">
        <ele>22.5</ele>
        <time>2023-01-27T13:57:01Z</time>
      </trkpt>
      <trkpt lat="47.79417" lon="-3.69606">
        <ele>22.5</ele>
        <time>2023-01-27T13:57:02Z</time>
      </trkpt>
      <trkpt lat="47.79417" lon="-3.69608">
        <ele>22.5</ele>
        <time>2023-01-27T13:57:03Z</time>
      </trkpt>
      <trkpt lat="47.79417" lon="-3.69609">
        <ele>22.6</ele>
        <time>2023-01-27T13:57:05Z</time>
      </trkpt>
      <trkpt lat="47.79417" lon="-3.69611">
        <ele>22.6</ele>
        <time>2023-01-27T13:57:06Z</time>
      </trkpt>
      <trkpt lat="47.79417" lon="-3.69612">
        <ele>22.6</ele>
        <time>2023-01-27T13:57:07Z</time>
      </trkpt>
      <trkpt lat="47.79417" lon="-3.69614">
        <ele>22.6</ele>
        <time>2023-01-27T13:57:09Z</time>
      </trkpt>
      <trkpt lat="47.79418" lon="-3.69617">
        <ele>22.6</ele>
        <time>2023-01-27T13:57:10Z</time>
      </trkpt>
      <trkpt lat="47.79418" lon="-3.69622">
        <ele>22.7</ele>
        <time>2023-01-27T13:57:11Z</time>
      </trkpt>
      <trkpt lat="47.79419" lon="-3.69625">
        <ele>22.8</ele>
        <time>2023-01-27T13:57:12Z</time>
      </trkpt>
      <trkpt lat="47.79419" lon="-3.69631">
        <ele>23</ele>
        <time>2023-01-27T13:57:14Z</time>
      </trkpt>
      <trkpt lat="47.79419" lon="-3.69636">
        <ele>23.2</ele>
        <time>2023-01-27T13:57:16Z</time>
      </trkpt>
      <trkpt lat="47.79419" lon="-3.69638">
        <ele>23.2</ele>
        <time>2023-01-27T13:57:17Z</time>
      </trkpt>
      <trkpt lat="47.79419" lon="-3.69641">
        <ele>23.3</ele>
        <time>2023-01-27T13:57:18Z</time>
      </trkpt>
      <trkpt lat="47.79419" lon="-3.69645">
        <ele>23.5</ele>
        <time>2023-01-27T13:57:19Z</time>
      </trkpt>
      <trkpt lat="47.79419" lon="-3.69646">
        <ele>23.5</ele>
        <time>2023-01-27T13:57:20Z</time>
      </trkpt>
      <trkpt lat="47.79419" lon="-3.6965">
        <ele>23.7</ele>
        <time>2023-01-27T13:57:21Z</time>
      </trkpt>
      <trkpt lat="47.79419" lon="-3.69655">
        <ele>23.9</ele>
        <time>2023-01-27T13:57:22Z</time>
      </trkpt>
      <trkpt lat="47.79419" lon="-3.69656">
        <ele>24</ele>
        <time>2023-01-27T13:57:23Z</time>
      </trkpt>
      <trkpt lat="47.79419" lon="-3.69662">
        <ele>24.3</ele>
        <time>2023-01-27T13:57:24Z</time>
      </trkpt>
      <trkpt lat="47.79419" lon="-3.69665">
        <ele>24.4</ele>
        <time>2023-01-27T13:57:25Z</time>
      </trkpt>
      <trkpt lat="47.79419" lon="-3.69669">
        <ele>24.6</ele>
        <time>2023-01-27T13:57:26Z</time>
      </trkpt>
      <trkpt lat="47.79419" lon="-3.69674">
        <ele>24.8</ele>
        <time>2023-01-27T13:57:28Z</time>
      </trkpt>
      <trkpt lat="47.79419" lon="-3.69676">
        <ele>24.9</ele>
        <time>2023-01-27T13:57:29Z</time>
      </trkpt>
      <trkpt lat="47.79419" lon="-3.69681">
        <ele>25.1</ele>
        <time>2023-01-27T13:57:30Z</time>
      </trkpt>
      <trkpt lat="47.79419" lon="-3.69682">
        <ele>25.2</ele>
        <time>2023-01-27T13:57:31Z</time>
      </trkpt>
      <trkpt lat="47.79417" lon="-3.69686">
        <ele>25.4</ele>
        <time>2023-01-27T13:57:32Z</time>
      </trkpt>
      <trkpt lat="47.79416" lon="-3.69691">
        <ele>25.6</ele>
        <time>2023-01-27T13:57:33Z</time>
      </trkpt>
      <trkpt lat="47.79417" lon="-3.69699">
        <ele>25.8</ele>
        <time>2023-01-27T13:57:34Z</time>
      </trkpt>
      <trkpt lat="47.79418" lon="-3.69702">
        <ele>26</ele>
        <time>2023-01-27T13:57:36Z</time>
      </trkpt>
      <trkpt lat="47.79419" lon="-3.69704">
        <ele>26</ele>
        <time>2023-01-27T13:57:37Z</time>
      </trkpt>
      <trkpt lat="47.7942" lon="-3.69706">
        <ele>26.1</ele>
        <time>2023-01-27T13:57:38Z</time>
      </trkpt>
      <trkpt lat="47.79421" lon="-3.69708">
        <ele>26.2</ele>
        <time>2023-01-27T13:57:39Z</time>
      </trkpt>
      <trkpt lat="47.79422" lon="-3.6971">
        <ele>26.5</ele>
        <time>2023-01-27T13:57:40Z</time>
      </trkpt>
      <trkpt lat="47.79425" lon="-3.69711">
        <ele>26.5</ele>
        <time>2023-01-27T13:57:41Z</time>
      </trkpt>
      <trkpt lat="47.79428" lon="-3.6971">
        <ele>26.5</ele>
        <time>2023-01-27T13:57:42Z</time>
      </trkpt>
      <trkpt lat="47.79431" lon="-3.69709">
        <ele>26.6</ele>
        <time>2023-01-27T13:57:43Z</time>
      </trkpt>
      <trkpt lat="47.79433" lon="-3.69708">
        <ele>26.6</ele>
        <time>2023-01-27T13:57:44Z</time>
      </trkpt>
      <trkpt lat="47.79437" lon="-3.69706">
        <ele>26.7</ele>
        <time>2023-01-27T13:57:45Z</time>
      </trkpt>
      <trkpt lat="47.7944" lon="-3.69705">
        <ele>26.7</ele>
        <time>2023-01-27T13:57:46Z</time>
      </trkpt>
      <trkpt lat="47.79443" lon="-3.69704">
        <ele>26.8</ele>
        <time>2023-01-27T13:57:47Z</time>
      </trkpt>
      <trkpt lat="47.79446" lon="-3.69704">
        <ele>26.8</ele>
        <time>2023-01-27T13:57:48Z</time>
      </trkpt>
      <trkpt lat="47.7945" lon="-3.69703">
        <ele>26.9</ele>
        <time>2023-01-27T13:57:49Z</time>
      </trkpt>
      <trkpt lat="47.79453" lon="-3.69702">
        <ele>26.9</ele>
        <time>2023-01-27T13:57:50Z</time>
      </trkpt>
      <trkpt lat="47.79456" lon="-3.69701">
        <ele>27</ele>
        <time>2023-01-27T13:57:51Z</time>
      </trkpt>
      <trkpt lat="47.7946" lon="-3.697">
        <ele>27.1</ele>
        <time>2023-01-27T13:57:52Z</time>
      </trkpt>
      <trkpt lat="47.79467" lon="-3.69698">
        <ele>27.2</ele>
        <time>2023-01-27T13:57:53Z</time>
      </trkpt>
      <trkpt lat="47.79471" lon="-3.69698">
        <ele>27.3</ele>
        <time>2023-01-27T13:57:55Z</time>
      </trkpt>
      <trkpt lat="47.79476" lon="-3.69696">
        <ele>27.4</ele>
        <time>2023-01-27T13:57:56Z</time>
      </trkpt>
      <trkpt lat="47.79479" lon="-3.69695">
        <ele>27.5</ele>
        <time>2023-01-27T13:57:57Z</time>
      </trkpt>
      <trkpt lat="47.79483" lon="-3.69694">
        <ele>27.6</ele>
        <time>2023-01-27T13:57:58Z</time>
      </trkpt>
      <trkpt lat="47.79486" lon="-3.69694">
        <ele>27.7</ele>
        <time>2023-01-27T13:57:59Z</time>
      </trkpt>
      <trkpt lat="47.79488" lon="-3.69695">
        <ele>27.8</ele>
        <time>2023-01-27T13:58:00Z</time>
      </trkpt>
      <trkpt lat="47.79489" lon="-3.69694">
        <ele>27.8</ele>
        <time>2023-01-27T13:58:01Z</time>
      </trkpt>
      <trkpt lat="47.79492" lon="-3.69694">
        <ele>27.9</ele>
        <time>2023-01-27T13:58:02Z</time>
      </trkpt>
      <trkpt lat="47.79495" lon="-3.69694">
        <ele>28</ele>
        <time>2023-01-27T13:58:03Z</time>
      </trkpt>
      <trkpt lat="47.79496" lon="-3.69694">
        <ele>28</ele>
        <time>2023-01-27T13:58:04Z</time>
      </trkpt>
      <trkpt lat="47.795" lon="-3.69695">
        <ele>28</ele>
        <time>2023-01-27T13:58:06Z</time>
      </trkpt>
      <trkpt lat="47.79502" lon="-3.69696">
        <ele>28.1</ele>
        <time>2023-01-27T13:58:07Z</time>
      </trkpt>
      <trkpt lat="47.79503" lon="-3.69697">
        <ele>28.1</ele>
        <time>2023-01-27T13:58:08Z</time>
      </trkpt>
      <trkpt lat="47.79506" lon="-3.69698">
        <ele>28.2</ele>
        <time>2023-01-27T13:58:09Z</time>
      </trkpt>
      <trkpt lat="47.79512" lon="-3.69699">
        <ele>28.5</ele>
        <time>2023-01-27T13:58:10Z</time>
      </trkpt>
      <trkpt lat="47.79515" lon="-3.69699">
        <ele>28.7</ele>
        <time>2023-01-27T13:58:12Z</time>
      </trkpt>
      <trkpt lat="47.79518" lon="-3.69698">
        <ele>28.9</ele>
        <time>2023-01-27T13:58:14Z</time>
      </trkpt>
      <trkpt lat="47.79523" lon="-3.69698">
        <ele>29.3</ele>
        <time>2023-01-27T13:58:16Z</time>
      </trkpt>
      <trkpt lat="47.79526" lon="-3.69698">
        <ele>29.6</ele>
        <time>2023-01-27T13:58:18Z</time>
      </trkpt>
      <trkpt lat="47.79529" lon="-3.69699">
        <ele>29.8</ele>
        <time>2023-01-27T13:58:19Z</time>
      </trkpt>
      <trkpt lat="47.79533" lon="-3.69699">
        <ele>30.1</ele>
        <time>2023-01-27T13:58:20Z</time>
      </trkpt>
      <trkpt lat="47.79534" lon="-3.69698">
        <ele>30.2</ele>
        <time>2023-01-27T13:58:21Z</time>
      </trkpt>
      <trkpt lat="47.79537" lon="-3.69699">
        <ele>30.5</ele>
        <time>2023-01-27T13:58:22Z</time>
      </trkpt>
      <trkpt lat="47.7954" lon="-3.69698">
        <ele>30.8</ele>
        <time>2023-01-27T13:58:23Z</time>
      </trkpt>
      <trkpt lat="47.79541" lon="-3.69699">
        <ele>30.9</ele>
        <time>2023-01-27T13:58:24Z</time>
      </trkpt>
      <trkpt lat="47.79544" lon="-3.69698">
        <ele>31.1</ele>
        <time>2023-01-27T13:58:25Z</time>
      </trkpt>
      <trkpt lat="47.79545" lon="-3.69698">
        <ele>31.2</ele>
        <time>2023-01-27T13:58:26Z</time>
      </trkpt>
      <trkpt lat="47.79548" lon="-3.69696">
        <ele>31.5</ele>
        <time>2023-01-27T13:58:27Z</time>
      </trkpt>
      <trkpt lat="47.79549" lon="-3.69695">
        <ele>31.6</ele>
        <time>2023-01-27T13:58:28Z</time>
      </trkpt>
      <trkpt lat="47.79552" lon="-3.69694">
        <ele>31.8</ele>
        <time>2023-01-27T13:58:29Z</time>
      </trkpt>
      <trkpt lat="47.79553" lon="-3.69694">
        <ele>31.9</ele>
        <time>2023-01-27T13:58:30Z</time>
      </trkpt>
      <trkpt lat="47.79556" lon="-3.69693">
        <ele>32</ele>
        <time>2023-01-27T13:58:31Z</time>
      </trkpt>
      <trkpt lat="47.7956" lon="-3.69691">
        <ele>32.2</ele>
        <time>2023-01-27T13:58:32Z</time>
      </trkpt>
      <trkpt lat="47.79561" lon="-3.6969">
        <ele>32.3</ele>
        <time>2023-01-27T13:58:33Z</time>
      </trkpt>
      <trkpt lat="47.79562" lon="-3.69687">
        <ele>32.4</ele>
        <time>2023-01-27T13:58:34Z</time>
      </trkpt>
      <trkpt lat="47.79562" lon="-3.69684">
        <ele>32.4</ele>
        <time>2023-01-27T13:58:35Z</time>
      </trkpt>
      <trkpt lat="47.79562" lon="-3.69681">
        <ele>32.5</ele>
        <time>2023-01-27T13:58:36Z</time>
      </trkpt>
      <trkpt lat="47.79561" lon="-3.69676">
        <ele>32.6</ele>
        <time>2023-01-27T13:58:37Z</time>
      </trkpt>
      <trkpt lat="47.79561" lon="-3.69674">
        <ele>32.6</ele>
        <time>2023-01-27T13:58:38Z</time>
      </trkpt>
      <trkpt lat="47.79561" lon="-3.6967">
        <ele>32.6</ele>
        <time>2023-01-27T13:58:39Z</time>
      </trkpt>
      <trkpt lat="47.79562" lon="-3.69665">
        <ele>32.6</ele>
        <time>2023-01-27T13:58:40Z</time>
      </trkpt>
      <trkpt lat="47.79562" lon="-3.69664">
        <ele>32.6</ele>
        <time>2023-01-27T13:58:41Z</time>
      </trkpt>
      <trkpt lat="47.79563" lon="-3.69658">
        <ele>32.6</ele>
        <time>2023-01-27T13:58:42Z</time>
      </trkpt>
      <trkpt lat="47.79563" lon="-3.69657">
        <ele>32.5</ele>
        <time>2023-01-27T13:58:43Z</time>
      </trkpt>
      <trkpt lat="47.79564" lon="-3.69653">
        <ele>32.5</ele>
        <time>2023-01-27T13:58:44Z</time>
      </trkpt>
      <trkpt lat="47.79565" lon="-3.69648">
        <ele>32.5</ele>
        <time>2023-01-27T13:58:45Z</time>
      </trkpt>
      <trkpt lat="47.79565" lon="-3.69643">
        <ele>32.5</ele>
        <time>2023-01-27T13:58:46Z</time>
      </trkpt>
      <trkpt lat="47.79564" lon="-3.69639">
        <ele>32.4</ele>
        <time>2023-01-27T13:58:47Z</time>
      </trkpt>
      <trkpt lat="47.79564" lon="-3.69635">
        <ele>32.3</ele>
        <time>2023-01-27T13:58:48Z</time>
      </trkpt>
      <trkpt lat="47.79564" lon="-3.6963">
        <ele>32.1</ele>
        <time>2023-01-27T13:58:49Z</time>
      </trkpt>
      <trkpt lat="47.79564" lon="-3.69628">
        <ele>32.1</ele>
        <time>2023-01-27T13:58:50Z</time>
      </trkpt>
      <trkpt lat="47.79564" lon="-3.69623">
        <ele>32</ele>
        <time>2023-01-27T13:58:51Z</time>
      </trkpt>
      <trkpt lat="47.79564" lon="-3.69618">
        <ele>31.9</ele>
        <time>2023-01-27T13:58:52Z</time>
      </trkpt>
      <trkpt lat="47.79564" lon="-3.69614">
        <ele>31.8</ele>
        <time>2023-01-27T13:58:53Z</time>
      </trkpt>
      <trkpt lat="47.79564" lon="-3.69609">
        <ele>31.7</ele>
        <time>2023-01-27T13:58:54Z</time>
      </trkpt>
      <trkpt lat="47.79563" lon="-3.69607">
        <ele>31.6</ele>
        <time>2023-01-27T13:58:55Z</time>
      </trkpt>
      <trkpt lat="47.79563" lon="-3.69601">
        <ele>31.5</ele>
        <time>2023-01-27T13:58:56Z</time>
      </trkpt>
      <trkpt lat="47.79563" lon="-3.696">
        <ele>31.5</ele>
        <time>2023-01-27T13:58:57Z</time>
      </trkpt>
      <trkpt lat="47.79565" lon="-3.69596">
        <ele>31.4</ele>
        <time>2023-01-27T13:58:58Z</time>
      </trkpt>
      <trkpt lat="47.79565" lon="-3.69591">
        <ele>31.3</ele>
        <time>2023-01-27T13:58:59Z</time>
      </trkpt>
      <trkpt lat="47.79565" lon="-3.69584">
        <ele>31.1</ele>
        <time>2023-01-27T13:59:00Z</time>
      </trkpt>
      <trkpt lat="47.79564" lon="-3.69579">
        <ele>31</ele>
        <time>2023-01-27T13:59:01Z</time>
      </trkpt>
      <trkpt lat="47.79564" lon="-3.69575">
        <ele>31</ele>
        <time>2023-01-27T13:59:02Z</time>
      </trkpt>
      <trkpt lat="47.79564" lon="-3.6957">
        <ele>30.9</ele>
        <time>2023-01-27T13:59:03Z</time>
      </trkpt>
      <trkpt lat="47.79564" lon="-3.69564">
        <ele>30.8</ele>
        <time>2023-01-27T13:59:04Z</time>
      </trkpt>
      <trkpt lat="47.79564" lon="-3.6956">
        <ele>30.8</ele>
        <time>2023-01-27T13:59:05Z</time>
      </trkpt>
      <trkpt lat="47.79564" lon="-3.69551">
        <ele>30.8</ele>
        <time>2023-01-27T13:59:06Z</time>
      </trkpt>
      <trkpt lat="47.79565" lon="-3.69542">
        <ele>30.8</ele>
        <time>2023-01-27T13:59:08Z</time>
      </trkpt>
      <trkpt lat="47.79564" lon="-3.69534">
        <ele>30.8</ele>
        <time>2023-01-27T13:59:10Z</time>
      </trkpt>
      <trkpt lat="47.79564" lon="-3.69531">
        <ele>30.8</ele>
        <time>2023-01-27T13:59:11Z</time>
      </trkpt>
      <trkpt lat="47.79563" lon="-3.69529">
        <ele>30.8</ele>
        <time>2023-01-27T13:59:12Z</time>
      </trkpt>
      <trkpt lat="47.79563" lon="-3.69523">
        <ele>30.7</ele>
        <time>2023-01-27T13:59:13Z</time>
      </trkpt>
      <trkpt lat="47.79564" lon="-3.69517">
        <ele>30.7</ele>
        <time>2023-01-27T13:59:14Z</time>
      </trkpt>
      <trkpt lat="47.79565" lon="-3.69512">
        <ele>30.7</ele>
        <time>2023-01-27T13:59:15Z</time>
      </trkpt>
      <trkpt lat="47.79564" lon="-3.69506">
        <ele>30.7</ele>
        <time>2023-01-27T13:59:16Z</time>
      </trkpt>
      <trkpt lat="47.79563" lon="-3.69501">
        <ele>30.7</ele>
        <time>2023-01-27T13:59:17Z</time>
      </trkpt>
      <trkpt lat="47.79564" lon="-3.69496">
        <ele>30.7</ele>
        <time>2023-01-27T13:59:18Z</time>
      </trkpt>
      <trkpt lat="47.79564" lon="-3.69492">
        <ele>30.7</ele>
        <time>2023-01-27T13:59:19Z</time>
      </trkpt>
      <trkpt lat="47.79564" lon="-3.69487">
        <ele>30.7</ele>
        <time>2023-01-27T13:59:20Z</time>
      </trkpt>
      <trkpt lat="47.79564" lon="-3.69483">
        <ele>30.7</ele>
        <time>2023-01-27T13:59:21Z</time>
      </trkpt>
      <trkpt lat="47.79563" lon="-3.69477">
        <ele>30.7</ele>
        <time>2023-01-27T13:59:22Z</time>
      </trkpt>
      <trkpt lat="47.79564" lon="-3.69468">
        <ele>30.7</ele>
        <time>2023-01-27T13:59:24Z</time>
      </trkpt>
      <trkpt lat="47.79566" lon="-3.69456">
        <ele>30.7</ele>
        <time>2023-01-27T13:59:26Z</time>
      </trkpt>
      <trkpt lat="47.79568" lon="-3.69445">
        <ele>30.7</ele>
        <time>2023-01-27T13:59:28Z</time>
      </trkpt>
      <trkpt lat="47.79567" lon="-3.69436">
        <ele>30.7</ele>
        <time>2023-01-27T13:59:30Z</time>
      </trkpt>
      <trkpt lat="47.79568" lon="-3.69428">
        <ele>30.8</ele>
        <time>2023-01-27T13:59:31Z</time>
      </trkpt>
      <trkpt lat="47.79569" lon="-3.69417">
        <ele>30.7</ele>
        <time>2023-01-27T13:59:33Z</time>
      </trkpt>
      <trkpt lat="47.79569" lon="-3.69411">
        <ele>30.7</ele>
        <time>2023-01-27T13:59:34Z</time>
      </trkpt>
      <trkpt lat="47.79569" lon="-3.69403">
        <ele>30.7</ele>
        <time>2023-01-27T13:59:36Z</time>
      </trkpt>
      <trkpt lat="47.7957" lon="-3.69398">
        <ele>30.7</ele>
        <time>2023-01-27T13:59:37Z</time>
      </trkpt>
      <trkpt lat="47.7957" lon="-3.69386">
        <ele>30.6</ele>
        <time>2023-01-27T13:59:38Z</time>
      </trkpt>
      <trkpt lat="47.7957" lon="-3.69379">
        <ele>30.5</ele>
        <time>2023-01-27T13:59:40Z</time>
      </trkpt>
      <trkpt lat="47.7957" lon="-3.69373">
        <ele>30.4</ele>
        <time>2023-01-27T13:59:41Z</time>
      </trkpt>
      <trkpt lat="47.7957" lon="-3.69366">
        <ele>30.4</ele>
        <time>2023-01-27T13:59:42Z</time>
      </trkpt>
      <trkpt lat="47.79571" lon="-3.69361">
        <ele>30.3</ele>
        <time>2023-01-27T13:59:43Z</time>
      </trkpt>
      <trkpt lat="47.79572" lon="-3.69348">
        <ele>30.2</ele>
        <time>2023-01-27T13:59:44Z</time>
      </trkpt>
      <trkpt lat="47.79573" lon="-3.69341">
        <ele>30.1</ele>
        <time>2023-01-27T13:59:46Z</time>
      </trkpt>
      <trkpt lat="47.79573" lon="-3.69335">
        <ele>30</ele>
        <time>2023-01-27T13:59:47Z</time>
      </trkpt>
      <trkpt lat="47.79574" lon="-3.69324">
        <ele>29.9</ele>
        <time>2023-01-27T13:59:48Z</time>
      </trkpt>
      <trkpt lat="47.79573" lon="-3.69318">
        <ele>29.8</ele>
        <time>2023-01-27T13:59:50Z</time>
      </trkpt>
      <trkpt lat="47.79578" lon="-3.69311">
        <ele>29.7</ele>
        <time>2023-01-27T13:59:51Z</time>
      </trkpt>
      <trkpt lat="47.79582" lon="-3.69311">
        <ele>29.8</ele>
        <time>2023-01-27T13:59:53Z</time>
      </trkpt>
      <trkpt lat="47.79585" lon="-3.69313">
        <ele>29.9</ele>
        <time>2023-01-27T13:59:54Z</time>
      </trkpt>
      <trkpt lat="47.79589" lon="-3.69314">
        <ele>30</ele>
        <time>2023-01-27T13:59:55Z</time>
      </trkpt>
      <trkpt lat="47.79591" lon="-3.69314">
        <ele>30.1</ele>
        <time>2023-01-27T13:59:56Z</time>
      </trkpt>
      <trkpt lat="47.79594" lon="-3.69313">
        <ele>30.2</ele>
        <time>2023-01-27T13:59:57Z</time>
      </trkpt>
      <trkpt lat="47.79598" lon="-3.69312">
        <ele>30.3</ele>
        <time>2023-01-27T13:59:58Z</time>
      </trkpt>
      <trkpt lat="47.79602" lon="-3.69311">
        <ele>30.5</ele>
        <time>2023-01-27T13:59:59Z</time>
      </trkpt>
      <trkpt lat="47.79605" lon="-3.69309">
        <ele>30.6</ele>
        <time>2023-01-27T14:00:00Z</time>
      </trkpt>
      <trkpt lat="47.79608" lon="-3.69306">
        <ele>30.8</ele>
        <time>2023-01-27T14:00:01Z</time>
      </trkpt>
      <trkpt lat="47.7961" lon="-3.69305">
        <ele>30.9</ele>
        <time>2023-01-27T14:00:02Z</time>
      </trkpt>
      <trkpt lat="47.79613" lon="-3.69302">
        <ele>31</ele>
        <time>2023-01-27T14:00:03Z</time>
      </trkpt>
      <trkpt lat="47.79616" lon="-3.69301">
        <ele>31.1</ele>
        <time>2023-01-27T14:00:04Z</time>
      </trkpt>
      <trkpt lat="47.79619" lon="-3.693">
        <ele>31.2</ele>
        <time>2023-01-27T14:00:05Z</time>
      </trkpt>
      <trkpt lat="47.79622" lon="-3.69298">
        <ele>31.2</ele>
        <time>2023-01-27T14:00:06Z</time>
      </trkpt>
      <trkpt lat="47.79626" lon="-3.69298">
        <ele>31.3</ele>
        <time>2023-01-27T14:00:07Z</time>
      </trkpt>
      <trkpt lat="47.79631" lon="-3.69298">
        <ele>31.3</ele>
        <time>2023-01-27T14:00:08Z</time>
      </trkpt>
      <trkpt lat="47.79639" lon="-3.69297">
        <ele>31.4</ele>
        <time>2023-01-27T14:00:10Z</time>
      </trkpt>
      <trkpt lat="47.79646" lon="-3.69295">
        <ele>31.4</ele>
        <time>2023-01-27T14:00:12Z</time>
      </trkpt>
      <trkpt lat="47.79649" lon="-3.69295">
        <ele>31.4</ele>
        <time>2023-01-27T14:00:13Z</time>
      </trkpt>
      <trkpt lat="47.79656" lon="-3.69299">
        <ele>31.5</ele>
        <time>2023-01-27T14:00:15Z</time>
      </trkpt>
      <trkpt lat="47.79661" lon="-3.693">
        <ele>31.5</ele>
        <time>2023-01-27T14:00:16Z</time>
      </trkpt>
      <trkpt lat="47.79665" lon="-3.69301">
        <ele>31.5</ele>
        <time>2023-01-27T14:00:18Z</time>
      </trkpt>
      <trkpt lat="47.79668" lon="-3.69302">
        <ele>31.6</ele>
        <time>2023-01-27T14:00:19Z</time>
      </trkpt>
      <trkpt lat="47.79675" lon="-3.69303">
        <ele>31.7</ele>
        <time>2023-01-27T14:00:20Z</time>
      </trkpt>
      <trkpt lat="47.79679" lon="-3.69304">
        <ele>31.8</ele>
        <time>2023-01-27T14:00:21Z</time>
      </trkpt>
      <trkpt lat="47.79683" lon="-3.69306">
        <ele>31.9</ele>
        <time>2023-01-27T14:00:23Z</time>
      </trkpt>
      <trkpt lat="47.79686" lon="-3.69308">
        <ele>32</ele>
        <time>2023-01-27T14:00:24Z</time>
      </trkpt>
      <trkpt lat="47.79689" lon="-3.69309">
        <ele>32.1</ele>
        <time>2023-01-27T14:00:25Z</time>
      </trkpt>
      <trkpt lat="47.79692" lon="-3.6931">
        <ele>32.2</ele>
        <time>2023-01-27T14:00:26Z</time>
      </trkpt>
      <trkpt lat="47.79695" lon="-3.69312">
        <ele>32.4</ele>
        <time>2023-01-27T14:00:27Z</time>
      </trkpt>
      <trkpt lat="47.79698" lon="-3.69313">
        <ele>32.5</ele>
        <time>2023-01-27T14:00:28Z</time>
      </trkpt>
      <trkpt lat="47.79704" lon="-3.69315">
        <ele>32.8</ele>
        <time>2023-01-27T14:00:29Z</time>
      </trkpt>
      <trkpt lat="47.79708" lon="-3.69316">
        <ele>33</ele>
        <time>2023-01-27T14:00:30Z</time>
      </trkpt>
      <trkpt lat="47.79711" lon="-3.69317">
        <ele>33.1</ele>
        <time>2023-01-27T14:00:31Z</time>
      </trkpt>
      <trkpt lat="47.79715" lon="-3.69317">
        <ele>33.3</ele>
        <time>2023-01-27T14:00:33Z</time>
      </trkpt>
      <trkpt lat="47.79721" lon="-3.69318">
        <ele>33.5</ele>
        <time>2023-01-27T14:00:34Z</time>
      </trkpt>
      <trkpt lat="47.79728" lon="-3.6932">
        <ele>33.8</ele>
        <time>2023-01-27T14:00:36Z</time>
      </trkpt>
      <trkpt lat="47.79731" lon="-3.69319">
        <ele>34</ele>
        <time>2023-01-27T14:00:37Z</time>
      </trkpt>
      <trkpt lat="47.79734" lon="-3.6932">
        <ele>34.1</ele>
        <time>2023-01-27T14:00:38Z</time>
      </trkpt>
      <trkpt lat="47.79738" lon="-3.69321">
        <ele>34.4</ele>
        <time>2023-01-27T14:00:39Z</time>
      </trkpt>
      <trkpt lat="47.79741" lon="-3.69322">
        <ele>34.5</ele>
        <time>2023-01-27T14:00:40Z</time>
      </trkpt>
      <trkpt lat="47.79742" lon="-3.69323">
        <ele>34.6</ele>
        <time>2023-01-27T14:00:42Z</time>
      </trkpt>
      <trkpt lat="47.79746" lon="-3.69323">
        <ele>34.9</ele>
        <time>2023-01-27T14:00:43Z</time>
      </trkpt>
      <trkpt lat="47.79752" lon="-3.69323">
        <ele>35.2</ele>
        <time>2023-01-27T14:00:45Z</time>
      </trkpt>
      <trkpt lat="47.79755" lon="-3.69324">
        <ele>35.4</ele>
        <time>2023-01-27T14:00:47Z</time>
      </trkpt>
      <trkpt lat="47.7976" lon="-3.69325">
        <ele>35.7</ele>
        <time>2023-01-27T14:00:48Z</time>
      </trkpt>
      <trkpt lat="47.79763" lon="-3.69326">
        <ele>35.9</ele>
        <time>2023-01-27T14:00:50Z</time>
      </trkpt>
      <trkpt lat="47.79768" lon="-3.69328">
        <ele>36.2</ele>
        <time>2023-01-27T14:00:51Z</time>
      </trkpt>
      <trkpt lat="47.79771" lon="-3.69329">
        <ele>36.4</ele>
        <time>2023-01-27T14:00:53Z</time>
      </trkpt>
      <trkpt lat="47.79774" lon="-3.6933">
        <ele>36.6</ele>
        <time>2023-01-27T14:00:54Z</time>
      </trkpt>
      <trkpt lat="47.79777" lon="-3.69331">
        <ele>36.7</ele>
        <time>2023-01-27T14:00:55Z</time>
      </trkpt>
      <trkpt lat="47.7978" lon="-3.69332">
        <ele>36.9</ele>
        <time>2023-01-27T14:00:56Z</time>
      </trkpt>
      <trkpt lat="47.79785" lon="-3.69334">
        <ele>37.1</ele>
        <time>2023-01-27T14:00:57Z</time>
      </trkpt>
      <trkpt lat="47.79788" lon="-3.69335">
        <ele>37.3</ele>
        <time>2023-01-27T14:00:59Z</time>
      </trkpt>
      <trkpt lat="47.79791" lon="-3.69334">
        <ele>37.5</ele>
        <time>2023-01-27T14:01:00Z</time>
      </trkpt>
      <trkpt lat="47.79797" lon="-3.69335">
        <ele>37.8</ele>
        <time>2023-01-27T14:01:01Z</time>
      </trkpt>
      <trkpt lat="47.798" lon="-3.69335">
        <ele>38</ele>
        <time>2023-01-27T14:01:03Z</time>
      </trkpt>
      <trkpt lat="47.79804" lon="-3.69338">
        <ele>38.2</ele>
        <time>2023-01-27T14:01:04Z</time>
      </trkpt>
      <trkpt lat="47.79805" lon="-3.6934">
        <ele>38.4</ele>
        <time>2023-01-27T14:01:05Z</time>
      </trkpt>
      <trkpt lat="47.79803" lon="-3.6935">
        <ele>38.6</ele>
        <time>2023-01-27T14:01:07Z</time>
      </trkpt>
      <trkpt lat="47.79801" lon="-3.69359">
        <ele>38.8</ele>
        <time>2023-01-27T14:01:09Z</time>
      </trkpt>
      <trkpt lat="47.798" lon="-3.69363">
        <ele>38.8</ele>
        <time>2023-01-27T14:01:10Z</time>
      </trkpt>
      <trkpt lat="47.79799" lon="-3.69369">
        <ele>38.9</ele>
        <time>2023-01-27T14:01:12Z</time>
      </trkpt>
      <trkpt lat="47.79797" lon="-3.69378">
        <ele>39.1</ele>
        <time>2023-01-27T14:01:13Z</time>
      </trkpt>
      <trkpt lat="47.79796" lon="-3.69383">
        <ele>39.2</ele>
        <time>2023-01-27T14:01:14Z</time>
      </trkpt>
      <trkpt lat="47.79796" lon="-3.69388">
        <ele>39.3</ele>
        <time>2023-01-27T14:01:15Z</time>
      </trkpt>
      <trkpt lat="47.79794" lon="-3.69397">
        <ele>39.4</ele>
        <time>2023-01-27T14:01:17Z</time>
      </trkpt>
      <trkpt lat="47.79793" lon="-3.69402">
        <ele>39.5</ele>
        <time>2023-01-27T14:01:18Z</time>
      </trkpt>
      <trkpt lat="47.79792" lon="-3.69408">
        <ele>39.6</ele>
        <time>2023-01-27T14:01:20Z</time>
      </trkpt>
      <trkpt lat="47.7979" lon="-3.69417">
        <ele>39.8</ele>
        <time>2023-01-27T14:01:21Z</time>
      </trkpt>
      <trkpt lat="47.7979" lon="-3.69421">
        <ele>39.9</ele>
        <time>2023-01-27T14:01:22Z</time>
      </trkpt>
      <trkpt lat="47.7979" lon="-3.69427">
        <ele>40</ele>
        <time>2023-01-27T14:01:23Z</time>
      </trkpt>
      <trkpt lat="47.79789" lon="-3.69432">
        <ele>40</ele>
        <time>2023-01-27T14:01:25Z</time>
      </trkpt>
      <trkpt lat="47.79788" lon="-3.69437">
        <ele>40.1</ele>
        <time>2023-01-27T14:01:26Z</time>
      </trkpt>
      <trkpt lat="47.79786" lon="-3.69447">
        <ele>40.3</ele>
        <time>2023-01-27T14:01:27Z</time>
      </trkpt>
      <trkpt lat="47.79786" lon="-3.69452">
        <ele>40.4</ele>
        <time>2023-01-27T14:01:29Z</time>
      </trkpt>
      <trkpt lat="47.79785" lon="-3.69458">
        <ele>40.5</ele>
        <time>2023-01-27T14:01:30Z</time>
      </trkpt>
      <trkpt lat="47.79783" lon="-3.69468">
        <ele>40.7</ele>
        <time>2023-01-27T14:01:31Z</time>
      </trkpt>
      <trkpt lat="47.79782" lon="-3.69474">
        <ele>40.8</ele>
        <time>2023-01-27T14:01:33Z</time>
      </trkpt>
      <trkpt lat="47.79781" lon="-3.69483">
        <ele>41</ele>
        <time>2023-01-27T14:01:34Z</time>
      </trkpt>
      <trkpt lat="47.7978" lon="-3.69489">
        <ele>41.1</ele>
        <time>2023-01-27T14:01:35Z</time>
      </trkpt>
      <trkpt lat="47.7978" lon="-3.69495">
        <ele>41.3</ele>
        <time>2023-01-27T14:01:37Z</time>
      </trkpt>
      <trkpt lat="47.79779" lon="-3.695">
        <ele>41.4</ele>
        <time>2023-01-27T14:01:38Z</time>
      </trkpt>
      <trkpt lat="47.79778" lon="-3.69505">
        <ele>41.5</ele>
        <time>2023-01-27T14:01:39Z</time>
      </trkpt>
      <trkpt lat="47.79778" lon="-3.69511">
        <ele>41.6</ele>
        <time>2023-01-27T14:01:40Z</time>
      </trkpt>
      <trkpt lat="47.79777" lon="-3.69517">
        <ele>41.7</ele>
        <time>2023-01-27T14:01:41Z</time>
      </trkpt>
      <trkpt lat="47.79776" lon="-3.69525">
        <ele>41.9</ele>
        <time>2023-01-27T14:01:42Z</time>
      </trkpt>
      <trkpt lat="47.79775" lon="-3.69534">
        <ele>42.1</ele>
        <time>2023-01-27T14:01:44Z</time>
      </trkpt>
      <trkpt lat="47.79774" lon="-3.69544">
        <ele>42.3</ele>
        <time>2023-01-27T14:01:46Z</time>
      </trkpt>
      <trkpt lat="47.79773" lon="-3.69549">
        <ele>42.4</ele>
        <time>2023-01-27T14:01:48Z</time>
      </trkpt>
      <trkpt lat="47.79772" lon="-3.69554">
        <ele>42.5</ele>
        <time>2023-01-27T14:01:49Z</time>
      </trkpt>
      <trkpt lat="47.79772" lon="-3.69558">
        <ele>42.5</ele>
        <time>2023-01-27T14:01:50Z</time>
      </trkpt>
      <trkpt lat="47.79771" lon="-3.69562">
        <ele>42.6</ele>
        <time>2023-01-27T14:01:51Z</time>
      </trkpt>
      <trkpt lat="47.7977" lon="-3.69566">
        <ele>42.7</ele>
        <time>2023-01-27T14:01:52Z</time>
      </trkpt>
      <trkpt lat="47.7977" lon="-3.69571">
        <ele>42.7</ele>
        <time>2023-01-27T14:01:53Z</time>
      </trkpt>
      <trkpt lat="47.79768" lon="-3.69581">
        <ele>42.8</ele>
        <time>2023-01-27T14:01:54Z</time>
      </trkpt>
      <trkpt lat="47.79768" lon="-3.69587">
        <ele>42.8</ele>
        <time>2023-01-27T14:01:56Z</time>
      </trkpt>
      <trkpt lat="47.79767" lon="-3.69592">
        <ele>42.8</ele>
        <time>2023-01-27T14:01:57Z</time>
      </trkpt>
      <trkpt lat="47.79767" lon="-3.69598">
        <ele>42.9</ele>
        <time>2023-01-27T14:01:58Z</time>
      </trkpt>
      <trkpt lat="47.79766" lon="-3.69603">
        <ele>42.9</ele>
        <time>2023-01-27T14:01:59Z</time>
      </trkpt>
      <trkpt lat="47.79765" lon="-3.69613">
        <ele>42.8</ele>
        <time>2023-01-27T14:02:00Z</time>
      </trkpt>
      <trkpt lat="47.79764" lon="-3.69619">
        <ele>42.8</ele>
        <time>2023-01-27T14:02:02Z</time>
      </trkpt>
      <trkpt lat="47.79763" lon="-3.69624">
        <ele>42.8</ele>
        <time>2023-01-27T14:02:03Z</time>
      </trkpt>
      <trkpt lat="47.79762" lon="-3.69635">
        <ele>42.7</ele>
        <time>2023-01-27T14:02:04Z</time>
      </trkpt>
      <trkpt lat="47.79761" lon="-3.69642">
        <ele>42.7</ele>
        <time>2023-01-27T14:02:06Z</time>
      </trkpt>
      <trkpt lat="47.7976" lon="-3.69648">
        <ele>42.7</ele>
        <time>2023-01-27T14:02:07Z</time>
      </trkpt>
      <trkpt lat="47.79759" lon="-3.69653">
        <ele>42.6</ele>
        <time>2023-01-27T14:02:08Z</time>
      </trkpt>
      <trkpt lat="47.79759" lon="-3.69658">
        <ele>42.6</ele>
        <time>2023-01-27T14:02:09Z</time>
      </trkpt>
      <trkpt lat="47.79758" lon="-3.69664">
        <ele>42.5</ele>
        <time>2023-01-27T14:02:10Z</time>
      </trkpt>
      <trkpt lat="47.79757" lon="-3.69671">
        <ele>42.5</ele>
        <time>2023-01-27T14:02:11Z</time>
      </trkpt>
      <trkpt lat="47.79757" lon="-3.69678">
        <ele>42.4</ele>
        <time>2023-01-27T14:02:12Z</time>
      </trkpt>
      <trkpt lat="47.79757" lon="-3.69685">
        <ele>42.4</ele>
        <time>2023-01-27T14:02:13Z</time>
      </trkpt>
      <trkpt lat="47.79758" lon="-3.6969">
        <ele>42.4</ele>
        <time>2023-01-27T14:02:14Z</time>
      </trkpt>
      <trkpt lat="47.79759" lon="-3.69695">
        <ele>42.3</ele>
        <time>2023-01-27T14:02:15Z</time>
      </trkpt>
      <trkpt lat="47.79759" lon="-3.697">
        <ele>42.2</ele>
        <time>2023-01-27T14:02:16Z</time>
      </trkpt>
      <trkpt lat="47.79759" lon="-3.69705">
        <ele>42.1</ele>
        <time>2023-01-27T14:02:17Z</time>
      </trkpt>
      <trkpt lat="47.79758" lon="-3.69711">
        <ele>42</ele>
        <time>2023-01-27T14:02:18Z</time>
      </trkpt>
      <trkpt lat="47.79757" lon="-3.69717">
        <ele>42</ele>
        <time>2023-01-27T14:02:19Z</time>
      </trkpt>
      <trkpt lat="47.79755" lon="-3.69726">
        <ele>41.8</ele>
        <time>2023-01-27T14:02:20Z</time>
      </trkpt>
      <trkpt lat="47.79754" lon="-3.69732">
        <ele>41.7</ele>
        <time>2023-01-27T14:02:22Z</time>
      </trkpt>
      <trkpt lat="47.79752" lon="-3.69739">
        <ele>41.5</ele>
        <time>2023-01-27T14:02:23Z</time>
      </trkpt>
      <trkpt lat="47.7975" lon="-3.69752">
        <ele>41.3</ele>
        <time>2023-01-27T14:02:24Z</time>
      </trkpt>
      <trkpt lat="47.79749" lon="-3.69759">
        <ele>41.2</ele>
        <time>2023-01-27T14:02:26Z</time>
      </trkpt>
      <trkpt lat="47.79748" lon="-3.69763">
        <ele>41.1</ele>
        <time>2023-01-27T14:02:27Z</time>
      </trkpt>
      <trkpt lat="47.79745" lon="-3.69778">
        <ele>40.9</ele>
        <time>2023-01-27T14:02:29Z</time>
      </trkpt>
      <trkpt lat="47.79744" lon="-3.69785">
        <ele>40.8</ele>
        <time>2023-01-27T14:02:30Z</time>
      </trkpt>
      <trkpt lat="47.79742" lon="-3.6979">
        <ele>40.7</ele>
        <time>2023-01-27T14:02:31Z</time>
      </trkpt>
      <trkpt lat="47.79739" lon="-3.69797">
        <ele>40.5</ele>
        <time>2023-01-27T14:02:33Z</time>
      </trkpt>
      <trkpt lat="47.79733" lon="-3.69805">
        <ele>40.2</ele>
        <time>2023-01-27T14:02:34Z</time>
      </trkpt>
      <trkpt lat="47.79729" lon="-3.69811">
        <ele>40</ele>
        <time>2023-01-27T14:02:35Z</time>
      </trkpt>
      <trkpt lat="47.79725" lon="-3.69817">
        <ele>39.9</ele>
        <time>2023-01-27T14:02:36Z</time>
      </trkpt>
      <trkpt lat="47.79721" lon="-3.69825">
        <ele>39.6</ele>
        <time>2023-01-27T14:02:37Z</time>
      </trkpt>
      <trkpt lat="47.79718" lon="-3.69832">
        <ele>39.4</ele>
        <time>2023-01-27T14:02:38Z</time>
      </trkpt>
      <trkpt lat="47.79714" lon="-3.6984">
        <ele>39.2</ele>
        <time>2023-01-27T14:02:39Z</time>
      </trkpt>
      <trkpt lat="47.79712" lon="-3.6985">
        <ele>39</ele>
        <time>2023-01-27T14:02:40Z</time>
      </trkpt>
      <trkpt lat="47.79711" lon="-3.6986">
        <ele>38.7</ele>
        <time>2023-01-27T14:02:41Z</time>
      </trkpt>
      <trkpt lat="47.7971" lon="-3.6987">
        <ele>38.5</ele>
        <time>2023-01-27T14:02:42Z</time>
      </trkpt>
      <trkpt lat="47.79709" lon="-3.6988">
        <ele>38.3</ele>
        <time>2023-01-27T14:02:43Z</time>
      </trkpt>
      <trkpt lat="47.79708" lon="-3.69891">
        <ele>38.2</ele>
        <time>2023-01-27T14:02:44Z</time>
      </trkpt>
      <trkpt lat="47.79707" lon="-3.69901">
        <ele>38.1</ele>
        <time>2023-01-27T14:02:45Z</time>
      </trkpt>
      <trkpt lat="47.79706" lon="-3.6991">
        <ele>38</ele>
        <time>2023-01-27T14:02:46Z</time>
      </trkpt>
      <trkpt lat="47.79705" lon="-3.6992">
        <ele>37.9</ele>
        <time>2023-01-27T14:02:47Z</time>
      </trkpt>
      <trkpt lat="47.79704" lon="-3.6993">
        <ele>37.8</ele>
        <time>2023-01-27T14:02:48Z</time>
      </trkpt>
      <trkpt lat="47.79703" lon="-3.6994">
        <ele>37.8</ele>
        <time>2023-01-27T14:02:49Z</time>
      </trkpt>
      <trkpt lat="47.79702" lon="-3.6995">
        <ele>37.7</ele>
        <time>2023-01-27T14:02:50Z</time>
      </trkpt>
      <trkpt lat="47.797" lon="-3.69959">
        <ele>37.7</ele>
        <time>2023-01-27T14:02:51Z</time>
      </trkpt>
      <trkpt lat="47.79698" lon="-3.69968">
        <ele>37.7</ele>
        <time>2023-01-27T14:02:52Z</time>
      </trkpt>
      <trkpt lat="47.79695" lon="-3.69976">
        <ele>37.7</ele>
        <time>2023-01-27T14:02:53Z</time>
      </trkpt>
      <trkpt lat="47.79692" lon="-3.69984">
        <ele>37.6</ele>
        <time>2023-01-27T14:02:54Z</time>
      </trkpt>
      <trkpt lat="47.79688" lon="-3.69991">
        <ele>37.6</ele>
        <time>2023-01-27T14:02:55Z</time>
      </trkpt>
      <trkpt lat="47.79685" lon="-3.69998">
        <ele>37.6</ele>
        <time>2023-01-27T14:02:56Z</time>
      </trkpt>
      <trkpt lat="47.79681" lon="-3.70005">
        <ele>37.5</ele>
        <time>2023-01-27T14:02:57Z</time>
      </trkpt>
      <trkpt lat="47.79677" lon="-3.70012">
        <ele>37.5</ele>
        <time>2023-01-27T14:02:58Z</time>
      </trkpt>
      <trkpt lat="47.79673" lon="-3.70019">
        <ele>37.5</ele>
        <time>2023-01-27T14:02:59Z</time>
      </trkpt>
      <trkpt lat="47.79669" lon="-3.70025">
        <ele>37.5</ele>
        <time>2023-01-27T14:03:00Z</time>
      </trkpt>
      <trkpt lat="47.79664" lon="-3.70031">
        <ele>37.4</ele>
        <time>2023-01-27T14:03:01Z</time>
      </trkpt>
      <trkpt lat="47.7966" lon="-3.70037">
        <ele>37.4</ele>
        <time>2023-01-27T14:03:02Z</time>
      </trkpt>
      <trkpt lat="47.79656" lon="-3.70043">
        <ele>37.4</ele>
        <time>2023-01-27T14:03:03Z</time>
      </trkpt>
      <trkpt lat="47.79653" lon="-3.70049">
        <ele>37.3</ele>
        <time>2023-01-27T14:03:04Z</time>
      </trkpt>
      <trkpt lat="47.79648" lon="-3.70055">
        <ele>37.3</ele>
        <time>2023-01-27T14:03:05Z</time>
      </trkpt>
      <trkpt lat="47.79643" lon="-3.70059">
        <ele>37.3</ele>
        <time>2023-01-27T14:03:06Z</time>
      </trkpt>
      <trkpt lat="47.79639" lon="-3.70065">
        <ele>37.3</ele>
        <time>2023-01-27T14:03:07Z</time>
      </trkpt>
      <trkpt lat="47.79638" lon="-3.70073">
        <ele>37.4</ele>
        <time>2023-01-27T14:03:08Z</time>
      </trkpt>
      <trkpt lat="47.79639" lon="-3.70082">
        <ele>37.5</ele>
        <time>2023-01-27T14:03:09Z</time>
      </trkpt>
      <trkpt lat="47.7964" lon="-3.70088">
        <ele>37.5</ele>
        <time>2023-01-27T14:03:10Z</time>
      </trkpt>
      <trkpt lat="47.79641" lon="-3.70095">
        <ele>37.6</ele>
        <time>2023-01-27T14:03:11Z</time>
      </trkpt>
      <trkpt lat="47.79641" lon="-3.70102">
        <ele>37.6</ele>
        <time>2023-01-27T14:03:12Z</time>
      </trkpt>
      <trkpt lat="47.79641" lon="-3.70108">
        <ele>37.6</ele>
        <time>2023-01-27T14:03:13Z</time>
      </trkpt>
      <trkpt lat="47.79641" lon="-3.70115">
        <ele>37.6</ele>
        <time>2023-01-27T14:03:14Z</time>
      </trkpt>
      <trkpt lat="47.79641" lon="-3.70122">
        <ele>37.7</ele>
        <time>2023-01-27T14:03:15Z</time>
      </trkpt>
      <trkpt lat="47.79641" lon="-3.70128">
        <ele>37.7</ele>
        <time>2023-01-27T14:03:16Z</time>
      </trkpt>
      <trkpt lat="47.79642" lon="-3.70133">
        <ele>37.7</ele>
        <time>2023-01-27T14:03:17Z</time>
      </trkpt>
      <trkpt lat="47.79643" lon="-3.70141">
        <ele>37.7</ele>
        <time>2023-01-27T14:03:18Z</time>
      </trkpt>
      <trkpt lat="47.79644" lon="-3.70148">
        <ele>37.7</ele>
        <time>2023-01-27T14:03:19Z</time>
      </trkpt>
      <trkpt lat="47.79646" lon="-3.70155">
        <ele>37.7</ele>
        <time>2023-01-27T14:03:20Z</time>
      </trkpt>
      <trkpt lat="47.79647" lon="-3.70162">
        <ele>37.7</ele>
        <time>2023-01-27T14:03:21Z</time>
      </trkpt>
      <trkpt lat="47.79648" lon="-3.70169">
        <ele>37.7</ele>
        <time>2023-01-27T14:03:22Z</time>
      </trkpt>
      <trkpt lat="47.79649" lon="-3.70175">
        <ele>37.7</ele>
        <time>2023-01-27T14:03:23Z</time>
      </trkpt>
      <trkpt lat="47.7965" lon="-3.7018">
        <ele>37.7</ele>
        <time>2023-01-27T14:03:24Z</time>
      </trkpt>
      <trkpt lat="47.79651" lon="-3.70188">
        <ele>37.8</ele>
        <time>2023-01-27T14:03:25Z</time>
      </trkpt>
      <trkpt lat="47.79652" lon="-3.70196">
        <ele>37.8</ele>
        <time>2023-01-27T14:03:26Z</time>
      </trkpt>
      <trkpt lat="47.79654" lon="-3.70207">
        <ele>37.8</ele>
        <time>2023-01-27T14:03:28Z</time>
      </trkpt>
      <trkpt lat="47.79656" lon="-3.70214">
        <ele>37.7</ele>
        <time>2023-01-27T14:03:29Z</time>
      </trkpt>
      <trkpt lat="47.79655" lon="-3.70219">
        <ele>37.7</ele>
        <time>2023-01-27T14:03:30Z</time>
      </trkpt>
      <trkpt lat="47.79658" lon="-3.70227">
        <ele>37.7</ele>
        <time>2023-01-27T14:03:31Z</time>
      </trkpt>
      <trkpt lat="47.7966" lon="-3.70232">
        <ele>37.7</ele>
        <time>2023-01-27T14:03:32Z</time>
      </trkpt>
      <trkpt lat="47.79664" lon="-3.70238">
        <ele>37.7</ele>
        <time>2023-01-27T14:03:33Z</time>
      </trkpt>
      <trkpt lat="47.79667" lon="-3.70239">
        <ele>37.7</ele>
        <time>2023-01-27T14:03:34Z</time>
      </trkpt>
      <trkpt lat="47.79672" lon="-3.7024">
        <ele>37.7</ele>
        <time>2023-01-27T14:03:35Z</time>
      </trkpt>
      <trkpt lat="47.79677" lon="-3.70242">
        <ele>37.7</ele>
        <time>2023-01-27T14:03:36Z</time>
      </trkpt>
      <trkpt lat="47.79681" lon="-3.70245">
        <ele>37.8</ele>
        <time>2023-01-27T14:03:37Z</time>
      </trkpt>
      <trkpt lat="47.79684" lon="-3.70245">
        <ele>37.8</ele>
        <time>2023-01-27T14:03:38Z</time>
      </trkpt>
      <trkpt lat="47.7969" lon="-3.70251">
        <ele>37.9</ele>
        <time>2023-01-27T14:03:39Z</time>
      </trkpt>
      <trkpt lat="47.79696" lon="-3.70255">
        <ele>38.1</ele>
        <time>2023-01-27T14:03:40Z</time>
      </trkpt>
      <trkpt lat="47.79703" lon="-3.70261">
        <ele>38.3</ele>
        <time>2023-01-27T14:03:42Z</time>
      </trkpt>
      <trkpt lat="47.79707" lon="-3.70265">
        <ele>38.4</ele>
        <time>2023-01-27T14:03:44Z</time>
      </trkpt>
      <trkpt lat="47.79711" lon="-3.70268">
        <ele>38.5</ele>
        <time>2023-01-27T14:03:45Z</time>
      </trkpt>
      <trkpt lat="47.79717" lon="-3.70273">
        <ele>38.7</ele>
        <time>2023-01-27T14:03:46Z</time>
      </trkpt>
      <trkpt lat="47.79721" lon="-3.70277">
        <ele>38.7</ele>
        <time>2023-01-27T14:03:48Z</time>
      </trkpt>
      <trkpt lat="47.79725" lon="-3.7028">
        <ele>38.8</ele>
        <time>2023-01-27T14:03:49Z</time>
      </trkpt>
      <trkpt lat="47.79731" lon="-3.70283">
        <ele>38.9</ele>
        <time>2023-01-27T14:03:50Z</time>
      </trkpt>
      <trkpt lat="47.79734" lon="-3.70285">
        <ele>38.8</ele>
        <time>2023-01-27T14:03:52Z</time>
      </trkpt>
      <trkpt lat="47.79737" lon="-3.70289">
        <ele>38.9</ele>
        <time>2023-01-27T14:03:53Z</time>
      </trkpt>
      <trkpt lat="47.79739" lon="-3.70295">
        <ele>38.9</ele>
        <time>2023-01-27T14:03:54Z</time>
      </trkpt>
      <trkpt lat="47.79742" lon="-3.703">
        <ele>38.8</ele>
        <time>2023-01-27T14:03:55Z</time>
      </trkpt>
      <trkpt lat="47.79742" lon="-3.70305">
        <ele>38.7</ele>
        <time>2023-01-27T14:03:56Z</time>
      </trkpt>
      <trkpt lat="47.79742" lon="-3.7031">
        <ele>38.7</ele>
        <time>2023-01-27T14:03:57Z</time>
      </trkpt>
      <trkpt lat="47.7974" lon="-3.70318">
        <ele>38.5</ele>
        <time>2023-01-27T14:03:58Z</time>
      </trkpt>
      <trkpt lat="47.79738" lon="-3.70326">
        <ele>38.3</ele>
        <time>2023-01-27T14:03:59Z</time>
      </trkpt>
      <trkpt lat="47.79738" lon="-3.70334">
        <ele>38.3</ele>
        <time>2023-01-27T14:04:00Z</time>
      </trkpt>
      <trkpt lat="47.79738" lon="-3.7034">
        <ele>38.2</ele>
        <time>2023-01-27T14:04:01Z</time>
      </trkpt>
      <trkpt lat="47.79737" lon="-3.70347">
        <ele>38.2</ele>
        <time>2023-01-27T14:04:02Z</time>
      </trkpt>
      <trkpt lat="47.79735" lon="-3.70356">
        <ele>38.2</ele>
        <time>2023-01-27T14:04:03Z</time>
      </trkpt>
      <trkpt lat="47.79734" lon="-3.70363">
        <ele>38.2</ele>
        <time>2023-01-27T14:04:04Z</time>
      </trkpt>
      <trkpt lat="47.79732" lon="-3.70371">
        <ele>38.1</ele>
        <time>2023-01-27T14:04:05Z</time>
      </trkpt>
      <trkpt lat="47.79731" lon="-3.70378">
        <ele>38.1</ele>
        <time>2023-01-27T14:04:06Z</time>
      </trkpt>
      <trkpt lat="47.7973" lon="-3.70386">
        <ele>37.9</ele>
        <time>2023-01-27T14:04:07Z</time>
      </trkpt>
      <trkpt lat="47.79729" lon="-3.70393">
        <ele>37.8</ele>
        <time>2023-01-27T14:04:08Z</time>
      </trkpt>
      <trkpt lat="47.79728" lon="-3.704">
        <ele>37.7</ele>
        <time>2023-01-27T14:04:09Z</time>
      </trkpt>
      <trkpt lat="47.79727" lon="-3.70408">
        <ele>37.6</ele>
        <time>2023-01-27T14:04:10Z</time>
      </trkpt>
      <trkpt lat="47.79727" lon="-3.70417">
        <ele>37.5</ele>
        <time>2023-01-27T14:04:11Z</time>
      </trkpt>
      <trkpt lat="47.79727" lon="-3.70424">
        <ele>37.5</ele>
        <time>2023-01-27T14:04:12Z</time>
      </trkpt>
      <trkpt lat="47.79726" lon="-3.70431">
        <ele>37.6</ele>
        <time>2023-01-27T14:04:13Z</time>
      </trkpt>
      <trkpt lat="47.79724" lon="-3.70437">
        <ele>37.7</ele>
        <time>2023-01-27T14:04:14Z</time>
      </trkpt>
      <trkpt lat="47.79725" lon="-3.70446">
        <ele>37.8</ele>
        <time>2023-01-27T14:04:15Z</time>
      </trkpt>
      <trkpt lat="47.79727" lon="-3.70454">
        <ele>37.9</ele>
        <time>2023-01-27T14:04:16Z</time>
      </trkpt>
      <trkpt lat="47.79727" lon="-3.70463">
        <ele>38</ele>
        <time>2023-01-27T14:04:18Z</time>
      </trkpt>
      <trkpt lat="47.7973" lon="-3.7047">
        <ele>38</ele>
        <time>2023-01-27T14:04:20Z</time>
      </trkpt>
      <trkpt lat="47.79731" lon="-3.70473">
        <ele>38</ele>
        <time>2023-01-27T14:04:22Z</time>
      </trkpt>
      <trkpt lat="47.79734" lon="-3.70471">
        <ele>38.1</ele>
        <time>2023-01-27T14:04:23Z</time>
      </trkpt>
      <trkpt lat="47.79735" lon="-3.7047">
        <ele>38.1</ele>
        <time>2023-01-27T14:04:24Z</time>
      </trkpt>
      <trkpt lat="47.79737" lon="-3.70468">
        <ele>38.1</ele>
        <time>2023-01-27T14:04:25Z</time>
      </trkpt>
      <trkpt lat="47.79739" lon="-3.70469">
        <ele>38.1</ele>
        <time>2023-01-27T14:04:26Z</time>
      </trkpt>
      <trkpt lat="47.7974" lon="-3.70469">
        <ele>38.1</ele>
        <time>2023-01-27T14:04:27Z</time>
      </trkpt>
      <trkpt lat="47.79742" lon="-3.70469">
        <ele>38.1</ele>
        <time>2023-01-27T14:04:28Z</time>
      </trkpt>
      <trkpt lat="47.79745" lon="-3.70468">
        <ele>38.1</ele>
        <time>2023-01-27T14:04:29Z</time>
      </trkpt>
      <trkpt lat="47.79748" lon="-3.70469">
        <ele>38.1</ele>
        <time>2023-01-27T14:04:30Z</time>
      </trkpt>
      <trkpt lat="47.79752" lon="-3.70468">
        <ele>38.1</ele>
        <time>2023-01-27T14:04:31Z</time>
      </trkpt>
      <trkpt lat="47.79753" lon="-3.70468">
        <ele>38.1</ele>
        <time>2023-01-27T14:04:32Z</time>
      </trkpt>
      <trkpt lat="47.79757" lon="-3.70467">
        <ele>38.1</ele>
        <time>2023-01-27T14:04:33Z</time>
      </trkpt>
      <trkpt lat="47.7976" lon="-3.70467">
        <ele>38.1</ele>
        <time>2023-01-27T14:04:34Z</time>
      </trkpt>
      <trkpt lat="47.79763" lon="-3.70466">
        <ele>38.2</ele>
        <time>2023-01-27T14:04:35Z</time>
      </trkpt>
      <trkpt lat="47.79766" lon="-3.70465">
        <ele>38.2</ele>
        <time>2023-01-27T14:04:36Z</time>
      </trkpt>
      <trkpt lat="47.7977" lon="-3.70463">
        <ele>38.3</ele>
        <time>2023-01-27T14:04:37Z</time>
      </trkpt>
      <trkpt lat="47.79771" lon="-3.70463">
        <ele>38.3</ele>
        <time>2023-01-27T14:04:38Z</time>
      </trkpt>
      <trkpt lat="47.79774" lon="-3.70461">
        <ele>38.4</ele>
        <time>2023-01-27T14:04:39Z</time>
      </trkpt>
      <trkpt lat="47.79779" lon="-3.70459">
        <ele>38.5</ele>
        <time>2023-01-27T14:04:40Z</time>
      </trkpt>
      <trkpt lat="47.7978" lon="-3.70459">
        <ele>38.5</ele>
        <time>2023-01-27T14:04:41Z</time>
      </trkpt>
      <trkpt lat="47.79783" lon="-3.70458">
        <ele>38.6</ele>
        <time>2023-01-27T14:04:42Z</time>
      </trkpt>
      <trkpt lat="47.79784" lon="-3.70457">
        <ele>38.6</ele>
        <time>2023-01-27T14:04:43Z</time>
      </trkpt>
      <trkpt lat="47.79785" lon="-3.70455">
        <ele>38.7</ele>
        <time>2023-01-27T14:04:44Z</time>
      </trkpt>
      <trkpt lat="47.79787" lon="-3.70454">
        <ele>38.7</ele>
        <time>2023-01-27T14:04:45Z</time>
      </trkpt>
      <trkpt lat="47.79794" lon="-3.70453">
        <ele>38.8</ele>
        <time>2023-01-27T14:04:47Z</time>
      </trkpt>
      <trkpt lat="47.79798" lon="-3.70453">
        <ele>38.9</ele>
        <time>2023-01-27T14:04:49Z</time>
      </trkpt>
      <trkpt lat="47.79804" lon="-3.70454">
        <ele>39</ele>
        <time>2023-01-27T14:04:50Z</time>
      </trkpt>
      <trkpt lat="47.79808" lon="-3.70454">
        <ele>39</ele>
        <time>2023-01-27T14:04:51Z</time>
      </trkpt>
      <trkpt lat="47.79812" lon="-3.70454">
        <ele>39.1</ele>
        <time>2023-01-27T14:04:53Z</time>
      </trkpt>
      <trkpt lat="47.79813" lon="-3.70454">
        <ele>39.1</ele>
        <time>2023-01-27T14:04:54Z</time>
      </trkpt>
      <trkpt lat="47.79816" lon="-3.70454">
        <ele>39.2</ele>
        <time>2023-01-27T14:04:55Z</time>
      </trkpt>
      <trkpt lat="47.79819" lon="-3.70455">
        <ele>39.2</ele>
        <time>2023-01-27T14:04:56Z</time>
      </trkpt>
      <trkpt lat="47.79821" lon="-3.70455">
        <ele>39.3</ele>
        <time>2023-01-27T14:04:57Z</time>
      </trkpt>
      <trkpt lat="47.79824" lon="-3.70457">
        <ele>39.3</ele>
        <time>2023-01-27T14:04:58Z</time>
      </trkpt>
      <trkpt lat="47.79827" lon="-3.70458">
        <ele>39.4</ele>
        <time>2023-01-27T14:04:59Z</time>
      </trkpt>
      <trkpt lat="47.7983" lon="-3.7046">
        <ele>39.5</ele>
        <time>2023-01-27T14:05:00Z</time>
      </trkpt>
      <trkpt lat="47.79833" lon="-3.70462">
        <ele>39.5</ele>
        <time>2023-01-27T14:05:01Z</time>
      </trkpt>
      <trkpt lat="47.79836" lon="-3.70462">
        <ele>39.6</ele>
        <time>2023-01-27T14:05:02Z</time>
      </trkpt>
      <trkpt lat="47.7984" lon="-3.70461">
        <ele>39.7</ele>
        <time>2023-01-27T14:05:03Z</time>
      </trkpt>
      <trkpt lat="47.79843" lon="-3.70463">
        <ele>39.7</ele>
        <time>2023-01-27T14:05:04Z</time>
      </trkpt>
      <trkpt lat="47.79844" lon="-3.70467">
        <ele>39.6</ele>
        <time>2023-01-27T14:05:05Z</time>
      </trkpt>
      <trkpt lat="47.79845" lon="-3.70472">
        <ele>39.6</ele>
        <time>2023-01-27T14:05:06Z</time>
      </trkpt>
      <trkpt lat="47.79845" lon="-3.70478">
        <ele>39.5</ele>
        <time>2023-01-27T14:05:07Z</time>
      </trkpt>
      <trkpt lat="47.79844" lon="-3.70483">
        <ele>39.4</ele>
        <time>2023-01-27T14:05:08Z</time>
      </trkpt>
      <trkpt lat="47.79844" lon="-3.7049">
        <ele>39.4</ele>
        <time>2023-01-27T14:05:09Z</time>
      </trkpt>
      <trkpt lat="47.79843" lon="-3.70496">
        <ele>39.3</ele>
        <time>2023-01-27T14:05:10Z</time>
      </trkpt>
      <trkpt lat="47.79843" lon="-3.70504">
        <ele>39.3</ele>
        <time>2023-01-27T14:05:11Z</time>
      </trkpt>
      <trkpt lat="47.79842" lon="-3.70511">
        <ele>39.2</ele>
        <time>2023-01-27T14:05:12Z</time>
      </trkpt>
      <trkpt lat="47.79842" lon="-3.70518">
        <ele>39.2</ele>
        <time>2023-01-27T14:05:13Z</time>
      </trkpt>
      <trkpt lat="47.79841" lon="-3.70525">
        <ele>39.2</ele>
        <time>2023-01-27T14:05:14Z</time>
      </trkpt>
      <trkpt lat="47.79841" lon="-3.70532">
        <ele>39.2</ele>
        <time>2023-01-27T14:05:15Z</time>
      </trkpt>
      <trkpt lat="47.7984" lon="-3.70539">
        <ele>39.2</ele>
        <time>2023-01-27T14:05:16Z</time>
      </trkpt>
      <trkpt lat="47.7984" lon="-3.70546">
        <ele>39.1</ele>
        <time>2023-01-27T14:05:17Z</time>
      </trkpt>
      <trkpt lat="47.7984" lon="-3.70553">
        <ele>39.1</ele>
        <time>2023-01-27T14:05:18Z</time>
      </trkpt>
      <trkpt lat="47.79839" lon="-3.70561">
        <ele>39.1</ele>
        <time>2023-01-27T14:05:19Z</time>
      </trkpt>
      <trkpt lat="47.79839" lon="-3.70569">
        <ele>39</ele>
        <time>2023-01-27T14:05:20Z</time>
      </trkpt>
      <trkpt lat="47.79838" lon="-3.70576">
        <ele>39</ele>
        <time>2023-01-27T14:05:21Z</time>
      </trkpt>
      <trkpt lat="47.79838" lon="-3.70584">
        <ele>38.9</ele>
        <time>2023-01-27T14:05:22Z</time>
      </trkpt>
      <trkpt lat="47.79838" lon="-3.70592">
        <ele>38.8</ele>
        <time>2023-01-27T14:05:23Z</time>
      </trkpt>
      <trkpt lat="47.79837" lon="-3.70599">
        <ele>38.8</ele>
        <time>2023-01-27T14:05:24Z</time>
      </trkpt>
      <trkpt lat="47.79836" lon="-3.70607">
        <ele>38.7</ele>
        <time>2023-01-27T14:05:25Z</time>
      </trkpt>
      <trkpt lat="47.79835" lon="-3.70615">
        <ele>38.7</ele>
        <time>2023-01-27T14:05:26Z</time>
      </trkpt>
      <trkpt lat="47.79833" lon="-3.70623">
        <ele>38.6</ele>
        <time>2023-01-27T14:05:27Z</time>
      </trkpt>
      <trkpt lat="47.79831" lon="-3.7063">
        <ele>38.6</ele>
        <time>2023-01-27T14:05:28Z</time>
      </trkpt>
      <trkpt lat="47.79829" lon="-3.70636">
        <ele>38.5</ele>
        <time>2023-01-27T14:05:29Z</time>
      </trkpt>
      <trkpt lat="47.79827" lon="-3.70642">
        <ele>38.3</ele>
        <time>2023-01-27T14:05:30Z</time>
      </trkpt>
      <trkpt lat="47.79826" lon="-3.70648">
        <ele>38.2</ele>
        <time>2023-01-27T14:05:31Z</time>
      </trkpt>
      <trkpt lat="47.79826" lon="-3.70654">
        <ele>38</ele>
        <time>2023-01-27T14:05:32Z</time>
      </trkpt>
      <trkpt lat="47.79826" lon="-3.70658">
        <ele>37.9</ele>
        <time>2023-01-27T14:05:33Z</time>
      </trkpt>
      <trkpt lat="47.79825" lon="-3.70664">
        <ele>37.8</ele>
        <time>2023-01-27T14:05:34Z</time>
      </trkpt>
      <trkpt lat="47.79825" lon="-3.7067">
        <ele>37.7</ele>
        <time>2023-01-27T14:05:35Z</time>
      </trkpt>
      <trkpt lat="47.79825" lon="-3.70675">
        <ele>37.6</ele>
        <time>2023-01-27T14:05:36Z</time>
      </trkpt>
      <trkpt lat="47.79824" lon="-3.70681">
        <ele>37.4</ele>
        <time>2023-01-27T14:05:37Z</time>
      </trkpt>
      <trkpt lat="47.79824" lon="-3.70688">
        <ele>37.3</ele>
        <time>2023-01-27T14:05:38Z</time>
      </trkpt>
      <trkpt lat="47.79818" lon="-3.70704">
        <ele>36.9</ele>
        <time>2023-01-27T14:05:40Z</time>
      </trkpt>
      <trkpt lat="47.79818" lon="-3.70711">
        <ele>36.7</ele>
        <time>2023-01-27T14:05:41Z</time>
      </trkpt>
      <trkpt lat="47.79816" lon="-3.70719">
        <ele>36.5</ele>
        <time>2023-01-27T14:05:42Z</time>
      </trkpt>
      <trkpt lat="47.79814" lon="-3.70726">
        <ele>36.2</ele>
        <time>2023-01-27T14:05:43Z</time>
      </trkpt>
      <trkpt lat="47.79814" lon="-3.70732">
        <ele>36.1</ele>
        <time>2023-01-27T14:05:44Z</time>
      </trkpt>
      <trkpt lat="47.79815" lon="-3.70739">
        <ele>35.8</ele>
        <time>2023-01-27T14:05:45Z</time>
      </trkpt>
      <trkpt lat="47.79813" lon="-3.70751">
        <ele>35.5</ele>
        <time>2023-01-27T14:05:47Z</time>
      </trkpt>
      <trkpt lat="47.79813" lon="-3.70756">
        <ele>35.3</ele>
        <time>2023-01-27T14:05:48Z</time>
      </trkpt>
      <trkpt lat="47.79812" lon="-3.70763">
        <ele>35.1</ele>
        <time>2023-01-27T14:05:49Z</time>
      </trkpt>
      <trkpt lat="47.79811" lon="-3.70769">
        <ele>34.9</ele>
        <time>2023-01-27T14:05:50Z</time>
      </trkpt>
      <trkpt lat="47.79812" lon="-3.70772">
        <ele>35.1</ele>
        <time>2023-01-27T14:05:51Z</time>
      </trkpt>
      <trkpt lat="47.79812" lon="-3.70772">
        <ele>35.1</ele>
        <time>2023-01-27T14:05:53Z</time>
      </trkpt>
      <trkpt lat="47.79813" lon="-3.70772">
        <ele>35.2</ele>
        <time>2023-01-27T14:05:54Z</time>
      </trkpt>
      <trkpt lat="47.79813" lon="-3.70772">
        <ele>35.2</ele>
        <time>2023-01-27T14:05:55Z</time>
      </trkpt>
      <trkpt lat="47.79814" lon="-3.70771">
        <ele>35.2</ele>
        <time>2023-01-27T14:05:56Z</time>
      </trkpt>
      <trkpt lat="47.79814" lon="-3.70771">
        <ele>35.3</ele>
        <time>2023-01-27T14:05:57Z</time>
      </trkpt>
      <trkpt lat="47.79814" lon="-3.70771">
        <ele>35.3</ele>
        <time>2023-01-27T14:05:58Z</time>
      </trkpt>
      <trkpt lat="47.79815" lon="-3.70771">
        <ele>35.4</ele>
        <time>2023-01-27T14:05:59Z</time>
      </trkpt>
      <trkpt lat="47.79815" lon="-3.70771">
        <ele>35.4</ele>
        <time>2023-01-27T14:06:00Z</time>
      </trkpt>
      <trkpt lat="47.79816" lon="-3.70771">
        <ele>35.4</ele>
        <time>2023-01-27T14:06:01Z</time>
      </trkpt>
      <trkpt lat="47.79816" lon="-3.70771">
        <ele>35.5</ele>
        <time>2023-01-27T14:06:03Z</time>
      </trkpt>
      <trkpt lat="47.79817" lon="-3.7077">
        <ele>35.5</ele>
        <time>2023-01-27T14:06:09Z</time>
      </trkpt>
      <trkpt lat="47.79817" lon="-3.7077">
        <ele>35.6</ele>
        <time>2023-01-27T14:06:10Z</time>
      </trkpt>
      <trkpt lat="47.79817" lon="-3.7077">
        <ele>35.6</ele>
        <time>2023-01-27T14:06:11Z</time>
      </trkpt>
      <trkpt lat="47.79818" lon="-3.7077">
        <ele>35.6</ele>
        <time>2023-01-27T14:06:12Z</time>
      </trkpt>
      <trkpt lat="47.7982" lon="-3.70769">
        <ele>35.8</ele>
        <time>2023-01-27T14:06:13Z</time>
      </trkpt>
      <trkpt lat="47.7982" lon="-3.70768">
        <ele>35.9</ele>
        <time>2023-01-27T14:06:14Z</time>
      </trkpt>
      <trkpt lat="47.79821" lon="-3.70768">
        <ele>36</ele>
        <time>2023-01-27T14:06:15Z</time>
      </trkpt>
      <trkpt lat="47.79823" lon="-3.70768">
        <ele>36.1</ele>
        <time>2023-01-27T14:06:16Z</time>
      </trkpt>
      <trkpt lat="47.79824" lon="-3.70768">
        <ele>36.2</ele>
        <time>2023-01-27T14:06:18Z</time>
      </trkpt>
      <trkpt lat="47.79824" lon="-3.70768">
        <ele>36.2</ele>
        <time>2023-01-27T14:06:19Z</time>
      </trkpt>
      <trkpt lat="47.79824" lon="-3.70768">
        <ele>36.2</ele>
        <time>2023-01-27T14:06:20Z</time>
      </trkpt>
      <trkpt lat="47.79824" lon="-3.70769">
        <ele>36.2</ele>
        <time>2023-01-27T14:06:21Z</time>
      </trkpt>
      <trkpt lat="47.79825" lon="-3.70769">
        <ele>36.3</ele>
        <time>2023-01-27T14:06:22Z</time>
      </trkpt>
      <trkpt lat="47.79828" lon="-3.70767">
        <ele>36.5</ele>
        <time>2023-01-27T14:06:23Z</time>
      </trkpt>
      <trkpt lat="47.79829" lon="-3.70767">
        <ele>36.6</ele>
        <time>2023-01-27T14:06:24Z</time>
      </trkpt>
      <trkpt lat="47.79832" lon="-3.70767">
        <ele>36.8</ele>
        <time>2023-01-27T14:06:25Z</time>
      </trkpt>
      <trkpt lat="47.79835" lon="-3.70767">
        <ele>37</ele>
        <time>2023-01-27T14:06:26Z</time>
      </trkpt>
      <trkpt lat="47.79836" lon="-3.70767">
        <ele>37.1</ele>
        <time>2023-01-27T14:06:27Z</time>
      </trkpt>
      <trkpt lat="47.7984" lon="-3.70766">
        <ele>37.3</ele>
        <time>2023-01-27T14:06:28Z</time>
      </trkpt>
      <trkpt lat="47.79842" lon="-3.70767">
        <ele>37.4</ele>
        <time>2023-01-27T14:06:29Z</time>
      </trkpt>
      <trkpt lat="47.79844" lon="-3.70766">
        <ele>37.6</ele>
        <time>2023-01-27T14:06:31Z</time>
      </trkpt>
      <trkpt lat="47.79846" lon="-3.70766">
        <ele>37.7</ele>
        <time>2023-01-27T14:06:32Z</time>
      </trkpt>
      <trkpt lat="47.79848" lon="-3.70766">
        <ele>37.8</ele>
        <time>2023-01-27T14:06:33Z</time>
      </trkpt>
      <trkpt lat="47.7985" lon="-3.70767">
        <ele>37.9</ele>
        <time>2023-01-27T14:06:34Z</time>
      </trkpt>
      <trkpt lat="47.79851" lon="-3.70767">
        <ele>37.9</ele>
        <time>2023-01-27T14:06:35Z</time>
      </trkpt>
      <trkpt lat="47.79853" lon="-3.70767">
        <ele>38</ele>
        <time>2023-01-27T14:06:36Z</time>
      </trkpt>
      <trkpt lat="47.79855" lon="-3.70767">
        <ele>38.1</ele>
        <time>2023-01-27T14:06:37Z</time>
      </trkpt>
      <trkpt lat="47.79858" lon="-3.70767">
        <ele>38.2</ele>
        <time>2023-01-27T14:06:38Z</time>
      </trkpt>
      <trkpt lat="47.79859" lon="-3.70767">
        <ele>38.3</ele>
        <time>2023-01-27T14:06:39Z</time>
      </trkpt>
      <trkpt lat="47.79863" lon="-3.70766">
        <ele>38.4</ele>
        <time>2023-01-27T14:06:40Z</time>
      </trkpt>
      <trkpt lat="47.79865" lon="-3.70766">
        <ele>38.5</ele>
        <time>2023-01-27T14:06:41Z</time>
      </trkpt>
      <trkpt lat="47.79868" lon="-3.70766">
        <ele>38.6</ele>
        <time>2023-01-27T14:06:42Z</time>
      </trkpt>
      <trkpt lat="47.79871" lon="-3.70767">
        <ele>38.7</ele>
        <time>2023-01-27T14:06:43Z</time>
      </trkpt>
      <trkpt lat="47.79874" lon="-3.70767">
        <ele>38.8</ele>
        <time>2023-01-27T14:06:44Z</time>
      </trkpt>
      <trkpt lat="47.79875" lon="-3.70767">
        <ele>38.8</ele>
        <time>2023-01-27T14:06:45Z</time>
      </trkpt>
      <trkpt lat="47.79878" lon="-3.70768">
        <ele>38.9</ele>
        <time>2023-01-27T14:06:46Z</time>
      </trkpt>
      <trkpt lat="47.79879" lon="-3.70768">
        <ele>39</ele>
        <time>2023-01-27T14:06:47Z</time>
      </trkpt>
      <trkpt lat="47.79883" lon="-3.70768">
        <ele>39.1</ele>
        <time>2023-01-27T14:06:48Z</time>
      </trkpt>
      <trkpt lat="47.79884" lon="-3.70768">
        <ele>39.1</ele>
        <time>2023-01-27T14:06:49Z</time>
      </trkpt>
      <trkpt lat="47.79886" lon="-3.70769">
        <ele>39.1</ele>
        <time>2023-01-27T14:06:50Z</time>
      </trkpt>
      <trkpt lat="47.79887" lon="-3.70769">
        <ele>39.2</ele>
        <time>2023-01-27T14:06:51Z</time>
      </trkpt>
      <trkpt lat="47.79891" lon="-3.70769">
        <ele>39.2</ele>
        <time>2023-01-27T14:06:52Z</time>
      </trkpt>
      <trkpt lat="47.79892" lon="-3.7077">
        <ele>39.3</ele>
        <time>2023-01-27T14:06:53Z</time>
      </trkpt>
      <trkpt lat="47.79895" lon="-3.7077">
        <ele>39.3</ele>
        <time>2023-01-27T14:06:54Z</time>
      </trkpt>
      <trkpt lat="47.79898" lon="-3.70771">
        <ele>39.4</ele>
        <time>2023-01-27T14:06:55Z</time>
      </trkpt>
      <trkpt lat="47.79899" lon="-3.70772">
        <ele>39.5</ele>
        <time>2023-01-27T14:06:57Z</time>
      </trkpt>
      <trkpt lat="47.799" lon="-3.70777">
        <ele>39.6</ele>
        <time>2023-01-27T14:06:58Z</time>
      </trkpt>
      <trkpt lat="47.799" lon="-3.70786">
        <ele>39.8</ele>
        <time>2023-01-27T14:07:00Z</time>
      </trkpt>
      <trkpt lat="47.799" lon="-3.70791">
        <ele>39.7</ele>
        <time>2023-01-27T14:07:02Z</time>
      </trkpt>
      <trkpt lat="47.79902" lon="-3.70796">
        <ele>39.6</ele>
        <time>2023-01-27T14:07:03Z</time>
      </trkpt>
      <trkpt lat="47.79902" lon="-3.70798">
        <ele>39.5</ele>
        <time>2023-01-27T14:07:04Z</time>
      </trkpt>
      <trkpt lat="47.79902" lon="-3.70802">
        <ele>39.5</ele>
        <time>2023-01-27T14:07:05Z</time>
      </trkpt>
      <trkpt lat="47.79902" lon="-3.70807">
        <ele>39.4</ele>
        <time>2023-01-27T14:07:06Z</time>
      </trkpt>
      <trkpt lat="47.79903" lon="-3.70809">
        <ele>39.4</ele>
        <time>2023-01-27T14:07:07Z</time>
      </trkpt>
      <trkpt lat="47.79903" lon="-3.70814">
        <ele>39.3</ele>
        <time>2023-01-27T14:07:08Z</time>
      </trkpt>
      <trkpt lat="47.79904" lon="-3.70816">
        <ele>39.3</ele>
        <time>2023-01-27T14:07:09Z</time>
      </trkpt>
      <trkpt lat="47.79904" lon="-3.7082">
        <ele>39.2</ele>
        <time>2023-01-27T14:07:10Z</time>
      </trkpt>
      <trkpt lat="47.79904" lon="-3.70825">
        <ele>39.1</ele>
        <time>2023-01-27T14:07:11Z</time>
      </trkpt>
      <trkpt lat="47.79904" lon="-3.70831">
        <ele>39.1</ele>
        <time>2023-01-27T14:07:12Z</time>
      </trkpt>
      <trkpt lat="47.79904" lon="-3.70833">
        <ele>39</ele>
        <time>2023-01-27T14:07:13Z</time>
      </trkpt>
      <trkpt lat="47.79904" lon="-3.70837">
        <ele>39</ele>
        <time>2023-01-27T14:07:14Z</time>
      </trkpt>
      <trkpt lat="47.79904" lon="-3.70843">
        <ele>38.9</ele>
        <time>2023-01-27T14:07:15Z</time>
      </trkpt>
      <trkpt lat="47.79902" lon="-3.70852">
        <ele>38.7</ele>
        <time>2023-01-27T14:07:17Z</time>
      </trkpt>
      <trkpt lat="47.79901" lon="-3.70855">
        <ele>38.6</ele>
        <time>2023-01-27T14:07:18Z</time>
      </trkpt>
      <trkpt lat="47.799" lon="-3.70859">
        <ele>38.5</ele>
        <time>2023-01-27T14:07:20Z</time>
      </trkpt>
      <trkpt lat="47.79899" lon="-3.70862">
        <ele>38.4</ele>
        <time>2023-01-27T14:07:21Z</time>
      </trkpt>
      <trkpt lat="47.79897" lon="-3.70863">
        <ele>38.2</ele>
        <time>2023-01-27T14:07:22Z</time>
      </trkpt>
      <trkpt lat="47.79894" lon="-3.70863">
        <ele>37.9</ele>
        <time>2023-01-27T14:07:23Z</time>
      </trkpt>
      <trkpt lat="47.79892" lon="-3.70863">
        <ele>37.8</ele>
        <time>2023-01-27T14:07:24Z</time>
      </trkpt>
      <trkpt lat="47.79889" lon="-3.70863">
        <ele>37.6</ele>
        <time>2023-01-27T14:07:25Z</time>
      </trkpt>
      <trkpt lat="47.79885" lon="-3.70863">
        <ele>37.3</ele>
        <time>2023-01-27T14:07:26Z</time>
      </trkpt>
      <trkpt lat="47.79883" lon="-3.70863">
        <ele>37.1</ele>
        <time>2023-01-27T14:07:27Z</time>
      </trkpt>
      <trkpt lat="47.79879" lon="-3.70863">
        <ele>36.9</ele>
        <time>2023-01-27T14:07:28Z</time>
      </trkpt>
      <trkpt lat="47.79878" lon="-3.70863">
        <ele>36.8</ele>
        <time>2023-01-27T14:07:29Z</time>
      </trkpt>
      <trkpt lat="47.79875" lon="-3.70863">
        <ele>36.6</ele>
        <time>2023-01-27T14:07:30Z</time>
      </trkpt>
      <trkpt lat="47.79874" lon="-3.70862">
        <ele>36.6</ele>
        <time>2023-01-27T14:07:31Z</time>
      </trkpt>
      <trkpt lat="47.7987" lon="-3.70862">
        <ele>36.3</ele>
        <time>2023-01-27T14:07:33Z</time>
      </trkpt>
      <trkpt lat="47.79869" lon="-3.70862">
        <ele>36.3</ele>
        <time>2023-01-27T14:07:34Z</time>
      </trkpt>
      <trkpt lat="47.79866" lon="-3.70863">
        <ele>36.1</ele>
        <time>2023-01-27T14:07:35Z</time>
      </trkpt>
      <trkpt lat="47.79864" lon="-3.70864">
        <ele>36</ele>
        <time>2023-01-27T14:07:36Z</time>
      </trkpt>
      <trkpt lat="47.79864" lon="-3.70867">
        <ele>35.9</ele>
        <time>2023-01-27T14:07:37Z</time>
      </trkpt>
      <trkpt lat="47.79864" lon="-3.7087">
        <ele>35.8</ele>
        <time>2023-01-27T14:07:39Z</time>
      </trkpt>
      <trkpt lat="47.79865" lon="-3.70872">
        <ele>35.8</ele>
        <time>2023-01-27T14:07:40Z</time>
      </trkpt>
      <trkpt lat="47.79864" lon="-3.70874">
        <ele>35.7</ele>
        <time>2023-01-27T14:07:41Z</time>
      </trkpt>
      <trkpt lat="47.79864" lon="-3.70876">
        <ele>35.6</ele>
        <time>2023-01-27T14:07:42Z</time>
      </trkpt>
      <trkpt lat="47.79862" lon="-3.70878">
        <ele>35.4</ele>
        <time>2023-01-27T14:07:44Z</time>
      </trkpt>
      <trkpt lat="47.7986" lon="-3.70879">
        <ele>35.3</ele>
        <time>2023-01-27T14:07:45Z</time>
      </trkpt>
      <trkpt lat="47.79857" lon="-3.70879">
        <ele>35.1</ele>
        <time>2023-01-27T14:07:47Z</time>
      </trkpt>
      <trkpt lat="47.79853" lon="-3.70881">
        <ele>34.7</ele>
        <time>2023-01-27T14:07:48Z</time>
      </trkpt>
      <trkpt lat="47.79852" lon="-3.70881">
        <ele>34.6</ele>
        <time>2023-01-27T14:07:49Z</time>
      </trkpt>
      <trkpt lat="47.79849" lon="-3.70882">
        <ele>34.4</ele>
        <time>2023-01-27T14:07:50Z</time>
      </trkpt>
      <trkpt lat="47.79846" lon="-3.70882">
        <ele>34.2</ele>
        <time>2023-01-27T14:07:51Z</time>
      </trkpt>
      <trkpt lat="47.79842" lon="-3.70882">
        <ele>33.9</ele>
        <time>2023-01-27T14:07:52Z</time>
      </trkpt>
      <trkpt lat="47.79841" lon="-3.70883">
        <ele>33.9</ele>
        <time>2023-01-27T14:07:53Z</time>
      </trkpt>
      <trkpt lat="47.79836" lon="-3.70885">
        <ele>33.6</ele>
        <time>2023-01-27T14:07:54Z</time>
      </trkpt>
      <trkpt lat="47.7983" lon="-3.70886">
        <ele>33.2</ele>
        <time>2023-01-27T14:07:56Z</time>
      </trkpt>
      <trkpt lat="47.79827" lon="-3.70886">
        <ele>33.1</ele>
        <time>2023-01-27T14:07:57Z</time>
      </trkpt>
      <trkpt lat="47.79823" lon="-3.70887">
        <ele>32.9</ele>
        <time>2023-01-27T14:07:59Z</time>
      </trkpt>
      <trkpt lat="47.7982" lon="-3.70888">
        <ele>32.8</ele>
        <time>2023-01-27T14:08:00Z</time>
      </trkpt>
      <trkpt lat="47.79816" lon="-3.7089">
        <ele>32.6</ele>
        <time>2023-01-27T14:08:01Z</time>
      </trkpt>
      <trkpt lat="47.79812" lon="-3.70892">
        <ele>32.5</ele>
        <time>2023-01-27T14:08:02Z</time>
      </trkpt>
      <trkpt lat="47.79807" lon="-3.70893">
        <ele>32.2</ele>
        <time>2023-01-27T14:08:03Z</time>
      </trkpt>
      <trkpt lat="47.79803" lon="-3.70895">
        <ele>32.2</ele>
        <time>2023-01-27T14:08:04Z</time>
      </trkpt>
      <trkpt lat="47.79799" lon="-3.70897">
        <ele>32.2</ele>
        <time>2023-01-27T14:08:05Z</time>
      </trkpt>
      <trkpt lat="47.79795" lon="-3.70901">
        <ele>32.2</ele>
        <time>2023-01-27T14:08:06Z</time>
      </trkpt>
      <trkpt lat="47.79793" lon="-3.70905">
        <ele>32.3</ele>
        <time>2023-01-27T14:08:07Z</time>
      </trkpt>
      <trkpt lat="47.79792" lon="-3.70915">
        <ele>32.5</ele>
        <time>2023-01-27T14:08:09Z</time>
      </trkpt>
      <trkpt lat="47.79792" lon="-3.7092">
        <ele>32.6</ele>
        <time>2023-01-27T14:08:10Z</time>
      </trkpt>
      <trkpt lat="47.79793" lon="-3.70925">
        <ele>32.8</ele>
        <time>2023-01-27T14:08:11Z</time>
      </trkpt>
      <trkpt lat="47.79793" lon="-3.70929">
        <ele>32.8</ele>
        <time>2023-01-27T14:08:12Z</time>
      </trkpt>
      <trkpt lat="47.79794" lon="-3.70933">
        <ele>33.1</ele>
        <time>2023-01-27T14:08:13Z</time>
      </trkpt>
      <trkpt lat="47.79794" lon="-3.70938">
        <ele>33.3</ele>
        <time>2023-01-27T14:08:14Z</time>
      </trkpt>
      <trkpt lat="47.79794" lon="-3.70939">
        <ele>33.3</ele>
        <time>2023-01-27T14:08:15Z</time>
      </trkpt>
      <trkpt lat="47.79794" lon="-3.70944">
        <ele>33.5</ele>
        <time>2023-01-27T14:08:16Z</time>
      </trkpt>
      <trkpt lat="47.79794" lon="-3.70946">
        <ele>33.5</ele>
        <time>2023-01-27T14:08:17Z</time>
      </trkpt>
      <trkpt lat="47.79796" lon="-3.70951">
        <ele>33.7</ele>
        <time>2023-01-27T14:08:18Z</time>
      </trkpt>
      <trkpt lat="47.79796" lon="-3.70952">
        <ele>33.8</ele>
        <time>2023-01-27T14:08:19Z</time>
      </trkpt>
      <trkpt lat="47.79797" lon="-3.70956">
        <ele>33.9</ele>
        <time>2023-01-27T14:08:20Z</time>
      </trkpt>
      <trkpt lat="47.79798" lon="-3.70957">
        <ele>34</ele>
        <time>2023-01-27T14:08:21Z</time>
      </trkpt>
      <trkpt lat="47.798" lon="-3.70961">
        <ele>34.1</ele>
        <time>2023-01-27T14:08:22Z</time>
      </trkpt>
      <trkpt lat="47.798" lon="-3.70963">
        <ele>34.2</ele>
        <time>2023-01-27T14:08:23Z</time>
      </trkpt>
      <trkpt lat="47.79803" lon="-3.70967">
        <ele>34.4</ele>
        <time>2023-01-27T14:08:24Z</time>
      </trkpt>
      <trkpt lat="47.79803" lon="-3.70969">
        <ele>34.4</ele>
        <time>2023-01-27T14:08:25Z</time>
      </trkpt>
      <trkpt lat="47.79807" lon="-3.70975">
        <ele>34.7</ele>
        <time>2023-01-27T14:08:26Z</time>
      </trkpt>
      <trkpt lat="47.79808" lon="-3.70978">
        <ele>34.8</ele>
        <time>2023-01-27T14:08:27Z</time>
      </trkpt>
      <trkpt lat="47.79809" lon="-3.70981">
        <ele>34.9</ele>
        <time>2023-01-27T14:08:28Z</time>
      </trkpt>
      <trkpt lat="47.79809" lon="-3.70985">
        <ele>35</ele>
        <time>2023-01-27T14:08:29Z</time>
      </trkpt>
      <trkpt lat="47.79809" lon="-3.70991">
        <ele>35.2</ele>
        <time>2023-01-27T14:08:31Z</time>
      </trkpt>
      <trkpt lat="47.79808" lon="-3.70996">
        <ele>35.3</ele>
        <time>2023-01-27T14:08:32Z</time>
      </trkpt>
      <trkpt lat="47.79809" lon="-3.71">
        <ele>35.5</ele>
        <time>2023-01-27T14:08:33Z</time>
      </trkpt>
      <trkpt lat="47.79809" lon="-3.71006">
        <ele>35.6</ele>
        <time>2023-01-27T14:08:34Z</time>
      </trkpt>
      <trkpt lat="47.7981" lon="-3.71012">
        <ele>35.7</ele>
        <time>2023-01-27T14:08:35Z</time>
      </trkpt>
      <trkpt lat="47.7981" lon="-3.71016">
        <ele>35.9</ele>
        <time>2023-01-27T14:08:36Z</time>
      </trkpt>
      <trkpt lat="47.7981" lon="-3.71022">
        <ele>36</ele>
        <time>2023-01-27T14:08:37Z</time>
      </trkpt>
      <trkpt lat="47.79808" lon="-3.71027">
        <ele>36.1</ele>
        <time>2023-01-27T14:08:38Z</time>
      </trkpt>
      <trkpt lat="47.79807" lon="-3.71031">
        <ele>36.4</ele>
        <time>2023-01-27T14:08:39Z</time>
        <extensions>
          <visugpx:TrkExtension xmlns:visugpx="https://www.visugpx.com/editgpx/">
            <visugpx:node>1</visugpx:node>
            </visugpx:TrkExtension>
        </extensions>
      </trkpt>
      <trkpt lat="47.79804" lon="-3.71045">
        <ele>36.4</ele>
        <time>2023-01-27T14:12:28Z</time>
        <extensions>
          <visugpx:TrkExtension xmlns:visugpx="https://www.visugpx.com/editgpx/">
            <visugpx:node>2</visugpx:node>
            </visugpx:TrkExtension>
        </extensions>
      </trkpt>
      <trkpt lat="47.79801" lon="-3.7105">
        <ele>36.4</ele>
        <time>2023-01-27T14:12:29Z</time>
      </trkpt>
      <trkpt lat="47.798" lon="-3.71053">
        <ele>36.4</ele>
        <time>2023-01-27T14:12:30Z</time>
      </trkpt>
      <trkpt lat="47.79799" lon="-3.71059">
        <ele>36.4</ele>
        <time>2023-01-27T14:12:31Z</time>
      </trkpt>
      <trkpt lat="47.79796" lon="-3.71066">
        <ele>36.5</ele>
        <time>2023-01-27T14:12:32Z</time>
      </trkpt>
      <trkpt lat="47.79792" lon="-3.71072">
        <ele>36.5</ele>
        <time>2023-01-27T14:12:34Z</time>
      </trkpt>
      <trkpt lat="47.7979" lon="-3.71078">
        <ele>36.5</ele>
        <time>2023-01-27T14:12:35Z</time>
      </trkpt>
      <trkpt lat="47.79788" lon="-3.71085">
        <ele>36.5</ele>
        <time>2023-01-27T14:12:36Z</time>
      </trkpt>
      <trkpt lat="47.79786" lon="-3.71095">
        <ele>36.5</ele>
        <time>2023-01-27T14:12:37Z</time>
      </trkpt>
      <trkpt lat="47.79785" lon="-3.71102">
        <ele>36.5</ele>
        <time>2023-01-27T14:12:39Z</time>
      </trkpt>
      <trkpt lat="47.79785" lon="-3.71108">
        <ele>36.5</ele>
        <time>2023-01-27T14:12:40Z</time>
      </trkpt>
      <trkpt lat="47.79785" lon="-3.71113">
        <ele>36.5</ele>
        <time>2023-01-27T14:12:41Z</time>
      </trkpt>
      <trkpt lat="47.79784" lon="-3.7112">
        <ele>36.5</ele>
        <time>2023-01-27T14:12:42Z</time>
      </trkpt>
      <trkpt lat="47.79784" lon="-3.71126">
        <ele>36.6</ele>
        <time>2023-01-27T14:12:43Z</time>
      </trkpt>
      <trkpt lat="47.79783" lon="-3.71135">
        <ele>36.6</ele>
        <time>2023-01-27T14:12:44Z</time>
      </trkpt>
      <trkpt lat="47.79782" lon="-3.71141">
        <ele>36.6</ele>
        <time>2023-01-27T14:12:45Z</time>
      </trkpt>
      <trkpt lat="47.79782" lon="-3.71147">
        <ele>36.7</ele>
        <time>2023-01-27T14:12:46Z</time>
      </trkpt>
      <trkpt lat="47.79782" lon="-3.71153">
        <ele>36.7</ele>
        <time>2023-01-27T14:12:47Z</time>
      </trkpt>
      <trkpt lat="47.79782" lon="-3.71164">
        <ele>36.8</ele>
        <time>2023-01-27T14:12:48Z</time>
      </trkpt>
      <trkpt lat="47.79783" lon="-3.71174">
        <ele>36.8</ele>
        <time>2023-01-27T14:12:50Z</time>
      </trkpt>
      <trkpt lat="47.79785" lon="-3.71181">
        <ele>36.8</ele>
        <time>2023-01-27T14:12:51Z</time>
      </trkpt>
      <trkpt lat="47.79788" lon="-3.71185">
        <ele>36.8</ele>
        <time>2023-01-27T14:12:52Z</time>
      </trkpt>
      <trkpt lat="47.79789" lon="-3.71192">
        <ele>36.8</ele>
        <time>2023-01-27T14:12:53Z</time>
      </trkpt>
      <trkpt lat="47.79791" lon="-3.712">
        <ele>36.8</ele>
        <time>2023-01-27T14:12:54Z</time>
      </trkpt>
      <trkpt lat="47.79793" lon="-3.71208">
        <ele>36.8</ele>
        <time>2023-01-27T14:12:56Z</time>
      </trkpt>
      <trkpt lat="47.79795" lon="-3.71219">
        <ele>36.8</ele>
        <time>2023-01-27T14:12:57Z</time>
      </trkpt>
      <trkpt lat="47.79795" lon="-3.71226">
        <ele>36.7</ele>
        <time>2023-01-27T14:12:59Z</time>
      </trkpt>
      <trkpt lat="47.79796" lon="-3.71233">
        <ele>36.7</ele>
        <time>2023-01-27T14:13:00Z</time>
      </trkpt>
      <trkpt lat="47.79798" lon="-3.71239">
        <ele>36.6</ele>
        <time>2023-01-27T14:13:01Z</time>
      </trkpt>
      <trkpt lat="47.79799" lon="-3.71245">
        <ele>36.6</ele>
        <time>2023-01-27T14:13:02Z</time>
      </trkpt>
      <trkpt lat="47.79798" lon="-3.71251">
        <ele>36.5</ele>
        <time>2023-01-27T14:13:03Z</time>
      </trkpt>
      <trkpt lat="47.79798" lon="-3.7126">
        <ele>36.5</ele>
        <time>2023-01-27T14:13:04Z</time>
      </trkpt>
      <trkpt lat="47.79797" lon="-3.71271">
        <ele>36.4</ele>
        <time>2023-01-27T14:13:06Z</time>
      </trkpt>
      <trkpt lat="47.79796" lon="-3.71277">
        <ele>36.3</ele>
        <time>2023-01-27T14:13:07Z</time>
      </trkpt>
      <trkpt lat="47.79795" lon="-3.71285">
        <ele>36.2</ele>
        <time>2023-01-27T14:13:08Z</time>
      </trkpt>
      <trkpt lat="47.79794" lon="-3.71292">
        <ele>36.1</ele>
        <time>2023-01-27T14:13:09Z</time>
      </trkpt>
      <trkpt lat="47.79794" lon="-3.71299">
        <ele>36.1</ele>
        <time>2023-01-27T14:13:10Z</time>
      </trkpt>
      <trkpt lat="47.79793" lon="-3.71306">
        <ele>36</ele>
        <time>2023-01-27T14:13:11Z</time>
      </trkpt>
      <trkpt lat="47.79792" lon="-3.71313">
        <ele>35.9</ele>
        <time>2023-01-27T14:13:12Z</time>
      </trkpt>
      <trkpt lat="47.79791" lon="-3.7132">
        <ele>35.9</ele>
        <time>2023-01-27T14:13:13Z</time>
      </trkpt>
      <trkpt lat="47.79791" lon="-3.71325">
        <ele>35.8</ele>
        <time>2023-01-27T14:13:14Z</time>
      </trkpt>
      <trkpt lat="47.7979" lon="-3.71332">
        <ele>35.7</ele>
        <time>2023-01-27T14:13:15Z</time>
      </trkpt>
      <trkpt lat="47.7979" lon="-3.71338">
        <ele>35.6</ele>
        <time>2023-01-27T14:13:16Z</time>
      </trkpt>
      <trkpt lat="47.79789" lon="-3.71346">
        <ele>35.5</ele>
        <time>2023-01-27T14:13:17Z</time>
      </trkpt>
      <trkpt lat="47.79789" lon="-3.71353">
        <ele>35.4</ele>
        <time>2023-01-27T14:13:18Z</time>
      </trkpt>
      <trkpt lat="47.79788" lon="-3.71359">
        <ele>35.2</ele>
        <time>2023-01-27T14:13:19Z</time>
      </trkpt>
      <trkpt lat="47.79787" lon="-3.71366">
        <ele>35.1</ele>
        <time>2023-01-27T14:13:20Z</time>
      </trkpt>
      <trkpt lat="47.79786" lon="-3.71373">
        <ele>35</ele>
        <time>2023-01-27T14:13:21Z</time>
      </trkpt>
      <trkpt lat="47.79785" lon="-3.7138">
        <ele>34.8</ele>
        <time>2023-01-27T14:13:22Z</time>
      </trkpt>
      <trkpt lat="47.79785" lon="-3.71386">
        <ele>34.7</ele>
        <time>2023-01-27T14:13:23Z</time>
      </trkpt>
      <trkpt lat="47.79784" lon="-3.71391">
        <ele>34.6</ele>
        <time>2023-01-27T14:13:24Z</time>
      </trkpt>
      <trkpt lat="47.79783" lon="-3.71399">
        <ele>34.4</ele>
        <time>2023-01-27T14:13:25Z</time>
      </trkpt>
      <trkpt lat="47.79782" lon="-3.71407">
        <ele>34.1</ele>
        <time>2023-01-27T14:13:26Z</time>
      </trkpt>
      <trkpt lat="47.79781" lon="-3.71413">
        <ele>33.4</ele>
        <time>2023-01-27T14:13:27Z</time>
      </trkpt>
      <trkpt lat="47.79779" lon="-3.71418">
        <ele>33.3</ele>
        <time>2023-01-27T14:13:29Z</time>
      </trkpt>
      <trkpt lat="47.79778" lon="-3.71417">
        <ele>33.3</ele>
        <time>2023-01-27T14:13:30Z</time>
      </trkpt>
      <trkpt lat="47.79776" lon="-3.71417">
        <ele>33.3</ele>
        <time>2023-01-27T14:13:31Z</time>
      </trkpt>
      <trkpt lat="47.79772" lon="-3.71415">
        <ele>33.2</ele>
        <time>2023-01-27T14:13:32Z</time>
      </trkpt>
      <trkpt lat="47.7977" lon="-3.71414">
        <ele>33.1</ele>
        <time>2023-01-27T14:13:33Z</time>
      </trkpt>
      <trkpt lat="47.79764" lon="-3.71412">
        <ele>33</ele>
        <time>2023-01-27T14:13:34Z</time>
      </trkpt>
      <trkpt lat="47.7976" lon="-3.71411">
        <ele>32.9</ele>
        <time>2023-01-27T14:13:35Z</time>
      </trkpt>
      <trkpt lat="47.79753" lon="-3.71408">
        <ele>32.7</ele>
        <time>2023-01-27T14:13:37Z</time>
      </trkpt>
      <trkpt lat="47.7975" lon="-3.71406">
        <ele>32.7</ele>
        <time>2023-01-27T14:13:39Z</time>
      </trkpt>
      <trkpt lat="47.79743" lon="-3.71402">
        <ele>32.5</ele>
        <time>2023-01-27T14:13:40Z</time>
      </trkpt>
      <trkpt lat="47.79737" lon="-3.714">
        <ele>32.4</ele>
        <time>2023-01-27T14:13:42Z</time>
      </trkpt>
      <trkpt lat="47.79734" lon="-3.71398">
        <ele>32.3</ele>
        <time>2023-01-27T14:13:44Z</time>
      </trkpt>
      <trkpt lat="47.7973" lon="-3.71396">
        <ele>32.2</ele>
        <time>2023-01-27T14:13:45Z</time>
      </trkpt>
      <trkpt lat="47.79727" lon="-3.71395">
        <ele>32.1</ele>
        <time>2023-01-27T14:13:46Z</time>
      </trkpt>
      <trkpt lat="47.79724" lon="-3.71394">
        <ele>32.1</ele>
        <time>2023-01-27T14:13:47Z</time>
      </trkpt>
      <trkpt lat="47.7972" lon="-3.71393">
        <ele>32</ele>
        <time>2023-01-27T14:13:48Z</time>
      </trkpt>
      <trkpt lat="47.79717" lon="-3.71392">
        <ele>31.9</ele>
        <time>2023-01-27T14:13:49Z</time>
      </trkpt>
      <trkpt lat="47.79714" lon="-3.71391">
        <ele>31.8</ele>
        <time>2023-01-27T14:13:50Z</time>
      </trkpt>
      <trkpt lat="47.79711" lon="-3.71389">
        <ele>31.8</ele>
        <time>2023-01-27T14:13:51Z</time>
      </trkpt>
      <trkpt lat="47.79707" lon="-3.71388">
        <ele>31.7</ele>
        <time>2023-01-27T14:13:52Z</time>
      </trkpt>
      <trkpt lat="47.79706" lon="-3.71388">
        <ele>31.7</ele>
        <time>2023-01-27T14:13:53Z</time>
      </trkpt>
      <trkpt lat="47.79703" lon="-3.71386">
        <ele>31.6</ele>
        <time>2023-01-27T14:13:54Z</time>
      </trkpt>
      <trkpt lat="47.79699" lon="-3.71384">
        <ele>31.5</ele>
        <time>2023-01-27T14:13:55Z</time>
      </trkpt>
      <trkpt lat="47.79698" lon="-3.71383">
        <ele>31.4</ele>
        <time>2023-01-27T14:13:56Z</time>
      </trkpt>
      <trkpt lat="47.79695" lon="-3.71382">
        <ele>31.4</ele>
        <time>2023-01-27T14:13:57Z</time>
      </trkpt>
      <trkpt lat="47.79691" lon="-3.71381">
        <ele>31.3</ele>
        <time>2023-01-27T14:13:58Z</time>
      </trkpt>
      <trkpt lat="47.79689" lon="-3.7138">
        <ele>31.3</ele>
        <time>2023-01-27T14:13:59Z</time>
      </trkpt>
      <trkpt lat="47.79686" lon="-3.71378">
        <ele>31.2</ele>
        <time>2023-01-27T14:14:00Z</time>
      </trkpt>
      <trkpt lat="47.79682" lon="-3.71377">
        <ele>31.1</ele>
        <time>2023-01-27T14:14:01Z</time>
      </trkpt>
      <trkpt lat="47.79678" lon="-3.71375">
        <ele>31</ele>
        <time>2023-01-27T14:14:02Z</time>
      </trkpt>
      <trkpt lat="47.79674" lon="-3.71374">
        <ele>30.9</ele>
        <time>2023-01-27T14:14:03Z</time>
      </trkpt>
      <trkpt lat="47.79671" lon="-3.71372">
        <ele>30.8</ele>
        <time>2023-01-27T14:14:04Z</time>
      </trkpt>
      <trkpt lat="47.79667" lon="-3.71371">
        <ele>30.7</ele>
        <time>2023-01-27T14:14:05Z</time>
      </trkpt>
      <trkpt lat="47.79663" lon="-3.7137">
        <ele>30.7</ele>
        <time>2023-01-27T14:14:06Z</time>
      </trkpt>
      <trkpt lat="47.7966" lon="-3.71369">
        <ele>30.6</ele>
        <time>2023-01-27T14:14:07Z</time>
      </trkpt>
      <trkpt lat="47.79657" lon="-3.71369">
        <ele>30.5</ele>
        <time>2023-01-27T14:14:08Z</time>
      </trkpt>
      <trkpt lat="47.79656" lon="-3.71369">
        <ele>30.5</ele>
        <time>2023-01-27T14:14:09Z</time>
      </trkpt>
      <trkpt lat="47.79655" lon="-3.71371">
        <ele>30.5</ele>
        <time>2023-01-27T14:14:10Z</time>
      </trkpt>
      <trkpt lat="47.79654" lon="-3.71372">
        <ele>30.4</ele>
        <time>2023-01-27T14:14:11Z</time>
      </trkpt>
      <trkpt lat="47.79652" lon="-3.71375">
        <ele>30.4</ele>
        <time>2023-01-27T14:14:12Z</time>
      </trkpt>
      <trkpt lat="47.79649" lon="-3.71378">
        <ele>30.3</ele>
        <time>2023-01-27T14:14:13Z</time>
      </trkpt>
      <trkpt lat="47.79648" lon="-3.7138">
        <ele>30.3</ele>
        <time>2023-01-27T14:14:14Z</time>
      </trkpt>
      <trkpt lat="47.79646" lon="-3.71382">
        <ele>30.2</ele>
        <time>2023-01-27T14:14:15Z</time>
      </trkpt>
      <trkpt lat="47.79645" lon="-3.71384">
        <ele>30.2</ele>
        <time>2023-01-27T14:14:16Z</time>
      </trkpt>
      <trkpt lat="47.79643" lon="-3.71388">
        <ele>30</ele>
        <time>2023-01-27T14:14:17Z</time>
      </trkpt>
      <trkpt lat="47.79642" lon="-3.71392">
        <ele>29.8</ele>
        <time>2023-01-27T14:14:19Z</time>
      </trkpt>
      <trkpt lat="47.79643" lon="-3.71398">
        <ele>29.5</ele>
        <time>2023-01-27T14:14:20Z</time>
      </trkpt>
      <trkpt lat="47.79646" lon="-3.71408">
        <ele>29.1</ele>
        <time>2023-01-27T14:14:21Z</time>
      </trkpt>
      <trkpt lat="47.79648" lon="-3.71415">
        <ele>28.7</ele>
        <time>2023-01-27T14:14:22Z</time>
      </trkpt>
      <trkpt lat="47.7965" lon="-3.71424">
        <ele>28.3</ele>
        <time>2023-01-27T14:14:23Z</time>
      </trkpt>
      <trkpt lat="47.79648" lon="-3.71431">
        <ele>28.1</ele>
        <time>2023-01-27T14:14:24Z</time>
      </trkpt>
      <trkpt lat="47.79647" lon="-3.71438">
        <ele>27.8</ele>
        <time>2023-01-27T14:14:25Z</time>
      </trkpt>
      <trkpt lat="47.79645" lon="-3.71445">
        <ele>27.4</ele>
        <time>2023-01-27T14:14:26Z</time>
      </trkpt>
      <trkpt lat="47.79645" lon="-3.71452">
        <ele>27.1</ele>
        <time>2023-01-27T14:14:27Z</time>
      </trkpt>
      <trkpt lat="47.79646" lon="-3.71457">
        <ele>26.9</ele>
        <time>2023-01-27T14:14:28Z</time>
      </trkpt>
      <trkpt lat="47.79647" lon="-3.71463">
        <ele>26.5</ele>
        <time>2023-01-27T14:14:29Z</time>
      </trkpt>
      <trkpt lat="47.79649" lon="-3.71465">
        <ele>26.6</ele>
        <time>2023-01-27T14:14:30Z</time>
      </trkpt>
      <trkpt lat="47.7965" lon="-3.71463">
        <ele>26.6</ele>
        <time>2023-01-27T14:14:31Z</time>
      </trkpt>
      <trkpt lat="47.79653" lon="-3.71463">
        <ele>26.8</ele>
        <time>2023-01-27T14:14:32Z</time>
      </trkpt>
      <trkpt lat="47.79654" lon="-3.71463">
        <ele>26.8</ele>
        <time>2023-01-27T14:14:33Z</time>
      </trkpt>
      <trkpt lat="47.79658" lon="-3.71464">
        <ele>26.9</ele>
        <time>2023-01-27T14:14:34Z</time>
      </trkpt>
      <trkpt lat="47.79659" lon="-3.71464">
        <ele>27</ele>
        <time>2023-01-27T14:14:35Z</time>
      </trkpt>
      <trkpt lat="47.79662" lon="-3.71465">
        <ele>27.1</ele>
        <time>2023-01-27T14:14:36Z</time>
      </trkpt>
      <trkpt lat="47.79664" lon="-3.71465">
        <ele>27.2</ele>
        <time>2023-01-27T14:14:37Z</time>
      </trkpt>
      <trkpt lat="47.79667" lon="-3.71466">
        <ele>27.3</ele>
        <time>2023-01-27T14:14:38Z</time>
      </trkpt>
      <trkpt lat="47.7967" lon="-3.71467">
        <ele>27.4</ele>
        <time>2023-01-27T14:14:39Z</time>
      </trkpt>
      <trkpt lat="47.79673" lon="-3.71468">
        <ele>27.5</ele>
        <time>2023-01-27T14:14:40Z</time>
      </trkpt>
      <trkpt lat="47.79676" lon="-3.71468">
        <ele>27.6</ele>
        <time>2023-01-27T14:14:41Z</time>
      </trkpt>
      <trkpt lat="47.7968" lon="-3.71469">
        <ele>27.8</ele>
        <time>2023-01-27T14:14:42Z</time>
      </trkpt>
      <trkpt lat="47.79683" lon="-3.7147">
        <ele>27.9</ele>
        <time>2023-01-27T14:14:43Z</time>
      </trkpt>
      <trkpt lat="47.79687" lon="-3.7147">
        <ele>28</ele>
        <time>2023-01-27T14:14:45Z</time>
      </trkpt>
      <trkpt lat="47.79688" lon="-3.71471">
        <ele>28</ele>
        <time>2023-01-27T14:14:46Z</time>
      </trkpt>
      <trkpt lat="47.79688" lon="-3.71471">
        <ele>28.1</ele>
        <time>2023-01-27T14:14:48Z</time>
      </trkpt>
      <trkpt lat="47.79689" lon="-3.71471">
        <ele>28.1</ele>
        <time>2023-01-27T14:14:49Z</time>
      </trkpt>
      <trkpt lat="47.79689" lon="-3.71471">
        <ele>28.1</ele>
        <time>2023-01-27T14:14:50Z</time>
      </trkpt>
      <trkpt lat="47.7969" lon="-3.71472">
        <ele>28.1</ele>
        <time>2023-01-27T14:14:51Z</time>
      </trkpt>
      <trkpt lat="47.7969" lon="-3.71472">
        <ele>28.1</ele>
        <time>2023-01-27T14:14:52Z</time>
      </trkpt>
      <trkpt lat="47.79691" lon="-3.71472">
        <ele>28.2</ele>
        <time>2023-01-27T14:14:53Z</time>
      </trkpt>
      <trkpt lat="47.79691" lon="-3.71472">
        <ele>28.2</ele>
        <time>2023-01-27T14:14:54Z</time>
      </trkpt>
      <trkpt lat="47.79692" lon="-3.71473">
        <ele>28.2</ele>
        <time>2023-01-27T14:14:56Z</time>
      </trkpt>
      <trkpt lat="47.79692" lon="-3.71473">
        <ele>28.2</ele>
        <time>2023-01-27T14:16:19Z</time>
      </trkpt>
      <trkpt lat="47.79693" lon="-3.71473">
        <ele>28.2</ele>
        <time>2023-01-27T14:16:20Z</time>
      </trkpt>
      <trkpt lat="47.79693" lon="-3.71473">
        <ele>28.3</ele>
        <time>2023-01-27T14:16:21Z</time>
      </trkpt>
      <trkpt lat="47.79697" lon="-3.71474">
        <ele>28.4</ele>
        <time>2023-01-27T14:16:22Z</time>
      </trkpt>
      <trkpt lat="47.79698" lon="-3.71475">
        <ele>28.5</ele>
        <time>2023-01-27T14:16:23Z</time>
      </trkpt>
      <trkpt lat="47.79702" lon="-3.71475">
        <ele>28.6</ele>
        <time>2023-01-27T14:16:24Z</time>
      </trkpt>
      <trkpt lat="47.79703" lon="-3.71476">
        <ele>28.6</ele>
        <time>2023-01-27T14:16:25Z</time>
      </trkpt>
      <trkpt lat="47.79706" lon="-3.71477">
        <ele>28.7</ele>
        <time>2023-01-27T14:16:26Z</time>
      </trkpt>
      <trkpt lat="47.79708" lon="-3.71477">
        <ele>28.8</ele>
        <time>2023-01-27T14:16:27Z</time>
      </trkpt>
      <trkpt lat="47.79712" lon="-3.71477">
        <ele>29</ele>
        <time>2023-01-27T14:16:28Z</time>
      </trkpt>
      <trkpt lat="47.79715" lon="-3.71477">
        <ele>29.1</ele>
        <time>2023-01-27T14:16:29Z</time>
      </trkpt>
      <trkpt lat="47.79718" lon="-3.71478">
        <ele>29.2</ele>
        <time>2023-01-27T14:16:30Z</time>
      </trkpt>
      <trkpt lat="47.79721" lon="-3.71479">
        <ele>29.3</ele>
        <time>2023-01-27T14:16:31Z</time>
      </trkpt>
      <trkpt lat="47.79724" lon="-3.71479">
        <ele>29.4</ele>
        <time>2023-01-27T14:16:32Z</time>
      </trkpt>
      <trkpt lat="47.79727" lon="-3.7148">
        <ele>29.5</ele>
        <time>2023-01-27T14:16:34Z</time>
      </trkpt>
      <trkpt lat="47.79732" lon="-3.71481">
        <ele>29.7</ele>
        <time>2023-01-27T14:16:36Z</time>
      </trkpt>
      <trkpt lat="47.79734" lon="-3.71482">
        <ele>29.8</ele>
        <time>2023-01-27T14:16:37Z</time>
      </trkpt>
      <trkpt lat="47.79735" lon="-3.71483">
        <ele>29.8</ele>
        <time>2023-01-27T14:16:38Z</time>
      </trkpt>
      <trkpt lat="47.79739" lon="-3.71484">
        <ele>30</ele>
        <time>2023-01-27T14:16:39Z</time>
      </trkpt>
      <trkpt lat="47.7974" lon="-3.71484">
        <ele>30</ele>
        <time>2023-01-27T14:16:40Z</time>
      </trkpt>
      <trkpt lat="47.79743" lon="-3.71485">
        <ele>30.1</ele>
        <time>2023-01-27T14:16:41Z</time>
      </trkpt>
      <trkpt lat="47.79749" lon="-3.71488">
        <ele>30.4</ele>
        <time>2023-01-27T14:16:42Z</time>
      </trkpt>
      <trkpt lat="47.79753" lon="-3.71489">
        <ele>30.5</ele>
        <time>2023-01-27T14:16:43Z</time>
      </trkpt>
      <trkpt lat="47.79757" lon="-3.7149">
        <ele>30.7</ele>
        <time>2023-01-27T14:16:45Z</time>
      </trkpt>
      <trkpt lat="47.79759" lon="-3.71491">
        <ele>30.8</ele>
        <time>2023-01-27T14:16:46Z</time>
      </trkpt>
      <trkpt lat="47.79761" lon="-3.71491">
        <ele>30.8</ele>
        <time>2023-01-27T14:16:47Z</time>
      </trkpt>
      <trkpt lat="47.79764" lon="-3.71493">
        <ele>30.9</ele>
        <time>2023-01-27T14:16:48Z</time>
      </trkpt>
      <trkpt lat="47.79771" lon="-3.71495">
        <ele>31.2</ele>
        <time>2023-01-27T14:16:49Z</time>
      </trkpt>
      <trkpt lat="47.79774" lon="-3.71496">
        <ele>31.3</ele>
        <time>2023-01-27T14:16:50Z</time>
      </trkpt>
      <trkpt lat="47.79779" lon="-3.71498">
        <ele>31.1</ele>
        <time>2023-01-27T14:16:52Z</time>
      </trkpt>
      <trkpt lat="47.79781" lon="-3.71499">
        <ele>31.1</ele>
        <time>2023-01-27T14:16:53Z</time>
      </trkpt>
      <trkpt lat="47.79783" lon="-3.71499">
        <ele>31</ele>
        <time>2023-01-27T14:16:54Z</time>
      </trkpt>
      <trkpt lat="47.79786" lon="-3.71502">
        <ele>30.9</ele>
        <time>2023-01-27T14:16:55Z</time>
      </trkpt>
      <trkpt lat="47.79787" lon="-3.71502">
        <ele>30.8</ele>
        <time>2023-01-27T14:16:56Z</time>
      </trkpt>
      <trkpt lat="47.7979" lon="-3.71503">
        <ele>30.8</ele>
        <time>2023-01-27T14:16:57Z</time>
      </trkpt>
      <trkpt lat="47.79794" lon="-3.71505">
        <ele>30.6</ele>
        <time>2023-01-27T14:16:58Z</time>
      </trkpt>
      <trkpt lat="47.79796" lon="-3.71505">
        <ele>30.6</ele>
        <time>2023-01-27T14:16:59Z</time>
      </trkpt>
      <trkpt lat="47.79797" lon="-3.71505">
        <ele>30.5</ele>
        <time>2023-01-27T14:17:00Z</time>
      </trkpt>
      <trkpt lat="47.79798" lon="-3.71506">
        <ele>30.5</ele>
        <time>2023-01-27T14:17:01Z</time>
      </trkpt>
      <trkpt lat="47.79799" lon="-3.71506">
        <ele>30.5</ele>
        <time>2023-01-27T14:17:02Z</time>
      </trkpt>
      <trkpt lat="47.79798" lon="-3.71506">
        <ele>30.5</ele>
        <time>2023-01-27T14:17:03Z</time>
      </trkpt>
      <trkpt lat="47.79797" lon="-3.71506">
        <ele>30.4</ele>
        <time>2023-01-27T14:17:04Z</time>
      </trkpt>
      <trkpt lat="47.79797" lon="-3.71506">
        <ele>30.4</ele>
        <time>2023-01-27T14:17:05Z</time>
      </trkpt>
      <trkpt lat="47.79797" lon="-3.71506">
        <ele>30.4</ele>
        <time>2023-01-27T14:17:06Z</time>
      </trkpt>
      <trkpt lat="47.79797" lon="-3.71506">
        <ele>30.4</ele>
        <time>2023-01-27T14:17:07Z</time>
      </trkpt>
      <trkpt lat="47.79797" lon="-3.71506">
        <ele>30.4</ele>
        <time>2023-01-27T14:17:08Z</time>
      </trkpt>
      <trkpt lat="47.79797" lon="-3.71506">
        <ele>30.4</ele>
        <time>2023-01-27T14:17:09Z</time>
      </trkpt>
      <trkpt lat="47.79797" lon="-3.71506">
        <ele>30.4</ele>
        <time>2023-01-27T14:17:10Z</time>
      </trkpt>
      <trkpt lat="47.79797" lon="-3.71506">
        <ele>30.4</ele>
        <time>2023-01-27T14:17:11Z</time>
      </trkpt>
      <trkpt lat="47.79797" lon="-3.71506">
        <ele>30.4</ele>
        <time>2023-01-27T14:17:12Z</time>
      </trkpt>
      <trkpt lat="47.79803" lon="-3.71508">
        <ele>30.2</ele>
        <time>2023-01-27T14:17:22Z</time>
      </trkpt>
      <trkpt lat="47.79803" lon="-3.71508">
        <ele>30.2</ele>
        <time>2023-01-27T14:17:23Z</time>
      </trkpt>
      <trkpt lat="47.79806" lon="-3.71509">
        <ele>30.1</ele>
        <time>2023-01-27T14:17:24Z</time>
      </trkpt>
      <trkpt lat="47.79809" lon="-3.71512">
        <ele>30</ele>
        <time>2023-01-27T14:17:25Z</time>
      </trkpt>
      <trkpt lat="47.79812" lon="-3.71513">
        <ele>29.9</ele>
        <time>2023-01-27T14:17:27Z</time>
      </trkpt>
      <trkpt lat="47.79813" lon="-3.71512">
        <ele>29.9</ele>
        <time>2023-01-27T14:17:28Z</time>
      </trkpt>
      <trkpt lat="47.79814" lon="-3.71511">
        <ele>29.9</ele>
        <time>2023-01-27T14:17:30Z</time>
      </trkpt>
      <trkpt lat="47.79815" lon="-3.71511">
        <ele>29.8</ele>
        <time>2023-01-27T14:17:31Z</time>
      </trkpt>
      <trkpt lat="47.79815" lon="-3.71511">
        <ele>29.8</ele>
        <time>2023-01-27T14:17:32Z</time>
      </trkpt>
      <trkpt lat="47.79815" lon="-3.71511">
        <ele>29.8</ele>
        <time>2023-01-27T14:17:33Z</time>
      </trkpt>
      <trkpt lat="47.79815" lon="-3.71511">
        <ele>29.8</ele>
        <time>2023-01-27T14:17:34Z</time>
      </trkpt>
      <trkpt lat="47.79815" lon="-3.71511">
        <ele>29.8</ele>
        <time>2023-01-27T14:17:35Z</time>
      </trkpt>
      <trkpt lat="47.79816" lon="-3.71511">
        <ele>29.8</ele>
        <time>2023-01-27T14:17:36Z</time>
      </trkpt>
      <trkpt lat="47.79816" lon="-3.71512">
        <ele>29.8</ele>
        <time>2023-01-27T14:17:37Z</time>
      </trkpt>
      <trkpt lat="47.79818" lon="-3.71513">
        <ele>29.7</ele>
        <time>2023-01-27T14:17:38Z</time>
      </trkpt>
      <trkpt lat="47.7982" lon="-3.71514">
        <ele>29.7</ele>
        <time>2023-01-27T14:17:39Z</time>
      </trkpt>
      <trkpt lat="47.79821" lon="-3.71515">
        <ele>29.6</ele>
        <time>2023-01-27T14:17:40Z</time>
      </trkpt>
      <trkpt lat="47.79821" lon="-3.71515">
        <ele>29.6</ele>
        <time>2023-01-27T14:17:41Z</time>
      </trkpt>
      <trkpt lat="47.79823" lon="-3.71516">
        <ele>29.6</ele>
        <time>2023-01-27T14:17:42Z</time>
      </trkpt>
      <trkpt lat="47.79824" lon="-3.71516">
        <ele>29.5</ele>
        <time>2023-01-27T14:17:43Z</time>
      </trkpt>
      <trkpt lat="47.79826" lon="-3.71517">
        <ele>29.5</ele>
        <time>2023-01-27T14:17:44Z</time>
      </trkpt>
      <trkpt lat="47.79827" lon="-3.71518">
        <ele>29.4</ele>
        <time>2023-01-27T14:17:45Z</time>
      </trkpt>
      <trkpt lat="47.79828" lon="-3.71521">
        <ele>29.4</ele>
        <time>2023-01-27T14:17:46Z</time>
      </trkpt>
      <trkpt lat="47.79828" lon="-3.71524">
        <ele>29.3</ele>
        <time>2023-01-27T14:17:48Z</time>
      </trkpt>
      <trkpt lat="47.79829" lon="-3.71528">
        <ele>29.2</ele>
        <time>2023-01-27T14:17:49Z</time>
      </trkpt>
      <trkpt lat="47.79829" lon="-3.71529">
        <ele>29.2</ele>
        <time>2023-01-27T14:17:50Z</time>
      </trkpt>
      <trkpt lat="47.79831" lon="-3.71534">
        <ele>29.1</ele>
        <time>2023-01-27T14:17:51Z</time>
      </trkpt>
      <trkpt lat="47.79831" lon="-3.71535">
        <ele>29.1</ele>
        <time>2023-01-27T14:17:52Z</time>
      </trkpt>
      <trkpt lat="47.79833" lon="-3.71539">
        <ele>29</ele>
        <time>2023-01-27T14:17:53Z</time>
      </trkpt>
      <trkpt lat="47.79833" lon="-3.71541">
        <ele>28.9</ele>
        <time>2023-01-27T14:17:54Z</time>
      </trkpt>
      <trkpt lat="47.79834" lon="-3.71546">
        <ele>28.8</ele>
        <time>2023-01-27T14:17:55Z</time>
      </trkpt>
      <trkpt lat="47.79834" lon="-3.71548">
        <ele>28.8</ele>
        <time>2023-01-27T14:17:56Z</time>
      </trkpt>
      <trkpt lat="47.79835" lon="-3.71552">
        <ele>28.7</ele>
        <time>2023-01-27T14:17:57Z</time>
      </trkpt>
      <trkpt lat="47.79835" lon="-3.71553">
        <ele>28.7</ele>
        <time>2023-01-27T14:17:58Z</time>
      </trkpt>
      <trkpt lat="47.79834" lon="-3.71559">
        <ele>28.6</ele>
        <time>2023-01-27T14:17:59Z</time>
      </trkpt>
      <trkpt lat="47.79834" lon="-3.71561">
        <ele>28.5</ele>
        <time>2023-01-27T14:18:00Z</time>
      </trkpt>
      <trkpt lat="47.79834" lon="-3.71567">
        <ele>28.4</ele>
        <time>2023-01-27T14:18:01Z</time>
      </trkpt>
      <trkpt lat="47.79834" lon="-3.71572">
        <ele>28.3</ele>
        <time>2023-01-27T14:18:02Z</time>
      </trkpt>
      <trkpt lat="47.79834" lon="-3.71578">
        <ele>28.2</ele>
        <time>2023-01-27T14:18:03Z</time>
      </trkpt>
      <trkpt lat="47.79835" lon="-3.71583">
        <ele>28.1</ele>
        <time>2023-01-27T14:18:04Z</time>
      </trkpt>
      <trkpt lat="47.79835" lon="-3.71588">
        <ele>28</ele>
        <time>2023-01-27T14:18:05Z</time>
      </trkpt>
      <trkpt lat="47.79834" lon="-3.71594">
        <ele>27.9</ele>
        <time>2023-01-27T14:18:06Z</time>
      </trkpt>
      <trkpt lat="47.79835" lon="-3.71599">
        <ele>27.8</ele>
        <time>2023-01-27T14:18:07Z</time>
      </trkpt>
      <trkpt lat="47.79836" lon="-3.71604">
        <ele>27.7</ele>
        <time>2023-01-27T14:18:08Z</time>
      </trkpt>
      <trkpt lat="47.79836" lon="-3.71608">
        <ele>27.6</ele>
        <time>2023-01-27T14:18:09Z</time>
      </trkpt>
      <trkpt lat="47.79836" lon="-3.71614">
        <ele>27.5</ele>
        <time>2023-01-27T14:18:10Z</time>
      </trkpt>
      <trkpt lat="47.79836" lon="-3.7162">
        <ele>27.3</ele>
        <time>2023-01-27T14:18:11Z</time>
      </trkpt>
      <trkpt lat="47.79837" lon="-3.71622">
        <ele>27.3</ele>
        <time>2023-01-27T14:18:12Z</time>
      </trkpt>
      <trkpt lat="47.79838" lon="-3.71627">
        <ele>27.2</ele>
        <time>2023-01-27T14:18:13Z</time>
      </trkpt>
      <trkpt lat="47.7984" lon="-3.71631">
        <ele>27.1</ele>
        <time>2023-01-27T14:18:14Z</time>
      </trkpt>
      <trkpt lat="47.79844" lon="-3.71634">
        <ele>27.1</ele>
        <time>2023-01-27T14:18:15Z</time>
      </trkpt>
      <trkpt lat="47.79845" lon="-3.71635">
        <ele>27.1</ele>
        <time>2023-01-27T14:18:16Z</time>
      </trkpt>
      <trkpt lat="47.79849" lon="-3.71637">
        <ele>27.1</ele>
        <time>2023-01-27T14:18:17Z</time>
      </trkpt>
      <trkpt lat="47.79853" lon="-3.71639">
        <ele>27</ele>
        <time>2023-01-27T14:18:18Z</time>
      </trkpt>
      <trkpt lat="47.79855" lon="-3.71639">
        <ele>27</ele>
        <time>2023-01-27T14:18:19Z</time>
      </trkpt>
      <trkpt lat="47.79857" lon="-3.7164">
        <ele>27</ele>
        <time>2023-01-27T14:18:20Z</time>
      </trkpt>
      <trkpt lat="47.79861" lon="-3.7164">
        <ele>26.9</ele>
        <time>2023-01-27T14:18:21Z</time>
      </trkpt>
      <trkpt lat="47.79865" lon="-3.71641">
        <ele>26.9</ele>
        <time>2023-01-27T14:18:22Z</time>
      </trkpt>
      <trkpt lat="47.79868" lon="-3.71641">
        <ele>26.9</ele>
        <time>2023-01-27T14:18:23Z</time>
      </trkpt>
      <trkpt lat="47.79871" lon="-3.71644">
        <ele>26.8</ele>
        <time>2023-01-27T14:18:25Z</time>
      </trkpt>
      <trkpt lat="47.79873" lon="-3.71648">
        <ele>26.8</ele>
        <time>2023-01-27T14:18:26Z</time>
      </trkpt>
      <trkpt lat="47.79874" lon="-3.71653">
        <ele>26.8</ele>
        <time>2023-01-27T14:18:27Z</time>
      </trkpt>
      <trkpt lat="47.79874" lon="-3.71658">
        <ele>26.8</ele>
        <time>2023-01-27T14:18:28Z</time>
      </trkpt>
      <trkpt lat="47.79873" lon="-3.71665">
        <ele>26.7</ele>
        <time>2023-01-27T14:18:29Z</time>
      </trkpt>
      <trkpt lat="47.79872" lon="-3.71675">
        <ele>26.6</ele>
        <time>2023-01-27T14:18:30Z</time>
      </trkpt>
      <trkpt lat="47.79872" lon="-3.71683">
        <ele>26.6</ele>
        <time>2023-01-27T14:18:32Z</time>
      </trkpt>
      <trkpt lat="47.79875" lon="-3.71687">
        <ele>26.7</ele>
        <time>2023-01-27T14:18:34Z</time>
      </trkpt>
      <trkpt lat="47.79879" lon="-3.71686">
        <ele>26.8</ele>
        <time>2023-01-27T14:18:35Z</time>
      </trkpt>
      <trkpt lat="47.79884" lon="-3.71685">
        <ele>26.9</ele>
        <time>2023-01-27T14:18:37Z</time>
      </trkpt>
      <trkpt lat="47.79885" lon="-3.71685">
        <ele>27</ele>
        <time>2023-01-27T14:18:38Z</time>
      </trkpt>
      <trkpt lat="47.79887" lon="-3.71685">
        <ele>27.1</ele>
        <time>2023-01-27T14:18:39Z</time>
      </trkpt>
      <trkpt lat="47.79893" lon="-3.71685">
        <ele>27.2</ele>
        <time>2023-01-27T14:18:40Z</time>
      </trkpt>
      <trkpt lat="47.79896" lon="-3.71685">
        <ele>27.3</ele>
        <time>2023-01-27T14:18:42Z</time>
      </trkpt>
      <trkpt lat="47.799" lon="-3.71684">
        <ele>27.4</ele>
        <time>2023-01-27T14:18:43Z</time>
      </trkpt>
      <trkpt lat="47.79906" lon="-3.71685">
        <ele>27.6</ele>
        <time>2023-01-27T14:18:44Z</time>
      </trkpt>
      <trkpt lat="47.79909" lon="-3.71685">
        <ele>27.7</ele>
        <time>2023-01-27T14:18:45Z</time>
      </trkpt>
      <trkpt lat="47.79913" lon="-3.71685">
        <ele>27.8</ele>
        <time>2023-01-27T14:18:47Z</time>
      </trkpt>
      <trkpt lat="47.79917" lon="-3.71686">
        <ele>27.9</ele>
        <time>2023-01-27T14:18:48Z</time>
      </trkpt>
      <trkpt lat="47.79919" lon="-3.71686">
        <ele>28</ele>
        <time>2023-01-27T14:18:49Z</time>
      </trkpt>
      <trkpt lat="47.79922" lon="-3.71687">
        <ele>28.1</ele>
        <time>2023-01-27T14:18:50Z</time>
      </trkpt>
      <trkpt lat="47.79926" lon="-3.71687">
        <ele>28.2</ele>
        <time>2023-01-27T14:18:51Z</time>
      </trkpt>
      <trkpt lat="47.79928" lon="-3.71688">
        <ele>28.2</ele>
        <time>2023-01-27T14:18:52Z</time>
      </trkpt>
      <trkpt lat="47.79934" lon="-3.71689">
        <ele>28.4</ele>
        <time>2023-01-27T14:18:53Z</time>
      </trkpt>
      <trkpt lat="47.79937" lon="-3.71689">
        <ele>28.5</ele>
        <time>2023-01-27T14:18:55Z</time>
      </trkpt>
      <trkpt lat="47.7994" lon="-3.7169">
        <ele>28.6</ele>
        <time>2023-01-27T14:18:56Z</time>
      </trkpt>
      <trkpt lat="47.79943" lon="-3.7169">
        <ele>28.7</ele>
        <time>2023-01-27T14:18:57Z</time>
      </trkpt>
      <trkpt lat="47.79947" lon="-3.7169">
        <ele>28.8</ele>
        <time>2023-01-27T14:18:58Z</time>
      </trkpt>
      <trkpt lat="47.79948" lon="-3.7169">
        <ele>28.9</ele>
        <time>2023-01-27T14:18:59Z</time>
      </trkpt>
      <trkpt lat="47.79951" lon="-3.7169">
        <ele>29.2</ele>
        <time>2023-01-27T14:19:00Z</time>
      </trkpt>
      <trkpt lat="47.79955" lon="-3.71691">
        <ele>29.5</ele>
        <time>2023-01-27T14:19:01Z</time>
      </trkpt>
      <trkpt lat="47.79957" lon="-3.71695">
        <ele>29.8</ele>
        <time>2023-01-27T14:19:03Z</time>
      </trkpt>
      <trkpt lat="47.79958" lon="-3.71699">
        <ele>30</ele>
        <time>2023-01-27T14:19:04Z</time>
      </trkpt>
      <trkpt lat="47.7996" lon="-3.71704">
        <ele>30.3</ele>
        <time>2023-01-27T14:19:05Z</time>
      </trkpt>
      <trkpt lat="47.79962" lon="-3.71708">
        <ele>30.6</ele>
        <time>2023-01-27T14:19:06Z</time>
      </trkpt>
      <trkpt lat="47.79964" lon="-3.71711">
        <ele>30.9</ele>
        <time>2023-01-27T14:19:07Z</time>
      </trkpt>
      <trkpt lat="47.79966" lon="-3.71715">
        <ele>31.1</ele>
        <time>2023-01-27T14:19:08Z</time>
      </trkpt>
      <trkpt lat="47.79967" lon="-3.71719">
        <ele>31.4</ele>
        <time>2023-01-27T14:19:09Z</time>
      </trkpt>
      <trkpt lat="47.79968" lon="-3.71723">
        <ele>31.6</ele>
        <time>2023-01-27T14:19:10Z</time>
      </trkpt>
      <trkpt lat="47.79968" lon="-3.71727">
        <ele>31.8</ele>
        <time>2023-01-27T14:19:11Z</time>
      </trkpt>
      <trkpt lat="47.79969" lon="-3.71731">
        <ele>31.8</ele>
        <time>2023-01-27T14:19:12Z</time>
      </trkpt>
      <trkpt lat="47.79969" lon="-3.71733">
        <ele>31.8</ele>
        <time>2023-01-27T14:19:13Z</time>
      </trkpt>
      <trkpt lat="47.79968" lon="-3.71739">
        <ele>31.6</ele>
        <time>2023-01-27T14:19:14Z</time>
      </trkpt>
      <trkpt lat="47.79965" lon="-3.71745">
        <ele>31.3</ele>
        <time>2023-01-27T14:19:15Z</time>
      </trkpt>
      <trkpt lat="47.79964" lon="-3.71752">
        <ele>31.1</ele>
        <time>2023-01-27T14:19:16Z</time>
      </trkpt>
      <trkpt lat="47.79963" lon="-3.7176">
        <ele>30.9</ele>
        <time>2023-01-27T14:19:17Z</time>
      </trkpt>
      <trkpt lat="47.79963" lon="-3.71767">
        <ele>30.8</ele>
        <time>2023-01-27T14:19:18Z</time>
      </trkpt>
      <trkpt lat="47.79962" lon="-3.71775">
        <ele>30.6</ele>
        <time>2023-01-27T14:19:19Z</time>
      </trkpt>
      <trkpt lat="47.79961" lon="-3.71783">
        <ele>30.4</ele>
        <time>2023-01-27T14:19:20Z</time>
      </trkpt>
      <trkpt lat="47.7996" lon="-3.71791">
        <ele>30.2</ele>
        <time>2023-01-27T14:19:21Z</time>
      </trkpt>
      <trkpt lat="47.79958" lon="-3.71799">
        <ele>30</ele>
        <time>2023-01-27T14:19:22Z</time>
      </trkpt>
      <trkpt lat="47.79954" lon="-3.71806">
        <ele>29.8</ele>
        <time>2023-01-27T14:19:23Z</time>
      </trkpt>
      <trkpt lat="47.79949" lon="-3.71811">
        <ele>29.6</ele>
        <time>2023-01-27T14:19:24Z</time>
      </trkpt>
      <trkpt lat="47.79944" lon="-3.71815">
        <ele>29.4</ele>
        <time>2023-01-27T14:19:25Z</time>
      </trkpt>
      <trkpt lat="47.79938" lon="-3.71818">
        <ele>29.2</ele>
        <time>2023-01-27T14:19:26Z</time>
      </trkpt>
      <trkpt lat="47.79932" lon="-3.71818">
        <ele>28.9</ele>
        <time>2023-01-27T14:19:27Z</time>
      </trkpt>
      <trkpt lat="47.79926" lon="-3.71818">
        <ele>28.7</ele>
        <time>2023-01-27T14:19:28Z</time>
      </trkpt>
      <trkpt lat="47.7992" lon="-3.71818">
        <ele>28.5</ele>
        <time>2023-01-27T14:19:29Z</time>
      </trkpt>
      <trkpt lat="47.79914" lon="-3.71817">
        <ele>28.3</ele>
        <time>2023-01-27T14:19:30Z</time>
      </trkpt>
      <trkpt lat="47.79908" lon="-3.71816">
        <ele>28</ele>
        <time>2023-01-27T14:19:31Z</time>
      </trkpt>
      <trkpt lat="47.79901" lon="-3.71818">
        <ele>27.8</ele>
        <time>2023-01-27T14:19:32Z</time>
      </trkpt>
      <trkpt lat="47.79896" lon="-3.71823">
        <ele>27.6</ele>
        <time>2023-01-27T14:19:33Z</time>
      </trkpt>
      <trkpt lat="47.79893" lon="-3.71832">
        <ele>27.3</ele>
        <time>2023-01-27T14:19:34Z</time>
      </trkpt>
      <trkpt lat="47.79891" lon="-3.71842">
        <ele>26.8</ele>
        <time>2023-01-27T14:19:35Z</time>
      </trkpt>
      <trkpt lat="47.7989" lon="-3.71853">
        <ele>26.3</ele>
        <time>2023-01-27T14:19:36Z</time>
      </trkpt>
      <trkpt lat="47.79889" lon="-3.71863">
        <ele>25.8</ele>
        <time>2023-01-27T14:19:37Z</time>
      </trkpt>
      <trkpt lat="47.79889" lon="-3.71874">
        <ele>25.3</ele>
        <time>2023-01-27T14:19:38Z</time>
      </trkpt>
      <trkpt lat="47.79888" lon="-3.71885">
        <ele>24.8</ele>
        <time>2023-01-27T14:19:39Z</time>
      </trkpt>
      <trkpt lat="47.79887" lon="-3.71896">
        <ele>24.4</ele>
        <time>2023-01-27T14:19:40Z</time>
      </trkpt>
      <trkpt lat="47.79885" lon="-3.71907">
        <ele>24</ele>
        <time>2023-01-27T14:19:41Z</time>
      </trkpt>
      <trkpt lat="47.79884" lon="-3.71918">
        <ele>23.7</ele>
        <time>2023-01-27T14:19:42Z</time>
      </trkpt>
      <trkpt lat="47.79882" lon="-3.71929">
        <ele>23.3</ele>
        <time>2023-01-27T14:19:43Z</time>
      </trkpt>
      <trkpt lat="47.7988" lon="-3.7194">
        <ele>22.9</ele>
        <time>2023-01-27T14:19:44Z</time>
      </trkpt>
      <trkpt lat="47.79879" lon="-3.71951">
        <ele>22.6</ele>
        <time>2023-01-27T14:19:45Z</time>
      </trkpt>
      <trkpt lat="47.79878" lon="-3.71962">
        <ele>22.2</ele>
        <time>2023-01-27T14:19:46Z</time>
      </trkpt>
      <trkpt lat="47.79877" lon="-3.71973">
        <ele>22</ele>
        <time>2023-01-27T14:19:47Z</time>
      </trkpt>
      <trkpt lat="47.79876" lon="-3.71982">
        <ele>21.8</ele>
        <time>2023-01-27T14:19:48Z</time>
      </trkpt>
      <trkpt lat="47.79876" lon="-3.7199">
        <ele>21.6</ele>
        <time>2023-01-27T14:19:49Z</time>
      </trkpt>
      <trkpt lat="47.79875" lon="-3.71996">
        <ele>21.5</ele>
        <time>2023-01-27T14:19:50Z</time>
      </trkpt>
      <trkpt lat="47.79873" lon="-3.72001">
        <ele>21.5</ele>
        <time>2023-01-27T14:19:51Z</time>
      </trkpt>
      <trkpt lat="47.79871" lon="-3.72004">
        <ele>21.3</ele>
        <time>2023-01-27T14:19:52Z</time>
      </trkpt>
      <trkpt lat="47.79867" lon="-3.72006">
        <ele>21</ele>
        <time>2023-01-27T14:19:53Z</time>
      </trkpt>
      <trkpt lat="47.79865" lon="-3.72007">
        <ele>20.9</ele>
        <time>2023-01-27T14:19:54Z</time>
      </trkpt>
      <trkpt lat="47.79861" lon="-3.72008">
        <ele>20.6</ele>
        <time>2023-01-27T14:19:55Z</time>
      </trkpt>
      <trkpt lat="47.79857" lon="-3.72007">
        <ele>20.4</ele>
        <time>2023-01-27T14:19:56Z</time>
      </trkpt>
      <trkpt lat="47.79852" lon="-3.72005">
        <ele>20</ele>
        <time>2023-01-27T14:19:57Z</time>
      </trkpt>
      <trkpt lat="47.79847" lon="-3.72001">
        <ele>19.7</ele>
        <time>2023-01-27T14:19:58Z</time>
      </trkpt>
      <trkpt lat="47.79842" lon="-3.71998">
        <ele>19.5</ele>
        <time>2023-01-27T14:19:59Z</time>
      </trkpt>
      <trkpt lat="47.79838" lon="-3.71997">
        <ele>19.2</ele>
        <time>2023-01-27T14:20:00Z</time>
      </trkpt>
      <trkpt lat="47.79833" lon="-3.71993">
        <ele>18.9</ele>
        <time>2023-01-27T14:20:01Z</time>
      </trkpt>
      <trkpt lat="47.79829" lon="-3.71991">
        <ele>18.6</ele>
        <time>2023-01-27T14:20:02Z</time>
      </trkpt>
      <trkpt lat="47.79821" lon="-3.71984">
        <ele>18.1</ele>
        <time>2023-01-27T14:20:04Z</time>
      </trkpt>
      <trkpt lat="47.79817" lon="-3.71981">
        <ele>17.9</ele>
        <time>2023-01-27T14:20:05Z</time>
      </trkpt>
      <trkpt lat="47.79814" lon="-3.7198">
        <ele>17.7</ele>
        <time>2023-01-27T14:20:06Z</time>
      </trkpt>
      <trkpt lat="47.79813" lon="-3.71979">
        <ele>17.6</ele>
        <time>2023-01-27T14:20:07Z</time>
      </trkpt>
      <trkpt lat="47.79811" lon="-3.71976">
        <ele>17.4</ele>
        <time>2023-01-27T14:20:08Z</time>
      </trkpt>
      <trkpt lat="47.79809" lon="-3.71973">
        <ele>17.3</ele>
        <time>2023-01-27T14:20:10Z</time>
      </trkpt>
      <trkpt lat="47.79809" lon="-3.71973">
        <ele>17.3</ele>
        <time>2023-01-27T14:20:11Z</time>
      </trkpt>
      <trkpt lat="47.79808" lon="-3.71972">
        <ele>17.2</ele>
        <time>2023-01-27T14:20:12Z</time>
      </trkpt>
      <trkpt lat="47.79808" lon="-3.71972">
        <ele>17.2</ele>
        <time>2023-01-27T14:20:13Z</time>
      </trkpt>
      <trkpt lat="47.79807" lon="-3.71971">
        <ele>17.2</ele>
        <time>2023-01-27T14:20:14Z</time>
      </trkpt>
      <trkpt lat="47.79807" lon="-3.7197">
        <ele>17.1</ele>
        <time>2023-01-27T14:20:15Z</time>
      </trkpt>
      <trkpt lat="47.79807" lon="-3.7197">
        <ele>17.1</ele>
        <time>2023-01-27T14:20:16Z</time>
      </trkpt>
      <trkpt lat="47.79806" lon="-3.71969">
        <ele>17.1</ele>
        <time>2023-01-27T14:20:17Z</time>
      </trkpt>
      <trkpt lat="47.79805" lon="-3.71965">
        <ele>16.9</ele>
        <time>2023-01-27T14:20:18Z</time>
      </trkpt>
      <trkpt lat="47.79803" lon="-3.7196">
        <ele>16.7</ele>
        <time>2023-01-27T14:20:19Z</time>
      </trkpt>
      <trkpt lat="47.79801" lon="-3.71955">
        <ele>16.5</ele>
        <time>2023-01-27T14:20:20Z</time>
      </trkpt>
      <trkpt lat="47.79797" lon="-3.71949">
        <ele>16.1</ele>
        <time>2023-01-27T14:20:22Z</time>
      </trkpt>
      <trkpt lat="47.79796" lon="-3.71939">
        <ele>15.7</ele>
        <time>2023-01-27T14:20:23Z</time>
      </trkpt>
      <trkpt lat="47.79794" lon="-3.71936">
        <ele>15.6</ele>
        <time>2023-01-27T14:20:24Z</time>
      </trkpt>
      <trkpt lat="47.79793" lon="-3.71935">
        <ele>15.5</ele>
        <time>2023-01-27T14:20:26Z</time>
      </trkpt>
      <trkpt lat="47.79792" lon="-3.71935">
        <ele>15.5</ele>
        <time>2023-01-27T14:20:27Z</time>
      </trkpt>
      <trkpt lat="47.79792" lon="-3.71935">
        <ele>15.4</ele>
        <time>2023-01-27T14:20:28Z</time>
      </trkpt>
      <trkpt lat="47.79791" lon="-3.71934">
        <ele>15.4</ele>
        <time>2023-01-27T14:20:29Z</time>
      </trkpt>
      <trkpt lat="47.7979" lon="-3.71934">
        <ele>15.3</ele>
        <time>2023-01-27T14:20:30Z</time>
      </trkpt>
      <trkpt lat="47.7979" lon="-3.71933">
        <ele>15.3</ele>
        <time>2023-01-27T14:20:31Z</time>
      </trkpt>
      <trkpt lat="47.79789" lon="-3.71933">
        <ele>15.2</ele>
        <time>2023-01-27T14:20:32Z</time>
      </trkpt>
      <trkpt lat="47.79788" lon="-3.71932">
        <ele>15.2</ele>
        <time>2023-01-27T14:20:33Z</time>
      </trkpt>
      <trkpt lat="47.79788" lon="-3.71932">
        <ele>15.1</ele>
        <time>2023-01-27T14:20:34Z</time>
      </trkpt>
      <trkpt lat="47.79787" lon="-3.71931">
        <ele>15.1</ele>
        <time>2023-01-27T14:20:35Z</time>
      </trkpt>
      <trkpt lat="47.79786" lon="-3.71931">
        <ele>15</ele>
        <time>2023-01-27T14:20:36Z</time>
      </trkpt>
      <trkpt lat="47.79786" lon="-3.7193">
        <ele>15</ele>
        <time>2023-01-27T14:20:37Z</time>
      </trkpt>
      <trkpt lat="47.79785" lon="-3.7193">
        <ele>14.9</ele>
        <time>2023-01-27T14:20:38Z</time>
      </trkpt>
      <trkpt lat="47.79784" lon="-3.71929">
        <ele>15</ele>
        <time>2023-01-27T14:20:41Z</time>
      </trkpt>
      <trkpt lat="47.79784" lon="-3.71929">
        <ele>15</ele>
        <time>2023-01-27T14:20:42Z</time>
      </trkpt>
      <trkpt lat="47.79781" lon="-3.71929">
        <ele>15</ele>
        <time>2023-01-27T14:20:43Z</time>
      </trkpt>
      <trkpt lat="47.79778" lon="-3.7193">
        <ele>15</ele>
        <time>2023-01-27T14:20:45Z</time>
      </trkpt>
      <trkpt lat="47.79777" lon="-3.7193">
        <ele>15</ele>
        <time>2023-01-27T14:20:46Z</time>
      </trkpt>
      <trkpt lat="47.79775" lon="-3.71931">
        <ele>15</ele>
        <time>2023-01-27T14:20:47Z</time>
      </trkpt>
      <trkpt lat="47.79774" lon="-3.71932">
        <ele>15</ele>
        <time>2023-01-27T14:20:48Z</time>
      </trkpt>
      <trkpt lat="47.79773" lon="-3.71933">
        <ele>15</ele>
        <time>2023-01-27T14:20:49Z</time>
      </trkpt>
      <trkpt lat="47.79772" lon="-3.71933">
        <ele>15</ele>
        <time>2023-01-27T14:20:50Z</time>
      </trkpt>
      <trkpt lat="47.79772" lon="-3.71933">
        <ele>15</ele>
        <time>2023-01-27T14:20:51Z</time>
      </trkpt>
      <trkpt lat="47.79772" lon="-3.71933">
        <ele>15</ele>
        <time>2023-01-27T14:20:52Z</time>
      </trkpt>
      <trkpt lat="47.79771" lon="-3.71933">
        <ele>15</ele>
        <time>2023-01-27T14:20:53Z</time>
      </trkpt>
      <trkpt lat="47.79771" lon="-3.71932">
        <ele>15</ele>
        <time>2023-01-27T14:20:54Z</time>
      </trkpt>
      <trkpt lat="47.79771" lon="-3.71932">
        <ele>15</ele>
        <time>2023-01-27T14:20:55Z</time>
      </trkpt>
      <trkpt lat="47.79772" lon="-3.71932">
        <ele>15</ele>
        <time>2023-01-27T14:20:56Z</time>
      </trkpt>
      <trkpt lat="47.79772" lon="-3.71931">
        <ele>15</ele>
        <time>2023-01-27T14:20:57Z</time>
      </trkpt>
      <trkpt lat="47.79772" lon="-3.71931">
        <ele>15</ele>
        <time>2023-01-27T14:20:58Z</time>
      </trkpt>
      <trkpt lat="47.79772" lon="-3.71931">
        <ele>15</ele>
        <time>2023-01-27T14:20:59Z</time>
      </trkpt>
      <trkpt lat="47.79772" lon="-3.71931">
        <ele>15</ele>
        <time>2023-01-27T14:21:00Z</time>
      </trkpt>
      <trkpt lat="47.79772" lon="-3.71931">
        <ele>15</ele>
        <time>2023-01-27T14:21:01Z</time>
      </trkpt>
      <trkpt lat="47.79772" lon="-3.71931">
        <ele>15</ele>
        <time>2023-01-27T14:21:02Z</time>
      </trkpt>
      <trkpt lat="47.79772" lon="-3.71931">
        <ele>15</ele>
        <time>2023-01-27T14:21:03Z</time>
      </trkpt>
      <trkpt lat="47.79772" lon="-3.71931">
        <ele>15</ele>
        <time>2023-01-27T14:21:04Z</time>
      </trkpt>
      <trkpt lat="47.79773" lon="-3.71931">
        <ele>15</ele>
        <time>2023-01-27T14:21:05Z</time>
      </trkpt>
      <trkpt lat="47.79773" lon="-3.71931">
        <ele>15</ele>
        <time>2023-01-27T14:21:06Z</time>
      </trkpt>
      <trkpt lat="47.79773" lon="-3.71931">
        <ele>15</ele>
        <time>2023-01-27T14:21:07Z</time>
      </trkpt>
      <trkpt lat="47.79774" lon="-3.71931">
        <ele>15</ele>
        <time>2023-01-27T14:21:08Z</time>
      </trkpt>
      <trkpt lat="47.79774" lon="-3.71931">
        <ele>15</ele>
        <time>2023-01-27T14:21:09Z</time>
      </trkpt>
      <trkpt lat="47.79774" lon="-3.71933">
        <ele>15</ele>
        <time>2023-01-27T14:21:10Z</time>
      </trkpt>
      <trkpt lat="47.79773" lon="-3.71933">
        <ele>15</ele>
        <time>2023-01-27T14:21:12Z</time>
      </trkpt>
      <trkpt lat="47.79771" lon="-3.71931">
        <ele>15</ele>
        <time>2023-01-27T14:21:13Z</time>
      </trkpt>
      <trkpt lat="47.7977" lon="-3.71932">
        <ele>15</ele>
        <time>2023-01-27T14:21:15Z</time>
      </trkpt>
      <trkpt lat="47.7977" lon="-3.71932">
        <ele>15</ele>
        <time>2023-01-27T14:21:16Z</time>
      </trkpt>
      <trkpt lat="47.7977" lon="-3.71933">
        <ele>15</ele>
        <time>2023-01-27T14:21:17Z</time>
      </trkpt>
      <trkpt lat="47.7977" lon="-3.71933">
        <ele>15</ele>
        <time>2023-01-27T14:21:18Z</time>
      </trkpt>
      <trkpt lat="47.79771" lon="-3.71934">
        <ele>15</ele>
        <time>2023-01-27T14:21:19Z</time>
      </trkpt>
      <trkpt lat="47.79771" lon="-3.71933">
        <ele>15</ele>
        <time>2023-01-27T14:21:20Z</time>
      </trkpt>
      <trkpt lat="47.79772" lon="-3.71933">
        <ele>15</ele>
        <time>2023-01-27T14:21:21Z</time>
      </trkpt>
      <trkpt lat="47.79772" lon="-3.71933">
        <ele>15</ele>
        <time>2023-01-27T14:21:23Z</time>
      </trkpt>
      <trkpt lat="47.79772" lon="-3.71933">
        <ele>15</ele>
        <time>2023-01-27T14:21:24Z</time>
      </trkpt>
      <trkpt lat="47.79773" lon="-3.71932">
        <ele>15</ele>
        <time>2023-01-27T14:21:25Z</time>
      </trkpt>
      <trkpt lat="47.79773" lon="-3.71933">
        <ele>15</ele>
        <time>2023-01-27T14:21:26Z</time>
      </trkpt>
      <trkpt lat="47.79774" lon="-3.71933">
        <ele>15</ele>
        <time>2023-01-27T14:21:27Z</time>
      </trkpt>
      <trkpt lat="47.79774" lon="-3.71934">
        <ele>15</ele>
        <time>2023-01-27T14:21:28Z</time>
      </trkpt>
      <trkpt lat="47.79775" lon="-3.71935">
        <ele>15</ele>
        <time>2023-01-27T14:21:29Z</time>
      </trkpt>
      <trkpt lat="47.79775" lon="-3.71934">
        <ele>15</ele>
        <time>2023-01-27T14:21:30Z</time>
      </trkpt>
      <trkpt lat="47.79775" lon="-3.71934">
        <ele>15</ele>
        <time>2023-01-27T14:21:31Z</time>
      </trkpt>
      <trkpt lat="47.79775" lon="-3.71934">
        <ele>15</ele>
        <time>2023-01-27T14:21:32Z</time>
      </trkpt>
      <trkpt lat="47.79775" lon="-3.71934">
        <ele>15</ele>
        <time>2023-01-27T14:21:33Z</time>
      </trkpt>
      <trkpt lat="47.79776" lon="-3.71934">
        <ele>15</ele>
        <time>2023-01-27T14:21:34Z</time>
      </trkpt>
      <trkpt lat="47.79776" lon="-3.71934">
        <ele>15</ele>
        <time>2023-01-27T14:21:35Z</time>
      </trkpt>
      <trkpt lat="47.79776" lon="-3.71934">
        <ele>15</ele>
        <time>2023-01-27T14:21:36Z</time>
      </trkpt>
      <trkpt lat="47.79776" lon="-3.71934">
        <ele>15</ele>
        <time>2023-01-27T14:21:37Z</time>
      </trkpt>
      <trkpt lat="47.79776" lon="-3.71934">
        <ele>15</ele>
        <time>2023-01-27T14:21:38Z</time>
      </trkpt>
      <trkpt lat="47.79775" lon="-3.71933">
        <ele>15</ele>
        <time>2023-01-27T14:21:39Z</time>
      </trkpt>
      <trkpt lat="47.79775" lon="-3.71934">
        <ele>15</ele>
        <time>2023-01-27T14:21:40Z</time>
      </trkpt>
      <trkpt lat="47.79775" lon="-3.71934">
        <ele>15</ele>
        <time>2023-01-27T14:21:41Z</time>
      </trkpt>
      <trkpt lat="47.79775" lon="-3.71934">
        <ele>15</ele>
        <time>2023-01-27T14:21:42Z</time>
      </trkpt>
      <trkpt lat="47.79775" lon="-3.71934">
        <ele>15</ele>
        <time>2023-01-27T14:21:43Z</time>
      </trkpt>
      <trkpt lat="47.79775" lon="-3.71934">
        <ele>15</ele>
        <time>2023-01-27T14:21:44Z</time>
      </trkpt>
      <trkpt lat="47.79774" lon="-3.71934">
        <ele>15</ele>
        <time>2023-01-27T14:21:45Z</time>
      </trkpt>
      <trkpt lat="47.79774" lon="-3.71934">
        <ele>15</ele>
        <time>2023-01-27T14:21:46Z</time>
      </trkpt>
      <trkpt lat="47.79773" lon="-3.71933">
        <ele>15</ele>
        <time>2023-01-27T14:21:47Z</time>
      </trkpt>
      <trkpt lat="47.79772" lon="-3.71932">
        <ele>15</ele>
        <time>2023-01-27T14:21:48Z</time>
      </trkpt>
      <trkpt lat="47.79772" lon="-3.71931">
        <ele>15</ele>
        <time>2023-01-27T14:21:49Z</time>
      </trkpt>
      <trkpt lat="47.79772" lon="-3.71931">
        <ele>15</ele>
        <time>2023-01-27T14:21:50Z</time>
      </trkpt>
      <trkpt lat="47.79772" lon="-3.71931">
        <ele>15</ele>
        <time>2023-01-27T14:21:51Z</time>
      </trkpt>
      <trkpt lat="47.79772" lon="-3.71931">
        <ele>15</ele>
        <time>2023-01-27T14:21:52Z</time>
      </trkpt>
      <trkpt lat="47.79772" lon="-3.71931">
        <ele>15</ele>
        <time>2023-01-27T14:21:53Z</time>
      </trkpt>
      <trkpt lat="47.79772" lon="-3.71931">
        <ele>15</ele>
        <time>2023-01-27T14:21:54Z</time>
      </trkpt>
      <trkpt lat="47.79772" lon="-3.71931">
        <ele>15</ele>
        <time>2023-01-27T14:21:55Z</time>
      </trkpt>
      <trkpt lat="47.79772" lon="-3.7193">
        <ele>15</ele>
        <time>2023-01-27T14:21:56Z</time>
      </trkpt>
      <trkpt lat="47.79772" lon="-3.7193">
        <ele>15</ele>
        <time>2023-01-27T14:21:57Z</time>
      </trkpt>
      <trkpt lat="47.79772" lon="-3.7193">
        <ele>15</ele>
        <time>2023-01-27T14:21:58Z</time>
      </trkpt>
      <trkpt lat="47.79772" lon="-3.7193">
        <ele>15</ele>
        <time>2023-01-27T14:21:59Z</time>
      </trkpt>
      <trkpt lat="47.79776" lon="-3.71933">
        <ele>14.9</ele>
        <time>2023-01-27T14:22:28Z</time>
      </trkpt>
      <trkpt lat="47.79777" lon="-3.71934">
        <ele>14.9</ele>
        <time>2023-01-27T14:22:29Z</time>
      </trkpt>
      <trkpt lat="47.79777" lon="-3.71935">
        <ele>14.9</ele>
        <time>2023-01-27T14:22:30Z</time>
      </trkpt>
      <trkpt lat="47.79777" lon="-3.71936">
        <ele>14.9</ele>
        <time>2023-01-27T14:22:31Z</time>
      </trkpt>
      <trkpt lat="47.79777" lon="-3.71937">
        <ele>14.9</ele>
        <time>2023-01-27T14:22:32Z</time>
      </trkpt>
      <trkpt lat="47.79777" lon="-3.71937">
        <ele>14.9</ele>
        <time>2023-01-27T14:22:33Z</time>
      </trkpt>
      <trkpt lat="47.79777" lon="-3.71937">
        <ele>14.9</ele>
        <time>2023-01-27T14:22:34Z</time>
      </trkpt>
      <trkpt lat="47.79779" lon="-3.71937">
        <ele>14.9</ele>
        <time>2023-01-27T14:22:36Z</time>
      </trkpt>
      <trkpt lat="47.7978" lon="-3.71937">
        <ele>14.9</ele>
        <time>2023-01-27T14:22:37Z</time>
      </trkpt>
      <trkpt lat="47.79782" lon="-3.71937">
        <ele>14.9</ele>
        <time>2023-01-27T14:22:38Z</time>
      </trkpt>
      <trkpt lat="47.79785" lon="-3.71936">
        <ele>15</ele>
        <time>2023-01-27T14:22:39Z</time>
      </trkpt>
      <trkpt lat="47.79787" lon="-3.71935">
        <ele>15</ele>
        <time>2023-01-27T14:22:40Z</time>
      </trkpt>
      <trkpt lat="47.79788" lon="-3.71933">
        <ele>14.9</ele>
        <time>2023-01-27T14:22:41Z</time>
      </trkpt>
      <trkpt lat="47.7979" lon="-3.71931">
        <ele>14.8</ele>
        <time>2023-01-27T14:22:43Z</time>
      </trkpt>
      <trkpt lat="47.79792" lon="-3.7193">
        <ele>14.7</ele>
        <time>2023-01-27T14:22:44Z</time>
      </trkpt>
      <trkpt lat="47.79793" lon="-3.71929">
        <ele>14.6</ele>
        <time>2023-01-27T14:22:45Z</time>
      </trkpt>
      <trkpt lat="47.79795" lon="-3.71924">
        <ele>14.4</ele>
        <time>2023-01-27T14:22:46Z</time>
      </trkpt>
      <trkpt lat="47.79795" lon="-3.71919">
        <ele>14.3</ele>
        <time>2023-01-27T14:22:48Z</time>
      </trkpt>
      <trkpt lat="47.79796" lon="-3.71909">
        <ele>14</ele>
        <time>2023-01-27T14:22:49Z</time>
      </trkpt>
      <trkpt lat="47.79796" lon="-3.71904">
        <ele>13.9</ele>
        <time>2023-01-27T14:22:50Z</time>
      </trkpt>
      <trkpt lat="47.79795" lon="-3.71898">
        <ele>13.8</ele>
        <time>2023-01-27T14:22:51Z</time>
      </trkpt>
      <trkpt lat="47.79795" lon="-3.71893">
        <ele>13.7</ele>
        <time>2023-01-27T14:22:52Z</time>
      </trkpt>
      <trkpt lat="47.79794" lon="-3.71884">
        <ele>13.6</ele>
        <time>2023-01-27T14:22:54Z</time>
      </trkpt>
      <trkpt lat="47.79794" lon="-3.7188">
        <ele>13.5</ele>
        <time>2023-01-27T14:22:55Z</time>
      </trkpt>
      <trkpt lat="47.79794" lon="-3.71877">
        <ele>13.5</ele>
        <time>2023-01-27T14:22:56Z</time>
      </trkpt>
      <trkpt lat="47.79794" lon="-3.71868">
        <ele>13.4</ele>
        <time>2023-01-27T14:22:58Z</time>
      </trkpt>
      <trkpt lat="47.79794" lon="-3.71864">
        <ele>13.4</ele>
        <time>2023-01-27T14:22:59Z</time>
      </trkpt>
      <trkpt lat="47.79794" lon="-3.71859">
        <ele>13.3</ele>
        <time>2023-01-27T14:23:00Z</time>
      </trkpt>
      <trkpt lat="47.79791" lon="-3.71855">
        <ele>13.3</ele>
        <time>2023-01-27T14:23:01Z</time>
      </trkpt>
      <trkpt lat="47.79787" lon="-3.71853">
        <ele>13.2</ele>
        <time>2023-01-27T14:23:03Z</time>
      </trkpt>
      <trkpt lat="47.79779" lon="-3.71852">
        <ele>13.1</ele>
        <time>2023-01-27T14:23:04Z</time>
      </trkpt>
      <trkpt lat="47.79775" lon="-3.7185">
        <ele>13</ele>
        <time>2023-01-27T14:23:06Z</time>
      </trkpt>
      <trkpt lat="47.79772" lon="-3.71849">
        <ele>13</ele>
        <time>2023-01-27T14:23:07Z</time>
      </trkpt>
      <trkpt lat="47.79769" lon="-3.7185">
        <ele>13</ele>
        <time>2023-01-27T14:23:08Z</time>
      </trkpt>
      <trkpt lat="47.79765" lon="-3.71849">
        <ele>13.1</ele>
        <time>2023-01-27T14:23:09Z</time>
      </trkpt>
      <trkpt lat="47.79763" lon="-3.71849">
        <ele>13.2</ele>
        <time>2023-01-27T14:23:10Z</time>
      </trkpt>
      <trkpt lat="47.79761" lon="-3.71849">
        <ele>13.3</ele>
        <time>2023-01-27T14:23:11Z</time>
      </trkpt>
      <trkpt lat="47.79759" lon="-3.71851">
        <ele>13.4</ele>
        <time>2023-01-27T14:23:12Z</time>
      </trkpt>
      <trkpt lat="47.79757" lon="-3.71852">
        <ele>13.5</ele>
        <time>2023-01-27T14:23:13Z</time>
      </trkpt>
      <trkpt lat="47.79755" lon="-3.71852">
        <ele>13.6</ele>
        <time>2023-01-27T14:23:14Z</time>
      </trkpt>
      <trkpt lat="47.79751" lon="-3.71853">
        <ele>13.9</ele>
        <time>2023-01-27T14:23:15Z</time>
      </trkpt>
      <trkpt lat="47.79748" lon="-3.71852">
        <ele>14.1</ele>
        <time>2023-01-27T14:23:16Z</time>
      </trkpt>
      <trkpt lat="47.79745" lon="-3.71851">
        <ele>14.4</ele>
        <time>2023-01-27T14:23:18Z</time>
      </trkpt>
      <trkpt lat="47.79742" lon="-3.71848">
        <ele>14.7</ele>
        <time>2023-01-27T14:23:19Z</time>
      </trkpt>
      <trkpt lat="47.79741" lon="-3.71847">
        <ele>14.8</ele>
        <time>2023-01-27T14:23:20Z</time>
      </trkpt>
      <trkpt lat="47.79737" lon="-3.71843">
        <ele>15.2</ele>
        <time>2023-01-27T14:23:21Z</time>
      </trkpt>
      <trkpt lat="47.79735" lon="-3.71841">
        <ele>15.1</ele>
        <time>2023-01-27T14:23:22Z</time>
      </trkpt>
      <trkpt lat="47.79732" lon="-3.71838">
        <ele>14.9</ele>
        <time>2023-01-27T14:23:24Z</time>
      </trkpt>
      <trkpt lat="47.79729" lon="-3.71835">
        <ele>14.8</ele>
        <time>2023-01-27T14:23:25Z</time>
      </trkpt>
      <trkpt lat="47.79726" lon="-3.71832">
        <ele>14.6</ele>
        <time>2023-01-27T14:23:26Z</time>
      </trkpt>
      <trkpt lat="47.79724" lon="-3.71829">
        <ele>14.4</ele>
        <time>2023-01-27T14:23:27Z</time>
      </trkpt>
      <trkpt lat="47.79721" lon="-3.71826">
        <ele>14.2</ele>
        <time>2023-01-27T14:23:28Z</time>
      </trkpt>
      <trkpt lat="47.79718" lon="-3.71824">
        <ele>14</ele>
        <time>2023-01-27T14:23:29Z</time>
      </trkpt>
      <trkpt lat="47.79716" lon="-3.71821">
        <ele>13.8</ele>
        <time>2023-01-27T14:23:30Z</time>
      </trkpt>
      <trkpt lat="47.79713" lon="-3.71818">
        <ele>13.6</ele>
        <time>2023-01-27T14:23:31Z</time>
      </trkpt>
      <trkpt lat="47.79711" lon="-3.71815">
        <ele>13.4</ele>
        <time>2023-01-27T14:23:32Z</time>
      </trkpt>
      <trkpt lat="47.79709" lon="-3.71812">
        <ele>13.3</ele>
        <time>2023-01-27T14:23:33Z</time>
      </trkpt>
      <trkpt lat="47.79704" lon="-3.71805">
        <ele>12.9</ele>
        <time>2023-01-27T14:23:34Z</time>
      </trkpt>
      <trkpt lat="47.79702" lon="-3.71802">
        <ele>12.8</ele>
        <time>2023-01-27T14:23:36Z</time>
      </trkpt>
      <trkpt lat="47.79701" lon="-3.718">
        <ele>12.6</ele>
        <time>2023-01-27T14:23:37Z</time>
      </trkpt>
      <trkpt lat="47.797" lon="-3.718">
        <ele>12.6</ele>
        <time>2023-01-27T14:23:38Z</time>
      </trkpt>
      <trkpt lat="47.797" lon="-3.718">
        <ele>12.6</ele>
        <time>2023-01-27T14:23:39Z</time>
      </trkpt>
      <trkpt lat="47.797" lon="-3.718">
        <ele>12.6</ele>
        <time>2023-01-27T14:23:40Z</time>
      </trkpt>
      <trkpt lat="47.797" lon="-3.718">
        <ele>12.6</ele>
        <time>2023-01-27T14:23:41Z</time>
      </trkpt>
      <trkpt lat="47.797" lon="-3.718">
        <ele>12.6</ele>
        <time>2023-01-27T14:23:42Z</time>
      </trkpt>
      <trkpt lat="47.797" lon="-3.718">
        <ele>12.6</ele>
        <time>2023-01-27T14:23:43Z</time>
      </trkpt>
      <trkpt lat="47.797" lon="-3.71801">
        <ele>12.6</ele>
        <time>2023-01-27T14:23:44Z</time>
      </trkpt>
      <trkpt lat="47.797" lon="-3.71801">
        <ele>12.5</ele>
        <time>2023-01-27T14:23:45Z</time>
      </trkpt>
      <trkpt lat="47.797" lon="-3.71801">
        <ele>12.5</ele>
        <time>2023-01-27T14:23:46Z</time>
      </trkpt>
      <trkpt lat="47.797" lon="-3.71801">
        <ele>12.5</ele>
        <time>2023-01-27T14:23:47Z</time>
      </trkpt>
      <trkpt lat="47.79699" lon="-3.718">
        <ele>12.5</ele>
        <time>2023-01-27T14:23:48Z</time>
      </trkpt>
      <trkpt lat="47.79699" lon="-3.71799">
        <ele>12.4</ele>
        <time>2023-01-27T14:23:49Z</time>
      </trkpt>
      <trkpt lat="47.79698" lon="-3.71799">
        <ele>12.4</ele>
        <time>2023-01-27T14:23:50Z</time>
      </trkpt>
      <trkpt lat="47.79698" lon="-3.71799">
        <ele>12.4</ele>
        <time>2023-01-27T14:23:51Z</time>
      </trkpt>
      <trkpt lat="47.79698" lon="-3.71799">
        <ele>12.4</ele>
        <time>2023-01-27T14:23:52Z</time>
      </trkpt>
      <trkpt lat="47.79698" lon="-3.71799">
        <ele>12.4</ele>
        <time>2023-01-27T14:23:53Z</time>
      </trkpt>
      <trkpt lat="47.79698" lon="-3.71799">
        <ele>12.4</ele>
        <time>2023-01-27T14:23:54Z</time>
      </trkpt>
      <trkpt lat="47.79698" lon="-3.71799">
        <ele>12.4</ele>
        <time>2023-01-27T14:23:55Z</time>
      </trkpt>
      <trkpt lat="47.79698" lon="-3.71799">
        <ele>12.4</ele>
        <time>2023-01-27T14:23:56Z</time>
      </trkpt>
      <trkpt lat="47.79698" lon="-3.71799">
        <ele>12.4</ele>
        <time>2023-01-27T14:23:57Z</time>
      </trkpt>
      <trkpt lat="47.79698" lon="-3.71799">
        <ele>12.3</ele>
        <time>2023-01-27T14:23:58Z</time>
      </trkpt>
      <trkpt lat="47.79698" lon="-3.71798">
        <ele>12.3</ele>
        <time>2023-01-27T14:23:59Z</time>
      </trkpt>
      <trkpt lat="47.79698" lon="-3.71797">
        <ele>12.3</ele>
        <time>2023-01-27T14:24:00Z</time>
      </trkpt>
      <trkpt lat="47.79697" lon="-3.71795">
        <ele>12.2</ele>
        <time>2023-01-27T14:24:01Z</time>
      </trkpt>
      <trkpt lat="47.79697" lon="-3.71795">
        <ele>12.2</ele>
        <time>2023-01-27T14:24:02Z</time>
      </trkpt>
      <trkpt lat="47.79697" lon="-3.71795">
        <ele>12.2</ele>
        <time>2023-01-27T14:24:03Z</time>
      </trkpt>
      <trkpt lat="47.79697" lon="-3.71795">
        <ele>12.2</ele>
        <time>2023-01-27T14:24:04Z</time>
      </trkpt>
      <trkpt lat="47.79697" lon="-3.71795">
        <ele>12.2</ele>
        <time>2023-01-27T14:24:05Z</time>
      </trkpt>
      <trkpt lat="47.79696" lon="-3.71794">
        <ele>12.2</ele>
        <time>2023-01-27T14:24:06Z</time>
      </trkpt>
      <trkpt lat="47.79696" lon="-3.71794">
        <ele>12.2</ele>
        <time>2023-01-27T14:24:07Z</time>
      </trkpt>
      <trkpt lat="47.79696" lon="-3.71794">
        <ele>12.1</ele>
        <time>2023-01-27T14:24:08Z</time>
      </trkpt>
      <trkpt lat="47.79696" lon="-3.71794">
        <ele>12.1</ele>
        <time>2023-01-27T14:24:09Z</time>
      </trkpt>
      <trkpt lat="47.79696" lon="-3.71794">
        <ele>12.1</ele>
        <time>2023-01-27T14:24:10Z</time>
      </trkpt>
      <trkpt lat="47.79696" lon="-3.71794">
        <ele>12.1</ele>
        <time>2023-01-27T14:24:11Z</time>
      </trkpt>
      <trkpt lat="47.79696" lon="-3.71793">
        <ele>12.1</ele>
        <time>2023-01-27T14:24:12Z</time>
      </trkpt>
      <trkpt lat="47.79696" lon="-3.71793">
        <ele>12.1</ele>
        <time>2023-01-27T14:24:13Z</time>
      </trkpt>
      <trkpt lat="47.79695" lon="-3.71793">
        <ele>12.1</ele>
        <time>2023-01-27T14:24:14Z</time>
      </trkpt>
      <trkpt lat="47.79695" lon="-3.71793">
        <ele>12.1</ele>
        <time>2023-01-27T14:24:15Z</time>
      </trkpt>
      <trkpt lat="47.79695" lon="-3.71793">
        <ele>12.1</ele>
        <time>2023-01-27T14:24:16Z</time>
      </trkpt>
      <trkpt lat="47.79695" lon="-3.71793">
        <ele>12.1</ele>
        <time>2023-01-27T14:24:17Z</time>
      </trkpt>
      <trkpt lat="47.79695" lon="-3.71792">
        <ele>12.1</ele>
        <time>2023-01-27T14:24:18Z</time>
      </trkpt>
      <trkpt lat="47.79695" lon="-3.71792">
        <ele>12</ele>
        <time>2023-01-27T14:24:19Z</time>
      </trkpt>
      <trkpt lat="47.79695" lon="-3.71792">
        <ele>12</ele>
        <time>2023-01-27T14:24:20Z</time>
      </trkpt>
      <trkpt lat="47.79695" lon="-3.71792">
        <ele>12</ele>
        <time>2023-01-27T14:24:21Z</time>
      </trkpt>
      <trkpt lat="47.79694" lon="-3.71792">
        <ele>12</ele>
        <time>2023-01-27T14:24:22Z</time>
      </trkpt>
      <trkpt lat="47.79694" lon="-3.71792">
        <ele>12</ele>
        <time>2023-01-27T14:24:23Z</time>
      </trkpt>
      <trkpt lat="47.79694" lon="-3.71791">
        <ele>12</ele>
        <time>2023-01-27T14:24:25Z</time>
      </trkpt>
      <trkpt lat="47.79694" lon="-3.71791">
        <ele>12</ele>
        <time>2023-01-27T14:24:26Z</time>
      </trkpt>
      <trkpt lat="47.79694" lon="-3.71791">
        <ele>12</ele>
        <time>2023-01-27T14:24:27Z</time>
      </trkpt>
      <trkpt lat="47.79694" lon="-3.71791">
        <ele>12</ele>
        <time>2023-01-27T14:24:28Z</time>
      </trkpt>
      <trkpt lat="47.79694" lon="-3.71791">
        <ele>12</ele>
        <time>2023-01-27T14:24:29Z</time>
      </trkpt>
      <trkpt lat="47.79693" lon="-3.7179">
        <ele>12</ele>
        <time>2023-01-27T14:24:30Z</time>
      </trkpt>
      <trkpt lat="47.79693" lon="-3.7179">
        <ele>12</ele>
        <time>2023-01-27T14:24:31Z</time>
      </trkpt>
      <trkpt lat="47.79693" lon="-3.7179">
        <ele>11.9</ele>
        <time>2023-01-27T14:24:32Z</time>
      </trkpt>
      <trkpt lat="47.79693" lon="-3.7179">
        <ele>11.9</ele>
        <time>2023-01-27T14:24:33Z</time>
      </trkpt>
      <trkpt lat="47.79693" lon="-3.7179">
        <ele>11.9</ele>
        <time>2023-01-27T14:24:34Z</time>
      </trkpt>
      <trkpt lat="47.79693" lon="-3.7179">
        <ele>11.9</ele>
        <time>2023-01-27T14:24:35Z</time>
      </trkpt>
      <trkpt lat="47.79693" lon="-3.71789">
        <ele>11.9</ele>
        <time>2023-01-27T14:24:44Z</time>
      </trkpt>
      <trkpt lat="47.79693" lon="-3.71789">
        <ele>11.9</ele>
        <time>2023-01-27T14:24:45Z</time>
      </trkpt>
      <trkpt lat="47.79692" lon="-3.71789">
        <ele>11.9</ele>
        <time>2023-01-27T14:24:46Z</time>
      </trkpt>
      <trkpt lat="47.79689" lon="-3.71784">
        <ele>11.7</ele>
        <time>2023-01-27T14:24:47Z</time>
      </trkpt>
      <trkpt lat="47.79688" lon="-3.71782">
        <ele>11.6</ele>
        <time>2023-01-27T14:24:48Z</time>
      </trkpt>
      <trkpt lat="47.79685" lon="-3.71777">
        <ele>11.3</ele>
        <time>2023-01-27T14:24:49Z</time>
      </trkpt>
      <trkpt lat="47.7968" lon="-3.71766">
        <ele>11.6</ele>
        <time>2023-01-27T14:24:51Z</time>
      </trkpt>
      <trkpt lat="47.79679" lon="-3.71761">
        <ele>11.8</ele>
        <time>2023-01-27T14:24:52Z</time>
      </trkpt>
      <trkpt lat="47.79676" lon="-3.71753">
        <ele>12.2</ele>
        <time>2023-01-27T14:24:54Z</time>
      </trkpt>
      <trkpt lat="47.79675" lon="-3.71749">
        <ele>12.4</ele>
        <time>2023-01-27T14:24:55Z</time>
      </trkpt>
      <trkpt lat="47.79673" lon="-3.71738">
        <ele>12.8</ele>
        <time>2023-01-27T14:24:57Z</time>
      </trkpt>
      <trkpt lat="47.79672" lon="-3.71733">
        <ele>13</ele>
        <time>2023-01-27T14:24:58Z</time>
      </trkpt>
      <trkpt lat="47.79672" lon="-3.71728">
        <ele>13.3</ele>
        <time>2023-01-27T14:25:00Z</time>
      </trkpt>
      <trkpt lat="47.79672" lon="-3.71723">
        <ele>13.5</ele>
        <time>2023-01-27T14:25:01Z</time>
      </trkpt>
      <trkpt lat="47.79671" lon="-3.71717">
        <ele>13.8</ele>
        <time>2023-01-27T14:25:02Z</time>
      </trkpt>
      <trkpt lat="47.79671" lon="-3.71715">
        <ele>13.9</ele>
        <time>2023-01-27T14:25:03Z</time>
      </trkpt>
      <trkpt lat="47.7967" lon="-3.7171">
        <ele>14.1</ele>
        <time>2023-01-27T14:25:04Z</time>
      </trkpt>
      <trkpt lat="47.79669" lon="-3.71706">
        <ele>14.4</ele>
        <time>2023-01-27T14:25:05Z</time>
      </trkpt>
      <trkpt lat="47.79667" lon="-3.717">
        <ele>14.7</ele>
        <time>2023-01-27T14:25:06Z</time>
      </trkpt>
      <trkpt lat="47.79666" lon="-3.71694">
        <ele>14.9</ele>
        <time>2023-01-27T14:25:08Z</time>
      </trkpt>
      <trkpt lat="47.79665" lon="-3.71689">
        <ele>15.1</ele>
        <time>2023-01-27T14:25:09Z</time>
      </trkpt>
      <trkpt lat="47.79663" lon="-3.71679">
        <ele>15.5</ele>
        <time>2023-01-27T14:25:10Z</time>
      </trkpt>
      <trkpt lat="47.79661" lon="-3.7167">
        <ele>15.9</ele>
        <time>2023-01-27T14:25:12Z</time>
      </trkpt>
      <trkpt lat="47.7966" lon="-3.71666">
        <ele>16.1</ele>
        <time>2023-01-27T14:25:13Z</time>
      </trkpt>
      <trkpt lat="47.79659" lon="-3.71661">
        <ele>16.3</ele>
        <time>2023-01-27T14:25:15Z</time>
      </trkpt>
      <trkpt lat="47.79657" lon="-3.71657">
        <ele>16.5</ele>
        <time>2023-01-27T14:25:16Z</time>
      </trkpt>
      <trkpt lat="47.79654" lon="-3.71649">
        <ele>17</ele>
        <time>2023-01-27T14:25:17Z</time>
      </trkpt>
      <trkpt lat="47.79652" lon="-3.71646">
        <ele>17.2</ele>
        <time>2023-01-27T14:25:18Z</time>
      </trkpt>
      <trkpt lat="47.7965" lon="-3.71642">
        <ele>17.4</ele>
        <time>2023-01-27T14:25:20Z</time>
      </trkpt>
      <trkpt lat="47.79648" lon="-3.71638">
        <ele>17.6</ele>
        <time>2023-01-27T14:25:21Z</time>
      </trkpt>
      <trkpt lat="47.79646" lon="-3.71634">
        <ele>17.8</ele>
        <time>2023-01-27T14:25:22Z</time>
      </trkpt>
      <trkpt lat="47.79641" lon="-3.71628">
        <ele>18.2</ele>
        <time>2023-01-27T14:25:23Z</time>
      </trkpt>
      <trkpt lat="47.79638" lon="-3.71625">
        <ele>18.4</ele>
        <time>2023-01-27T14:25:25Z</time>
      </trkpt>
      <trkpt lat="47.79633" lon="-3.71618">
        <ele>18.7</ele>
        <time>2023-01-27T14:25:26Z</time>
      </trkpt>
      <trkpt lat="47.79631" lon="-3.71614">
        <ele>18.8</ele>
        <time>2023-01-27T14:25:28Z</time>
      </trkpt>
      <trkpt lat="47.79628" lon="-3.7161">
        <ele>19</ele>
        <time>2023-01-27T14:25:29Z</time>
      </trkpt>
      <trkpt lat="47.79623" lon="-3.71604">
        <ele>19.2</ele>
        <time>2023-01-27T14:25:30Z</time>
      </trkpt>
      <trkpt lat="47.7962" lon="-3.716">
        <ele>19.3</ele>
        <time>2023-01-27T14:25:32Z</time>
      </trkpt>
      <trkpt lat="47.79619" lon="-3.71595">
        <ele>19.4</ele>
        <time>2023-01-27T14:25:33Z</time>
      </trkpt>
      <trkpt lat="47.79617" lon="-3.71586">
        <ele>19.6</ele>
        <time>2023-01-27T14:25:34Z</time>
      </trkpt>
      <trkpt lat="47.79616" lon="-3.7158">
        <ele>19.7</ele>
        <time>2023-01-27T14:25:35Z</time>
      </trkpt>
      <trkpt lat="47.79616" lon="-3.71575">
        <ele>19.7</ele>
        <time>2023-01-27T14:25:36Z</time>
      </trkpt>
      <trkpt lat="47.79615" lon="-3.7157">
        <ele>19.8</ele>
        <time>2023-01-27T14:25:37Z</time>
      </trkpt>
      <trkpt lat="47.79615" lon="-3.71564">
        <ele>19.9</ele>
        <time>2023-01-27T14:25:39Z</time>
      </trkpt>
      <trkpt lat="47.79614" lon="-3.7156">
        <ele>19.9</ele>
        <time>2023-01-27T14:25:40Z</time>
      </trkpt>
      <trkpt lat="47.79612" lon="-3.71554">
        <ele>20</ele>
        <time>2023-01-27T14:25:41Z</time>
      </trkpt>
      <trkpt lat="47.79611" lon="-3.71549">
        <ele>20</ele>
        <time>2023-01-27T14:25:42Z</time>
      </trkpt>
      <trkpt lat="47.7961" lon="-3.71544">
        <ele>20</ele>
        <time>2023-01-27T14:25:43Z</time>
      </trkpt>
      <trkpt lat="47.79608" lon="-3.71533">
        <ele>20</ele>
        <time>2023-01-27T14:25:44Z</time>
      </trkpt>
      <trkpt lat="47.79606" lon="-3.71525">
        <ele>20</ele>
        <time>2023-01-27T14:25:46Z</time>
      </trkpt>
      <trkpt lat="47.79604" lon="-3.71519">
        <ele>20</ele>
        <time>2023-01-27T14:25:47Z</time>
      </trkpt>
      <trkpt lat="47.79602" lon="-3.71512">
        <ele>20.1</ele>
        <time>2023-01-27T14:25:48Z</time>
      </trkpt>
      <trkpt lat="47.796" lon="-3.71506">
        <ele>20.2</ele>
        <time>2023-01-27T14:25:49Z</time>
      </trkpt>
      <trkpt lat="47.79598" lon="-3.715">
        <ele>20.4</ele>
        <time>2023-01-27T14:25:50Z</time>
      </trkpt>
      <trkpt lat="47.79596" lon="-3.71495">
        <ele>20.5</ele>
        <time>2023-01-27T14:25:51Z</time>
      </trkpt>
      <trkpt lat="47.79595" lon="-3.71491">
        <ele>20.6</ele>
        <time>2023-01-27T14:25:52Z</time>
      </trkpt>
      <trkpt lat="47.79593" lon="-3.71485">
        <ele>20.8</ele>
        <time>2023-01-27T14:25:53Z</time>
      </trkpt>
      <trkpt lat="47.79592" lon="-3.71476">
        <ele>21</ele>
        <time>2023-01-27T14:25:54Z</time>
      </trkpt>
      <trkpt lat="47.7959" lon="-3.71463">
        <ele>21.3</ele>
        <time>2023-01-27T14:25:56Z</time>
      </trkpt>
      <trkpt lat="47.79589" lon="-3.71451">
        <ele>21.7</ele>
        <time>2023-01-27T14:25:58Z</time>
      </trkpt>
      <trkpt lat="47.79588" lon="-3.71445">
        <ele>21.9</ele>
        <time>2023-01-27T14:26:00Z</time>
      </trkpt>
      <trkpt lat="47.79587" lon="-3.71439">
        <ele>22</ele>
        <time>2023-01-27T14:26:01Z</time>
      </trkpt>
      <trkpt lat="47.79587" lon="-3.71433">
        <ele>22.2</ele>
        <time>2023-01-27T14:26:02Z</time>
      </trkpt>
      <trkpt lat="47.79586" lon="-3.71429">
        <ele>22.3</ele>
        <time>2023-01-27T14:26:03Z</time>
      </trkpt>
      <trkpt lat="47.79585" lon="-3.71423">
        <ele>22.5</ele>
        <time>2023-01-27T14:26:04Z</time>
      </trkpt>
      <trkpt lat="47.79584" lon="-3.71417">
        <ele>22.7</ele>
        <time>2023-01-27T14:26:05Z</time>
      </trkpt>
      <trkpt lat="47.79583" lon="-3.71411">
        <ele>22.8</ele>
        <time>2023-01-27T14:26:06Z</time>
      </trkpt>
      <trkpt lat="47.79582" lon="-3.71407">
        <ele>23</ele>
        <time>2023-01-27T14:26:07Z</time>
      </trkpt>
      <trkpt lat="47.79582" lon="-3.71401">
        <ele>23.1</ele>
        <time>2023-01-27T14:26:08Z</time>
      </trkpt>
      <trkpt lat="47.7958" lon="-3.71395">
        <ele>23.3</ele>
        <time>2023-01-27T14:26:09Z</time>
      </trkpt>
      <trkpt lat="47.79579" lon="-3.7139">
        <ele>23.5</ele>
        <time>2023-01-27T14:26:10Z</time>
      </trkpt>
      <trkpt lat="47.79579" lon="-3.71384">
        <ele>23.6</ele>
        <time>2023-01-27T14:26:11Z</time>
      </trkpt>
      <trkpt lat="47.79579" lon="-3.71378">
        <ele>23.8</ele>
        <time>2023-01-27T14:26:12Z</time>
      </trkpt>
      <trkpt lat="47.79579" lon="-3.71372">
        <ele>23.9</ele>
        <time>2023-01-27T14:26:13Z</time>
      </trkpt>
      <trkpt lat="47.79579" lon="-3.71366">
        <ele>24</ele>
        <time>2023-01-27T14:26:14Z</time>
      </trkpt>
      <trkpt lat="47.79579" lon="-3.71362">
        <ele>24.2</ele>
        <time>2023-01-27T14:26:15Z</time>
      </trkpt>
      <trkpt lat="47.79579" lon="-3.71357">
        <ele>24.3</ele>
        <time>2023-01-27T14:26:16Z</time>
      </trkpt>
      <trkpt lat="47.79578" lon="-3.71352">
        <ele>24.4</ele>
        <time>2023-01-27T14:26:17Z</time>
      </trkpt>
      <trkpt lat="47.79578" lon="-3.71346">
        <ele>24.5</ele>
        <time>2023-01-27T14:26:18Z</time>
      </trkpt>
      <trkpt lat="47.79578" lon="-3.71341">
        <ele>24.7</ele>
        <time>2023-01-27T14:26:19Z</time>
      </trkpt>
      <trkpt lat="47.79577" lon="-3.71335">
        <ele>24.8</ele>
        <time>2023-01-27T14:26:20Z</time>
      </trkpt>
      <trkpt lat="47.79576" lon="-3.7133">
        <ele>25</ele>
        <time>2023-01-27T14:26:21Z</time>
      </trkpt>
      <trkpt lat="47.79575" lon="-3.71324">
        <ele>25.1</ele>
        <time>2023-01-27T14:26:22Z</time>
      </trkpt>
      <trkpt lat="47.79574" lon="-3.71318">
        <ele>25.3</ele>
        <time>2023-01-27T14:26:23Z</time>
      </trkpt>
      <trkpt lat="47.79574" lon="-3.71312">
        <ele>25.4</ele>
        <time>2023-01-27T14:26:24Z</time>
      </trkpt>
      <trkpt lat="47.79574" lon="-3.71307">
        <ele>25.6</ele>
        <time>2023-01-27T14:26:25Z</time>
      </trkpt>
      <trkpt lat="47.79575" lon="-3.71301">
        <ele>25.7</ele>
        <time>2023-01-27T14:26:26Z</time>
      </trkpt>
      <trkpt lat="47.79575" lon="-3.71295">
        <ele>25.9</ele>
        <time>2023-01-27T14:26:27Z</time>
      </trkpt>
      <trkpt lat="47.79575" lon="-3.71289">
        <ele>26.1</ele>
        <time>2023-01-27T14:26:28Z</time>
      </trkpt>
      <trkpt lat="47.79576" lon="-3.71284">
        <ele>26.2</ele>
        <time>2023-01-27T14:26:29Z</time>
      </trkpt>
      <trkpt lat="47.79577" lon="-3.71278">
        <ele>26.3</ele>
        <time>2023-01-27T14:26:30Z</time>
      </trkpt>
      <trkpt lat="47.79577" lon="-3.71273">
        <ele>26.4</ele>
        <time>2023-01-27T14:26:31Z</time>
      </trkpt>
      <trkpt lat="47.79579" lon="-3.71267">
        <ele>26.5</ele>
        <time>2023-01-27T14:26:32Z</time>
      </trkpt>
      <trkpt lat="47.79581" lon="-3.7126">
        <ele>26.6</ele>
        <time>2023-01-27T14:26:33Z</time>
      </trkpt>
      <trkpt lat="47.79586" lon="-3.71249">
        <ele>26.7</ele>
        <time>2023-01-27T14:26:35Z</time>
      </trkpt>
      <trkpt lat="47.79588" lon="-3.71243">
        <ele>26.8</ele>
        <time>2023-01-27T14:26:36Z</time>
      </trkpt>
      <trkpt lat="47.7959" lon="-3.71237">
        <ele>26.9</ele>
        <time>2023-01-27T14:26:38Z</time>
      </trkpt>
      <trkpt lat="47.79592" lon="-3.71233">
        <ele>27</ele>
        <time>2023-01-27T14:26:39Z</time>
      </trkpt>
      <trkpt lat="47.79593" lon="-3.71228">
        <ele>27</ele>
        <time>2023-01-27T14:26:40Z</time>
      </trkpt>
      <trkpt lat="47.79596" lon="-3.71218">
        <ele>27.1</ele>
        <time>2023-01-27T14:26:41Z</time>
      </trkpt>
      <trkpt lat="47.79597" lon="-3.71213">
        <ele>27.2</ele>
        <time>2023-01-27T14:26:43Z</time>
      </trkpt>
      <trkpt lat="47.796" lon="-3.71208">
        <ele>27.2</ele>
        <time>2023-01-27T14:26:44Z</time>
      </trkpt>
      <trkpt lat="47.79603" lon="-3.71198">
        <ele>27.3</ele>
        <time>2023-01-27T14:26:45Z</time>
      </trkpt>
      <trkpt lat="47.79605" lon="-3.71193">
        <ele>27.4</ele>
        <time>2023-01-27T14:26:47Z</time>
      </trkpt>
      <trkpt lat="47.79607" lon="-3.71188">
        <ele>27.4</ele>
        <time>2023-01-27T14:26:48Z</time>
      </trkpt>
      <trkpt lat="47.79608" lon="-3.71181">
        <ele>27.4</ele>
        <time>2023-01-27T14:26:49Z</time>
      </trkpt>
      <trkpt lat="47.7961" lon="-3.71176">
        <ele>27.4</ele>
        <time>2023-01-27T14:26:50Z</time>
      </trkpt>
      <trkpt lat="47.79613" lon="-3.71169">
        <ele>27.4</ele>
        <time>2023-01-27T14:26:51Z</time>
      </trkpt>
      <trkpt lat="47.79615" lon="-3.71162">
        <ele>27.3</ele>
        <time>2023-01-27T14:26:52Z</time>
      </trkpt>
      <trkpt lat="47.79617" lon="-3.71155">
        <ele>27.3</ele>
        <time>2023-01-27T14:26:53Z</time>
      </trkpt>
      <trkpt lat="47.79619" lon="-3.71148">
        <ele>27.4</ele>
        <time>2023-01-27T14:26:54Z</time>
      </trkpt>
      <trkpt lat="47.7962" lon="-3.71142">
        <ele>27.4</ele>
        <time>2023-01-27T14:26:55Z</time>
      </trkpt>
      <trkpt lat="47.79622" lon="-3.71136">
        <ele>27.4</ele>
        <time>2023-01-27T14:26:56Z</time>
      </trkpt>
      <trkpt lat="47.79624" lon="-3.7113">
        <ele>27.4</ele>
        <time>2023-01-27T14:26:57Z</time>
      </trkpt>
      <trkpt lat="47.79626" lon="-3.71123">
        <ele>27.4</ele>
        <time>2023-01-27T14:26:58Z</time>
      </trkpt>
      <trkpt lat="47.79628" lon="-3.71116">
        <ele>27.4</ele>
        <time>2023-01-27T14:26:59Z</time>
      </trkpt>
      <trkpt lat="47.7963" lon="-3.7111">
        <ele>27.4</ele>
        <time>2023-01-27T14:27:00Z</time>
      </trkpt>
      <trkpt lat="47.79631" lon="-3.71104">
        <ele>27.4</ele>
        <time>2023-01-27T14:27:01Z</time>
      </trkpt>
      <trkpt lat="47.79633" lon="-3.71097">
        <ele>27.4</ele>
        <time>2023-01-27T14:27:02Z</time>
      </trkpt>
      <trkpt lat="47.79634" lon="-3.7109">
        <ele>27.3</ele>
        <time>2023-01-27T14:27:03Z</time>
      </trkpt>
      <trkpt lat="47.79635" lon="-3.71083">
        <ele>27.2</ele>
        <time>2023-01-27T14:27:04Z</time>
      </trkpt>
      <trkpt lat="47.79637" lon="-3.71077">
        <ele>27.2</ele>
        <time>2023-01-27T14:27:05Z</time>
      </trkpt>
      <trkpt lat="47.79637" lon="-3.71073">
        <ele>27.1</ele>
        <time>2023-01-27T14:27:06Z</time>
      </trkpt>
      <trkpt lat="47.79637" lon="-3.71067">
        <ele>27.1</ele>
        <time>2023-01-27T14:27:07Z</time>
      </trkpt>
      <trkpt lat="47.79641" lon="-3.71057">
        <ele>26.9</ele>
        <time>2023-01-27T14:27:08Z</time>
      </trkpt>
      <trkpt lat="47.79643" lon="-3.71052">
        <ele>27</ele>
        <time>2023-01-27T14:27:09Z</time>
      </trkpt>
      <trkpt lat="47.79649" lon="-3.71045">
        <ele>27</ele>
        <time>2023-01-27T14:27:11Z</time>
      </trkpt>
      <trkpt lat="47.79652" lon="-3.7104">
        <ele>27.1</ele>
        <time>2023-01-27T14:27:12Z</time>
      </trkpt>
      <trkpt lat="47.79656" lon="-3.71035">
        <ele>27.1</ele>
        <time>2023-01-27T14:27:13Z</time>
      </trkpt>
      <trkpt lat="47.79659" lon="-3.7103">
        <ele>27.2</ele>
        <time>2023-01-27T14:27:14Z</time>
      </trkpt>
      <trkpt lat="47.79662" lon="-3.71025">
        <ele>27.3</ele>
        <time>2023-01-27T14:27:15Z</time>
      </trkpt>
      <trkpt lat="47.79666" lon="-3.71021">
        <ele>27.4</ele>
        <time>2023-01-27T14:27:16Z</time>
      </trkpt>
      <trkpt lat="47.79669" lon="-3.71017">
        <ele>27.6</ele>
        <time>2023-01-27T14:27:17Z</time>
      </trkpt>
      <trkpt lat="47.79672" lon="-3.71014">
        <ele>27.6</ele>
        <time>2023-01-27T14:27:18Z</time>
      </trkpt>
      <trkpt lat="47.79679" lon="-3.71007">
        <ele>27.9</ele>
        <time>2023-01-27T14:27:19Z</time>
      </trkpt>
      <trkpt lat="47.79682" lon="-3.71003">
        <ele>28</ele>
        <time>2023-01-27T14:27:21Z</time>
      </trkpt>
      <trkpt lat="47.79685" lon="-3.70998">
        <ele>28.1</ele>
        <time>2023-01-27T14:27:22Z</time>
      </trkpt>
      <trkpt lat="47.79688" lon="-3.70995">
        <ele>28.2</ele>
        <time>2023-01-27T14:27:23Z</time>
      </trkpt>
      <trkpt lat="47.79695" lon="-3.70987">
        <ele>28.5</ele>
        <time>2023-01-27T14:27:24Z</time>
      </trkpt>
      <trkpt lat="47.79698" lon="-3.70983">
        <ele>28.7</ele>
        <time>2023-01-27T14:27:25Z</time>
      </trkpt>
      <trkpt lat="47.79702" lon="-3.70978">
        <ele>28.9</ele>
        <time>2023-01-27T14:27:26Z</time>
      </trkpt>
      <trkpt lat="47.79705" lon="-3.70974">
        <ele>29</ele>
        <time>2023-01-27T14:27:28Z</time>
      </trkpt>
      <trkpt lat="47.79708" lon="-3.70971">
        <ele>29.2</ele>
        <time>2023-01-27T14:27:29Z</time>
      </trkpt>
      <trkpt lat="47.79711" lon="-3.70967">
        <ele>29.4</ele>
        <time>2023-01-27T14:27:30Z</time>
      </trkpt>
      <trkpt lat="47.79715" lon="-3.70963">
        <ele>29.6</ele>
        <time>2023-01-27T14:27:31Z</time>
      </trkpt>
      <trkpt lat="47.79718" lon="-3.7096">
        <ele>29.8</ele>
        <time>2023-01-27T14:27:32Z</time>
      </trkpt>
      <trkpt lat="47.79722" lon="-3.70958">
        <ele>29.9</ele>
        <time>2023-01-27T14:27:33Z</time>
      </trkpt>
      <trkpt lat="47.79726" lon="-3.70956">
        <ele>30.1</ele>
        <time>2023-01-27T14:27:34Z</time>
      </trkpt>
      <trkpt lat="47.7973" lon="-3.70954">
        <ele>30.3</ele>
        <time>2023-01-27T14:27:35Z</time>
      </trkpt>
      <trkpt lat="47.79735" lon="-3.70953">
        <ele>30.4</ele>
        <time>2023-01-27T14:27:36Z</time>
      </trkpt>
      <trkpt lat="47.79739" lon="-3.7095">
        <ele>30.6</ele>
        <time>2023-01-27T14:27:37Z</time>
      </trkpt>
      <trkpt lat="47.79744" lon="-3.70949">
        <ele>30.7</ele>
        <time>2023-01-27T14:27:38Z</time>
      </trkpt>
      <trkpt lat="47.79748" lon="-3.70947">
        <ele>30.8</ele>
        <time>2023-01-27T14:27:39Z</time>
      </trkpt>
      <trkpt lat="47.7975" lon="-3.70945">
        <ele>30.9</ele>
        <time>2023-01-27T14:27:40Z</time>
      </trkpt>
      <trkpt lat="47.79755" lon="-3.70941">
        <ele>31.2</ele>
        <time>2023-01-27T14:27:41Z</time>
      </trkpt>
      <trkpt lat="47.7976" lon="-3.7094">
        <ele>31.3</ele>
        <time>2023-01-27T14:27:42Z</time>
      </trkpt>
      <trkpt lat="47.79765" lon="-3.7094">
        <ele>31.5</ele>
        <time>2023-01-27T14:27:43Z</time>
      </trkpt>
      <trkpt lat="47.79768" lon="-3.70938">
        <ele>31.7</ele>
        <time>2023-01-27T14:27:44Z</time>
      </trkpt>
      <trkpt lat="47.79776" lon="-3.70936">
        <ele>32.1</ele>
        <time>2023-01-27T14:27:46Z</time>
      </trkpt>
      <trkpt lat="47.7978" lon="-3.70936">
        <ele>32.4</ele>
        <time>2023-01-27T14:27:47Z</time>
      </trkpt>
      <trkpt lat="47.79783" lon="-3.70935">
        <ele>32.6</ele>
        <time>2023-01-27T14:27:48Z</time>
      </trkpt>
      <trkpt lat="47.79787" lon="-3.70934">
        <ele>33</ele>
        <time>2023-01-27T14:27:49Z</time>
      </trkpt>
      <trkpt lat="47.7979" lon="-3.70933">
        <ele>32.9</ele>
        <time>2023-01-27T14:27:50Z</time>
      </trkpt>
      <trkpt lat="47.79792" lon="-3.70928">
        <ele>32.8</ele>
        <time>2023-01-27T14:27:51Z</time>
      </trkpt>
      <trkpt lat="47.79792" lon="-3.70923">
        <ele>32.7</ele>
        <time>2023-01-27T14:27:52Z</time>
      </trkpt>
      <trkpt lat="47.79793" lon="-3.7091">
        <ele>32.4</ele>
        <time>2023-01-27T14:27:53Z</time>
      </trkpt>
      <trkpt lat="47.79787" lon="-3.70898">
        <ele>32.1</ele>
        <time>2023-01-27T14:27:55Z</time>
      </trkpt>
      <trkpt lat="47.79782" lon="-3.70892">
        <ele>31.8</ele>
        <time>2023-01-27T14:27:56Z</time>
      </trkpt>
      <trkpt lat="47.79777" lon="-3.70888">
        <ele>31.6</ele>
        <time>2023-01-27T14:27:57Z</time>
      </trkpt>
      <trkpt lat="47.79771" lon="-3.70886">
        <ele>31.4</ele>
        <time>2023-01-27T14:27:58Z</time>
      </trkpt>
      <trkpt lat="47.79765" lon="-3.70886">
        <ele>31.3</ele>
        <time>2023-01-27T14:27:59Z</time>
      </trkpt>
      <trkpt lat="47.7976" lon="-3.70889">
        <ele>31.2</ele>
        <time>2023-01-27T14:28:00Z</time>
      </trkpt>
      <trkpt lat="47.79755" lon="-3.70892">
        <ele>31.2</ele>
        <time>2023-01-27T14:28:01Z</time>
      </trkpt>
      <trkpt lat="47.79749" lon="-3.70895">
        <ele>31.1</ele>
        <time>2023-01-27T14:28:02Z</time>
      </trkpt>
      <trkpt lat="47.79744" lon="-3.70897">
        <ele>31.1</ele>
        <time>2023-01-27T14:28:03Z</time>
      </trkpt>
      <trkpt lat="47.79739" lon="-3.70899">
        <ele>31</ele>
        <time>2023-01-27T14:28:04Z</time>
      </trkpt>
      <trkpt lat="47.79733" lon="-3.70901">
        <ele>31</ele>
        <time>2023-01-27T14:28:05Z</time>
      </trkpt>
      <trkpt lat="47.79727" lon="-3.70901">
        <ele>31.1</ele>
        <time>2023-01-27T14:28:06Z</time>
      </trkpt>
      <trkpt lat="47.79722" lon="-3.709">
        <ele>31.1</ele>
        <time>2023-01-27T14:28:07Z</time>
      </trkpt>
      <trkpt lat="47.79716" lon="-3.70899">
        <ele>31.1</ele>
        <time>2023-01-27T14:28:08Z</time>
      </trkpt>
      <trkpt lat="47.79711" lon="-3.70894">
        <ele>31.2</ele>
        <time>2023-01-27T14:28:09Z</time>
      </trkpt>
      <trkpt lat="47.79708" lon="-3.70887">
        <ele>31.2</ele>
        <time>2023-01-27T14:28:10Z</time>
      </trkpt>
      <trkpt lat="47.79706" lon="-3.70879">
        <ele>31.2</ele>
        <time>2023-01-27T14:28:11Z</time>
      </trkpt>
      <trkpt lat="47.79707" lon="-3.70871">
        <ele>31.5</ele>
        <time>2023-01-27T14:28:12Z</time>
      </trkpt>
      <trkpt lat="47.79707" lon="-3.70863">
        <ele>31.7</ele>
        <time>2023-01-27T14:28:13Z</time>
      </trkpt>
      <trkpt lat="47.79708" lon="-3.70855">
        <ele>31.9</ele>
        <time>2023-01-27T14:28:14Z</time>
      </trkpt>
      <trkpt lat="47.79709" lon="-3.70847">
        <ele>32.2</ele>
        <time>2023-01-27T14:28:15Z</time>
      </trkpt>
      <trkpt lat="47.7971" lon="-3.70839">
        <ele>32.4</ele>
        <time>2023-01-27T14:28:16Z</time>
      </trkpt>
      <trkpt lat="47.79711" lon="-3.70832">
        <ele>32.7</ele>
        <time>2023-01-27T14:28:17Z</time>
      </trkpt>
      <trkpt lat="47.79712" lon="-3.70824">
        <ele>32.9</ele>
        <time>2023-01-27T14:28:18Z</time>
      </trkpt>
      <trkpt lat="47.79712" lon="-3.70816">
        <ele>33.1</ele>
        <time>2023-01-27T14:28:19Z</time>
      </trkpt>
      <trkpt lat="47.79713" lon="-3.70808">
        <ele>33.3</ele>
        <time>2023-01-27T14:28:20Z</time>
      </trkpt>
      <trkpt lat="47.79714" lon="-3.708">
        <ele>33.5</ele>
        <time>2023-01-27T14:28:21Z</time>
      </trkpt>
      <trkpt lat="47.79715" lon="-3.70792">
        <ele>33.7</ele>
        <time>2023-01-27T14:28:22Z</time>
      </trkpt>
      <trkpt lat="47.79716" lon="-3.70785">
        <ele>33.9</ele>
        <time>2023-01-27T14:28:23Z</time>
      </trkpt>
      <trkpt lat="47.79716" lon="-3.70777">
        <ele>34.1</ele>
        <time>2023-01-27T14:28:24Z</time>
      </trkpt>
      <trkpt lat="47.79717" lon="-3.7077">
        <ele>34.3</ele>
        <time>2023-01-27T14:28:25Z</time>
      </trkpt>
      <trkpt lat="47.79717" lon="-3.70762">
        <ele>34.5</ele>
        <time>2023-01-27T14:28:26Z</time>
      </trkpt>
      <trkpt lat="47.79718" lon="-3.70755">
        <ele>34.7</ele>
        <time>2023-01-27T14:28:27Z</time>
      </trkpt>
      <trkpt lat="47.79719" lon="-3.70748">
        <ele>34.9</ele>
        <time>2023-01-27T14:28:28Z</time>
      </trkpt>
      <trkpt lat="47.7972" lon="-3.7074">
        <ele>35.1</ele>
        <time>2023-01-27T14:28:29Z</time>
      </trkpt>
      <trkpt lat="47.79721" lon="-3.70733">
        <ele>35.3</ele>
        <time>2023-01-27T14:28:30Z</time>
      </trkpt>
      <trkpt lat="47.79722" lon="-3.70726">
        <ele>35.6</ele>
        <time>2023-01-27T14:28:31Z</time>
      </trkpt>
      <trkpt lat="47.79723" lon="-3.70719">
        <ele>35.8</ele>
        <time>2023-01-27T14:28:32Z</time>
      </trkpt>
      <trkpt lat="47.79724" lon="-3.70712">
        <ele>36</ele>
        <time>2023-01-27T14:28:33Z</time>
      </trkpt>
      <trkpt lat="47.79726" lon="-3.70706">
        <ele>36.1</ele>
        <time>2023-01-27T14:28:34Z</time>
      </trkpt>
      <trkpt lat="47.79726" lon="-3.70703">
        <ele>36.1</ele>
        <time>2023-01-27T14:28:35Z</time>
      </trkpt>
      <trkpt lat="47.79724" lon="-3.707">
        <ele>36</ele>
        <time>2023-01-27T14:28:36Z</time>
      </trkpt>
      <trkpt lat="47.79721" lon="-3.70699">
        <ele>36</ele>
        <time>2023-01-27T14:28:37Z</time>
      </trkpt>
      <trkpt lat="47.79718" lon="-3.70698">
        <ele>35.9</ele>
        <time>2023-01-27T14:28:38Z</time>
      </trkpt>
      <trkpt lat="47.79715" lon="-3.70695">
        <ele>35.8</ele>
        <time>2023-01-27T14:28:39Z</time>
      </trkpt>
      <trkpt lat="47.79711" lon="-3.70692">
        <ele>35.6</ele>
        <time>2023-01-27T14:28:40Z</time>
      </trkpt>
      <trkpt lat="47.79708" lon="-3.7069">
        <ele>35.5</ele>
        <time>2023-01-27T14:28:41Z</time>
      </trkpt>
      <trkpt lat="47.79703" lon="-3.70687">
        <ele>35.3</ele>
        <time>2023-01-27T14:28:42Z</time>
      </trkpt>
      <trkpt lat="47.79699" lon="-3.70683">
        <ele>35.2</ele>
        <time>2023-01-27T14:28:43Z</time>
      </trkpt>
      <trkpt lat="47.79694" lon="-3.70674">
        <ele>35</ele>
        <time>2023-01-27T14:28:45Z</time>
      </trkpt>
      <trkpt lat="47.79691" lon="-3.70669">
        <ele>34.8</ele>
        <time>2023-01-27T14:28:46Z</time>
      </trkpt>
      <trkpt lat="47.79688" lon="-3.70662">
        <ele>34.7</ele>
        <time>2023-01-27T14:28:47Z</time>
      </trkpt>
      <trkpt lat="47.79686" lon="-3.70655">
        <ele>34.6</ele>
        <time>2023-01-27T14:28:48Z</time>
      </trkpt>
      <trkpt lat="47.79683" lon="-3.70649">
        <ele>34.5</ele>
        <time>2023-01-27T14:28:49Z</time>
      </trkpt>
      <trkpt lat="47.79681" lon="-3.70642">
        <ele>34.4</ele>
        <time>2023-01-27T14:28:50Z</time>
      </trkpt>
      <trkpt lat="47.79678" lon="-3.70636">
        <ele>34.3</ele>
        <time>2023-01-27T14:28:51Z</time>
      </trkpt>
      <trkpt lat="47.79675" lon="-3.70629">
        <ele>34.2</ele>
        <time>2023-01-27T14:28:52Z</time>
      </trkpt>
      <trkpt lat="47.79672" lon="-3.70622">
        <ele>34.1</ele>
        <time>2023-01-27T14:28:53Z</time>
      </trkpt>
      <trkpt lat="47.79669" lon="-3.70616">
        <ele>34</ele>
        <time>2023-01-27T14:28:54Z</time>
      </trkpt>
      <trkpt lat="47.79665" lon="-3.70609">
        <ele>33.8</ele>
        <time>2023-01-27T14:28:55Z</time>
      </trkpt>
      <trkpt lat="47.79663" lon="-3.70602">
        <ele>33.8</ele>
        <time>2023-01-27T14:28:56Z</time>
      </trkpt>
      <trkpt lat="47.79662" lon="-3.70595">
        <ele>33.7</ele>
        <time>2023-01-27T14:28:57Z</time>
      </trkpt>
      <trkpt lat="47.79661" lon="-3.70588">
        <ele>33.6</ele>
        <time>2023-01-27T14:28:58Z</time>
      </trkpt>
      <trkpt lat="47.7966" lon="-3.70582">
        <ele>33.5</ele>
        <time>2023-01-27T14:28:59Z</time>
      </trkpt>
      <trkpt lat="47.7966" lon="-3.70576">
        <ele>33.5</ele>
        <time>2023-01-27T14:29:00Z</time>
      </trkpt>
      <trkpt lat="47.7966" lon="-3.7057">
        <ele>33.4</ele>
        <time>2023-01-27T14:29:01Z</time>
      </trkpt>
      <trkpt lat="47.7966" lon="-3.70567">
        <ele>33.4</ele>
        <time>2023-01-27T14:29:02Z</time>
      </trkpt>
      <trkpt lat="47.7966" lon="-3.70562">
        <ele>33.3</ele>
        <time>2023-01-27T14:29:03Z</time>
      </trkpt>
      <trkpt lat="47.79659" lon="-3.70556">
        <ele>33.3</ele>
        <time>2023-01-27T14:29:04Z</time>
      </trkpt>
      <trkpt lat="47.79659" lon="-3.70551">
        <ele>33.2</ele>
        <time>2023-01-27T14:29:05Z</time>
      </trkpt>
      <trkpt lat="47.79659" lon="-3.70544">
        <ele>33.2</ele>
        <time>2023-01-27T14:29:06Z</time>
      </trkpt>
      <trkpt lat="47.79658" lon="-3.70539">
        <ele>33.1</ele>
        <time>2023-01-27T14:29:07Z</time>
      </trkpt>
      <trkpt lat="47.79659" lon="-3.70532">
        <ele>33</ele>
        <time>2023-01-27T14:29:08Z</time>
      </trkpt>
      <trkpt lat="47.79659" lon="-3.70526">
        <ele>33</ele>
        <time>2023-01-27T14:29:09Z</time>
      </trkpt>
      <trkpt lat="47.79659" lon="-3.70519">
        <ele>32.8</ele>
        <time>2023-01-27T14:29:10Z</time>
      </trkpt>
      <trkpt lat="47.79656" lon="-3.70515">
        <ele>32.7</ele>
        <time>2023-01-27T14:29:11Z</time>
      </trkpt>
      <trkpt lat="47.79653" lon="-3.70512">
        <ele>32.6</ele>
        <time>2023-01-27T14:29:13Z</time>
      </trkpt>
      <trkpt lat="47.7965" lon="-3.7051">
        <ele>32.4</ele>
        <time>2023-01-27T14:29:14Z</time>
      </trkpt>
      <trkpt lat="47.79648" lon="-3.70506">
        <ele>32.2</ele>
        <time>2023-01-27T14:29:15Z</time>
      </trkpt>
      <trkpt lat="47.79645" lon="-3.70504">
        <ele>32</ele>
        <time>2023-01-27T14:29:16Z</time>
      </trkpt>
      <trkpt lat="47.79644" lon="-3.70503">
        <ele>31.9</ele>
        <time>2023-01-27T14:29:17Z</time>
      </trkpt>
      <trkpt lat="47.79643" lon="-3.70502">
        <ele>31.9</ele>
        <time>2023-01-27T14:29:18Z</time>
      </trkpt>
      <trkpt lat="47.79642" lon="-3.70503">
        <ele>31.8</ele>
        <time>2023-01-27T14:29:19Z</time>
      </trkpt>
      <trkpt lat="47.79639" lon="-3.70506">
        <ele>31.7</ele>
        <time>2023-01-27T14:29:20Z</time>
      </trkpt>
      <trkpt lat="47.79638" lon="-3.70507">
        <ele>31.6</ele>
        <time>2023-01-27T14:29:21Z</time>
      </trkpt>
      <trkpt lat="47.79635" lon="-3.70509">
        <ele>31.5</ele>
        <time>2023-01-27T14:29:22Z</time>
      </trkpt>
      <trkpt lat="47.79634" lon="-3.70509">
        <ele>31.4</ele>
        <time>2023-01-27T14:29:23Z</time>
      </trkpt>
      <trkpt lat="47.79631" lon="-3.70509">
        <ele>31.3</ele>
        <time>2023-01-27T14:29:24Z</time>
      </trkpt>
      <trkpt lat="47.7963" lon="-3.70509">
        <ele>31.3</ele>
        <time>2023-01-27T14:29:25Z</time>
      </trkpt>
      <trkpt lat="47.79627" lon="-3.70508">
        <ele>31.2</ele>
        <time>2023-01-27T14:29:26Z</time>
      </trkpt>
      <trkpt lat="47.79626" lon="-3.70508">
        <ele>31.1</ele>
        <time>2023-01-27T14:29:27Z</time>
      </trkpt>
      <trkpt lat="47.79624" lon="-3.70506">
        <ele>31</ele>
        <time>2023-01-27T14:29:28Z</time>
      </trkpt>
      <trkpt lat="47.79623" lon="-3.70505">
        <ele>31</ele>
        <time>2023-01-27T14:29:29Z</time>
      </trkpt>
      <trkpt lat="47.79622" lon="-3.70504">
        <ele>31</ele>
        <time>2023-01-27T14:29:30Z</time>
      </trkpt>
      <trkpt lat="47.7962" lon="-3.70499">
        <ele>30.9</ele>
        <time>2023-01-27T14:29:31Z</time>
      </trkpt>
      <trkpt lat="47.79619" lon="-3.70498">
        <ele>30.9</ele>
        <time>2023-01-27T14:29:32Z</time>
      </trkpt>
      <trkpt lat="47.79618" lon="-3.70493">
        <ele>30.8</ele>
        <time>2023-01-27T14:29:33Z</time>
      </trkpt>
      <trkpt lat="47.79617" lon="-3.70488">
        <ele>30.8</ele>
        <time>2023-01-27T14:29:34Z</time>
      </trkpt>
      <trkpt lat="47.79616" lon="-3.70487">
        <ele>30.8</ele>
        <time>2023-01-27T14:29:35Z</time>
      </trkpt>
      <trkpt lat="47.79616" lon="-3.70483">
        <ele>30.8</ele>
        <time>2023-01-27T14:29:36Z</time>
      </trkpt>
      <trkpt lat="47.79616" lon="-3.70477">
        <ele>30.8</ele>
        <time>2023-01-27T14:29:37Z</time>
      </trkpt>
      <trkpt lat="47.79616" lon="-3.70476">
        <ele>30.8</ele>
        <time>2023-01-27T14:29:38Z</time>
      </trkpt>
      <trkpt lat="47.79614" lon="-3.70471">
        <ele>30.8</ele>
        <time>2023-01-27T14:29:39Z</time>
      </trkpt>
      <trkpt lat="47.79615" lon="-3.70464">
        <ele>30.9</ele>
        <time>2023-01-27T14:29:41Z</time>
      </trkpt>
      <trkpt lat="47.79615" lon="-3.70461">
        <ele>30.9</ele>
        <time>2023-01-27T14:29:43Z</time>
      </trkpt>
      <trkpt lat="47.79615" lon="-3.7046">
        <ele>30.9</ele>
        <time>2023-01-27T14:29:44Z</time>
      </trkpt>
      <trkpt lat="47.79616" lon="-3.70459">
        <ele>30.9</ele>
        <time>2023-01-27T14:29:45Z</time>
      </trkpt>
      <trkpt lat="47.79616" lon="-3.70458">
        <ele>30.9</ele>
        <time>2023-01-27T14:29:46Z</time>
      </trkpt>
      <trkpt lat="47.79616" lon="-3.70458">
        <ele>30.9</ele>
        <time>2023-01-27T14:29:47Z</time>
      </trkpt>
      <trkpt lat="47.79616" lon="-3.70458">
        <ele>30.9</ele>
        <time>2023-01-27T14:29:48Z</time>
      </trkpt>
      <trkpt lat="47.79615" lon="-3.70457">
        <ele>31</ele>
        <time>2023-01-27T14:29:49Z</time>
      </trkpt>
      <trkpt lat="47.79615" lon="-3.70457">
        <ele>31</ele>
        <time>2023-01-27T14:29:50Z</time>
      </trkpt>
      <trkpt lat="47.79615" lon="-3.70457">
        <ele>31</ele>
        <time>2023-01-27T14:29:52Z</time>
      </trkpt>
      <trkpt lat="47.79615" lon="-3.70456">
        <ele>31</ele>
        <time>2023-01-27T14:29:53Z</time>
      </trkpt>
      <trkpt lat="47.79615" lon="-3.70456">
        <ele>31</ele>
        <time>2023-01-27T14:29:54Z</time>
      </trkpt>
      <trkpt lat="47.79615" lon="-3.70456">
        <ele>31</ele>
        <time>2023-01-27T14:30:07Z</time>
      </trkpt>
      <trkpt lat="47.79615" lon="-3.70455">
        <ele>31</ele>
        <time>2023-01-27T14:30:08Z</time>
      </trkpt>
      <trkpt lat="47.79615" lon="-3.70455">
        <ele>31</ele>
        <time>2023-01-27T14:30:09Z</time>
      </trkpt>
      <trkpt lat="47.79615" lon="-3.70455">
        <ele>31</ele>
        <time>2023-01-27T14:30:10Z</time>
      </trkpt>
      <trkpt lat="47.79615" lon="-3.70454">
        <ele>31</ele>
        <time>2023-01-27T14:30:11Z</time>
      </trkpt>
      <trkpt lat="47.79615" lon="-3.70454">
        <ele>31</ele>
        <time>2023-01-27T14:30:12Z</time>
      </trkpt>
      <trkpt lat="47.79615" lon="-3.70454">
        <ele>31</ele>
        <time>2023-01-27T14:30:13Z</time>
      </trkpt>
      <trkpt lat="47.79615" lon="-3.70453">
        <ele>31</ele>
        <time>2023-01-27T14:30:14Z</time>
      </trkpt>
      <trkpt lat="47.79615" lon="-3.70453">
        <ele>31</ele>
        <time>2023-01-27T14:30:15Z</time>
      </trkpt>
      <trkpt lat="47.79615" lon="-3.70453">
        <ele>31</ele>
        <time>2023-01-27T14:30:16Z</time>
      </trkpt>
      <trkpt lat="47.79615" lon="-3.70452">
        <ele>31</ele>
        <time>2023-01-27T14:30:17Z</time>
      </trkpt>
      <trkpt lat="47.79615" lon="-3.70452">
        <ele>31</ele>
        <time>2023-01-27T14:30:18Z</time>
      </trkpt>
      <trkpt lat="47.79615" lon="-3.70452">
        <ele>31</ele>
        <time>2023-01-27T14:30:19Z</time>
      </trkpt>
      <trkpt lat="47.79615" lon="-3.70451">
        <ele>31.1</ele>
        <time>2023-01-27T14:30:20Z</time>
      </trkpt>
      <trkpt lat="47.79615" lon="-3.70451">
        <ele>31.1</ele>
        <time>2023-01-27T14:30:22Z</time>
      </trkpt>
      <trkpt lat="47.79615" lon="-3.70451">
        <ele>31.1</ele>
        <time>2023-01-27T14:30:22Z</time>
      </trkpt>
      <trkpt lat="47.79615" lon="-3.70448">
        <ele>31.1</ele>
        <time>2023-01-27T14:30:23Z</time>
      </trkpt>
      <trkpt lat="47.79616" lon="-3.70446">
        <ele>31.1</ele>
        <time>2023-01-27T14:30:24Z</time>
      </trkpt>
      <trkpt lat="47.79616" lon="-3.70445">
        <ele>31.2</ele>
        <time>2023-01-27T14:30:25Z</time>
      </trkpt>
      <trkpt lat="47.79616" lon="-3.70443">
        <ele>31.2</ele>
        <time>2023-01-27T14:30:26Z</time>
      </trkpt>
      <trkpt lat="47.79617" lon="-3.7044">
        <ele>31.3</ele>
        <time>2023-01-27T14:30:27Z</time>
      </trkpt>
      <trkpt lat="47.79618" lon="-3.70435">
        <ele>31.4</ele>
        <time>2023-01-27T14:30:28Z</time>
      </trkpt>
      <trkpt lat="47.79618" lon="-3.7043">
        <ele>31.5</ele>
        <time>2023-01-27T14:30:30Z</time>
      </trkpt>
      <trkpt lat="47.79618" lon="-3.70425">
        <ele>31.7</ele>
        <time>2023-01-27T14:30:31Z</time>
      </trkpt>
      <trkpt lat="47.79619" lon="-3.70421">
        <ele>31.8</ele>
        <time>2023-01-27T14:30:32Z</time>
      </trkpt>
      <trkpt lat="47.79621" lon="-3.70417">
        <ele>31.9</ele>
        <time>2023-01-27T14:30:33Z</time>
      </trkpt>
      <trkpt lat="47.79622" lon="-3.70416">
        <ele>32</ele>
        <time>2023-01-27T14:30:34Z</time>
      </trkpt>
      <trkpt lat="47.79625" lon="-3.70411">
        <ele>32.2</ele>
        <time>2023-01-27T14:30:35Z</time>
      </trkpt>
      <trkpt lat="47.79626" lon="-3.7041">
        <ele>32.2</ele>
        <time>2023-01-27T14:30:36Z</time>
      </trkpt>
      <trkpt lat="47.79628" lon="-3.70407">
        <ele>32.4</ele>
        <time>2023-01-27T14:30:37Z</time>
      </trkpt>
      <trkpt lat="47.79629" lon="-3.70403">
        <ele>32.5</ele>
        <time>2023-01-27T14:30:38Z</time>
      </trkpt>
      <trkpt lat="47.79631" lon="-3.70398">
        <ele>32.8</ele>
        <time>2023-01-27T14:30:39Z</time>
      </trkpt>
      <trkpt lat="47.79632" lon="-3.70396">
        <ele>32.8</ele>
        <time>2023-01-27T14:30:40Z</time>
      </trkpt>
      <trkpt lat="47.79632" lon="-3.70392">
        <ele>33</ele>
        <time>2023-01-27T14:30:41Z</time>
      </trkpt>
      <trkpt lat="47.79633" lon="-3.70387">
        <ele>33.2</ele>
        <time>2023-01-27T14:30:42Z</time>
      </trkpt>
      <trkpt lat="47.79633" lon="-3.70385">
        <ele>33.3</ele>
        <time>2023-01-27T14:30:43Z</time>
      </trkpt>
      <trkpt lat="47.79633" lon="-3.70379">
        <ele>33.5</ele>
        <time>2023-01-27T14:30:44Z</time>
      </trkpt>
      <trkpt lat="47.79632" lon="-3.70373">
        <ele>33.8</ele>
        <time>2023-01-27T14:30:45Z</time>
      </trkpt>
      <trkpt lat="47.79632" lon="-3.70371">
        <ele>33.9</ele>
        <time>2023-01-27T14:30:46Z</time>
      </trkpt>
      <trkpt lat="47.79632" lon="-3.70366">
        <ele>34</ele>
        <time>2023-01-27T14:30:47Z</time>
      </trkpt>
      <trkpt lat="47.79632" lon="-3.70364">
        <ele>34</ele>
        <time>2023-01-27T14:30:48Z</time>
      </trkpt>
      <trkpt lat="47.79632" lon="-3.70358">
        <ele>34.1</ele>
        <time>2023-01-27T14:30:49Z</time>
      </trkpt>
      <trkpt lat="47.79631" lon="-3.70352">
        <ele>34.3</ele>
        <time>2023-01-27T14:30:50Z</time>
      </trkpt>
      <trkpt lat="47.79632" lon="-3.70347">
        <ele>34.4</ele>
        <time>2023-01-27T14:30:51Z</time>
      </trkpt>
      <trkpt lat="47.79633" lon="-3.70342">
        <ele>34.5</ele>
        <time>2023-01-27T14:30:52Z</time>
      </trkpt>
      <trkpt lat="47.79634" lon="-3.70336">
        <ele>34.6</ele>
        <time>2023-01-27T14:30:54Z</time>
      </trkpt>
      <trkpt lat="47.79635" lon="-3.70332">
        <ele>34.7</ele>
        <time>2023-01-27T14:30:55Z</time>
      </trkpt>
      <trkpt lat="47.79635" lon="-3.70327">
        <ele>34.8</ele>
        <time>2023-01-27T14:30:56Z</time>
      </trkpt>
      <trkpt lat="47.79635" lon="-3.70326">
        <ele>34.8</ele>
        <time>2023-01-27T14:30:57Z</time>
      </trkpt>
      <trkpt lat="47.79632" lon="-3.70325">
        <ele>34.8</ele>
        <time>2023-01-27T14:30:58Z</time>
      </trkpt>
      <trkpt lat="47.79631" lon="-3.70325">
        <ele>34.8</ele>
        <time>2023-01-27T14:30:59Z</time>
      </trkpt>
      <trkpt lat="47.7963" lon="-3.70325">
        <ele>34.7</ele>
        <time>2023-01-27T14:31:00Z</time>
      </trkpt>
      <trkpt lat="47.79627" lon="-3.70323">
        <ele>34.7</ele>
        <time>2023-01-27T14:31:01Z</time>
      </trkpt>
      <trkpt lat="47.79624" lon="-3.70322">
        <ele>34.7</ele>
        <time>2023-01-27T14:31:02Z</time>
      </trkpt>
      <trkpt lat="47.79621" lon="-3.7032">
        <ele>34.6</ele>
        <time>2023-01-27T14:31:03Z</time>
      </trkpt>
      <trkpt lat="47.79618" lon="-3.70319">
        <ele>34.5</ele>
        <time>2023-01-27T14:31:04Z</time>
      </trkpt>
      <trkpt lat="47.79615" lon="-3.70318">
        <ele>34.5</ele>
        <time>2023-01-27T14:31:05Z</time>
      </trkpt>
      <trkpt lat="47.79612" lon="-3.70316">
        <ele>34.4</ele>
        <time>2023-01-27T14:31:06Z</time>
      </trkpt>
      <trkpt lat="47.79609" lon="-3.70314">
        <ele>34.3</ele>
        <time>2023-01-27T14:31:07Z</time>
      </trkpt>
      <trkpt lat="47.79605" lon="-3.70312">
        <ele>34.1</ele>
        <time>2023-01-27T14:31:08Z</time>
      </trkpt>
      <trkpt lat="47.79602" lon="-3.70311">
        <ele>34</ele>
        <time>2023-01-27T14:31:09Z</time>
      </trkpt>
      <trkpt lat="47.79599" lon="-3.70309">
        <ele>33.8</ele>
        <time>2023-01-27T14:31:10Z</time>
      </trkpt>
      <trkpt lat="47.79595" lon="-3.70307">
        <ele>33.6</ele>
        <time>2023-01-27T14:31:11Z</time>
      </trkpt>
      <trkpt lat="47.7959" lon="-3.70306">
        <ele>33.4</ele>
        <time>2023-01-27T14:31:12Z</time>
      </trkpt>
      <trkpt lat="47.79587" lon="-3.70307">
        <ele>33.2</ele>
        <time>2023-01-27T14:31:14Z</time>
      </trkpt>
      <trkpt lat="47.79584" lon="-3.70309">
        <ele>33</ele>
        <time>2023-01-27T14:31:15Z</time>
      </trkpt>
      <trkpt lat="47.79581" lon="-3.70314">
        <ele>32.8</ele>
        <time>2023-01-27T14:31:16Z</time>
      </trkpt>
      <trkpt lat="47.79575" lon="-3.70321">
        <ele>32.5</ele>
        <time>2023-01-27T14:31:17Z</time>
      </trkpt>
      <trkpt lat="47.7957" lon="-3.70324">
        <ele>32.4</ele>
        <time>2023-01-27T14:31:18Z</time>
      </trkpt>
      <trkpt lat="47.79565" lon="-3.70324">
        <ele>32.2</ele>
        <time>2023-01-27T14:31:20Z</time>
      </trkpt>
      <trkpt lat="47.79556" lon="-3.7032">
        <ele>32</ele>
        <time>2023-01-27T14:31:21Z</time>
      </trkpt>
      <trkpt lat="47.79552" lon="-3.70318">
        <ele>31.9</ele>
        <time>2023-01-27T14:31:23Z</time>
      </trkpt>
      <trkpt lat="47.79549" lon="-3.70317">
        <ele>31.8</ele>
        <time>2023-01-27T14:31:24Z</time>
      </trkpt>
      <trkpt lat="47.79546" lon="-3.70316">
        <ele>31.7</ele>
        <time>2023-01-27T14:31:25Z</time>
      </trkpt>
      <trkpt lat="47.79539" lon="-3.70315">
        <ele>31.6</ele>
        <time>2023-01-27T14:31:26Z</time>
      </trkpt>
      <trkpt lat="47.79535" lon="-3.70315">
        <ele>31.5</ele>
        <time>2023-01-27T14:31:28Z</time>
      </trkpt>
      <trkpt lat="47.79531" lon="-3.70314">
        <ele>31.4</ele>
        <time>2023-01-27T14:31:29Z</time>
      </trkpt>
      <trkpt lat="47.79527" lon="-3.70315">
        <ele>31.3</ele>
        <time>2023-01-27T14:31:30Z</time>
      </trkpt>
      <trkpt lat="47.79524" lon="-3.70316">
        <ele>31.2</ele>
        <time>2023-01-27T14:31:31Z</time>
      </trkpt>
      <trkpt lat="47.7952" lon="-3.7032">
        <ele>31.2</ele>
        <time>2023-01-27T14:31:32Z</time>
      </trkpt>
      <trkpt lat="47.79518" lon="-3.70324">
        <ele>31.1</ele>
        <time>2023-01-27T14:31:33Z</time>
      </trkpt>
      <trkpt lat="47.79514" lon="-3.7033">
        <ele>31</ele>
        <time>2023-01-27T14:31:34Z</time>
      </trkpt>
      <trkpt lat="47.79511" lon="-3.70336">
        <ele>30.9</ele>
        <time>2023-01-27T14:31:35Z</time>
      </trkpt>
      <trkpt lat="47.79508" lon="-3.70341">
        <ele>30.9</ele>
        <time>2023-01-27T14:31:37Z</time>
      </trkpt>
      <trkpt lat="47.79505" lon="-3.70346">
        <ele>30.8</ele>
        <time>2023-01-27T14:31:38Z</time>
      </trkpt>
      <trkpt lat="47.79502" lon="-3.70351">
        <ele>30.7</ele>
        <time>2023-01-27T14:31:39Z</time>
      </trkpt>
      <trkpt lat="47.79498" lon="-3.70358">
        <ele>30.5</ele>
        <time>2023-01-27T14:31:40Z</time>
      </trkpt>
      <trkpt lat="47.79495" lon="-3.70364">
        <ele>30.4</ele>
        <time>2023-01-27T14:31:41Z</time>
      </trkpt>
      <trkpt lat="47.79493" lon="-3.7037">
        <ele>30.3</ele>
        <time>2023-01-27T14:31:42Z</time>
      </trkpt>
      <trkpt lat="47.7949" lon="-3.70376">
        <ele>30.2</ele>
        <time>2023-01-27T14:31:43Z</time>
      </trkpt>
      <trkpt lat="47.79488" lon="-3.70382">
        <ele>30.2</ele>
        <time>2023-01-27T14:31:44Z</time>
      </trkpt>
      <trkpt lat="47.79486" lon="-3.70389">
        <ele>30.1</ele>
        <time>2023-01-27T14:31:45Z</time>
      </trkpt>
      <trkpt lat="47.79483" lon="-3.70395">
        <ele>30</ele>
        <time>2023-01-27T14:31:46Z</time>
      </trkpt>
      <trkpt lat="47.79481" lon="-3.70401">
        <ele>29.9</ele>
        <time>2023-01-27T14:31:47Z</time>
      </trkpt>
      <trkpt lat="47.7948" lon="-3.70408">
        <ele>29.8</ele>
        <time>2023-01-27T14:31:48Z</time>
      </trkpt>
      <trkpt lat="47.79478" lon="-3.70415">
        <ele>29.6</ele>
        <time>2023-01-27T14:31:49Z</time>
      </trkpt>
      <trkpt lat="47.79476" lon="-3.70422">
        <ele>29.5</ele>
        <time>2023-01-27T14:31:50Z</time>
      </trkpt>
      <trkpt lat="47.79475" lon="-3.70429">
        <ele>29.3</ele>
        <time>2023-01-27T14:31:51Z</time>
      </trkpt>
      <trkpt lat="47.79473" lon="-3.70436">
        <ele>29.2</ele>
        <time>2023-01-27T14:31:52Z</time>
      </trkpt>
      <trkpt lat="47.79472" lon="-3.70443">
        <ele>29</ele>
        <time>2023-01-27T14:31:53Z</time>
      </trkpt>
      <trkpt lat="47.7947" lon="-3.7045">
        <ele>28.8</ele>
        <time>2023-01-27T14:31:54Z</time>
      </trkpt>
      <trkpt lat="47.7947" lon="-3.70457">
        <ele>28.6</ele>
        <time>2023-01-27T14:31:55Z</time>
      </trkpt>
      <trkpt lat="47.79469" lon="-3.70464">
        <ele>28.4</ele>
        <time>2023-01-27T14:31:56Z</time>
      </trkpt>
      <trkpt lat="47.79467" lon="-3.70471">
        <ele>28.3</ele>
        <time>2023-01-27T14:31:57Z</time>
      </trkpt>
      <trkpt lat="47.79466" lon="-3.70478">
        <ele>28.1</ele>
        <time>2023-01-27T14:31:58Z</time>
      </trkpt>
      <trkpt lat="47.79464" lon="-3.70485">
        <ele>28</ele>
        <time>2023-01-27T14:31:59Z</time>
      </trkpt>
      <trkpt lat="47.79463" lon="-3.70492">
        <ele>27.8</ele>
        <time>2023-01-27T14:32:00Z</time>
      </trkpt>
      <trkpt lat="47.79461" lon="-3.70499">
        <ele>27.7</ele>
        <time>2023-01-27T14:32:01Z</time>
      </trkpt>
      <trkpt lat="47.79458" lon="-3.70506">
        <ele>27.5</ele>
        <time>2023-01-27T14:32:02Z</time>
      </trkpt>
      <trkpt lat="47.79455" lon="-3.70511">
        <ele>27.3</ele>
        <time>2023-01-27T14:32:03Z</time>
      </trkpt>
      <trkpt lat="47.79451" lon="-3.70516">
        <ele>27.1</ele>
        <time>2023-01-27T14:32:04Z</time>
      </trkpt>
      <trkpt lat="47.79447" lon="-3.7052">
        <ele>26.9</ele>
        <time>2023-01-27T14:32:05Z</time>
      </trkpt>
      <trkpt lat="47.79443" lon="-3.70523">
        <ele>26.7</ele>
        <time>2023-01-27T14:32:06Z</time>
      </trkpt>
      <trkpt lat="47.79438" lon="-3.70526">
        <ele>26.5</ele>
        <time>2023-01-27T14:32:07Z</time>
      </trkpt>
      <trkpt lat="47.79434" lon="-3.70528">
        <ele>26.3</ele>
        <time>2023-01-27T14:32:08Z</time>
      </trkpt>
      <trkpt lat="47.79428" lon="-3.70528">
        <ele>26.2</ele>
        <time>2023-01-27T14:32:09Z</time>
      </trkpt>
      <trkpt lat="47.79423" lon="-3.70527">
        <ele>26</ele>
        <time>2023-01-27T14:32:10Z</time>
      </trkpt>
      <trkpt lat="47.79417" lon="-3.70525">
        <ele>25.9</ele>
        <time>2023-01-27T14:32:11Z</time>
      </trkpt>
      <trkpt lat="47.79412" lon="-3.70524">
        <ele>25.8</ele>
        <time>2023-01-27T14:32:12Z</time>
      </trkpt>
      <trkpt lat="47.79407" lon="-3.70522">
        <ele>25.7</ele>
        <time>2023-01-27T14:32:13Z</time>
      </trkpt>
      <trkpt lat="47.79402" lon="-3.70521">
        <ele>25.6</ele>
        <time>2023-01-27T14:32:14Z</time>
      </trkpt>
      <trkpt lat="47.79397" lon="-3.70519">
        <ele>25.6</ele>
        <time>2023-01-27T14:32:15Z</time>
      </trkpt>
      <trkpt lat="47.79392" lon="-3.70517">
        <ele>25.5</ele>
        <time>2023-01-27T14:32:16Z</time>
      </trkpt>
      <trkpt lat="47.79387" lon="-3.70516">
        <ele>25.4</ele>
        <time>2023-01-27T14:32:17Z</time>
      </trkpt>
      <trkpt lat="47.79383" lon="-3.70517">
        <ele>25.2</ele>
        <time>2023-01-27T14:32:18Z</time>
      </trkpt>
      <trkpt lat="47.79378" lon="-3.70518">
        <ele>25.1</ele>
        <time>2023-01-27T14:32:19Z</time>
      </trkpt>
      <trkpt lat="47.79373" lon="-3.70519">
        <ele>24.9</ele>
        <time>2023-01-27T14:32:20Z</time>
      </trkpt>
      <trkpt lat="47.79368" lon="-3.70519">
        <ele>24.8</ele>
        <time>2023-01-27T14:32:21Z</time>
      </trkpt>
      <trkpt lat="47.79364" lon="-3.70518">
        <ele>24.6</ele>
        <time>2023-01-27T14:32:22Z</time>
      </trkpt>
      <trkpt lat="47.7936" lon="-3.70514">
        <ele>24.6</ele>
        <time>2023-01-27T14:32:23Z</time>
      </trkpt>
      <trkpt lat="47.7936" lon="-3.7051">
        <ele>24.7</ele>
        <time>2023-01-27T14:32:24Z</time>
      </trkpt>
      <trkpt lat="47.79359" lon="-3.70506">
        <ele>24.8</ele>
        <time>2023-01-27T14:32:25Z</time>
      </trkpt>
      <trkpt lat="47.79359" lon="-3.70501">
        <ele>24.9</ele>
        <time>2023-01-27T14:32:26Z</time>
      </trkpt>
      <trkpt lat="47.79358" lon="-3.70496">
        <ele>25</ele>
        <time>2023-01-27T14:32:27Z</time>
      </trkpt>
      <trkpt lat="47.79359" lon="-3.7049">
        <ele>25.1</ele>
        <time>2023-01-27T14:32:28Z</time>
      </trkpt>
      <trkpt lat="47.79359" lon="-3.70488">
        <ele>25.1</ele>
        <time>2023-01-27T14:32:29Z</time>
      </trkpt>
      <trkpt lat="47.79359" lon="-3.70482">
        <ele>25.3</ele>
        <time>2023-01-27T14:32:30Z</time>
      </trkpt>
      <trkpt lat="47.7936" lon="-3.70478">
        <ele>25.4</ele>
        <time>2023-01-27T14:32:31Z</time>
      </trkpt>
      <trkpt lat="47.7936" lon="-3.70474">
        <ele>25.4</ele>
        <time>2023-01-27T14:32:32Z</time>
      </trkpt>
      <trkpt lat="47.7936" lon="-3.70468">
        <ele>25.6</ele>
        <time>2023-01-27T14:32:33Z</time>
      </trkpt>
      <trkpt lat="47.7936" lon="-3.70461">
        <ele>25.7</ele>
        <time>2023-01-27T14:32:34Z</time>
      </trkpt>
      <trkpt lat="47.7936" lon="-3.70454">
        <ele>25.9</ele>
        <time>2023-01-27T14:32:35Z</time>
      </trkpt>
      <trkpt lat="47.79359" lon="-3.70449">
        <ele>26</ele>
        <time>2023-01-27T14:32:36Z</time>
      </trkpt>
      <trkpt lat="47.79359" lon="-3.70437">
        <ele>26.3</ele>
        <time>2023-01-27T14:32:38Z</time>
      </trkpt>
      <trkpt lat="47.79358" lon="-3.70435">
        <ele>26.3</ele>
        <time>2023-01-27T14:32:39Z</time>
      </trkpt>
      <trkpt lat="47.79357" lon="-3.70425">
        <ele>26.5</ele>
        <time>2023-01-27T14:32:41Z</time>
      </trkpt>
      <trkpt lat="47.79357" lon="-3.7042">
        <ele>26.6</ele>
        <time>2023-01-27T14:32:43Z</time>
      </trkpt>
      <trkpt lat="47.79357" lon="-3.70415">
        <ele>26.7</ele>
        <time>2023-01-27T14:32:44Z</time>
      </trkpt>
      <trkpt lat="47.79357" lon="-3.70406">
        <ele>26.8</ele>
        <time>2023-01-27T14:32:45Z</time>
      </trkpt>
      <trkpt lat="47.79357" lon="-3.70398">
        <ele>26.9</ele>
        <time>2023-01-27T14:32:47Z</time>
      </trkpt>
      <trkpt lat="47.79358" lon="-3.70393">
        <ele>26.9</ele>
        <time>2023-01-27T14:32:48Z</time>
      </trkpt>
      <trkpt lat="47.79358" lon="-3.70388">
        <ele>26.8</ele>
        <time>2023-01-27T14:32:50Z</time>
      </trkpt>
      <trkpt lat="47.79358" lon="-3.70381">
        <ele>26.8</ele>
        <time>2023-01-27T14:32:51Z</time>
      </trkpt>
      <trkpt lat="47.7936" lon="-3.70371">
        <ele>26.6</ele>
        <time>2023-01-27T14:32:53Z</time>
      </trkpt>
      <trkpt lat="47.79363" lon="-3.70361">
        <ele>26.4</ele>
        <time>2023-01-27T14:32:55Z</time>
      </trkpt>
      <trkpt lat="47.79364" lon="-3.70355">
        <ele>26.4</ele>
        <time>2023-01-27T14:32:56Z</time>
      </trkpt>
      <trkpt lat="47.79365" lon="-3.70346">
        <ele>26.3</ele>
        <time>2023-01-27T14:32:58Z</time>
      </trkpt>
      <trkpt lat="47.79365" lon="-3.70339">
        <ele>26.3</ele>
        <time>2023-01-27T14:32:59Z</time>
      </trkpt>
      <trkpt lat="47.79366" lon="-3.70333">
        <ele>26.3</ele>
        <time>2023-01-27T14:33:00Z</time>
      </trkpt>
      <trkpt lat="47.79366" lon="-3.70327">
        <ele>26.3</ele>
        <time>2023-01-27T14:33:01Z</time>
      </trkpt>
      <trkpt lat="47.79366" lon="-3.70321">
        <ele>26.3</ele>
        <time>2023-01-27T14:33:02Z</time>
      </trkpt>
      <trkpt lat="47.79366" lon="-3.70317">
        <ele>26.3</ele>
        <time>2023-01-27T14:33:03Z</time>
      </trkpt>
      <trkpt lat="47.79367" lon="-3.70312">
        <ele>26.3</ele>
        <time>2023-01-27T14:33:04Z</time>
      </trkpt>
      <trkpt lat="47.79367" lon="-3.70305">
        <ele>26.4</ele>
        <time>2023-01-27T14:33:05Z</time>
      </trkpt>
      <trkpt lat="47.79367" lon="-3.703">
        <ele>26.5</ele>
        <time>2023-01-27T14:33:06Z</time>
      </trkpt>
      <trkpt lat="47.79367" lon="-3.70294">
        <ele>26.6</ele>
        <time>2023-01-27T14:33:07Z</time>
      </trkpt>
      <trkpt lat="47.79368" lon="-3.70288">
        <ele>26.7</ele>
        <time>2023-01-27T14:33:08Z</time>
      </trkpt>
      <trkpt lat="47.79368" lon="-3.70282">
        <ele>26.8</ele>
        <time>2023-01-27T14:33:09Z</time>
      </trkpt>
      <trkpt lat="47.79368" lon="-3.70276">
        <ele>27</ele>
        <time>2023-01-27T14:33:10Z</time>
      </trkpt>
      <trkpt lat="47.79368" lon="-3.7027">
        <ele>27.1</ele>
        <time>2023-01-27T14:33:11Z</time>
      </trkpt>
      <trkpt lat="47.79368" lon="-3.70264">
        <ele>27.2</ele>
        <time>2023-01-27T14:33:12Z</time>
      </trkpt>
      <trkpt lat="47.79368" lon="-3.70258">
        <ele>27.3</ele>
        <time>2023-01-27T14:33:13Z</time>
      </trkpt>
      <trkpt lat="47.79368" lon="-3.70251">
        <ele>27.3</ele>
        <time>2023-01-27T14:33:14Z</time>
      </trkpt>
      <trkpt lat="47.79369" lon="-3.70244">
        <ele>27.4</ele>
        <time>2023-01-27T14:33:15Z</time>
      </trkpt>
      <trkpt lat="47.7937" lon="-3.70239">
        <ele>27.4</ele>
        <time>2023-01-27T14:33:16Z</time>
      </trkpt>
      <trkpt lat="47.79371" lon="-3.70229">
        <ele>27.6</ele>
        <time>2023-01-27T14:33:18Z</time>
      </trkpt>
      <trkpt lat="47.79373" lon="-3.7022">
        <ele>27.8</ele>
        <time>2023-01-27T14:33:19Z</time>
      </trkpt>
      <trkpt lat="47.79375" lon="-3.70215">
        <ele>28</ele>
        <time>2023-01-27T14:33:20Z</time>
      </trkpt>
      <trkpt lat="47.79375" lon="-3.70209">
        <ele>28.1</ele>
        <time>2023-01-27T14:33:21Z</time>
      </trkpt>
      <trkpt lat="47.79375" lon="-3.702">
        <ele>28.3</ele>
        <time>2023-01-27T14:33:22Z</time>
      </trkpt>
      <trkpt lat="47.79375" lon="-3.70193">
        <ele>28.5</ele>
        <time>2023-01-27T14:33:23Z</time>
      </trkpt>
      <trkpt lat="47.79376" lon="-3.70187">
        <ele>28.7</ele>
        <time>2023-01-27T14:33:25Z</time>
      </trkpt>
      <trkpt lat="47.79378" lon="-3.70175">
        <ele>29</ele>
        <time>2023-01-27T14:33:26Z</time>
      </trkpt>
      <trkpt lat="47.79379" lon="-3.70168">
        <ele>29.2</ele>
        <time>2023-01-27T14:33:28Z</time>
      </trkpt>
      <trkpt lat="47.7938" lon="-3.70162">
        <ele>29.5</ele>
        <time>2023-01-27T14:33:29Z</time>
      </trkpt>
      <trkpt lat="47.79381" lon="-3.70155">
        <ele>29.7</ele>
        <time>2023-01-27T14:33:30Z</time>
      </trkpt>
      <trkpt lat="47.79383" lon="-3.70149">
        <ele>29.9</ele>
        <time>2023-01-27T14:33:31Z</time>
      </trkpt>
      <trkpt lat="47.79385" lon="-3.70143">
        <ele>30.1</ele>
        <time>2023-01-27T14:33:32Z</time>
      </trkpt>
      <trkpt lat="47.79386" lon="-3.70137">
        <ele>30.3</ele>
        <time>2023-01-27T14:33:33Z</time>
      </trkpt>
      <trkpt lat="47.79388" lon="-3.70131">
        <ele>30.5</ele>
        <time>2023-01-27T14:33:34Z</time>
      </trkpt>
      <trkpt lat="47.7939" lon="-3.70125">
        <ele>30.6</ele>
        <time>2023-01-27T14:33:35Z</time>
      </trkpt>
      <trkpt lat="47.79392" lon="-3.70113">
        <ele>31</ele>
        <time>2023-01-27T14:33:36Z</time>
      </trkpt>
      <trkpt lat="47.79394" lon="-3.70102">
        <ele>31.5</ele>
        <time>2023-01-27T14:33:38Z</time>
      </trkpt>
      <trkpt lat="47.79392" lon="-3.70097">
        <ele>31.5</ele>
        <time>2023-01-27T14:33:40Z</time>
      </trkpt>
      <trkpt lat="47.79388" lon="-3.70096">
        <ele>31.5</ele>
        <time>2023-01-27T14:33:41Z</time>
      </trkpt>
      <trkpt lat="47.79385" lon="-3.70093">
        <ele>31.5</ele>
        <time>2023-01-27T14:33:42Z</time>
      </trkpt>
      <trkpt lat="47.79383" lon="-3.70089">
        <ele>31.5</ele>
        <time>2023-01-27T14:33:43Z</time>
      </trkpt>
      <trkpt lat="47.79382" lon="-3.70082">
        <ele>31.5</ele>
        <time>2023-01-27T14:33:44Z</time>
      </trkpt>
      <trkpt lat="47.79382" lon="-3.70076">
        <ele>31.5</ele>
        <time>2023-01-27T14:33:45Z</time>
      </trkpt>
      <trkpt lat="47.79384" lon="-3.7007">
        <ele>31.5</ele>
        <time>2023-01-27T14:33:46Z</time>
      </trkpt>
      <trkpt lat="47.79386" lon="-3.70064">
        <ele>31.4</ele>
        <time>2023-01-27T14:33:47Z</time>
      </trkpt>
      <trkpt lat="47.79387" lon="-3.70059">
        <ele>31.4</ele>
        <time>2023-01-27T14:33:48Z</time>
      </trkpt>
      <trkpt lat="47.79388" lon="-3.70052">
        <ele>31.4</ele>
        <time>2023-01-27T14:33:49Z</time>
      </trkpt>
      <trkpt lat="47.79389" lon="-3.70047">
        <ele>31.4</ele>
        <time>2023-01-27T14:33:50Z</time>
      </trkpt>
      <trkpt lat="47.7939" lon="-3.70041">
        <ele>31.4</ele>
        <time>2023-01-27T14:33:51Z</time>
      </trkpt>
      <trkpt lat="47.79391" lon="-3.70035">
        <ele>31.4</ele>
        <time>2023-01-27T14:33:52Z</time>
      </trkpt>
      <trkpt lat="47.79392" lon="-3.7003">
        <ele>31.4</ele>
        <time>2023-01-27T14:33:53Z</time>
      </trkpt>
      <trkpt lat="47.79393" lon="-3.70025">
        <ele>31.4</ele>
        <time>2023-01-27T14:33:54Z</time>
      </trkpt>
      <trkpt lat="47.79393" lon="-3.70021">
        <ele>31.4</ele>
        <time>2023-01-27T14:33:55Z</time>
      </trkpt>
      <trkpt lat="47.79394" lon="-3.70015">
        <ele>31.4</ele>
        <time>2023-01-27T14:33:56Z</time>
      </trkpt>
      <trkpt lat="47.79393" lon="-3.70013">
        <ele>31.4</ele>
        <time>2023-01-27T14:33:57Z</time>
      </trkpt>
      <trkpt lat="47.79393" lon="-3.70009">
        <ele>31.4</ele>
        <time>2023-01-27T14:33:58Z</time>
      </trkpt>
      <trkpt lat="47.79391" lon="-3.70005">
        <ele>31.3</ele>
        <time>2023-01-27T14:33:59Z</time>
      </trkpt>
      <trkpt lat="47.79387" lon="-3.70001">
        <ele>31.3</ele>
        <time>2023-01-27T14:34:00Z</time>
      </trkpt>
      <trkpt lat="47.79386" lon="-3.70001">
        <ele>31.3</ele>
        <time>2023-01-27T14:34:01Z</time>
      </trkpt>
      <trkpt lat="47.79378" lon="-3.69998">
        <ele>31.2</ele>
        <time>2023-01-27T14:34:02Z</time>
      </trkpt>
      <trkpt lat="47.79374" lon="-3.69996">
        <ele>31.2</ele>
        <time>2023-01-27T14:34:03Z</time>
      </trkpt>
      <trkpt lat="47.79367" lon="-3.69992">
        <ele>31.1</ele>
        <time>2023-01-27T14:34:05Z</time>
      </trkpt>
      <trkpt lat="47.79363" lon="-3.6999">
        <ele>31</ele>
        <time>2023-01-27T14:34:06Z</time>
      </trkpt>
      <trkpt lat="47.79358" lon="-3.69988">
        <ele>31</ele>
        <time>2023-01-27T14:34:07Z</time>
      </trkpt>
      <trkpt lat="47.79353" lon="-3.69985">
        <ele>30.9</ele>
        <time>2023-01-27T14:34:08Z</time>
      </trkpt>
      <trkpt lat="47.79349" lon="-3.69982">
        <ele>30.9</ele>
        <time>2023-01-27T14:34:09Z</time>
      </trkpt>
      <trkpt lat="47.79344" lon="-3.6998">
        <ele>30.8</ele>
        <time>2023-01-27T14:34:10Z</time>
      </trkpt>
      <trkpt lat="47.79339" lon="-3.69977">
        <ele>30.7</ele>
        <time>2023-01-27T14:34:11Z</time>
      </trkpt>
      <trkpt lat="47.79335" lon="-3.69974">
        <ele>30.6</ele>
        <time>2023-01-27T14:34:12Z</time>
      </trkpt>
      <trkpt lat="47.7933" lon="-3.69972">
        <ele>30.6</ele>
        <time>2023-01-27T14:34:13Z</time>
      </trkpt>
      <trkpt lat="47.79325" lon="-3.69969">
        <ele>30.5</ele>
        <time>2023-01-27T14:34:14Z</time>
      </trkpt>
      <trkpt lat="47.79321" lon="-3.69966">
        <ele>30.4</ele>
        <time>2023-01-27T14:34:15Z</time>
      </trkpt>
      <trkpt lat="47.79316" lon="-3.69964">
        <ele>30.4</ele>
        <time>2023-01-27T14:34:16Z</time>
      </trkpt>
      <trkpt lat="47.79312" lon="-3.69961">
        <ele>30.4</ele>
        <time>2023-01-27T14:34:17Z</time>
      </trkpt>
      <trkpt lat="47.79307" lon="-3.69958">
        <ele>30.3</ele>
        <time>2023-01-27T14:34:18Z</time>
      </trkpt>
      <trkpt lat="47.79303" lon="-3.69956">
        <ele>30.3</ele>
        <time>2023-01-27T14:34:19Z</time>
      </trkpt>
      <trkpt lat="47.79299" lon="-3.69954">
        <ele>30.3</ele>
        <time>2023-01-27T14:34:20Z</time>
      </trkpt>
      <trkpt lat="47.79296" lon="-3.69952">
        <ele>30.3</ele>
        <time>2023-01-27T14:34:21Z</time>
      </trkpt>
      <trkpt lat="47.79293" lon="-3.6995">
        <ele>30.3</ele>
        <time>2023-01-27T14:34:22Z</time>
      </trkpt>
      <trkpt lat="47.79288" lon="-3.69948">
        <ele>30.2</ele>
        <time>2023-01-27T14:34:23Z</time>
      </trkpt>
      <trkpt lat="47.79283" lon="-3.69946">
        <ele>30.2</ele>
        <time>2023-01-27T14:34:24Z</time>
      </trkpt>
      <trkpt lat="47.79279" lon="-3.69945">
        <ele>30.1</ele>
        <time>2023-01-27T14:34:25Z</time>
      </trkpt>
      <trkpt lat="47.79275" lon="-3.69943">
        <ele>30.1</ele>
        <time>2023-01-27T14:34:26Z</time>
      </trkpt>
      <trkpt lat="47.79272" lon="-3.69944">
        <ele>30</ele>
        <time>2023-01-27T14:34:27Z</time>
      </trkpt>
      <trkpt lat="47.79266" lon="-3.6994">
        <ele>29.9</ele>
        <time>2023-01-27T14:34:28Z</time>
      </trkpt>
      <trkpt lat="47.79262" lon="-3.69938">
        <ele>29.8</ele>
        <time>2023-01-27T14:34:29Z</time>
      </trkpt>
      <trkpt lat="47.79258" lon="-3.69936">
        <ele>29.7</ele>
        <time>2023-01-27T14:34:30Z</time>
      </trkpt>
      <trkpt lat="47.79254" lon="-3.69933">
        <ele>29.6</ele>
        <time>2023-01-27T14:34:31Z</time>
      </trkpt>
      <trkpt lat="47.79251" lon="-3.6993">
        <ele>29.4</ele>
        <time>2023-01-27T14:34:32Z</time>
      </trkpt>
      <trkpt lat="47.79248" lon="-3.69924">
        <ele>29.2</ele>
        <time>2023-01-27T14:34:33Z</time>
      </trkpt>
      <trkpt lat="47.79246" lon="-3.69912">
        <ele>28.8</ele>
        <time>2023-01-27T14:34:35Z</time>
      </trkpt>
      <trkpt lat="47.79247" lon="-3.69905">
        <ele>28.6</ele>
        <time>2023-01-27T14:34:36Z</time>
      </trkpt>
      <trkpt lat="47.79249" lon="-3.69898">
        <ele>28.3</ele>
        <time>2023-01-27T14:34:37Z</time>
      </trkpt>
      <trkpt lat="47.7925" lon="-3.69892">
        <ele>28.1</ele>
        <time>2023-01-27T14:34:38Z</time>
      </trkpt>
      <trkpt lat="47.79252" lon="-3.69886">
        <ele>27.8</ele>
        <time>2023-01-27T14:34:39Z</time>
      </trkpt>
      <trkpt lat="47.79254" lon="-3.69879">
        <ele>27.6</ele>
        <time>2023-01-27T14:34:40Z</time>
      </trkpt>
      <trkpt lat="47.79255" lon="-3.69871">
        <ele>27.4</ele>
        <time>2023-01-27T14:34:41Z</time>
      </trkpt>
      <trkpt lat="47.79256" lon="-3.69864">
        <ele>27.2</ele>
        <time>2023-01-27T14:34:42Z</time>
      </trkpt>
      <trkpt lat="47.79258" lon="-3.69857">
        <ele>27.1</ele>
        <time>2023-01-27T14:34:43Z</time>
      </trkpt>
      <trkpt lat="47.79259" lon="-3.69849">
        <ele>27</ele>
        <time>2023-01-27T14:34:44Z</time>
      </trkpt>
      <trkpt lat="47.79261" lon="-3.69842">
        <ele>27</ele>
        <time>2023-01-27T14:34:45Z</time>
      </trkpt>
      <trkpt lat="47.79261" lon="-3.69835">
        <ele>27.1</ele>
        <time>2023-01-27T14:34:46Z</time>
      </trkpt>
      <trkpt lat="47.79259" lon="-3.69831">
        <ele>27.1</ele>
        <time>2023-01-27T14:34:47Z</time>
      </trkpt>
      <trkpt lat="47.79259" lon="-3.6983">
        <ele>27.1</ele>
        <time>2023-01-27T14:34:48Z</time>
      </trkpt>
      <trkpt lat="47.79256" lon="-3.69826">
        <ele>27.2</ele>
        <time>2023-01-27T14:34:49Z</time>
      </trkpt>
      <trkpt lat="47.79252" lon="-3.69825">
        <ele>27.3</ele>
        <time>2023-01-27T14:34:50Z</time>
      </trkpt>
      <trkpt lat="47.79249" lon="-3.69824">
        <ele>27.4</ele>
        <time>2023-01-27T14:34:51Z</time>
      </trkpt>
      <trkpt lat="47.79245" lon="-3.69824">
        <ele>27.5</ele>
        <time>2023-01-27T14:34:52Z</time>
      </trkpt>
      <trkpt lat="47.7924" lon="-3.69821">
        <ele>27.7</ele>
        <time>2023-01-27T14:34:53Z</time>
      </trkpt>
      <trkpt lat="47.79236" lon="-3.69821">
        <ele>27.8</ele>
        <time>2023-01-27T14:34:54Z</time>
      </trkpt>
      <trkpt lat="47.79232" lon="-3.6982">
        <ele>27.9</ele>
        <time>2023-01-27T14:34:55Z</time>
      </trkpt>
      <trkpt lat="47.79226" lon="-3.69817">
        <ele>28.1</ele>
        <time>2023-01-27T14:34:56Z</time>
      </trkpt>
      <trkpt lat="47.79221" lon="-3.69814">
        <ele>28.2</ele>
        <time>2023-01-27T14:34:57Z</time>
      </trkpt>
      <trkpt lat="47.79217" lon="-3.69812">
        <ele>28.4</ele>
        <time>2023-01-27T14:34:59Z</time>
      </trkpt>
      <trkpt lat="47.79213" lon="-3.6981">
        <ele>28.5</ele>
        <time>2023-01-27T14:35:00Z</time>
      </trkpt>
      <trkpt lat="47.79206" lon="-3.69809">
        <ele>28.7</ele>
        <time>2023-01-27T14:35:01Z</time>
      </trkpt>
      <trkpt lat="47.79201" lon="-3.69808">
        <ele>28.9</ele>
        <time>2023-01-27T14:35:03Z</time>
      </trkpt>
      <trkpt lat="47.79194" lon="-3.69806">
        <ele>29.1</ele>
        <time>2023-01-27T14:35:04Z</time>
      </trkpt>
      <trkpt lat="47.79186" lon="-3.69802">
        <ele>29.2</ele>
        <time>2023-01-27T14:35:06Z</time>
      </trkpt>
      <trkpt lat="47.79179" lon="-3.69799">
        <ele>29.4</ele>
        <time>2023-01-27T14:35:08Z</time>
      </trkpt>
      <trkpt lat="47.79175" lon="-3.69797">
        <ele>29.5</ele>
        <time>2023-01-27T14:35:09Z</time>
      </trkpt>
      <trkpt lat="47.7917" lon="-3.69794">
        <ele>29.6</ele>
        <time>2023-01-27T14:35:10Z</time>
      </trkpt>
      <trkpt lat="47.79162" lon="-3.69791">
        <ele>29.7</ele>
        <time>2023-01-27T14:35:12Z</time>
      </trkpt>
      <trkpt lat="47.79154" lon="-3.69788">
        <ele>29.8</ele>
        <time>2023-01-27T14:35:14Z</time>
      </trkpt>
      <trkpt lat="47.79146" lon="-3.69785">
        <ele>29.9</ele>
        <time>2023-01-27T14:35:16Z</time>
      </trkpt>
      <trkpt lat="47.79142" lon="-3.69783">
        <ele>29.9</ele>
        <time>2023-01-27T14:35:18Z</time>
      </trkpt>
      <trkpt lat="47.79138" lon="-3.69782">
        <ele>29.9</ele>
        <time>2023-01-27T14:35:19Z</time>
      </trkpt>
      <trkpt lat="47.79133" lon="-3.6978">
        <ele>29.8</ele>
        <time>2023-01-27T14:35:20Z</time>
      </trkpt>
      <trkpt lat="47.79129" lon="-3.69778">
        <ele>29.8</ele>
        <time>2023-01-27T14:35:21Z</time>
      </trkpt>
      <trkpt lat="47.79123" lon="-3.69772">
        <ele>29.6</ele>
        <time>2023-01-27T14:35:22Z</time>
      </trkpt>
      <trkpt lat="47.79119" lon="-3.69769">
        <ele>29.6</ele>
        <time>2023-01-27T14:35:24Z</time>
      </trkpt>
      <trkpt lat="47.79116" lon="-3.69764">
        <ele>29.5</ele>
        <time>2023-01-27T14:35:25Z</time>
      </trkpt>
      <trkpt lat="47.79113" lon="-3.69761">
        <ele>29.4</ele>
        <time>2023-01-27T14:35:26Z</time>
      </trkpt>
      <trkpt lat="47.79109" lon="-3.69756">
        <ele>29.3</ele>
        <time>2023-01-27T14:35:27Z</time>
      </trkpt>
      <trkpt lat="47.79105" lon="-3.69749">
        <ele>29.2</ele>
        <time>2023-01-27T14:35:28Z</time>
      </trkpt>
      <trkpt lat="47.79101" lon="-3.6974">
        <ele>29</ele>
        <time>2023-01-27T14:35:30Z</time>
      </trkpt>
      <trkpt lat="47.79098" lon="-3.69735">
        <ele>28.9</ele>
        <time>2023-01-27T14:35:31Z</time>
      </trkpt>
      <trkpt lat="47.79095" lon="-3.69729">
        <ele>28.8</ele>
        <time>2023-01-27T14:35:32Z</time>
      </trkpt>
      <trkpt lat="47.79092" lon="-3.69723">
        <ele>28.6</ele>
        <time>2023-01-27T14:35:33Z</time>
      </trkpt>
      <trkpt lat="47.79089" lon="-3.69717">
        <ele>28.5</ele>
        <time>2023-01-27T14:35:34Z</time>
      </trkpt>
      <trkpt lat="47.79087" lon="-3.69711">
        <ele>28.4</ele>
        <time>2023-01-27T14:35:35Z</time>
      </trkpt>
      <trkpt lat="47.79084" lon="-3.69705">
        <ele>28.3</ele>
        <time>2023-01-27T14:35:36Z</time>
      </trkpt>
      <trkpt lat="47.79082" lon="-3.69699">
        <ele>28.2</ele>
        <time>2023-01-27T14:35:37Z</time>
      </trkpt>
      <trkpt lat="47.7908" lon="-3.69692">
        <ele>28.1</ele>
        <time>2023-01-27T14:35:38Z</time>
      </trkpt>
      <trkpt lat="47.79078" lon="-3.69686">
        <ele>28</ele>
        <time>2023-01-27T14:35:39Z</time>
      </trkpt>
      <trkpt lat="47.79076" lon="-3.6968">
        <ele>28</ele>
        <time>2023-01-27T14:35:40Z</time>
      </trkpt>
      <trkpt lat="47.79074" lon="-3.69673">
        <ele>27.9</ele>
        <time>2023-01-27T14:35:41Z</time>
      </trkpt>
      <trkpt lat="47.79071" lon="-3.69667">
        <ele>27.8</ele>
        <time>2023-01-27T14:35:42Z</time>
      </trkpt>
      <trkpt lat="47.7907" lon="-3.69664">
        <ele>27.8</ele>
        <time>2023-01-27T14:35:43Z</time>
      </trkpt>
      <trkpt lat="47.79067" lon="-3.69658">
        <ele>27.7</ele>
        <time>2023-01-27T14:35:44Z</time>
      </trkpt>
      <trkpt lat="47.79063" lon="-3.69653">
        <ele>27.6</ele>
        <time>2023-01-27T14:35:45Z</time>
      </trkpt>
      <trkpt lat="47.79058" lon="-3.69648">
        <ele>27.5</ele>
        <time>2023-01-27T14:35:46Z</time>
      </trkpt>
      <trkpt lat="47.79053" lon="-3.69645">
        <ele>27.4</ele>
        <time>2023-01-27T14:35:47Z</time>
      </trkpt>
      <trkpt lat="47.79048" lon="-3.69643">
        <ele>27.3</ele>
        <time>2023-01-27T14:35:48Z</time>
      </trkpt>
      <trkpt lat="47.79042" lon="-3.69641">
        <ele>27.2</ele>
        <time>2023-01-27T14:35:49Z</time>
      </trkpt>
      <trkpt lat="47.79037" lon="-3.69639">
        <ele>27</ele>
        <time>2023-01-27T14:35:50Z</time>
      </trkpt>
      <trkpt lat="47.79031" lon="-3.69636">
        <ele>26.9</ele>
        <time>2023-01-27T14:35:51Z</time>
      </trkpt>
      <trkpt lat="47.79025" lon="-3.69633">
        <ele>26.7</ele>
        <time>2023-01-27T14:35:52Z</time>
      </trkpt>
      <trkpt lat="47.7902" lon="-3.69629">
        <ele>26.5</ele>
        <time>2023-01-27T14:35:53Z</time>
      </trkpt>
      <trkpt lat="47.79014" lon="-3.69626">
        <ele>26.2</ele>
        <time>2023-01-27T14:35:54Z</time>
      </trkpt>
      <trkpt lat="47.79008" lon="-3.69622">
        <ele>26</ele>
        <time>2023-01-27T14:35:55Z</time>
      </trkpt>
      <trkpt lat="47.79002" lon="-3.69618">
        <ele>25.8</ele>
        <time>2023-01-27T14:35:56Z</time>
      </trkpt>
      <trkpt lat="47.78997" lon="-3.69613">
        <ele>25.5</ele>
        <time>2023-01-27T14:35:57Z</time>
      </trkpt>
      <trkpt lat="47.78991" lon="-3.69608">
        <ele>25.1</ele>
        <time>2023-01-27T14:35:58Z</time>
      </trkpt>
      <trkpt lat="47.78986" lon="-3.69604">
        <ele>24.8</ele>
        <time>2023-01-27T14:35:59Z</time>
      </trkpt>
      <trkpt lat="47.78982" lon="-3.69601">
        <ele>24.6</ele>
        <time>2023-01-27T14:36:00Z</time>
      </trkpt>
      <trkpt lat="47.7898" lon="-3.696">
        <ele>24.4</ele>
        <time>2023-01-27T14:36:01Z</time>
      </trkpt>
      <trkpt lat="47.78979" lon="-3.69599">
        <ele>24.4</ele>
        <time>2023-01-27T14:36:02Z</time>
      </trkpt>
      <trkpt lat="47.78979" lon="-3.69598">
        <ele>24.3</ele>
        <time>2023-01-27T14:36:03Z</time>
      </trkpt>
      <trkpt lat="47.78978" lon="-3.69598">
        <ele>24.3</ele>
        <time>2023-01-27T14:36:04Z</time>
      </trkpt>
      <trkpt lat="47.78978" lon="-3.69597">
        <ele>24.3</ele>
        <time>2023-01-27T14:36:05Z</time>
      </trkpt>
      <trkpt lat="47.78977" lon="-3.69596">
        <ele>24.2</ele>
        <time>2023-01-27T14:36:06Z</time>
      </trkpt>
      <trkpt lat="47.78977" lon="-3.69596">
        <ele>24.2</ele>
        <time>2023-01-27T14:36:07Z</time>
      </trkpt>
      <trkpt lat="47.78976" lon="-3.69595">
        <ele>24.1</ele>
        <time>2023-01-27T14:36:08Z</time>
      </trkpt>
      <trkpt lat="47.78976" lon="-3.69595">
        <ele>24.1</ele>
        <time>2023-01-27T14:36:09Z</time>
      </trkpt>
      <trkpt lat="47.78975" lon="-3.69594">
        <ele>24.1</ele>
        <time>2023-01-27T14:36:10Z</time>
      </trkpt>
      <trkpt lat="47.78975" lon="-3.69593">
        <ele>24</ele>
        <time>2023-01-27T14:36:11Z</time>
      </trkpt>
      <trkpt lat="47.78974" lon="-3.69593">
        <ele>24</ele>
        <time>2023-01-27T14:36:18Z</time>
      </trkpt>
      <trkpt lat="47.78973" lon="-3.69592">
        <ele>23.9</ele>
        <time>2023-01-27T14:36:19Z</time>
      </trkpt>
      <trkpt lat="47.78973" lon="-3.69591">
        <ele>23.9</ele>
        <time>2023-01-27T14:36:20Z</time>
      </trkpt>
      <trkpt lat="47.78969" lon="-3.69587">
        <ele>23.6</ele>
        <time>2023-01-27T14:36:21Z</time>
      </trkpt>
      <trkpt lat="47.78966" lon="-3.69584">
        <ele>23.4</ele>
        <time>2023-01-27T14:36:22Z</time>
      </trkpt>
      <trkpt lat="47.78957" lon="-3.69575">
        <ele>22.8</ele>
        <time>2023-01-27T14:36:24Z</time>
      </trkpt>
      <trkpt lat="47.78951" lon="-3.69572">
        <ele>22.8</ele>
        <time>2023-01-27T14:36:26Z</time>
      </trkpt>
      <trkpt lat="47.78946" lon="-3.69573">
        <ele>23</ele>
        <time>2023-01-27T14:36:27Z</time>
      </trkpt>
      <trkpt lat="47.78942" lon="-3.69575">
        <ele>23.2</ele>
        <time>2023-01-27T14:36:28Z</time>
      </trkpt>
      <trkpt lat="47.7894" lon="-3.69579">
        <ele>23.3</ele>
        <time>2023-01-27T14:36:29Z</time>
      </trkpt>
      <trkpt lat="47.78936" lon="-3.69583">
        <ele>23.4</ele>
        <time>2023-01-27T14:36:31Z</time>
      </trkpt>
      <trkpt lat="47.78934" lon="-3.69583">
        <ele>23.5</ele>
        <time>2023-01-27T14:36:32Z</time>
      </trkpt>
      <trkpt lat="47.78931" lon="-3.69586">
        <ele>23.5</ele>
        <time>2023-01-27T14:36:33Z</time>
      </trkpt>
      <trkpt lat="47.78927" lon="-3.69588">
        <ele>23.5</ele>
        <time>2023-01-27T14:36:35Z</time>
      </trkpt>
      <trkpt lat="47.78925" lon="-3.69589">
        <ele>23.5</ele>
        <time>2023-01-27T14:36:37Z</time>
      </trkpt>
      <trkpt lat="47.78924" lon="-3.6959">
        <ele>23.5</ele>
        <time>2023-01-27T14:36:38Z</time>
      </trkpt>
      <trkpt lat="47.78922" lon="-3.6959">
        <ele>23.5</ele>
        <time>2023-01-27T14:36:39Z</time>
      </trkpt>
      <trkpt lat="47.78917" lon="-3.69591">
        <ele>23.4</ele>
        <time>2023-01-27T14:36:40Z</time>
      </trkpt>
      <trkpt lat="47.78914" lon="-3.69591">
        <ele>23.3</ele>
        <time>2023-01-27T14:36:41Z</time>
      </trkpt>
      <trkpt lat="47.78908" lon="-3.69594">
        <ele>23.1</ele>
        <time>2023-01-27T14:36:43Z</time>
      </trkpt>
      <trkpt lat="47.78903" lon="-3.69595">
        <ele>23</ele>
        <time>2023-01-27T14:36:44Z</time>
      </trkpt>
      <trkpt lat="47.78898" lon="-3.69595">
        <ele>22.9</ele>
        <time>2023-01-27T14:36:45Z</time>
      </trkpt>
      <trkpt lat="47.78893" lon="-3.69595">
        <ele>22.8</ele>
        <time>2023-01-27T14:36:46Z</time>
      </trkpt>
      <trkpt lat="47.78888" lon="-3.69595">
        <ele>22.7</ele>
        <time>2023-01-27T14:36:47Z</time>
      </trkpt>
      <trkpt lat="47.78882" lon="-3.69594">
        <ele>22.6</ele>
        <time>2023-01-27T14:36:48Z</time>
      </trkpt>
      <trkpt lat="47.78876" lon="-3.69594">
        <ele>22.5</ele>
        <time>2023-01-27T14:36:49Z</time>
      </trkpt>
      <trkpt lat="47.78871" lon="-3.69594">
        <ele>22.5</ele>
        <time>2023-01-27T14:36:50Z</time>
      </trkpt>
      <trkpt lat="47.78867" lon="-3.69593">
        <ele>22.5</ele>
        <time>2023-01-27T14:36:51Z</time>
      </trkpt>
      <trkpt lat="47.78862" lon="-3.69591">
        <ele>22.5</ele>
        <time>2023-01-27T14:36:52Z</time>
      </trkpt>
      <trkpt lat="47.7886" lon="-3.6959">
        <ele>22.3</ele>
        <time>2023-01-27T14:36:53Z</time>
      </trkpt>
      <trkpt lat="47.78857" lon="-3.69588">
        <ele>22</ele>
        <time>2023-01-27T14:36:54Z</time>
      </trkpt>
      <trkpt lat="47.78855" lon="-3.69583">
        <ele>21.8</ele>
        <time>2023-01-27T14:36:55Z</time>
      </trkpt>
      <trkpt lat="47.78855" lon="-3.69577">
        <ele>21.6</ele>
        <time>2023-01-27T14:36:56Z</time>
      </trkpt>
      <trkpt lat="47.78852" lon="-3.69567">
        <ele>21.1</ele>
        <time>2023-01-27T14:36:57Z</time>
      </trkpt>
      <trkpt lat="47.78852" lon="-3.69563">
        <ele>20.8</ele>
        <time>2023-01-27T14:36:59Z</time>
      </trkpt>
      <trkpt lat="47.78851" lon="-3.69561">
        <ele>20.8</ele>
        <time>2023-01-27T14:37:00Z</time>
      </trkpt>
      <trkpt lat="47.78851" lon="-3.69561">
        <ele>20.7</ele>
        <time>2023-01-27T14:37:01Z</time>
      </trkpt>
      <trkpt lat="47.78851" lon="-3.69561">
        <ele>20.7</ele>
        <time>2023-01-27T14:37:02Z</time>
      </trkpt>
      <trkpt lat="47.7885" lon="-3.69561">
        <ele>20.7</ele>
        <time>2023-01-27T14:37:03Z</time>
      </trkpt>
      <trkpt lat="47.7885" lon="-3.69561">
        <ele>20.7</ele>
        <time>2023-01-27T14:37:04Z</time>
      </trkpt>
      <trkpt lat="47.78851" lon="-3.69557">
        <ele>20.5</ele>
        <time>2023-01-27T14:37:05Z</time>
      </trkpt>
      <trkpt lat="47.7885" lon="-3.69549">
        <ele>20.1</ele>
        <time>2023-01-27T14:37:07Z</time>
      </trkpt>
      <trkpt lat="47.7885" lon="-3.69542">
        <ele>19.8</ele>
        <time>2023-01-27T14:37:09Z</time>
      </trkpt>
      <trkpt lat="47.78849" lon="-3.69537">
        <ele>19.6</ele>
        <time>2023-01-27T14:37:10Z</time>
      </trkpt>
      <trkpt lat="47.78849" lon="-3.69526">
        <ele>19.1</ele>
        <time>2023-01-27T14:37:11Z</time>
      </trkpt>
      <trkpt lat="47.78848" lon="-3.69518">
        <ele>18.7</ele>
        <time>2023-01-27T14:37:13Z</time>
      </trkpt>
      <trkpt lat="47.78847" lon="-3.69508">
        <ele>18.2</ele>
        <time>2023-01-27T14:37:14Z</time>
      </trkpt>
      <trkpt lat="47.78847" lon="-3.69501">
        <ele>17.9</ele>
        <time>2023-01-27T14:37:15Z</time>
      </trkpt>
      <trkpt lat="47.78848" lon="-3.69495">
        <ele>17.6</ele>
        <time>2023-01-27T14:37:16Z</time>
      </trkpt>
      <trkpt lat="47.78848" lon="-3.69488">
        <ele>17.2</ele>
        <time>2023-01-27T14:37:17Z</time>
      </trkpt>
      <trkpt lat="47.78848" lon="-3.69481">
        <ele>16.9</ele>
        <time>2023-01-27T14:37:18Z</time>
      </trkpt>
      <trkpt lat="47.78848" lon="-3.69478">
        <ele>16.7</ele>
        <time>2023-01-27T14:37:19Z</time>
      </trkpt>
      <trkpt lat="47.78851" lon="-3.69461">
        <ele>15.8</ele>
        <time>2023-01-27T14:37:21Z</time>
      </trkpt>
      <trkpt lat="47.78852" lon="-3.69455">
        <ele>15.5</ele>
        <time>2023-01-27T14:37:23Z</time>
      </trkpt>
      <trkpt lat="47.7885" lon="-3.69451">
        <ele>15.3</ele>
        <time>2023-01-27T14:37:24Z</time>
      </trkpt>
      <trkpt lat="47.7885" lon="-3.69445">
        <ele>14.9</ele>
        <time>2023-01-27T14:37:25Z</time>
      </trkpt>
      <trkpt lat="47.78851" lon="-3.69442">
        <ele>14.8</ele>
        <time>2023-01-27T14:37:26Z</time>
      </trkpt>
      <trkpt lat="47.78851" lon="-3.69438">
        <ele>14.6</ele>
        <time>2023-01-27T14:37:27Z</time>
      </trkpt>
      <trkpt lat="47.78851" lon="-3.69435">
        <ele>14.4</ele>
        <time>2023-01-27T14:37:28Z</time>
      </trkpt>
      <trkpt lat="47.7885" lon="-3.69434">
        <ele>14.3</ele>
        <time>2023-01-27T14:37:29Z</time>
      </trkpt>
      <trkpt lat="47.78846" lon="-3.69436">
        <ele>13.7</ele>
        <time>2023-01-27T14:37:30Z</time>
      </trkpt>
      <trkpt lat="47.78844" lon="-3.69437">
        <ele>13.6</ele>
        <time>2023-01-27T14:37:31Z</time>
      </trkpt>
      <trkpt lat="47.78841" lon="-3.69438">
        <ele>13.4</ele>
        <time>2023-01-27T14:37:32Z</time>
      </trkpt>
      <trkpt lat="47.78834" lon="-3.69438">
        <ele>13</ele>
        <time>2023-01-27T14:37:34Z</time>
      </trkpt>
      <trkpt lat="47.78831" lon="-3.69439">
        <ele>12.7</ele>
        <time>2023-01-27T14:37:36Z</time>
      </trkpt>
      <trkpt lat="47.78827" lon="-3.69441">
        <ele>12.4</ele>
        <time>2023-01-27T14:37:37Z</time>
      </trkpt>
      <trkpt lat="47.78822" lon="-3.69442">
        <ele>11.9</ele>
        <time>2023-01-27T14:37:38Z</time>
      </trkpt>
      <trkpt lat="47.78816" lon="-3.69443">
        <ele>11.3</ele>
        <time>2023-01-27T14:37:39Z</time>
      </trkpt>
      <trkpt lat="47.78811" lon="-3.69444">
        <ele>10.8</ele>
        <time>2023-01-27T14:37:40Z</time>
      </trkpt>
      <trkpt lat="47.78806" lon="-3.69445">
        <ele>10.3</ele>
        <time>2023-01-27T14:37:41Z</time>
      </trkpt>
      <trkpt lat="47.78802" lon="-3.69446">
        <ele>9.9</ele>
        <time>2023-01-27T14:37:42Z</time>
      </trkpt>
      <trkpt lat="47.78798" lon="-3.69449">
        <ele>9.5</ele>
        <time>2023-01-27T14:37:43Z</time>
      </trkpt>
      <trkpt lat="47.78793" lon="-3.69454">
        <ele>8.9</ele>
        <time>2023-01-27T14:37:44Z</time>
      </trkpt>
      <trkpt lat="47.7879" lon="-3.69456">
        <ele>8.5</ele>
        <time>2023-01-27T14:37:45Z</time>
      </trkpt>
      <trkpt lat="47.78785" lon="-3.69458">
        <ele>8.1</ele>
        <time>2023-01-27T14:37:46Z</time>
      </trkpt>
      <trkpt lat="47.78782" lon="-3.69461">
        <ele>7.7</ele>
        <time>2023-01-27T14:37:48Z</time>
      </trkpt>
      <trkpt lat="47.78778" lon="-3.69464">
        <ele>7.4</ele>
        <time>2023-01-27T14:37:49Z</time>
      </trkpt>
      <trkpt lat="47.78771" lon="-3.69468">
        <ele>6.8</ele>
        <time>2023-01-27T14:37:50Z</time>
      </trkpt>
      <trkpt lat="47.78767" lon="-3.69473">
        <ele>6.5</ele>
        <time>2023-01-27T14:37:52Z</time>
      </trkpt>
      <trkpt lat="47.78764" lon="-3.69477">
        <ele>6.3</ele>
        <time>2023-01-27T14:37:53Z</time>
      </trkpt>
      <trkpt lat="47.78759" lon="-3.69482">
        <ele>6</ele>
        <time>2023-01-27T14:37:54Z</time>
      </trkpt>
      <trkpt lat="47.78756" lon="-3.69488">
        <ele>5.7</ele>
        <time>2023-01-27T14:37:55Z</time>
      </trkpt>
      <trkpt lat="47.78753" lon="-3.69493">
        <ele>5.4</ele>
        <time>2023-01-27T14:37:56Z</time>
      </trkpt>
      <trkpt lat="47.7875" lon="-3.69498">
        <ele>5.1</ele>
        <time>2023-01-27T14:37:57Z</time>
      </trkpt>
      <trkpt lat="47.78746" lon="-3.69503">
        <ele>4.8</ele>
        <time>2023-01-27T14:37:58Z</time>
      </trkpt>
      <trkpt lat="47.78743" lon="-3.69507">
        <ele>4.6</ele>
        <time>2023-01-27T14:37:59Z</time>
      </trkpt>
      <trkpt lat="47.78738" lon="-3.6951">
        <ele>4.3</ele>
        <time>2023-01-27T14:38:00Z</time>
      </trkpt>
      <trkpt lat="47.78734" lon="-3.69511">
        <ele>4.1</ele>
        <time>2023-01-27T14:38:01Z</time>
      </trkpt>
      <trkpt lat="47.78732" lon="-3.69514">
        <ele>3.9</ele>
        <time>2023-01-27T14:38:02Z</time>
      </trkpt>
      <trkpt lat="47.78729" lon="-3.69518">
        <ele>3.8</ele>
        <time>2023-01-27T14:38:04Z</time>
      </trkpt>
      <trkpt lat="47.78729" lon="-3.69519">
        <ele>3.8</ele>
        <time>2023-01-27T14:38:05Z</time>
      </trkpt>
      <trkpt lat="47.78728" lon="-3.6952">
        <ele>3.7</ele>
        <time>2023-01-27T14:38:06Z</time>
      </trkpt>
      <trkpt lat="47.78728" lon="-3.69522">
        <ele>3.4</ele>
        <time>2023-01-27T14:38:07Z</time>
      </trkpt>
      <trkpt lat="47.78726" lon="-3.69526">
        <ele>3.4</ele>
        <time>2023-01-27T14:38:08Z</time>
      </trkpt>
      <trkpt lat="47.78726" lon="-3.69527">
        <ele>3.4</ele>
        <time>2023-01-27T14:38:09Z</time>
      </trkpt>
      <trkpt lat="47.78725" lon="-3.69528">
        <ele>3.4</ele>
        <time>2023-01-27T14:38:10Z</time>
      </trkpt>
      <trkpt lat="47.78725" lon="-3.69528">
        <ele>3.4</ele>
        <time>2023-01-27T14:38:11Z</time>
      </trkpt>
      <trkpt lat="47.78725" lon="-3.69527">
        <ele>3.4</ele>
        <time>2023-01-27T14:38:12Z</time>
      </trkpt>
      <trkpt lat="47.78724" lon="-3.69527">
        <ele>3.4</ele>
        <time>2023-01-27T14:38:13Z</time>
      </trkpt>
      <trkpt lat="47.78723" lon="-3.69526">
        <ele>3.4</ele>
        <time>2023-01-27T14:38:14Z</time>
      </trkpt>
      <trkpt lat="47.78723" lon="-3.69525">
        <ele>3.4</ele>
        <time>2023-01-27T14:38:15Z</time>
      </trkpt>
      <trkpt lat="47.78722" lon="-3.69524">
        <ele>3.4</ele>
        <time>2023-01-27T14:38:16Z</time>
      </trkpt>
      <trkpt lat="47.78723" lon="-3.69524">
        <ele>3.4</ele>
        <time>2023-01-27T14:38:17Z</time>
      </trkpt>
      <trkpt lat="47.78723" lon="-3.69524">
        <ele>3.4</ele>
        <time>2023-01-27T14:38:18Z</time>
      </trkpt>
      <trkpt lat="47.78723" lon="-3.69524">
        <ele>3.4</ele>
        <time>2023-01-27T14:38:19Z</time>
      </trkpt>
      <trkpt lat="47.78723" lon="-3.69524">
        <ele>3.4</ele>
        <time>2023-01-27T14:38:20Z</time>
      </trkpt>
      <trkpt lat="47.78723" lon="-3.69524">
        <ele>3.4</ele>
        <time>2023-01-27T14:38:22Z</time>
      </trkpt>
      <trkpt lat="47.78723" lon="-3.69524">
        <ele>3.4</ele>
        <time>2023-01-27T14:38:23Z</time>
      </trkpt>
      <trkpt lat="47.78723" lon="-3.69524">
        <ele>3.4</ele>
        <time>2023-01-27T14:38:24Z</time>
      </trkpt>
      <trkpt lat="47.78724" lon="-3.69525">
        <ele>3.4</ele>
        <time>2023-01-27T14:38:25Z</time>
      </trkpt>
      <trkpt lat="47.78724" lon="-3.69525">
        <ele>3.4</ele>
        <time>2023-01-27T14:38:26Z</time>
      </trkpt>
      <trkpt lat="47.78725" lon="-3.69525">
        <ele>3.4</ele>
        <time>2023-01-27T14:38:27Z</time>
      </trkpt>
      <trkpt lat="47.78726" lon="-3.69524">
        <ele>3.4</ele>
        <time>2023-01-27T14:38:28Z</time>
      </trkpt>
      <trkpt lat="47.78726" lon="-3.69524">
        <ele>3.4</ele>
        <time>2023-01-27T14:38:29Z</time>
      </trkpt>
      <trkpt lat="47.78726" lon="-3.69523">
        <ele>3.4</ele>
        <time>2023-01-27T14:38:30Z</time>
      </trkpt>
      <trkpt lat="47.78726" lon="-3.69523">
        <ele>3.4</ele>
        <time>2023-01-27T14:38:31Z</time>
      </trkpt>
      <trkpt lat="47.78726" lon="-3.69523">
        <ele>3.4</ele>
        <time>2023-01-27T14:38:32Z</time>
      </trkpt>
      <trkpt lat="47.78726" lon="-3.69523">
        <ele>3.4</ele>
        <time>2023-01-27T14:38:33Z</time>
      </trkpt>
      <trkpt lat="47.78727" lon="-3.69523">
        <ele>3.4</ele>
        <time>2023-01-27T14:38:34Z</time>
      </trkpt>
      <trkpt lat="47.78727" lon="-3.69523">
        <ele>3.4</ele>
        <time>2023-01-27T14:38:35Z</time>
      </trkpt>
      <trkpt lat="47.78728" lon="-3.69524">
        <ele>3.4</ele>
        <time>2023-01-27T14:38:36Z</time>
      </trkpt>
      <trkpt lat="47.78728" lon="-3.69524">
        <ele>3.4</ele>
        <time>2023-01-27T14:38:37Z</time>
      </trkpt>
      <trkpt lat="47.78728" lon="-3.69524">
        <ele>3.4</ele>
        <time>2023-01-27T14:38:38Z</time>
      </trkpt>
      <trkpt lat="47.78728" lon="-3.69524">
        <ele>3.4</ele>
        <time>2023-01-27T14:38:39Z</time>
      </trkpt>
      <trkpt lat="47.78728" lon="-3.69525">
        <ele>3.4</ele>
        <time>2023-01-27T14:38:40Z</time>
      </trkpt>
      <trkpt lat="47.78728" lon="-3.69525">
        <ele>3.4</ele>
        <time>2023-01-27T14:38:41Z</time>
      </trkpt>
      <trkpt lat="47.78727" lon="-3.69525">
        <ele>3.4</ele>
        <time>2023-01-27T14:38:42Z</time>
      </trkpt>
      <trkpt lat="47.78726" lon="-3.69525">
        <ele>3.4</ele>
        <time>2023-01-27T14:38:43Z</time>
      </trkpt>
      <trkpt lat="47.78725" lon="-3.69525">
        <ele>3.4</ele>
        <time>2023-01-27T14:38:44Z</time>
      </trkpt>
      <trkpt lat="47.78725" lon="-3.69525">
        <ele>3.4</ele>
        <time>2023-01-27T14:38:45Z</time>
      </trkpt>
      <trkpt lat="47.78724" lon="-3.69525">
        <ele>3.4</ele>
        <time>2023-01-27T14:38:46Z</time>
      </trkpt>
      <trkpt lat="47.78724" lon="-3.69525">
        <ele>3.4</ele>
        <time>2023-01-27T14:38:47Z</time>
      </trkpt>
      <trkpt lat="47.78725" lon="-3.69525">
        <ele>3.4</ele>
        <time>2023-01-27T14:38:48Z</time>
      </trkpt>
      <trkpt lat="47.78725" lon="-3.69525">
        <ele>3.4</ele>
        <time>2023-01-27T14:38:49Z</time>
      </trkpt>
      <trkpt lat="47.78725" lon="-3.69525">
        <ele>3.4</ele>
        <time>2023-01-27T14:38:50Z</time>
      </trkpt>
      <trkpt lat="47.78725" lon="-3.69525">
        <ele>3.4</ele>
        <time>2023-01-27T14:38:51Z</time>
      </trkpt>
      <trkpt lat="47.78724" lon="-3.69524">
        <ele>3.4</ele>
        <time>2023-01-27T14:38:52Z</time>
      </trkpt>
      <trkpt lat="47.78724" lon="-3.69523">
        <ele>3.4</ele>
        <time>2023-01-27T14:38:53Z</time>
      </trkpt>
      <trkpt lat="47.78723" lon="-3.69522">
        <ele>3.4</ele>
        <time>2023-01-27T14:38:54Z</time>
      </trkpt>
      <trkpt lat="47.78723" lon="-3.69521">
        <ele>3.4</ele>
        <time>2023-01-27T14:38:55Z</time>
      </trkpt>
      <trkpt lat="47.78723" lon="-3.69521">
        <ele>3.4</ele>
        <time>2023-01-27T14:38:56Z</time>
      </trkpt>
      <trkpt lat="47.78723" lon="-3.69521">
        <ele>3.4</ele>
        <time>2023-01-27T14:38:57Z</time>
      </trkpt>
      <trkpt lat="47.78722" lon="-3.69521">
        <ele>3.4</ele>
        <time>2023-01-27T14:38:58Z</time>
      </trkpt>
      <trkpt lat="47.78722" lon="-3.69521">
        <ele>3.4</ele>
        <time>2023-01-27T14:38:59Z</time>
      </trkpt>
      <trkpt lat="47.78722" lon="-3.69521">
        <ele>3.4</ele>
        <time>2023-01-27T14:39:00Z</time>
      </trkpt>
      <trkpt lat="47.78722" lon="-3.69521">
        <ele>3.4</ele>
        <time>2023-01-27T14:39:01Z</time>
      </trkpt>
      <trkpt lat="47.78722" lon="-3.69521">
        <ele>3.4</ele>
        <time>2023-01-27T14:39:02Z</time>
      </trkpt>
      <trkpt lat="47.78722" lon="-3.69521">
        <ele>3.4</ele>
        <time>2023-01-27T14:39:03Z</time>
      </trkpt>
      <trkpt lat="47.78722" lon="-3.69521">
        <ele>3.4</ele>
        <time>2023-01-27T14:39:04Z</time>
      </trkpt>
      <trkpt lat="47.78722" lon="-3.69521">
        <ele>3.4</ele>
        <time>2023-01-27T14:39:05Z</time>
      </trkpt>
      <trkpt lat="47.78722" lon="-3.69521">
        <ele>3.4</ele>
        <time>2023-01-27T14:39:06Z</time>
      </trkpt>
      <trkpt lat="47.78722" lon="-3.69521">
        <ele>3.4</ele>
        <time>2023-01-27T14:39:07Z</time>
      </trkpt>
      <trkpt lat="47.78722" lon="-3.69521">
        <ele>3.4</ele>
        <time>2023-01-27T14:39:08Z</time>
      </trkpt>
      <trkpt lat="47.7872" lon="-3.69519">
        <ele>3.4</ele>
        <time>2023-01-27T14:39:14Z</time>
      </trkpt>
      <trkpt lat="47.78719" lon="-3.69517">
        <ele>3.4</ele>
        <time>2023-01-27T14:39:15Z</time>
      </trkpt>
      <trkpt lat="47.78718" lon="-3.69515">
        <ele>3.4</ele>
        <time>2023-01-27T14:39:16Z</time>
      </trkpt>
      <trkpt lat="47.78717" lon="-3.69513">
        <ele>3.5</ele>
        <time>2023-01-27T14:39:17Z</time>
      </trkpt>
      <trkpt lat="47.78716" lon="-3.69512">
        <ele>3.5</ele>
        <time>2023-01-27T14:39:18Z</time>
      </trkpt>
      <trkpt lat="47.78715" lon="-3.69509">
        <ele>3.5</ele>
        <time>2023-01-27T14:39:19Z</time>
      </trkpt>
      <trkpt lat="47.78714" lon="-3.69508">
        <ele>3.5</ele>
        <time>2023-01-27T14:39:20Z</time>
      </trkpt>
      <trkpt lat="47.78713" lon="-3.69507">
        <ele>3.5</ele>
        <time>2023-01-27T14:39:21Z</time>
      </trkpt>
      <trkpt lat="47.7871" lon="-3.69503">
        <ele>3.6</ele>
        <time>2023-01-27T14:39:22Z</time>
      </trkpt>
      <trkpt lat="47.78709" lon="-3.69501">
        <ele>3.6</ele>
        <time>2023-01-27T14:39:23Z</time>
      </trkpt>
      <trkpt lat="47.78706" lon="-3.69497">
        <ele>3.7</ele>
        <time>2023-01-27T14:39:24Z</time>
      </trkpt>
      <trkpt lat="47.78705" lon="-3.69495">
        <ele>3.8</ele>
        <time>2023-01-27T14:39:25Z</time>
      </trkpt>
      <trkpt lat="47.78703" lon="-3.69491">
        <ele>3.9</ele>
        <time>2023-01-27T14:39:27Z</time>
        <extensions>
          <visugpx:TrkExtension xmlns:visugpx="https://www.visugpx.com/editgpx/">
            <visugpx:node>3</visugpx:node>
            </visugpx:TrkExtension>
        </extensions>
      </trkpt>
      <trkpt lat="47.78699" lon="-3.69487">
        <ele>4.3</ele>
        <time>2023-01-27T14:40:22Z</time>
        <extensions>
          <visugpx:TrkExtension xmlns:visugpx="https://www.visugpx.com/editgpx/">
            <visugpx:node>4</visugpx:node>
            </visugpx:TrkExtension>
        </extensions>
      </trkpt>
      <trkpt lat="47.78698" lon="-3.69486">
        <ele>4.4</ele>
        <time>2023-01-27T14:40:23Z</time>
      </trkpt>
      <trkpt lat="47.78696" lon="-3.69485">
        <ele>4.6</ele>
        <time>2023-01-27T14:40:24Z</time>
      </trkpt>
      <trkpt lat="47.78696" lon="-3.69484">
        <ele>4.6</ele>
        <time>2023-01-27T14:40:25Z</time>
      </trkpt>
      <trkpt lat="47.78695" lon="-3.69485">
        <ele>4.8</ele>
        <time>2023-01-27T14:40:26Z</time>
      </trkpt>
      <trkpt lat="47.78693" lon="-3.69486">
        <ele>4.9</ele>
        <time>2023-01-27T14:40:27Z</time>
      </trkpt>
      <trkpt lat="47.78693" lon="-3.69486">
        <ele>5</ele>
        <time>2023-01-27T14:40:28Z</time>
      </trkpt>
      <trkpt lat="47.78691" lon="-3.69486">
        <ele>5.1</ele>
        <time>2023-01-27T14:40:29Z</time>
      </trkpt>
      <trkpt lat="47.7869" lon="-3.69486">
        <ele>5.2</ele>
        <time>2023-01-27T14:40:30Z</time>
      </trkpt>
      <trkpt lat="47.78689" lon="-3.69485">
        <ele>5.3</ele>
        <time>2023-01-27T14:40:32Z</time>
      </trkpt>
      <trkpt lat="47.78688" lon="-3.69485">
        <ele>5.4</ele>
        <time>2023-01-27T14:40:33Z</time>
      </trkpt>
      <trkpt lat="47.78687" lon="-3.69484">
        <ele>5.9</ele>
        <time>2023-01-27T14:40:34Z</time>
      </trkpt>
      <trkpt lat="47.78686" lon="-3.69484">
        <ele>6.1</ele>
        <time>2023-01-27T14:40:35Z</time>
      </trkpt>
      <trkpt lat="47.78685" lon="-3.69482">
        <ele>6.2</ele>
        <time>2023-01-27T14:40:36Z</time>
      </trkpt>
      <trkpt lat="47.78685" lon="-3.6948">
        <ele>6.4</ele>
        <time>2023-01-27T14:40:37Z</time>
      </trkpt>
      <trkpt lat="47.78685" lon="-3.69479">
        <ele>6.5</ele>
        <time>2023-01-27T14:40:38Z</time>
      </trkpt>
      <trkpt lat="47.78684" lon="-3.69479">
        <ele>6.6</ele>
        <time>2023-01-27T14:40:39Z</time>
      </trkpt>
      <trkpt lat="47.78684" lon="-3.69478">
        <ele>6.6</ele>
        <time>2023-01-27T14:40:40Z</time>
      </trkpt>
      <trkpt lat="47.78684" lon="-3.69477">
        <ele>6.7</ele>
        <time>2023-01-27T14:40:41Z</time>
      </trkpt>
      <trkpt lat="47.78684" lon="-3.69476">
        <ele>6.8</ele>
        <time>2023-01-27T14:40:42Z</time>
      </trkpt>
      <trkpt lat="47.78682" lon="-3.69474">
        <ele>7.1</ele>
        <time>2023-01-27T14:40:43Z</time>
      </trkpt>
      <trkpt lat="47.78682" lon="-3.69473">
        <ele>7.2</ele>
        <time>2023-01-27T14:40:44Z</time>
      </trkpt>
      <trkpt lat="47.78682" lon="-3.69472">
        <ele>7.3</ele>
        <time>2023-01-27T14:40:45Z</time>
      </trkpt>
      <trkpt lat="47.78682" lon="-3.69464">
        <ele>8.1</ele>
        <time>2023-01-27T14:40:46Z</time>
      </trkpt>
      <trkpt lat="47.78682" lon="-3.69459">
        <ele>8.5</ele>
        <time>2023-01-27T14:40:48Z</time>
      </trkpt>
      <trkpt lat="47.78681" lon="-3.69454">
        <ele>8.9</ele>
        <time>2023-01-27T14:40:49Z</time>
      </trkpt>
      <trkpt lat="47.78681" lon="-3.69453">
        <ele>9.1</ele>
        <time>2023-01-27T14:40:50Z</time>
      </trkpt>
      <trkpt lat="47.78681" lon="-3.69448">
        <ele>9.4</ele>
        <time>2023-01-27T14:40:51Z</time>
      </trkpt>
      <trkpt lat="47.78681" lon="-3.69447">
        <ele>9.6</ele>
        <time>2023-01-27T14:40:52Z</time>
      </trkpt>
      <trkpt lat="47.7868" lon="-3.69442">
        <ele>10</ele>
        <time>2023-01-27T14:40:53Z</time>
      </trkpt>
      <trkpt lat="47.7868" lon="-3.6944">
        <ele>10.1</ele>
        <time>2023-01-27T14:40:54Z</time>
      </trkpt>
      <trkpt lat="47.78679" lon="-3.69435">
        <ele>10.5</ele>
        <time>2023-01-27T14:40:55Z</time>
      </trkpt>
      <trkpt lat="47.78679" lon="-3.69433">
        <ele>10.7</ele>
        <time>2023-01-27T14:40:56Z</time>
      </trkpt>
      <trkpt lat="47.78679" lon="-3.69427">
        <ele>11.2</ele>
        <time>2023-01-27T14:40:57Z</time>
      </trkpt>
      <trkpt lat="47.78678" lon="-3.69424">
        <ele>11.4</ele>
        <time>2023-01-27T14:40:58Z</time>
      </trkpt>
      <trkpt lat="47.78678" lon="-3.69421">
        <ele>11.7</ele>
        <time>2023-01-27T14:40:59Z</time>
      </trkpt>
      <trkpt lat="47.78678" lon="-3.69415">
        <ele>12</ele>
        <time>2023-01-27T14:41:01Z</time>
      </trkpt>
      <trkpt lat="47.78678" lon="-3.69414">
        <ele>12.1</ele>
        <time>2023-01-27T14:41:02Z</time>
      </trkpt>
      <trkpt lat="47.78678" lon="-3.69406">
        <ele>12.5</ele>
        <time>2023-01-27T14:41:03Z</time>
      </trkpt>
      <trkpt lat="47.78677" lon="-3.69401">
        <ele>12.7</ele>
        <time>2023-01-27T14:41:05Z</time>
      </trkpt>
      <trkpt lat="47.78677" lon="-3.69399">
        <ele>12.7</ele>
        <time>2023-01-27T14:41:06Z</time>
      </trkpt>
      <trkpt lat="47.78677" lon="-3.69392">
        <ele>12.9</ele>
        <time>2023-01-27T14:41:07Z</time>
      </trkpt>
      <trkpt lat="47.78677" lon="-3.69385">
        <ele>13.1</ele>
        <time>2023-01-27T14:41:09Z</time>
      </trkpt>
      <trkpt lat="47.78676" lon="-3.69382">
        <ele>13.2</ele>
        <time>2023-01-27T14:41:10Z</time>
      </trkpt>
      <trkpt lat="47.78676" lon="-3.69379">
        <ele>13.2</ele>
        <time>2023-01-27T14:41:11Z</time>
      </trkpt>
      <trkpt lat="47.78676" lon="-3.69375">
        <ele>13.3</ele>
        <time>2023-01-27T14:41:12Z</time>
      </trkpt>
      <trkpt lat="47.78676" lon="-3.69367">
        <ele>13.4</ele>
        <time>2023-01-27T14:41:14Z</time>
      </trkpt>
      <trkpt lat="47.78676" lon="-3.69363">
        <ele>13.5</ele>
        <time>2023-01-27T14:41:15Z</time>
      </trkpt>
      <trkpt lat="47.78676" lon="-3.69359">
        <ele>13.5</ele>
        <time>2023-01-27T14:41:16Z</time>
      </trkpt>
      <trkpt lat="47.78677" lon="-3.69354">
        <ele>13.5</ele>
        <time>2023-01-27T14:41:18Z</time>
      </trkpt>
      <trkpt lat="47.78677" lon="-3.6935">
        <ele>13.6</ele>
        <time>2023-01-27T14:41:19Z</time>
      </trkpt>
      <trkpt lat="47.78677" lon="-3.69345">
        <ele>13.6</ele>
        <time>2023-01-27T14:41:20Z</time>
      </trkpt>
      <trkpt lat="47.78677" lon="-3.6934">
        <ele>13.7</ele>
        <time>2023-01-27T14:41:21Z</time>
      </trkpt>
      <trkpt lat="47.78677" lon="-3.69334">
        <ele>13.8</ele>
        <time>2023-01-27T14:41:22Z</time>
      </trkpt>
      <trkpt lat="47.78676" lon="-3.69324">
        <ele>14</ele>
        <time>2023-01-27T14:41:24Z</time>
      </trkpt>
      <trkpt lat="47.78676" lon="-3.69318">
        <ele>14.1</ele>
        <time>2023-01-27T14:41:26Z</time>
      </trkpt>
      <trkpt lat="47.78675" lon="-3.69309">
        <ele>14.4</ele>
        <time>2023-01-27T14:41:27Z</time>
      </trkpt>
      <trkpt lat="47.78675" lon="-3.69304">
        <ele>14.4</ele>
        <time>2023-01-27T14:41:28Z</time>
      </trkpt>
      <trkpt lat="47.78675" lon="-3.69295">
        <ele>14.5</ele>
        <time>2023-01-27T14:41:30Z</time>
      </trkpt>
      <trkpt lat="47.78674" lon="-3.69289">
        <ele>14.6</ele>
        <time>2023-01-27T14:41:32Z</time>
      </trkpt>
      <trkpt lat="47.78674" lon="-3.69285">
        <ele>14.6</ele>
        <time>2023-01-27T14:41:33Z</time>
      </trkpt>
      <trkpt lat="47.78674" lon="-3.6928">
        <ele>14.6</ele>
        <time>2023-01-27T14:41:34Z</time>
      </trkpt>
      <trkpt lat="47.78673" lon="-3.69275">
        <ele>14.6</ele>
        <time>2023-01-27T14:41:35Z</time>
      </trkpt>
      <trkpt lat="47.78673" lon="-3.6927">
        <ele>14.6</ele>
        <time>2023-01-27T14:41:36Z</time>
      </trkpt>
      <trkpt lat="47.78673" lon="-3.69266">
        <ele>14.6</ele>
        <time>2023-01-27T14:41:37Z</time>
      </trkpt>
      <trkpt lat="47.78672" lon="-3.69261">
        <ele>14.6</ele>
        <time>2023-01-27T14:41:38Z</time>
      </trkpt>
      <trkpt lat="47.78672" lon="-3.69256">
        <ele>14.6</ele>
        <time>2023-01-27T14:41:39Z</time>
      </trkpt>
      <trkpt lat="47.78672" lon="-3.69251">
        <ele>14.6</ele>
        <time>2023-01-27T14:41:40Z</time>
      </trkpt>
      <trkpt lat="47.78672" lon="-3.69247">
        <ele>14.6</ele>
        <time>2023-01-27T14:41:41Z</time>
      </trkpt>
      <trkpt lat="47.78671" lon="-3.69242">
        <ele>14.6</ele>
        <time>2023-01-27T14:41:42Z</time>
      </trkpt>
      <trkpt lat="47.78671" lon="-3.69238">
        <ele>14.6</ele>
        <time>2023-01-27T14:41:43Z</time>
      </trkpt>
      <trkpt lat="47.78671" lon="-3.69234">
        <ele>14.6</ele>
        <time>2023-01-27T14:41:44Z</time>
      </trkpt>
      <trkpt lat="47.78669" lon="-3.69228">
        <ele>14.6</ele>
        <time>2023-01-27T14:41:45Z</time>
      </trkpt>
      <trkpt lat="47.78668" lon="-3.69227">
        <ele>14.5</ele>
        <time>2023-01-27T14:41:46Z</time>
      </trkpt>
      <trkpt lat="47.78665" lon="-3.69225">
        <ele>14.5</ele>
        <time>2023-01-27T14:41:47Z</time>
      </trkpt>
      <trkpt lat="47.78661" lon="-3.69228">
        <ele>14.4</ele>
        <time>2023-01-27T14:41:48Z</time>
      </trkpt>
      <trkpt lat="47.78657" lon="-3.69231">
        <ele>14.3</ele>
        <time>2023-01-27T14:41:49Z</time>
      </trkpt>
      <trkpt lat="47.7865" lon="-3.69235">
        <ele>13.9</ele>
        <time>2023-01-27T14:41:50Z</time>
      </trkpt>
      <trkpt lat="47.78646" lon="-3.69237">
        <ele>13.7</ele>
        <time>2023-01-27T14:41:51Z</time>
      </trkpt>
      <trkpt lat="47.78641" lon="-3.69238">
        <ele>13.5</ele>
        <time>2023-01-27T14:41:52Z</time>
      </trkpt>
      <trkpt lat="47.78635" lon="-3.69241">
        <ele>13.2</ele>
        <time>2023-01-27T14:41:54Z</time>
      </trkpt>
      <trkpt lat="47.7863" lon="-3.69243">
        <ele>13</ele>
        <time>2023-01-27T14:41:55Z</time>
      </trkpt>
      <trkpt lat="47.78625" lon="-3.69247">
        <ele>12.8</ele>
        <time>2023-01-27T14:41:56Z</time>
      </trkpt>
      <trkpt lat="47.7862" lon="-3.69251">
        <ele>12.6</ele>
        <time>2023-01-27T14:41:57Z</time>
      </trkpt>
      <trkpt lat="47.78616" lon="-3.69255">
        <ele>12.4</ele>
        <time>2023-01-27T14:41:58Z</time>
      </trkpt>
      <trkpt lat="47.78611" lon="-3.69258">
        <ele>12.2</ele>
        <time>2023-01-27T14:41:59Z</time>
      </trkpt>
      <trkpt lat="47.78608" lon="-3.69261">
        <ele>12.1</ele>
        <time>2023-01-27T14:42:00Z</time>
      </trkpt>
      <trkpt lat="47.78603" lon="-3.69263">
        <ele>11.9</ele>
        <time>2023-01-27T14:42:01Z</time>
      </trkpt>
      <trkpt lat="47.78598" lon="-3.69268">
        <ele>11.8</ele>
        <time>2023-01-27T14:42:03Z</time>
      </trkpt>
      <trkpt lat="47.78596" lon="-3.6927">
        <ele>11.7</ele>
        <time>2023-01-27T14:42:04Z</time>
      </trkpt>
      <trkpt lat="47.78591" lon="-3.69274">
        <ele>11.3</ele>
        <time>2023-01-27T14:42:06Z</time>
      </trkpt>
      <trkpt lat="47.78588" lon="-3.69277">
        <ele>11.1</ele>
        <time>2023-01-27T14:42:07Z</time>
      </trkpt>
      <trkpt lat="47.78585" lon="-3.69279">
        <ele>10.9</ele>
        <time>2023-01-27T14:42:08Z</time>
      </trkpt>
      <trkpt lat="47.78579" lon="-3.69281">
        <ele>10.4</ele>
        <time>2023-01-27T14:42:10Z</time>
      </trkpt>
      <trkpt lat="47.78573" lon="-3.69284">
        <ele>10</ele>
        <time>2023-01-27T14:42:11Z</time>
      </trkpt>
      <trkpt lat="47.78569" lon="-3.69288">
        <ele>9.5</ele>
        <time>2023-01-27T14:42:12Z</time>
      </trkpt>
      <trkpt lat="47.78564" lon="-3.69291">
        <ele>9.1</ele>
        <time>2023-01-27T14:42:13Z</time>
      </trkpt>
      <trkpt lat="47.7856" lon="-3.69294">
        <ele>8.6</ele>
        <time>2023-01-27T14:42:14Z</time>
      </trkpt>
      <trkpt lat="47.78556" lon="-3.69297">
        <ele>8.1</ele>
        <time>2023-01-27T14:42:15Z</time>
      </trkpt>
      <trkpt lat="47.78555" lon="-3.69298">
        <ele>7.9</ele>
        <time>2023-01-27T14:42:16Z</time>
      </trkpt>
      <trkpt lat="47.78551" lon="-3.69302">
        <ele>7.1</ele>
        <time>2023-01-27T14:42:17Z</time>
      </trkpt>
      <trkpt lat="47.78548" lon="-3.69303">
        <ele>6.7</ele>
        <time>2023-01-27T14:42:18Z</time>
      </trkpt>
      <trkpt lat="47.78545" lon="-3.69303">
        <ele>6.3</ele>
        <time>2023-01-27T14:42:19Z</time>
      </trkpt>
      <trkpt lat="47.78542" lon="-3.69306">
        <ele>5.7</ele>
        <time>2023-01-27T14:42:21Z</time>
      </trkpt>
      <trkpt lat="47.78539" lon="-3.69309">
        <ele>5.2</ele>
        <time>2023-01-27T14:42:22Z</time>
      </trkpt>
      <trkpt lat="47.78537" lon="-3.69312">
        <ele>4.9</ele>
        <time>2023-01-27T14:42:23Z</time>
      </trkpt>
      <trkpt lat="47.78534" lon="-3.69313">
        <ele>4.8</ele>
        <time>2023-01-27T14:42:24Z</time>
      </trkpt>
      <trkpt lat="47.78531" lon="-3.69316">
        <ele>4.6</ele>
        <time>2023-01-27T14:42:25Z</time>
      </trkpt>
      <trkpt lat="47.78528" lon="-3.69321">
        <ele>4.4</ele>
        <time>2023-01-27T14:42:26Z</time>
      </trkpt>
      <trkpt lat="47.78526" lon="-3.69323">
        <ele>4.1</ele>
        <time>2023-01-27T14:42:27Z</time>
      </trkpt>
      <trkpt lat="47.78524" lon="-3.69323">
        <ele>4.1</ele>
        <time>2023-01-27T14:42:28Z</time>
      </trkpt>
      <trkpt lat="47.78522" lon="-3.69321">
        <ele>4.2</ele>
        <time>2023-01-27T14:42:29Z</time>
      </trkpt>
      <trkpt lat="47.7852" lon="-3.69317">
        <ele>4.4</ele>
        <time>2023-01-27T14:42:30Z</time>
      </trkpt>
      <trkpt lat="47.78517" lon="-3.69315">
        <ele>4.6</ele>
        <time>2023-01-27T14:42:31Z</time>
      </trkpt>
      <trkpt lat="47.78514" lon="-3.69313">
        <ele>4.9</ele>
        <time>2023-01-27T14:42:32Z</time>
      </trkpt>
      <trkpt lat="47.78514" lon="-3.69312">
        <ele>4.9</ele>
        <time>2023-01-27T14:42:33Z</time>
      </trkpt>
      <trkpt lat="47.78513" lon="-3.69309">
        <ele>5.2</ele>
        <time>2023-01-27T14:42:34Z</time>
      </trkpt>
      <trkpt lat="47.78512" lon="-3.69307">
        <ele>5.3</ele>
        <time>2023-01-27T14:42:35Z</time>
      </trkpt>
      <trkpt lat="47.78511" lon="-3.69307">
        <ele>5.4</ele>
        <time>2023-01-27T14:42:36Z</time>
      </trkpt>
      <trkpt lat="47.78511" lon="-3.69307">
        <ele>5.4</ele>
        <time>2023-01-27T14:42:37Z</time>
      </trkpt>
      <trkpt lat="47.78511" lon="-3.69306">
        <ele>5.4</ele>
        <time>2023-01-27T14:42:38Z</time>
      </trkpt>
      <trkpt lat="47.78511" lon="-3.69306">
        <ele>5.5</ele>
        <time>2023-01-27T14:42:39Z</time>
      </trkpt>
      <trkpt lat="47.7851" lon="-3.69306">
        <ele>5.5</ele>
        <time>2023-01-27T14:42:40Z</time>
      </trkpt>
      <trkpt lat="47.78508" lon="-3.69304">
        <ele>5.9</ele>
        <time>2023-01-27T14:42:41Z</time>
      </trkpt>
      <trkpt lat="47.78506" lon="-3.69306">
        <ele>6.1</ele>
        <time>2023-01-27T14:42:42Z</time>
      </trkpt>
      <trkpt lat="47.78504" lon="-3.69306">
        <ele>6.4</ele>
        <time>2023-01-27T14:42:44Z</time>
      </trkpt>
      <trkpt lat="47.78503" lon="-3.69306">
        <ele>6.6</ele>
        <time>2023-01-27T14:42:45Z</time>
      </trkpt>
      <trkpt lat="47.78502" lon="-3.69306">
        <ele>6.7</ele>
        <time>2023-01-27T14:42:46Z</time>
      </trkpt>
      <trkpt lat="47.78501" lon="-3.69306">
        <ele>6.8</ele>
        <time>2023-01-27T14:42:47Z</time>
      </trkpt>
      <trkpt lat="47.785" lon="-3.69306">
        <ele>6.9</ele>
        <time>2023-01-27T14:42:48Z</time>
      </trkpt>
      <trkpt lat="47.78499" lon="-3.69306">
        <ele>7.1</ele>
        <time>2023-01-27T14:42:49Z</time>
      </trkpt>
      <trkpt lat="47.78498" lon="-3.69306">
        <ele>7.3</ele>
        <time>2023-01-27T14:42:50Z</time>
      </trkpt>
      <trkpt lat="47.78497" lon="-3.69306">
        <ele>7.4</ele>
        <time>2023-01-27T14:42:51Z</time>
      </trkpt>
      <trkpt lat="47.78497" lon="-3.69306">
        <ele>7.4</ele>
        <time>2023-01-27T14:42:52Z</time>
      </trkpt>
      <trkpt lat="47.78496" lon="-3.69306">
        <ele>7.6</ele>
        <time>2023-01-27T14:42:53Z</time>
      </trkpt>
      <trkpt lat="47.78495" lon="-3.69306">
        <ele>7.7</ele>
        <time>2023-01-27T14:42:54Z</time>
      </trkpt>
      <trkpt lat="47.78494" lon="-3.69306">
        <ele>7.8</ele>
        <time>2023-01-27T14:42:55Z</time>
      </trkpt>
      <trkpt lat="47.78494" lon="-3.69306">
        <ele>7.9</ele>
        <time>2023-01-27T14:42:56Z</time>
      </trkpt>
      <trkpt lat="47.78493" lon="-3.69305">
        <ele>8</ele>
        <time>2023-01-27T14:42:57Z</time>
      </trkpt>
      <trkpt lat="47.78491" lon="-3.69305">
        <ele>8.1</ele>
        <time>2023-01-27T14:42:58Z</time>
      </trkpt>
      <trkpt lat="47.78491" lon="-3.69306">
        <ele>8.2</ele>
        <time>2023-01-27T14:42:59Z</time>
      </trkpt>
      <trkpt lat="47.7849" lon="-3.69306">
        <ele>8.3</ele>
        <time>2023-01-27T14:43:00Z</time>
      </trkpt>
      <trkpt lat="47.7849" lon="-3.69306">
        <ele>8.3</ele>
        <time>2023-01-27T14:43:01Z</time>
      </trkpt>
      <trkpt lat="47.78489" lon="-3.69306">
        <ele>8.4</ele>
        <time>2023-01-27T14:43:02Z</time>
      </trkpt>
      <trkpt lat="47.78486" lon="-3.69304">
        <ele>8.8</ele>
        <time>2023-01-27T14:43:03Z</time>
      </trkpt>
      <trkpt lat="47.78483" lon="-3.693">
        <ele>9</ele>
        <time>2023-01-27T14:43:05Z</time>
      </trkpt>
      <trkpt lat="47.78481" lon="-3.69299">
        <ele>9.1</ele>
        <time>2023-01-27T14:43:06Z</time>
      </trkpt>
      <trkpt lat="47.7848" lon="-3.69298">
        <ele>9.1</ele>
        <time>2023-01-27T14:43:07Z</time>
      </trkpt>
      <trkpt lat="47.78478" lon="-3.69295">
        <ele>9.2</ele>
        <time>2023-01-27T14:43:08Z</time>
      </trkpt>
      <trkpt lat="47.78475" lon="-3.69292">
        <ele>9.3</ele>
        <time>2023-01-27T14:43:09Z</time>
      </trkpt>
      <trkpt lat="47.78473" lon="-3.69289">
        <ele>9.5</ele>
        <time>2023-01-27T14:43:10Z</time>
      </trkpt>
      <trkpt lat="47.78472" lon="-3.69288">
        <ele>9.5</ele>
        <time>2023-01-27T14:43:11Z</time>
      </trkpt>
      <trkpt lat="47.78469" lon="-3.69284">
        <ele>9.6</ele>
        <time>2023-01-27T14:43:12Z</time>
      </trkpt>
      <trkpt lat="47.78468" lon="-3.69282">
        <ele>9.7</ele>
        <time>2023-01-27T14:43:13Z</time>
      </trkpt>
      <trkpt lat="47.78466" lon="-3.69279">
        <ele>9.7</ele>
        <time>2023-01-27T14:43:14Z</time>
      </trkpt>
      <trkpt lat="47.78463" lon="-3.69276">
        <ele>9.8</ele>
        <time>2023-01-27T14:43:15Z</time>
      </trkpt>
      <trkpt lat="47.78462" lon="-3.69274">
        <ele>9.8</ele>
        <time>2023-01-27T14:43:16Z</time>
      </trkpt>
      <trkpt lat="47.78459" lon="-3.69272">
        <ele>9.9</ele>
        <time>2023-01-27T14:43:17Z</time>
      </trkpt>
      <trkpt lat="47.78457" lon="-3.69269">
        <ele>9.9</ele>
        <time>2023-01-27T14:43:18Z</time>
      </trkpt>
      <trkpt lat="47.78455" lon="-3.69266">
        <ele>10</ele>
        <time>2023-01-27T14:43:19Z</time>
      </trkpt>
      <trkpt lat="47.78453" lon="-3.69263">
        <ele>10</ele>
        <time>2023-01-27T14:43:20Z</time>
      </trkpt>
      <trkpt lat="47.78451" lon="-3.6926">
        <ele>10.1</ele>
        <time>2023-01-27T14:43:21Z</time>
      </trkpt>
      <trkpt lat="47.78448" lon="-3.69257">
        <ele>10.1</ele>
        <time>2023-01-27T14:43:22Z</time>
      </trkpt>
      <trkpt lat="47.78446" lon="-3.69254">
        <ele>10.1</ele>
        <time>2023-01-27T14:43:23Z</time>
      </trkpt>
      <trkpt lat="47.78442" lon="-3.6925">
        <ele>10.2</ele>
        <time>2023-01-27T14:43:25Z</time>
      </trkpt>
      <trkpt lat="47.7844" lon="-3.69246">
        <ele>10.2</ele>
        <time>2023-01-27T14:43:26Z</time>
      </trkpt>
      <trkpt lat="47.78438" lon="-3.69243">
        <ele>10.3</ele>
        <time>2023-01-27T14:43:27Z</time>
      </trkpt>
      <trkpt lat="47.78434" lon="-3.69237">
        <ele>10.3</ele>
        <time>2023-01-27T14:43:28Z</time>
      </trkpt>
      <trkpt lat="47.78431" lon="-3.69234">
        <ele>10.3</ele>
        <time>2023-01-27T14:43:29Z</time>
      </trkpt>
      <trkpt lat="47.78428" lon="-3.69229">
        <ele>10.4</ele>
        <time>2023-01-27T14:43:31Z</time>
      </trkpt>
      <trkpt lat="47.78426" lon="-3.69227">
        <ele>10.4</ele>
        <time>2023-01-27T14:43:32Z</time>
      </trkpt>
      <trkpt lat="47.78424" lon="-3.69223">
        <ele>10.4</ele>
        <time>2023-01-27T14:43:33Z</time>
      </trkpt>
      <trkpt lat="47.78422" lon="-3.6922">
        <ele>10.4</ele>
        <time>2023-01-27T14:43:34Z</time>
      </trkpt>
      <trkpt lat="47.78419" lon="-3.69217">
        <ele>10.4</ele>
        <time>2023-01-27T14:43:35Z</time>
      </trkpt>
      <trkpt lat="47.78417" lon="-3.69213">
        <ele>10.4</ele>
        <time>2023-01-27T14:43:36Z</time>
      </trkpt>
      <trkpt lat="47.78415" lon="-3.69209">
        <ele>10.4</ele>
        <time>2023-01-27T14:43:37Z</time>
      </trkpt>
      <trkpt lat="47.78413" lon="-3.69205">
        <ele>10.5</ele>
        <time>2023-01-27T14:43:38Z</time>
      </trkpt>
      <trkpt lat="47.7841" lon="-3.69202">
        <ele>10.5</ele>
        <time>2023-01-27T14:43:39Z</time>
      </trkpt>
      <trkpt lat="47.78409" lon="-3.69198">
        <ele>10.5</ele>
        <time>2023-01-27T14:43:40Z</time>
      </trkpt>
      <trkpt lat="47.78407" lon="-3.69194">
        <ele>10.5</ele>
        <time>2023-01-27T14:43:41Z</time>
      </trkpt>
      <trkpt lat="47.78405" lon="-3.6919">
        <ele>10.5</ele>
        <time>2023-01-27T14:43:42Z</time>
      </trkpt>
      <trkpt lat="47.78402" lon="-3.69186">
        <ele>10.5</ele>
        <time>2023-01-27T14:43:43Z</time>
      </trkpt>
      <trkpt lat="47.78402" lon="-3.69184">
        <ele>10.5</ele>
        <time>2023-01-27T14:43:44Z</time>
      </trkpt>
      <trkpt lat="47.784" lon="-3.6918">
        <ele>10.5</ele>
        <time>2023-01-27T14:43:45Z</time>
      </trkpt>
      <trkpt lat="47.78398" lon="-3.69176">
        <ele>10.5</ele>
        <time>2023-01-27T14:43:46Z</time>
      </trkpt>
      <trkpt lat="47.78397" lon="-3.69173">
        <ele>10.7</ele>
        <time>2023-01-27T14:43:47Z</time>
      </trkpt>
      <trkpt lat="47.78394" lon="-3.69168">
        <ele>10.8</ele>
        <time>2023-01-27T14:43:48Z</time>
      </trkpt>
      <trkpt lat="47.78393" lon="-3.69166">
        <ele>10.9</ele>
        <time>2023-01-27T14:43:49Z</time>
      </trkpt>
      <trkpt lat="47.78392" lon="-3.69162">
        <ele>11</ele>
        <time>2023-01-27T14:43:50Z</time>
      </trkpt>
      <trkpt lat="47.78391" lon="-3.69158">
        <ele>11.2</ele>
        <time>2023-01-27T14:43:51Z</time>
      </trkpt>
      <trkpt lat="47.78388" lon="-3.69154">
        <ele>11.3</ele>
        <time>2023-01-27T14:43:52Z</time>
      </trkpt>
      <trkpt lat="47.78386" lon="-3.6915">
        <ele>11.5</ele>
        <time>2023-01-27T14:43:53Z</time>
      </trkpt>
      <trkpt lat="47.78384" lon="-3.69147">
        <ele>11.6</ele>
        <time>2023-01-27T14:43:54Z</time>
      </trkpt>
      <trkpt lat="47.78382" lon="-3.69143">
        <ele>11.7</ele>
        <time>2023-01-27T14:43:55Z</time>
      </trkpt>
      <trkpt lat="47.7838" lon="-3.69139">
        <ele>11.9</ele>
        <time>2023-01-27T14:43:56Z</time>
      </trkpt>
      <trkpt lat="47.78378" lon="-3.69135">
        <ele>12</ele>
        <time>2023-01-27T14:43:57Z</time>
      </trkpt>
      <trkpt lat="47.78376" lon="-3.69131">
        <ele>12.1</ele>
        <time>2023-01-27T14:43:58Z</time>
      </trkpt>
      <trkpt lat="47.78375" lon="-3.69127">
        <ele>12.3</ele>
        <time>2023-01-27T14:43:59Z</time>
      </trkpt>
      <trkpt lat="47.78374" lon="-3.69123">
        <ele>12.4</ele>
        <time>2023-01-27T14:44:00Z</time>
      </trkpt>
      <trkpt lat="47.78372" lon="-3.69116">
        <ele>12.6</ele>
        <time>2023-01-27T14:44:01Z</time>
      </trkpt>
      <trkpt lat="47.78371" lon="-3.69111">
        <ele>12.7</ele>
        <time>2023-01-27T14:44:02Z</time>
      </trkpt>
      <trkpt lat="47.78369" lon="-3.69107">
        <ele>12.9</ele>
        <time>2023-01-27T14:44:03Z</time>
      </trkpt>
      <trkpt lat="47.78368" lon="-3.69105">
        <ele>13</ele>
        <time>2023-01-27T14:44:04Z</time>
      </trkpt>
      <trkpt lat="47.78367" lon="-3.69102">
        <ele>13.1</ele>
        <time>2023-01-27T14:44:05Z</time>
      </trkpt>
      <trkpt lat="47.78366" lon="-3.69098">
        <ele>13.2</ele>
        <time>2023-01-27T14:44:07Z</time>
      </trkpt>
      <trkpt lat="47.78365" lon="-3.69092">
        <ele>13.5</ele>
        <time>2023-01-27T14:44:08Z</time>
      </trkpt>
      <trkpt lat="47.78365" lon="-3.6909">
        <ele>13.5</ele>
        <time>2023-01-27T14:44:09Z</time>
      </trkpt>
      <trkpt lat="47.78366" lon="-3.69086">
        <ele>13.7</ele>
        <time>2023-01-27T14:44:10Z</time>
      </trkpt>
      <trkpt lat="47.78367" lon="-3.69082">
        <ele>14.2</ele>
        <time>2023-01-27T14:44:11Z</time>
      </trkpt>
      <trkpt lat="47.7837" lon="-3.69081">
        <ele>14.3</ele>
        <time>2023-01-27T14:44:12Z</time>
      </trkpt>
      <trkpt lat="47.78373" lon="-3.69079">
        <ele>14.4</ele>
        <time>2023-01-27T14:44:13Z</time>
      </trkpt>
      <trkpt lat="47.78378" lon="-3.69077">
        <ele>14.5</ele>
        <time>2023-01-27T14:44:14Z</time>
      </trkpt>
      <trkpt lat="47.78384" lon="-3.69073">
        <ele>14.6</ele>
        <time>2023-01-27T14:44:16Z</time>
      </trkpt>
      <trkpt lat="47.78386" lon="-3.69071">
        <ele>14.7</ele>
        <time>2023-01-27T14:44:18Z</time>
      </trkpt>
      <trkpt lat="47.78388" lon="-3.69068">
        <ele>14.8</ele>
        <time>2023-01-27T14:44:19Z</time>
      </trkpt>
      <trkpt lat="47.78391" lon="-3.69067">
        <ele>14.8</ele>
        <time>2023-01-27T14:44:20Z</time>
      </trkpt>
      <trkpt lat="47.78394" lon="-3.69066">
        <ele>14.9</ele>
        <time>2023-01-27T14:44:21Z</time>
      </trkpt>
      <trkpt lat="47.78399" lon="-3.69064">
        <ele>15.1</ele>
        <time>2023-01-27T14:44:22Z</time>
      </trkpt>
      <trkpt lat="47.78405" lon="-3.6906">
        <ele>15.3</ele>
        <time>2023-01-27T14:44:24Z</time>
      </trkpt>
      <trkpt lat="47.78409" lon="-3.69058">
        <ele>15.4</ele>
        <time>2023-01-27T14:44:26Z</time>
      </trkpt>
      <trkpt lat="47.78411" lon="-3.69057">
        <ele>15.5</ele>
        <time>2023-01-27T14:44:27Z</time>
      </trkpt>
      <trkpt lat="47.78415" lon="-3.69055">
        <ele>15.6</ele>
        <time>2023-01-27T14:44:28Z</time>
      </trkpt>
      <trkpt lat="47.78416" lon="-3.69055">
        <ele>15.6</ele>
        <time>2023-01-27T14:44:29Z</time>
      </trkpt>
      <trkpt lat="47.78419" lon="-3.69054">
        <ele>15.7</ele>
        <time>2023-01-27T14:44:30Z</time>
      </trkpt>
      <trkpt lat="47.78423" lon="-3.69052">
        <ele>15.8</ele>
        <time>2023-01-27T14:44:31Z</time>
      </trkpt>
      <trkpt lat="47.78424" lon="-3.69051">
        <ele>15.9</ele>
        <time>2023-01-27T14:44:32Z</time>
      </trkpt>
      <trkpt lat="47.78427" lon="-3.6905">
        <ele>16</ele>
        <time>2023-01-27T14:44:33Z</time>
      </trkpt>
      <trkpt lat="47.78431" lon="-3.69048">
        <ele>16.1</ele>
        <time>2023-01-27T14:44:34Z</time>
      </trkpt>
      <trkpt lat="47.78432" lon="-3.69047">
        <ele>16.2</ele>
        <time>2023-01-27T14:44:35Z</time>
      </trkpt>
      <trkpt lat="47.78435" lon="-3.69045">
        <ele>16.2</ele>
        <time>2023-01-27T14:44:36Z</time>
      </trkpt>
      <trkpt lat="47.78438" lon="-3.69043">
        <ele>16.4</ele>
        <time>2023-01-27T14:44:37Z</time>
      </trkpt>
      <trkpt lat="47.78439" lon="-3.69042">
        <ele>16.4</ele>
        <time>2023-01-27T14:44:38Z</time>
      </trkpt>
      <trkpt lat="47.78443" lon="-3.69041">
        <ele>16.5</ele>
        <time>2023-01-27T14:44:39Z</time>
      </trkpt>
      <trkpt lat="47.78444" lon="-3.69041">
        <ele>16.6</ele>
        <time>2023-01-27T14:44:40Z</time>
      </trkpt>
      <trkpt lat="47.78448" lon="-3.69039">
        <ele>16.7</ele>
        <time>2023-01-27T14:44:41Z</time>
      </trkpt>
      <trkpt lat="47.78449" lon="-3.69039">
        <ele>16.7</ele>
        <time>2023-01-27T14:44:42Z</time>
      </trkpt>
      <trkpt lat="47.78453" lon="-3.69037">
        <ele>16.8</ele>
        <time>2023-01-27T14:44:43Z</time>
      </trkpt>
      <trkpt lat="47.78454" lon="-3.69036">
        <ele>16.9</ele>
        <time>2023-01-27T14:44:44Z</time>
      </trkpt>
      <trkpt lat="47.78457" lon="-3.69035">
        <ele>16.9</ele>
        <time>2023-01-27T14:44:45Z</time>
      </trkpt>
      <trkpt lat="47.7846" lon="-3.69033">
        <ele>17</ele>
        <time>2023-01-27T14:44:46Z</time>
      </trkpt>
      <trkpt lat="47.78463" lon="-3.69031">
        <ele>17.1</ele>
        <time>2023-01-27T14:44:47Z</time>
      </trkpt>
      <trkpt lat="47.78465" lon="-3.6903">
        <ele>17.1</ele>
        <time>2023-01-27T14:44:48Z</time>
      </trkpt>
      <trkpt lat="47.78468" lon="-3.69028">
        <ele>17.2</ele>
        <time>2023-01-27T14:44:49Z</time>
      </trkpt>
      <trkpt lat="47.7847" lon="-3.69027">
        <ele>17.2</ele>
        <time>2023-01-27T14:44:50Z</time>
      </trkpt>
      <trkpt lat="47.78473" lon="-3.69026">
        <ele>17.3</ele>
        <time>2023-01-27T14:44:51Z</time>
      </trkpt>
      <trkpt lat="47.78476" lon="-3.69025">
        <ele>17.3</ele>
        <time>2023-01-27T14:44:52Z</time>
      </trkpt>
      <trkpt lat="47.78479" lon="-3.69024">
        <ele>17.4</ele>
        <time>2023-01-27T14:44:53Z</time>
      </trkpt>
      <trkpt lat="47.78483" lon="-3.69022">
        <ele>17.5</ele>
        <time>2023-01-27T14:44:54Z</time>
      </trkpt>
      <trkpt lat="47.78484" lon="-3.69021">
        <ele>17.5</ele>
        <time>2023-01-27T14:44:55Z</time>
      </trkpt>
      <trkpt lat="47.78487" lon="-3.69019">
        <ele>17.5</ele>
        <time>2023-01-27T14:44:56Z</time>
      </trkpt>
      <trkpt lat="47.78489" lon="-3.69019">
        <ele>17.6</ele>
        <time>2023-01-27T14:44:57Z</time>
      </trkpt>
      <trkpt lat="47.78493" lon="-3.69017">
        <ele>17.6</ele>
        <time>2023-01-27T14:44:58Z</time>
      </trkpt>
      <trkpt lat="47.78494" lon="-3.69017">
        <ele>17.7</ele>
        <time>2023-01-27T14:44:59Z</time>
      </trkpt>
      <trkpt lat="47.78498" lon="-3.69015">
        <ele>17.7</ele>
        <time>2023-01-27T14:45:00Z</time>
      </trkpt>
      <trkpt lat="47.78499" lon="-3.69015">
        <ele>17.8</ele>
        <time>2023-01-27T14:45:01Z</time>
      </trkpt>
      <trkpt lat="47.78503" lon="-3.69014">
        <ele>17.8</ele>
        <time>2023-01-27T14:45:02Z</time>
      </trkpt>
      <trkpt lat="47.78504" lon="-3.69014">
        <ele>17.9</ele>
        <time>2023-01-27T14:45:03Z</time>
      </trkpt>
      <trkpt lat="47.78507" lon="-3.69012">
        <ele>17.9</ele>
        <time>2023-01-27T14:45:04Z</time>
      </trkpt>
      <trkpt lat="47.78511" lon="-3.6901">
        <ele>18</ele>
        <time>2023-01-27T14:45:05Z</time>
      </trkpt>
      <trkpt lat="47.78515" lon="-3.69009">
        <ele>18.1</ele>
        <time>2023-01-27T14:45:07Z</time>
      </trkpt>
      <trkpt lat="47.78519" lon="-3.69006">
        <ele>18.2</ele>
        <time>2023-01-27T14:45:08Z</time>
      </trkpt>
      <trkpt lat="47.78525" lon="-3.69002">
        <ele>18.4</ele>
        <time>2023-01-27T14:45:10Z</time>
      </trkpt>
      <trkpt lat="47.78528" lon="-3.69001">
        <ele>18.4</ele>
        <time>2023-01-27T14:45:11Z</time>
      </trkpt>
      <trkpt lat="47.78533" lon="-3.68998">
        <ele>18.5</ele>
        <time>2023-01-27T14:45:13Z</time>
      </trkpt>
      <trkpt lat="47.78534" lon="-3.68997">
        <ele>18.6</ele>
        <time>2023-01-27T14:45:14Z</time>
      </trkpt>
      <trkpt lat="47.78536" lon="-3.68996">
        <ele>18.6</ele>
        <time>2023-01-27T14:45:15Z</time>
      </trkpt>
      <trkpt lat="47.78539" lon="-3.68995">
        <ele>18.7</ele>
        <time>2023-01-27T14:45:16Z</time>
      </trkpt>
      <trkpt lat="47.78542" lon="-3.68993">
        <ele>18.7</ele>
        <time>2023-01-27T14:45:17Z</time>
      </trkpt>
      <trkpt lat="47.78545" lon="-3.6899">
        <ele>18.8</ele>
        <time>2023-01-27T14:45:18Z</time>
      </trkpt>
      <trkpt lat="47.78546" lon="-3.68989">
        <ele>18.8</ele>
        <time>2023-01-27T14:45:19Z</time>
      </trkpt>
      <trkpt lat="47.78549" lon="-3.68986">
        <ele>18.8</ele>
        <time>2023-01-27T14:45:20Z</time>
      </trkpt>
      <trkpt lat="47.78551" lon="-3.68983">
        <ele>18.8</ele>
        <time>2023-01-27T14:45:21Z</time>
      </trkpt>
      <trkpt lat="47.78554" lon="-3.6898">
        <ele>18.8</ele>
        <time>2023-01-27T14:45:22Z</time>
      </trkpt>
      <trkpt lat="47.78556" lon="-3.68978">
        <ele>18.8</ele>
        <time>2023-01-27T14:45:23Z</time>
      </trkpt>
      <trkpt lat="47.78559" lon="-3.68975">
        <ele>18.8</ele>
        <time>2023-01-27T14:45:24Z</time>
      </trkpt>
      <trkpt lat="47.78562" lon="-3.68973">
        <ele>18.8</ele>
        <time>2023-01-27T14:45:25Z</time>
      </trkpt>
      <trkpt lat="47.78565" lon="-3.6897">
        <ele>18.8</ele>
        <time>2023-01-27T14:45:26Z</time>
      </trkpt>
      <trkpt lat="47.78568" lon="-3.68968">
        <ele>18.7</ele>
        <time>2023-01-27T14:45:27Z</time>
      </trkpt>
      <trkpt lat="47.78572" lon="-3.68966">
        <ele>18.7</ele>
        <time>2023-01-27T14:45:28Z</time>
      </trkpt>
      <trkpt lat="47.78576" lon="-3.68965">
        <ele>18.7</ele>
        <time>2023-01-27T14:45:29Z</time>
      </trkpt>
      <trkpt lat="47.7858" lon="-3.68963">
        <ele>18.7</ele>
        <time>2023-01-27T14:45:30Z</time>
      </trkpt>
      <trkpt lat="47.78584" lon="-3.68961">
        <ele>18.7</ele>
        <time>2023-01-27T14:45:31Z</time>
      </trkpt>
      <trkpt lat="47.78588" lon="-3.6896">
        <ele>18.7</ele>
        <time>2023-01-27T14:45:32Z</time>
      </trkpt>
      <trkpt lat="47.78592" lon="-3.68958">
        <ele>18.7</ele>
        <time>2023-01-27T14:45:33Z</time>
      </trkpt>
      <trkpt lat="47.78596" lon="-3.68954">
        <ele>18.7</ele>
        <time>2023-01-27T14:45:34Z</time>
      </trkpt>
      <trkpt lat="47.78599" lon="-3.68949">
        <ele>18.8</ele>
        <time>2023-01-27T14:45:35Z</time>
      </trkpt>
      <trkpt lat="47.78601" lon="-3.68944">
        <ele>18.9</ele>
        <time>2023-01-27T14:45:36Z</time>
      </trkpt>
      <trkpt lat="47.78603" lon="-3.68939">
        <ele>18.9</ele>
        <time>2023-01-27T14:45:37Z</time>
      </trkpt>
      <trkpt lat="47.78605" lon="-3.68936">
        <ele>19</ele>
        <time>2023-01-27T14:45:38Z</time>
      </trkpt>
      <trkpt lat="47.78614" lon="-3.68924">
        <ele>19.3</ele>
        <time>2023-01-27T14:45:40Z</time>
      </trkpt>
      <trkpt lat="47.78619" lon="-3.68922">
        <ele>19.4</ele>
        <time>2023-01-27T14:45:41Z</time>
      </trkpt>
      <trkpt lat="47.78623" lon="-3.68921">
        <ele>19.5</ele>
        <time>2023-01-27T14:45:42Z</time>
      </trkpt>
      <trkpt lat="47.78627" lon="-3.68923">
        <ele>19.5</ele>
        <time>2023-01-27T14:45:43Z</time>
      </trkpt>
      <trkpt lat="47.78634" lon="-3.68925">
        <ele>19.6</ele>
        <time>2023-01-27T14:45:45Z</time>
      </trkpt>
      <trkpt lat="47.78642" lon="-3.68924">
        <ele>19.7</ele>
        <time>2023-01-27T14:45:47Z</time>
      </trkpt>
      <trkpt lat="47.78646" lon="-3.6892">
        <ele>19.7</ele>
        <time>2023-01-27T14:45:48Z</time>
      </trkpt>
      <trkpt lat="47.78649" lon="-3.68917">
        <ele>19.7</ele>
        <time>2023-01-27T14:45:49Z</time>
      </trkpt>
      <trkpt lat="47.78657" lon="-3.6891">
        <ele>19.8</ele>
        <time>2023-01-27T14:45:51Z</time>
      </trkpt>
      <trkpt lat="47.78661" lon="-3.68907">
        <ele>19.8</ele>
        <time>2023-01-27T14:45:52Z</time>
      </trkpt>
      <trkpt lat="47.78665" lon="-3.68905">
        <ele>19.8</ele>
        <time>2023-01-27T14:45:54Z</time>
      </trkpt>
      <trkpt lat="47.78668" lon="-3.68903">
        <ele>19.8</ele>
        <time>2023-01-27T14:45:55Z</time>
      </trkpt>
      <trkpt lat="47.78672" lon="-3.68899">
        <ele>19.8</ele>
        <time>2023-01-27T14:45:56Z</time>
      </trkpt>
      <trkpt lat="47.78679" lon="-3.68897">
        <ele>19.7</ele>
        <time>2023-01-27T14:45:57Z</time>
      </trkpt>
      <trkpt lat="47.78682" lon="-3.68893">
        <ele>19.6</ele>
        <time>2023-01-27T14:45:59Z</time>
      </trkpt>
      <trkpt lat="47.78688" lon="-3.68887">
        <ele>19.3</ele>
        <time>2023-01-27T14:46:00Z</time>
      </trkpt>
      <trkpt lat="47.78692" lon="-3.68884">
        <ele>19</ele>
        <time>2023-01-27T14:46:02Z</time>
      </trkpt>
      <trkpt lat="47.78699" lon="-3.68886">
        <ele>18.8</ele>
        <time>2023-01-27T14:46:03Z</time>
      </trkpt>
      <trkpt lat="47.78704" lon="-3.68887">
        <ele>18.5</ele>
        <time>2023-01-27T14:46:04Z</time>
      </trkpt>
      <trkpt lat="47.7871" lon="-3.68889">
        <ele>18.2</ele>
        <time>2023-01-27T14:46:05Z</time>
      </trkpt>
      <trkpt lat="47.78716" lon="-3.68892">
        <ele>17.9</ele>
        <time>2023-01-27T14:46:06Z</time>
      </trkpt>
      <trkpt lat="47.78722" lon="-3.68895">
        <ele>17.6</ele>
        <time>2023-01-27T14:46:07Z</time>
      </trkpt>
      <trkpt lat="47.78729" lon="-3.68898">
        <ele>17.2</ele>
        <time>2023-01-27T14:46:08Z</time>
      </trkpt>
      <trkpt lat="47.78735" lon="-3.68901">
        <ele>17</ele>
        <time>2023-01-27T14:46:09Z</time>
      </trkpt>
      <trkpt lat="47.78742" lon="-3.68904">
        <ele>16.7</ele>
        <time>2023-01-27T14:46:10Z</time>
      </trkpt>
      <trkpt lat="47.7875" lon="-3.68907">
        <ele>16.4</ele>
        <time>2023-01-27T14:46:11Z</time>
      </trkpt>
      <trkpt lat="47.78758" lon="-3.6891">
        <ele>16.3</ele>
        <time>2023-01-27T14:46:12Z</time>
      </trkpt>
      <trkpt lat="47.78765" lon="-3.68912">
        <ele>16.2</ele>
        <time>2023-01-27T14:46:13Z</time>
      </trkpt>
      <trkpt lat="47.78772" lon="-3.68914">
        <ele>16.2</ele>
        <time>2023-01-27T14:46:14Z</time>
      </trkpt>
      <trkpt lat="47.78779" lon="-3.68914">
        <ele>16.3</ele>
        <time>2023-01-27T14:46:15Z</time>
      </trkpt>
      <trkpt lat="47.78785" lon="-3.68914">
        <ele>16.5</ele>
        <time>2023-01-27T14:46:16Z</time>
      </trkpt>
      <trkpt lat="47.78792" lon="-3.68913">
        <ele>16.7</ele>
        <time>2023-01-27T14:46:17Z</time>
      </trkpt>
      <trkpt lat="47.78797" lon="-3.68912">
        <ele>16.8</ele>
        <time>2023-01-27T14:46:18Z</time>
      </trkpt>
      <trkpt lat="47.78802" lon="-3.6891">
        <ele>17.1</ele>
        <time>2023-01-27T14:46:19Z</time>
      </trkpt>
      <trkpt lat="47.78807" lon="-3.6891">
        <ele>17.2</ele>
        <time>2023-01-27T14:46:20Z</time>
      </trkpt>
      <trkpt lat="47.78811" lon="-3.68909">
        <ele>17.4</ele>
        <time>2023-01-27T14:46:21Z</time>
      </trkpt>
      <trkpt lat="47.78816" lon="-3.6891">
        <ele>17.6</ele>
        <time>2023-01-27T14:46:22Z</time>
      </trkpt>
      <trkpt lat="47.7882" lon="-3.68912">
        <ele>17.7</ele>
        <time>2023-01-27T14:46:23Z</time>
      </trkpt>
      <trkpt lat="47.78824" lon="-3.68914">
        <ele>17.9</ele>
        <time>2023-01-27T14:46:24Z</time>
      </trkpt>
      <trkpt lat="47.78829" lon="-3.68916">
        <ele>18</ele>
        <time>2023-01-27T14:46:25Z</time>
      </trkpt>
      <trkpt lat="47.78833" lon="-3.68919">
        <ele>18.1</ele>
        <time>2023-01-27T14:46:26Z</time>
      </trkpt>
      <trkpt lat="47.78836" lon="-3.68923">
        <ele>18.1</ele>
        <time>2023-01-27T14:46:27Z</time>
      </trkpt>
      <trkpt lat="47.78842" lon="-3.68929">
        <ele>18.2</ele>
        <time>2023-01-27T14:46:28Z</time>
      </trkpt>
      <trkpt lat="47.78845" lon="-3.68932">
        <ele>18.4</ele>
        <time>2023-01-27T14:46:29Z</time>
      </trkpt>
      <trkpt lat="47.78849" lon="-3.68935">
        <ele>18.5</ele>
        <time>2023-01-27T14:46:30Z</time>
      </trkpt>
      <trkpt lat="47.78853" lon="-3.68937">
        <ele>18.7</ele>
        <time>2023-01-27T14:46:31Z</time>
      </trkpt>
      <trkpt lat="47.78859" lon="-3.68938">
        <ele>18.9</ele>
        <time>2023-01-27T14:46:32Z</time>
      </trkpt>
      <trkpt lat="47.78863" lon="-3.68939">
        <ele>19.1</ele>
        <time>2023-01-27T14:46:33Z</time>
      </trkpt>
      <trkpt lat="47.78868" lon="-3.68941">
        <ele>19.2</ele>
        <time>2023-01-27T14:46:34Z</time>
      </trkpt>
      <trkpt lat="47.78872" lon="-3.68942">
        <ele>19.3</ele>
        <time>2023-01-27T14:46:35Z</time>
      </trkpt>
      <trkpt lat="47.78875" lon="-3.68945">
        <ele>19.4</ele>
        <time>2023-01-27T14:46:36Z</time>
      </trkpt>
      <trkpt lat="47.7888" lon="-3.68949">
        <ele>19.5</ele>
        <time>2023-01-27T14:46:37Z</time>
      </trkpt>
      <trkpt lat="47.78885" lon="-3.68952">
        <ele>19.6</ele>
        <time>2023-01-27T14:46:38Z</time>
      </trkpt>
      <trkpt lat="47.7889" lon="-3.68955">
        <ele>19.6</ele>
        <time>2023-01-27T14:46:39Z</time>
      </trkpt>
      <trkpt lat="47.78894" lon="-3.68957">
        <ele>19.7</ele>
        <time>2023-01-27T14:46:40Z</time>
      </trkpt>
      <trkpt lat="47.78899" lon="-3.68957">
        <ele>19.7</ele>
        <time>2023-01-27T14:46:41Z</time>
      </trkpt>
      <trkpt lat="47.78904" lon="-3.68956">
        <ele>19.8</ele>
        <time>2023-01-27T14:46:42Z</time>
      </trkpt>
      <trkpt lat="47.78909" lon="-3.68953">
        <ele>19.9</ele>
        <time>2023-01-27T14:46:43Z</time>
      </trkpt>
      <trkpt lat="47.78913" lon="-3.68949">
        <ele>20</ele>
        <time>2023-01-27T14:46:44Z</time>
      </trkpt>
      <trkpt lat="47.78918" lon="-3.68946">
        <ele>20.1</ele>
        <time>2023-01-27T14:46:45Z</time>
      </trkpt>
      <trkpt lat="47.78922" lon="-3.68942">
        <ele>20.2</ele>
        <time>2023-01-27T14:46:46Z</time>
      </trkpt>
      <trkpt lat="47.78926" lon="-3.68938">
        <ele>20.3</ele>
        <time>2023-01-27T14:46:47Z</time>
      </trkpt>
      <trkpt lat="47.7893" lon="-3.68934">
        <ele>20.4</ele>
        <time>2023-01-27T14:46:48Z</time>
      </trkpt>
      <trkpt lat="47.78934" lon="-3.68931">
        <ele>20.6</ele>
        <time>2023-01-27T14:46:49Z</time>
      </trkpt>
      <trkpt lat="47.78939" lon="-3.68928">
        <ele>20.7</ele>
        <time>2023-01-27T14:46:50Z</time>
      </trkpt>
      <trkpt lat="47.78943" lon="-3.68925">
        <ele>20.8</ele>
        <time>2023-01-27T14:46:51Z</time>
      </trkpt>
      <trkpt lat="47.78947" lon="-3.68923">
        <ele>20.9</ele>
        <time>2023-01-27T14:46:52Z</time>
      </trkpt>
      <trkpt lat="47.78952" lon="-3.68922">
        <ele>21</ele>
        <time>2023-01-27T14:46:53Z</time>
      </trkpt>
      <trkpt lat="47.78956" lon="-3.6892">
        <ele>21</ele>
        <time>2023-01-27T14:46:54Z</time>
      </trkpt>
      <trkpt lat="47.7896" lon="-3.68919">
        <ele>21.1</ele>
        <time>2023-01-27T14:46:55Z</time>
      </trkpt>
      <trkpt lat="47.78965" lon="-3.68917">
        <ele>21.1</ele>
        <time>2023-01-27T14:46:56Z</time>
      </trkpt>
      <trkpt lat="47.7897" lon="-3.68916">
        <ele>21.2</ele>
        <time>2023-01-27T14:46:57Z</time>
      </trkpt>
      <trkpt lat="47.78974" lon="-3.68915">
        <ele>21.2</ele>
        <time>2023-01-27T14:46:58Z</time>
      </trkpt>
      <trkpt lat="47.78979" lon="-3.68915">
        <ele>21.2</ele>
        <time>2023-01-27T14:46:59Z</time>
      </trkpt>
      <trkpt lat="47.78984" lon="-3.68913">
        <ele>21.3</ele>
        <time>2023-01-27T14:47:00Z</time>
      </trkpt>
      <trkpt lat="47.78988" lon="-3.68912">
        <ele>21.3</ele>
        <time>2023-01-27T14:47:01Z</time>
      </trkpt>
      <trkpt lat="47.78993" lon="-3.6891">
        <ele>21.3</ele>
        <time>2023-01-27T14:47:02Z</time>
      </trkpt>
      <trkpt lat="47.78998" lon="-3.68909">
        <ele>21.4</ele>
        <time>2023-01-27T14:47:03Z</time>
      </trkpt>
      <trkpt lat="47.79004" lon="-3.68907">
        <ele>21.4</ele>
        <time>2023-01-27T14:47:04Z</time>
      </trkpt>
      <trkpt lat="47.79009" lon="-3.68905">
        <ele>21.4</ele>
        <time>2023-01-27T14:47:05Z</time>
      </trkpt>
      <trkpt lat="47.79013" lon="-3.68903">
        <ele>21.5</ele>
        <time>2023-01-27T14:47:06Z</time>
      </trkpt>
      <trkpt lat="47.79018" lon="-3.68905">
        <ele>21.5</ele>
        <time>2023-01-27T14:47:07Z</time>
      </trkpt>
      <trkpt lat="47.79023" lon="-3.68906">
        <ele>21.5</ele>
        <time>2023-01-27T14:47:08Z</time>
      </trkpt>
      <trkpt lat="47.79028" lon="-3.68904">
        <ele>21.5</ele>
        <time>2023-01-27T14:47:09Z</time>
      </trkpt>
      <trkpt lat="47.79032" lon="-3.68904">
        <ele>21.6</ele>
        <time>2023-01-27T14:47:10Z</time>
      </trkpt>
      <trkpt lat="47.79037" lon="-3.68904">
        <ele>21.7</ele>
        <time>2023-01-27T14:47:11Z</time>
      </trkpt>
      <trkpt lat="47.79041" lon="-3.68904">
        <ele>21.8</ele>
        <time>2023-01-27T14:47:12Z</time>
      </trkpt>
      <trkpt lat="47.79045" lon="-3.68904">
        <ele>21.9</ele>
        <time>2023-01-27T14:47:13Z</time>
      </trkpt>
      <trkpt lat="47.79049" lon="-3.68905">
        <ele>21.9</ele>
        <time>2023-01-27T14:47:14Z</time>
      </trkpt>
      <trkpt lat="47.79052" lon="-3.68905">
        <ele>22</ele>
        <time>2023-01-27T14:47:15Z</time>
      </trkpt>
      <trkpt lat="47.79057" lon="-3.68905">
        <ele>22.1</ele>
        <time>2023-01-27T14:47:16Z</time>
      </trkpt>
      <trkpt lat="47.79062" lon="-3.68904">
        <ele>22.1</ele>
        <time>2023-01-27T14:47:17Z</time>
      </trkpt>
      <trkpt lat="47.79065" lon="-3.68904">
        <ele>22.2</ele>
        <time>2023-01-27T14:47:18Z</time>
      </trkpt>
      <trkpt lat="47.79069" lon="-3.68905">
        <ele>22.3</ele>
        <time>2023-01-27T14:47:19Z</time>
      </trkpt>
      <trkpt lat="47.79076" lon="-3.68905">
        <ele>22.4</ele>
        <time>2023-01-27T14:47:20Z</time>
      </trkpt>
      <trkpt lat="47.79079" lon="-3.68906">
        <ele>22.4</ele>
        <time>2023-01-27T14:47:21Z</time>
      </trkpt>
      <trkpt lat="47.79083" lon="-3.68906">
        <ele>22.5</ele>
        <time>2023-01-27T14:47:22Z</time>
      </trkpt>
      <trkpt lat="47.7909" lon="-3.68908">
        <ele>22.6</ele>
        <time>2023-01-27T14:47:23Z</time>
      </trkpt>
      <trkpt lat="47.79094" lon="-3.68909">
        <ele>22.7</ele>
        <time>2023-01-27T14:47:25Z</time>
      </trkpt>
      <trkpt lat="47.79098" lon="-3.68911">
        <ele>22.7</ele>
        <time>2023-01-27T14:47:26Z</time>
      </trkpt>
      <trkpt lat="47.79102" lon="-3.68911">
        <ele>22.8</ele>
        <time>2023-01-27T14:47:27Z</time>
      </trkpt>
      <trkpt lat="47.79107" lon="-3.68911">
        <ele>22.8</ele>
        <time>2023-01-27T14:47:28Z</time>
      </trkpt>
      <trkpt lat="47.79111" lon="-3.68911">
        <ele>22.9</ele>
        <time>2023-01-27T14:47:29Z</time>
      </trkpt>
      <trkpt lat="47.79115" lon="-3.68911">
        <ele>22.9</ele>
        <time>2023-01-27T14:47:30Z</time>
      </trkpt>
      <trkpt lat="47.7912" lon="-3.6891">
        <ele>23</ele>
        <time>2023-01-27T14:47:31Z</time>
      </trkpt>
      <trkpt lat="47.79124" lon="-3.6891">
        <ele>23.1</ele>
        <time>2023-01-27T14:47:32Z</time>
      </trkpt>
      <trkpt lat="47.79128" lon="-3.68909">
        <ele>23.1</ele>
        <time>2023-01-27T14:47:33Z</time>
      </trkpt>
      <trkpt lat="47.79131" lon="-3.68907">
        <ele>23.2</ele>
        <time>2023-01-27T14:47:34Z</time>
      </trkpt>
      <trkpt lat="47.79137" lon="-3.68904">
        <ele>23.4</ele>
        <time>2023-01-27T14:47:35Z</time>
      </trkpt>
      <trkpt lat="47.79142" lon="-3.689">
        <ele>23.6</ele>
        <time>2023-01-27T14:47:36Z</time>
      </trkpt>
      <trkpt lat="47.79148" lon="-3.68895">
        <ele>23.8</ele>
        <time>2023-01-27T14:47:38Z</time>
      </trkpt>
      <trkpt lat="47.79154" lon="-3.68891">
        <ele>24</ele>
        <time>2023-01-27T14:47:40Z</time>
      </trkpt>
      <trkpt lat="47.79157" lon="-3.68887">
        <ele>24</ele>
        <time>2023-01-27T14:47:41Z</time>
      </trkpt>
      <trkpt lat="47.79162" lon="-3.68882">
        <ele>24.2</ele>
        <time>2023-01-27T14:47:43Z</time>
      </trkpt>
      <trkpt lat="47.79165" lon="-3.6888">
        <ele>24.2</ele>
        <time>2023-01-27T14:47:44Z</time>
      </trkpt>
      <trkpt lat="47.7917" lon="-3.68872">
        <ele>24.4</ele>
        <time>2023-01-27T14:47:46Z</time>
      </trkpt>
      <trkpt lat="47.79171" lon="-3.68867">
        <ele>24.5</ele>
        <time>2023-01-27T14:47:48Z</time>
      </trkpt>
      <trkpt lat="47.79172" lon="-3.6886">
        <ele>24.6</ele>
        <time>2023-01-27T14:47:49Z</time>
      </trkpt>
      <trkpt lat="47.79173" lon="-3.68857">
        <ele>24.6</ele>
        <time>2023-01-27T14:47:51Z</time>
      </trkpt>
      <trkpt lat="47.79175" lon="-3.68855">
        <ele>24.8</ele>
        <time>2023-01-27T14:47:52Z</time>
      </trkpt>
      <trkpt lat="47.79176" lon="-3.68854">
        <ele>24.8</ele>
        <time>2023-01-27T14:47:53Z</time>
      </trkpt>
      <trkpt lat="47.79177" lon="-3.68849">
        <ele>25</ele>
        <time>2023-01-27T14:47:54Z</time>
      </trkpt>
      <trkpt lat="47.79177" lon="-3.68846">
        <ele>25.1</ele>
        <time>2023-01-27T14:47:55Z</time>
      </trkpt>
      <trkpt lat="47.79178" lon="-3.68842">
        <ele>25.2</ele>
        <time>2023-01-27T14:47:57Z</time>
      </trkpt>
      <trkpt lat="47.7918" lon="-3.68836">
        <ele>25.5</ele>
        <time>2023-01-27T14:47:58Z</time>
      </trkpt>
      <trkpt lat="47.79181" lon="-3.68833">
        <ele>25.7</ele>
        <time>2023-01-27T14:47:59Z</time>
      </trkpt>
      <trkpt lat="47.79182" lon="-3.68828">
        <ele>25.9</ele>
        <time>2023-01-27T14:48:00Z</time>
      </trkpt>
      <trkpt lat="47.79182" lon="-3.68827">
        <ele>26</ele>
        <time>2023-01-27T14:48:01Z</time>
      </trkpt>
      <trkpt lat="47.79184" lon="-3.68824">
        <ele>26.2</ele>
        <time>2023-01-27T14:48:03Z</time>
      </trkpt>
      <trkpt lat="47.79187" lon="-3.68819">
        <ele>26.5</ele>
        <time>2023-01-27T14:48:04Z</time>
      </trkpt>
      <trkpt lat="47.79188" lon="-3.68816">
        <ele>26.7</ele>
        <time>2023-01-27T14:48:05Z</time>
      </trkpt>
      <trkpt lat="47.7919" lon="-3.6881">
        <ele>27</ele>
        <time>2023-01-27T14:48:07Z</time>
      </trkpt>
      <trkpt lat="47.7919" lon="-3.68809">
        <ele>27.1</ele>
        <time>2023-01-27T14:48:08Z</time>
      </trkpt>
      <trkpt lat="47.79192" lon="-3.68803">
        <ele>27.3</ele>
        <time>2023-01-27T14:48:09Z</time>
      </trkpt>
      <trkpt lat="47.79195" lon="-3.68797">
        <ele>27.6</ele>
        <time>2023-01-27T14:48:11Z</time>
      </trkpt>
      <trkpt lat="47.79197" lon="-3.68794">
        <ele>27.7</ele>
        <time>2023-01-27T14:48:12Z</time>
      </trkpt>
      <trkpt lat="47.79198" lon="-3.68791">
        <ele>27.8</ele>
        <time>2023-01-27T14:48:13Z</time>
      </trkpt>
      <trkpt lat="47.79201" lon="-3.6879">
        <ele>27.8</ele>
        <time>2023-01-27T14:48:15Z</time>
      </trkpt>
      <trkpt lat="47.79205" lon="-3.6879">
        <ele>27.9</ele>
        <time>2023-01-27T14:48:16Z</time>
      </trkpt>
      <trkpt lat="47.79206" lon="-3.68791">
        <ele>27.9</ele>
        <time>2023-01-27T14:48:17Z</time>
      </trkpt>
      <trkpt lat="47.7921" lon="-3.68791">
        <ele>28</ele>
        <time>2023-01-27T14:48:18Z</time>
      </trkpt>
      <trkpt lat="47.79212" lon="-3.68791">
        <ele>28</ele>
        <time>2023-01-27T14:48:19Z</time>
      </trkpt>
      <trkpt lat="47.79215" lon="-3.68792">
        <ele>28</ele>
        <time>2023-01-27T14:48:20Z</time>
      </trkpt>
      <trkpt lat="47.79217" lon="-3.68792">
        <ele>28</ele>
        <time>2023-01-27T14:48:21Z</time>
      </trkpt>
      <trkpt lat="47.7922" lon="-3.68792">
        <ele>28</ele>
        <time>2023-01-27T14:48:22Z</time>
      </trkpt>
      <trkpt lat="47.79224" lon="-3.68793">
        <ele>28</ele>
        <time>2023-01-27T14:48:23Z</time>
      </trkpt>
      <trkpt lat="47.79225" lon="-3.68793">
        <ele>28</ele>
        <time>2023-01-27T14:48:24Z</time>
      </trkpt>
      <trkpt lat="47.79228" lon="-3.68794">
        <ele>28</ele>
        <time>2023-01-27T14:48:25Z</time>
      </trkpt>
      <trkpt lat="47.79232" lon="-3.68794">
        <ele>27.9</ele>
        <time>2023-01-27T14:48:26Z</time>
      </trkpt>
      <trkpt lat="47.79235" lon="-3.68795">
        <ele>27.9</ele>
        <time>2023-01-27T14:48:27Z</time>
      </trkpt>
      <trkpt lat="47.79237" lon="-3.68795">
        <ele>27.9</ele>
        <time>2023-01-27T14:48:28Z</time>
      </trkpt>
      <trkpt lat="47.79241" lon="-3.68794">
        <ele>27.8</ele>
        <time>2023-01-27T14:48:29Z</time>
      </trkpt>
      <trkpt lat="47.79244" lon="-3.68795">
        <ele>27.8</ele>
        <time>2023-01-27T14:48:30Z</time>
      </trkpt>
      <trkpt lat="47.79248" lon="-3.68796">
        <ele>27.8</ele>
        <time>2023-01-27T14:48:31Z</time>
      </trkpt>
      <trkpt lat="47.79252" lon="-3.68796">
        <ele>27.7</ele>
        <time>2023-01-27T14:48:32Z</time>
      </trkpt>
      <trkpt lat="47.79253" lon="-3.68796">
        <ele>27.7</ele>
        <time>2023-01-27T14:48:33Z</time>
      </trkpt>
      <trkpt lat="47.79257" lon="-3.68796">
        <ele>27.6</ele>
        <time>2023-01-27T14:48:34Z</time>
      </trkpt>
      <trkpt lat="47.79266" lon="-3.68798">
        <ele>27.5</ele>
        <time>2023-01-27T14:48:36Z</time>
      </trkpt>
      <trkpt lat="47.79273" lon="-3.688">
        <ele>27.3</ele>
        <time>2023-01-27T14:48:38Z</time>
      </trkpt>
      <trkpt lat="47.79275" lon="-3.68801">
        <ele>27.3</ele>
        <time>2023-01-27T14:48:39Z</time>
      </trkpt>
      <trkpt lat="47.79281" lon="-3.68803">
        <ele>27.1</ele>
        <time>2023-01-27T14:48:41Z</time>
      </trkpt>
      <trkpt lat="47.79284" lon="-3.68805">
        <ele>27</ele>
        <time>2023-01-27T14:48:43Z</time>
      </trkpt>
      <trkpt lat="47.79289" lon="-3.68807">
        <ele>26.9</ele>
        <time>2023-01-27T14:48:44Z</time>
      </trkpt>
      <trkpt lat="47.79293" lon="-3.68807">
        <ele>26.8</ele>
        <time>2023-01-27T14:48:45Z</time>
      </trkpt>
      <trkpt lat="47.79297" lon="-3.68808">
        <ele>26.7</ele>
        <time>2023-01-27T14:48:46Z</time>
      </trkpt>
      <trkpt lat="47.793" lon="-3.68809">
        <ele>26.7</ele>
        <time>2023-01-27T14:48:47Z</time>
      </trkpt>
      <trkpt lat="47.79304" lon="-3.68809">
        <ele>26.6</ele>
        <time>2023-01-27T14:48:48Z</time>
      </trkpt>
      <trkpt lat="47.79307" lon="-3.6881">
        <ele>26.5</ele>
        <time>2023-01-27T14:48:49Z</time>
      </trkpt>
      <trkpt lat="47.79311" lon="-3.68811">
        <ele>26.5</ele>
        <time>2023-01-27T14:48:50Z</time>
      </trkpt>
      <trkpt lat="47.79315" lon="-3.68811">
        <ele>26.4</ele>
        <time>2023-01-27T14:48:51Z</time>
      </trkpt>
      <trkpt lat="47.79317" lon="-3.68811">
        <ele>26.4</ele>
        <time>2023-01-27T14:48:52Z</time>
      </trkpt>
      <trkpt lat="47.79321" lon="-3.68812">
        <ele>26.5</ele>
        <time>2023-01-27T14:48:53Z</time>
      </trkpt>
      <trkpt lat="47.79325" lon="-3.68814">
        <ele>26.5</ele>
        <time>2023-01-27T14:48:54Z</time>
      </trkpt>
      <trkpt lat="47.79328" lon="-3.68816">
        <ele>26.6</ele>
        <time>2023-01-27T14:48:55Z</time>
      </trkpt>
      <trkpt lat="47.79331" lon="-3.68816">
        <ele>26.7</ele>
        <time>2023-01-27T14:48:56Z</time>
      </trkpt>
      <trkpt lat="47.79334" lon="-3.68817">
        <ele>26.8</ele>
        <time>2023-01-27T14:48:57Z</time>
      </trkpt>
      <trkpt lat="47.79338" lon="-3.68818">
        <ele>26.9</ele>
        <time>2023-01-27T14:48:58Z</time>
      </trkpt>
      <trkpt lat="47.7934" lon="-3.68818">
        <ele>27</ele>
        <time>2023-01-27T14:48:59Z</time>
      </trkpt>
      <trkpt lat="47.79343" lon="-3.6882">
        <ele>27.2</ele>
        <time>2023-01-27T14:49:00Z</time>
      </trkpt>
      <trkpt lat="47.79346" lon="-3.68821">
        <ele>27.3</ele>
        <time>2023-01-27T14:49:01Z</time>
      </trkpt>
      <trkpt lat="47.79349" lon="-3.68821">
        <ele>27.4</ele>
        <time>2023-01-27T14:49:02Z</time>
      </trkpt>
      <trkpt lat="47.79352" lon="-3.68823">
        <ele>27.6</ele>
        <time>2023-01-27T14:49:03Z</time>
      </trkpt>
      <trkpt lat="47.79355" lon="-3.68824">
        <ele>27.7</ele>
        <time>2023-01-27T14:49:04Z</time>
      </trkpt>
      <trkpt lat="47.79357" lon="-3.68825">
        <ele>27.8</ele>
        <time>2023-01-27T14:49:05Z</time>
      </trkpt>
      <trkpt lat="47.79363" lon="-3.68827">
        <ele>28.1</ele>
        <time>2023-01-27T14:49:06Z</time>
      </trkpt>
      <trkpt lat="47.79366" lon="-3.68829">
        <ele>28.2</ele>
        <time>2023-01-27T14:49:07Z</time>
      </trkpt>
      <trkpt lat="47.7937" lon="-3.68831">
        <ele>28.4</ele>
        <time>2023-01-27T14:49:08Z</time>
      </trkpt>
      <trkpt lat="47.79376" lon="-3.68833">
        <ele>28.6</ele>
        <time>2023-01-27T14:49:10Z</time>
      </trkpt>
      <trkpt lat="47.79379" lon="-3.68834">
        <ele>28.7</ele>
        <time>2023-01-27T14:49:11Z</time>
      </trkpt>
      <trkpt lat="47.79382" lon="-3.68836">
        <ele>28.8</ele>
        <time>2023-01-27T14:49:12Z</time>
      </trkpt>
      <trkpt lat="47.79385" lon="-3.68837">
        <ele>28.9</ele>
        <time>2023-01-27T14:49:14Z</time>
      </trkpt>
      <trkpt lat="47.79388" lon="-3.68837">
        <ele>29</ele>
        <time>2023-01-27T14:49:15Z</time>
      </trkpt>
      <trkpt lat="47.79394" lon="-3.68839">
        <ele>29.2</ele>
        <time>2023-01-27T14:49:16Z</time>
      </trkpt>
      <trkpt lat="47.79397" lon="-3.6884">
        <ele>29.3</ele>
        <time>2023-01-27T14:49:18Z</time>
      </trkpt>
      <trkpt lat="47.794" lon="-3.6884">
        <ele>29.4</ele>
        <time>2023-01-27T14:49:19Z</time>
      </trkpt>
      <trkpt lat="47.79404" lon="-3.68841">
        <ele>29.5</ele>
        <time>2023-01-27T14:49:20Z</time>
      </trkpt>
      <trkpt lat="47.79409" lon="-3.68843">
        <ele>29.7</ele>
        <time>2023-01-27T14:49:21Z</time>
      </trkpt>
      <trkpt lat="47.79412" lon="-3.68845">
        <ele>29.8</ele>
        <time>2023-01-27T14:49:23Z</time>
      </trkpt>
      <trkpt lat="47.79415" lon="-3.68846">
        <ele>30</ele>
        <time>2023-01-27T14:49:24Z</time>
      </trkpt>
      <trkpt lat="47.79417" lon="-3.68846">
        <ele>30</ele>
        <time>2023-01-27T14:49:25Z</time>
      </trkpt>
      <trkpt lat="47.79419" lon="-3.68841">
        <ele>30.2</ele>
        <time>2023-01-27T14:49:26Z</time>
      </trkpt>
      <trkpt lat="47.79419" lon="-3.68839">
        <ele>30.3</ele>
        <time>2023-01-27T14:49:27Z</time>
      </trkpt>
      <trkpt lat="47.79419" lon="-3.68834">
        <ele>30.4</ele>
        <time>2023-01-27T14:49:28Z</time>
      </trkpt>
      <trkpt lat="47.79417" lon="-3.68829">
        <ele>30.5</ele>
        <time>2023-01-27T14:49:29Z</time>
      </trkpt>
      <trkpt lat="47.79416" lon="-3.68821">
        <ele>30.7</ele>
        <time>2023-01-27T14:49:30Z</time>
      </trkpt>
      <trkpt lat="47.79416" lon="-3.68814">
        <ele>30.8</ele>
        <time>2023-01-27T14:49:32Z</time>
      </trkpt>
      <trkpt lat="47.79416" lon="-3.68804">
        <ele>30.9</ele>
        <time>2023-01-27T14:49:33Z</time>
      </trkpt>
      <trkpt lat="47.79417" lon="-3.68798">
        <ele>31</ele>
        <time>2023-01-27T14:49:34Z</time>
      </trkpt>
      <trkpt lat="47.79417" lon="-3.68789">
        <ele>31.2</ele>
        <time>2023-01-27T14:49:36Z</time>
      </trkpt>
      <trkpt lat="47.79418" lon="-3.68783">
        <ele>31.3</ele>
        <time>2023-01-27T14:49:37Z</time>
      </trkpt>
      <trkpt lat="47.79419" lon="-3.68773">
        <ele>31.5</ele>
        <time>2023-01-27T14:49:39Z</time>
      </trkpt>
      <trkpt lat="47.79418" lon="-3.68767">
        <ele>31.6</ele>
        <time>2023-01-27T14:49:41Z</time>
      </trkpt>
      <trkpt lat="47.79418" lon="-3.68762">
        <ele>31.7</ele>
        <time>2023-01-27T14:49:42Z</time>
      </trkpt>
      <trkpt lat="47.79417" lon="-3.68756">
        <ele>31.9</ele>
        <time>2023-01-27T14:49:43Z</time>
      </trkpt>
      <trkpt lat="47.79417" lon="-3.68751">
        <ele>32</ele>
        <time>2023-01-27T14:49:44Z</time>
      </trkpt>
      <trkpt lat="47.79417" lon="-3.6874">
        <ele>32.2</ele>
        <time>2023-01-27T14:49:45Z</time>
      </trkpt>
      <trkpt lat="47.79416" lon="-3.68735">
        <ele>32.4</ele>
        <time>2023-01-27T14:49:47Z</time>
      </trkpt>
      <trkpt lat="47.79416" lon="-3.6873">
        <ele>32.5</ele>
        <time>2023-01-27T14:49:48Z</time>
      </trkpt>
      <trkpt lat="47.79415" lon="-3.6872">
        <ele>32.7</ele>
        <time>2023-01-27T14:49:49Z</time>
      </trkpt>
      <trkpt lat="47.79416" lon="-3.68715">
        <ele>32.8</ele>
        <time>2023-01-27T14:49:51Z</time>
      </trkpt>
      <trkpt lat="47.79416" lon="-3.6871">
        <ele>32.8</ele>
        <time>2023-01-27T14:49:52Z</time>
      </trkpt>
      <trkpt lat="47.79415" lon="-3.68706">
        <ele>32.9</ele>
        <time>2023-01-27T14:49:53Z</time>
      </trkpt>
      <trkpt lat="47.79415" lon="-3.68701">
        <ele>33</ele>
        <time>2023-01-27T14:49:54Z</time>
      </trkpt>
      <trkpt lat="47.79415" lon="-3.68695">
        <ele>33</ele>
        <time>2023-01-27T14:49:55Z</time>
      </trkpt>
      <trkpt lat="47.79416" lon="-3.68689">
        <ele>33.1</ele>
        <time>2023-01-27T14:49:56Z</time>
      </trkpt>
      <trkpt lat="47.79416" lon="-3.68683">
        <ele>33.2</ele>
        <time>2023-01-27T14:49:57Z</time>
      </trkpt>
      <trkpt lat="47.79416" lon="-3.68678">
        <ele>33.2</ele>
        <time>2023-01-27T14:49:58Z</time>
      </trkpt>
      <trkpt lat="47.79416" lon="-3.68672">
        <ele>33.3</ele>
        <time>2023-01-27T14:49:59Z</time>
      </trkpt>
      <trkpt lat="47.79415" lon="-3.68666">
        <ele>33.4</ele>
        <time>2023-01-27T14:50:00Z</time>
      </trkpt>
      <trkpt lat="47.79415" lon="-3.6866">
        <ele>33.5</ele>
        <time>2023-01-27T14:50:01Z</time>
      </trkpt>
      <trkpt lat="47.79415" lon="-3.68653">
        <ele>33.6</ele>
        <time>2023-01-27T14:50:02Z</time>
      </trkpt>
      <trkpt lat="47.79415" lon="-3.68647">
        <ele>33.7</ele>
        <time>2023-01-27T14:50:03Z</time>
      </trkpt>
      <trkpt lat="47.79415" lon="-3.68641">
        <ele>33.8</ele>
        <time>2023-01-27T14:50:04Z</time>
      </trkpt>
      <trkpt lat="47.79415" lon="-3.68634">
        <ele>33.9</ele>
        <time>2023-01-27T14:50:05Z</time>
      </trkpt>
      <trkpt lat="47.79415" lon="-3.68628">
        <ele>34</ele>
        <time>2023-01-27T14:50:06Z</time>
      </trkpt>
      <trkpt lat="47.79414" lon="-3.68621">
        <ele>34</ele>
        <time>2023-01-27T14:50:07Z</time>
      </trkpt>
      <trkpt lat="47.79413" lon="-3.68615">
        <ele>34.1</ele>
        <time>2023-01-27T14:50:08Z</time>
      </trkpt>
      <trkpt lat="47.79412" lon="-3.68608">
        <ele>34.2</ele>
        <time>2023-01-27T14:50:09Z</time>
      </trkpt>
      <trkpt lat="47.79411" lon="-3.68602">
        <ele>34.3</ele>
        <time>2023-01-27T14:50:10Z</time>
      </trkpt>
      <trkpt lat="47.79409" lon="-3.68596">
        <ele>34.4</ele>
        <time>2023-01-27T14:50:11Z</time>
      </trkpt>
      <trkpt lat="47.79407" lon="-3.6859">
        <ele>34.4</ele>
        <time>2023-01-27T14:50:12Z</time>
      </trkpt>
      <trkpt lat="47.79402" lon="-3.68579">
        <ele>34.6</ele>
        <time>2023-01-27T14:50:13Z</time>
      </trkpt>
      <trkpt lat="47.79398" lon="-3.68573">
        <ele>34.7</ele>
        <time>2023-01-27T14:50:15Z</time>
      </trkpt>
      <trkpt lat="47.79396" lon="-3.68567">
        <ele>34.7</ele>
        <time>2023-01-27T14:50:16Z</time>
      </trkpt>
      <trkpt lat="47.79393" lon="-3.68561">
        <ele>34.8</ele>
        <time>2023-01-27T14:50:17Z</time>
      </trkpt>
      <trkpt lat="47.79391" lon="-3.68555">
        <ele>34.8</ele>
        <time>2023-01-27T14:50:18Z</time>
      </trkpt>
      <trkpt lat="47.79388" lon="-3.68549">
        <ele>34.8</ele>
        <time>2023-01-27T14:50:19Z</time>
      </trkpt>
      <trkpt lat="47.79386" lon="-3.68543">
        <ele>34.9</ele>
        <time>2023-01-27T14:50:20Z</time>
      </trkpt>
      <trkpt lat="47.79383" lon="-3.68538">
        <ele>34.9</ele>
        <time>2023-01-27T14:50:21Z</time>
      </trkpt>
      <trkpt lat="47.7938" lon="-3.68531">
        <ele>34.9</ele>
        <time>2023-01-27T14:50:22Z</time>
      </trkpt>
      <trkpt lat="47.79378" lon="-3.68525">
        <ele>34.9</ele>
        <time>2023-01-27T14:50:23Z</time>
      </trkpt>
      <trkpt lat="47.79375" lon="-3.68519">
        <ele>34.9</ele>
        <time>2023-01-27T14:50:24Z</time>
      </trkpt>
      <trkpt lat="47.79372" lon="-3.68512">
        <ele>34.8</ele>
        <time>2023-01-27T14:50:25Z</time>
      </trkpt>
      <trkpt lat="47.7937" lon="-3.68505">
        <ele>34.8</ele>
        <time>2023-01-27T14:50:26Z</time>
      </trkpt>
      <trkpt lat="47.79368" lon="-3.68498">
        <ele>34.7</ele>
        <time>2023-01-27T14:50:27Z</time>
      </trkpt>
      <trkpt lat="47.79366" lon="-3.68491">
        <ele>34.6</ele>
        <time>2023-01-27T14:50:28Z</time>
      </trkpt>
      <trkpt lat="47.79364" lon="-3.68484">
        <ele>34.5</ele>
        <time>2023-01-27T14:50:29Z</time>
      </trkpt>
      <trkpt lat="47.79361" lon="-3.68478">
        <ele>34.4</ele>
        <time>2023-01-27T14:50:30Z</time>
      </trkpt>
      <trkpt lat="47.79357" lon="-3.68474">
        <ele>34.3</ele>
        <time>2023-01-27T14:50:31Z</time>
      </trkpt>
      <trkpt lat="47.79353" lon="-3.68475">
        <ele>34.2</ele>
        <time>2023-01-27T14:50:32Z</time>
      </trkpt>
      <trkpt lat="47.7935" lon="-3.68477">
        <ele>34.1</ele>
        <time>2023-01-27T14:50:33Z</time>
      </trkpt>
      <trkpt lat="47.79345" lon="-3.6848">
        <ele>34</ele>
        <time>2023-01-27T14:50:34Z</time>
      </trkpt>
      <trkpt lat="47.79341" lon="-3.68483">
        <ele>33.8</ele>
        <time>2023-01-27T14:50:35Z</time>
      </trkpt>
      <trkpt lat="47.79337" lon="-3.68486">
        <ele>33.8</ele>
        <time>2023-01-27T14:50:36Z</time>
      </trkpt>
      <trkpt lat="47.79332" lon="-3.68489">
        <ele>33.6</ele>
        <time>2023-01-27T14:50:37Z</time>
      </trkpt>
      <trkpt lat="47.79327" lon="-3.68493">
        <ele>33.5</ele>
        <time>2023-01-27T14:50:38Z</time>
      </trkpt>
      <trkpt lat="47.79322" lon="-3.68496">
        <ele>33.4</ele>
        <time>2023-01-27T14:50:39Z</time>
      </trkpt>
      <trkpt lat="47.79318" lon="-3.68499">
        <ele>33.3</ele>
        <time>2023-01-27T14:50:40Z</time>
      </trkpt>
      <trkpt lat="47.79313" lon="-3.68502">
        <ele>33.2</ele>
        <time>2023-01-27T14:50:41Z</time>
      </trkpt>
      <trkpt lat="47.79308" lon="-3.68505">
        <ele>33.2</ele>
        <time>2023-01-27T14:50:42Z</time>
      </trkpt>
      <trkpt lat="47.79303" lon="-3.68507">
        <ele>33.1</ele>
        <time>2023-01-27T14:50:43Z</time>
      </trkpt>
      <trkpt lat="47.79298" lon="-3.68508">
        <ele>33</ele>
        <time>2023-01-27T14:50:44Z</time>
      </trkpt>
      <trkpt lat="47.79293" lon="-3.68509">
        <ele>33</ele>
        <time>2023-01-27T14:50:45Z</time>
      </trkpt>
      <trkpt lat="47.79288" lon="-3.6851">
        <ele>32.9</ele>
        <time>2023-01-27T14:50:46Z</time>
      </trkpt>
      <trkpt lat="47.79283" lon="-3.6851">
        <ele>32.8</ele>
        <time>2023-01-27T14:50:47Z</time>
      </trkpt>
      <trkpt lat="47.79278" lon="-3.68511">
        <ele>32.8</ele>
        <time>2023-01-27T14:50:48Z</time>
      </trkpt>
      <trkpt lat="47.79273" lon="-3.68511">
        <ele>32.7</ele>
        <time>2023-01-27T14:50:49Z</time>
      </trkpt>
      <trkpt lat="47.79268" lon="-3.68512">
        <ele>32.6</ele>
        <time>2023-01-27T14:50:50Z</time>
      </trkpt>
      <trkpt lat="47.79263" lon="-3.68512">
        <ele>32.6</ele>
        <time>2023-01-27T14:50:51Z</time>
      </trkpt>
      <trkpt lat="47.79258" lon="-3.68512">
        <ele>32.5</ele>
        <time>2023-01-27T14:50:52Z</time>
      </trkpt>
      <trkpt lat="47.79253" lon="-3.68512">
        <ele>32.4</ele>
        <time>2023-01-27T14:50:53Z</time>
      </trkpt>
      <trkpt lat="47.79248" lon="-3.68513">
        <ele>32.4</ele>
        <time>2023-01-27T14:50:54Z</time>
      </trkpt>
      <trkpt lat="47.79242" lon="-3.68512">
        <ele>32.3</ele>
        <time>2023-01-27T14:50:55Z</time>
      </trkpt>
      <trkpt lat="47.79237" lon="-3.68513">
        <ele>32.3</ele>
        <time>2023-01-27T14:50:56Z</time>
      </trkpt>
      <trkpt lat="47.79232" lon="-3.68513">
        <ele>32.2</ele>
        <time>2023-01-27T14:50:57Z</time>
      </trkpt>
      <trkpt lat="47.79227" lon="-3.68513">
        <ele>32.2</ele>
        <time>2023-01-27T14:50:58Z</time>
      </trkpt>
      <trkpt lat="47.79222" lon="-3.68514">
        <ele>32.1</ele>
        <time>2023-01-27T14:50:59Z</time>
      </trkpt>
      <trkpt lat="47.79217" lon="-3.68514">
        <ele>32.1</ele>
        <time>2023-01-27T14:51:00Z</time>
      </trkpt>
      <trkpt lat="47.79213" lon="-3.68515">
        <ele>32</ele>
        <time>2023-01-27T14:51:01Z</time>
      </trkpt>
      <trkpt lat="47.79208" lon="-3.68516">
        <ele>32</ele>
        <time>2023-01-27T14:51:02Z</time>
      </trkpt>
      <trkpt lat="47.79204" lon="-3.68518">
        <ele>32</ele>
        <time>2023-01-27T14:51:03Z</time>
      </trkpt>
      <trkpt lat="47.79199" lon="-3.6852">
        <ele>31.9</ele>
        <time>2023-01-27T14:51:04Z</time>
      </trkpt>
      <trkpt lat="47.79195" lon="-3.68521">
        <ele>31.9</ele>
        <time>2023-01-27T14:51:05Z</time>
      </trkpt>
      <trkpt lat="47.79192" lon="-3.68523">
        <ele>31.9</ele>
        <time>2023-01-27T14:51:06Z</time>
      </trkpt>
      <trkpt lat="47.79187" lon="-3.68525">
        <ele>31.8</ele>
        <time>2023-01-27T14:51:07Z</time>
      </trkpt>
      <trkpt lat="47.79182" lon="-3.68528">
        <ele>31.8</ele>
        <time>2023-01-27T14:51:08Z</time>
      </trkpt>
      <trkpt lat="47.79177" lon="-3.6853">
        <ele>31.7</ele>
        <time>2023-01-27T14:51:09Z</time>
      </trkpt>
      <trkpt lat="47.79173" lon="-3.68532">
        <ele>31.7</ele>
        <time>2023-01-27T14:51:10Z</time>
      </trkpt>
      <trkpt lat="47.79168" lon="-3.68534">
        <ele>31.6</ele>
        <time>2023-01-27T14:51:11Z</time>
      </trkpt>
      <trkpt lat="47.79164" lon="-3.68536">
        <ele>31.6</ele>
        <time>2023-01-27T14:51:12Z</time>
      </trkpt>
      <trkpt lat="47.79159" lon="-3.68539">
        <ele>31.6</ele>
        <time>2023-01-27T14:51:13Z</time>
      </trkpt>
      <trkpt lat="47.79155" lon="-3.68541">
        <ele>31.6</ele>
        <time>2023-01-27T14:51:14Z</time>
      </trkpt>
      <trkpt lat="47.79152" lon="-3.68541">
        <ele>31.5</ele>
        <time>2023-01-27T14:51:15Z</time>
      </trkpt>
      <trkpt lat="47.7915" lon="-3.6854">
        <ele>31.5</ele>
        <time>2023-01-27T14:51:16Z</time>
      </trkpt>
      <trkpt lat="47.79147" lon="-3.68536">
        <ele>31.5</ele>
        <time>2023-01-27T14:51:17Z</time>
      </trkpt>
      <trkpt lat="47.79146" lon="-3.68532">
        <ele>31.5</ele>
        <time>2023-01-27T14:51:18Z</time>
      </trkpt>
      <trkpt lat="47.79146" lon="-3.68528">
        <ele>31.5</ele>
        <time>2023-01-27T14:51:19Z</time>
      </trkpt>
      <trkpt lat="47.79147" lon="-3.68523">
        <ele>31.5</ele>
        <time>2023-01-27T14:51:20Z</time>
      </trkpt>
      <trkpt lat="47.79149" lon="-3.68517">
        <ele>31.5</ele>
        <time>2023-01-27T14:51:21Z</time>
      </trkpt>
      <trkpt lat="47.79149" lon="-3.68513">
        <ele>31.5</ele>
        <time>2023-01-27T14:51:22Z</time>
      </trkpt>
      <trkpt lat="47.79149" lon="-3.68509">
        <ele>31.5</ele>
        <time>2023-01-27T14:51:23Z</time>
      </trkpt>
      <trkpt lat="47.79151" lon="-3.68502">
        <ele>31.5</ele>
        <time>2023-01-27T14:51:24Z</time>
      </trkpt>
      <trkpt lat="47.79152" lon="-3.68496">
        <ele>31.5</ele>
        <time>2023-01-27T14:51:25Z</time>
      </trkpt>
      <trkpt lat="47.79153" lon="-3.68489">
        <ele>31.5</ele>
        <time>2023-01-27T14:51:26Z</time>
      </trkpt>
      <trkpt lat="47.79154" lon="-3.68483">
        <ele>31.5</ele>
        <time>2023-01-27T14:51:28Z</time>
      </trkpt>
      <trkpt lat="47.79154" lon="-3.68472">
        <ele>31.5</ele>
        <time>2023-01-27T14:51:29Z</time>
      </trkpt>
      <trkpt lat="47.79154" lon="-3.68465">
        <ele>31.5</ele>
        <time>2023-01-27T14:51:31Z</time>
      </trkpt>
      <trkpt lat="47.79154" lon="-3.68454">
        <ele>31.4</ele>
        <time>2023-01-27T14:51:32Z</time>
      </trkpt>
      <trkpt lat="47.79155" lon="-3.68447">
        <ele>31.3</ele>
        <time>2023-01-27T14:51:34Z</time>
      </trkpt>
      <trkpt lat="47.79155" lon="-3.68435">
        <ele>31.2</ele>
        <time>2023-01-27T14:51:35Z</time>
      </trkpt>
      <trkpt lat="47.79155" lon="-3.68427">
        <ele>31.1</ele>
        <time>2023-01-27T14:51:37Z</time>
      </trkpt>
      <trkpt lat="47.79155" lon="-3.68419">
        <ele>31</ele>
        <time>2023-01-27T14:51:38Z</time>
      </trkpt>
      <trkpt lat="47.79155" lon="-3.68412">
        <ele>30.9</ele>
        <time>2023-01-27T14:51:39Z</time>
      </trkpt>
      <trkpt lat="47.79155" lon="-3.68405">
        <ele>30.7</ele>
        <time>2023-01-27T14:51:40Z</time>
      </trkpt>
      <trkpt lat="47.79155" lon="-3.68398">
        <ele>30.6</ele>
        <time>2023-01-27T14:51:41Z</time>
      </trkpt>
      <trkpt lat="47.79155" lon="-3.68391">
        <ele>30.5</ele>
        <time>2023-01-27T14:51:42Z</time>
      </trkpt>
      <trkpt lat="47.79155" lon="-3.68384">
        <ele>30.4</ele>
        <time>2023-01-27T14:51:43Z</time>
      </trkpt>
      <trkpt lat="47.79155" lon="-3.68377">
        <ele>30.3</ele>
        <time>2023-01-27T14:51:44Z</time>
      </trkpt>
      <trkpt lat="47.79154" lon="-3.6837">
        <ele>30.3</ele>
        <time>2023-01-27T14:51:45Z</time>
      </trkpt>
      <trkpt lat="47.79154" lon="-3.68363">
        <ele>30.2</ele>
        <time>2023-01-27T14:51:46Z</time>
      </trkpt>
      <trkpt lat="47.79154" lon="-3.68356">
        <ele>30.1</ele>
        <time>2023-01-27T14:51:47Z</time>
      </trkpt>
      <trkpt lat="47.79154" lon="-3.68349">
        <ele>30.1</ele>
        <time>2023-01-27T14:51:48Z</time>
      </trkpt>
      <trkpt lat="47.79153" lon="-3.68341">
        <ele>30.1</ele>
        <time>2023-01-27T14:51:49Z</time>
      </trkpt>
      <trkpt lat="47.79153" lon="-3.68334">
        <ele>30.1</ele>
        <time>2023-01-27T14:51:50Z</time>
      </trkpt>
      <trkpt lat="47.79152" lon="-3.68327">
        <ele>30.1</ele>
        <time>2023-01-27T14:51:51Z</time>
      </trkpt>
      <trkpt lat="47.79152" lon="-3.68319">
        <ele>30.1</ele>
        <time>2023-01-27T14:51:52Z</time>
      </trkpt>
      <trkpt lat="47.79152" lon="-3.68311">
        <ele>30.1</ele>
        <time>2023-01-27T14:51:53Z</time>
      </trkpt>
      <trkpt lat="47.79152" lon="-3.68304">
        <ele>30.1</ele>
        <time>2023-01-27T14:51:54Z</time>
      </trkpt>
      <trkpt lat="47.79152" lon="-3.68296">
        <ele>30.1</ele>
        <time>2023-01-27T14:51:55Z</time>
      </trkpt>
      <trkpt lat="47.79152" lon="-3.68289">
        <ele>30.1</ele>
        <time>2023-01-27T14:51:56Z</time>
      </trkpt>
      <trkpt lat="47.79152" lon="-3.68283">
        <ele>30.2</ele>
        <time>2023-01-27T14:51:57Z</time>
      </trkpt>
      <trkpt lat="47.79153" lon="-3.68276">
        <ele>30.3</ele>
        <time>2023-01-27T14:51:58Z</time>
      </trkpt>
      <trkpt lat="47.79153" lon="-3.68269">
        <ele>30.4</ele>
        <time>2023-01-27T14:51:59Z</time>
      </trkpt>
      <trkpt lat="47.79154" lon="-3.68262">
        <ele>30.6</ele>
        <time>2023-01-27T14:52:00Z</time>
      </trkpt>
      <trkpt lat="47.79153" lon="-3.68255">
        <ele>30.7</ele>
        <time>2023-01-27T14:52:01Z</time>
      </trkpt>
      <trkpt lat="47.79152" lon="-3.6825">
        <ele>30.8</ele>
        <time>2023-01-27T14:52:02Z</time>
      </trkpt>
      <trkpt lat="47.79152" lon="-3.68242">
        <ele>30.9</ele>
        <time>2023-01-27T14:52:03Z</time>
      </trkpt>
      <trkpt lat="47.79151" lon="-3.68237">
        <ele>31.1</ele>
        <time>2023-01-27T14:52:04Z</time>
      </trkpt>
      <trkpt lat="47.79151" lon="-3.68231">
        <ele>31.2</ele>
        <time>2023-01-27T14:52:05Z</time>
      </trkpt>
      <trkpt lat="47.7915" lon="-3.68223">
        <ele>31.3</ele>
        <time>2023-01-27T14:52:06Z</time>
      </trkpt>
      <trkpt lat="47.79149" lon="-3.68217">
        <ele>31.5</ele>
        <time>2023-01-27T14:52:07Z</time>
      </trkpt>
      <trkpt lat="47.7915" lon="-3.68212">
        <ele>31.5</ele>
        <time>2023-01-27T14:52:08Z</time>
      </trkpt>
      <trkpt lat="47.79148" lon="-3.68209">
        <ele>31.6</ele>
        <time>2023-01-27T14:52:09Z</time>
      </trkpt>
      <trkpt lat="47.79146" lon="-3.68201">
        <ele>31.7</ele>
        <time>2023-01-27T14:52:10Z</time>
      </trkpt>
      <trkpt lat="47.79144" lon="-3.68194">
        <ele>31.8</ele>
        <time>2023-01-27T14:52:11Z</time>
      </trkpt>
      <trkpt lat="47.79143" lon="-3.68188">
        <ele>31.9</ele>
        <time>2023-01-27T14:52:12Z</time>
      </trkpt>
      <trkpt lat="47.7914" lon="-3.6818">
        <ele>32</ele>
        <time>2023-01-27T14:52:13Z</time>
      </trkpt>
      <trkpt lat="47.79136" lon="-3.6817">
        <ele>32.1</ele>
        <time>2023-01-27T14:52:15Z</time>
      </trkpt>
      <trkpt lat="47.79134" lon="-3.68164">
        <ele>32.2</ele>
        <time>2023-01-27T14:52:16Z</time>
      </trkpt>
      <trkpt lat="47.79131" lon="-3.68153">
        <ele>32.3</ele>
        <time>2023-01-27T14:52:18Z</time>
      </trkpt>
      <trkpt lat="47.79129" lon="-3.68147">
        <ele>32.4</ele>
        <time>2023-01-27T14:52:20Z</time>
      </trkpt>
      <trkpt lat="47.79127" lon="-3.68141">
        <ele>32.4</ele>
        <time>2023-01-27T14:52:21Z</time>
      </trkpt>
      <trkpt lat="47.79125" lon="-3.68135">
        <ele>32.5</ele>
        <time>2023-01-27T14:52:22Z</time>
      </trkpt>
      <trkpt lat="47.79122" lon="-3.68125">
        <ele>32.6</ele>
        <time>2023-01-27T14:52:23Z</time>
      </trkpt>
      <trkpt lat="47.7912" lon="-3.68121">
        <ele>32.6</ele>
        <time>2023-01-27T14:52:24Z</time>
      </trkpt>
      <trkpt lat="47.79118" lon="-3.68115">
        <ele>32.7</ele>
        <time>2023-01-27T14:52:26Z</time>
      </trkpt>
      <trkpt lat="47.79116" lon="-3.68111">
        <ele>32.8</ele>
        <time>2023-01-27T14:52:27Z</time>
      </trkpt>
      <trkpt lat="47.79114" lon="-3.68106">
        <ele>32.8</ele>
        <time>2023-01-27T14:52:28Z</time>
      </trkpt>
      <trkpt lat="47.79112" lon="-3.68101">
        <ele>32.8</ele>
        <time>2023-01-27T14:52:29Z</time>
      </trkpt>
      <trkpt lat="47.79111" lon="-3.68097">
        <ele>32.9</ele>
        <time>2023-01-27T14:52:30Z</time>
      </trkpt>
      <trkpt lat="47.79108" lon="-3.6809">
        <ele>32.9</ele>
        <time>2023-01-27T14:52:31Z</time>
      </trkpt>
      <trkpt lat="47.79107" lon="-3.68086">
        <ele>33</ele>
        <time>2023-01-27T14:52:33Z</time>
      </trkpt>
      <trkpt lat="47.79106" lon="-3.68082">
        <ele>33</ele>
        <time>2023-01-27T14:52:34Z</time>
      </trkpt>
      <trkpt lat="47.79104" lon="-3.68079">
        <ele>33</ele>
        <time>2023-01-27T14:52:35Z</time>
      </trkpt>
      <trkpt lat="47.79103" lon="-3.68078">
        <ele>33</ele>
        <time>2023-01-27T14:52:36Z</time>
      </trkpt>
      <trkpt lat="47.79101" lon="-3.68077">
        <ele>32.8</ele>
        <time>2023-01-27T14:52:37Z</time>
      </trkpt>
      <trkpt lat="47.791" lon="-3.68076">
        <ele>32.7</ele>
        <time>2023-01-27T14:52:38Z</time>
      </trkpt>
      <trkpt lat="47.791" lon="-3.68076">
        <ele>32.7</ele>
        <time>2023-01-27T14:52:39Z</time>
      </trkpt>
      <trkpt lat="47.791" lon="-3.68077">
        <ele>32.7</ele>
        <time>2023-01-27T14:52:40Z</time>
      </trkpt>
      <trkpt lat="47.79099" lon="-3.68078">
        <ele>32.7</ele>
        <time>2023-01-27T14:52:41Z</time>
      </trkpt>
      <trkpt lat="47.79099" lon="-3.68079">
        <ele>32.7</ele>
        <time>2023-01-27T14:52:42Z</time>
      </trkpt>
      <trkpt lat="47.79098" lon="-3.68079">
        <ele>32.6</ele>
        <time>2023-01-27T14:52:43Z</time>
      </trkpt>
      <trkpt lat="47.79098" lon="-3.6808">
        <ele>32.6</ele>
        <time>2023-01-27T14:52:44Z</time>
      </trkpt>
      <trkpt lat="47.79098" lon="-3.68081">
        <ele>32.6</ele>
        <time>2023-01-27T14:52:45Z</time>
      </trkpt>
      <trkpt lat="47.79097" lon="-3.68082">
        <ele>32.6</ele>
        <time>2023-01-27T14:52:46Z</time>
      </trkpt>
      <trkpt lat="47.79097" lon="-3.68082">
        <ele>32.6</ele>
        <time>2023-01-27T14:52:47Z</time>
      </trkpt>
      <trkpt lat="47.79096" lon="-3.68083">
        <ele>32.6</ele>
        <time>2023-01-27T14:52:48Z</time>
      </trkpt>
      <trkpt lat="47.79096" lon="-3.68084">
        <ele>32.5</ele>
        <time>2023-01-27T14:52:49Z</time>
      </trkpt>
      <trkpt lat="47.79096" lon="-3.68085">
        <ele>32.5</ele>
        <time>2023-01-27T14:53:04Z</time>
      </trkpt>
      <trkpt lat="47.79095" lon="-3.68085">
        <ele>32.5</ele>
        <time>2023-01-27T14:53:05Z</time>
      </trkpt>
      <trkpt lat="47.79095" lon="-3.68086">
        <ele>32.5</ele>
        <time>2023-01-27T14:53:06Z</time>
      </trkpt>
      <trkpt lat="47.79094" lon="-3.6809">
        <ele>32.4</ele>
        <time>2023-01-27T14:53:07Z</time>
      </trkpt>
      <trkpt lat="47.79092" lon="-3.68094">
        <ele>32.3</ele>
        <time>2023-01-27T14:53:08Z</time>
      </trkpt>
      <trkpt lat="47.79088" lon="-3.68103">
        <ele>32.2</ele>
        <time>2023-01-27T14:53:09Z</time>
      </trkpt>
      <trkpt lat="47.79086" lon="-3.68107">
        <ele>32.1</ele>
        <time>2023-01-27T14:53:10Z</time>
      </trkpt>
      <trkpt lat="47.79084" lon="-3.6811">
        <ele>32.1</ele>
        <time>2023-01-27T14:53:11Z</time>
      </trkpt>
      <trkpt lat="47.79081" lon="-3.68114">
        <ele>32</ele>
        <time>2023-01-27T14:53:12Z</time>
      </trkpt>
      <trkpt lat="47.79077" lon="-3.6812">
        <ele>31.9</ele>
        <time>2023-01-27T14:53:13Z</time>
      </trkpt>
      <trkpt lat="47.79073" lon="-3.68125">
        <ele>31.8</ele>
        <time>2023-01-27T14:53:14Z</time>
      </trkpt>
      <trkpt lat="47.7907" lon="-3.68131">
        <ele>31.7</ele>
        <time>2023-01-27T14:53:15Z</time>
      </trkpt>
      <trkpt lat="47.79067" lon="-3.68138">
        <ele>31.6</ele>
        <time>2023-01-27T14:53:16Z</time>
      </trkpt>
      <trkpt lat="47.79064" lon="-3.68144">
        <ele>31.5</ele>
        <time>2023-01-27T14:53:17Z</time>
      </trkpt>
      <trkpt lat="47.7906" lon="-3.6815">
        <ele>31.4</ele>
        <time>2023-01-27T14:53:18Z</time>
      </trkpt>
      <trkpt lat="47.79056" lon="-3.68157">
        <ele>31.3</ele>
        <time>2023-01-27T14:53:19Z</time>
      </trkpt>
      <trkpt lat="47.79052" lon="-3.68163">
        <ele>31.1</ele>
        <time>2023-01-27T14:53:20Z</time>
      </trkpt>
      <trkpt lat="47.79048" lon="-3.6817">
        <ele>31</ele>
        <time>2023-01-27T14:53:21Z</time>
      </trkpt>
      <trkpt lat="47.79045" lon="-3.68177">
        <ele>30.9</ele>
        <time>2023-01-27T14:53:22Z</time>
      </trkpt>
      <trkpt lat="47.79041" lon="-3.68184">
        <ele>30.7</ele>
        <time>2023-01-27T14:53:23Z</time>
      </trkpt>
      <trkpt lat="47.79037" lon="-3.68191">
        <ele>30.6</ele>
        <time>2023-01-27T14:53:24Z</time>
      </trkpt>
      <trkpt lat="47.79033" lon="-3.68198">
        <ele>30.4</ele>
        <time>2023-01-27T14:53:25Z</time>
      </trkpt>
      <trkpt lat="47.79029" lon="-3.68205">
        <ele>30.3</ele>
        <time>2023-01-27T14:53:26Z</time>
      </trkpt>
      <trkpt lat="47.79025" lon="-3.68212">
        <ele>30.2</ele>
        <time>2023-01-27T14:53:27Z</time>
      </trkpt>
      <trkpt lat="47.7902" lon="-3.68219">
        <ele>30</ele>
        <time>2023-01-27T14:53:28Z</time>
      </trkpt>
      <trkpt lat="47.79016" lon="-3.68226">
        <ele>29.9</ele>
        <time>2023-01-27T14:53:29Z</time>
      </trkpt>
      <trkpt lat="47.79011" lon="-3.68233">
        <ele>29.7</ele>
        <time>2023-01-27T14:53:30Z</time>
      </trkpt>
      <trkpt lat="47.79006" lon="-3.6824">
        <ele>29.5</ele>
        <time>2023-01-27T14:53:31Z</time>
      </trkpt>
      <trkpt lat="47.79001" lon="-3.68246">
        <ele>29.3</ele>
        <time>2023-01-27T14:53:32Z</time>
      </trkpt>
      <trkpt lat="47.78996" lon="-3.68253">
        <ele>29</ele>
        <time>2023-01-27T14:53:33Z</time>
      </trkpt>
      <trkpt lat="47.78991" lon="-3.68259">
        <ele>28.8</ele>
        <time>2023-01-27T14:53:34Z</time>
      </trkpt>
      <trkpt lat="47.78985" lon="-3.68265">
        <ele>28.6</ele>
        <time>2023-01-27T14:53:35Z</time>
      </trkpt>
      <trkpt lat="47.7898" lon="-3.68271">
        <ele>28.4</ele>
        <time>2023-01-27T14:53:36Z</time>
      </trkpt>
      <trkpt lat="47.78974" lon="-3.68277">
        <ele>28.2</ele>
        <time>2023-01-27T14:53:37Z</time>
      </trkpt>
      <trkpt lat="47.78968" lon="-3.68283">
        <ele>27.9</ele>
        <time>2023-01-27T14:53:38Z</time>
      </trkpt>
      <trkpt lat="47.78962" lon="-3.68289">
        <ele>27.7</ele>
        <time>2023-01-27T14:53:39Z</time>
      </trkpt>
      <trkpt lat="47.78956" lon="-3.68296">
        <ele>27.5</ele>
        <time>2023-01-27T14:53:40Z</time>
      </trkpt>
      <trkpt lat="47.78951" lon="-3.68302">
        <ele>27.3</ele>
        <time>2023-01-27T14:53:41Z</time>
      </trkpt>
      <trkpt lat="47.78945" lon="-3.68308">
        <ele>27.1</ele>
        <time>2023-01-27T14:53:42Z</time>
      </trkpt>
      <trkpt lat="47.78938" lon="-3.68314">
        <ele>26.9</ele>
        <time>2023-01-27T14:53:43Z</time>
      </trkpt>
      <trkpt lat="47.78932" lon="-3.68319">
        <ele>26.7</ele>
        <time>2023-01-27T14:53:44Z</time>
      </trkpt>
      <trkpt lat="47.78926" lon="-3.68321">
        <ele>26.5</ele>
        <time>2023-01-27T14:53:45Z</time>
      </trkpt>
      <trkpt lat="47.78919" lon="-3.68322">
        <ele>26.3</ele>
        <time>2023-01-27T14:53:46Z</time>
      </trkpt>
      <trkpt lat="47.78912" lon="-3.6832">
        <ele>26.2</ele>
        <time>2023-01-27T14:53:47Z</time>
      </trkpt>
      <trkpt lat="47.78905" lon="-3.6832">
        <ele>26.1</ele>
        <time>2023-01-27T14:53:48Z</time>
      </trkpt>
      <trkpt lat="47.78899" lon="-3.68321">
        <ele>25.9</ele>
        <time>2023-01-27T14:53:49Z</time>
      </trkpt>
      <trkpt lat="47.78892" lon="-3.68321">
        <ele>25.8</ele>
        <time>2023-01-27T14:53:50Z</time>
      </trkpt>
      <trkpt lat="47.78885" lon="-3.68321">
        <ele>25.7</ele>
        <time>2023-01-27T14:53:51Z</time>
      </trkpt>
      <trkpt lat="47.78879" lon="-3.68321">
        <ele>25.6</ele>
        <time>2023-01-27T14:53:52Z</time>
      </trkpt>
      <trkpt lat="47.78872" lon="-3.68321">
        <ele>25.6</ele>
        <time>2023-01-27T14:53:53Z</time>
      </trkpt>
      <trkpt lat="47.78865" lon="-3.68322">
        <ele>25.5</ele>
        <time>2023-01-27T14:53:54Z</time>
      </trkpt>
      <trkpt lat="47.78858" lon="-3.68322">
        <ele>25.5</ele>
        <time>2023-01-27T14:53:55Z</time>
      </trkpt>
      <trkpt lat="47.78851" lon="-3.68322">
        <ele>25.5</ele>
        <time>2023-01-27T14:53:56Z</time>
      </trkpt>
      <trkpt lat="47.78844" lon="-3.68321">
        <ele>25.6</ele>
        <time>2023-01-27T14:53:57Z</time>
      </trkpt>
      <trkpt lat="47.78838" lon="-3.6832">
        <ele>25.7</ele>
        <time>2023-01-27T14:53:58Z</time>
      </trkpt>
      <trkpt lat="47.78832" lon="-3.68319">
        <ele>25.8</ele>
        <time>2023-01-27T14:53:59Z</time>
      </trkpt>
      <trkpt lat="47.78826" lon="-3.68318">
        <ele>25.9</ele>
        <time>2023-01-27T14:54:00Z</time>
      </trkpt>
      <trkpt lat="47.7882" lon="-3.68316">
        <ele>26</ele>
        <time>2023-01-27T14:54:01Z</time>
      </trkpt>
      <trkpt lat="47.78813" lon="-3.68315">
        <ele>26.2</ele>
        <time>2023-01-27T14:54:02Z</time>
      </trkpt>
      <trkpt lat="47.78808" lon="-3.68314">
        <ele>26.3</ele>
        <time>2023-01-27T14:54:03Z</time>
      </trkpt>
      <trkpt lat="47.78802" lon="-3.68314">
        <ele>26.4</ele>
        <time>2023-01-27T14:54:04Z</time>
      </trkpt>
      <trkpt lat="47.78796" lon="-3.68314">
        <ele>26.6</ele>
        <time>2023-01-27T14:54:05Z</time>
      </trkpt>
      <trkpt lat="47.78791" lon="-3.68314">
        <ele>26.7</ele>
        <time>2023-01-27T14:54:06Z</time>
      </trkpt>
      <trkpt lat="47.78785" lon="-3.68315">
        <ele>26.8</ele>
        <time>2023-01-27T14:54:07Z</time>
      </trkpt>
      <trkpt lat="47.78779" lon="-3.68317">
        <ele>26.9</ele>
        <time>2023-01-27T14:54:08Z</time>
      </trkpt>
      <trkpt lat="47.78774" lon="-3.68318">
        <ele>27</ele>
        <time>2023-01-27T14:54:09Z</time>
      </trkpt>
      <trkpt lat="47.78768" lon="-3.68317">
        <ele>27</ele>
        <time>2023-01-27T14:54:10Z</time>
      </trkpt>
      <trkpt lat="47.78763" lon="-3.68316">
        <ele>27.1</ele>
        <time>2023-01-27T14:54:11Z</time>
      </trkpt>
      <trkpt lat="47.78757" lon="-3.68315">
        <ele>27.2</ele>
        <time>2023-01-27T14:54:12Z</time>
      </trkpt>
      <trkpt lat="47.78752" lon="-3.68313">
        <ele>27.3</ele>
        <time>2023-01-27T14:54:13Z</time>
      </trkpt>
      <trkpt lat="47.78747" lon="-3.68313">
        <ele>27.4</ele>
        <time>2023-01-27T14:54:14Z</time>
      </trkpt>
      <trkpt lat="47.78742" lon="-3.68315">
        <ele>27.6</ele>
        <time>2023-01-27T14:54:15Z</time>
      </trkpt>
      <trkpt lat="47.78738" lon="-3.68321">
        <ele>27.6</ele>
        <time>2023-01-27T14:54:16Z</time>
      </trkpt>
      <trkpt lat="47.78737" lon="-3.68328">
        <ele>27.5</ele>
        <time>2023-01-27T14:54:17Z</time>
      </trkpt>
      <trkpt lat="47.78736" lon="-3.68335">
        <ele>27.4</ele>
        <time>2023-01-27T14:54:18Z</time>
      </trkpt>
      <trkpt lat="47.78735" lon="-3.68343">
        <ele>27.3</ele>
        <time>2023-01-27T14:54:19Z</time>
      </trkpt>
      <trkpt lat="47.78734" lon="-3.6835">
        <ele>27.2</ele>
        <time>2023-01-27T14:54:20Z</time>
      </trkpt>
      <trkpt lat="47.78732" lon="-3.68359">
        <ele>27.1</ele>
        <time>2023-01-27T14:54:21Z</time>
      </trkpt>
      <trkpt lat="47.78731" lon="-3.68366">
        <ele>26.9</ele>
        <time>2023-01-27T14:54:22Z</time>
      </trkpt>
      <trkpt lat="47.78731" lon="-3.68375">
        <ele>26.8</ele>
        <time>2023-01-27T14:54:23Z</time>
      </trkpt>
      <trkpt lat="47.78731" lon="-3.68384">
        <ele>26.7</ele>
        <time>2023-01-27T14:54:24Z</time>
      </trkpt>
      <trkpt lat="47.78731" lon="-3.68393">
        <ele>26.5</ele>
        <time>2023-01-27T14:54:25Z</time>
      </trkpt>
      <trkpt lat="47.78731" lon="-3.684">
        <ele>26.5</ele>
        <time>2023-01-27T14:54:26Z</time>
      </trkpt>
      <trkpt lat="47.7873" lon="-3.68408">
        <ele>26.4</ele>
        <time>2023-01-27T14:54:27Z</time>
      </trkpt>
      <trkpt lat="47.7873" lon="-3.68417">
        <ele>26.3</ele>
        <time>2023-01-27T14:54:28Z</time>
      </trkpt>
      <trkpt lat="47.78729" lon="-3.68426">
        <ele>26.2</ele>
        <time>2023-01-27T14:54:29Z</time>
      </trkpt>
      <trkpt lat="47.78728" lon="-3.68434">
        <ele>26.1</ele>
        <time>2023-01-27T14:54:30Z</time>
      </trkpt>
      <trkpt lat="47.78727" lon="-3.68443">
        <ele>26</ele>
        <time>2023-01-27T14:54:31Z</time>
      </trkpt>
      <trkpt lat="47.78727" lon="-3.68451">
        <ele>26</ele>
        <time>2023-01-27T14:54:32Z</time>
      </trkpt>
      <trkpt lat="47.78726" lon="-3.68459">
        <ele>25.9</ele>
        <time>2023-01-27T14:54:33Z</time>
      </trkpt>
      <trkpt lat="47.78724" lon="-3.68467">
        <ele>25.9</ele>
        <time>2023-01-27T14:54:34Z</time>
      </trkpt>
      <trkpt lat="47.78723" lon="-3.68473">
        <ele>25.9</ele>
        <time>2023-01-27T14:54:35Z</time>
      </trkpt>
      <trkpt lat="47.7872" lon="-3.6848">
        <ele>25.8</ele>
        <time>2023-01-27T14:54:36Z</time>
      </trkpt>
      <trkpt lat="47.78717" lon="-3.68486">
        <ele>25.8</ele>
        <time>2023-01-27T14:54:37Z</time>
      </trkpt>
      <trkpt lat="47.78715" lon="-3.68491">
        <ele>25.8</ele>
        <time>2023-01-27T14:54:38Z</time>
      </trkpt>
      <trkpt lat="47.78712" lon="-3.68497">
        <ele>25.9</ele>
        <time>2023-01-27T14:54:39Z</time>
      </trkpt>
      <trkpt lat="47.78709" lon="-3.68504">
        <ele>25.9</ele>
        <time>2023-01-27T14:54:40Z</time>
      </trkpt>
      <trkpt lat="47.78706" lon="-3.6851">
        <ele>25.9</ele>
        <time>2023-01-27T14:54:41Z</time>
      </trkpt>
      <trkpt lat="47.78704" lon="-3.68515">
        <ele>25.9</ele>
        <time>2023-01-27T14:54:42Z</time>
      </trkpt>
      <trkpt lat="47.78701" lon="-3.6852">
        <ele>25.9</ele>
        <time>2023-01-27T14:54:43Z</time>
      </trkpt>
      <trkpt lat="47.78697" lon="-3.68526">
        <ele>25.9</ele>
        <time>2023-01-27T14:54:44Z</time>
      </trkpt>
      <trkpt lat="47.78693" lon="-3.68531">
        <ele>25.9</ele>
        <time>2023-01-27T14:54:45Z</time>
      </trkpt>
      <trkpt lat="47.78689" lon="-3.68535">
        <ele>25.9</ele>
        <time>2023-01-27T14:54:46Z</time>
      </trkpt>
      <trkpt lat="47.78687" lon="-3.68541">
        <ele>25.8</ele>
        <time>2023-01-27T14:54:47Z</time>
      </trkpt>
      <trkpt lat="47.78685" lon="-3.68544">
        <ele>25.8</ele>
        <time>2023-01-27T14:54:48Z</time>
      </trkpt>
      <trkpt lat="47.7868" lon="-3.68549">
        <ele>25.8</ele>
        <time>2023-01-27T14:54:49Z</time>
      </trkpt>
      <trkpt lat="47.78676" lon="-3.68553">
        <ele>25.8</ele>
        <time>2023-01-27T14:54:50Z</time>
      </trkpt>
      <trkpt lat="47.78672" lon="-3.68558">
        <ele>25.8</ele>
        <time>2023-01-27T14:54:51Z</time>
      </trkpt>
      <trkpt lat="47.7867" lon="-3.68559">
        <ele>25.8</ele>
        <time>2023-01-27T14:54:52Z</time>
      </trkpt>
      <trkpt lat="47.78668" lon="-3.68559">
        <ele>25.8</ele>
        <time>2023-01-27T14:54:53Z</time>
      </trkpt>
      <trkpt lat="47.78659" lon="-3.68567">
        <ele>25.8</ele>
        <time>2023-01-27T14:54:54Z</time>
      </trkpt>
      <trkpt lat="47.7865" lon="-3.68573">
        <ele>25.9</ele>
        <time>2023-01-27T14:54:56Z</time>
      </trkpt>
      <trkpt lat="47.78646" lon="-3.68575">
        <ele>25.9</ele>
        <time>2023-01-27T14:54:57Z</time>
      </trkpt>
      <trkpt lat="47.78641" lon="-3.68583">
        <ele>25.9</ele>
        <time>2023-01-27T14:54:59Z</time>
      </trkpt>
      <trkpt lat="47.78636" lon="-3.68585">
        <ele>25.9</ele>
        <time>2023-01-27T14:55:00Z</time>
      </trkpt>
      <trkpt lat="47.78633" lon="-3.68586">
        <ele>25.9</ele>
        <time>2023-01-27T14:55:01Z</time>
      </trkpt>
      <trkpt lat="47.78628" lon="-3.68589">
        <ele>25.9</ele>
        <time>2023-01-27T14:55:02Z</time>
      </trkpt>
      <trkpt lat="47.78623" lon="-3.68592">
        <ele>25.8</ele>
        <time>2023-01-27T14:55:03Z</time>
      </trkpt>
      <trkpt lat="47.78619" lon="-3.68596">
        <ele>25.7</ele>
        <time>2023-01-27T14:55:04Z</time>
      </trkpt>
      <trkpt lat="47.78611" lon="-3.68598">
        <ele>25.6</ele>
        <time>2023-01-27T14:55:06Z</time>
      </trkpt>
      <trkpt lat="47.78603" lon="-3.68595">
        <ele>25.4</ele>
        <time>2023-01-27T14:55:08Z</time>
      </trkpt>
      <trkpt lat="47.78597" lon="-3.68599">
        <ele>25.3</ele>
        <time>2023-01-27T14:55:10Z</time>
      </trkpt>
      <trkpt lat="47.78593" lon="-3.68604">
        <ele>25.2</ele>
        <time>2023-01-27T14:55:11Z</time>
      </trkpt>
      <trkpt lat="47.78588" lon="-3.68608">
        <ele>25.1</ele>
        <time>2023-01-27T14:55:12Z</time>
      </trkpt>
      <trkpt lat="47.78584" lon="-3.68611">
        <ele>25</ele>
        <time>2023-01-27T14:55:13Z</time>
      </trkpt>
      <trkpt lat="47.78579" lon="-3.68614">
        <ele>25</ele>
        <time>2023-01-27T14:55:14Z</time>
      </trkpt>
      <trkpt lat="47.78575" lon="-3.68617">
        <ele>24.6</ele>
        <time>2023-01-27T14:55:15Z</time>
      </trkpt>
      <trkpt lat="47.78571" lon="-3.68622">
        <ele>24.6</ele>
        <time>2023-01-27T14:55:16Z</time>
      </trkpt>
      <trkpt lat="47.78567" lon="-3.68626">
        <ele>24.3</ele>
        <time>2023-01-27T14:55:17Z</time>
      </trkpt>
      <trkpt lat="47.78563" lon="-3.68628">
        <ele>24</ele>
        <time>2023-01-27T14:55:18Z</time>
      </trkpt>
      <trkpt lat="47.78558" lon="-3.68631">
        <ele>23.7</ele>
        <time>2023-01-27T14:55:19Z</time>
      </trkpt>
      <trkpt lat="47.78553" lon="-3.68634">
        <ele>23.4</ele>
        <time>2023-01-27T14:55:20Z</time>
      </trkpt>
      <trkpt lat="47.78547" lon="-3.68637">
        <ele>23.1</ele>
        <time>2023-01-27T14:55:21Z</time>
      </trkpt>
      <trkpt lat="47.78542" lon="-3.68641">
        <ele>22.8</ele>
        <time>2023-01-27T14:55:22Z</time>
      </trkpt>
      <trkpt lat="47.78536" lon="-3.68645">
        <ele>22.5</ele>
        <time>2023-01-27T14:55:23Z</time>
      </trkpt>
      <trkpt lat="47.78532" lon="-3.68649">
        <ele>22.3</ele>
        <time>2023-01-27T14:55:24Z</time>
      </trkpt>
      <trkpt lat="47.78527" lon="-3.68653">
        <ele>22.2</ele>
        <time>2023-01-27T14:55:25Z</time>
      </trkpt>
      <trkpt lat="47.78522" lon="-3.68657">
        <ele>22.1</ele>
        <time>2023-01-27T14:55:26Z</time>
      </trkpt>
      <trkpt lat="47.78517" lon="-3.68661">
        <ele>21.9</ele>
        <time>2023-01-27T14:55:27Z</time>
      </trkpt>
      <trkpt lat="47.78513" lon="-3.68665">
        <ele>21.8</ele>
        <time>2023-01-27T14:55:28Z</time>
      </trkpt>
      <trkpt lat="47.78509" lon="-3.68669">
        <ele>21.7</ele>
        <time>2023-01-27T14:55:29Z</time>
      </trkpt>
      <trkpt lat="47.78506" lon="-3.68673">
        <ele>21.6</ele>
        <time>2023-01-27T14:55:30Z</time>
      </trkpt>
      <trkpt lat="47.78504" lon="-3.68677">
        <ele>21.5</ele>
        <time>2023-01-27T14:55:31Z</time>
      </trkpt>
      <trkpt lat="47.78499" lon="-3.68683">
        <ele>21.3</ele>
        <time>2023-01-27T14:55:32Z</time>
      </trkpt>
      <trkpt lat="47.78495" lon="-3.68689">
        <ele>21.1</ele>
        <time>2023-01-27T14:55:33Z</time>
      </trkpt>
      <trkpt lat="47.78493" lon="-3.68693">
        <ele>21</ele>
        <time>2023-01-27T14:55:34Z</time>
      </trkpt>
      <trkpt lat="47.7849" lon="-3.68697">
        <ele>20.8</ele>
        <time>2023-01-27T14:55:35Z</time>
      </trkpt>
      <trkpt lat="47.78482" lon="-3.68705">
        <ele>20.4</ele>
        <time>2023-01-27T14:55:37Z</time>
      </trkpt>
      <trkpt lat="47.78479" lon="-3.6871">
        <ele>20.2</ele>
        <time>2023-01-27T14:55:38Z</time>
      </trkpt>
      <trkpt lat="47.78475" lon="-3.68715">
        <ele>19.9</ele>
        <time>2023-01-27T14:55:39Z</time>
      </trkpt>
      <trkpt lat="47.7847" lon="-3.68721">
        <ele>19.6</ele>
        <time>2023-01-27T14:55:40Z</time>
      </trkpt>
      <trkpt lat="47.78465" lon="-3.68729">
        <ele>19.2</ele>
        <time>2023-01-27T14:55:41Z</time>
      </trkpt>
      <trkpt lat="47.78462" lon="-3.68734">
        <ele>19</ele>
        <time>2023-01-27T14:55:42Z</time>
      </trkpt>
      <trkpt lat="47.78459" lon="-3.6874">
        <ele>18.7</ele>
        <time>2023-01-27T14:55:43Z</time>
      </trkpt>
      <trkpt lat="47.78455" lon="-3.68748">
        <ele>18.4</ele>
        <time>2023-01-27T14:55:44Z</time>
      </trkpt>
      <trkpt lat="47.78451" lon="-3.68754">
        <ele>18.1</ele>
        <time>2023-01-27T14:55:45Z</time>
      </trkpt>
      <trkpt lat="47.78448" lon="-3.6876">
        <ele>17.8</ele>
        <time>2023-01-27T14:55:46Z</time>
      </trkpt>
      <trkpt lat="47.78446" lon="-3.68766">
        <ele>17.6</ele>
        <time>2023-01-27T14:55:47Z</time>
      </trkpt>
      <trkpt lat="47.78444" lon="-3.68769">
        <ele>17.5</ele>
        <time>2023-01-27T14:55:48Z</time>
      </trkpt>
      <trkpt lat="47.78442" lon="-3.68776">
        <ele>17.2</ele>
        <time>2023-01-27T14:55:49Z</time>
      </trkpt>
      <trkpt lat="47.78441" lon="-3.68782">
        <ele>17.1</ele>
        <time>2023-01-27T14:55:50Z</time>
      </trkpt>
      <trkpt lat="47.78439" lon="-3.6879">
        <ele>16.8</ele>
        <time>2023-01-27T14:55:51Z</time>
      </trkpt>
      <trkpt lat="47.78437" lon="-3.68796">
        <ele>16.6</ele>
        <time>2023-01-27T14:55:52Z</time>
      </trkpt>
      <trkpt lat="47.78435" lon="-3.68804">
        <ele>16.4</ele>
        <time>2023-01-27T14:55:53Z</time>
      </trkpt>
      <trkpt lat="47.78433" lon="-3.68811">
        <ele>16.2</ele>
        <time>2023-01-27T14:55:54Z</time>
      </trkpt>
      <trkpt lat="47.7843" lon="-3.68813">
        <ele>16.1</ele>
        <time>2023-01-27T14:55:55Z</time>
      </trkpt>
      <trkpt lat="47.78425" lon="-3.68819">
        <ele>15.9</ele>
        <time>2023-01-27T14:55:56Z</time>
      </trkpt>
      <trkpt lat="47.78423" lon="-3.68825">
        <ele>15.8</ele>
        <time>2023-01-27T14:55:57Z</time>
      </trkpt>
      <trkpt lat="47.7842" lon="-3.68831">
        <ele>15.6</ele>
        <time>2023-01-27T14:55:58Z</time>
      </trkpt>
      <trkpt lat="47.78417" lon="-3.68837">
        <ele>15.5</ele>
        <time>2023-01-27T14:55:59Z</time>
      </trkpt>
      <trkpt lat="47.78414" lon="-3.68842">
        <ele>15.3</ele>
        <time>2023-01-27T14:56:00Z</time>
      </trkpt>
      <trkpt lat="47.78411" lon="-3.68846">
        <ele>15.2</ele>
        <time>2023-01-27T14:56:01Z</time>
      </trkpt>
      <trkpt lat="47.78406" lon="-3.68851">
        <ele>15.1</ele>
        <time>2023-01-27T14:56:02Z</time>
      </trkpt>
      <trkpt lat="47.78403" lon="-3.68857">
        <ele>14.9</ele>
        <time>2023-01-27T14:56:03Z</time>
      </trkpt>
      <trkpt lat="47.78399" lon="-3.68862">
        <ele>14.8</ele>
        <time>2023-01-27T14:56:04Z</time>
      </trkpt>
      <trkpt lat="47.78395" lon="-3.68866">
        <ele>14.7</ele>
        <time>2023-01-27T14:56:05Z</time>
      </trkpt>
      <trkpt lat="47.78391" lon="-3.6887">
        <ele>14.6</ele>
        <time>2023-01-27T14:56:06Z</time>
      </trkpt>
      <trkpt lat="47.78387" lon="-3.68874">
        <ele>14.5</ele>
        <time>2023-01-27T14:56:07Z</time>
      </trkpt>
      <trkpt lat="47.78382" lon="-3.68877">
        <ele>14.4</ele>
        <time>2023-01-27T14:56:08Z</time>
      </trkpt>
      <trkpt lat="47.78378" lon="-3.6888">
        <ele>14.3</ele>
        <time>2023-01-27T14:56:09Z</time>
      </trkpt>
      <trkpt lat="47.78374" lon="-3.68884">
        <ele>14.2</ele>
        <time>2023-01-27T14:56:10Z</time>
      </trkpt>
      <trkpt lat="47.7837" lon="-3.68888">
        <ele>14.2</ele>
        <time>2023-01-27T14:56:11Z</time>
      </trkpt>
      <trkpt lat="47.78365" lon="-3.68891">
        <ele>14.1</ele>
        <time>2023-01-27T14:56:12Z</time>
      </trkpt>
      <trkpt lat="47.78361" lon="-3.68895">
        <ele>14.1</ele>
        <time>2023-01-27T14:56:13Z</time>
      </trkpt>
      <trkpt lat="47.78357" lon="-3.68898">
        <ele>14.1</ele>
        <time>2023-01-27T14:56:14Z</time>
      </trkpt>
      <trkpt lat="47.78353" lon="-3.689">
        <ele>14.1</ele>
        <time>2023-01-27T14:56:15Z</time>
      </trkpt>
      <trkpt lat="47.78349" lon="-3.68902">
        <ele>14.1</ele>
        <time>2023-01-27T14:56:16Z</time>
      </trkpt>
      <trkpt lat="47.78345" lon="-3.68903">
        <ele>14</ele>
        <time>2023-01-27T14:56:17Z</time>
      </trkpt>
      <trkpt lat="47.78342" lon="-3.68905">
        <ele>14</ele>
        <time>2023-01-27T14:56:18Z</time>
      </trkpt>
      <trkpt lat="47.78337" lon="-3.68908">
        <ele>14.1</ele>
        <time>2023-01-27T14:56:19Z</time>
      </trkpt>
      <trkpt lat="47.78332" lon="-3.68909">
        <ele>14.1</ele>
        <time>2023-01-27T14:56:20Z</time>
      </trkpt>
      <trkpt lat="47.78326" lon="-3.68911">
        <ele>14.3</ele>
        <time>2023-01-27T14:56:21Z</time>
      </trkpt>
      <trkpt lat="47.78321" lon="-3.68909">
        <ele>14.6</ele>
        <time>2023-01-27T14:56:22Z</time>
      </trkpt>
      <trkpt lat="47.78314" lon="-3.68901">
        <ele>15.1</ele>
        <time>2023-01-27T14:56:24Z</time>
      </trkpt>
      <trkpt lat="47.78312" lon="-3.68896">
        <ele>15.4</ele>
        <time>2023-01-27T14:56:26Z</time>
      </trkpt>
      <trkpt lat="47.78313" lon="-3.68891">
        <ele>15.5</ele>
        <time>2023-01-27T14:56:27Z</time>
      </trkpt>
      <trkpt lat="47.78313" lon="-3.68885">
        <ele>15.8</ele>
        <time>2023-01-27T14:56:28Z</time>
      </trkpt>
      <trkpt lat="47.78313" lon="-3.68881">
        <ele>15.9</ele>
        <time>2023-01-27T14:56:30Z</time>
      </trkpt>
      <trkpt lat="47.78313" lon="-3.68879">
        <ele>16</ele>
        <time>2023-01-27T14:56:31Z</time>
      </trkpt>
      <trkpt lat="47.78313" lon="-3.68875">
        <ele>16.1</ele>
        <time>2023-01-27T14:56:32Z</time>
      </trkpt>
      <trkpt lat="47.78313" lon="-3.6887">
        <ele>16.3</ele>
        <time>2023-01-27T14:56:33Z</time>
      </trkpt>
      <trkpt lat="47.78313" lon="-3.68865">
        <ele>16.4</ele>
        <time>2023-01-27T14:56:34Z</time>
      </trkpt>
      <trkpt lat="47.78313" lon="-3.6886">
        <ele>16.6</ele>
        <time>2023-01-27T14:56:35Z</time>
      </trkpt>
      <trkpt lat="47.78313" lon="-3.68854">
        <ele>16.7</ele>
        <time>2023-01-27T14:56:36Z</time>
      </trkpt>
      <trkpt lat="47.78313" lon="-3.68851">
        <ele>16.7</ele>
        <time>2023-01-27T14:56:37Z</time>
      </trkpt>
      <trkpt lat="47.78312" lon="-3.68845">
        <ele>16.8</ele>
        <time>2023-01-27T14:56:38Z</time>
      </trkpt>
      <trkpt lat="47.78312" lon="-3.68843">
        <ele>16.9</ele>
        <time>2023-01-27T14:56:39Z</time>
      </trkpt>
      <trkpt lat="47.78312" lon="-3.68836">
        <ele>17</ele>
        <time>2023-01-27T14:56:40Z</time>
      </trkpt>
      <trkpt lat="47.78311" lon="-3.68832">
        <ele>17</ele>
        <time>2023-01-27T14:56:41Z</time>
      </trkpt>
      <trkpt lat="47.78309" lon="-3.68827">
        <ele>17</ele>
        <time>2023-01-27T14:56:42Z</time>
      </trkpt>
      <trkpt lat="47.78308" lon="-3.68825">
        <ele>17</ele>
        <time>2023-01-27T14:56:43Z</time>
      </trkpt>
      <trkpt lat="47.78304" lon="-3.68825">
        <ele>17</ele>
        <time>2023-01-27T14:56:45Z</time>
      </trkpt>
      <trkpt lat="47.78299" lon="-3.68824">
        <ele>17</ele>
        <time>2023-01-27T14:56:46Z</time>
      </trkpt>
      <trkpt lat="47.78295" lon="-3.68822">
        <ele>17</ele>
        <time>2023-01-27T14:56:48Z</time>
      </trkpt>
      <trkpt lat="47.78291" lon="-3.68815">
        <ele>17</ele>
        <time>2023-01-27T14:56:49Z</time>
      </trkpt>
      <trkpt lat="47.7829" lon="-3.6881">
        <ele>17.1</ele>
        <time>2023-01-27T14:56:50Z</time>
      </trkpt>
      <trkpt lat="47.78289" lon="-3.68801">
        <ele>17.1</ele>
        <time>2023-01-27T14:56:52Z</time>
      </trkpt>
      <trkpt lat="47.78289" lon="-3.68796">
        <ele>17.1</ele>
        <time>2023-01-27T14:56:53Z</time>
      </trkpt>
      <trkpt lat="47.78287" lon="-3.68787">
        <ele>17.1</ele>
        <time>2023-01-27T14:56:55Z</time>
      </trkpt>
      <trkpt lat="47.78286" lon="-3.68784">
        <ele>17.1</ele>
        <time>2023-01-27T14:56:57Z</time>
      </trkpt>
      <trkpt lat="47.78284" lon="-3.6878">
        <ele>17.1</ele>
        <time>2023-01-27T14:56:58Z</time>
      </trkpt>
      <trkpt lat="47.78281" lon="-3.68778">
        <ele>17.1</ele>
        <time>2023-01-27T14:56:59Z</time>
      </trkpt>
      <trkpt lat="47.78278" lon="-3.68776">
        <ele>17.1</ele>
        <time>2023-01-27T14:57:00Z</time>
      </trkpt>
      <trkpt lat="47.78276" lon="-3.68772">
        <ele>17.1</ele>
        <time>2023-01-27T14:57:01Z</time>
      </trkpt>
      <trkpt lat="47.78276" lon="-3.68767">
        <ele>17.1</ele>
        <time>2023-01-27T14:57:02Z</time>
      </trkpt>
      <trkpt lat="47.78277" lon="-3.68763">
        <ele>17.1</ele>
        <time>2023-01-27T14:57:03Z</time>
      </trkpt>
      <trkpt lat="47.78278" lon="-3.68757">
        <ele>17.1</ele>
        <time>2023-01-27T14:57:04Z</time>
      </trkpt>
      <trkpt lat="47.78278" lon="-3.68752">
        <ele>17.1</ele>
        <time>2023-01-27T14:57:05Z</time>
      </trkpt>
      <trkpt lat="47.78278" lon="-3.68747">
        <ele>17.1</ele>
        <time>2023-01-27T14:57:06Z</time>
      </trkpt>
      <trkpt lat="47.78278" lon="-3.68742">
        <ele>17.2</ele>
        <time>2023-01-27T14:57:07Z</time>
      </trkpt>
      <trkpt lat="47.78277" lon="-3.68738">
        <ele>17.2</ele>
        <time>2023-01-27T14:57:08Z</time>
      </trkpt>
      <trkpt lat="47.78277" lon="-3.68733">
        <ele>17.2</ele>
        <time>2023-01-27T14:57:09Z</time>
      </trkpt>
      <trkpt lat="47.78277" lon="-3.68729">
        <ele>17.3</ele>
        <time>2023-01-27T14:57:10Z</time>
      </trkpt>
      <trkpt lat="47.78276" lon="-3.68723">
        <ele>17.4</ele>
        <time>2023-01-27T14:57:11Z</time>
      </trkpt>
      <trkpt lat="47.78276" lon="-3.68718">
        <ele>17.4</ele>
        <time>2023-01-27T14:57:12Z</time>
      </trkpt>
      <trkpt lat="47.78275" lon="-3.68714">
        <ele>17.5</ele>
        <time>2023-01-27T14:57:13Z</time>
      </trkpt>
      <trkpt lat="47.78275" lon="-3.68709">
        <ele>17.5</ele>
        <time>2023-01-27T14:57:14Z</time>
      </trkpt>
      <trkpt lat="47.78275" lon="-3.68704">
        <ele>17.6</ele>
        <time>2023-01-27T14:57:15Z</time>
      </trkpt>
      <trkpt lat="47.78275" lon="-3.68698">
        <ele>17.6</ele>
        <time>2023-01-27T14:57:16Z</time>
      </trkpt>
      <trkpt lat="47.78275" lon="-3.68694">
        <ele>17.5</ele>
        <time>2023-01-27T14:57:17Z</time>
      </trkpt>
      <trkpt lat="47.78272" lon="-3.6869">
        <ele>17.3</ele>
        <time>2023-01-27T14:57:18Z</time>
      </trkpt>
      <trkpt lat="47.78264" lon="-3.68694">
        <ele>16.9</ele>
        <time>2023-01-27T14:57:20Z</time>
      </trkpt>
      <trkpt lat="47.7826" lon="-3.68697">
        <ele>16.7</ele>
        <time>2023-01-27T14:57:21Z</time>
      </trkpt>
      <trkpt lat="47.78256" lon="-3.68698">
        <ele>16.4</ele>
        <time>2023-01-27T14:57:22Z</time>
      </trkpt>
      <trkpt lat="47.78251" lon="-3.68701">
        <ele>16.2</ele>
        <time>2023-01-27T14:57:24Z</time>
      </trkpt>
      <trkpt lat="47.78246" lon="-3.68702">
        <ele>16</ele>
        <time>2023-01-27T14:57:25Z</time>
      </trkpt>
      <trkpt lat="47.78243" lon="-3.687">
        <ele>15.8</ele>
        <time>2023-01-27T14:57:26Z</time>
      </trkpt>
      <trkpt lat="47.78237" lon="-3.68694">
        <ele>15.7</ele>
        <time>2023-01-27T14:57:28Z</time>
      </trkpt>
      <trkpt lat="47.78235" lon="-3.68687">
        <ele>15.6</ele>
        <time>2023-01-27T14:57:30Z</time>
      </trkpt>
      <trkpt lat="47.78233" lon="-3.68683">
        <ele>15.6</ele>
        <time>2023-01-27T14:57:31Z</time>
      </trkpt>
      <trkpt lat="47.78231" lon="-3.68677">
        <ele>15.6</ele>
        <time>2023-01-27T14:57:32Z</time>
      </trkpt>
      <trkpt lat="47.7823" lon="-3.68675">
        <ele>15.6</ele>
        <time>2023-01-27T14:57:33Z</time>
      </trkpt>
      <trkpt lat="47.78226" lon="-3.68662">
        <ele>15.7</ele>
        <time>2023-01-27T14:57:34Z</time>
      </trkpt>
      <trkpt lat="47.78223" lon="-3.68654">
        <ele>15.8</ele>
        <time>2023-01-27T14:57:36Z</time>
      </trkpt>
      <trkpt lat="47.78221" lon="-3.68647">
        <ele>15.9</ele>
        <time>2023-01-27T14:57:37Z</time>
      </trkpt>
      <trkpt lat="47.7822" lon="-3.68642">
        <ele>16</ele>
        <time>2023-01-27T14:57:39Z</time>
      </trkpt>
      <trkpt lat="47.78218" lon="-3.68636">
        <ele>16.1</ele>
        <time>2023-01-27T14:57:40Z</time>
      </trkpt>
      <trkpt lat="47.78216" lon="-3.6863">
        <ele>16.2</ele>
        <time>2023-01-27T14:57:41Z</time>
      </trkpt>
      <trkpt lat="47.78215" lon="-3.68625">
        <ele>16.2</ele>
        <time>2023-01-27T14:57:42Z</time>
      </trkpt>
      <trkpt lat="47.78214" lon="-3.6862">
        <ele>16.3</ele>
        <time>2023-01-27T14:57:43Z</time>
      </trkpt>
      <trkpt lat="47.78213" lon="-3.68614">
        <ele>16.4</ele>
        <time>2023-01-27T14:57:44Z</time>
      </trkpt>
      <trkpt lat="47.78212" lon="-3.6861">
        <ele>16.5</ele>
        <time>2023-01-27T14:57:45Z</time>
      </trkpt>
      <trkpt lat="47.78211" lon="-3.68604">
        <ele>16.6</ele>
        <time>2023-01-27T14:57:46Z</time>
      </trkpt>
      <trkpt lat="47.78211" lon="-3.68599">
        <ele>16.7</ele>
        <time>2023-01-27T14:57:47Z</time>
      </trkpt>
      <trkpt lat="47.7821" lon="-3.68593">
        <ele>16.8</ele>
        <time>2023-01-27T14:57:48Z</time>
      </trkpt>
      <trkpt lat="47.78209" lon="-3.68589">
        <ele>16.8</ele>
        <time>2023-01-27T14:57:49Z</time>
      </trkpt>
      <trkpt lat="47.78208" lon="-3.68584">
        <ele>16.9</ele>
        <time>2023-01-27T14:57:50Z</time>
      </trkpt>
      <trkpt lat="47.78206" lon="-3.6858">
        <ele>16.9</ele>
        <time>2023-01-27T14:57:51Z</time>
      </trkpt>
      <trkpt lat="47.78203" lon="-3.68578">
        <ele>16.8</ele>
        <time>2023-01-27T14:57:52Z</time>
      </trkpt>
      <trkpt lat="47.78198" lon="-3.68579">
        <ele>16.8</ele>
        <time>2023-01-27T14:57:53Z</time>
      </trkpt>
      <trkpt lat="47.78193" lon="-3.6858">
        <ele>16.8</ele>
        <time>2023-01-27T14:57:54Z</time>
      </trkpt>
      <trkpt lat="47.7819" lon="-3.68571">
        <ele>16.8</ele>
        <time>2023-01-27T14:57:56Z</time>
      </trkpt>
      <trkpt lat="47.7819" lon="-3.68565">
        <ele>16.8</ele>
        <time>2023-01-27T14:57:58Z</time>
      </trkpt>
      <trkpt lat="47.78191" lon="-3.6856">
        <ele>16.8</ele>
        <time>2023-01-27T14:57:59Z</time>
      </trkpt>
      <trkpt lat="47.78192" lon="-3.68555">
        <ele>16.8</ele>
        <time>2023-01-27T14:58:00Z</time>
      </trkpt>
      <trkpt lat="47.78192" lon="-3.68551">
        <ele>16.9</ele>
        <time>2023-01-27T14:58:01Z</time>
      </trkpt>
      <trkpt lat="47.78194" lon="-3.68545">
        <ele>17</ele>
        <time>2023-01-27T14:58:02Z</time>
      </trkpt>
      <trkpt lat="47.78196" lon="-3.68541">
        <ele>17</ele>
        <time>2023-01-27T14:58:03Z</time>
      </trkpt>
      <trkpt lat="47.78197" lon="-3.68536">
        <ele>17.1</ele>
        <time>2023-01-27T14:58:04Z</time>
      </trkpt>
      <trkpt lat="47.78197" lon="-3.68531">
        <ele>17.1</ele>
        <time>2023-01-27T14:58:05Z</time>
      </trkpt>
      <trkpt lat="47.78196" lon="-3.68526">
        <ele>17.2</ele>
        <time>2023-01-27T14:58:06Z</time>
      </trkpt>
      <trkpt lat="47.78196" lon="-3.68522">
        <ele>17.2</ele>
        <time>2023-01-27T14:58:07Z</time>
      </trkpt>
      <trkpt lat="47.78196" lon="-3.68517">
        <ele>17.2</ele>
        <time>2023-01-27T14:58:08Z</time>
      </trkpt>
      <trkpt lat="47.78196" lon="-3.68512">
        <ele>17.2</ele>
        <time>2023-01-27T14:58:09Z</time>
      </trkpt>
      <trkpt lat="47.78196" lon="-3.68506">
        <ele>17.1</ele>
        <time>2023-01-27T14:58:10Z</time>
      </trkpt>
      <trkpt lat="47.78195" lon="-3.68499">
        <ele>17.1</ele>
        <time>2023-01-27T14:58:11Z</time>
      </trkpt>
      <trkpt lat="47.78195" lon="-3.68494">
        <ele>17.1</ele>
        <time>2023-01-27T14:58:12Z</time>
      </trkpt>
      <trkpt lat="47.78195" lon="-3.68488">
        <ele>17</ele>
        <time>2023-01-27T14:58:13Z</time>
      </trkpt>
      <trkpt lat="47.78195" lon="-3.68483">
        <ele>17</ele>
        <time>2023-01-27T14:58:14Z</time>
      </trkpt>
      <trkpt lat="47.78195" lon="-3.68478">
        <ele>16.9</ele>
        <time>2023-01-27T14:58:15Z</time>
      </trkpt>
      <trkpt lat="47.78195" lon="-3.68473">
        <ele>16.9</ele>
        <time>2023-01-27T14:58:16Z</time>
      </trkpt>
      <trkpt lat="47.78195" lon="-3.68468">
        <ele>16.9</ele>
        <time>2023-01-27T14:58:17Z</time>
      </trkpt>
      <trkpt lat="47.78194" lon="-3.68462">
        <ele>16.9</ele>
        <time>2023-01-27T14:58:18Z</time>
        <extensions>
          <visugpx:TrkExtension xmlns:visugpx="https://www.visugpx.com/editgpx/">
            <visugpx:node>5</visugpx:node>
            </visugpx:TrkExtension>
        </extensions>
      </trkpt>
      <trkpt lat="47.78199" lon="-3.68443">
        <ele>18.2</ele>
        <time>2023-01-27T14:59:39Z</time>
        <extensions>
          <visugpx:TrkExtension xmlns:visugpx="https://www.visugpx.com/editgpx/">
            <visugpx:node>6</visugpx:node>
            </visugpx:TrkExtension>
        </extensions>
      </trkpt>
      <trkpt lat="47.78202" lon="-3.68441">
        <ele>18.3</ele>
        <time>2023-01-27T14:59:40Z</time>
      </trkpt>
      <trkpt lat="47.78206" lon="-3.68437">
        <ele>18.4</ele>
        <time>2023-01-27T14:59:41Z</time>
      </trkpt>
      <trkpt lat="47.78209" lon="-3.68434">
        <ele>18.5</ele>
        <time>2023-01-27T14:59:42Z</time>
      </trkpt>
      <trkpt lat="47.78212" lon="-3.6843">
        <ele>18.7</ele>
        <time>2023-01-27T14:59:43Z</time>
      </trkpt>
      <trkpt lat="47.78217" lon="-3.68426">
        <ele>18.9</ele>
        <time>2023-01-27T14:59:44Z</time>
      </trkpt>
      <trkpt lat="47.7822" lon="-3.68422">
        <ele>19</ele>
        <time>2023-01-27T14:59:45Z</time>
      </trkpt>
      <trkpt lat="47.78223" lon="-3.68419">
        <ele>19.1</ele>
        <time>2023-01-27T14:59:46Z</time>
      </trkpt>
      <trkpt lat="47.78228" lon="-3.68412">
        <ele>19.3</ele>
        <time>2023-01-27T14:59:47Z</time>
      </trkpt>
      <trkpt lat="47.7823" lon="-3.68408">
        <ele>19.5</ele>
        <time>2023-01-27T14:59:48Z</time>
      </trkpt>
      <trkpt lat="47.78231" lon="-3.68403">
        <ele>19.6</ele>
        <time>2023-01-27T14:59:50Z</time>
      </trkpt>
      <trkpt lat="47.78233" lon="-3.684">
        <ele>19.7</ele>
        <time>2023-01-27T14:59:51Z</time>
      </trkpt>
      <trkpt lat="47.78238" lon="-3.68393">
        <ele>19.9</ele>
        <time>2023-01-27T14:59:52Z</time>
      </trkpt>
      <trkpt lat="47.78243" lon="-3.68384">
        <ele>20.2</ele>
        <time>2023-01-27T14:59:54Z</time>
      </trkpt>
      <trkpt lat="47.78245" lon="-3.6838">
        <ele>20.3</ele>
        <time>2023-01-27T14:59:55Z</time>
      </trkpt>
      <trkpt lat="47.78248" lon="-3.68377">
        <ele>20.4</ele>
        <time>2023-01-27T14:59:57Z</time>
      </trkpt>
      <trkpt lat="47.7825" lon="-3.68375">
        <ele>20.5</ele>
        <time>2023-01-27T14:59:58Z</time>
      </trkpt>
      <trkpt lat="47.78253" lon="-3.68373">
        <ele>20.5</ele>
        <time>2023-01-27T14:59:59Z</time>
      </trkpt>
      <trkpt lat="47.78256" lon="-3.6837">
        <ele>20.6</ele>
        <time>2023-01-27T15:00:00Z</time>
      </trkpt>
      <trkpt lat="47.78259" lon="-3.68368">
        <ele>20.7</ele>
        <time>2023-01-27T15:00:01Z</time>
      </trkpt>
      <trkpt lat="47.78262" lon="-3.68366">
        <ele>20.8</ele>
        <time>2023-01-27T15:00:02Z</time>
      </trkpt>
      <trkpt lat="47.78265" lon="-3.68364">
        <ele>20.9</ele>
        <time>2023-01-27T15:00:03Z</time>
      </trkpt>
      <trkpt lat="47.78268" lon="-3.68362">
        <ele>21</ele>
        <time>2023-01-27T15:00:04Z</time>
      </trkpt>
      <trkpt lat="47.78271" lon="-3.68358">
        <ele>21.1</ele>
        <time>2023-01-27T15:00:05Z</time>
      </trkpt>
      <trkpt lat="47.78272" lon="-3.68357">
        <ele>21.2</ele>
        <time>2023-01-27T15:00:06Z</time>
      </trkpt>
      <trkpt lat="47.78274" lon="-3.68353">
        <ele>21.3</ele>
        <time>2023-01-27T15:00:07Z</time>
      </trkpt>
      <trkpt lat="47.78275" lon="-3.68349">
        <ele>21.3</ele>
        <time>2023-01-27T15:00:08Z</time>
      </trkpt>
      <trkpt lat="47.78275" lon="-3.68345">
        <ele>21.4</ele>
        <time>2023-01-27T15:00:09Z</time>
      </trkpt>
      <trkpt lat="47.78274" lon="-3.68339">
        <ele>21.5</ele>
        <time>2023-01-27T15:00:10Z</time>
      </trkpt>
      <trkpt lat="47.78274" lon="-3.68337">
        <ele>21.5</ele>
        <time>2023-01-27T15:00:11Z</time>
      </trkpt>
      <trkpt lat="47.78274" lon="-3.68333">
        <ele>21.4</ele>
        <time>2023-01-27T15:00:12Z</time>
      </trkpt>
      <trkpt lat="47.78274" lon="-3.68329">
        <ele>21.3</ele>
        <time>2023-01-27T15:00:13Z</time>
      </trkpt>
      <trkpt lat="47.78275" lon="-3.68323">
        <ele>21.2</ele>
        <time>2023-01-27T15:00:14Z</time>
      </trkpt>
      <trkpt lat="47.78276" lon="-3.68321">
        <ele>21.2</ele>
        <time>2023-01-27T15:00:15Z</time>
      </trkpt>
      <trkpt lat="47.78276" lon="-3.68316">
        <ele>21</ele>
        <time>2023-01-27T15:00:16Z</time>
      </trkpt>
      <trkpt lat="47.78277" lon="-3.68314">
        <ele>21</ele>
        <time>2023-01-27T15:00:17Z</time>
      </trkpt>
      <trkpt lat="47.78276" lon="-3.68308">
        <ele>20.9</ele>
        <time>2023-01-27T15:00:18Z</time>
      </trkpt>
      <trkpt lat="47.78276" lon="-3.68306">
        <ele>20.8</ele>
        <time>2023-01-27T15:00:19Z</time>
      </trkpt>
      <trkpt lat="47.78276" lon="-3.68301">
        <ele>20.7</ele>
        <time>2023-01-27T15:00:20Z</time>
      </trkpt>
      <trkpt lat="47.78275" lon="-3.68296">
        <ele>20.7</ele>
        <time>2023-01-27T15:00:21Z</time>
      </trkpt>
      <trkpt lat="47.78275" lon="-3.68294">
        <ele>20.6</ele>
        <time>2023-01-27T15:00:22Z</time>
      </trkpt>
      <trkpt lat="47.78274" lon="-3.68289">
        <ele>20.6</ele>
        <time>2023-01-27T15:00:23Z</time>
      </trkpt>
      <trkpt lat="47.78274" lon="-3.68283">
        <ele>20.5</ele>
        <time>2023-01-27T15:00:24Z</time>
      </trkpt>
      <trkpt lat="47.78275" lon="-3.68278">
        <ele>20.5</ele>
        <time>2023-01-27T15:00:25Z</time>
      </trkpt>
      <trkpt lat="47.78275" lon="-3.68275">
        <ele>20.4</ele>
        <time>2023-01-27T15:00:26Z</time>
      </trkpt>
      <trkpt lat="47.78276" lon="-3.6827">
        <ele>20.4</ele>
        <time>2023-01-27T15:00:27Z</time>
      </trkpt>
      <trkpt lat="47.78276" lon="-3.68264">
        <ele>20.3</ele>
        <time>2023-01-27T15:00:29Z</time>
      </trkpt>
      <trkpt lat="47.78272" lon="-3.6826">
        <ele>20.1</ele>
        <time>2023-01-27T15:00:30Z</time>
      </trkpt>
      <trkpt lat="47.78267" lon="-3.6826">
        <ele>20</ele>
        <time>2023-01-27T15:00:32Z</time>
      </trkpt>
      <trkpt lat="47.78263" lon="-3.68259">
        <ele>20</ele>
        <time>2023-01-27T15:00:33Z</time>
      </trkpt>
      <trkpt lat="47.78259" lon="-3.68259">
        <ele>19.9</ele>
        <time>2023-01-27T15:00:34Z</time>
      </trkpt>
      <trkpt lat="47.78255" lon="-3.68259">
        <ele>19.8</ele>
        <time>2023-01-27T15:00:35Z</time>
      </trkpt>
      <trkpt lat="47.7825" lon="-3.68257">
        <ele>19.7</ele>
        <time>2023-01-27T15:00:36Z</time>
      </trkpt>
      <trkpt lat="47.78245" lon="-3.68256">
        <ele>19.6</ele>
        <time>2023-01-27T15:00:37Z</time>
      </trkpt>
      <trkpt lat="47.7824" lon="-3.68254">
        <ele>19.5</ele>
        <time>2023-01-27T15:00:38Z</time>
      </trkpt>
      <trkpt lat="47.78234" lon="-3.68252">
        <ele>19.4</ele>
        <time>2023-01-27T15:00:39Z</time>
      </trkpt>
      <trkpt lat="47.78229" lon="-3.6825">
        <ele>19.3</ele>
        <time>2023-01-27T15:00:40Z</time>
      </trkpt>
      <trkpt lat="47.78224" lon="-3.68248">
        <ele>19.3</ele>
        <time>2023-01-27T15:00:41Z</time>
      </trkpt>
      <trkpt lat="47.78218" lon="-3.68247">
        <ele>19.2</ele>
        <time>2023-01-27T15:00:42Z</time>
      </trkpt>
      <trkpt lat="47.78213" lon="-3.68245">
        <ele>19.1</ele>
        <time>2023-01-27T15:00:43Z</time>
      </trkpt>
      <trkpt lat="47.78207" lon="-3.68243">
        <ele>19</ele>
        <time>2023-01-27T15:00:44Z</time>
      </trkpt>
      <trkpt lat="47.78202" lon="-3.68241">
        <ele>18.9</ele>
        <time>2023-01-27T15:00:45Z</time>
      </trkpt>
      <trkpt lat="47.78196" lon="-3.68239">
        <ele>18.8</ele>
        <time>2023-01-27T15:00:46Z</time>
      </trkpt>
      <trkpt lat="47.78191" lon="-3.68235">
        <ele>18.7</ele>
        <time>2023-01-27T15:00:47Z</time>
      </trkpt>
      <trkpt lat="47.78186" lon="-3.68231">
        <ele>18.6</ele>
        <time>2023-01-27T15:00:48Z</time>
      </trkpt>
      <trkpt lat="47.78182" lon="-3.68225">
        <ele>18.5</ele>
        <time>2023-01-27T15:00:49Z</time>
      </trkpt>
      <trkpt lat="47.78177" lon="-3.68219">
        <ele>18.3</ele>
        <time>2023-01-27T15:00:50Z</time>
      </trkpt>
      <trkpt lat="47.78173" lon="-3.68213">
        <ele>18.1</ele>
        <time>2023-01-27T15:00:51Z</time>
      </trkpt>
      <trkpt lat="47.78167" lon="-3.68209">
        <ele>17.8</ele>
        <time>2023-01-27T15:00:52Z</time>
      </trkpt>
      <trkpt lat="47.78161" lon="-3.68205">
        <ele>17.5</ele>
        <time>2023-01-27T15:00:53Z</time>
      </trkpt>
      <trkpt lat="47.78155" lon="-3.682">
        <ele>17.1</ele>
        <time>2023-01-27T15:00:54Z</time>
      </trkpt>
      <trkpt lat="47.78149" lon="-3.68196">
        <ele>16.6</ele>
        <time>2023-01-27T15:00:55Z</time>
      </trkpt>
      <trkpt lat="47.78142" lon="-3.68191">
        <ele>16</ele>
        <time>2023-01-27T15:00:56Z</time>
      </trkpt>
      <trkpt lat="47.78134" lon="-3.68187">
        <ele>15.4</ele>
        <time>2023-01-27T15:00:57Z</time>
      </trkpt>
      <trkpt lat="47.78126" lon="-3.68183">
        <ele>14.9</ele>
        <time>2023-01-27T15:00:58Z</time>
      </trkpt>
      <trkpt lat="47.78117" lon="-3.68181">
        <ele>14.5</ele>
        <time>2023-01-27T15:00:59Z</time>
      </trkpt>
      <trkpt lat="47.78108" lon="-3.6818">
        <ele>14.2</ele>
        <time>2023-01-27T15:01:00Z</time>
      </trkpt>
      <trkpt lat="47.781" lon="-3.6818">
        <ele>14.1</ele>
        <time>2023-01-27T15:01:01Z</time>
      </trkpt>
      <trkpt lat="47.78092" lon="-3.68183">
        <ele>14.2</ele>
        <time>2023-01-27T15:01:02Z</time>
      </trkpt>
      <trkpt lat="47.78084" lon="-3.68185">
        <ele>14.3</ele>
        <time>2023-01-27T15:01:03Z</time>
      </trkpt>
      <trkpt lat="47.78077" lon="-3.68185">
        <ele>14.5</ele>
        <time>2023-01-27T15:01:04Z</time>
      </trkpt>
      <trkpt lat="47.78071" lon="-3.68185">
        <ele>14.7</ele>
        <time>2023-01-27T15:01:05Z</time>
      </trkpt>
      <trkpt lat="47.78065" lon="-3.68184">
        <ele>15</ele>
        <time>2023-01-27T15:01:06Z</time>
      </trkpt>
      <trkpt lat="47.78059" lon="-3.68182">
        <ele>15.4</ele>
        <time>2023-01-27T15:01:07Z</time>
      </trkpt>
      <trkpt lat="47.78053" lon="-3.68181">
        <ele>15.7</ele>
        <time>2023-01-27T15:01:08Z</time>
      </trkpt>
      <trkpt lat="47.78048" lon="-3.6818">
        <ele>16</ele>
        <time>2023-01-27T15:01:09Z</time>
      </trkpt>
      <trkpt lat="47.78043" lon="-3.68178">
        <ele>16.3</ele>
        <time>2023-01-27T15:01:10Z</time>
      </trkpt>
      <trkpt lat="47.78038" lon="-3.68176">
        <ele>16.6</ele>
        <time>2023-01-27T15:01:11Z</time>
      </trkpt>
      <trkpt lat="47.78033" lon="-3.68174">
        <ele>16.9</ele>
        <time>2023-01-27T15:01:12Z</time>
      </trkpt>
      <trkpt lat="47.78028" lon="-3.68173">
        <ele>17.1</ele>
        <time>2023-01-27T15:01:13Z</time>
      </trkpt>
      <trkpt lat="47.78023" lon="-3.68172">
        <ele>17.4</ele>
        <time>2023-01-27T15:01:14Z</time>
      </trkpt>
      <trkpt lat="47.78019" lon="-3.6817">
        <ele>17.6</ele>
        <time>2023-01-27T15:01:15Z</time>
      </trkpt>
      <trkpt lat="47.78014" lon="-3.68169">
        <ele>17.8</ele>
        <time>2023-01-27T15:01:16Z</time>
      </trkpt>
      <trkpt lat="47.78009" lon="-3.68167">
        <ele>18</ele>
        <time>2023-01-27T15:01:17Z</time>
      </trkpt>
      <trkpt lat="47.78004" lon="-3.68166">
        <ele>18.2</ele>
        <time>2023-01-27T15:01:18Z</time>
      </trkpt>
      <trkpt lat="47.77999" lon="-3.68165">
        <ele>18.3</ele>
        <time>2023-01-27T15:01:19Z</time>
      </trkpt>
      <trkpt lat="47.77995" lon="-3.68163">
        <ele>18.5</ele>
        <time>2023-01-27T15:01:20Z</time>
      </trkpt>
      <trkpt lat="47.7799" lon="-3.68161">
        <ele>18.5</ele>
        <time>2023-01-27T15:01:21Z</time>
      </trkpt>
      <trkpt lat="47.77985" lon="-3.68159">
        <ele>18.6</ele>
        <time>2023-01-27T15:01:22Z</time>
      </trkpt>
      <trkpt lat="47.7798" lon="-3.68157">
        <ele>18.7</ele>
        <time>2023-01-27T15:01:23Z</time>
      </trkpt>
      <trkpt lat="47.77975" lon="-3.68156">
        <ele>18.7</ele>
        <time>2023-01-27T15:01:24Z</time>
      </trkpt>
      <trkpt lat="47.7797" lon="-3.68154">
        <ele>18.7</ele>
        <time>2023-01-27T15:01:25Z</time>
      </trkpt>
      <trkpt lat="47.77966" lon="-3.68151">
        <ele>18.7</ele>
        <time>2023-01-27T15:01:26Z</time>
      </trkpt>
      <trkpt lat="47.77963" lon="-3.68149">
        <ele>18.7</ele>
        <time>2023-01-27T15:01:27Z</time>
      </trkpt>
      <trkpt lat="47.77962" lon="-3.68145">
        <ele>18.7</ele>
        <time>2023-01-27T15:01:28Z</time>
      </trkpt>
      <trkpt lat="47.77962" lon="-3.6814">
        <ele>19</ele>
        <time>2023-01-27T15:01:29Z</time>
      </trkpt>
      <trkpt lat="47.77964" lon="-3.68136">
        <ele>19.2</ele>
        <time>2023-01-27T15:01:30Z</time>
      </trkpt>
      <trkpt lat="47.77965" lon="-3.68131">
        <ele>19.5</ele>
        <time>2023-01-27T15:01:31Z</time>
      </trkpt>
      <trkpt lat="47.77966" lon="-3.68129">
        <ele>19.6</ele>
        <time>2023-01-27T15:01:32Z</time>
      </trkpt>
      <trkpt lat="47.77966" lon="-3.68125">
        <ele>19.8</ele>
        <time>2023-01-27T15:01:33Z</time>
      </trkpt>
      <trkpt lat="47.77966" lon="-3.6812">
        <ele>20</ele>
        <time>2023-01-27T15:01:34Z</time>
      </trkpt>
      <trkpt lat="47.77966" lon="-3.68115">
        <ele>20.3</ele>
        <time>2023-01-27T15:01:35Z</time>
      </trkpt>
      <trkpt lat="47.77967" lon="-3.6811">
        <ele>20.5</ele>
        <time>2023-01-27T15:01:36Z</time>
      </trkpt>
      <trkpt lat="47.77967" lon="-3.68105">
        <ele>20.7</ele>
        <time>2023-01-27T15:01:37Z</time>
      </trkpt>
      <trkpt lat="47.77967" lon="-3.681">
        <ele>20.9</ele>
        <time>2023-01-27T15:01:38Z</time>
      </trkpt>
      <trkpt lat="47.77967" lon="-3.68095">
        <ele>21</ele>
        <time>2023-01-27T15:01:39Z</time>
      </trkpt>
      <trkpt lat="47.77967" lon="-3.6809">
        <ele>21.1</ele>
        <time>2023-01-27T15:01:40Z</time>
      </trkpt>
      <trkpt lat="47.77967" lon="-3.68085">
        <ele>21.2</ele>
        <time>2023-01-27T15:01:41Z</time>
      </trkpt>
      <trkpt lat="47.77967" lon="-3.68081">
        <ele>21.3</ele>
        <time>2023-01-27T15:01:42Z</time>
      </trkpt>
      <trkpt lat="47.77967" lon="-3.68077">
        <ele>21.4</ele>
        <time>2023-01-27T15:01:44Z</time>
      </trkpt>
      <trkpt lat="47.77967" lon="-3.68072">
        <ele>21.5</ele>
        <time>2023-01-27T15:01:45Z</time>
      </trkpt>
      <trkpt lat="47.77966" lon="-3.6807">
        <ele>21.5</ele>
        <time>2023-01-27T15:01:46Z</time>
      </trkpt>
      <trkpt lat="47.77967" lon="-3.68064">
        <ele>21.6</ele>
        <time>2023-01-27T15:01:47Z</time>
      </trkpt>
      <trkpt lat="47.77967" lon="-3.68061">
        <ele>21.6</ele>
        <time>2023-01-27T15:01:48Z</time>
      </trkpt>
      <trkpt lat="47.77967" lon="-3.68057">
        <ele>21.6</ele>
        <time>2023-01-27T15:01:50Z</time>
      </trkpt>
      <trkpt lat="47.77967" lon="-3.68053">
        <ele>21.7</ele>
        <time>2023-01-27T15:01:51Z</time>
      </trkpt>
      <trkpt lat="47.77967" lon="-3.68051">
        <ele>21.7</ele>
        <time>2023-01-27T15:01:52Z</time>
      </trkpt>
      <trkpt lat="47.77968" lon="-3.68046">
        <ele>21.7</ele>
        <time>2023-01-27T15:01:53Z</time>
      </trkpt>
      <trkpt lat="47.77968" lon="-3.68045">
        <ele>21.7</ele>
        <time>2023-01-27T15:01:54Z</time>
      </trkpt>
      <trkpt lat="47.77968" lon="-3.68039">
        <ele>21.7</ele>
        <time>2023-01-27T15:01:55Z</time>
      </trkpt>
      <trkpt lat="47.77968" lon="-3.68032">
        <ele>21.8</ele>
        <time>2023-01-27T15:01:57Z</time>
      </trkpt>
      <trkpt lat="47.77968" lon="-3.6803">
        <ele>21.8</ele>
        <time>2023-01-27T15:01:58Z</time>
      </trkpt>
      <trkpt lat="47.77968" lon="-3.68029">
        <ele>21.8</ele>
        <time>2023-01-27T15:01:59Z</time>
      </trkpt>
      <trkpt lat="47.77969" lon="-3.68025">
        <ele>21.8</ele>
        <time>2023-01-27T15:02:00Z</time>
      </trkpt>
      <trkpt lat="47.7797" lon="-3.6802">
        <ele>21.8</ele>
        <time>2023-01-27T15:02:01Z</time>
      </trkpt>
      <trkpt lat="47.7797" lon="-3.68019">
        <ele>21.8</ele>
        <time>2023-01-27T15:02:02Z</time>
      </trkpt>
      <trkpt lat="47.77971" lon="-3.68013">
        <ele>21.9</ele>
        <time>2023-01-27T15:02:03Z</time>
      </trkpt>
      <trkpt lat="47.77971" lon="-3.68011">
        <ele>21.9</ele>
        <time>2023-01-27T15:02:04Z</time>
      </trkpt>
      <trkpt lat="47.77971" lon="-3.68006">
        <ele>21.9</ele>
        <time>2023-01-27T15:02:05Z</time>
      </trkpt>
      <trkpt lat="47.77971" lon="-3.68004">
        <ele>21.9</ele>
        <time>2023-01-27T15:02:06Z</time>
      </trkpt>
      <trkpt lat="47.77971" lon="-3.67999">
        <ele>22</ele>
        <time>2023-01-27T15:02:07Z</time>
      </trkpt>
      <trkpt lat="47.77971" lon="-3.67997">
        <ele>22</ele>
        <time>2023-01-27T15:02:08Z</time>
      </trkpt>
      <trkpt lat="47.77971" lon="-3.67993">
        <ele>22</ele>
        <time>2023-01-27T15:02:09Z</time>
      </trkpt>
      <trkpt lat="47.77972" lon="-3.67991">
        <ele>22</ele>
        <time>2023-01-27T15:02:10Z</time>
      </trkpt>
      <trkpt lat="47.77971" lon="-3.67987">
        <ele>22</ele>
        <time>2023-01-27T15:02:11Z</time>
      </trkpt>
      <trkpt lat="47.77971" lon="-3.67985">
        <ele>22</ele>
        <time>2023-01-27T15:02:12Z</time>
      </trkpt>
      <trkpt lat="47.77971" lon="-3.67981">
        <ele>22</ele>
        <time>2023-01-27T15:02:13Z</time>
      </trkpt>
      <trkpt lat="47.77971" lon="-3.6798">
        <ele>22.1</ele>
        <time>2023-01-27T15:02:14Z</time>
      </trkpt>
      <trkpt lat="47.77971" lon="-3.67974">
        <ele>22.1</ele>
        <time>2023-01-27T15:02:15Z</time>
      </trkpt>
      <trkpt lat="47.77971" lon="-3.67972">
        <ele>22.1</ele>
        <time>2023-01-27T15:02:16Z</time>
      </trkpt>
      <trkpt lat="47.77971" lon="-3.67966">
        <ele>22.2</ele>
        <time>2023-01-27T15:02:17Z</time>
      </trkpt>
      <trkpt lat="47.77971" lon="-3.67965">
        <ele>22.2</ele>
        <time>2023-01-27T15:02:18Z</time>
      </trkpt>
      <trkpt lat="47.77972" lon="-3.6796">
        <ele>22.2</ele>
        <time>2023-01-27T15:02:19Z</time>
      </trkpt>
      <trkpt lat="47.77972" lon="-3.67958">
        <ele>22.2</ele>
        <time>2023-01-27T15:02:20Z</time>
      </trkpt>
      <trkpt lat="47.77972" lon="-3.67953">
        <ele>22.3</ele>
        <time>2023-01-27T15:02:21Z</time>
      </trkpt>
      <trkpt lat="47.77972" lon="-3.67951">
        <ele>22.3</ele>
        <time>2023-01-27T15:02:22Z</time>
      </trkpt>
      <trkpt lat="47.77972" lon="-3.67946">
        <ele>22.3</ele>
        <time>2023-01-27T15:02:23Z</time>
      </trkpt>
      <trkpt lat="47.77972" lon="-3.67944">
        <ele>22.3</ele>
        <time>2023-01-27T15:02:24Z</time>
      </trkpt>
      <trkpt lat="47.77972" lon="-3.67939">
        <ele>22.4</ele>
        <time>2023-01-27T15:02:25Z</time>
      </trkpt>
      <trkpt lat="47.77972" lon="-3.67937">
        <ele>22.4</ele>
        <time>2023-01-27T15:02:26Z</time>
      </trkpt>
      <trkpt lat="47.77973" lon="-3.67933">
        <ele>22.4</ele>
        <time>2023-01-27T15:02:27Z</time>
      </trkpt>
      <trkpt lat="47.77974" lon="-3.67928">
        <ele>22.4</ele>
        <time>2023-01-27T15:02:28Z</time>
      </trkpt>
      <trkpt lat="47.77975" lon="-3.67924">
        <ele>22.5</ele>
        <time>2023-01-27T15:02:29Z</time>
      </trkpt>
      <trkpt lat="47.77975" lon="-3.67919">
        <ele>22.5</ele>
        <time>2023-01-27T15:02:30Z</time>
      </trkpt>
      <trkpt lat="47.77975" lon="-3.67915">
        <ele>22.5</ele>
        <time>2023-01-27T15:02:31Z</time>
      </trkpt>
      <trkpt lat="47.77974" lon="-3.67913">
        <ele>22.6</ele>
        <time>2023-01-27T15:02:32Z</time>
      </trkpt>
      <trkpt lat="47.77975" lon="-3.67911">
        <ele>22.6</ele>
        <time>2023-01-27T15:02:33Z</time>
      </trkpt>
      <trkpt lat="47.77976" lon="-3.67906">
        <ele>22.6</ele>
        <time>2023-01-27T15:02:34Z</time>
      </trkpt>
      <trkpt lat="47.77976" lon="-3.67903">
        <ele>22.6</ele>
        <time>2023-01-27T15:02:35Z</time>
      </trkpt>
      <trkpt lat="47.77977" lon="-3.67898">
        <ele>22.7</ele>
        <time>2023-01-27T15:02:36Z</time>
      </trkpt>
      <trkpt lat="47.77977" lon="-3.67892">
        <ele>22.7</ele>
        <time>2023-01-27T15:02:37Z</time>
      </trkpt>
      <trkpt lat="47.77977" lon="-3.6789">
        <ele>22.7</ele>
        <time>2023-01-27T15:02:38Z</time>
      </trkpt>
      <trkpt lat="47.77978" lon="-3.67884">
        <ele>22.7</ele>
        <time>2023-01-27T15:02:40Z</time>
      </trkpt>
      <trkpt lat="47.77977" lon="-3.67881">
        <ele>22.7</ele>
        <time>2023-01-27T15:02:41Z</time>
      </trkpt>
      <trkpt lat="47.77978" lon="-3.67875">
        <ele>22.7</ele>
        <time>2023-01-27T15:02:43Z</time>
      </trkpt>
      <trkpt lat="47.77979" lon="-3.67871">
        <ele>22.7</ele>
        <time>2023-01-27T15:02:44Z</time>
      </trkpt>
      <trkpt lat="47.77979" lon="-3.67866">
        <ele>22.7</ele>
        <time>2023-01-27T15:02:46Z</time>
      </trkpt>
      <trkpt lat="47.7798" lon="-3.67862">
        <ele>22.7</ele>
        <time>2023-01-27T15:02:47Z</time>
      </trkpt>
      <trkpt lat="47.77981" lon="-3.67858">
        <ele>22.7</ele>
        <time>2023-01-27T15:02:49Z</time>
      </trkpt>
      <trkpt lat="47.77981" lon="-3.67853">
        <ele>22.7</ele>
        <time>2023-01-27T15:02:50Z</time>
      </trkpt>
      <trkpt lat="47.77981" lon="-3.67851">
        <ele>22.7</ele>
        <time>2023-01-27T15:02:51Z</time>
      </trkpt>
      <trkpt lat="47.77982" lon="-3.67847">
        <ele>22.7</ele>
        <time>2023-01-27T15:02:52Z</time>
      </trkpt>
      <trkpt lat="47.77982" lon="-3.67845">
        <ele>22.7</ele>
        <time>2023-01-27T15:02:53Z</time>
      </trkpt>
      <trkpt lat="47.77982" lon="-3.67838">
        <ele>22.7</ele>
        <time>2023-01-27T15:02:54Z</time>
      </trkpt>
      <trkpt lat="47.77984" lon="-3.67832">
        <ele>22.8</ele>
        <time>2023-01-27T15:02:56Z</time>
      </trkpt>
      <trkpt lat="47.77985" lon="-3.6783">
        <ele>22.8</ele>
        <time>2023-01-27T15:02:57Z</time>
      </trkpt>
      <trkpt lat="47.77986" lon="-3.67828">
        <ele>22.8</ele>
        <time>2023-01-27T15:02:58Z</time>
      </trkpt>
      <trkpt lat="47.77988" lon="-3.67826">
        <ele>22.8</ele>
        <time>2023-01-27T15:02:59Z</time>
      </trkpt>
      <trkpt lat="47.77987" lon="-3.67824">
        <ele>22.7</ele>
        <time>2023-01-27T15:03:00Z</time>
      </trkpt>
      <trkpt lat="47.77984" lon="-3.67823">
        <ele>22.6</ele>
        <time>2023-01-27T15:03:01Z</time>
      </trkpt>
      <trkpt lat="47.77982" lon="-3.67823">
        <ele>22.6</ele>
        <time>2023-01-27T15:03:02Z</time>
      </trkpt>
      <trkpt lat="47.77979" lon="-3.67823">
        <ele>22.5</ele>
        <time>2023-01-27T15:03:03Z</time>
      </trkpt>
      <trkpt lat="47.77974" lon="-3.67821">
        <ele>22.3</ele>
        <time>2023-01-27T15:03:05Z</time>
      </trkpt>
      <trkpt lat="47.77971" lon="-3.67821">
        <ele>22.2</ele>
        <time>2023-01-27T15:03:06Z</time>
      </trkpt>
      <trkpt lat="47.77968" lon="-3.67819">
        <ele>22</ele>
        <time>2023-01-27T15:03:08Z</time>
      </trkpt>
      <trkpt lat="47.77966" lon="-3.67818">
        <ele>21.9</ele>
        <time>2023-01-27T15:03:09Z</time>
      </trkpt>
      <trkpt lat="47.77961" lon="-3.67815">
        <ele>21.7</ele>
        <time>2023-01-27T15:03:10Z</time>
      </trkpt>
      <trkpt lat="47.77957" lon="-3.67813">
        <ele>21.4</ele>
        <time>2023-01-27T15:03:12Z</time>
      </trkpt>
      <trkpt lat="47.77955" lon="-3.67813">
        <ele>21.3</ele>
        <time>2023-01-27T15:03:13Z</time>
      </trkpt>
      <trkpt lat="47.77954" lon="-3.67813">
        <ele>21.2</ele>
        <time>2023-01-27T15:03:14Z</time>
      </trkpt>
      <trkpt lat="47.7795" lon="-3.67811">
        <ele>21</ele>
        <time>2023-01-27T15:03:15Z</time>
      </trkpt>
      <trkpt lat="47.77949" lon="-3.6781">
        <ele>21</ele>
        <time>2023-01-27T15:03:16Z</time>
      </trkpt>
      <trkpt lat="47.77944" lon="-3.67807">
        <ele>20.7</ele>
        <time>2023-01-27T15:03:17Z</time>
      </trkpt>
      <trkpt lat="47.77939" lon="-3.67805">
        <ele>20.4</ele>
        <time>2023-01-27T15:03:19Z</time>
      </trkpt>
      <trkpt lat="47.77937" lon="-3.67804">
        <ele>20.3</ele>
        <time>2023-01-27T15:03:20Z</time>
      </trkpt>
      <trkpt lat="47.77936" lon="-3.67803">
        <ele>20.2</ele>
        <time>2023-01-27T15:03:21Z</time>
      </trkpt>
      <trkpt lat="47.77932" lon="-3.67802">
        <ele>20</ele>
        <time>2023-01-27T15:03:22Z</time>
      </trkpt>
      <trkpt lat="47.77931" lon="-3.67802">
        <ele>20</ele>
        <time>2023-01-27T15:03:23Z</time>
      </trkpt>
      <trkpt lat="47.77929" lon="-3.678">
        <ele>19.8</ele>
        <time>2023-01-27T15:03:24Z</time>
      </trkpt>
      <trkpt lat="47.77928" lon="-3.67799">
        <ele>19.8</ele>
        <time>2023-01-27T15:03:25Z</time>
      </trkpt>
      <trkpt lat="47.77925" lon="-3.67798">
        <ele>19.6</ele>
        <time>2023-01-27T15:03:26Z</time>
      </trkpt>
      <trkpt lat="47.77924" lon="-3.67798">
        <ele>19.6</ele>
        <time>2023-01-27T15:03:27Z</time>
      </trkpt>
      <trkpt lat="47.77921" lon="-3.67797">
        <ele>19.4</ele>
        <time>2023-01-27T15:03:28Z</time>
      </trkpt>
      <trkpt lat="47.77918" lon="-3.67796">
        <ele>19.2</ele>
        <time>2023-01-27T15:03:29Z</time>
      </trkpt>
      <trkpt lat="47.77916" lon="-3.67796">
        <ele>19.1</ele>
        <time>2023-01-27T15:03:30Z</time>
      </trkpt>
      <trkpt lat="47.77914" lon="-3.67794">
        <ele>18.9</ele>
        <time>2023-01-27T15:03:31Z</time>
      </trkpt>
      <trkpt lat="47.77911" lon="-3.67794">
        <ele>18.7</ele>
        <time>2023-01-27T15:03:32Z</time>
      </trkpt>
      <trkpt lat="47.77908" lon="-3.67793">
        <ele>18.5</ele>
        <time>2023-01-27T15:03:33Z</time>
      </trkpt>
      <trkpt lat="47.77902" lon="-3.67792">
        <ele>18.2</ele>
        <time>2023-01-27T15:03:35Z</time>
      </trkpt>
      <trkpt lat="47.77896" lon="-3.6779">
        <ele>17.9</ele>
        <time>2023-01-27T15:03:37Z</time>
      </trkpt>
      <trkpt lat="47.77894" lon="-3.67789">
        <ele>17.8</ele>
        <time>2023-01-27T15:03:39Z</time>
      </trkpt>
      <trkpt lat="47.77891" lon="-3.67789">
        <ele>17.7</ele>
        <time>2023-01-27T15:03:40Z</time>
      </trkpt>
      <trkpt lat="47.77888" lon="-3.67788">
        <ele>17.5</ele>
        <time>2023-01-27T15:03:41Z</time>
      </trkpt>
      <trkpt lat="47.77884" lon="-3.67789">
        <ele>17.3</ele>
        <time>2023-01-27T15:03:42Z</time>
      </trkpt>
      <trkpt lat="47.77878" lon="-3.67788">
        <ele>17.1</ele>
        <time>2023-01-27T15:03:44Z</time>
      </trkpt>
      <trkpt lat="47.77876" lon="-3.67787">
        <ele>16.9</ele>
        <time>2023-01-27T15:03:45Z</time>
      </trkpt>
      <trkpt lat="47.77873" lon="-3.67786">
        <ele>16.8</ele>
        <time>2023-01-27T15:03:46Z</time>
      </trkpt>
      <trkpt lat="47.77871" lon="-3.67786">
        <ele>16.7</ele>
        <time>2023-01-27T15:03:48Z</time>
      </trkpt>
      <trkpt lat="47.77867" lon="-3.67784">
        <ele>16.5</ele>
        <time>2023-01-27T15:03:49Z</time>
      </trkpt>
      <trkpt lat="47.77865" lon="-3.67784">
        <ele>16.5</ele>
        <time>2023-01-27T15:03:50Z</time>
      </trkpt>
      <trkpt lat="47.77863" lon="-3.67782">
        <ele>16.4</ele>
        <time>2023-01-27T15:03:51Z</time>
      </trkpt>
      <trkpt lat="47.77859" lon="-3.6778">
        <ele>16.2</ele>
        <time>2023-01-27T15:03:52Z</time>
      </trkpt>
      <trkpt lat="47.77858" lon="-3.6778">
        <ele>16.2</ele>
        <time>2023-01-27T15:03:53Z</time>
      </trkpt>
      <trkpt lat="47.77854" lon="-3.67781">
        <ele>16</ele>
        <time>2023-01-27T15:03:54Z</time>
      </trkpt>
      <trkpt lat="47.77853" lon="-3.67781">
        <ele>16</ele>
        <time>2023-01-27T15:03:55Z</time>
      </trkpt>
      <trkpt lat="47.7785" lon="-3.6778">
        <ele>15.9</ele>
        <time>2023-01-27T15:03:56Z</time>
      </trkpt>
      <trkpt lat="47.77847" lon="-3.67779">
        <ele>15.7</ele>
        <time>2023-01-27T15:03:57Z</time>
      </trkpt>
      <trkpt lat="47.77844" lon="-3.67779">
        <ele>15.6</ele>
        <time>2023-01-27T15:03:58Z</time>
      </trkpt>
      <trkpt lat="47.77841" lon="-3.67777">
        <ele>15.5</ele>
        <time>2023-01-27T15:03:59Z</time>
      </trkpt>
      <trkpt lat="47.7784" lon="-3.67773">
        <ele>15.4</ele>
        <time>2023-01-27T15:04:00Z</time>
      </trkpt>
      <trkpt lat="47.7784" lon="-3.67771">
        <ele>15.4</ele>
        <time>2023-01-27T15:04:01Z</time>
      </trkpt>
      <trkpt lat="47.77841" lon="-3.67767">
        <ele>15.6</ele>
        <time>2023-01-27T15:04:02Z</time>
      </trkpt>
      <trkpt lat="47.77841" lon="-3.67765">
        <ele>15.7</ele>
        <time>2023-01-27T15:04:03Z</time>
      </trkpt>
      <trkpt lat="47.77842" lon="-3.67761">
        <ele>15.7</ele>
        <time>2023-01-27T15:04:04Z</time>
      </trkpt>
      <trkpt lat="47.77843" lon="-3.67757">
        <ele>15.8</ele>
        <time>2023-01-27T15:04:05Z</time>
      </trkpt>
      <trkpt lat="47.77843" lon="-3.67752">
        <ele>15.8</ele>
        <time>2023-01-27T15:04:06Z</time>
      </trkpt>
      <trkpt lat="47.77844" lon="-3.67748">
        <ele>15.9</ele>
        <time>2023-01-27T15:04:07Z</time>
      </trkpt>
      <trkpt lat="47.77843" lon="-3.67743">
        <ele>15.9</ele>
        <time>2023-01-27T15:04:08Z</time>
      </trkpt>
      <trkpt lat="47.77844" lon="-3.67739">
        <ele>16</ele>
        <time>2023-01-27T15:04:09Z</time>
      </trkpt>
      <trkpt lat="47.77844" lon="-3.67734">
        <ele>16</ele>
        <time>2023-01-27T15:04:10Z</time>
      </trkpt>
      <trkpt lat="47.77845" lon="-3.67729">
        <ele>16.1</ele>
        <time>2023-01-27T15:04:11Z</time>
      </trkpt>
      <trkpt lat="47.77846" lon="-3.67724">
        <ele>16.1</ele>
        <time>2023-01-27T15:04:12Z</time>
      </trkpt>
      <trkpt lat="47.77847" lon="-3.6772">
        <ele>16.2</ele>
        <time>2023-01-27T15:04:13Z</time>
      </trkpt>
      <trkpt lat="47.77849" lon="-3.67716">
        <ele>16.2</ele>
        <time>2023-01-27T15:04:14Z</time>
      </trkpt>
      <trkpt lat="47.77851" lon="-3.67712">
        <ele>16.3</ele>
        <time>2023-01-27T15:04:15Z</time>
      </trkpt>
      <trkpt lat="47.77854" lon="-3.67707">
        <ele>16.4</ele>
        <time>2023-01-27T15:04:16Z</time>
      </trkpt>
      <trkpt lat="47.77855" lon="-3.67705">
        <ele>16.4</ele>
        <time>2023-01-27T15:04:17Z</time>
      </trkpt>
      <trkpt lat="47.77857" lon="-3.67702">
        <ele>16.5</ele>
        <time>2023-01-27T15:04:18Z</time>
      </trkpt>
      <trkpt lat="47.7786" lon="-3.67698">
        <ele>16.6</ele>
        <time>2023-01-27T15:04:19Z</time>
      </trkpt>
      <trkpt lat="47.77863" lon="-3.67694">
        <ele>16.7</ele>
        <time>2023-01-27T15:04:20Z</time>
      </trkpt>
      <trkpt lat="47.77865" lon="-3.67692">
        <ele>16.7</ele>
        <time>2023-01-27T15:04:21Z</time>
      </trkpt>
      <trkpt lat="47.77867" lon="-3.67688">
        <ele>16.8</ele>
        <time>2023-01-27T15:04:22Z</time>
      </trkpt>
      <trkpt lat="47.77867" lon="-3.67683">
        <ele>16.8</ele>
        <time>2023-01-27T15:04:23Z</time>
      </trkpt>
      <trkpt lat="47.77869" lon="-3.67676">
        <ele>16.8</ele>
        <time>2023-01-27T15:04:25Z</time>
      </trkpt>
      <trkpt lat="47.7787" lon="-3.67669">
        <ele>16.8</ele>
        <time>2023-01-27T15:04:26Z</time>
      </trkpt>
      <trkpt lat="47.77872" lon="-3.67664">
        <ele>16.8</ele>
        <time>2023-01-27T15:04:28Z</time>
      </trkpt>
      <trkpt lat="47.77873" lon="-3.67659">
        <ele>16.8</ele>
        <time>2023-01-27T15:04:29Z</time>
      </trkpt>
      <trkpt lat="47.77874" lon="-3.67655">
        <ele>16.8</ele>
        <time>2023-01-27T15:04:30Z</time>
      </trkpt>
      <trkpt lat="47.77875" lon="-3.67651">
        <ele>16.8</ele>
        <time>2023-01-27T15:04:31Z</time>
      </trkpt>
      <trkpt lat="47.77876" lon="-3.67646">
        <ele>16.8</ele>
        <time>2023-01-27T15:04:32Z</time>
      </trkpt>
      <trkpt lat="47.77878" lon="-3.67642">
        <ele>16.8</ele>
        <time>2023-01-27T15:04:33Z</time>
      </trkpt>
      <trkpt lat="47.77879" lon="-3.67638">
        <ele>16.8</ele>
        <time>2023-01-27T15:04:34Z</time>
      </trkpt>
      <trkpt lat="47.77879" lon="-3.67634">
        <ele>16.8</ele>
        <time>2023-01-27T15:04:35Z</time>
      </trkpt>
      <trkpt lat="47.7788" lon="-3.67629">
        <ele>16.8</ele>
        <time>2023-01-27T15:04:36Z</time>
      </trkpt>
      <trkpt lat="47.77882" lon="-3.67622">
        <ele>16.9</ele>
        <time>2023-01-27T15:04:37Z</time>
      </trkpt>
      <trkpt lat="47.77884" lon="-3.67618">
        <ele>17</ele>
        <time>2023-01-27T15:04:39Z</time>
      </trkpt>
      <trkpt lat="47.77885" lon="-3.67614">
        <ele>17</ele>
        <time>2023-01-27T15:04:40Z</time>
      </trkpt>
      <trkpt lat="47.77886" lon="-3.67609">
        <ele>17.1</ele>
        <time>2023-01-27T15:04:41Z</time>
      </trkpt>
      <trkpt lat="47.77888" lon="-3.67604">
        <ele>17.2</ele>
        <time>2023-01-27T15:04:42Z</time>
      </trkpt>
      <trkpt lat="47.77889" lon="-3.676">
        <ele>17.3</ele>
        <time>2023-01-27T15:04:43Z</time>
      </trkpt>
      <trkpt lat="47.77891" lon="-3.67596">
        <ele>17.3</ele>
        <time>2023-01-27T15:04:44Z</time>
      </trkpt>
      <trkpt lat="47.77893" lon="-3.67593">
        <ele>17.4</ele>
        <time>2023-01-27T15:04:45Z</time>
      </trkpt>
      <trkpt lat="47.77894" lon="-3.67591">
        <ele>17.4</ele>
        <time>2023-01-27T15:04:46Z</time>
      </trkpt>
      <trkpt lat="47.77894" lon="-3.67585">
        <ele>17.6</ele>
        <time>2023-01-27T15:04:47Z</time>
      </trkpt>
      <trkpt lat="47.77894" lon="-3.67583">
        <ele>17.6</ele>
        <time>2023-01-27T15:04:48Z</time>
      </trkpt>
      <trkpt lat="47.77894" lon="-3.67579">
        <ele>17.7</ele>
        <time>2023-01-27T15:04:49Z</time>
      </trkpt>
      <trkpt lat="47.77894" lon="-3.67572">
        <ele>17.8</ele>
        <time>2023-01-27T15:04:51Z</time>
      </trkpt>
      <trkpt lat="47.77895" lon="-3.67567">
        <ele>17.9</ele>
        <time>2023-01-27T15:04:52Z</time>
      </trkpt>
      <trkpt lat="47.77896" lon="-3.67559">
        <ele>18.1</ele>
        <time>2023-01-27T15:04:53Z</time>
      </trkpt>
      <trkpt lat="47.77897" lon="-3.67554">
        <ele>18.2</ele>
        <time>2023-01-27T15:04:55Z</time>
      </trkpt>
      <trkpt lat="47.77898" lon="-3.67548">
        <ele>18.3</ele>
        <time>2023-01-27T15:04:56Z</time>
      </trkpt>
      <trkpt lat="47.77898" lon="-3.67546">
        <ele>18.3</ele>
        <time>2023-01-27T15:04:57Z</time>
      </trkpt>
      <trkpt lat="47.77898" lon="-3.6754">
        <ele>18.3</ele>
        <time>2023-01-27T15:04:58Z</time>
      </trkpt>
      <trkpt lat="47.77898" lon="-3.67535">
        <ele>18.4</ele>
        <time>2023-01-27T15:04:59Z</time>
      </trkpt>
      <trkpt lat="47.77898" lon="-3.6753">
        <ele>18.4</ele>
        <time>2023-01-27T15:05:00Z</time>
      </trkpt>
      <trkpt lat="47.77898" lon="-3.67525">
        <ele>18.4</ele>
        <time>2023-01-27T15:05:01Z</time>
      </trkpt>
      <trkpt lat="47.77898" lon="-3.6752">
        <ele>18.4</ele>
        <time>2023-01-27T15:05:02Z</time>
      </trkpt>
      <trkpt lat="47.77899" lon="-3.67514">
        <ele>18.4</ele>
        <time>2023-01-27T15:05:03Z</time>
      </trkpt>
      <trkpt lat="47.77899" lon="-3.67511">
        <ele>18.4</ele>
        <time>2023-01-27T15:05:04Z</time>
      </trkpt>
      <trkpt lat="47.779" lon="-3.67507">
        <ele>18.4</ele>
        <time>2023-01-27T15:05:05Z</time>
      </trkpt>
      <trkpt lat="47.779" lon="-3.67501">
        <ele>18.3</ele>
        <time>2023-01-27T15:05:06Z</time>
      </trkpt>
      <trkpt lat="47.779" lon="-3.67496">
        <ele>18.3</ele>
        <time>2023-01-27T15:05:07Z</time>
      </trkpt>
      <trkpt lat="47.779" lon="-3.67492">
        <ele>18.3</ele>
        <time>2023-01-27T15:05:08Z</time>
      </trkpt>
      <trkpt lat="47.77899" lon="-3.67485">
        <ele>18.3</ele>
        <time>2023-01-27T15:05:09Z</time>
      </trkpt>
      <trkpt lat="47.77899" lon="-3.67483">
        <ele>18.3</ele>
        <time>2023-01-27T15:05:10Z</time>
      </trkpt>
      <trkpt lat="47.77899" lon="-3.67478">
        <ele>18.3</ele>
        <time>2023-01-27T15:05:11Z</time>
      </trkpt>
      <trkpt lat="47.77901" lon="-3.67475">
        <ele>18.3</ele>
        <time>2023-01-27T15:05:12Z</time>
      </trkpt>
      <trkpt lat="47.77906" lon="-3.67474">
        <ele>18.3</ele>
        <time>2023-01-27T15:05:14Z</time>
      </trkpt>
      <trkpt lat="47.7791" lon="-3.67474">
        <ele>18.4</ele>
        <time>2023-01-27T15:05:15Z</time>
      </trkpt>
      <trkpt lat="47.77914" lon="-3.67475">
        <ele>18.4</ele>
        <time>2023-01-27T15:05:16Z</time>
      </trkpt>
      <trkpt lat="47.77922" lon="-3.67478">
        <ele>18.5</ele>
        <time>2023-01-27T15:05:17Z</time>
      </trkpt>
      <trkpt lat="47.77926" lon="-3.67479">
        <ele>18.6</ele>
        <time>2023-01-27T15:05:18Z</time>
      </trkpt>
      <trkpt lat="47.77929" lon="-3.67481">
        <ele>18.6</ele>
        <time>2023-01-27T15:05:19Z</time>
      </trkpt>
      <trkpt lat="47.77932" lon="-3.67483">
        <ele>18.7</ele>
        <time>2023-01-27T15:05:21Z</time>
      </trkpt>
      <trkpt lat="47.77936" lon="-3.67484">
        <ele>18.7</ele>
        <time>2023-01-27T15:05:22Z</time>
      </trkpt>
      <trkpt lat="47.77942" lon="-3.67483">
        <ele>18.8</ele>
        <time>2023-01-27T15:05:23Z</time>
      </trkpt>
      <trkpt lat="47.77947" lon="-3.67479">
        <ele>18.9</ele>
        <time>2023-01-27T15:05:24Z</time>
      </trkpt>
      <trkpt lat="47.77953" lon="-3.67473">
        <ele>19</ele>
        <time>2023-01-27T15:05:25Z</time>
      </trkpt>
      <trkpt lat="47.77957" lon="-3.67469">
        <ele>19.1</ele>
        <time>2023-01-27T15:05:26Z</time>
      </trkpt>
      <trkpt lat="47.77961" lon="-3.67466">
        <ele>19.2</ele>
        <time>2023-01-27T15:05:27Z</time>
      </trkpt>
      <trkpt lat="47.77966" lon="-3.67463">
        <ele>19.3</ele>
        <time>2023-01-27T15:05:28Z</time>
      </trkpt>
      <trkpt lat="47.7797" lon="-3.67461">
        <ele>19.4</ele>
        <time>2023-01-27T15:05:29Z</time>
      </trkpt>
      <trkpt lat="47.77974" lon="-3.67459">
        <ele>19.5</ele>
        <time>2023-01-27T15:05:30Z</time>
      </trkpt>
      <trkpt lat="47.77979" lon="-3.67457">
        <ele>19.7</ele>
        <time>2023-01-27T15:05:31Z</time>
      </trkpt>
      <trkpt lat="47.77984" lon="-3.67455">
        <ele>19.8</ele>
        <time>2023-01-27T15:05:32Z</time>
      </trkpt>
      <trkpt lat="47.77988" lon="-3.67454">
        <ele>19.9</ele>
        <time>2023-01-27T15:05:33Z</time>
      </trkpt>
      <trkpt lat="47.77993" lon="-3.67453">
        <ele>20</ele>
        <time>2023-01-27T15:05:34Z</time>
      </trkpt>
      <trkpt lat="47.77997" lon="-3.67452">
        <ele>20.1</ele>
        <time>2023-01-27T15:05:35Z</time>
      </trkpt>
      <trkpt lat="47.78002" lon="-3.67451">
        <ele>20.2</ele>
        <time>2023-01-27T15:05:36Z</time>
      </trkpt>
      <trkpt lat="47.78007" lon="-3.6745">
        <ele>20.3</ele>
        <time>2023-01-27T15:05:37Z</time>
      </trkpt>
      <trkpt lat="47.78011" lon="-3.67449">
        <ele>20.4</ele>
        <time>2023-01-27T15:05:38Z</time>
      </trkpt>
      <trkpt lat="47.78016" lon="-3.67448">
        <ele>20.6</ele>
        <time>2023-01-27T15:05:39Z</time>
      </trkpt>
      <trkpt lat="47.7802" lon="-3.67446">
        <ele>20.7</ele>
        <time>2023-01-27T15:05:40Z</time>
      </trkpt>
      <trkpt lat="47.78025" lon="-3.67444">
        <ele>20.8</ele>
        <time>2023-01-27T15:05:41Z</time>
      </trkpt>
      <trkpt lat="47.7803" lon="-3.67441">
        <ele>20.8</ele>
        <time>2023-01-27T15:05:42Z</time>
      </trkpt>
      <trkpt lat="47.78034" lon="-3.67438">
        <ele>20.9</ele>
        <time>2023-01-27T15:05:43Z</time>
      </trkpt>
      <trkpt lat="47.78039" lon="-3.67435">
        <ele>21.1</ele>
        <time>2023-01-27T15:05:44Z</time>
      </trkpt>
      <trkpt lat="47.78043" lon="-3.67432">
        <ele>21.2</ele>
        <time>2023-01-27T15:05:45Z</time>
      </trkpt>
      <trkpt lat="47.78048" lon="-3.67429">
        <ele>21.3</ele>
        <time>2023-01-27T15:05:46Z</time>
      </trkpt>
      <trkpt lat="47.78053" lon="-3.67427">
        <ele>21.5</ele>
        <time>2023-01-27T15:05:47Z</time>
      </trkpt>
      <trkpt lat="47.78057" lon="-3.67425">
        <ele>21.6</ele>
        <time>2023-01-27T15:05:48Z</time>
      </trkpt>
      <trkpt lat="47.78062" lon="-3.67424">
        <ele>21.8</ele>
        <time>2023-01-27T15:05:49Z</time>
      </trkpt>
      <trkpt lat="47.78067" lon="-3.67424">
        <ele>21.9</ele>
        <time>2023-01-27T15:05:50Z</time>
      </trkpt>
      <trkpt lat="47.78072" lon="-3.67424">
        <ele>22.1</ele>
        <time>2023-01-27T15:05:51Z</time>
      </trkpt>
      <trkpt lat="47.78077" lon="-3.67425">
        <ele>22.2</ele>
        <time>2023-01-27T15:05:52Z</time>
      </trkpt>
      <trkpt lat="47.78082" lon="-3.67426">
        <ele>22.3</ele>
        <time>2023-01-27T15:05:53Z</time>
      </trkpt>
      <trkpt lat="47.78086" lon="-3.67427">
        <ele>22.5</ele>
        <time>2023-01-27T15:05:54Z</time>
      </trkpt>
      <trkpt lat="47.78091" lon="-3.67429">
        <ele>22.6</ele>
        <time>2023-01-27T15:05:55Z</time>
      </trkpt>
      <trkpt lat="47.78096" lon="-3.6743">
        <ele>22.8</ele>
        <time>2023-01-27T15:05:56Z</time>
      </trkpt>
      <trkpt lat="47.78101" lon="-3.67431">
        <ele>22.9</ele>
        <time>2023-01-27T15:05:57Z</time>
      </trkpt>
      <trkpt lat="47.78106" lon="-3.67431">
        <ele>23</ele>
        <time>2023-01-27T15:05:58Z</time>
      </trkpt>
      <trkpt lat="47.7811" lon="-3.6743">
        <ele>23.2</ele>
        <time>2023-01-27T15:05:59Z</time>
      </trkpt>
      <trkpt lat="47.78115" lon="-3.67429">
        <ele>23.3</ele>
        <time>2023-01-27T15:06:00Z</time>
      </trkpt>
      <trkpt lat="47.78119" lon="-3.67427">
        <ele>23.4</ele>
        <time>2023-01-27T15:06:01Z</time>
      </trkpt>
      <trkpt lat="47.78124" lon="-3.67425">
        <ele>23.6</ele>
        <time>2023-01-27T15:06:02Z</time>
      </trkpt>
      <trkpt lat="47.78128" lon="-3.67422">
        <ele>23.8</ele>
        <time>2023-01-27T15:06:03Z</time>
      </trkpt>
      <trkpt lat="47.78131" lon="-3.67419">
        <ele>23.9</ele>
        <time>2023-01-27T15:06:04Z</time>
      </trkpt>
      <trkpt lat="47.78135" lon="-3.67415">
        <ele>24</ele>
        <time>2023-01-27T15:06:05Z</time>
      </trkpt>
      <trkpt lat="47.78138" lon="-3.67413">
        <ele>24.2</ele>
        <time>2023-01-27T15:06:06Z</time>
      </trkpt>
      <trkpt lat="47.78141" lon="-3.67412">
        <ele>24.3</ele>
        <time>2023-01-27T15:06:07Z</time>
      </trkpt>
      <trkpt lat="47.78146" lon="-3.67412">
        <ele>24.4</ele>
        <time>2023-01-27T15:06:08Z</time>
      </trkpt>
      <trkpt lat="47.7815" lon="-3.67414">
        <ele>24.6</ele>
        <time>2023-01-27T15:06:09Z</time>
      </trkpt>
      <trkpt lat="47.78154" lon="-3.67417">
        <ele>24.8</ele>
        <time>2023-01-27T15:06:10Z</time>
      </trkpt>
      <trkpt lat="47.78155" lon="-3.67419">
        <ele>24.8</ele>
        <time>2023-01-27T15:06:11Z</time>
      </trkpt>
      <trkpt lat="47.78163" lon="-3.67422">
        <ele>25.3</ele>
        <time>2023-01-27T15:06:12Z</time>
      </trkpt>
      <trkpt lat="47.78167" lon="-3.67423">
        <ele>25.4</ele>
        <time>2023-01-27T15:06:13Z</time>
      </trkpt>
      <trkpt lat="47.78172" lon="-3.67426">
        <ele>25.7</ele>
        <time>2023-01-27T15:06:14Z</time>
      </trkpt>
      <trkpt lat="47.78177" lon="-3.67428">
        <ele>26</ele>
        <time>2023-01-27T15:06:15Z</time>
      </trkpt>
      <trkpt lat="47.78183" lon="-3.6743">
        <ele>26.3</ele>
        <time>2023-01-27T15:06:16Z</time>
      </trkpt>
      <trkpt lat="47.78187" lon="-3.67432">
        <ele>26.5</ele>
        <time>2023-01-27T15:06:18Z</time>
      </trkpt>
      <trkpt lat="47.78191" lon="-3.67434">
        <ele>26.7</ele>
        <time>2023-01-27T15:06:19Z</time>
      </trkpt>
      <trkpt lat="47.78194" lon="-3.67436">
        <ele>26.9</ele>
        <time>2023-01-27T15:06:20Z</time>
      </trkpt>
      <trkpt lat="47.78199" lon="-3.67438">
        <ele>27.1</ele>
        <time>2023-01-27T15:06:21Z</time>
      </trkpt>
      <trkpt lat="47.78203" lon="-3.6744">
        <ele>27.3</ele>
        <time>2023-01-27T15:06:22Z</time>
      </trkpt>
      <trkpt lat="47.7821" lon="-3.67446">
        <ele>27.7</ele>
        <time>2023-01-27T15:06:23Z</time>
      </trkpt>
      <trkpt lat="47.78215" lon="-3.67449">
        <ele>27.9</ele>
        <time>2023-01-27T15:06:25Z</time>
      </trkpt>
      <trkpt lat="47.7822" lon="-3.67454">
        <ele>28.1</ele>
        <time>2023-01-27T15:06:26Z</time>
      </trkpt>
      <trkpt lat="47.78227" lon="-3.6746">
        <ele>28.3</ele>
        <time>2023-01-27T15:06:28Z</time>
      </trkpt>
      <trkpt lat="47.78231" lon="-3.67464">
        <ele>28.5</ele>
        <time>2023-01-27T15:06:29Z</time>
      </trkpt>
      <trkpt lat="47.78235" lon="-3.67467">
        <ele>28.6</ele>
        <time>2023-01-27T15:06:30Z</time>
      </trkpt>
      <trkpt lat="47.78239" lon="-3.67471">
        <ele>28.7</ele>
        <time>2023-01-27T15:06:31Z</time>
      </trkpt>
      <trkpt lat="47.78243" lon="-3.67475">
        <ele>28.8</ele>
        <time>2023-01-27T15:06:32Z</time>
      </trkpt>
      <trkpt lat="47.78247" lon="-3.67479">
        <ele>29</ele>
        <time>2023-01-27T15:06:33Z</time>
      </trkpt>
      <trkpt lat="47.78251" lon="-3.67482">
        <ele>29.1</ele>
        <time>2023-01-27T15:06:34Z</time>
      </trkpt>
      <trkpt lat="47.78255" lon="-3.67486">
        <ele>29.2</ele>
        <time>2023-01-27T15:06:35Z</time>
      </trkpt>
      <trkpt lat="47.78259" lon="-3.6749">
        <ele>29.3</ele>
        <time>2023-01-27T15:06:36Z</time>
      </trkpt>
      <trkpt lat="47.78262" lon="-3.67495">
        <ele>29.4</ele>
        <time>2023-01-27T15:06:37Z</time>
      </trkpt>
      <trkpt lat="47.78265" lon="-3.675">
        <ele>29.6</ele>
        <time>2023-01-27T15:06:38Z</time>
      </trkpt>
      <trkpt lat="47.78268" lon="-3.67504">
        <ele>29.7</ele>
        <time>2023-01-27T15:06:39Z</time>
      </trkpt>
      <trkpt lat="47.78271" lon="-3.6751">
        <ele>29.9</ele>
        <time>2023-01-27T15:06:40Z</time>
      </trkpt>
      <trkpt lat="47.78274" lon="-3.67515">
        <ele>30</ele>
        <time>2023-01-27T15:06:41Z</time>
      </trkpt>
      <trkpt lat="47.78278" lon="-3.67519">
        <ele>30.2</ele>
        <time>2023-01-27T15:06:42Z</time>
      </trkpt>
      <trkpt lat="47.78281" lon="-3.67524">
        <ele>30.3</ele>
        <time>2023-01-27T15:06:43Z</time>
      </trkpt>
      <trkpt lat="47.78284" lon="-3.6753">
        <ele>30.4</ele>
        <time>2023-01-27T15:06:44Z</time>
      </trkpt>
      <trkpt lat="47.78286" lon="-3.67535">
        <ele>30.4</ele>
        <time>2023-01-27T15:06:45Z</time>
      </trkpt>
      <trkpt lat="47.78288" lon="-3.67541">
        <ele>30.4</ele>
        <time>2023-01-27T15:06:46Z</time>
      </trkpt>
      <trkpt lat="47.7829" lon="-3.67548">
        <ele>30.4</ele>
        <time>2023-01-27T15:06:47Z</time>
      </trkpt>
      <trkpt lat="47.78291" lon="-3.67554">
        <ele>30.4</ele>
        <time>2023-01-27T15:06:48Z</time>
      </trkpt>
      <trkpt lat="47.78293" lon="-3.67561">
        <ele>30.4</ele>
        <time>2023-01-27T15:06:49Z</time>
      </trkpt>
      <trkpt lat="47.78294" lon="-3.67568">
        <ele>30.3</ele>
        <time>2023-01-27T15:06:50Z</time>
      </trkpt>
      <trkpt lat="47.78296" lon="-3.67574">
        <ele>30.3</ele>
        <time>2023-01-27T15:06:51Z</time>
      </trkpt>
      <trkpt lat="47.78298" lon="-3.6758">
        <ele>30.3</ele>
        <time>2023-01-27T15:06:52Z</time>
      </trkpt>
      <trkpt lat="47.783" lon="-3.67587">
        <ele>30.3</ele>
        <time>2023-01-27T15:06:53Z</time>
      </trkpt>
      <trkpt lat="47.78302" lon="-3.67594">
        <ele>30.3</ele>
        <time>2023-01-27T15:06:54Z</time>
      </trkpt>
      <trkpt lat="47.78304" lon="-3.676">
        <ele>30.3</ele>
        <time>2023-01-27T15:06:55Z</time>
      </trkpt>
      <trkpt lat="47.78306" lon="-3.67607">
        <ele>30.3</ele>
        <time>2023-01-27T15:06:56Z</time>
      </trkpt>
      <trkpt lat="47.78308" lon="-3.67614">
        <ele>30.3</ele>
        <time>2023-01-27T15:06:57Z</time>
      </trkpt>
      <trkpt lat="47.7831" lon="-3.67621">
        <ele>30.3</ele>
        <time>2023-01-27T15:06:58Z</time>
      </trkpt>
      <trkpt lat="47.78312" lon="-3.67628">
        <ele>30.3</ele>
        <time>2023-01-27T15:06:59Z</time>
      </trkpt>
      <trkpt lat="47.78314" lon="-3.67635">
        <ele>30.3</ele>
        <time>2023-01-27T15:07:00Z</time>
      </trkpt>
      <trkpt lat="47.78315" lon="-3.67642">
        <ele>30.3</ele>
        <time>2023-01-27T15:07:01Z</time>
      </trkpt>
      <trkpt lat="47.78317" lon="-3.67649">
        <ele>30.3</ele>
        <time>2023-01-27T15:07:02Z</time>
      </trkpt>
      <trkpt lat="47.78319" lon="-3.67655">
        <ele>30.4</ele>
        <time>2023-01-27T15:07:03Z</time>
      </trkpt>
      <trkpt lat="47.78319" lon="-3.67662">
        <ele>30.4</ele>
        <time>2023-01-27T15:07:04Z</time>
      </trkpt>
      <trkpt lat="47.78316" lon="-3.67668">
        <ele>30.3</ele>
        <time>2023-01-27T15:07:05Z</time>
      </trkpt>
      <trkpt lat="47.78313" lon="-3.67672">
        <ele>30.3</ele>
        <time>2023-01-27T15:07:06Z</time>
      </trkpt>
      <trkpt lat="47.78309" lon="-3.67673">
        <ele>30.2</ele>
        <time>2023-01-27T15:07:07Z</time>
      </trkpt>
      <trkpt lat="47.78304" lon="-3.67675">
        <ele>30.2</ele>
        <time>2023-01-27T15:07:08Z</time>
      </trkpt>
      <trkpt lat="47.78301" lon="-3.67676">
        <ele>30.1</ele>
        <time>2023-01-27T15:07:09Z</time>
      </trkpt>
      <trkpt lat="47.78295" lon="-3.67679">
        <ele>30</ele>
        <time>2023-01-27T15:07:10Z</time>
      </trkpt>
      <trkpt lat="47.78289" lon="-3.67682">
        <ele>29.8</ele>
        <time>2023-01-27T15:07:11Z</time>
      </trkpt>
      <trkpt lat="47.78284" lon="-3.67683">
        <ele>29.7</ele>
        <time>2023-01-27T15:07:12Z</time>
      </trkpt>
      <trkpt lat="47.78279" lon="-3.67685">
        <ele>29.5</ele>
        <time>2023-01-27T15:07:13Z</time>
      </trkpt>
      <trkpt lat="47.78274" lon="-3.67687">
        <ele>29.4</ele>
        <time>2023-01-27T15:07:14Z</time>
      </trkpt>
      <trkpt lat="47.78269" lon="-3.67689">
        <ele>29.3</ele>
        <time>2023-01-27T15:07:15Z</time>
      </trkpt>
      <trkpt lat="47.78264" lon="-3.67691">
        <ele>29.2</ele>
        <time>2023-01-27T15:07:16Z</time>
      </trkpt>
      <trkpt lat="47.78259" lon="-3.67692">
        <ele>29.1</ele>
        <time>2023-01-27T15:07:17Z</time>
      </trkpt>
      <trkpt lat="47.78255" lon="-3.67693">
        <ele>29</ele>
        <time>2023-01-27T15:07:18Z</time>
      </trkpt>
      <trkpt lat="47.78251" lon="-3.67694">
        <ele>28.9</ele>
        <time>2023-01-27T15:07:19Z</time>
      </trkpt>
      <trkpt lat="47.78248" lon="-3.67692">
        <ele>28.9</ele>
        <time>2023-01-27T15:07:20Z</time>
      </trkpt>
      <trkpt lat="47.78242" lon="-3.67694">
        <ele>28.7</ele>
        <time>2023-01-27T15:07:21Z</time>
      </trkpt>
      <trkpt lat="47.78237" lon="-3.67695">
        <ele>28.6</ele>
        <time>2023-01-27T15:07:23Z</time>
      </trkpt>
      <trkpt lat="47.78232" lon="-3.67697">
        <ele>28.6</ele>
        <time>2023-01-27T15:07:24Z</time>
      </trkpt>
      <trkpt lat="47.78228" lon="-3.67699">
        <ele>28.5</ele>
        <time>2023-01-27T15:07:25Z</time>
      </trkpt>
      <trkpt lat="47.78224" lon="-3.67699">
        <ele>28.4</ele>
        <time>2023-01-27T15:07:27Z</time>
      </trkpt>
      <trkpt lat="47.7822" lon="-3.67699">
        <ele>28.4</ele>
        <time>2023-01-27T15:07:28Z</time>
      </trkpt>
      <trkpt lat="47.78213" lon="-3.67701">
        <ele>28.3</ele>
        <time>2023-01-27T15:07:29Z</time>
      </trkpt>
      <trkpt lat="47.7821" lon="-3.67702">
        <ele>28.2</ele>
        <time>2023-01-27T15:07:30Z</time>
      </trkpt>
      <trkpt lat="47.78203" lon="-3.67704">
        <ele>28.2</ele>
        <time>2023-01-27T15:07:32Z</time>
      </trkpt>
      <trkpt lat="47.78199" lon="-3.67706">
        <ele>28.1</ele>
        <time>2023-01-27T15:07:33Z</time>
      </trkpt>
      <trkpt lat="47.78192" lon="-3.67708">
        <ele>28</ele>
        <time>2023-01-27T15:07:35Z</time>
      </trkpt>
      <trkpt lat="47.78189" lon="-3.67709">
        <ele>28</ele>
        <time>2023-01-27T15:07:36Z</time>
      </trkpt>
      <trkpt lat="47.78185" lon="-3.6771">
        <ele>27.9</ele>
        <time>2023-01-27T15:07:37Z</time>
      </trkpt>
      <trkpt lat="47.78181" lon="-3.67713">
        <ele>27.9</ele>
        <time>2023-01-27T15:07:39Z</time>
      </trkpt>
      <trkpt lat="47.78178" lon="-3.67714">
        <ele>27.9</ele>
        <time>2023-01-27T15:07:40Z</time>
      </trkpt>
      <trkpt lat="47.78175" lon="-3.67717">
        <ele>27.9</ele>
        <time>2023-01-27T15:07:41Z</time>
      </trkpt>
      <trkpt lat="47.78171" lon="-3.67719">
        <ele>27.8</ele>
        <time>2023-01-27T15:07:42Z</time>
      </trkpt>
      <trkpt lat="47.78169" lon="-3.67721">
        <ele>27.8</ele>
        <time>2023-01-27T15:07:43Z</time>
      </trkpt>
      <trkpt lat="47.78165" lon="-3.67723">
        <ele>27.7</ele>
        <time>2023-01-27T15:07:44Z</time>
      </trkpt>
      <trkpt lat="47.78157" lon="-3.67726">
        <ele>27.4</ele>
        <time>2023-01-27T15:07:45Z</time>
      </trkpt>
      <trkpt lat="47.78153" lon="-3.67728">
        <ele>27.3</ele>
        <time>2023-01-27T15:07:47Z</time>
      </trkpt>
      <trkpt lat="47.78149" lon="-3.6773">
        <ele>27.1</ele>
        <time>2023-01-27T15:07:48Z</time>
      </trkpt>
      <trkpt lat="47.78142" lon="-3.67733">
        <ele>26.9</ele>
        <time>2023-01-27T15:07:49Z</time>
      </trkpt>
      <trkpt lat="47.78138" lon="-3.67735">
        <ele>26.7</ele>
        <time>2023-01-27T15:07:51Z</time>
      </trkpt>
      <trkpt lat="47.78131" lon="-3.67737">
        <ele>26.5</ele>
        <time>2023-01-27T15:07:52Z</time>
      </trkpt>
      <trkpt lat="47.78128" lon="-3.67739">
        <ele>26.3</ele>
        <time>2023-01-27T15:07:54Z</time>
      </trkpt>
      <trkpt lat="47.78124" lon="-3.6774">
        <ele>26.2</ele>
        <time>2023-01-27T15:07:55Z</time>
      </trkpt>
      <trkpt lat="47.78121" lon="-3.67741">
        <ele>26.1</ele>
        <time>2023-01-27T15:07:56Z</time>
      </trkpt>
      <trkpt lat="47.78117" lon="-3.67741">
        <ele>26</ele>
        <time>2023-01-27T15:07:57Z</time>
      </trkpt>
      <trkpt lat="47.78114" lon="-3.67741">
        <ele>26</ele>
        <time>2023-01-27T15:07:58Z</time>
      </trkpt>
      <trkpt lat="47.7811" lon="-3.67742">
        <ele>25.9</ele>
        <time>2023-01-27T15:07:59Z</time>
      </trkpt>
      <trkpt lat="47.78106" lon="-3.67743">
        <ele>25.8</ele>
        <time>2023-01-27T15:08:00Z</time>
      </trkpt>
      <trkpt lat="47.78104" lon="-3.67743">
        <ele>25.8</ele>
        <time>2023-01-27T15:08:01Z</time>
      </trkpt>
      <trkpt lat="47.78101" lon="-3.67744">
        <ele>25.8</ele>
        <time>2023-01-27T15:08:02Z</time>
      </trkpt>
      <trkpt lat="47.78099" lon="-3.67745">
        <ele>25.7</ele>
        <time>2023-01-27T15:08:03Z</time>
      </trkpt>
      <trkpt lat="47.78099" lon="-3.67745">
        <ele>25.7</ele>
        <time>2023-01-27T15:08:04Z</time>
      </trkpt>
      <trkpt lat="47.78099" lon="-3.67745">
        <ele>25.7</ele>
        <time>2023-01-27T15:08:05Z</time>
      </trkpt>
      <trkpt lat="47.78098" lon="-3.67745">
        <ele>25.7</ele>
        <time>2023-01-27T15:08:06Z</time>
      </trkpt>
      <trkpt lat="47.78098" lon="-3.67745">
        <ele>25.7</ele>
        <time>2023-01-27T15:08:07Z</time>
      </trkpt>
      <trkpt lat="47.78097" lon="-3.67745">
        <ele>25.7</ele>
        <time>2023-01-27T15:08:08Z</time>
      </trkpt>
      <trkpt lat="47.78097" lon="-3.67745">
        <ele>25.7</ele>
        <time>2023-01-27T15:08:09Z</time>
      </trkpt>
      <trkpt lat="47.78097" lon="-3.67745">
        <ele>25.7</ele>
        <time>2023-01-27T15:08:10Z</time>
      </trkpt>
      <trkpt lat="47.78096" lon="-3.67745">
        <ele>25.7</ele>
        <time>2023-01-27T15:08:11Z</time>
      </trkpt>
      <trkpt lat="47.78092" lon="-3.67747">
        <ele>25.5</ele>
        <time>2023-01-27T15:08:12Z</time>
      </trkpt>
      <trkpt lat="47.78089" lon="-3.67747">
        <ele>25.4</ele>
        <time>2023-01-27T15:08:13Z</time>
      </trkpt>
      <trkpt lat="47.78084" lon="-3.67754">
        <ele>25.2</ele>
        <time>2023-01-27T15:08:15Z</time>
      </trkpt>
      <trkpt lat="47.78084" lon="-3.67758">
        <ele>25.2</ele>
        <time>2023-01-27T15:08:16Z</time>
      </trkpt>
      <trkpt lat="47.78084" lon="-3.67763">
        <ele>25.1</ele>
        <time>2023-01-27T15:08:18Z</time>
      </trkpt>
      <trkpt lat="47.78083" lon="-3.67768">
        <ele>25</ele>
        <time>2023-01-27T15:08:19Z</time>
      </trkpt>
      <trkpt lat="47.78083" lon="-3.67772">
        <ele>24.9</ele>
        <time>2023-01-27T15:08:20Z</time>
      </trkpt>
      <trkpt lat="47.78083" lon="-3.67776">
        <ele>24.8</ele>
        <time>2023-01-27T15:08:21Z</time>
      </trkpt>
      <trkpt lat="47.78083" lon="-3.67782">
        <ele>24.7</ele>
        <time>2023-01-27T15:08:22Z</time>
      </trkpt>
      <trkpt lat="47.78084" lon="-3.67787">
        <ele>24.7</ele>
        <time>2023-01-27T15:08:23Z</time>
      </trkpt>
      <trkpt lat="47.78086" lon="-3.67795">
        <ele>24.6</ele>
        <time>2023-01-27T15:08:24Z</time>
      </trkpt>
      <trkpt lat="47.78087" lon="-3.678">
        <ele>24.5</ele>
        <time>2023-01-27T15:08:26Z</time>
      </trkpt>
      <trkpt lat="47.78088" lon="-3.67808">
        <ele>24.5</ele>
        <time>2023-01-27T15:08:27Z</time>
      </trkpt>
      <trkpt lat="47.78089" lon="-3.67813">
        <ele>24.5</ele>
        <time>2023-01-27T15:08:29Z</time>
      </trkpt>
      <trkpt lat="47.7809" lon="-3.67814">
        <ele>24.5</ele>
        <time>2023-01-27T15:08:30Z</time>
      </trkpt>
      <trkpt lat="47.78091" lon="-3.67813">
        <ele>24.6</ele>
        <time>2023-01-27T15:08:31Z</time>
      </trkpt>
      <trkpt lat="47.78091" lon="-3.67813">
        <ele>24.6</ele>
        <time>2023-01-27T15:08:32Z</time>
      </trkpt>
      <trkpt lat="47.78092" lon="-3.67814">
        <ele>24.6</ele>
        <time>2023-01-27T15:08:33Z</time>
      </trkpt>
      <trkpt lat="47.78093" lon="-3.67816">
        <ele>24.6</ele>
        <time>2023-01-27T15:08:34Z</time>
      </trkpt>
      <trkpt lat="47.78096" lon="-3.67813">
        <ele>24.7</ele>
        <time>2023-01-27T15:08:35Z</time>
      </trkpt>
      <trkpt lat="47.78097" lon="-3.67813">
        <ele>24.7</ele>
        <time>2023-01-27T15:08:36Z</time>
      </trkpt>
      <trkpt lat="47.781" lon="-3.67812">
        <ele>24.8</ele>
        <time>2023-01-27T15:08:37Z</time>
      </trkpt>
      <trkpt lat="47.78102" lon="-3.67811">
        <ele>24.8</ele>
        <time>2023-01-27T15:08:38Z</time>
      </trkpt>
      <trkpt lat="47.78106" lon="-3.6781">
        <ele>24.9</ele>
        <time>2023-01-27T15:08:39Z</time>
      </trkpt>
      <trkpt lat="47.78107" lon="-3.6781">
        <ele>24.9</ele>
        <time>2023-01-27T15:08:40Z</time>
      </trkpt>
      <trkpt lat="47.7811" lon="-3.67809">
        <ele>25</ele>
        <time>2023-01-27T15:08:41Z</time>
      </trkpt>
      <trkpt lat="47.78113" lon="-3.67808">
        <ele>25</ele>
        <time>2023-01-27T15:08:42Z</time>
      </trkpt>
      <trkpt lat="47.78116" lon="-3.67808">
        <ele>25.1</ele>
        <time>2023-01-27T15:08:43Z</time>
      </trkpt>
      <trkpt lat="47.78119" lon="-3.67808">
        <ele>25.2</ele>
        <time>2023-01-27T15:08:44Z</time>
      </trkpt>
      <trkpt lat="47.78122" lon="-3.67807">
        <ele>25.2</ele>
        <time>2023-01-27T15:08:45Z</time>
      </trkpt>
      <trkpt lat="47.78126" lon="-3.67808">
        <ele>25.3</ele>
        <time>2023-01-27T15:08:46Z</time>
      </trkpt>
      <trkpt lat="47.78127" lon="-3.67808">
        <ele>25.3</ele>
        <time>2023-01-27T15:08:47Z</time>
      </trkpt>
      <trkpt lat="47.78131" lon="-3.67808">
        <ele>25.4</ele>
        <time>2023-01-27T15:08:48Z</time>
      </trkpt>
      <trkpt lat="47.78132" lon="-3.67808">
        <ele>25.4</ele>
        <time>2023-01-27T15:08:49Z</time>
      </trkpt>
      <trkpt lat="47.78135" lon="-3.67808">
        <ele>25.5</ele>
        <time>2023-01-27T15:08:50Z</time>
      </trkpt>
      <trkpt lat="47.78139" lon="-3.67807">
        <ele>25.6</ele>
        <time>2023-01-27T15:08:51Z</time>
      </trkpt>
      <trkpt lat="47.7814" lon="-3.67807">
        <ele>25.6</ele>
        <time>2023-01-27T15:08:52Z</time>
      </trkpt>
      <trkpt lat="47.78143" lon="-3.67806">
        <ele>25.6</ele>
        <time>2023-01-27T15:08:53Z</time>
      </trkpt>
      <trkpt lat="47.78146" lon="-3.67807">
        <ele>25.7</ele>
        <time>2023-01-27T15:08:54Z</time>
      </trkpt>
      <trkpt lat="47.78151" lon="-3.67808">
        <ele>25.8</ele>
        <time>2023-01-27T15:08:56Z</time>
      </trkpt>
      <trkpt lat="47.78154" lon="-3.67808">
        <ele>25.9</ele>
        <time>2023-01-27T15:08:57Z</time>
      </trkpt>
      <trkpt lat="47.78159" lon="-3.67808">
        <ele>26</ele>
        <time>2023-01-27T15:08:59Z</time>
      </trkpt>
      <trkpt lat="47.78161" lon="-3.67808">
        <ele>26</ele>
        <time>2023-01-27T15:09:00Z</time>
      </trkpt>
      <trkpt lat="47.78168" lon="-3.67809">
        <ele>26.1</ele>
        <time>2023-01-27T15:09:02Z</time>
      </trkpt>
      <trkpt lat="47.78173" lon="-3.67809">
        <ele>26.3</ele>
        <time>2023-01-27T15:09:04Z</time>
      </trkpt>
      <trkpt lat="47.78176" lon="-3.67809">
        <ele>26.3</ele>
        <time>2023-01-27T15:09:06Z</time>
      </trkpt>
      <trkpt lat="47.7818" lon="-3.67809">
        <ele>26.4</ele>
        <time>2023-01-27T15:09:07Z</time>
      </trkpt>
      <trkpt lat="47.78181" lon="-3.67809">
        <ele>26.4</ele>
        <time>2023-01-27T15:09:08Z</time>
      </trkpt>
      <trkpt lat="47.78184" lon="-3.67809">
        <ele>26.5</ele>
        <time>2023-01-27T15:09:09Z</time>
      </trkpt>
      <trkpt lat="47.78187" lon="-3.6781">
        <ele>26.5</ele>
        <time>2023-01-27T15:09:10Z</time>
      </trkpt>
      <trkpt lat="47.78193" lon="-3.67811">
        <ele>26.6</ele>
        <time>2023-01-27T15:09:11Z</time>
      </trkpt>
      <trkpt lat="47.78199" lon="-3.67813">
        <ele>26.8</ele>
        <time>2023-01-27T15:09:13Z</time>
      </trkpt>
      <trkpt lat="47.78203" lon="-3.67814">
        <ele>26.9</ele>
        <time>2023-01-27T15:09:15Z</time>
      </trkpt>
      <trkpt lat="47.78206" lon="-3.67815">
        <ele>26.9</ele>
        <time>2023-01-27T15:09:16Z</time>
      </trkpt>
      <trkpt lat="47.7821" lon="-3.67815">
        <ele>27</ele>
        <time>2023-01-27T15:09:18Z</time>
      </trkpt>
      <trkpt lat="47.78212" lon="-3.67816">
        <ele>27</ele>
        <time>2023-01-27T15:09:19Z</time>
      </trkpt>
      <trkpt lat="47.78216" lon="-3.67816">
        <ele>27.1</ele>
        <time>2023-01-27T15:09:20Z</time>
      </trkpt>
      <trkpt lat="47.78217" lon="-3.67816">
        <ele>27.1</ele>
        <time>2023-01-27T15:09:21Z</time>
      </trkpt>
      <trkpt lat="47.78221" lon="-3.67816">
        <ele>27.2</ele>
        <time>2023-01-27T15:09:22Z</time>
      </trkpt>
      <trkpt lat="47.78223" lon="-3.67815">
        <ele>27.3</ele>
        <time>2023-01-27T15:09:23Z</time>
      </trkpt>
      <trkpt lat="47.78226" lon="-3.67815">
        <ele>27.3</ele>
        <time>2023-01-27T15:09:25Z</time>
      </trkpt>
      <trkpt lat="47.78231" lon="-3.67816">
        <ele>27.4</ele>
        <time>2023-01-27T15:09:26Z</time>
      </trkpt>
      <trkpt lat="47.78234" lon="-3.67816">
        <ele>27.5</ele>
        <time>2023-01-27T15:09:27Z</time>
      </trkpt>
      <trkpt lat="47.78237" lon="-3.67816">
        <ele>27.5</ele>
        <time>2023-01-27T15:09:28Z</time>
      </trkpt>
      <trkpt lat="47.78242" lon="-3.67815">
        <ele>27.6</ele>
        <time>2023-01-27T15:09:30Z</time>
      </trkpt>
      <trkpt lat="47.78246" lon="-3.67814">
        <ele>27.7</ele>
        <time>2023-01-27T15:09:32Z</time>
      </trkpt>
      <trkpt lat="47.7825" lon="-3.67815">
        <ele>27.8</ele>
        <time>2023-01-27T15:09:34Z</time>
      </trkpt>
      <trkpt lat="47.78253" lon="-3.67815">
        <ele>27.8</ele>
        <time>2023-01-27T15:09:36Z</time>
      </trkpt>
      <trkpt lat="47.78257" lon="-3.67816">
        <ele>27.9</ele>
        <time>2023-01-27T15:09:37Z</time>
      </trkpt>
      <trkpt lat="47.78258" lon="-3.67816">
        <ele>27.9</ele>
        <time>2023-01-27T15:09:38Z</time>
      </trkpt>
      <trkpt lat="47.78261" lon="-3.67816">
        <ele>28</ele>
        <time>2023-01-27T15:09:39Z</time>
      </trkpt>
      <trkpt lat="47.78262" lon="-3.67816">
        <ele>28</ele>
        <time>2023-01-27T15:09:40Z</time>
      </trkpt>
      <trkpt lat="47.78265" lon="-3.67816">
        <ele>28.1</ele>
        <time>2023-01-27T15:09:41Z</time>
      </trkpt>
      <trkpt lat="47.78266" lon="-3.67816">
        <ele>28.1</ele>
        <time>2023-01-27T15:09:42Z</time>
      </trkpt>
      <trkpt lat="47.78268" lon="-3.67817">
        <ele>28.1</ele>
        <time>2023-01-27T15:09:43Z</time>
      </trkpt>
      <trkpt lat="47.78268" lon="-3.67817">
        <ele>28.2</ele>
        <time>2023-01-27T15:09:44Z</time>
      </trkpt>
      <trkpt lat="47.78269" lon="-3.67817">
        <ele>28.2</ele>
        <time>2023-01-27T15:09:45Z</time>
      </trkpt>
      <trkpt lat="47.7827" lon="-3.67817">
        <ele>28.2</ele>
        <time>2023-01-27T15:09:46Z</time>
      </trkpt>
      <trkpt lat="47.78272" lon="-3.67816">
        <ele>28.2</ele>
        <time>2023-01-27T15:09:47Z</time>
      </trkpt>
      <trkpt lat="47.78274" lon="-3.67816">
        <ele>28.3</ele>
        <time>2023-01-27T15:09:48Z</time>
      </trkpt>
      <trkpt lat="47.78275" lon="-3.67816">
        <ele>28.3</ele>
        <time>2023-01-27T15:09:49Z</time>
      </trkpt>
      <trkpt lat="47.78276" lon="-3.67816">
        <ele>28.3</ele>
        <time>2023-01-27T15:09:50Z</time>
      </trkpt>
      <trkpt lat="47.78277" lon="-3.67817">
        <ele>28.3</ele>
        <time>2023-01-27T15:09:51Z</time>
      </trkpt>
      <trkpt lat="47.78279" lon="-3.67817">
        <ele>28.4</ele>
        <time>2023-01-27T15:09:52Z</time>
      </trkpt>
      <trkpt lat="47.78282" lon="-3.67817">
        <ele>28.4</ele>
        <time>2023-01-27T15:09:53Z</time>
      </trkpt>
      <trkpt lat="47.78285" lon="-3.67817">
        <ele>28.5</ele>
        <time>2023-01-27T15:09:54Z</time>
      </trkpt>
      <trkpt lat="47.78287" lon="-3.67817">
        <ele>28.5</ele>
        <time>2023-01-27T15:09:56Z</time>
      </trkpt>
      <trkpt lat="47.78289" lon="-3.67816">
        <ele>28.6</ele>
        <time>2023-01-27T15:09:57Z</time>
      </trkpt>
      <trkpt lat="47.78291" lon="-3.67817">
        <ele>28.6</ele>
        <time>2023-01-27T15:09:58Z</time>
      </trkpt>
      <trkpt lat="47.78293" lon="-3.67819">
        <ele>28.7</ele>
        <time>2023-01-27T15:10:00Z</time>
      </trkpt>
      <trkpt lat="47.78295" lon="-3.6782">
        <ele>28.7</ele>
        <time>2023-01-27T15:10:01Z</time>
      </trkpt>
      <trkpt lat="47.78297" lon="-3.6782">
        <ele>28.7</ele>
        <time>2023-01-27T15:10:02Z</time>
      </trkpt>
      <trkpt lat="47.78302" lon="-3.6782">
        <ele>28.8</ele>
        <time>2023-01-27T15:10:04Z</time>
      </trkpt>
      <trkpt lat="47.78304" lon="-3.67819">
        <ele>28.9</ele>
        <time>2023-01-27T15:10:06Z</time>
      </trkpt>
      <trkpt lat="47.78306" lon="-3.67817">
        <ele>28.9</ele>
        <time>2023-01-27T15:10:07Z</time>
      </trkpt>
      <trkpt lat="47.78307" lon="-3.67817">
        <ele>28.9</ele>
        <time>2023-01-27T15:10:08Z</time>
      </trkpt>
      <trkpt lat="47.78307" lon="-3.67816">
        <ele>29</ele>
        <time>2023-01-27T15:10:09Z</time>
      </trkpt>
      <trkpt lat="47.78309" lon="-3.67815">
        <ele>29</ele>
        <time>2023-01-27T15:10:10Z</time>
      </trkpt>
      <trkpt lat="47.7831" lon="-3.67815">
        <ele>29</ele>
        <time>2023-01-27T15:10:11Z</time>
      </trkpt>
      <trkpt lat="47.78311" lon="-3.67814">
        <ele>29</ele>
        <time>2023-01-27T15:10:12Z</time>
      </trkpt>
      <trkpt lat="47.78314" lon="-3.67812">
        <ele>29.1</ele>
        <time>2023-01-27T15:10:13Z</time>
      </trkpt>
      <trkpt lat="47.78316" lon="-3.67812">
        <ele>29.1</ele>
        <time>2023-01-27T15:10:14Z</time>
      </trkpt>
      <trkpt lat="47.78319" lon="-3.67811">
        <ele>29.2</ele>
        <time>2023-01-27T15:10:15Z</time>
      </trkpt>
      <trkpt lat="47.7832" lon="-3.67811">
        <ele>29.2</ele>
        <time>2023-01-27T15:10:16Z</time>
      </trkpt>
      <trkpt lat="47.78324" lon="-3.67809">
        <ele>29.3</ele>
        <time>2023-01-27T15:10:17Z</time>
      </trkpt>
      <trkpt lat="47.78325" lon="-3.67808">
        <ele>29.3</ele>
        <time>2023-01-27T15:10:18Z</time>
      </trkpt>
      <trkpt lat="47.78329" lon="-3.67806">
        <ele>29.4</ele>
        <time>2023-01-27T15:10:19Z</time>
      </trkpt>
      <trkpt lat="47.78331" lon="-3.67803">
        <ele>29.5</ele>
        <time>2023-01-27T15:10:20Z</time>
      </trkpt>
      <trkpt lat="47.78335" lon="-3.67802">
        <ele>29.5</ele>
        <time>2023-01-27T15:10:21Z</time>
      </trkpt>
      <trkpt lat="47.78338" lon="-3.67803">
        <ele>29.6</ele>
        <time>2023-01-27T15:10:22Z</time>
      </trkpt>
      <trkpt lat="47.78341" lon="-3.67802">
        <ele>29.7</ele>
        <time>2023-01-27T15:10:23Z</time>
      </trkpt>
      <trkpt lat="47.78345" lon="-3.67802">
        <ele>29.7</ele>
        <time>2023-01-27T15:10:24Z</time>
      </trkpt>
      <trkpt lat="47.78346" lon="-3.67802">
        <ele>29.8</ele>
        <time>2023-01-27T15:10:25Z</time>
      </trkpt>
      <trkpt lat="47.78349" lon="-3.67799">
        <ele>29.8</ele>
        <time>2023-01-27T15:10:26Z</time>
      </trkpt>
      <trkpt lat="47.78352" lon="-3.67798">
        <ele>29.9</ele>
        <time>2023-01-27T15:10:27Z</time>
      </trkpt>
      <trkpt lat="47.78353" lon="-3.67798">
        <ele>29.9</ele>
        <time>2023-01-27T15:10:28Z</time>
      </trkpt>
      <trkpt lat="47.78357" lon="-3.67805">
        <ele>29.8</ele>
        <time>2023-01-27T15:10:30Z</time>
      </trkpt>
      <trkpt lat="47.78358" lon="-3.67811">
        <ele>29.8</ele>
        <time>2023-01-27T15:10:31Z</time>
      </trkpt>
      <trkpt lat="47.78361" lon="-3.67822">
        <ele>29.8</ele>
        <time>2023-01-27T15:10:32Z</time>
      </trkpt>
      <trkpt lat="47.78364" lon="-3.67827">
        <ele>29.7</ele>
        <time>2023-01-27T15:10:34Z</time>
      </trkpt>
      <trkpt lat="47.78368" lon="-3.67831">
        <ele>29.7</ele>
        <time>2023-01-27T15:10:35Z</time>
      </trkpt>
      <trkpt lat="47.78372" lon="-3.67835">
        <ele>29.6</ele>
        <time>2023-01-27T15:10:36Z</time>
      </trkpt>
      <trkpt lat="47.78379" lon="-3.67839">
        <ele>29.6</ele>
        <time>2023-01-27T15:10:37Z</time>
      </trkpt>
      <trkpt lat="47.78384" lon="-3.67841">
        <ele>29.5</ele>
        <time>2023-01-27T15:10:39Z</time>
      </trkpt>
      <trkpt lat="47.7839" lon="-3.67843">
        <ele>29.5</ele>
        <time>2023-01-27T15:10:40Z</time>
      </trkpt>
      <trkpt lat="47.78395" lon="-3.67844">
        <ele>29.5</ele>
        <time>2023-01-27T15:10:41Z</time>
      </trkpt>
      <trkpt lat="47.784" lon="-3.67845">
        <ele>29.5</ele>
        <time>2023-01-27T15:10:42Z</time>
      </trkpt>
      <trkpt lat="47.78404" lon="-3.67846">
        <ele>29.5</ele>
        <time>2023-01-27T15:10:43Z</time>
      </trkpt>
      <trkpt lat="47.7841" lon="-3.6785">
        <ele>29.5</ele>
        <time>2023-01-27T15:10:45Z</time>
      </trkpt>
      <trkpt lat="47.78416" lon="-3.6785">
        <ele>29.5</ele>
        <time>2023-01-27T15:10:46Z</time>
      </trkpt>
      <trkpt lat="47.7842" lon="-3.6785">
        <ele>29.5</ele>
        <time>2023-01-27T15:10:47Z</time>
      </trkpt>
      <trkpt lat="47.78424" lon="-3.67852">
        <ele>29.5</ele>
        <time>2023-01-27T15:10:48Z</time>
      </trkpt>
      <trkpt lat="47.78428" lon="-3.67855">
        <ele>29.5</ele>
        <time>2023-01-27T15:10:49Z</time>
      </trkpt>
      <trkpt lat="47.78433" lon="-3.6786">
        <ele>29.6</ele>
        <time>2023-01-27T15:10:50Z</time>
      </trkpt>
      <trkpt lat="47.78437" lon="-3.67865">
        <ele>29.6</ele>
        <time>2023-01-27T15:10:51Z</time>
      </trkpt>
      <trkpt lat="47.78441" lon="-3.6787">
        <ele>29.6</ele>
        <time>2023-01-27T15:10:52Z</time>
      </trkpt>
      <trkpt lat="47.78444" lon="-3.67875">
        <ele>29.7</ele>
        <time>2023-01-27T15:10:53Z</time>
      </trkpt>
      <trkpt lat="47.78447" lon="-3.67879">
        <ele>29.7</ele>
        <time>2023-01-27T15:10:54Z</time>
      </trkpt>
      <trkpt lat="47.78451" lon="-3.67883">
        <ele>29.7</ele>
        <time>2023-01-27T15:10:55Z</time>
      </trkpt>
      <trkpt lat="47.78455" lon="-3.67887">
        <ele>29.8</ele>
        <time>2023-01-27T15:10:56Z</time>
      </trkpt>
      <trkpt lat="47.78459" lon="-3.6789">
        <ele>29.8</ele>
        <time>2023-01-27T15:10:57Z</time>
      </trkpt>
      <trkpt lat="47.78463" lon="-3.67894">
        <ele>29.8</ele>
        <time>2023-01-27T15:10:58Z</time>
      </trkpt>
      <trkpt lat="47.78467" lon="-3.67896">
        <ele>29.8</ele>
        <time>2023-01-27T15:10:59Z</time>
      </trkpt>
      <trkpt lat="47.78472" lon="-3.67898">
        <ele>29.9</ele>
        <time>2023-01-27T15:11:00Z</time>
      </trkpt>
      <trkpt lat="47.78476" lon="-3.67901">
        <ele>29.9</ele>
        <time>2023-01-27T15:11:01Z</time>
      </trkpt>
      <trkpt lat="47.7848" lon="-3.67902">
        <ele>29.9</ele>
        <time>2023-01-27T15:11:02Z</time>
      </trkpt>
      <trkpt lat="47.78485" lon="-3.67904">
        <ele>30</ele>
        <time>2023-01-27T15:11:03Z</time>
      </trkpt>
      <trkpt lat="47.7849" lon="-3.67905">
        <ele>30</ele>
        <time>2023-01-27T15:11:04Z</time>
      </trkpt>
      <trkpt lat="47.78494" lon="-3.67908">
        <ele>30</ele>
        <time>2023-01-27T15:11:05Z</time>
      </trkpt>
      <trkpt lat="47.78498" lon="-3.67913">
        <ele>30.1</ele>
        <time>2023-01-27T15:11:06Z</time>
      </trkpt>
      <trkpt lat="47.78501" lon="-3.67918">
        <ele>30.1</ele>
        <time>2023-01-27T15:11:07Z</time>
      </trkpt>
      <trkpt lat="47.78503" lon="-3.67925">
        <ele>30.1</ele>
        <time>2023-01-27T15:11:08Z</time>
      </trkpt>
      <trkpt lat="47.78505" lon="-3.67931">
        <ele>30.2</ele>
        <time>2023-01-27T15:11:09Z</time>
      </trkpt>
      <trkpt lat="47.78507" lon="-3.67938">
        <ele>30.2</ele>
        <time>2023-01-27T15:11:10Z</time>
      </trkpt>
      <trkpt lat="47.78509" lon="-3.67946">
        <ele>30.2</ele>
        <time>2023-01-27T15:11:11Z</time>
      </trkpt>
      <trkpt lat="47.78511" lon="-3.67952">
        <ele>30.2</ele>
        <time>2023-01-27T15:11:12Z</time>
      </trkpt>
      <trkpt lat="47.78514" lon="-3.67959">
        <ele>30.2</ele>
        <time>2023-01-27T15:11:13Z</time>
      </trkpt>
      <trkpt lat="47.78518" lon="-3.67965">
        <ele>30.3</ele>
        <time>2023-01-27T15:11:14Z</time>
      </trkpt>
      <trkpt lat="47.78522" lon="-3.6797">
        <ele>30.3</ele>
        <time>2023-01-27T15:11:15Z</time>
      </trkpt>
      <trkpt lat="47.78527" lon="-3.67974">
        <ele>30.3</ele>
        <time>2023-01-27T15:11:16Z</time>
      </trkpt>
      <trkpt lat="47.78531" lon="-3.67978">
        <ele>30.4</ele>
        <time>2023-01-27T15:11:17Z</time>
      </trkpt>
      <trkpt lat="47.78536" lon="-3.67981">
        <ele>30.4</ele>
        <time>2023-01-27T15:11:18Z</time>
      </trkpt>
      <trkpt lat="47.78541" lon="-3.67983">
        <ele>30.5</ele>
        <time>2023-01-27T15:11:19Z</time>
      </trkpt>
      <trkpt lat="47.78545" lon="-3.67985">
        <ele>30.5</ele>
        <time>2023-01-27T15:11:20Z</time>
      </trkpt>
      <trkpt lat="47.7855" lon="-3.67988">
        <ele>30.5</ele>
        <time>2023-01-27T15:11:21Z</time>
      </trkpt>
      <trkpt lat="47.78555" lon="-3.67991">
        <ele>30.6</ele>
        <time>2023-01-27T15:11:22Z</time>
      </trkpt>
      <trkpt lat="47.78559" lon="-3.67995">
        <ele>30.6</ele>
        <time>2023-01-27T15:11:23Z</time>
      </trkpt>
      <trkpt lat="47.78563" lon="-3.67999">
        <ele>30.6</ele>
        <time>2023-01-27T15:11:24Z</time>
      </trkpt>
      <trkpt lat="47.78566" lon="-3.68005">
        <ele>30.7</ele>
        <time>2023-01-27T15:11:25Z</time>
      </trkpt>
      <trkpt lat="47.78569" lon="-3.68011">
        <ele>30.7</ele>
        <time>2023-01-27T15:11:26Z</time>
      </trkpt>
      <trkpt lat="47.78572" lon="-3.68017">
        <ele>30.7</ele>
        <time>2023-01-27T15:11:27Z</time>
      </trkpt>
      <trkpt lat="47.78573" lon="-3.68025">
        <ele>30.8</ele>
        <time>2023-01-27T15:11:28Z</time>
      </trkpt>
      <trkpt lat="47.78574" lon="-3.68032">
        <ele>30.8</ele>
        <time>2023-01-27T15:11:29Z</time>
      </trkpt>
      <trkpt lat="47.78575" lon="-3.6804">
        <ele>30.9</ele>
        <time>2023-01-27T15:11:30Z</time>
      </trkpt>
      <trkpt lat="47.78576" lon="-3.68047">
        <ele>30.9</ele>
        <time>2023-01-27T15:11:31Z</time>
      </trkpt>
      <trkpt lat="47.78577" lon="-3.68055">
        <ele>30.9</ele>
        <time>2023-01-27T15:11:32Z</time>
      </trkpt>
      <trkpt lat="47.78579" lon="-3.68062">
        <ele>31</ele>
        <time>2023-01-27T15:11:33Z</time>
      </trkpt>
      <trkpt lat="47.78582" lon="-3.68069">
        <ele>31.1</ele>
        <time>2023-01-27T15:11:34Z</time>
      </trkpt>
      <trkpt lat="47.78587" lon="-3.68074">
        <ele>31.1</ele>
        <time>2023-01-27T15:11:35Z</time>
      </trkpt>
      <trkpt lat="47.78592" lon="-3.68078">
        <ele>31.1</ele>
        <time>2023-01-27T15:11:36Z</time>
      </trkpt>
      <trkpt lat="47.78598" lon="-3.68079">
        <ele>31.1</ele>
        <time>2023-01-27T15:11:37Z</time>
      </trkpt>
      <trkpt lat="47.78603" lon="-3.68079">
        <ele>31.1</ele>
        <time>2023-01-27T15:11:38Z</time>
      </trkpt>
      <trkpt lat="47.78608" lon="-3.68079">
        <ele>31.2</ele>
        <time>2023-01-27T15:11:39Z</time>
      </trkpt>
      <trkpt lat="47.78614" lon="-3.68078">
        <ele>31.2</ele>
        <time>2023-01-27T15:11:40Z</time>
      </trkpt>
      <trkpt lat="47.78619" lon="-3.68078">
        <ele>31.2</ele>
        <time>2023-01-27T15:11:41Z</time>
      </trkpt>
      <trkpt lat="47.78624" lon="-3.68077">
        <ele>31.3</ele>
        <time>2023-01-27T15:11:42Z</time>
      </trkpt>
      <trkpt lat="47.78628" lon="-3.68077">
        <ele>31.3</ele>
        <time>2023-01-27T15:11:43Z</time>
      </trkpt>
      <trkpt lat="47.78632" lon="-3.68076">
        <ele>31.4</ele>
        <time>2023-01-27T15:11:44Z</time>
      </trkpt>
      <trkpt lat="47.78635" lon="-3.68074">
        <ele>31.4</ele>
        <time>2023-01-27T15:11:45Z</time>
      </trkpt>
      <trkpt lat="47.78639" lon="-3.68074">
        <ele>31.5</ele>
        <time>2023-01-27T15:11:46Z</time>
      </trkpt>
      <trkpt lat="47.78643" lon="-3.68073">
        <ele>31.5</ele>
        <time>2023-01-27T15:11:47Z</time>
      </trkpt>
      <trkpt lat="47.78647" lon="-3.68073">
        <ele>31.6</ele>
        <time>2023-01-27T15:11:48Z</time>
      </trkpt>
      <trkpt lat="47.78653" lon="-3.68073">
        <ele>31.6</ele>
        <time>2023-01-27T15:11:49Z</time>
      </trkpt>
      <trkpt lat="47.78658" lon="-3.68073">
        <ele>31.6</ele>
        <time>2023-01-27T15:11:50Z</time>
      </trkpt>
      <trkpt lat="47.78663" lon="-3.68072">
        <ele>31.6</ele>
        <time>2023-01-27T15:11:51Z</time>
      </trkpt>
      <trkpt lat="47.78668" lon="-3.68072">
        <ele>31.6</ele>
        <time>2023-01-27T15:11:52Z</time>
      </trkpt>
      <trkpt lat="47.78674" lon="-3.68071">
        <ele>31.5</ele>
        <time>2023-01-27T15:11:53Z</time>
      </trkpt>
      <trkpt lat="47.78679" lon="-3.6807">
        <ele>31.5</ele>
        <time>2023-01-27T15:11:54Z</time>
      </trkpt>
      <trkpt lat="47.78684" lon="-3.68069">
        <ele>31.5</ele>
        <time>2023-01-27T15:11:55Z</time>
      </trkpt>
      <trkpt lat="47.78689" lon="-3.68068">
        <ele>31.5</ele>
        <time>2023-01-27T15:11:56Z</time>
      </trkpt>
      <trkpt lat="47.78695" lon="-3.68067">
        <ele>31.5</ele>
        <time>2023-01-27T15:11:57Z</time>
      </trkpt>
      <trkpt lat="47.787" lon="-3.68066">
        <ele>31.5</ele>
        <time>2023-01-27T15:11:58Z</time>
      </trkpt>
      <trkpt lat="47.78705" lon="-3.68065">
        <ele>31.5</ele>
        <time>2023-01-27T15:11:59Z</time>
      </trkpt>
      <trkpt lat="47.78711" lon="-3.68064">
        <ele>31.5</ele>
        <time>2023-01-27T15:12:00Z</time>
      </trkpt>
      <trkpt lat="47.78717" lon="-3.68063">
        <ele>31.5</ele>
        <time>2023-01-27T15:12:01Z</time>
      </trkpt>
      <trkpt lat="47.78722" lon="-3.68062">
        <ele>31.5</ele>
        <time>2023-01-27T15:12:02Z</time>
      </trkpt>
      <trkpt lat="47.78728" lon="-3.68062">
        <ele>31.6</ele>
        <time>2023-01-27T15:12:03Z</time>
      </trkpt>
      <trkpt lat="47.78733" lon="-3.68061">
        <ele>31.6</ele>
        <time>2023-01-27T15:12:04Z</time>
      </trkpt>
      <trkpt lat="47.78739" lon="-3.68059">
        <ele>31.6</ele>
        <time>2023-01-27T15:12:05Z</time>
      </trkpt>
      <trkpt lat="47.78744" lon="-3.68059">
        <ele>31.6</ele>
        <time>2023-01-27T15:12:06Z</time>
      </trkpt>
      <trkpt lat="47.7875" lon="-3.68058">
        <ele>31.6</ele>
        <time>2023-01-27T15:12:07Z</time>
      </trkpt>
      <trkpt lat="47.78755" lon="-3.68058">
        <ele>31.6</ele>
        <time>2023-01-27T15:12:08Z</time>
      </trkpt>
      <trkpt lat="47.78761" lon="-3.68058">
        <ele>31.6</ele>
        <time>2023-01-27T15:12:09Z</time>
      </trkpt>
      <trkpt lat="47.78766" lon="-3.68057">
        <ele>31.6</ele>
        <time>2023-01-27T15:12:10Z</time>
      </trkpt>
      <trkpt lat="47.78771" lon="-3.68057">
        <ele>31.6</ele>
        <time>2023-01-27T15:12:11Z</time>
      </trkpt>
      <trkpt lat="47.78776" lon="-3.68056">
        <ele>31.7</ele>
        <time>2023-01-27T15:12:12Z</time>
      </trkpt>
      <trkpt lat="47.78781" lon="-3.68056">
        <ele>31.7</ele>
        <time>2023-01-27T15:12:13Z</time>
      </trkpt>
      <trkpt lat="47.78787" lon="-3.68056">
        <ele>31.8</ele>
        <time>2023-01-27T15:12:14Z</time>
      </trkpt>
      <trkpt lat="47.78792" lon="-3.68055">
        <ele>31.8</ele>
        <time>2023-01-27T15:12:15Z</time>
      </trkpt>
      <trkpt lat="47.78797" lon="-3.68055">
        <ele>31.9</ele>
        <time>2023-01-27T15:12:16Z</time>
      </trkpt>
      <trkpt lat="47.78802" lon="-3.68055">
        <ele>31.9</ele>
        <time>2023-01-27T15:12:17Z</time>
      </trkpt>
      <trkpt lat="47.78808" lon="-3.68055">
        <ele>31.9</ele>
        <time>2023-01-27T15:12:18Z</time>
      </trkpt>
      <trkpt lat="47.78813" lon="-3.68055">
        <ele>32</ele>
        <time>2023-01-27T15:12:19Z</time>
      </trkpt>
      <trkpt lat="47.78818" lon="-3.68056">
        <ele>32</ele>
        <time>2023-01-27T15:12:20Z</time>
      </trkpt>
      <trkpt lat="47.78823" lon="-3.68056">
        <ele>32</ele>
        <time>2023-01-27T15:12:21Z</time>
      </trkpt>
      <trkpt lat="47.78828" lon="-3.68056">
        <ele>32.1</ele>
        <time>2023-01-27T15:12:22Z</time>
      </trkpt>
      <trkpt lat="47.78834" lon="-3.68057">
        <ele>32.1</ele>
        <time>2023-01-27T15:12:23Z</time>
      </trkpt>
      <trkpt lat="47.78839" lon="-3.68058">
        <ele>32.2</ele>
        <time>2023-01-27T15:12:24Z</time>
      </trkpt>
      <trkpt lat="47.78844" lon="-3.68058">
        <ele>32.2</ele>
        <time>2023-01-27T15:12:25Z</time>
      </trkpt>
      <trkpt lat="47.7885" lon="-3.68058">
        <ele>32.2</ele>
        <time>2023-01-27T15:12:26Z</time>
      </trkpt>
      <trkpt lat="47.78855" lon="-3.68059">
        <ele>32.2</ele>
        <time>2023-01-27T15:12:27Z</time>
      </trkpt>
      <trkpt lat="47.78861" lon="-3.68059">
        <ele>32.2</ele>
        <time>2023-01-27T15:12:28Z</time>
      </trkpt>
      <trkpt lat="47.78866" lon="-3.6806">
        <ele>32.2</ele>
        <time>2023-01-27T15:12:29Z</time>
      </trkpt>
      <trkpt lat="47.78871" lon="-3.6806">
        <ele>32.2</ele>
        <time>2023-01-27T15:12:30Z</time>
      </trkpt>
      <trkpt lat="47.78877" lon="-3.68061">
        <ele>32.2</ele>
        <time>2023-01-27T15:12:31Z</time>
      </trkpt>
      <trkpt lat="47.78883" lon="-3.68061">
        <ele>32.2</ele>
        <time>2023-01-27T15:12:32Z</time>
      </trkpt>
      <trkpt lat="47.78889" lon="-3.68062">
        <ele>32.2</ele>
        <time>2023-01-27T15:12:33Z</time>
      </trkpt>
      <trkpt lat="47.78894" lon="-3.68062">
        <ele>32.2</ele>
        <time>2023-01-27T15:12:34Z</time>
      </trkpt>
      <trkpt lat="47.78899" lon="-3.68062">
        <ele>32.2</ele>
        <time>2023-01-27T15:12:35Z</time>
      </trkpt>
      <trkpt lat="47.78904" lon="-3.68063">
        <ele>32.2</ele>
        <time>2023-01-27T15:12:36Z</time>
      </trkpt>
      <trkpt lat="47.7891" lon="-3.68063">
        <ele>32.2</ele>
        <time>2023-01-27T15:12:37Z</time>
      </trkpt>
      <trkpt lat="47.78915" lon="-3.68064">
        <ele>32.2</ele>
        <time>2023-01-27T15:12:38Z</time>
      </trkpt>
      <trkpt lat="47.78921" lon="-3.68065">
        <ele>32.3</ele>
        <time>2023-01-27T15:12:39Z</time>
      </trkpt>
      <trkpt lat="47.78926" lon="-3.68065">
        <ele>32.3</ele>
        <time>2023-01-27T15:12:40Z</time>
      </trkpt>
      <trkpt lat="47.78932" lon="-3.68066">
        <ele>32.3</ele>
        <time>2023-01-27T15:12:41Z</time>
      </trkpt>
      <trkpt lat="47.78937" lon="-3.68066">
        <ele>32.4</ele>
        <time>2023-01-27T15:12:42Z</time>
      </trkpt>
      <trkpt lat="47.78942" lon="-3.68066">
        <ele>32.4</ele>
        <time>2023-01-27T15:12:43Z</time>
      </trkpt>
      <trkpt lat="47.78947" lon="-3.68066">
        <ele>32.4</ele>
        <time>2023-01-27T15:12:44Z</time>
      </trkpt>
      <trkpt lat="47.78952" lon="-3.68067">
        <ele>32.5</ele>
        <time>2023-01-27T15:12:45Z</time>
      </trkpt>
      <trkpt lat="47.78957" lon="-3.68067">
        <ele>32.5</ele>
        <time>2023-01-27T15:12:46Z</time>
      </trkpt>
      <trkpt lat="47.78963" lon="-3.68068">
        <ele>32.5</ele>
        <time>2023-01-27T15:12:47Z</time>
      </trkpt>
      <trkpt lat="47.78969" lon="-3.68068">
        <ele>32.5</ele>
        <time>2023-01-27T15:12:48Z</time>
      </trkpt>
      <trkpt lat="47.78974" lon="-3.68068">
        <ele>32.5</ele>
        <time>2023-01-27T15:12:49Z</time>
      </trkpt>
      <trkpt lat="47.7898" lon="-3.68068">
        <ele>32.5</ele>
        <time>2023-01-27T15:12:50Z</time>
      </trkpt>
      <trkpt lat="47.78985" lon="-3.68068">
        <ele>32.6</ele>
        <time>2023-01-27T15:12:51Z</time>
      </trkpt>
      <trkpt lat="47.7899" lon="-3.68068">
        <ele>32.6</ele>
        <time>2023-01-27T15:12:52Z</time>
      </trkpt>
      <trkpt lat="47.78996" lon="-3.68068">
        <ele>32.6</ele>
        <time>2023-01-27T15:12:53Z</time>
      </trkpt>
      <trkpt lat="47.79001" lon="-3.68068">
        <ele>32.7</ele>
        <time>2023-01-27T15:12:54Z</time>
      </trkpt>
      <trkpt lat="47.79006" lon="-3.68068">
        <ele>32.7</ele>
        <time>2023-01-27T15:12:55Z</time>
      </trkpt>
      <trkpt lat="47.79012" lon="-3.68068">
        <ele>32.8</ele>
        <time>2023-01-27T15:12:56Z</time>
      </trkpt>
      <trkpt lat="47.79017" lon="-3.68068">
        <ele>32.8</ele>
        <time>2023-01-27T15:12:57Z</time>
      </trkpt>
      <trkpt lat="47.79022" lon="-3.68068">
        <ele>32.8</ele>
        <time>2023-01-27T15:12:58Z</time>
      </trkpt>
      <trkpt lat="47.79028" lon="-3.68068">
        <ele>32.8</ele>
        <time>2023-01-27T15:12:59Z</time>
      </trkpt>
      <trkpt lat="47.79033" lon="-3.68067">
        <ele>32.9</ele>
        <time>2023-01-27T15:13:00Z</time>
      </trkpt>
      <trkpt lat="47.79038" lon="-3.68068">
        <ele>32.9</ele>
        <time>2023-01-27T15:13:01Z</time>
      </trkpt>
      <trkpt lat="47.79043" lon="-3.68067">
        <ele>32.9</ele>
        <time>2023-01-27T15:13:02Z</time>
      </trkpt>
      <trkpt lat="47.79049" lon="-3.68067">
        <ele>32.9</ele>
        <time>2023-01-27T15:13:03Z</time>
      </trkpt>
      <trkpt lat="47.79054" lon="-3.68067">
        <ele>32.9</ele>
        <time>2023-01-27T15:13:04Z</time>
      </trkpt>
      <trkpt lat="47.7906" lon="-3.68067">
        <ele>32.9</ele>
        <time>2023-01-27T15:13:05Z</time>
      </trkpt>
      <trkpt lat="47.79065" lon="-3.68067">
        <ele>33</ele>
        <time>2023-01-27T15:13:06Z</time>
      </trkpt>
      <trkpt lat="47.7907" lon="-3.68067">
        <ele>33</ele>
        <time>2023-01-27T15:13:07Z</time>
      </trkpt>
      <trkpt lat="47.79075" lon="-3.68066">
        <ele>33</ele>
        <time>2023-01-27T15:13:08Z</time>
      </trkpt>
      <trkpt lat="47.7908" lon="-3.68065">
        <ele>33</ele>
        <time>2023-01-27T15:13:09Z</time>
      </trkpt>
      <trkpt lat="47.79085" lon="-3.68065">
        <ele>33</ele>
        <time>2023-01-27T15:13:10Z</time>
      </trkpt>
      <trkpt lat="47.7909" lon="-3.68064">
        <ele>33</ele>
        <time>2023-01-27T15:13:11Z</time>
      </trkpt>
      <trkpt lat="47.79095" lon="-3.68063">
        <ele>33</ele>
        <time>2023-01-27T15:13:12Z</time>
      </trkpt>
      <trkpt lat="47.791" lon="-3.68061">
        <ele>33.1</ele>
        <time>2023-01-27T15:13:13Z</time>
      </trkpt>
      <trkpt lat="47.79103" lon="-3.68057">
        <ele>33.1</ele>
        <time>2023-01-27T15:13:14Z</time>
      </trkpt>
      <trkpt lat="47.79104" lon="-3.68051">
        <ele>33.1</ele>
        <time>2023-01-27T15:13:15Z</time>
      </trkpt>
      <trkpt lat="47.79104" lon="-3.68048">
        <ele>33.1</ele>
        <time>2023-01-27T15:13:16Z</time>
      </trkpt>
      <trkpt lat="47.79103" lon="-3.68044">
        <ele>33.1</ele>
        <time>2023-01-27T15:13:17Z</time>
      </trkpt>
      <trkpt lat="47.79101" lon="-3.68037">
        <ele>33.1</ele>
        <time>2023-01-27T15:13:18Z</time>
      </trkpt>
      <trkpt lat="47.79101" lon="-3.68035">
        <ele>33.1</ele>
        <time>2023-01-27T15:13:19Z</time>
      </trkpt>
      <trkpt lat="47.79099" lon="-3.6803">
        <ele>33.1</ele>
        <time>2023-01-27T15:13:20Z</time>
      </trkpt>
      <trkpt lat="47.79095" lon="-3.68023">
        <ele>33.1</ele>
        <time>2023-01-27T15:13:21Z</time>
      </trkpt>
      <trkpt lat="47.79093" lon="-3.68018">
        <ele>33.1</ele>
        <time>2023-01-27T15:13:22Z</time>
      </trkpt>
      <trkpt lat="47.79092" lon="-3.68016">
        <ele>33.1</ele>
        <time>2023-01-27T15:13:23Z</time>
      </trkpt>
      <trkpt lat="47.7909" lon="-3.68011">
        <ele>33.1</ele>
        <time>2023-01-27T15:13:24Z</time>
      </trkpt>
      <trkpt lat="47.79086" lon="-3.68001">
        <ele>33.1</ele>
        <time>2023-01-27T15:13:25Z</time>
      </trkpt>
      <trkpt lat="47.79085" lon="-3.67997">
        <ele>33.1</ele>
        <time>2023-01-27T15:13:26Z</time>
      </trkpt>
      <trkpt lat="47.79082" lon="-3.67984">
        <ele>33.1</ele>
        <time>2023-01-27T15:13:28Z</time>
      </trkpt>
      <trkpt lat="47.7908" lon="-3.67978">
        <ele>33</ele>
        <time>2023-01-27T15:13:29Z</time>
      </trkpt>
      <trkpt lat="47.79077" lon="-3.67973">
        <ele>33</ele>
        <time>2023-01-27T15:13:30Z</time>
      </trkpt>
      <trkpt lat="47.79075" lon="-3.67968">
        <ele>33</ele>
        <time>2023-01-27T15:13:31Z</time>
      </trkpt>
      <trkpt lat="47.79074" lon="-3.67962">
        <ele>33</ele>
        <time>2023-01-27T15:13:32Z</time>
      </trkpt>
      <trkpt lat="47.79072" lon="-3.67955">
        <ele>33</ele>
        <time>2023-01-27T15:13:34Z</time>
      </trkpt>
      <trkpt lat="47.79068" lon="-3.67945">
        <ele>33</ele>
        <time>2023-01-27T15:13:35Z</time>
      </trkpt>
      <trkpt lat="47.79066" lon="-3.67938">
        <ele>33</ele>
        <time>2023-01-27T15:13:37Z</time>
      </trkpt>
      <trkpt lat="47.79065" lon="-3.67933">
        <ele>33</ele>
        <time>2023-01-27T15:13:38Z</time>
      </trkpt>
      <trkpt lat="47.79063" lon="-3.67927">
        <ele>32.9</ele>
        <time>2023-01-27T15:13:39Z</time>
      </trkpt>
      <trkpt lat="47.79061" lon="-3.67921">
        <ele>32.9</ele>
        <time>2023-01-27T15:13:40Z</time>
      </trkpt>
      <trkpt lat="47.79059" lon="-3.67915">
        <ele>32.8</ele>
        <time>2023-01-27T15:13:41Z</time>
      </trkpt>
      <trkpt lat="47.79057" lon="-3.67909">
        <ele>32.8</ele>
        <time>2023-01-27T15:13:42Z</time>
      </trkpt>
      <trkpt lat="47.79056" lon="-3.67903">
        <ele>32.7</ele>
        <time>2023-01-27T15:13:43Z</time>
      </trkpt>
      <trkpt lat="47.79054" lon="-3.67896">
        <ele>32.6</ele>
        <time>2023-01-27T15:13:44Z</time>
      </trkpt>
      <trkpt lat="47.79053" lon="-3.6789">
        <ele>32.5</ele>
        <time>2023-01-27T15:13:45Z</time>
      </trkpt>
      <trkpt lat="47.79052" lon="-3.67883">
        <ele>32.4</ele>
        <time>2023-01-27T15:13:46Z</time>
      </trkpt>
      <trkpt lat="47.79051" lon="-3.67876">
        <ele>32.3</ele>
        <time>2023-01-27T15:13:47Z</time>
      </trkpt>
      <trkpt lat="47.7905" lon="-3.6787">
        <ele>32.2</ele>
        <time>2023-01-27T15:13:48Z</time>
      </trkpt>
      <trkpt lat="47.79049" lon="-3.67864">
        <ele>32.1</ele>
        <time>2023-01-27T15:13:49Z</time>
      </trkpt>
      <trkpt lat="47.79048" lon="-3.67858">
        <ele>32</ele>
        <time>2023-01-27T15:13:50Z</time>
      </trkpt>
      <trkpt lat="47.79048" lon="-3.67852">
        <ele>31.8</ele>
        <time>2023-01-27T15:13:51Z</time>
      </trkpt>
      <trkpt lat="47.79047" lon="-3.67846">
        <ele>31.7</ele>
        <time>2023-01-27T15:13:52Z</time>
      </trkpt>
      <trkpt lat="47.79046" lon="-3.67838">
        <ele>31.6</ele>
        <time>2023-01-27T15:13:53Z</time>
      </trkpt>
      <trkpt lat="47.79044" lon="-3.67831">
        <ele>31.4</ele>
        <time>2023-01-27T15:13:54Z</time>
      </trkpt>
      <trkpt lat="47.79043" lon="-3.67824">
        <ele>31.3</ele>
        <time>2023-01-27T15:13:55Z</time>
      </trkpt>
      <trkpt lat="47.79042" lon="-3.67817">
        <ele>31.2</ele>
        <time>2023-01-27T15:13:56Z</time>
      </trkpt>
      <trkpt lat="47.79041" lon="-3.6781">
        <ele>31.1</ele>
        <time>2023-01-27T15:13:57Z</time>
      </trkpt>
      <trkpt lat="47.79041" lon="-3.67802">
        <ele>31</ele>
        <time>2023-01-27T15:13:58Z</time>
      </trkpt>
      <trkpt lat="47.7904" lon="-3.67795">
        <ele>30.9</ele>
        <time>2023-01-27T15:13:59Z</time>
      </trkpt>
      <trkpt lat="47.79039" lon="-3.67789">
        <ele>30.8</ele>
        <time>2023-01-27T15:14:00Z</time>
      </trkpt>
      <trkpt lat="47.79038" lon="-3.67782">
        <ele>30.6</ele>
        <time>2023-01-27T15:14:01Z</time>
      </trkpt>
      <trkpt lat="47.79037" lon="-3.67775">
        <ele>30.5</ele>
        <time>2023-01-27T15:14:02Z</time>
      </trkpt>
      <trkpt lat="47.79036" lon="-3.67768">
        <ele>30.3</ele>
        <time>2023-01-27T15:14:03Z</time>
      </trkpt>
      <trkpt lat="47.79036" lon="-3.6776">
        <ele>30.1</ele>
        <time>2023-01-27T15:14:04Z</time>
      </trkpt>
      <trkpt lat="47.79035" lon="-3.67752">
        <ele>30</ele>
        <time>2023-01-27T15:14:05Z</time>
      </trkpt>
      <trkpt lat="47.79034" lon="-3.67745">
        <ele>29.8</ele>
        <time>2023-01-27T15:14:06Z</time>
      </trkpt>
      <trkpt lat="47.79034" lon="-3.67738">
        <ele>29.6</ele>
        <time>2023-01-27T15:14:07Z</time>
      </trkpt>
      <trkpt lat="47.79033" lon="-3.6773">
        <ele>29.4</ele>
        <time>2023-01-27T15:14:08Z</time>
      </trkpt>
      <trkpt lat="47.79032" lon="-3.67723">
        <ele>29.3</ele>
        <time>2023-01-27T15:14:09Z</time>
      </trkpt>
      <trkpt lat="47.79031" lon="-3.67716">
        <ele>29.1</ele>
        <time>2023-01-27T15:14:10Z</time>
      </trkpt>
      <trkpt lat="47.7903" lon="-3.67709">
        <ele>28.9</ele>
        <time>2023-01-27T15:14:11Z</time>
      </trkpt>
      <trkpt lat="47.79029" lon="-3.677">
        <ele>28.7</ele>
        <time>2023-01-27T15:14:12Z</time>
      </trkpt>
      <trkpt lat="47.79028" lon="-3.67693">
        <ele>28.5</ele>
        <time>2023-01-27T15:14:13Z</time>
      </trkpt>
      <trkpt lat="47.79025" lon="-3.67687">
        <ele>28.3</ele>
        <time>2023-01-27T15:14:14Z</time>
      </trkpt>
      <trkpt lat="47.79022" lon="-3.6768">
        <ele>28</ele>
        <time>2023-01-27T15:14:15Z</time>
      </trkpt>
      <trkpt lat="47.7902" lon="-3.67672">
        <ele>27.8</ele>
        <time>2023-01-27T15:14:16Z</time>
      </trkpt>
      <trkpt lat="47.7902" lon="-3.67666">
        <ele>27.7</ele>
        <time>2023-01-27T15:14:17Z</time>
      </trkpt>
      <trkpt lat="47.7902" lon="-3.67662">
        <ele>27.6</ele>
        <time>2023-01-27T15:14:18Z</time>
      </trkpt>
      <trkpt lat="47.7902" lon="-3.67652">
        <ele>27.4</ele>
        <time>2023-01-27T15:14:19Z</time>
      </trkpt>
      <trkpt lat="47.79021" lon="-3.67644">
        <ele>27.2</ele>
        <time>2023-01-27T15:14:20Z</time>
      </trkpt>
      <trkpt lat="47.79022" lon="-3.67637">
        <ele>27.1</ele>
        <time>2023-01-27T15:14:21Z</time>
      </trkpt>
      <trkpt lat="47.79023" lon="-3.6763">
        <ele>26.9</ele>
        <time>2023-01-27T15:14:22Z</time>
      </trkpt>
      <trkpt lat="47.79024" lon="-3.67624">
        <ele>26.8</ele>
        <time>2023-01-27T15:14:23Z</time>
      </trkpt>
      <trkpt lat="47.79025" lon="-3.67616">
        <ele>26.6</ele>
        <time>2023-01-27T15:14:24Z</time>
      </trkpt>
      <trkpt lat="47.79025" lon="-3.67611">
        <ele>26.6</ele>
        <time>2023-01-27T15:14:25Z</time>
      </trkpt>
      <trkpt lat="47.79026" lon="-3.67604">
        <ele>26.4</ele>
        <time>2023-01-27T15:14:26Z</time>
      </trkpt>
      <trkpt lat="47.79028" lon="-3.67599">
        <ele>26.3</ele>
        <time>2023-01-27T15:14:27Z</time>
      </trkpt>
      <trkpt lat="47.79028" lon="-3.67591">
        <ele>26.2</ele>
        <time>2023-01-27T15:14:28Z</time>
      </trkpt>
      <trkpt lat="47.79026" lon="-3.67583">
        <ele>26.1</ele>
        <time>2023-01-27T15:14:29Z</time>
      </trkpt>
      <trkpt lat="47.79022" lon="-3.67578">
        <ele>26</ele>
        <time>2023-01-27T15:14:30Z</time>
      </trkpt>
      <trkpt lat="47.79018" lon="-3.67574">
        <ele>25.9</ele>
        <time>2023-01-27T15:14:31Z</time>
      </trkpt>
      <trkpt lat="47.79014" lon="-3.6757">
        <ele>25.8</ele>
        <time>2023-01-27T15:14:32Z</time>
      </trkpt>
      <trkpt lat="47.79011" lon="-3.67565">
        <ele>25.8</ele>
        <time>2023-01-27T15:14:33Z</time>
      </trkpt>
      <trkpt lat="47.7901" lon="-3.67559">
        <ele>25.5</ele>
        <time>2023-01-27T15:14:34Z</time>
      </trkpt>
      <trkpt lat="47.7901" lon="-3.67552">
        <ele>25.4</ele>
        <time>2023-01-27T15:14:35Z</time>
      </trkpt>
      <trkpt lat="47.79011" lon="-3.67545">
        <ele>25.2</ele>
        <time>2023-01-27T15:14:36Z</time>
      </trkpt>
      <trkpt lat="47.79011" lon="-3.67537">
        <ele>25.1</ele>
        <time>2023-01-27T15:14:37Z</time>
      </trkpt>
      <trkpt lat="47.79012" lon="-3.6753">
        <ele>24.9</ele>
        <time>2023-01-27T15:14:38Z</time>
      </trkpt>
      <trkpt lat="47.79013" lon="-3.67523">
        <ele>24.8</ele>
        <time>2023-01-27T15:14:39Z</time>
      </trkpt>
      <trkpt lat="47.79013" lon="-3.67516">
        <ele>24.6</ele>
        <time>2023-01-27T15:14:40Z</time>
      </trkpt>
      <trkpt lat="47.79014" lon="-3.67509">
        <ele>24.4</ele>
        <time>2023-01-27T15:14:41Z</time>
      </trkpt>
      <trkpt lat="47.79016" lon="-3.67501">
        <ele>24.3</ele>
        <time>2023-01-27T15:14:42Z</time>
      </trkpt>
      <trkpt lat="47.79018" lon="-3.67493">
        <ele>24.1</ele>
        <time>2023-01-27T15:14:43Z</time>
      </trkpt>
      <trkpt lat="47.7902" lon="-3.67486">
        <ele>24</ele>
        <time>2023-01-27T15:14:44Z</time>
      </trkpt>
      <trkpt lat="47.79023" lon="-3.67479">
        <ele>23.8</ele>
        <time>2023-01-27T15:14:45Z</time>
      </trkpt>
      <trkpt lat="47.79025" lon="-3.67472">
        <ele>23.7</ele>
        <time>2023-01-27T15:14:46Z</time>
      </trkpt>
      <trkpt lat="47.79026" lon="-3.67466">
        <ele>23.6</ele>
        <time>2023-01-27T15:14:47Z</time>
      </trkpt>
      <trkpt lat="47.79027" lon="-3.67461">
        <ele>23.6</ele>
        <time>2023-01-27T15:14:48Z</time>
      </trkpt>
      <trkpt lat="47.79028" lon="-3.67452">
        <ele>23.5</ele>
        <time>2023-01-27T15:14:49Z</time>
      </trkpt>
      <trkpt lat="47.79029" lon="-3.67444">
        <ele>23.5</ele>
        <time>2023-01-27T15:14:50Z</time>
      </trkpt>
      <trkpt lat="47.79029" lon="-3.67437">
        <ele>23.5</ele>
        <time>2023-01-27T15:14:51Z</time>
      </trkpt>
      <trkpt lat="47.7903" lon="-3.67431">
        <ele>23.5</ele>
        <time>2023-01-27T15:14:52Z</time>
      </trkpt>
      <trkpt lat="47.79031" lon="-3.67425">
        <ele>23.5</ele>
        <time>2023-01-27T15:14:53Z</time>
      </trkpt>
      <trkpt lat="47.79033" lon="-3.67416">
        <ele>23.6</ele>
        <time>2023-01-27T15:14:54Z</time>
      </trkpt>
      <trkpt lat="47.79034" lon="-3.67411">
        <ele>23.7</ele>
        <time>2023-01-27T15:14:55Z</time>
      </trkpt>
      <trkpt lat="47.79038" lon="-3.674">
        <ele>24</ele>
        <time>2023-01-27T15:14:57Z</time>
      </trkpt>
      <trkpt lat="47.79041" lon="-3.67394">
        <ele>24.1</ele>
        <time>2023-01-27T15:14:58Z</time>
      </trkpt>
      <trkpt lat="47.79042" lon="-3.67388">
        <ele>24.3</ele>
        <time>2023-01-27T15:14:59Z</time>
      </trkpt>
      <trkpt lat="47.79042" lon="-3.67381">
        <ele>24.5</ele>
        <time>2023-01-27T15:15:00Z</time>
      </trkpt>
      <trkpt lat="47.79043" lon="-3.67375">
        <ele>24.6</ele>
        <time>2023-01-27T15:15:01Z</time>
      </trkpt>
      <trkpt lat="47.79045" lon="-3.6737">
        <ele>24.6</ele>
        <time>2023-01-27T15:15:02Z</time>
      </trkpt>
      <trkpt lat="47.79047" lon="-3.67364">
        <ele>24.7</ele>
        <time>2023-01-27T15:15:03Z</time>
      </trkpt>
      <trkpt lat="47.79048" lon="-3.67358">
        <ele>24.8</ele>
        <time>2023-01-27T15:15:04Z</time>
      </trkpt>
      <trkpt lat="47.79049" lon="-3.67352">
        <ele>24.9</ele>
        <time>2023-01-27T15:15:05Z</time>
      </trkpt>
      <trkpt lat="47.79049" lon="-3.67348">
        <ele>24.9</ele>
        <time>2023-01-27T15:15:06Z</time>
      </trkpt>
      <trkpt lat="47.79049" lon="-3.67341">
        <ele>24.9</ele>
        <time>2023-01-27T15:15:08Z</time>
      </trkpt>
      <trkpt lat="47.7905" lon="-3.67336">
        <ele>24.9</ele>
        <time>2023-01-27T15:15:09Z</time>
      </trkpt>
      <trkpt lat="47.7905" lon="-3.6733">
        <ele>24.9</ele>
        <time>2023-01-27T15:15:10Z</time>
      </trkpt>
      <trkpt lat="47.79051" lon="-3.67326">
        <ele>24.9</ele>
        <time>2023-01-27T15:15:11Z</time>
      </trkpt>
      <trkpt lat="47.79053" lon="-3.67321">
        <ele>24.9</ele>
        <time>2023-01-27T15:15:12Z</time>
      </trkpt>
      <trkpt lat="47.79054" lon="-3.67315">
        <ele>24.8</ele>
        <time>2023-01-27T15:15:13Z</time>
      </trkpt>
      <trkpt lat="47.79054" lon="-3.67308">
        <ele>24.8</ele>
        <time>2023-01-27T15:15:14Z</time>
      </trkpt>
      <trkpt lat="47.79054" lon="-3.67302">
        <ele>24.7</ele>
        <time>2023-01-27T15:15:15Z</time>
      </trkpt>
      <trkpt lat="47.79054" lon="-3.67295">
        <ele>24.7</ele>
        <time>2023-01-27T15:15:16Z</time>
      </trkpt>
      <trkpt lat="47.79055" lon="-3.67289">
        <ele>24.6</ele>
        <time>2023-01-27T15:15:17Z</time>
      </trkpt>
      <trkpt lat="47.79056" lon="-3.67287">
        <ele>24.6</ele>
        <time>2023-01-27T15:15:18Z</time>
      </trkpt>
      <trkpt lat="47.79056" lon="-3.67278">
        <ele>24.5</ele>
        <time>2023-01-27T15:15:19Z</time>
      </trkpt>
      <trkpt lat="47.79056" lon="-3.67264">
        <ele>24.3</ele>
        <time>2023-01-27T15:15:21Z</time>
      </trkpt>
      <trkpt lat="47.79058" lon="-3.6726">
        <ele>24.2</ele>
        <time>2023-01-27T15:15:23Z</time>
      </trkpt>
      <trkpt lat="47.79057" lon="-3.67256">
        <ele>24.2</ele>
        <time>2023-01-27T15:15:24Z</time>
      </trkpt>
      <trkpt lat="47.79056" lon="-3.67251">
        <ele>24.1</ele>
        <time>2023-01-27T15:15:25Z</time>
      </trkpt>
      <trkpt lat="47.79053" lon="-3.67245">
        <ele>23.9</ele>
        <time>2023-01-27T15:15:26Z</time>
      </trkpt>
      <trkpt lat="47.79052" lon="-3.67241">
        <ele>23.8</ele>
        <time>2023-01-27T15:15:28Z</time>
      </trkpt>
      <trkpt lat="47.79052" lon="-3.67239">
        <ele>23.7</ele>
        <time>2023-01-27T15:15:29Z</time>
      </trkpt>
      <trkpt lat="47.79053" lon="-3.67238">
        <ele>23.7</ele>
        <time>2023-01-27T15:15:30Z</time>
      </trkpt>
      <trkpt lat="47.79053" lon="-3.67237">
        <ele>23.7</ele>
        <time>2023-01-27T15:15:31Z</time>
      </trkpt>
      <trkpt lat="47.79053" lon="-3.67236">
        <ele>23.6</ele>
        <time>2023-01-27T15:15:32Z</time>
      </trkpt>
      <trkpt lat="47.79053" lon="-3.67235">
        <ele>23.6</ele>
        <time>2023-01-27T15:15:33Z</time>
      </trkpt>
      <trkpt lat="47.79053" lon="-3.67235">
        <ele>23.6</ele>
        <time>2023-01-27T15:15:34Z</time>
      </trkpt>
      <trkpt lat="47.79053" lon="-3.67234">
        <ele>23.6</ele>
        <time>2023-01-27T15:15:35Z</time>
      </trkpt>
      <trkpt lat="47.79053" lon="-3.67233">
        <ele>23.5</ele>
        <time>2023-01-27T15:15:36Z</time>
      </trkpt>
      <trkpt lat="47.79053" lon="-3.67232">
        <ele>23.5</ele>
        <time>2023-01-27T15:15:37Z</time>
      </trkpt>
      <trkpt lat="47.79053" lon="-3.67231">
        <ele>23.5</ele>
        <time>2023-01-27T15:15:38Z</time>
      </trkpt>
      <trkpt lat="47.79053" lon="-3.67231">
        <ele>23.5</ele>
        <time>2023-01-27T15:15:39Z</time>
      </trkpt>
      <trkpt lat="47.79053" lon="-3.6723">
        <ele>23.4</ele>
        <time>2023-01-27T15:15:40Z</time>
      </trkpt>
      <trkpt lat="47.79053" lon="-3.67229">
        <ele>23.4</ele>
        <time>2023-01-27T15:15:41Z</time>
      </trkpt>
      <trkpt lat="47.79053" lon="-3.67228">
        <ele>23.4</ele>
        <time>2023-01-27T15:15:42Z</time>
      </trkpt>
      <trkpt lat="47.79053" lon="-3.67228">
        <ele>23.4</ele>
        <time>2023-01-27T15:15:43Z</time>
      </trkpt>
      <trkpt lat="47.79053" lon="-3.67227">
        <ele>23.3</ele>
        <time>2023-01-27T15:15:44Z</time>
      </trkpt>
      <trkpt lat="47.79053" lon="-3.67226">
        <ele>23.3</ele>
        <time>2023-01-27T15:16:23Z</time>
      </trkpt>
      <trkpt lat="47.79053" lon="-3.67225">
        <ele>23.3</ele>
        <time>2023-01-27T15:16:24Z</time>
      </trkpt>
      <trkpt lat="47.79053" lon="-3.67224">
        <ele>23.3</ele>
        <time>2023-01-27T15:16:25Z</time>
      </trkpt>
      <trkpt lat="47.79052" lon="-3.6722">
        <ele>23.1</ele>
        <time>2023-01-27T15:16:26Z</time>
      </trkpt>
      <trkpt lat="47.79051" lon="-3.67216">
        <ele>23</ele>
        <time>2023-01-27T15:16:27Z</time>
      </trkpt>
      <trkpt lat="47.79048" lon="-3.67209">
        <ele>22.7</ele>
        <time>2023-01-27T15:16:28Z</time>
      </trkpt>
      <trkpt lat="47.79051" lon="-3.67212">
        <ele>22.5</ele>
        <time>2023-01-27T15:16:29Z</time>
      </trkpt>
      <trkpt lat="47.79052" lon="-3.67206">
        <ele>22.2</ele>
        <time>2023-01-27T15:16:30Z</time>
      </trkpt>
      <trkpt lat="47.79051" lon="-3.67199">
        <ele>21.9</ele>
        <time>2023-01-27T15:16:31Z</time>
      </trkpt>
      <trkpt lat="47.79049" lon="-3.6718">
        <ele>21.1</ele>
        <time>2023-01-27T15:16:33Z</time>
      </trkpt>
      <trkpt lat="47.79048" lon="-3.6717">
        <ele>20.6</ele>
        <time>2023-01-27T15:16:34Z</time>
      </trkpt>
      <trkpt lat="47.79047" lon="-3.67163">
        <ele>20.3</ele>
        <time>2023-01-27T15:16:35Z</time>
      </trkpt>
      <trkpt lat="47.79046" lon="-3.67155">
        <ele>19.8</ele>
        <time>2023-01-27T15:16:36Z</time>
      </trkpt>
      <trkpt lat="47.79043" lon="-3.67144">
        <ele>19.3</ele>
        <time>2023-01-27T15:16:37Z</time>
      </trkpt>
      <trkpt lat="47.79042" lon="-3.67135">
        <ele>18.9</ele>
        <time>2023-01-27T15:16:38Z</time>
      </trkpt>
      <trkpt lat="47.79042" lon="-3.67129">
        <ele>18.6</ele>
        <time>2023-01-27T15:16:39Z</time>
      </trkpt>
      <trkpt lat="47.79043" lon="-3.67123">
        <ele>18.3</ele>
        <time>2023-01-27T15:16:40Z</time>
      </trkpt>
      <trkpt lat="47.79042" lon="-3.67115">
        <ele>18</ele>
        <time>2023-01-27T15:16:41Z</time>
      </trkpt>
      <trkpt lat="47.79039" lon="-3.67107">
        <ele>17.6</ele>
        <time>2023-01-27T15:16:43Z</time>
      </trkpt>
      <trkpt lat="47.79036" lon="-3.67096">
        <ele>17.1</ele>
        <time>2023-01-27T15:16:44Z</time>
      </trkpt>
      <trkpt lat="47.79033" lon="-3.67089">
        <ele>16.7</ele>
        <time>2023-01-27T15:16:45Z</time>
      </trkpt>
      <trkpt lat="47.79032" lon="-3.67083">
        <ele>16.5</ele>
        <time>2023-01-27T15:16:46Z</time>
      </trkpt>
      <trkpt lat="47.79033" lon="-3.67078">
        <ele>16.3</ele>
        <time>2023-01-27T15:16:47Z</time>
      </trkpt>
      <trkpt lat="47.7903" lon="-3.6707">
        <ele>15.9</ele>
        <time>2023-01-27T15:16:48Z</time>
      </trkpt>
      <trkpt lat="47.79026" lon="-3.67066">
        <ele>15.5</ele>
        <time>2023-01-27T15:16:49Z</time>
      </trkpt>
      <trkpt lat="47.79024" lon="-3.67059">
        <ele>15.2</ele>
        <time>2023-01-27T15:16:51Z</time>
      </trkpt>
      <trkpt lat="47.79023" lon="-3.67052">
        <ele>14.8</ele>
        <time>2023-01-27T15:16:52Z</time>
      </trkpt>
      <trkpt lat="47.79022" lon="-3.67046">
        <ele>14.5</ele>
        <time>2023-01-27T15:16:53Z</time>
      </trkpt>
      <trkpt lat="47.79021" lon="-3.67035">
        <ele>13.9</ele>
        <time>2023-01-27T15:16:54Z</time>
      </trkpt>
      <trkpt lat="47.79018" lon="-3.67026">
        <ele>13.3</ele>
        <time>2023-01-27T15:16:55Z</time>
      </trkpt>
      <trkpt lat="47.79015" lon="-3.67017">
        <ele>12.7</ele>
        <time>2023-01-27T15:16:56Z</time>
      </trkpt>
      <trkpt lat="47.79013" lon="-3.67008">
        <ele>12</ele>
        <time>2023-01-27T15:16:57Z</time>
      </trkpt>
      <trkpt lat="47.7901" lon="-3.67">
        <ele>11.3</ele>
        <time>2023-01-27T15:16:58Z</time>
      </trkpt>
      <trkpt lat="47.79008" lon="-3.66992">
        <ele>10.7</ele>
        <time>2023-01-27T15:16:59Z</time>
      </trkpt>
      <trkpt lat="47.79005" lon="-3.66985">
        <ele>10.1</ele>
        <time>2023-01-27T15:17:00Z</time>
      </trkpt>
      <trkpt lat="47.79003" lon="-3.66978">
        <ele>9.7</ele>
        <time>2023-01-27T15:17:01Z</time>
      </trkpt>
      <trkpt lat="47.79002" lon="-3.66971">
        <ele>9.2</ele>
        <time>2023-01-27T15:17:02Z</time>
      </trkpt>
      <trkpt lat="47.79" lon="-3.66966">
        <ele>8.9</ele>
        <time>2023-01-27T15:17:03Z</time>
      </trkpt>
      <trkpt lat="47.78999" lon="-3.66962">
        <ele>8.6</ele>
        <time>2023-01-27T15:17:04Z</time>
      </trkpt>
      <trkpt lat="47.78998" lon="-3.6696">
        <ele>8.5</ele>
        <time>2023-01-27T15:17:05Z</time>
      </trkpt>
      <trkpt lat="47.78998" lon="-3.66957">
        <ele>8.3</ele>
        <time>2023-01-27T15:17:07Z</time>
      </trkpt>
      <trkpt lat="47.78998" lon="-3.66956">
        <ele>8.3</ele>
        <time>2023-01-27T15:17:08Z</time>
      </trkpt>
      <trkpt lat="47.78998" lon="-3.66955">
        <ele>8.2</ele>
        <time>2023-01-27T15:17:09Z</time>
      </trkpt>
      <trkpt lat="47.78997" lon="-3.66952">
        <ele>8.1</ele>
        <time>2023-01-27T15:17:10Z</time>
      </trkpt>
      <trkpt lat="47.78997" lon="-3.6695">
        <ele>8</ele>
        <time>2023-01-27T15:17:11Z</time>
      </trkpt>
      <trkpt lat="47.78997" lon="-3.66949">
        <ele>7.9</ele>
        <time>2023-01-27T15:17:12Z</time>
      </trkpt>
      <trkpt lat="47.78997" lon="-3.66946">
        <ele>7.7</ele>
        <time>2023-01-27T15:17:13Z</time>
      </trkpt>
      <trkpt lat="47.78997" lon="-3.66945">
        <ele>7.7</ele>
        <time>2023-01-27T15:17:14Z</time>
      </trkpt>
      <trkpt lat="47.78998" lon="-3.66944">
        <ele>7.6</ele>
        <time>2023-01-27T15:17:15Z</time>
      </trkpt>
      <trkpt lat="47.78998" lon="-3.66944">
        <ele>7.6</ele>
        <time>2023-01-27T15:17:16Z</time>
      </trkpt>
      <trkpt lat="47.78998" lon="-3.66943">
        <ele>7.3</ele>
        <time>2023-01-27T15:17:17Z</time>
      </trkpt>
      <trkpt lat="47.78999" lon="-3.66943">
        <ele>7.3</ele>
        <time>2023-01-27T15:17:18Z</time>
      </trkpt>
      <trkpt lat="47.78999" lon="-3.66942">
        <ele>7.2</ele>
        <time>2023-01-27T15:17:19Z</time>
      </trkpt>
      <trkpt lat="47.78999" lon="-3.66942">
        <ele>7.2</ele>
        <time>2023-01-27T15:17:20Z</time>
      </trkpt>
      <trkpt lat="47.79" lon="-3.66941">
        <ele>7.2</ele>
        <time>2023-01-27T15:17:21Z</time>
      </trkpt>
      <trkpt lat="47.79" lon="-3.6694">
        <ele>7.2</ele>
        <time>2023-01-27T15:17:22Z</time>
      </trkpt>
      <trkpt lat="47.79003" lon="-3.66936">
        <ele>7</ele>
        <time>2023-01-27T15:17:23Z</time>
      </trkpt>
      <trkpt lat="47.79007" lon="-3.66933">
        <ele>6.8</ele>
        <time>2023-01-27T15:17:24Z</time>
      </trkpt>
      <trkpt lat="47.79011" lon="-3.6693">
        <ele>6.5</ele>
        <time>2023-01-27T15:17:25Z</time>
      </trkpt>
      <trkpt lat="47.79019" lon="-3.66929">
        <ele>6.2</ele>
        <time>2023-01-27T15:17:26Z</time>
      </trkpt>
      <trkpt lat="47.79025" lon="-3.66926">
        <ele>5.9</ele>
        <time>2023-01-27T15:17:27Z</time>
      </trkpt>
      <trkpt lat="47.7903" lon="-3.66924">
        <ele>5.6</ele>
        <time>2023-01-27T15:17:28Z</time>
      </trkpt>
      <trkpt lat="47.79036" lon="-3.66921">
        <ele>5.3</ele>
        <time>2023-01-27T15:17:29Z</time>
      </trkpt>
      <trkpt lat="47.79042" lon="-3.66918">
        <ele>5</ele>
        <time>2023-01-27T15:17:30Z</time>
      </trkpt>
      <trkpt lat="47.79048" lon="-3.66916">
        <ele>4.8</ele>
        <time>2023-01-27T15:17:31Z</time>
      </trkpt>
      <trkpt lat="47.79054" lon="-3.66913">
        <ele>4.6</ele>
        <time>2023-01-27T15:17:32Z</time>
      </trkpt>
      <trkpt lat="47.7906" lon="-3.66909">
        <ele>4.5</ele>
        <time>2023-01-27T15:17:33Z</time>
      </trkpt>
      <trkpt lat="47.79066" lon="-3.66905">
        <ele>4.5</ele>
        <time>2023-01-27T15:17:34Z</time>
      </trkpt>
      <trkpt lat="47.79071" lon="-3.669">
        <ele>4.4</ele>
        <time>2023-01-27T15:17:35Z</time>
      </trkpt>
      <trkpt lat="47.79076" lon="-3.66894">
        <ele>4.5</ele>
        <time>2023-01-27T15:17:36Z</time>
      </trkpt>
      <trkpt lat="47.7908" lon="-3.66889">
        <ele>4.5</ele>
        <time>2023-01-27T15:17:37Z</time>
      </trkpt>
      <trkpt lat="47.79085" lon="-3.66884">
        <ele>4.5</ele>
        <time>2023-01-27T15:17:38Z</time>
      </trkpt>
      <trkpt lat="47.7909" lon="-3.66879">
        <ele>4.5</ele>
        <time>2023-01-27T15:17:39Z</time>
      </trkpt>
      <trkpt lat="47.79095" lon="-3.66874">
        <ele>4.5</ele>
        <time>2023-01-27T15:17:40Z</time>
      </trkpt>
      <trkpt lat="47.79099" lon="-3.66869">
        <ele>4.5</ele>
        <time>2023-01-27T15:17:41Z</time>
      </trkpt>
      <trkpt lat="47.79104" lon="-3.66865">
        <ele>4.6</ele>
        <time>2023-01-27T15:17:42Z</time>
      </trkpt>
      <trkpt lat="47.79108" lon="-3.66861">
        <ele>4.6</ele>
        <time>2023-01-27T15:17:43Z</time>
      </trkpt>
      <trkpt lat="47.79112" lon="-3.66856">
        <ele>4.6</ele>
        <time>2023-01-27T15:17:44Z</time>
      </trkpt>
      <trkpt lat="47.79115" lon="-3.66852">
        <ele>4.6</ele>
        <time>2023-01-27T15:17:45Z</time>
      </trkpt>
      <trkpt lat="47.79114" lon="-3.66848">
        <ele>4.6</ele>
        <time>2023-01-27T15:17:46Z</time>
      </trkpt>
      <trkpt lat="47.79112" lon="-3.66844">
        <ele>4.6</ele>
        <time>2023-01-27T15:17:47Z</time>
      </trkpt>
      <trkpt lat="47.79108" lon="-3.66842">
        <ele>4.6</ele>
        <time>2023-01-27T15:17:48Z</time>
      </trkpt>
      <trkpt lat="47.79102" lon="-3.66844">
        <ele>4.6</ele>
        <time>2023-01-27T15:17:49Z</time>
      </trkpt>
      <trkpt lat="47.79097" lon="-3.66846">
        <ele>4.5</ele>
        <time>2023-01-27T15:17:50Z</time>
      </trkpt>
      <trkpt lat="47.79092" lon="-3.66847">
        <ele>4.5</ele>
        <time>2023-01-27T15:17:51Z</time>
      </trkpt>
      <trkpt lat="47.79088" lon="-3.66848">
        <ele>4.5</ele>
        <time>2023-01-27T15:17:52Z</time>
      </trkpt>
      <trkpt lat="47.79087" lon="-3.66848">
        <ele>4.5</ele>
        <time>2023-01-27T15:17:53Z</time>
      </trkpt>
      <trkpt lat="47.7908" lon="-3.66847">
        <ele>4.6</ele>
        <time>2023-01-27T15:17:54Z</time>
      </trkpt>
      <trkpt lat="47.79076" lon="-3.66847">
        <ele>4.7</ele>
        <time>2023-01-27T15:17:55Z</time>
      </trkpt>
      <trkpt lat="47.79073" lon="-3.66847">
        <ele>4.8</ele>
        <time>2023-01-27T15:17:56Z</time>
      </trkpt>
      <trkpt lat="47.79072" lon="-3.66848">
        <ele>4.8</ele>
        <time>2023-01-27T15:17:58Z</time>
      </trkpt>
      <trkpt lat="47.79071" lon="-3.66851">
        <ele>4.8</ele>
        <time>2023-01-27T15:17:59Z</time>
      </trkpt>
      <trkpt lat="47.79071" lon="-3.66852">
        <ele>4.9</ele>
        <time>2023-01-27T15:18:00Z</time>
      </trkpt>
      <trkpt lat="47.79071" lon="-3.66852">
        <ele>4.9</ele>
        <time>2023-01-27T15:18:01Z</time>
      </trkpt>
      <trkpt lat="47.79071" lon="-3.66852">
        <ele>4.9</ele>
        <time>2023-01-27T15:18:02Z</time>
      </trkpt>
      <trkpt lat="47.79071" lon="-3.66852">
        <ele>4.9</ele>
        <time>2023-01-27T15:18:03Z</time>
      </trkpt>
      <trkpt lat="47.79071" lon="-3.66852">
        <ele>4.9</ele>
        <time>2023-01-27T15:18:04Z</time>
      </trkpt>
      <trkpt lat="47.79071" lon="-3.66852">
        <ele>4.9</ele>
        <time>2023-01-27T15:18:06Z</time>
      </trkpt>
      <trkpt lat="47.7907" lon="-3.66851">
        <ele>4.9</ele>
        <time>2023-01-27T15:18:07Z</time>
      </trkpt>
      <trkpt lat="47.7907" lon="-3.66851">
        <ele>4.9</ele>
        <time>2023-01-27T15:18:08Z</time>
      </trkpt>
      <trkpt lat="47.7907" lon="-3.66851">
        <ele>4.9</ele>
        <time>2023-01-27T15:18:09Z</time>
      </trkpt>
      <trkpt lat="47.7907" lon="-3.66851">
        <ele>4.9</ele>
        <time>2023-01-27T15:18:10Z</time>
      </trkpt>
      <trkpt lat="47.7907" lon="-3.66851">
        <ele>4.9</ele>
        <time>2023-01-27T15:18:11Z</time>
      </trkpt>
      <trkpt lat="47.7907" lon="-3.66851">
        <ele>4.9</ele>
        <time>2023-01-27T15:18:12Z</time>
      </trkpt>
      <trkpt lat="47.7907" lon="-3.6685">
        <ele>4.9</ele>
        <time>2023-01-27T15:18:13Z</time>
      </trkpt>
      <trkpt lat="47.7907" lon="-3.6685">
        <ele>4.9</ele>
        <time>2023-01-27T15:18:14Z</time>
      </trkpt>
      <trkpt lat="47.79069" lon="-3.6685">
        <ele>4.9</ele>
        <time>2023-01-27T15:18:15Z</time>
      </trkpt>
      <trkpt lat="47.79069" lon="-3.6685">
        <ele>4.9</ele>
        <time>2023-01-27T15:18:16Z</time>
      </trkpt>
      <trkpt lat="47.79069" lon="-3.6685">
        <ele>5</ele>
        <time>2023-01-27T15:18:17Z</time>
      </trkpt>
      <trkpt lat="47.79069" lon="-3.6685">
        <ele>5</ele>
        <time>2023-01-27T15:18:18Z</time>
      </trkpt>
      <trkpt lat="47.79069" lon="-3.6685">
        <ele>5</ele>
        <time>2023-01-27T15:18:19Z</time>
      </trkpt>
      <trkpt lat="47.79069" lon="-3.66849">
        <ele>5</ele>
        <time>2023-01-27T15:18:20Z</time>
      </trkpt>
      <trkpt lat="47.79069" lon="-3.66849">
        <ele>5</ele>
        <time>2023-01-27T15:18:21Z</time>
      </trkpt>
      <trkpt lat="47.79068" lon="-3.66849">
        <ele>5</ele>
        <time>2023-01-27T15:18:22Z</time>
      </trkpt>
      <trkpt lat="47.79068" lon="-3.66849">
        <ele>5</ele>
        <time>2023-01-27T15:18:23Z</time>
      </trkpt>
      <trkpt lat="47.79068" lon="-3.66849">
        <ele>5</ele>
        <time>2023-01-27T15:18:24Z</time>
      </trkpt>
      <trkpt lat="47.79068" lon="-3.66849">
        <ele>5</ele>
        <time>2023-01-27T15:18:25Z</time>
      </trkpt>
      <trkpt lat="47.79068" lon="-3.66848">
        <ele>5</ele>
        <time>2023-01-27T15:18:57Z</time>
      </trkpt>
      <trkpt lat="47.79068" lon="-3.66848">
        <ele>5</ele>
        <time>2023-01-27T15:18:58Z</time>
      </trkpt>
      <trkpt lat="47.79068" lon="-3.66848">
        <ele>5</ele>
        <time>2023-01-27T15:18:59Z</time>
      </trkpt>
      <trkpt lat="47.79067" lon="-3.66848">
        <ele>5</ele>
        <time>2023-01-27T15:19:00Z</time>
      </trkpt>
      <trkpt lat="47.79067" lon="-3.66847">
        <ele>5</ele>
        <time>2023-01-27T15:19:01Z</time>
      </trkpt>
      <trkpt lat="47.79066" lon="-3.66847">
        <ele>5</ele>
        <time>2023-01-27T15:19:02Z</time>
      </trkpt>
      <trkpt lat="47.79066" lon="-3.66847">
        <ele>5</ele>
        <time>2023-01-27T15:19:03Z</time>
      </trkpt>
      <trkpt lat="47.79066" lon="-3.66846">
        <ele>5</ele>
        <time>2023-01-27T15:19:04Z</time>
      </trkpt>
      <trkpt lat="47.79066" lon="-3.66846">
        <ele>5.1</ele>
        <time>2023-01-27T15:19:05Z</time>
      </trkpt>
      <trkpt lat="47.79065" lon="-3.66846">
        <ele>5.1</ele>
        <time>2023-01-27T15:19:06Z</time>
      </trkpt>
      <trkpt lat="47.79065" lon="-3.66845">
        <ele>5.1</ele>
        <time>2023-01-27T15:19:07Z</time>
      </trkpt>
      <trkpt lat="47.79065" lon="-3.66845">
        <ele>5.1</ele>
        <time>2023-01-27T15:19:08Z</time>
      </trkpt>
      <trkpt lat="47.79064" lon="-3.66845">
        <ele>5.1</ele>
        <time>2023-01-27T15:19:09Z</time>
      </trkpt>
      <trkpt lat="47.79063" lon="-3.66844">
        <ele>5.1</ele>
        <time>2023-01-27T15:19:10Z</time>
      </trkpt>
      <trkpt lat="47.79063" lon="-3.66844">
        <ele>5.1</ele>
        <time>2023-01-27T15:19:11Z</time>
      </trkpt>
      <trkpt lat="47.79062" lon="-3.66843">
        <ele>5.1</ele>
        <time>2023-01-27T15:19:12Z</time>
      </trkpt>
      <trkpt lat="47.79062" lon="-3.66843">
        <ele>5.1</ele>
        <time>2023-01-27T15:19:13Z</time>
      </trkpt>
      <trkpt lat="47.79059" lon="-3.66842">
        <ele>5.1</ele>
        <time>2023-01-27T15:19:14Z</time>
      </trkpt>
      <trkpt lat="47.79058" lon="-3.66842">
        <ele>5.1</ele>
        <time>2023-01-27T15:19:15Z</time>
      </trkpt>
      <trkpt lat="47.79057" lon="-3.66842">
        <ele>5.1</ele>
        <time>2023-01-27T15:19:16Z</time>
      </trkpt>
      <trkpt lat="47.79056" lon="-3.66842">
        <ele>5.1</ele>
        <time>2023-01-27T15:19:17Z</time>
      </trkpt>
      <trkpt lat="47.79054" lon="-3.66842">
        <ele>5.1</ele>
        <time>2023-01-27T15:19:18Z</time>
      </trkpt>
      <trkpt lat="47.79054" lon="-3.66845">
        <ele>5.1</ele>
        <time>2023-01-27T15:19:19Z</time>
      </trkpt>
      <trkpt lat="47.7905" lon="-3.66844">
        <ele>5.1</ele>
        <time>2023-01-27T15:19:20Z</time>
      </trkpt>
      <trkpt lat="47.79048" lon="-3.66843">
        <ele>5.1</ele>
        <time>2023-01-27T15:19:21Z</time>
      </trkpt>
      <trkpt lat="47.79044" lon="-3.66843">
        <ele>5.2</ele>
        <time>2023-01-27T15:19:22Z</time>
      </trkpt>
      <trkpt lat="47.79042" lon="-3.66842">
        <ele>5.2</ele>
        <time>2023-01-27T15:19:23Z</time>
      </trkpt>
      <trkpt lat="47.79039" lon="-3.66841">
        <ele>5.3</ele>
        <time>2023-01-27T15:19:24Z</time>
      </trkpt>
      <trkpt lat="47.79035" lon="-3.66839">
        <ele>5.4</ele>
        <time>2023-01-27T15:19:26Z</time>
      </trkpt>
      <trkpt lat="47.79032" lon="-3.66837">
        <ele>5.6</ele>
        <time>2023-01-27T15:19:27Z</time>
      </trkpt>
      <trkpt lat="47.79028" lon="-3.66836">
        <ele>5.7</ele>
        <time>2023-01-27T15:19:28Z</time>
      </trkpt>
      <trkpt lat="47.79026" lon="-3.66836">
        <ele>5.7</ele>
        <time>2023-01-27T15:19:29Z</time>
      </trkpt>
      <trkpt lat="47.79025" lon="-3.66836">
        <ele>5.8</ele>
        <time>2023-01-27T15:19:30Z</time>
      </trkpt>
      <trkpt lat="47.79022" lon="-3.66835">
        <ele>5.9</ele>
        <time>2023-01-27T15:19:31Z</time>
      </trkpt>
      <trkpt lat="47.79021" lon="-3.66834">
        <ele>5.9</ele>
        <time>2023-01-27T15:19:32Z</time>
      </trkpt>
      <trkpt lat="47.79018" lon="-3.66834">
        <ele>6.1</ele>
        <time>2023-01-27T15:19:33Z</time>
      </trkpt>
      <trkpt lat="47.79016" lon="-3.66834">
        <ele>6.1</ele>
        <time>2023-01-27T15:19:34Z</time>
      </trkpt>
      <trkpt lat="47.79014" lon="-3.66834">
        <ele>6.2</ele>
        <time>2023-01-27T15:19:35Z</time>
      </trkpt>
      <trkpt lat="47.79009" lon="-3.66835">
        <ele>6.4</ele>
        <time>2023-01-27T15:19:36Z</time>
      </trkpt>
      <trkpt lat="47.79008" lon="-3.66835">
        <ele>6.4</ele>
        <time>2023-01-27T15:19:37Z</time>
      </trkpt>
      <trkpt lat="47.79005" lon="-3.66835">
        <ele>6.5</ele>
        <time>2023-01-27T15:19:38Z</time>
      </trkpt>
      <trkpt lat="47.79001" lon="-3.66835">
        <ele>6.6</ele>
        <time>2023-01-27T15:19:39Z</time>
      </trkpt>
      <trkpt lat="47.78998" lon="-3.66835">
        <ele>6.8</ele>
        <time>2023-01-27T15:19:40Z</time>
      </trkpt>
      <trkpt lat="47.78995" lon="-3.66835">
        <ele>6.9</ele>
        <time>2023-01-27T15:19:41Z</time>
      </trkpt>
      <trkpt lat="47.78992" lon="-3.66834">
        <ele>7</ele>
        <time>2023-01-27T15:19:42Z</time>
      </trkpt>
      <trkpt lat="47.78989" lon="-3.66832">
        <ele>7</ele>
        <time>2023-01-27T15:19:43Z</time>
      </trkpt>
      <trkpt lat="47.78986" lon="-3.66831">
        <ele>7.1</ele>
        <time>2023-01-27T15:19:44Z</time>
      </trkpt>
      <trkpt lat="47.78985" lon="-3.6683">
        <ele>7.1</ele>
        <time>2023-01-27T15:19:45Z</time>
      </trkpt>
      <trkpt lat="47.78981" lon="-3.6683">
        <ele>7.1</ele>
        <time>2023-01-27T15:19:46Z</time>
      </trkpt>
      <trkpt lat="47.78979" lon="-3.66832">
        <ele>7.2</ele>
        <time>2023-01-27T15:19:47Z</time>
      </trkpt>
      <trkpt lat="47.78976" lon="-3.66834">
        <ele>7.2</ele>
        <time>2023-01-27T15:19:48Z</time>
      </trkpt>
      <trkpt lat="47.78973" lon="-3.66835">
        <ele>7.2</ele>
        <time>2023-01-27T15:19:49Z</time>
      </trkpt>
      <trkpt lat="47.78967" lon="-3.66837">
        <ele>7.1</ele>
        <time>2023-01-27T15:19:50Z</time>
      </trkpt>
      <trkpt lat="47.78964" lon="-3.66836">
        <ele>7.1</ele>
        <time>2023-01-27T15:19:51Z</time>
      </trkpt>
      <trkpt lat="47.78957" lon="-3.66835">
        <ele>7.1</ele>
        <time>2023-01-27T15:19:53Z</time>
      </trkpt>
      <trkpt lat="47.78949" lon="-3.66832">
        <ele>7.1</ele>
        <time>2023-01-27T15:19:54Z</time>
      </trkpt>
      <trkpt lat="47.78944" lon="-3.66829">
        <ele>7.1</ele>
        <time>2023-01-27T15:19:56Z</time>
      </trkpt>
      <trkpt lat="47.78941" lon="-3.66828">
        <ele>7.1</ele>
        <time>2023-01-27T15:19:57Z</time>
      </trkpt>
      <trkpt lat="47.78934" lon="-3.66826">
        <ele>7.2</ele>
        <time>2023-01-27T15:19:58Z</time>
      </trkpt>
      <trkpt lat="47.7893" lon="-3.66825">
        <ele>7.2</ele>
        <time>2023-01-27T15:19:59Z</time>
      </trkpt>
      <trkpt lat="47.78926" lon="-3.66824">
        <ele>7.2</ele>
        <time>2023-01-27T15:20:00Z</time>
      </trkpt>
      <trkpt lat="47.78921" lon="-3.66822">
        <ele>7.1</ele>
        <time>2023-01-27T15:20:02Z</time>
      </trkpt>
      <trkpt lat="47.78918" lon="-3.66821">
        <ele>7</ele>
        <time>2023-01-27T15:20:03Z</time>
      </trkpt>
      <trkpt lat="47.78914" lon="-3.66821">
        <ele>6.9</ele>
        <time>2023-01-27T15:20:04Z</time>
      </trkpt>
      <trkpt lat="47.7891" lon="-3.66822">
        <ele>6.8</ele>
        <time>2023-01-27T15:20:05Z</time>
      </trkpt>
      <trkpt lat="47.78906" lon="-3.66823">
        <ele>6.6</ele>
        <time>2023-01-27T15:20:06Z</time>
      </trkpt>
      <trkpt lat="47.78901" lon="-3.66822">
        <ele>6.6</ele>
        <time>2023-01-27T15:20:07Z</time>
      </trkpt>
      <trkpt lat="47.78897" lon="-3.66823">
        <ele>6.5</ele>
        <time>2023-01-27T15:20:08Z</time>
      </trkpt>
      <trkpt lat="47.78892" lon="-3.66824">
        <ele>6.5</ele>
        <time>2023-01-27T15:20:09Z</time>
      </trkpt>
      <trkpt lat="47.78889" lon="-3.66823">
        <ele>6.6</ele>
        <time>2023-01-27T15:20:10Z</time>
      </trkpt>
      <trkpt lat="47.78886" lon="-3.66821">
        <ele>6.6</ele>
        <time>2023-01-27T15:20:11Z</time>
      </trkpt>
      <trkpt lat="47.78882" lon="-3.66817">
        <ele>6.7</ele>
        <time>2023-01-27T15:20:12Z</time>
      </trkpt>
      <trkpt lat="47.7888" lon="-3.66813">
        <ele>6.7</ele>
        <time>2023-01-27T15:20:13Z</time>
      </trkpt>
      <trkpt lat="47.78879" lon="-3.66812">
        <ele>6.7</ele>
        <time>2023-01-27T15:20:14Z</time>
      </trkpt>
      <trkpt lat="47.78876" lon="-3.66811">
        <ele>6.7</ele>
        <time>2023-01-27T15:20:15Z</time>
      </trkpt>
      <trkpt lat="47.78873" lon="-3.6681">
        <ele>6.6</ele>
        <time>2023-01-27T15:20:16Z</time>
      </trkpt>
      <trkpt lat="47.7887" lon="-3.66807">
        <ele>6.4</ele>
        <time>2023-01-27T15:20:17Z</time>
      </trkpt>
      <trkpt lat="47.78868" lon="-3.66805">
        <ele>6.3</ele>
        <time>2023-01-27T15:20:18Z</time>
      </trkpt>
      <trkpt lat="47.78866" lon="-3.668">
        <ele>6.1</ele>
        <time>2023-01-27T15:20:19Z</time>
      </trkpt>
      <trkpt lat="47.78865" lon="-3.66796">
        <ele>5.9</ele>
        <time>2023-01-27T15:20:20Z</time>
      </trkpt>
      <trkpt lat="47.78863" lon="-3.66792">
        <ele>5.7</ele>
        <time>2023-01-27T15:20:21Z</time>
      </trkpt>
      <trkpt lat="47.78863" lon="-3.66791">
        <ele>5.6</ele>
        <time>2023-01-27T15:20:22Z</time>
      </trkpt>
      <trkpt lat="47.78862" lon="-3.66787">
        <ele>5.5</ele>
        <time>2023-01-27T15:20:23Z</time>
      </trkpt>
      <trkpt lat="47.78862" lon="-3.66786">
        <ele>5.5</ele>
        <time>2023-01-27T15:20:24Z</time>
      </trkpt>
      <trkpt lat="47.78861" lon="-3.66785">
        <ele>5.4</ele>
        <time>2023-01-27T15:20:25Z</time>
      </trkpt>
      <trkpt lat="47.78859" lon="-3.66781">
        <ele>5.4</ele>
        <time>2023-01-27T15:20:26Z</time>
      </trkpt>
      <trkpt lat="47.78858" lon="-3.66776">
        <ele>5.3</ele>
        <time>2023-01-27T15:20:27Z</time>
      </trkpt>
      <trkpt lat="47.78856" lon="-3.66771">
        <ele>5.3</ele>
        <time>2023-01-27T15:20:28Z</time>
      </trkpt>
      <trkpt lat="47.78855" lon="-3.66765">
        <ele>5.4</ele>
        <time>2023-01-27T15:20:30Z</time>
      </trkpt>
      <trkpt lat="47.78854" lon="-3.66762">
        <ele>5.5</ele>
        <time>2023-01-27T15:20:31Z</time>
      </trkpt>
      <trkpt lat="47.78853" lon="-3.66761">
        <ele>5.6</ele>
        <time>2023-01-27T15:20:32Z</time>
      </trkpt>
      <trkpt lat="47.78852" lon="-3.66758">
        <ele>5.7</ele>
        <time>2023-01-27T15:20:33Z</time>
      </trkpt>
      <trkpt lat="47.7885" lon="-3.66757">
        <ele>5.8</ele>
        <time>2023-01-27T15:20:35Z</time>
      </trkpt>
      <trkpt lat="47.7885" lon="-3.66757">
        <ele>5.8</ele>
        <time>2023-01-27T15:20:36Z</time>
      </trkpt>
      <trkpt lat="47.78851" lon="-3.66757">
        <ele>5.9</ele>
        <time>2023-01-27T15:20:37Z</time>
      </trkpt>
      <trkpt lat="47.78852" lon="-3.66757">
        <ele>5.9</ele>
        <time>2023-01-27T15:20:38Z</time>
      </trkpt>
      <trkpt lat="47.78852" lon="-3.66756">
        <ele>5.9</ele>
        <time>2023-01-27T15:20:39Z</time>
      </trkpt>
      <trkpt lat="47.78851" lon="-3.66756">
        <ele>5.9</ele>
        <time>2023-01-27T15:20:40Z</time>
      </trkpt>
      <trkpt lat="47.78851" lon="-3.66756">
        <ele>6</ele>
        <time>2023-01-27T15:20:41Z</time>
      </trkpt>
      <trkpt lat="47.7885" lon="-3.66756">
        <ele>6</ele>
        <time>2023-01-27T15:20:42Z</time>
      </trkpt>
      <trkpt lat="47.7885" lon="-3.66756">
        <ele>6</ele>
        <time>2023-01-27T15:20:43Z</time>
      </trkpt>
      <trkpt lat="47.7885" lon="-3.66756">
        <ele>6</ele>
        <time>2023-01-27T15:20:44Z</time>
      </trkpt>
      <trkpt lat="47.78849" lon="-3.66756">
        <ele>6</ele>
        <time>2023-01-27T15:20:45Z</time>
      </trkpt>
      <trkpt lat="47.78849" lon="-3.66756">
        <ele>6</ele>
        <time>2023-01-27T15:20:46Z</time>
      </trkpt>
      <trkpt lat="47.78849" lon="-3.66755">
        <ele>6.1</ele>
        <time>2023-01-27T15:20:47Z</time>
      </trkpt>
      <trkpt lat="47.78849" lon="-3.66754">
        <ele>6.1</ele>
        <time>2023-01-27T15:20:48Z</time>
      </trkpt>
      <trkpt lat="47.7885" lon="-3.66753">
        <ele>6.1</ele>
        <time>2023-01-27T15:20:49Z</time>
      </trkpt>
      <trkpt lat="47.7885" lon="-3.66752">
        <ele>6.2</ele>
        <time>2023-01-27T15:20:50Z</time>
      </trkpt>
      <trkpt lat="47.7885" lon="-3.66751">
        <ele>6.2</ele>
        <time>2023-01-27T15:20:51Z</time>
      </trkpt>
      <trkpt lat="47.7885" lon="-3.6675">
        <ele>6.2</ele>
        <time>2023-01-27T15:20:52Z</time>
      </trkpt>
      <trkpt lat="47.7885" lon="-3.6675">
        <ele>6.2</ele>
        <time>2023-01-27T15:20:53Z</time>
      </trkpt>
      <trkpt lat="47.7885" lon="-3.66749">
        <ele>6.2</ele>
        <time>2023-01-27T15:20:54Z</time>
      </trkpt>
      <trkpt lat="47.7885" lon="-3.66748">
        <ele>6.3</ele>
        <time>2023-01-27T15:20:55Z</time>
      </trkpt>
      <trkpt lat="47.7885" lon="-3.66747">
        <ele>6.3</ele>
        <time>2023-01-27T15:20:56Z</time>
      </trkpt>
      <trkpt lat="47.7885" lon="-3.66745">
        <ele>6.4</ele>
        <time>2023-01-27T15:20:57Z</time>
      </trkpt>
      <trkpt lat="47.7885" lon="-3.66743">
        <ele>6.4</ele>
        <time>2023-01-27T15:20:58Z</time>
      </trkpt>
      <trkpt lat="47.7885" lon="-3.6674">
        <ele>6.5</ele>
        <time>2023-01-27T15:20:59Z</time>
      </trkpt>
      <trkpt lat="47.7885" lon="-3.66739">
        <ele>6.6</ele>
        <time>2023-01-27T15:21:00Z</time>
      </trkpt>
      <trkpt lat="47.78849" lon="-3.66737">
        <ele>6.6</ele>
        <time>2023-01-27T15:21:01Z</time>
      </trkpt>
      <trkpt lat="47.78849" lon="-3.66736">
        <ele>6.7</ele>
        <time>2023-01-27T15:21:02Z</time>
      </trkpt>
      <trkpt lat="47.78848" lon="-3.66735">
        <ele>6.7</ele>
        <time>2023-01-27T15:21:03Z</time>
      </trkpt>
      <trkpt lat="47.78848" lon="-3.66735">
        <ele>6.7</ele>
        <time>2023-01-27T15:21:04Z</time>
      </trkpt>
      <trkpt lat="47.78847" lon="-3.66735">
        <ele>6.8</ele>
        <time>2023-01-27T15:21:05Z</time>
      </trkpt>
      <trkpt lat="47.78847" lon="-3.66735">
        <ele>6.8</ele>
        <time>2023-01-27T15:21:06Z</time>
      </trkpt>
      <trkpt lat="47.78848" lon="-3.66734">
        <ele>6.8</ele>
        <time>2023-01-27T15:21:07Z</time>
      </trkpt>
      <trkpt lat="47.78848" lon="-3.66734">
        <ele>6.8</ele>
        <time>2023-01-27T15:21:08Z</time>
      </trkpt>
      <trkpt lat="47.78848" lon="-3.66734">
        <ele>6.8</ele>
        <time>2023-01-27T15:21:09Z</time>
      </trkpt>
      <trkpt lat="47.78848" lon="-3.66734">
        <ele>6.8</ele>
        <time>2023-01-27T15:21:10Z</time>
      </trkpt>
      <trkpt lat="47.78848" lon="-3.66733">
        <ele>6.8</ele>
        <time>2023-01-27T15:21:11Z</time>
      </trkpt>
      <trkpt lat="47.78848" lon="-3.66733">
        <ele>6.8</ele>
        <time>2023-01-27T15:21:12Z</time>
      </trkpt>
      <trkpt lat="47.78848" lon="-3.66733">
        <ele>6.8</ele>
        <time>2023-01-27T15:21:13Z</time>
      </trkpt>
      <trkpt lat="47.78848" lon="-3.66733">
        <ele>6.8</ele>
        <time>2023-01-27T15:21:14Z</time>
      </trkpt>
      <trkpt lat="47.78848" lon="-3.66732">
        <ele>6.9</ele>
        <time>2023-01-27T15:21:15Z</time>
      </trkpt>
      <trkpt lat="47.78845" lon="-3.66736">
        <ele>7</ele>
        <time>2023-01-27T15:21:21Z</time>
      </trkpt>
      <trkpt lat="47.78844" lon="-3.66736">
        <ele>7.1</ele>
        <time>2023-01-27T15:21:22Z</time>
      </trkpt>
      <trkpt lat="47.78844" lon="-3.66736">
        <ele>7.1</ele>
        <time>2023-01-27T15:21:23Z</time>
      </trkpt>
      <trkpt lat="47.78843" lon="-3.66736">
        <ele>7.1</ele>
        <time>2023-01-27T15:21:24Z</time>
      </trkpt>
      <trkpt lat="47.78843" lon="-3.66736">
        <ele>7.1</ele>
        <time>2023-01-27T15:21:25Z</time>
      </trkpt>
      <trkpt lat="47.78842" lon="-3.66737">
        <ele>7.2</ele>
        <time>2023-01-27T15:21:27Z</time>
      </trkpt>
      <trkpt lat="47.78842" lon="-3.66737">
        <ele>7.2</ele>
        <time>2023-01-27T15:21:28Z</time>
      </trkpt>
      <trkpt lat="47.78842" lon="-3.66737">
        <ele>7.2</ele>
        <time>2023-01-27T15:21:29Z</time>
      </trkpt>
      <trkpt lat="47.78842" lon="-3.66738">
        <ele>7.2</ele>
        <time>2023-01-27T15:21:30Z</time>
      </trkpt>
      <trkpt lat="47.78841" lon="-3.66738">
        <ele>7.3</ele>
        <time>2023-01-27T15:21:31Z</time>
      </trkpt>
      <trkpt lat="47.78841" lon="-3.66738">
        <ele>7.3</ele>
        <time>2023-01-27T15:21:32Z</time>
      </trkpt>
      <trkpt lat="47.7884" lon="-3.66738">
        <ele>7.3</ele>
        <time>2023-01-27T15:21:33Z</time>
      </trkpt>
      <trkpt lat="47.7884" lon="-3.66738">
        <ele>7.3</ele>
        <time>2023-01-27T15:21:34Z</time>
      </trkpt>
      <trkpt lat="47.7884" lon="-3.66738">
        <ele>7.3</ele>
        <time>2023-01-27T15:21:35Z</time>
      </trkpt>
      <trkpt lat="47.78839" lon="-3.66739">
        <ele>7.3</ele>
        <time>2023-01-27T15:21:36Z</time>
      </trkpt>
      <trkpt lat="47.78839" lon="-3.66739">
        <ele>7.4</ele>
        <time>2023-01-27T15:21:37Z</time>
      </trkpt>
      <trkpt lat="47.78837" lon="-3.66739">
        <ele>7.5</ele>
        <time>2023-01-27T15:21:38Z</time>
      </trkpt>
      <trkpt lat="47.78836" lon="-3.6674">
        <ele>7.5</ele>
        <time>2023-01-27T15:21:39Z</time>
      </trkpt>
      <trkpt lat="47.78835" lon="-3.6674">
        <ele>7.5</ele>
        <time>2023-01-27T15:21:40Z</time>
      </trkpt>
      <trkpt lat="47.78831" lon="-3.66742">
        <ele>7.7</ele>
        <time>2023-01-27T15:21:41Z</time>
      </trkpt>
      <trkpt lat="47.7883" lon="-3.66744">
        <ele>7.8</ele>
        <time>2023-01-27T15:21:42Z</time>
      </trkpt>
      <trkpt lat="47.78827" lon="-3.66745">
        <ele>8</ele>
        <time>2023-01-27T15:21:43Z</time>
      </trkpt>
      <trkpt lat="47.78824" lon="-3.66746">
        <ele>8.1</ele>
        <time>2023-01-27T15:21:44Z</time>
      </trkpt>
      <trkpt lat="47.7882" lon="-3.66747">
        <ele>8.3</ele>
        <time>2023-01-27T15:21:45Z</time>
      </trkpt>
      <trkpt lat="47.78819" lon="-3.66747">
        <ele>8.3</ele>
        <time>2023-01-27T15:21:46Z</time>
      </trkpt>
      <trkpt lat="47.78816" lon="-3.66747">
        <ele>8.5</ele>
        <time>2023-01-27T15:21:47Z</time>
      </trkpt>
      <trkpt lat="47.78815" lon="-3.66746">
        <ele>8.5</ele>
        <time>2023-01-27T15:21:48Z</time>
      </trkpt>
      <trkpt lat="47.78812" lon="-3.66745">
        <ele>8.7</ele>
        <time>2023-01-27T15:21:49Z</time>
      </trkpt>
      <trkpt lat="47.78811" lon="-3.66745">
        <ele>8.7</ele>
        <time>2023-01-27T15:21:50Z</time>
      </trkpt>
      <trkpt lat="47.78807" lon="-3.66745">
        <ele>8.9</ele>
        <time>2023-01-27T15:21:51Z</time>
      </trkpt>
      <trkpt lat="47.78805" lon="-3.66745">
        <ele>9</ele>
        <time>2023-01-27T15:21:52Z</time>
      </trkpt>
      <trkpt lat="47.78802" lon="-3.66745">
        <ele>9.1</ele>
        <time>2023-01-27T15:21:53Z</time>
      </trkpt>
      <trkpt lat="47.78801" lon="-3.66744">
        <ele>9.2</ele>
        <time>2023-01-27T15:21:54Z</time>
      </trkpt>
      <trkpt lat="47.78797" lon="-3.66743">
        <ele>9.4</ele>
        <time>2023-01-27T15:21:55Z</time>
      </trkpt>
      <trkpt lat="47.78796" lon="-3.66742">
        <ele>9.4</ele>
        <time>2023-01-27T15:21:56Z</time>
      </trkpt>
      <trkpt lat="47.78793" lon="-3.66741">
        <ele>9.6</ele>
        <time>2023-01-27T15:21:57Z</time>
      </trkpt>
      <trkpt lat="47.78789" lon="-3.6674">
        <ele>9.8</ele>
        <time>2023-01-27T15:21:58Z</time>
      </trkpt>
      <trkpt lat="47.78786" lon="-3.6674">
        <ele>9.9</ele>
        <time>2023-01-27T15:21:59Z</time>
      </trkpt>
      <trkpt lat="47.78782" lon="-3.66739">
        <ele>10.1</ele>
        <time>2023-01-27T15:22:00Z</time>
      </trkpt>
      <trkpt lat="47.78778" lon="-3.66738">
        <ele>10.3</ele>
        <time>2023-01-27T15:22:02Z</time>
      </trkpt>
      <trkpt lat="47.78775" lon="-3.66737">
        <ele>10.4</ele>
        <time>2023-01-27T15:22:03Z</time>
      </trkpt>
      <trkpt lat="47.7877" lon="-3.66737">
        <ele>10.7</ele>
        <time>2023-01-27T15:22:04Z</time>
      </trkpt>
      <trkpt lat="47.78765" lon="-3.66735">
        <ele>10.9</ele>
        <time>2023-01-27T15:22:06Z</time>
      </trkpt>
      <trkpt lat="47.78762" lon="-3.66734">
        <ele>11.1</ele>
        <time>2023-01-27T15:22:08Z</time>
      </trkpt>
      <trkpt lat="47.78758" lon="-3.66731">
        <ele>11.3</ele>
        <time>2023-01-27T15:22:09Z</time>
      </trkpt>
      <trkpt lat="47.78756" lon="-3.66729">
        <ele>11.4</ele>
        <time>2023-01-27T15:22:10Z</time>
      </trkpt>
      <trkpt lat="47.78751" lon="-3.66721">
        <ele>11.7</ele>
        <time>2023-01-27T15:22:12Z</time>
      </trkpt>
      <trkpt lat="47.78747" lon="-3.66714">
        <ele>12</ele>
        <time>2023-01-27T15:22:13Z</time>
      </trkpt>
      <trkpt lat="47.78743" lon="-3.6671">
        <ele>12.4</ele>
        <time>2023-01-27T15:22:14Z</time>
      </trkpt>
      <trkpt lat="47.78739" lon="-3.66707">
        <ele>12.3</ele>
        <time>2023-01-27T15:22:15Z</time>
      </trkpt>
      <trkpt lat="47.78736" lon="-3.66707">
        <ele>12.2</ele>
        <time>2023-01-27T15:22:16Z</time>
      </trkpt>
      <trkpt lat="47.78731" lon="-3.66707">
        <ele>12.6</ele>
        <time>2023-01-27T15:22:18Z</time>
      </trkpt>
      <trkpt lat="47.78728" lon="-3.66708">
        <ele>12.5</ele>
        <time>2023-01-27T15:22:19Z</time>
      </trkpt>
      <trkpt lat="47.78725" lon="-3.66711">
        <ele>12.4</ele>
        <time>2023-01-27T15:22:20Z</time>
      </trkpt>
      <trkpt lat="47.7872" lon="-3.66718">
        <ele>12.9</ele>
        <time>2023-01-27T15:22:21Z</time>
      </trkpt>
      <trkpt lat="47.78718" lon="-3.66726">
        <ele>11.8</ele>
        <time>2023-01-27T15:22:23Z</time>
      </trkpt>
      <trkpt lat="47.78718" lon="-3.66731">
        <ele>11.8</ele>
        <time>2023-01-27T15:22:25Z</time>
      </trkpt>
      <trkpt lat="47.78718" lon="-3.66735">
        <ele>11.7</ele>
        <time>2023-01-27T15:22:26Z</time>
      </trkpt>
      <trkpt lat="47.78717" lon="-3.66742">
        <ele>10.5</ele>
        <time>2023-01-27T15:22:27Z</time>
      </trkpt>
      <trkpt lat="47.78716" lon="-3.66745">
        <ele>10.8</ele>
        <time>2023-01-27T15:22:28Z</time>
      </trkpt>
      <trkpt lat="47.78714" lon="-3.66749">
        <ele>11.1</ele>
        <time>2023-01-27T15:22:29Z</time>
      </trkpt>
      <trkpt lat="47.78712" lon="-3.66751">
        <ele>11.3</ele>
        <time>2023-01-27T15:22:30Z</time>
      </trkpt>
      <trkpt lat="47.78706" lon="-3.66755">
        <ele>12</ele>
        <time>2023-01-27T15:22:32Z</time>
      </trkpt>
      <trkpt lat="47.78702" lon="-3.66756">
        <ele>12.4</ele>
        <time>2023-01-27T15:22:33Z</time>
      </trkpt>
      <trkpt lat="47.78699" lon="-3.66757">
        <ele>12.7</ele>
        <time>2023-01-27T15:22:35Z</time>
      </trkpt>
      <trkpt lat="47.78695" lon="-3.66758">
        <ele>13.1</ele>
        <time>2023-01-27T15:22:36Z</time>
      </trkpt>
      <trkpt lat="47.78689" lon="-3.66759">
        <ele>13.7</ele>
        <time>2023-01-27T15:22:37Z</time>
      </trkpt>
      <trkpt lat="47.78685" lon="-3.66759">
        <ele>14.1</ele>
        <time>2023-01-27T15:22:39Z</time>
      </trkpt>
      <trkpt lat="47.78682" lon="-3.66759">
        <ele>14.5</ele>
        <time>2023-01-27T15:22:40Z</time>
      </trkpt>
      <trkpt lat="47.78678" lon="-3.66759">
        <ele>14.8</ele>
        <time>2023-01-27T15:22:41Z</time>
      </trkpt>
      <trkpt lat="47.78676" lon="-3.66759">
        <ele>15.1</ele>
        <time>2023-01-27T15:22:42Z</time>
      </trkpt>
      <trkpt lat="47.78673" lon="-3.66759">
        <ele>15.5</ele>
        <time>2023-01-27T15:22:43Z</time>
      </trkpt>
      <trkpt lat="47.78668" lon="-3.66759">
        <ele>16</ele>
        <time>2023-01-27T15:22:44Z</time>
      </trkpt>
      <trkpt lat="47.78666" lon="-3.66759">
        <ele>16.3</ele>
        <time>2023-01-27T15:22:45Z</time>
      </trkpt>
      <trkpt lat="47.78662" lon="-3.6676">
        <ele>16.7</ele>
        <time>2023-01-27T15:22:47Z</time>
      </trkpt>
      <trkpt lat="47.78659" lon="-3.66761">
        <ele>17.1</ele>
        <time>2023-01-27T15:22:48Z</time>
      </trkpt>
      <trkpt lat="47.78656" lon="-3.66762">
        <ele>17.5</ele>
        <time>2023-01-27T15:22:49Z</time>
      </trkpt>
      <trkpt lat="47.78652" lon="-3.66763">
        <ele>17.9</ele>
        <time>2023-01-27T15:22:50Z</time>
      </trkpt>
      <trkpt lat="47.78649" lon="-3.66764">
        <ele>18.3</ele>
        <time>2023-01-27T15:22:51Z</time>
      </trkpt>
      <trkpt lat="47.78643" lon="-3.66768">
        <ele>18.9</ele>
        <time>2023-01-27T15:22:53Z</time>
      </trkpt>
      <trkpt lat="47.7864" lon="-3.66771">
        <ele>19.3</ele>
        <time>2023-01-27T15:22:55Z</time>
      </trkpt>
      <trkpt lat="47.78637" lon="-3.66773">
        <ele>19.7</ele>
        <time>2023-01-27T15:22:56Z</time>
      </trkpt>
      <trkpt lat="47.78633" lon="-3.66777">
        <ele>20.2</ele>
        <time>2023-01-27T15:22:57Z</time>
      </trkpt>
      <trkpt lat="47.78628" lon="-3.66779">
        <ele>20.7</ele>
        <time>2023-01-27T15:22:59Z</time>
      </trkpt>
      <trkpt lat="47.78625" lon="-3.6678">
        <ele>21</ele>
        <time>2023-01-27T15:23:01Z</time>
      </trkpt>
      <trkpt lat="47.78622" lon="-3.66782">
        <ele>21.3</ele>
        <time>2023-01-27T15:23:02Z</time>
      </trkpt>
      <trkpt lat="47.78621" lon="-3.66782">
        <ele>21.4</ele>
        <time>2023-01-27T15:23:03Z</time>
      </trkpt>
      <trkpt lat="47.78618" lon="-3.66782">
        <ele>21.7</ele>
        <time>2023-01-27T15:23:04Z</time>
      </trkpt>
      <trkpt lat="47.78614" lon="-3.66782">
        <ele>22</ele>
        <time>2023-01-27T15:23:05Z</time>
      </trkpt>
      <trkpt lat="47.78613" lon="-3.66783">
        <ele>22.1</ele>
        <time>2023-01-27T15:23:06Z</time>
      </trkpt>
      <trkpt lat="47.7861" lon="-3.66784">
        <ele>22.4</ele>
        <time>2023-01-27T15:23:07Z</time>
      </trkpt>
      <trkpt lat="47.78606" lon="-3.6679">
        <ele>22.8</ele>
        <time>2023-01-27T15:23:08Z</time>
      </trkpt>
      <trkpt lat="47.78603" lon="-3.66793">
        <ele>22.7</ele>
        <time>2023-01-27T15:23:09Z</time>
      </trkpt>
      <trkpt lat="47.786" lon="-3.66797">
        <ele>22.6</ele>
        <time>2023-01-27T15:23:11Z</time>
      </trkpt>
      <trkpt lat="47.78597" lon="-3.66802">
        <ele>22.5</ele>
        <time>2023-01-27T15:23:12Z</time>
      </trkpt>
      <trkpt lat="47.78593" lon="-3.6681">
        <ele>22.4</ele>
        <time>2023-01-27T15:23:13Z</time>
      </trkpt>
      <trkpt lat="47.7859" lon="-3.66816">
        <ele>22.3</ele>
        <time>2023-01-27T15:23:14Z</time>
      </trkpt>
      <trkpt lat="47.78586" lon="-3.66822">
        <ele>22.2</ele>
        <time>2023-01-27T15:23:15Z</time>
      </trkpt>
      <trkpt lat="47.78582" lon="-3.66827">
        <ele>22.1</ele>
        <time>2023-01-27T15:23:16Z</time>
      </trkpt>
      <trkpt lat="47.78578" lon="-3.66832">
        <ele>22</ele>
        <time>2023-01-27T15:23:17Z</time>
      </trkpt>
      <trkpt lat="47.78574" lon="-3.66837">
        <ele>21.9</ele>
        <time>2023-01-27T15:23:18Z</time>
      </trkpt>
      <trkpt lat="47.7857" lon="-3.66842">
        <ele>21.8</ele>
        <time>2023-01-27T15:23:19Z</time>
      </trkpt>
      <trkpt lat="47.78566" lon="-3.66847">
        <ele>21.7</ele>
        <time>2023-01-27T15:23:20Z</time>
      </trkpt>
      <trkpt lat="47.78561" lon="-3.66851">
        <ele>21.7</ele>
        <time>2023-01-27T15:23:21Z</time>
      </trkpt>
      <trkpt lat="47.78556" lon="-3.66856">
        <ele>21.6</ele>
        <time>2023-01-27T15:23:22Z</time>
      </trkpt>
      <trkpt lat="47.78552" lon="-3.66861">
        <ele>21.5</ele>
        <time>2023-01-27T15:23:23Z</time>
      </trkpt>
      <trkpt lat="47.78547" lon="-3.66866">
        <ele>21.4</ele>
        <time>2023-01-27T15:23:24Z</time>
      </trkpt>
      <trkpt lat="47.78541" lon="-3.66871">
        <ele>21.3</ele>
        <time>2023-01-27T15:23:25Z</time>
      </trkpt>
      <trkpt lat="47.78536" lon="-3.66876">
        <ele>21.2</ele>
        <time>2023-01-27T15:23:26Z</time>
      </trkpt>
      <trkpt lat="47.78531" lon="-3.6688">
        <ele>21.1</ele>
        <time>2023-01-27T15:23:27Z</time>
      </trkpt>
      <trkpt lat="47.78526" lon="-3.66884">
        <ele>21</ele>
        <time>2023-01-27T15:23:28Z</time>
      </trkpt>
      <trkpt lat="47.7852" lon="-3.66888">
        <ele>20.8</ele>
        <time>2023-01-27T15:23:29Z</time>
      </trkpt>
      <trkpt lat="47.78515" lon="-3.66891">
        <ele>20.7</ele>
        <time>2023-01-27T15:23:30Z</time>
      </trkpt>
      <trkpt lat="47.78509" lon="-3.66893">
        <ele>20.6</ele>
        <time>2023-01-27T15:23:31Z</time>
      </trkpt>
      <trkpt lat="47.78503" lon="-3.66895">
        <ele>20.5</ele>
        <time>2023-01-27T15:23:32Z</time>
      </trkpt>
      <trkpt lat="47.78496" lon="-3.66897">
        <ele>20.3</ele>
        <time>2023-01-27T15:23:33Z</time>
      </trkpt>
      <trkpt lat="47.78489" lon="-3.66899">
        <ele>20.1</ele>
        <time>2023-01-27T15:23:34Z</time>
      </trkpt>
      <trkpt lat="47.78482" lon="-3.66901">
        <ele>19.9</ele>
        <time>2023-01-27T15:23:35Z</time>
      </trkpt>
      <trkpt lat="47.78476" lon="-3.66905">
        <ele>19.8</ele>
        <time>2023-01-27T15:23:36Z</time>
      </trkpt>
      <trkpt lat="47.7847" lon="-3.6691">
        <ele>19.7</ele>
        <time>2023-01-27T15:23:37Z</time>
      </trkpt>
      <trkpt lat="47.78465" lon="-3.66917">
        <ele>19.7</ele>
        <time>2023-01-27T15:23:38Z</time>
      </trkpt>
      <trkpt lat="47.78461" lon="-3.66925">
        <ele>19.7</ele>
        <time>2023-01-27T15:23:39Z</time>
      </trkpt>
      <trkpt lat="47.78458" lon="-3.66933">
        <ele>19.8</ele>
        <time>2023-01-27T15:23:40Z</time>
      </trkpt>
      <trkpt lat="47.78454" lon="-3.66939">
        <ele>19.9</ele>
        <time>2023-01-27T15:23:41Z</time>
      </trkpt>
      <trkpt lat="47.78451" lon="-3.66943">
        <ele>20</ele>
        <time>2023-01-27T15:23:42Z</time>
      </trkpt>
      <trkpt lat="47.78449" lon="-3.66947">
        <ele>20.1</ele>
        <time>2023-01-27T15:23:43Z</time>
      </trkpt>
      <trkpt lat="47.78445" lon="-3.66949">
        <ele>20.2</ele>
        <time>2023-01-27T15:23:44Z</time>
      </trkpt>
      <trkpt lat="47.78443" lon="-3.66951">
        <ele>20.2</ele>
        <time>2023-01-27T15:23:45Z</time>
      </trkpt>
      <trkpt lat="47.7844" lon="-3.66953">
        <ele>20.3</ele>
        <time>2023-01-27T15:23:46Z</time>
      </trkpt>
      <trkpt lat="47.78436" lon="-3.66955">
        <ele>20.3</ele>
        <time>2023-01-27T15:23:47Z</time>
      </trkpt>
      <trkpt lat="47.78432" lon="-3.66957">
        <ele>20.4</ele>
        <time>2023-01-27T15:23:48Z</time>
      </trkpt>
      <trkpt lat="47.78426" lon="-3.6696">
        <ele>20.4</ele>
        <time>2023-01-27T15:23:49Z</time>
      </trkpt>
      <trkpt lat="47.78422" lon="-3.6696">
        <ele>20.4</ele>
        <time>2023-01-27T15:23:50Z</time>
      </trkpt>
      <trkpt lat="47.78421" lon="-3.6696">
        <ele>20.4</ele>
        <time>2023-01-27T15:23:51Z</time>
      </trkpt>
      <trkpt lat="47.78415" lon="-3.66961">
        <ele>20.5</ele>
        <time>2023-01-27T15:23:52Z</time>
      </trkpt>
      <trkpt lat="47.78408" lon="-3.66961">
        <ele>20.6</ele>
        <time>2023-01-27T15:23:53Z</time>
      </trkpt>
      <trkpt lat="47.78404" lon="-3.66958">
        <ele>20.8</ele>
        <time>2023-01-27T15:23:54Z</time>
      </trkpt>
      <trkpt lat="47.784" lon="-3.66948">
        <ele>21.4</ele>
        <time>2023-01-27T15:23:56Z</time>
      </trkpt>
      <trkpt lat="47.78398" lon="-3.66942">
        <ele>21.7</ele>
        <time>2023-01-27T15:23:58Z</time>
      </trkpt>
      <trkpt lat="47.78397" lon="-3.66938">
        <ele>21.9</ele>
        <time>2023-01-27T15:23:59Z</time>
      </trkpt>
      <trkpt lat="47.78394" lon="-3.6693">
        <ele>22.4</ele>
        <time>2023-01-27T15:24:00Z</time>
      </trkpt>
      <trkpt lat="47.78392" lon="-3.66925">
        <ele>22.7</ele>
        <time>2023-01-27T15:24:02Z</time>
      </trkpt>
      <trkpt lat="47.7839" lon="-3.66921">
        <ele>23</ele>
        <time>2023-01-27T15:24:03Z</time>
      </trkpt>
      <trkpt lat="47.78388" lon="-3.66917">
        <ele>23.3</ele>
        <time>2023-01-27T15:24:04Z</time>
      </trkpt>
      <trkpt lat="47.78385" lon="-3.66914">
        <ele>23.5</ele>
        <time>2023-01-27T15:24:05Z</time>
      </trkpt>
      <trkpt lat="47.78383" lon="-3.6691">
        <ele>23.8</ele>
        <time>2023-01-27T15:24:06Z</time>
      </trkpt>
      <trkpt lat="47.78381" lon="-3.66906">
        <ele>24</ele>
        <time>2023-01-27T15:24:07Z</time>
      </trkpt>
      <trkpt lat="47.78378" lon="-3.669">
        <ele>24.4</ele>
        <time>2023-01-27T15:24:08Z</time>
      </trkpt>
      <trkpt lat="47.78375" lon="-3.66894">
        <ele>24.7</ele>
        <time>2023-01-27T15:24:10Z</time>
      </trkpt>
      <trkpt lat="47.78374" lon="-3.66892">
        <ele>24.8</ele>
        <time>2023-01-27T15:24:11Z</time>
      </trkpt>
      <trkpt lat="47.78373" lon="-3.6689">
        <ele>24.9</ele>
        <time>2023-01-27T15:24:12Z</time>
      </trkpt>
      <trkpt lat="47.7837" lon="-3.66886">
        <ele>25.1</ele>
        <time>2023-01-27T15:24:13Z</time>
      </trkpt>
      <trkpt lat="47.78368" lon="-3.66882">
        <ele>25.3</ele>
        <time>2023-01-27T15:24:14Z</time>
      </trkpt>
      <trkpt lat="47.78365" lon="-3.66878">
        <ele>25.5</ele>
        <time>2023-01-27T15:24:15Z</time>
      </trkpt>
      <trkpt lat="47.78363" lon="-3.66873">
        <ele>25.7</ele>
        <time>2023-01-27T15:24:16Z</time>
      </trkpt>
      <trkpt lat="47.7836" lon="-3.66869">
        <ele>25.9</ele>
        <time>2023-01-27T15:24:17Z</time>
      </trkpt>
      <trkpt lat="47.78358" lon="-3.66865">
        <ele>26</ele>
        <time>2023-01-27T15:24:18Z</time>
      </trkpt>
      <trkpt lat="47.78355" lon="-3.66861">
        <ele>26.1</ele>
        <time>2023-01-27T15:24:19Z</time>
      </trkpt>
      <trkpt lat="47.78352" lon="-3.66857">
        <ele>26.2</ele>
        <time>2023-01-27T15:24:20Z</time>
      </trkpt>
      <trkpt lat="47.7835" lon="-3.66854">
        <ele>26.3</ele>
        <time>2023-01-27T15:24:21Z</time>
      </trkpt>
      <trkpt lat="47.78347" lon="-3.66851">
        <ele>26.4</ele>
        <time>2023-01-27T15:24:22Z</time>
      </trkpt>
      <trkpt lat="47.78343" lon="-3.66849">
        <ele>26.5</ele>
        <time>2023-01-27T15:24:23Z</time>
      </trkpt>
      <trkpt lat="47.7834" lon="-3.66846">
        <ele>26.6</ele>
        <time>2023-01-27T15:24:24Z</time>
      </trkpt>
      <trkpt lat="47.78336" lon="-3.66842">
        <ele>26.7</ele>
        <time>2023-01-27T15:24:25Z</time>
      </trkpt>
      <trkpt lat="47.78333" lon="-3.66839">
        <ele>26.8</ele>
        <time>2023-01-27T15:24:26Z</time>
      </trkpt>
      <trkpt lat="47.7833" lon="-3.66831">
        <ele>26.9</ele>
        <time>2023-01-27T15:24:27Z</time>
      </trkpt>
      <trkpt lat="47.78329" lon="-3.66819">
        <ele>26.9</ele>
        <time>2023-01-27T15:24:29Z</time>
      </trkpt>
      <trkpt lat="47.7833" lon="-3.66812">
        <ele>27</ele>
        <time>2023-01-27T15:24:31Z</time>
      </trkpt>
      <trkpt lat="47.78332" lon="-3.66806">
        <ele>27</ele>
        <time>2023-01-27T15:24:32Z</time>
      </trkpt>
      <trkpt lat="47.78333" lon="-3.66796">
        <ele>27.1</ele>
        <time>2023-01-27T15:24:33Z</time>
      </trkpt>
      <trkpt lat="47.78333" lon="-3.66789">
        <ele>27.2</ele>
        <time>2023-01-27T15:24:34Z</time>
      </trkpt>
      <trkpt lat="47.78333" lon="-3.66782">
        <ele>27.2</ele>
        <time>2023-01-27T15:24:35Z</time>
      </trkpt>
      <trkpt lat="47.78333" lon="-3.66775">
        <ele>27.2</ele>
        <time>2023-01-27T15:24:36Z</time>
      </trkpt>
      <trkpt lat="47.78333" lon="-3.66768">
        <ele>27.3</ele>
        <time>2023-01-27T15:24:37Z</time>
      </trkpt>
      <trkpt lat="47.78332" lon="-3.6676">
        <ele>27.3</ele>
        <time>2023-01-27T15:24:38Z</time>
      </trkpt>
      <trkpt lat="47.78331" lon="-3.66753">
        <ele>27.3</ele>
        <time>2023-01-27T15:24:39Z</time>
      </trkpt>
      <trkpt lat="47.7833" lon="-3.66746">
        <ele>27.3</ele>
        <time>2023-01-27T15:24:40Z</time>
      </trkpt>
      <trkpt lat="47.78329" lon="-3.66739">
        <ele>27.3</ele>
        <time>2023-01-27T15:24:41Z</time>
      </trkpt>
      <trkpt lat="47.78328" lon="-3.66732">
        <ele>27.3</ele>
        <time>2023-01-27T15:24:42Z</time>
      </trkpt>
      <trkpt lat="47.78327" lon="-3.66724">
        <ele>27.3</ele>
        <time>2023-01-27T15:24:43Z</time>
      </trkpt>
      <trkpt lat="47.78326" lon="-3.66717">
        <ele>27.2</ele>
        <time>2023-01-27T15:24:44Z</time>
      </trkpt>
      <trkpt lat="47.78326" lon="-3.66709">
        <ele>27.2</ele>
        <time>2023-01-27T15:24:45Z</time>
      </trkpt>
      <trkpt lat="47.78325" lon="-3.66701">
        <ele>27.2</ele>
        <time>2023-01-27T15:24:46Z</time>
      </trkpt>
      <trkpt lat="47.78322" lon="-3.66694">
        <ele>27.1</ele>
        <time>2023-01-27T15:24:47Z</time>
      </trkpt>
      <trkpt lat="47.78318" lon="-3.66688">
        <ele>27</ele>
        <time>2023-01-27T15:24:48Z</time>
      </trkpt>
      <trkpt lat="47.78313" lon="-3.66685">
        <ele>26.9</ele>
        <time>2023-01-27T15:24:49Z</time>
      </trkpt>
      <trkpt lat="47.78308" lon="-3.66683">
        <ele>26.8</ele>
        <time>2023-01-27T15:24:50Z</time>
      </trkpt>
      <trkpt lat="47.78303" lon="-3.6668">
        <ele>26.6</ele>
        <time>2023-01-27T15:24:51Z</time>
      </trkpt>
      <trkpt lat="47.78298" lon="-3.66674">
        <ele>26.4</ele>
        <time>2023-01-27T15:24:52Z</time>
      </trkpt>
      <trkpt lat="47.78295" lon="-3.66666">
        <ele>26.2</ele>
        <time>2023-01-27T15:24:53Z</time>
      </trkpt>
      <trkpt lat="47.78294" lon="-3.66656">
        <ele>26.1</ele>
        <time>2023-01-27T15:24:54Z</time>
      </trkpt>
      <trkpt lat="47.78293" lon="-3.66647">
        <ele>25.9</ele>
        <time>2023-01-27T15:24:55Z</time>
      </trkpt>
      <trkpt lat="47.78292" lon="-3.66638">
        <ele>25.7</ele>
        <time>2023-01-27T15:24:56Z</time>
      </trkpt>
      <trkpt lat="47.7829" lon="-3.66629">
        <ele>25.6</ele>
        <time>2023-01-27T15:24:57Z</time>
      </trkpt>
      <trkpt lat="47.78287" lon="-3.6662">
        <ele>25.4</ele>
        <time>2023-01-27T15:24:58Z</time>
      </trkpt>
      <trkpt lat="47.78283" lon="-3.66612">
        <ele>25.2</ele>
        <time>2023-01-27T15:24:59Z</time>
      </trkpt>
      <trkpt lat="47.78278" lon="-3.66605">
        <ele>24.9</ele>
        <time>2023-01-27T15:25:00Z</time>
      </trkpt>
      <trkpt lat="47.78272" lon="-3.66601">
        <ele>24.6</ele>
        <time>2023-01-27T15:25:01Z</time>
      </trkpt>
      <trkpt lat="47.78266" lon="-3.66596">
        <ele>24.3</ele>
        <time>2023-01-27T15:25:02Z</time>
      </trkpt>
      <trkpt lat="47.78263" lon="-3.66588">
        <ele>24.1</ele>
        <time>2023-01-27T15:25:03Z</time>
      </trkpt>
      <trkpt lat="47.78262" lon="-3.66578">
        <ele>23.8</ele>
        <time>2023-01-27T15:25:04Z</time>
      </trkpt>
      <trkpt lat="47.78263" lon="-3.66568">
        <ele>23.7</ele>
        <time>2023-01-27T15:25:05Z</time>
      </trkpt>
      <trkpt lat="47.78265" lon="-3.6656">
        <ele>23.7</ele>
        <time>2023-01-27T15:25:06Z</time>
      </trkpt>
      <trkpt lat="47.78267" lon="-3.66552">
        <ele>23.7</ele>
        <time>2023-01-27T15:25:07Z</time>
      </trkpt>
      <trkpt lat="47.7827" lon="-3.66544">
        <ele>23.7</ele>
        <time>2023-01-27T15:25:08Z</time>
      </trkpt>
      <trkpt lat="47.78272" lon="-3.66536">
        <ele>23.7</ele>
        <time>2023-01-27T15:25:09Z</time>
      </trkpt>
      <trkpt lat="47.78274" lon="-3.66527">
        <ele>23.7</ele>
        <time>2023-01-27T15:25:10Z</time>
      </trkpt>
      <trkpt lat="47.78275" lon="-3.66519">
        <ele>23.7</ele>
        <time>2023-01-27T15:25:11Z</time>
      </trkpt>
      <trkpt lat="47.78276" lon="-3.66511">
        <ele>23.7</ele>
        <time>2023-01-27T15:25:12Z</time>
      </trkpt>
      <trkpt lat="47.78278" lon="-3.66502">
        <ele>23.7</ele>
        <time>2023-01-27T15:25:13Z</time>
      </trkpt>
      <trkpt lat="47.78279" lon="-3.66493">
        <ele>23.6</ele>
        <time>2023-01-27T15:25:14Z</time>
      </trkpt>
      <trkpt lat="47.78281" lon="-3.66485">
        <ele>23.6</ele>
        <time>2023-01-27T15:25:15Z</time>
      </trkpt>
      <trkpt lat="47.78282" lon="-3.66477">
        <ele>23.5</ele>
        <time>2023-01-27T15:25:16Z</time>
      </trkpt>
      <trkpt lat="47.78283" lon="-3.66468">
        <ele>23.4</ele>
        <time>2023-01-27T15:25:17Z</time>
      </trkpt>
      <trkpt lat="47.78284" lon="-3.66459">
        <ele>23.3</ele>
        <time>2023-01-27T15:25:18Z</time>
      </trkpt>
      <trkpt lat="47.78285" lon="-3.6645">
        <ele>23.2</ele>
        <time>2023-01-27T15:25:19Z</time>
      </trkpt>
      <trkpt lat="47.78287" lon="-3.66441">
        <ele>23</ele>
        <time>2023-01-27T15:25:20Z</time>
      </trkpt>
      <trkpt lat="47.78288" lon="-3.66432">
        <ele>22.9</ele>
        <time>2023-01-27T15:25:21Z</time>
      </trkpt>
      <trkpt lat="47.78289" lon="-3.66422">
        <ele>22.7</ele>
        <time>2023-01-27T15:25:22Z</time>
      </trkpt>
      <trkpt lat="47.7829" lon="-3.66413">
        <ele>22.5</ele>
        <time>2023-01-27T15:25:23Z</time>
      </trkpt>
      <trkpt lat="47.78291" lon="-3.66403">
        <ele>22.3</ele>
        <time>2023-01-27T15:25:24Z</time>
      </trkpt>
      <trkpt lat="47.78292" lon="-3.66394">
        <ele>22.1</ele>
        <time>2023-01-27T15:25:25Z</time>
      </trkpt>
      <trkpt lat="47.78297" lon="-3.66389">
        <ele>21.9</ele>
        <time>2023-01-27T15:25:26Z</time>
      </trkpt>
      <trkpt lat="47.78303" lon="-3.66386">
        <ele>21.7</ele>
        <time>2023-01-27T15:25:27Z</time>
      </trkpt>
      <trkpt lat="47.78309" lon="-3.66385">
        <ele>21.6</ele>
        <time>2023-01-27T15:25:28Z</time>
      </trkpt>
      <trkpt lat="47.78316" lon="-3.66383">
        <ele>21.5</ele>
        <time>2023-01-27T15:25:29Z</time>
      </trkpt>
      <trkpt lat="47.78322" lon="-3.66378">
        <ele>21.5</ele>
        <time>2023-01-27T15:25:30Z</time>
      </trkpt>
      <trkpt lat="47.78328" lon="-3.66373">
        <ele>21.6</ele>
        <time>2023-01-27T15:25:31Z</time>
      </trkpt>
      <trkpt lat="47.78334" lon="-3.66369">
        <ele>21.7</ele>
        <time>2023-01-27T15:25:32Z</time>
      </trkpt>
      <trkpt lat="47.78339" lon="-3.66365">
        <ele>21.9</ele>
        <time>2023-01-27T15:25:33Z</time>
      </trkpt>
      <trkpt lat="47.78344" lon="-3.66362">
        <ele>22.1</ele>
        <time>2023-01-27T15:25:34Z</time>
      </trkpt>
      <trkpt lat="47.78348" lon="-3.66359">
        <ele>22.3</ele>
        <time>2023-01-27T15:25:35Z</time>
      </trkpt>
      <trkpt lat="47.78353" lon="-3.66357">
        <ele>22.5</ele>
        <time>2023-01-27T15:25:36Z</time>
      </trkpt>
      <trkpt lat="47.78357" lon="-3.66356">
        <ele>22.6</ele>
        <time>2023-01-27T15:25:37Z</time>
      </trkpt>
      <trkpt lat="47.78362" lon="-3.66355">
        <ele>22.7</ele>
        <time>2023-01-27T15:25:38Z</time>
      </trkpt>
      <trkpt lat="47.78367" lon="-3.66356">
        <ele>22.8</ele>
        <time>2023-01-27T15:25:39Z</time>
      </trkpt>
      <trkpt lat="47.78372" lon="-3.66356">
        <ele>22.8</ele>
        <time>2023-01-27T15:25:40Z</time>
      </trkpt>
      <trkpt lat="47.78377" lon="-3.66356">
        <ele>22.9</ele>
        <time>2023-01-27T15:25:41Z</time>
      </trkpt>
      <trkpt lat="47.78382" lon="-3.66356">
        <ele>22.9</ele>
        <time>2023-01-27T15:25:42Z</time>
      </trkpt>
      <trkpt lat="47.78388" lon="-3.66356">
        <ele>22.9</ele>
        <time>2023-01-27T15:25:43Z</time>
      </trkpt>
      <trkpt lat="47.78394" lon="-3.66356">
        <ele>22.8</ele>
        <time>2023-01-27T15:25:44Z</time>
      </trkpt>
      <trkpt lat="47.784" lon="-3.66356">
        <ele>22.8</ele>
        <time>2023-01-27T15:25:45Z</time>
      </trkpt>
      <trkpt lat="47.78406" lon="-3.66356">
        <ele>22.7</ele>
        <time>2023-01-27T15:25:46Z</time>
      </trkpt>
      <trkpt lat="47.78411" lon="-3.66356">
        <ele>22.6</ele>
        <time>2023-01-27T15:25:47Z</time>
      </trkpt>
      <trkpt lat="47.78417" lon="-3.66356">
        <ele>22.5</ele>
        <time>2023-01-27T15:25:48Z</time>
      </trkpt>
      <trkpt lat="47.78423" lon="-3.66356">
        <ele>22.3</ele>
        <time>2023-01-27T15:25:49Z</time>
      </trkpt>
      <trkpt lat="47.7843" lon="-3.66357">
        <ele>22.1</ele>
        <time>2023-01-27T15:25:50Z</time>
      </trkpt>
      <trkpt lat="47.78436" lon="-3.66357">
        <ele>21.9</ele>
        <time>2023-01-27T15:25:51Z</time>
      </trkpt>
      <trkpt lat="47.78443" lon="-3.66357">
        <ele>21.6</ele>
        <time>2023-01-27T15:25:52Z</time>
      </trkpt>
      <trkpt lat="47.7845" lon="-3.66358">
        <ele>21.3</ele>
        <time>2023-01-27T15:25:53Z</time>
      </trkpt>
      <trkpt lat="47.78457" lon="-3.6636">
        <ele>21.2</ele>
        <time>2023-01-27T15:25:54Z</time>
      </trkpt>
      <trkpt lat="47.78464" lon="-3.66361">
        <ele>21.2</ele>
        <time>2023-01-27T15:25:55Z</time>
      </trkpt>
      <trkpt lat="47.7847" lon="-3.6636">
        <ele>21.2</ele>
        <time>2023-01-27T15:25:56Z</time>
      </trkpt>
      <trkpt lat="47.78474" lon="-3.66357">
        <ele>21.2</ele>
        <time>2023-01-27T15:25:57Z</time>
      </trkpt>
      <trkpt lat="47.78476" lon="-3.66353">
        <ele>21.2</ele>
        <time>2023-01-27T15:25:58Z</time>
      </trkpt>
      <trkpt lat="47.78475" lon="-3.6635">
        <ele>20.9</ele>
        <time>2023-01-27T15:25:59Z</time>
      </trkpt>
      <trkpt lat="47.78471" lon="-3.66347">
        <ele>20.4</ele>
        <time>2023-01-27T15:26:00Z</time>
      </trkpt>
      <trkpt lat="47.78471" lon="-3.66341">
        <ele>20</ele>
        <time>2023-01-27T15:26:01Z</time>
      </trkpt>
      <trkpt lat="47.7847" lon="-3.66334">
        <ele>19.5</ele>
        <time>2023-01-27T15:26:02Z</time>
      </trkpt>
      <trkpt lat="47.78468" lon="-3.66326">
        <ele>19</ele>
        <time>2023-01-27T15:26:03Z</time>
      </trkpt>
      <trkpt lat="47.78467" lon="-3.66319">
        <ele>18.5</ele>
        <time>2023-01-27T15:26:04Z</time>
      </trkpt>
      <trkpt lat="47.78464" lon="-3.66312">
        <ele>18.1</ele>
        <time>2023-01-27T15:26:05Z</time>
      </trkpt>
      <trkpt lat="47.78462" lon="-3.66305">
        <ele>17.6</ele>
        <time>2023-01-27T15:26:06Z</time>
      </trkpt>
      <trkpt lat="47.78458" lon="-3.663">
        <ele>17.1</ele>
        <time>2023-01-27T15:26:07Z</time>
      </trkpt>
      <trkpt lat="47.78455" lon="-3.66295">
        <ele>16.7</ele>
        <time>2023-01-27T15:26:08Z</time>
      </trkpt>
      <trkpt lat="47.78453" lon="-3.66292">
        <ele>16.4</ele>
        <time>2023-01-27T15:26:09Z</time>
      </trkpt>
      <trkpt lat="47.78446" lon="-3.66287">
        <ele>15.7</ele>
        <time>2023-01-27T15:26:10Z</time>
      </trkpt>
      <trkpt lat="47.78441" lon="-3.66284">
        <ele>15.1</ele>
        <time>2023-01-27T15:26:11Z</time>
      </trkpt>
      <trkpt lat="47.78437" lon="-3.66281">
        <ele>14.5</ele>
        <time>2023-01-27T15:26:12Z</time>
      </trkpt>
      <trkpt lat="47.78435" lon="-3.66277">
        <ele>14.1</ele>
        <time>2023-01-27T15:26:13Z</time>
      </trkpt>
      <trkpt lat="47.78434" lon="-3.66275">
        <ele>13.9</ele>
        <time>2023-01-27T15:26:14Z</time>
      </trkpt>
      <trkpt lat="47.7843" lon="-3.66268">
        <ele>13.2</ele>
        <time>2023-01-27T15:26:15Z</time>
      </trkpt>
      <trkpt lat="47.78428" lon="-3.66264">
        <ele>12.8</ele>
        <time>2023-01-27T15:26:16Z</time>
      </trkpt>
      <trkpt lat="47.78424" lon="-3.66259">
        <ele>12.3</ele>
        <time>2023-01-27T15:26:17Z</time>
      </trkpt>
      <trkpt lat="47.78422" lon="-3.66254">
        <ele>11.9</ele>
        <time>2023-01-27T15:26:18Z</time>
      </trkpt>
      <trkpt lat="47.78418" lon="-3.66251">
        <ele>11.5</ele>
        <time>2023-01-27T15:26:19Z</time>
      </trkpt>
      <trkpt lat="47.78416" lon="-3.66247">
        <ele>11.1</ele>
        <time>2023-01-27T15:26:20Z</time>
      </trkpt>
      <trkpt lat="47.78417" lon="-3.66241">
        <ele>10.8</ele>
        <time>2023-01-27T15:26:21Z</time>
      </trkpt>
      <trkpt lat="47.78416" lon="-3.66238">
        <ele>10.5</ele>
        <time>2023-01-27T15:26:23Z</time>
      </trkpt>
      <trkpt lat="47.78413" lon="-3.66234">
        <ele>10.2</ele>
        <time>2023-01-27T15:26:24Z</time>
      </trkpt>
      <trkpt lat="47.7841" lon="-3.66229">
        <ele>9.8</ele>
        <time>2023-01-27T15:26:25Z</time>
      </trkpt>
      <trkpt lat="47.78405" lon="-3.66217">
        <ele>9</ele>
        <time>2023-01-27T15:26:27Z</time>
      </trkpt>
      <trkpt lat="47.78403" lon="-3.6621">
        <ele>8.6</ele>
        <time>2023-01-27T15:26:29Z</time>
      </trkpt>
      <trkpt lat="47.78402" lon="-3.66205">
        <ele>8.5</ele>
        <time>2023-01-27T15:26:30Z</time>
      </trkpt>
      <trkpt lat="47.78402" lon="-3.66204">
        <ele>8.4</ele>
        <time>2023-01-27T15:26:31Z</time>
      </trkpt>
      <trkpt lat="47.78401" lon="-3.66199">
        <ele>8.2</ele>
        <time>2023-01-27T15:26:32Z</time>
      </trkpt>
      <trkpt lat="47.78401" lon="-3.66197">
        <ele>8.2</ele>
        <time>2023-01-27T15:26:33Z</time>
      </trkpt>
      <trkpt lat="47.78401" lon="-3.66195">
        <ele>8.1</ele>
        <time>2023-01-27T15:26:35Z</time>
      </trkpt>
      <trkpt lat="47.784" lon="-3.66194">
        <ele>8</ele>
        <time>2023-01-27T15:26:36Z</time>
      </trkpt>
      <trkpt lat="47.784" lon="-3.66193">
        <ele>8</ele>
        <time>2023-01-27T15:26:38Z</time>
      </trkpt>
      <trkpt lat="47.784" lon="-3.66193">
        <ele>8</ele>
        <time>2023-01-27T15:26:39Z</time>
      </trkpt>
      <trkpt lat="47.784" lon="-3.66193">
        <ele>8</ele>
        <time>2023-01-27T15:26:40Z</time>
      </trkpt>
      <trkpt lat="47.78399" lon="-3.66193">
        <ele>8</ele>
        <time>2023-01-27T15:26:42Z</time>
      </trkpt>
      <trkpt lat="47.78398" lon="-3.66192">
        <ele>7.9</ele>
        <time>2023-01-27T15:26:43Z</time>
      </trkpt>
      <trkpt lat="47.78395" lon="-3.6619">
        <ele>7.7</ele>
        <time>2023-01-27T15:26:45Z</time>
      </trkpt>
      <trkpt lat="47.78393" lon="-3.6619">
        <ele>7.6</ele>
        <time>2023-01-27T15:26:46Z</time>
      </trkpt>
      <trkpt lat="47.78389" lon="-3.66188">
        <ele>7.4</ele>
        <time>2023-01-27T15:26:47Z</time>
      </trkpt>
      <trkpt lat="47.78387" lon="-3.66185">
        <ele>7.3</ele>
        <time>2023-01-27T15:26:48Z</time>
      </trkpt>
      <trkpt lat="47.78382" lon="-3.66175">
        <ele>7.1</ele>
        <time>2023-01-27T15:26:49Z</time>
      </trkpt>
      <trkpt lat="47.78375" lon="-3.66168">
        <ele>7</ele>
        <time>2023-01-27T15:26:51Z</time>
      </trkpt>
      <trkpt lat="47.78372" lon="-3.66159">
        <ele>7.1</ele>
        <time>2023-01-27T15:26:53Z</time>
      </trkpt>
      <trkpt lat="47.78375" lon="-3.66153">
        <ele>7.1</ele>
        <time>2023-01-27T15:26:55Z</time>
      </trkpt>
      <trkpt lat="47.78376" lon="-3.6615">
        <ele>7.4</ele>
        <time>2023-01-27T15:26:56Z</time>
      </trkpt>
      <trkpt lat="47.78378" lon="-3.66147">
        <ele>7.4</ele>
        <time>2023-01-27T15:26:57Z</time>
      </trkpt>
      <trkpt lat="47.78381" lon="-3.66143">
        <ele>7.5</ele>
        <time>2023-01-27T15:26:59Z</time>
      </trkpt>
      <trkpt lat="47.78382" lon="-3.66141">
        <ele>7.5</ele>
        <time>2023-01-27T15:27:00Z</time>
      </trkpt>
      <trkpt lat="47.78385" lon="-3.66137">
        <ele>7.5</ele>
        <time>2023-01-27T15:27:01Z</time>
      </trkpt>
      <trkpt lat="47.78385" lon="-3.66136">
        <ele>7.5</ele>
        <time>2023-01-27T15:27:02Z</time>
      </trkpt>
      <trkpt lat="47.78386" lon="-3.66135">
        <ele>7.6</ele>
        <time>2023-01-27T15:27:03Z</time>
      </trkpt>
      <trkpt lat="47.78388" lon="-3.66132">
        <ele>7.6</ele>
        <time>2023-01-27T15:27:04Z</time>
      </trkpt>
      <trkpt lat="47.78389" lon="-3.66128">
        <ele>7.6</ele>
        <time>2023-01-27T15:27:05Z</time>
      </trkpt>
      <trkpt lat="47.78391" lon="-3.66125">
        <ele>7.7</ele>
        <time>2023-01-27T15:27:06Z</time>
      </trkpt>
      <trkpt lat="47.78393" lon="-3.6612">
        <ele>7.7</ele>
        <time>2023-01-27T15:27:08Z</time>
      </trkpt>
      <trkpt lat="47.78396" lon="-3.66115">
        <ele>7.9</ele>
        <time>2023-01-27T15:27:09Z</time>
      </trkpt>
      <trkpt lat="47.78398" lon="-3.66111">
        <ele>7.9</ele>
        <time>2023-01-27T15:27:11Z</time>
      </trkpt>
      <trkpt lat="47.78401" lon="-3.66108">
        <ele>8</ele>
        <time>2023-01-27T15:27:12Z</time>
      </trkpt>
      <trkpt lat="47.78404" lon="-3.66106">
        <ele>8.1</ele>
        <time>2023-01-27T15:27:13Z</time>
      </trkpt>
      <trkpt lat="47.78406" lon="-3.66104">
        <ele>8.2</ele>
        <time>2023-01-27T15:27:14Z</time>
      </trkpt>
      <trkpt lat="47.78409" lon="-3.66101">
        <ele>8.3</ele>
        <time>2023-01-27T15:27:15Z</time>
      </trkpt>
      <trkpt lat="47.78411" lon="-3.66099">
        <ele>8.4</ele>
        <time>2023-01-27T15:27:17Z</time>
      </trkpt>
      <trkpt lat="47.78414" lon="-3.66096">
        <ele>8.5</ele>
        <time>2023-01-27T15:27:18Z</time>
      </trkpt>
      <trkpt lat="47.78415" lon="-3.66092">
        <ele>8.6</ele>
        <time>2023-01-27T15:27:19Z</time>
      </trkpt>
      <trkpt lat="47.78417" lon="-3.66088">
        <ele>8.8</ele>
        <time>2023-01-27T15:27:20Z</time>
      </trkpt>
      <trkpt lat="47.78418" lon="-3.66086">
        <ele>8.8</ele>
        <time>2023-01-27T15:27:21Z</time>
      </trkpt>
      <trkpt lat="47.7842" lon="-3.66081">
        <ele>8.9</ele>
        <time>2023-01-27T15:27:22Z</time>
      </trkpt>
      <trkpt lat="47.78422" lon="-3.66078">
        <ele>9</ele>
        <time>2023-01-27T15:27:23Z</time>
      </trkpt>
      <trkpt lat="47.78422" lon="-3.66077">
        <ele>9.1</ele>
        <time>2023-01-27T15:27:24Z</time>
      </trkpt>
      <trkpt lat="47.78424" lon="-3.66074">
        <ele>9.2</ele>
        <time>2023-01-27T15:27:25Z</time>
      </trkpt>
      <trkpt lat="47.78428" lon="-3.66072">
        <ele>9.3</ele>
        <time>2023-01-27T15:27:26Z</time>
      </trkpt>
      <trkpt lat="47.78431" lon="-3.66069">
        <ele>9.3</ele>
        <time>2023-01-27T15:27:28Z</time>
      </trkpt>
      <trkpt lat="47.78433" lon="-3.66066">
        <ele>9.4</ele>
        <time>2023-01-27T15:27:29Z</time>
      </trkpt>
      <trkpt lat="47.78433" lon="-3.66067">
        <ele>9.4</ele>
        <time>2023-01-27T15:27:30Z</time>
      </trkpt>
      <trkpt lat="47.78434" lon="-3.66067">
        <ele>9.4</ele>
        <time>2023-01-27T15:27:31Z</time>
      </trkpt>
      <trkpt lat="47.78435" lon="-3.66067">
        <ele>9.4</ele>
        <time>2023-01-27T15:27:32Z</time>
      </trkpt>
      <trkpt lat="47.78435" lon="-3.66068">
        <ele>9.4</ele>
        <time>2023-01-27T15:27:33Z</time>
      </trkpt>
      <trkpt lat="47.78436" lon="-3.66068">
        <ele>9.4</ele>
        <time>2023-01-27T15:27:34Z</time>
      </trkpt>
      <trkpt lat="47.7844" lon="-3.66066">
        <ele>9.4</ele>
        <time>2023-01-27T15:27:35Z</time>
      </trkpt>
      <trkpt lat="47.78444" lon="-3.66064">
        <ele>9.4</ele>
        <time>2023-01-27T15:27:36Z</time>
      </trkpt>
      <trkpt lat="47.78447" lon="-3.66059">
        <ele>9.3</ele>
        <time>2023-01-27T15:27:37Z</time>
      </trkpt>
      <trkpt lat="47.78453" lon="-3.66055">
        <ele>9.2</ele>
        <time>2023-01-27T15:27:39Z</time>
      </trkpt>
      <trkpt lat="47.78456" lon="-3.66053">
        <ele>9.2</ele>
        <time>2023-01-27T15:27:40Z</time>
      </trkpt>
      <trkpt lat="47.78459" lon="-3.66049">
        <ele>9.1</ele>
        <time>2023-01-27T15:27:41Z</time>
      </trkpt>
      <trkpt lat="47.78461" lon="-3.66046">
        <ele>9.1</ele>
        <time>2023-01-27T15:27:42Z</time>
      </trkpt>
      <trkpt lat="47.78464" lon="-3.66043">
        <ele>9.1</ele>
        <time>2023-01-27T15:27:43Z</time>
      </trkpt>
      <trkpt lat="47.78467" lon="-3.66041">
        <ele>9.1</ele>
        <time>2023-01-27T15:27:44Z</time>
      </trkpt>
      <trkpt lat="47.7847" lon="-3.66038">
        <ele>9.2</ele>
        <time>2023-01-27T15:27:45Z</time>
      </trkpt>
      <trkpt lat="47.78473" lon="-3.66034">
        <ele>9.2</ele>
        <time>2023-01-27T15:27:46Z</time>
      </trkpt>
      <trkpt lat="47.78474" lon="-3.66033">
        <ele>9.3</ele>
        <time>2023-01-27T15:27:47Z</time>
      </trkpt>
      <trkpt lat="47.78476" lon="-3.66031">
        <ele>9.3</ele>
        <time>2023-01-27T15:27:48Z</time>
      </trkpt>
      <trkpt lat="47.78477" lon="-3.66031">
        <ele>9.3</ele>
        <time>2023-01-27T15:27:49Z</time>
      </trkpt>
      <trkpt lat="47.78481" lon="-3.66028">
        <ele>9.4</ele>
        <time>2023-01-27T15:27:50Z</time>
      </trkpt>
      <trkpt lat="47.78482" lon="-3.66027">
        <ele>9.4</ele>
        <time>2023-01-27T15:27:51Z</time>
      </trkpt>
      <trkpt lat="47.78485" lon="-3.66024">
        <ele>9.5</ele>
        <time>2023-01-27T15:27:52Z</time>
      </trkpt>
      <trkpt lat="47.78489" lon="-3.66021">
        <ele>9.6</ele>
        <time>2023-01-27T15:27:53Z</time>
      </trkpt>
      <trkpt lat="47.78492" lon="-3.66019">
        <ele>9.7</ele>
        <time>2023-01-27T15:27:54Z</time>
      </trkpt>
      <trkpt lat="47.78495" lon="-3.66016">
        <ele>9.8</ele>
        <time>2023-01-27T15:27:55Z</time>
      </trkpt>
      <trkpt lat="47.78496" lon="-3.66015">
        <ele>9.8</ele>
        <time>2023-01-27T15:27:56Z</time>
      </trkpt>
      <trkpt lat="47.78499" lon="-3.66014">
        <ele>9.8</ele>
        <time>2023-01-27T15:27:58Z</time>
      </trkpt>
      <trkpt lat="47.785" lon="-3.66013">
        <ele>9.8</ele>
        <time>2023-01-27T15:27:59Z</time>
      </trkpt>
      <trkpt lat="47.78504" lon="-3.66011">
        <ele>9.9</ele>
        <time>2023-01-27T15:28:00Z</time>
      </trkpt>
      <trkpt lat="47.78505" lon="-3.6601">
        <ele>9.9</ele>
        <time>2023-01-27T15:28:01Z</time>
      </trkpt>
      <trkpt lat="47.78509" lon="-3.66008">
        <ele>10</ele>
        <time>2023-01-27T15:28:02Z</time>
      </trkpt>
      <trkpt lat="47.78512" lon="-3.66006">
        <ele>10</ele>
        <time>2023-01-27T15:28:03Z</time>
      </trkpt>
      <trkpt lat="47.78514" lon="-3.66004">
        <ele>10</ele>
        <time>2023-01-27T15:28:04Z</time>
      </trkpt>
      <trkpt lat="47.78518" lon="-3.66003">
        <ele>10</ele>
        <time>2023-01-27T15:28:05Z</time>
      </trkpt>
      <trkpt lat="47.7852" lon="-3.66002">
        <ele>10</ele>
        <time>2023-01-27T15:28:06Z</time>
      </trkpt>
      <trkpt lat="47.78524" lon="-3.66001">
        <ele>10.1</ele>
        <time>2023-01-27T15:28:07Z</time>
      </trkpt>
      <trkpt lat="47.78527" lon="-3.66">
        <ele>10.1</ele>
        <time>2023-01-27T15:28:08Z</time>
      </trkpt>
      <trkpt lat="47.7853" lon="-3.65998">
        <ele>10.1</ele>
        <time>2023-01-27T15:28:09Z</time>
      </trkpt>
      <trkpt lat="47.78534" lon="-3.65995">
        <ele>10</ele>
        <time>2023-01-27T15:28:10Z</time>
      </trkpt>
      <trkpt lat="47.78536" lon="-3.65994">
        <ele>10</ele>
        <time>2023-01-27T15:28:11Z</time>
      </trkpt>
      <trkpt lat="47.78537" lon="-3.65992">
        <ele>10</ele>
        <time>2023-01-27T15:28:12Z</time>
      </trkpt>
      <trkpt lat="47.78539" lon="-3.65988">
        <ele>10</ele>
        <time>2023-01-27T15:28:13Z</time>
      </trkpt>
      <trkpt lat="47.7854" lon="-3.65986">
        <ele>10</ele>
        <time>2023-01-27T15:28:14Z</time>
      </trkpt>
      <trkpt lat="47.78541" lon="-3.65981">
        <ele>10</ele>
        <time>2023-01-27T15:28:15Z</time>
      </trkpt>
      <trkpt lat="47.78543" lon="-3.65975">
        <ele>10</ele>
        <time>2023-01-27T15:28:16Z</time>
      </trkpt>
      <trkpt lat="47.78544" lon="-3.65974">
        <ele>10</ele>
        <time>2023-01-27T15:28:17Z</time>
      </trkpt>
      <trkpt lat="47.78547" lon="-3.65974">
        <ele>10</ele>
        <time>2023-01-27T15:28:19Z</time>
      </trkpt>
      <trkpt lat="47.78551" lon="-3.65976">
        <ele>20.3</ele>
        <time>2023-01-27T15:28:20Z</time>
      </trkpt>
      <trkpt lat="47.78552" lon="-3.65977">
        <ele>20.3</ele>
        <time>2023-01-27T15:28:21Z</time>
      </trkpt>
      <trkpt lat="47.78556" lon="-3.65977">
        <ele>20.3</ele>
        <time>2023-01-27T15:28:23Z</time>
      </trkpt>
      <trkpt lat="47.78558" lon="-3.65979">
        <ele>20.3</ele>
        <time>2023-01-27T15:28:24Z</time>
      </trkpt>
      <trkpt lat="47.78562" lon="-3.65982">
        <ele>20.1</ele>
        <time>2023-01-27T15:28:26Z</time>
      </trkpt>
      <trkpt lat="47.78563" lon="-3.65984">
        <ele>20</ele>
        <time>2023-01-27T15:28:27Z</time>
      </trkpt>
      <trkpt lat="47.78564" lon="-3.65985">
        <ele>20</ele>
        <time>2023-01-27T15:28:28Z</time>
      </trkpt>
      <trkpt lat="47.78567" lon="-3.65989">
        <ele>19.9</ele>
        <time>2023-01-27T15:28:29Z</time>
      </trkpt>
      <trkpt lat="47.78569" lon="-3.65991">
        <ele>19.9</ele>
        <time>2023-01-27T15:28:31Z</time>
      </trkpt>
      <trkpt lat="47.78573" lon="-3.65994">
        <ele>19.9</ele>
        <time>2023-01-27T15:28:32Z</time>
      </trkpt>
      <trkpt lat="47.78575" lon="-3.65995">
        <ele>19.9</ele>
        <time>2023-01-27T15:28:34Z</time>
      </trkpt>
      <trkpt lat="47.78575" lon="-3.65997">
        <ele>19.9</ele>
        <time>2023-01-27T15:28:35Z</time>
      </trkpt>
      <trkpt lat="47.78576" lon="-3.65999">
        <ele>19.8</ele>
        <time>2023-01-27T15:28:36Z</time>
      </trkpt>
      <trkpt lat="47.78576" lon="-3.66001">
        <ele>19.8</ele>
        <time>2023-01-27T15:28:37Z</time>
      </trkpt>
      <trkpt lat="47.78577" lon="-3.66002">
        <ele>19.8</ele>
        <time>2023-01-27T15:28:38Z</time>
      </trkpt>
      <trkpt lat="47.78578" lon="-3.66003">
        <ele>19.8</ele>
        <time>2023-01-27T15:28:39Z</time>
      </trkpt>
      <trkpt lat="47.78579" lon="-3.66004">
        <ele>19.8</ele>
        <time>2023-01-27T15:28:40Z</time>
      </trkpt>
      <trkpt lat="47.78579" lon="-3.66004">
        <ele>19.8</ele>
        <time>2023-01-27T15:28:41Z</time>
      </trkpt>
      <trkpt lat="47.7858" lon="-3.66005">
        <ele>19.8</ele>
        <time>2023-01-27T15:28:42Z</time>
      </trkpt>
      <trkpt lat="47.7858" lon="-3.66006">
        <ele>19.8</ele>
        <time>2023-01-27T15:28:43Z</time>
      </trkpt>
      <trkpt lat="47.78581" lon="-3.66007">
        <ele>19.8</ele>
        <time>2023-01-27T15:28:45Z</time>
      </trkpt>
      <trkpt lat="47.78582" lon="-3.66007">
        <ele>19.8</ele>
        <time>2023-01-27T15:28:46Z</time>
      </trkpt>
      <trkpt lat="47.78582" lon="-3.66008">
        <ele>19.8</ele>
        <time>2023-01-27T15:28:47Z</time>
      </trkpt>
      <trkpt lat="47.78585" lon="-3.66012">
        <ele>19.8</ele>
        <time>2023-01-27T15:28:48Z</time>
      </trkpt>
      <trkpt lat="47.78585" lon="-3.66014">
        <ele>19.8</ele>
        <time>2023-01-27T15:28:49Z</time>
      </trkpt>
      <trkpt lat="47.78586" lon="-3.6602">
        <ele>19.8</ele>
        <time>2023-01-27T15:28:50Z</time>
      </trkpt>
      <trkpt lat="47.78587" lon="-3.66022">
        <ele>19.8</ele>
        <time>2023-01-27T15:28:51Z</time>
      </trkpt>
      <trkpt lat="47.78588" lon="-3.66026">
        <ele>19.9</ele>
        <time>2023-01-27T15:28:52Z</time>
      </trkpt>
      <trkpt lat="47.78589" lon="-3.66027">
        <ele>20</ele>
        <time>2023-01-27T15:28:53Z</time>
      </trkpt>
      <trkpt lat="47.7859" lon="-3.6603">
        <ele>20</ele>
        <time>2023-01-27T15:28:54Z</time>
      </trkpt>
      <trkpt lat="47.7859" lon="-3.66032">
        <ele>20.1</ele>
        <time>2023-01-27T15:28:55Z</time>
      </trkpt>
      <trkpt lat="47.78593" lon="-3.66034">
        <ele>20.3</ele>
        <time>2023-01-27T15:28:56Z</time>
      </trkpt>
      <trkpt lat="47.78594" lon="-3.66035">
        <ele>20.3</ele>
        <time>2023-01-27T15:28:57Z</time>
      </trkpt>
      <trkpt lat="47.78595" lon="-3.66036">
        <ele>20.4</ele>
        <time>2023-01-27T15:28:58Z</time>
      </trkpt>
      <trkpt lat="47.78597" lon="-3.66036">
        <ele>20.5</ele>
        <time>2023-01-27T15:28:59Z</time>
      </trkpt>
      <trkpt lat="47.786" lon="-3.66037">
        <ele>20.7</ele>
        <time>2023-01-27T15:29:00Z</time>
      </trkpt>
      <trkpt lat="47.78601" lon="-3.66037">
        <ele>20.7</ele>
        <time>2023-01-27T15:29:01Z</time>
      </trkpt>
      <trkpt lat="47.78604" lon="-3.66037">
        <ele>20.9</ele>
        <time>2023-01-27T15:29:02Z</time>
      </trkpt>
      <trkpt lat="47.78605" lon="-3.66038">
        <ele>20.9</ele>
        <time>2023-01-27T15:29:03Z</time>
      </trkpt>
      <trkpt lat="47.78607" lon="-3.66039">
        <ele>21.1</ele>
        <time>2023-01-27T15:29:04Z</time>
      </trkpt>
      <trkpt lat="47.78608" lon="-3.6604">
        <ele>21.1</ele>
        <time>2023-01-27T15:29:05Z</time>
      </trkpt>
      <trkpt lat="47.78611" lon="-3.66041">
        <ele>21.2</ele>
        <time>2023-01-27T15:29:06Z</time>
      </trkpt>
      <trkpt lat="47.78612" lon="-3.66041">
        <ele>21.2</ele>
        <time>2023-01-27T15:29:07Z</time>
      </trkpt>
      <trkpt lat="47.78614" lon="-3.66041">
        <ele>21.3</ele>
        <time>2023-01-27T15:29:08Z</time>
      </trkpt>
      <trkpt lat="47.78616" lon="-3.66041">
        <ele>21.3</ele>
        <time>2023-01-27T15:29:09Z</time>
      </trkpt>
      <trkpt lat="47.78617" lon="-3.66042">
        <ele>21.3</ele>
        <time>2023-01-27T15:29:10Z</time>
      </trkpt>
      <trkpt lat="47.78618" lon="-3.66042">
        <ele>21.3</ele>
        <time>2023-01-27T15:29:11Z</time>
      </trkpt>
      <trkpt lat="47.78618" lon="-3.66043">
        <ele>21.3</ele>
        <time>2023-01-27T15:29:12Z</time>
      </trkpt>
      <trkpt lat="47.78618" lon="-3.66043">
        <ele>21.4</ele>
        <time>2023-01-27T15:29:13Z</time>
      </trkpt>
      <trkpt lat="47.78618" lon="-3.66043">
        <ele>21.4</ele>
        <time>2023-01-27T15:29:14Z</time>
      </trkpt>
      <trkpt lat="47.78619" lon="-3.66043">
        <ele>21.4</ele>
        <time>2023-01-27T15:29:15Z</time>
      </trkpt>
      <trkpt lat="47.78619" lon="-3.66043">
        <ele>21.4</ele>
        <time>2023-01-27T15:29:16Z</time>
      </trkpt>
      <trkpt lat="47.78619" lon="-3.66043">
        <ele>21.4</ele>
        <time>2023-01-27T15:29:17Z</time>
      </trkpt>
      <trkpt lat="47.78619" lon="-3.66043">
        <ele>21.4</ele>
        <time>2023-01-27T15:29:18Z</time>
      </trkpt>
      <trkpt lat="47.78619" lon="-3.66043">
        <ele>21.4</ele>
        <time>2023-01-27T15:29:19Z</time>
      </trkpt>
      <trkpt lat="47.78619" lon="-3.66043">
        <ele>21.4</ele>
        <time>2023-01-27T15:29:20Z</time>
      </trkpt>
      <trkpt lat="47.78622" lon="-3.66043">
        <ele>21.4</ele>
        <time>2023-01-27T15:29:48Z</time>
      </trkpt>
      <trkpt lat="47.78623" lon="-3.66044">
        <ele>21.4</ele>
        <time>2023-01-27T15:29:49Z</time>
      </trkpt>
      <trkpt lat="47.78623" lon="-3.66044">
        <ele>21.4</ele>
        <time>2023-01-27T15:29:50Z</time>
      </trkpt>
      <trkpt lat="47.78623" lon="-3.66045">
        <ele>21.4</ele>
        <time>2023-01-27T15:29:51Z</time>
      </trkpt>
      <trkpt lat="47.78624" lon="-3.66046">
        <ele>21.4</ele>
        <time>2023-01-27T15:29:52Z</time>
      </trkpt>
      <trkpt lat="47.78624" lon="-3.66046">
        <ele>21.4</ele>
        <time>2023-01-27T15:29:53Z</time>
      </trkpt>
      <trkpt lat="47.78625" lon="-3.66046">
        <ele>21.4</ele>
        <time>2023-01-27T15:29:54Z</time>
      </trkpt>
      <trkpt lat="47.78625" lon="-3.66046">
        <ele>21.4</ele>
        <time>2023-01-27T15:29:55Z</time>
      </trkpt>
      <trkpt lat="47.78626" lon="-3.66045">
        <ele>21.4</ele>
        <time>2023-01-27T15:29:57Z</time>
      </trkpt>
      <trkpt lat="47.78627" lon="-3.66045">
        <ele>21.4</ele>
        <time>2023-01-27T15:29:58Z</time>
      </trkpt>
      <trkpt lat="47.78631" lon="-3.66046">
        <ele>21.3</ele>
        <time>2023-01-27T15:29:59Z</time>
      </trkpt>
      <trkpt lat="47.78632" lon="-3.66047">
        <ele>21.3</ele>
        <time>2023-01-27T15:30:00Z</time>
      </trkpt>
      <trkpt lat="47.78635" lon="-3.66048">
        <ele>21.3</ele>
        <time>2023-01-27T15:30:01Z</time>
      </trkpt>
      <trkpt lat="47.7864" lon="-3.66048">
        <ele>21.3</ele>
        <time>2023-01-27T15:30:02Z</time>
      </trkpt>
      <trkpt lat="47.78644" lon="-3.6605">
        <ele>21.4</ele>
        <time>2023-01-27T15:30:04Z</time>
      </trkpt>
      <trkpt lat="47.78645" lon="-3.6605">
        <ele>21.4</ele>
        <time>2023-01-27T15:30:05Z</time>
      </trkpt>
      <trkpt lat="47.78647" lon="-3.6605">
        <ele>21.4</ele>
        <time>2023-01-27T15:30:06Z</time>
      </trkpt>
      <trkpt lat="47.78648" lon="-3.66051">
        <ele>21.4</ele>
        <time>2023-01-27T15:30:07Z</time>
      </trkpt>
      <trkpt lat="47.78649" lon="-3.66053">
        <ele>21.5</ele>
        <time>2023-01-27T15:30:08Z</time>
      </trkpt>
      <trkpt lat="47.78652" lon="-3.66055">
        <ele>21.5</ele>
        <time>2023-01-27T15:30:09Z</time>
      </trkpt>
      <trkpt lat="47.78655" lon="-3.66057">
        <ele>21.6</ele>
        <time>2023-01-27T15:30:10Z</time>
      </trkpt>
      <trkpt lat="47.78656" lon="-3.66057">
        <ele>21.6</ele>
        <time>2023-01-27T15:30:11Z</time>
      </trkpt>
      <trkpt lat="47.78658" lon="-3.66057">
        <ele>21.6</ele>
        <time>2023-01-27T15:30:12Z</time>
      </trkpt>
      <trkpt lat="47.7866" lon="-3.66057">
        <ele>21.6</ele>
        <time>2023-01-27T15:30:13Z</time>
      </trkpt>
      <trkpt lat="47.78664" lon="-3.66057">
        <ele>21.6</ele>
        <time>2023-01-27T15:30:15Z</time>
      </trkpt>
      <trkpt lat="47.78668" lon="-3.66057">
        <ele>21.5</ele>
        <time>2023-01-27T15:30:17Z</time>
      </trkpt>
      <trkpt lat="47.78671" lon="-3.66057">
        <ele>21.4</ele>
        <time>2023-01-27T15:30:19Z</time>
      </trkpt>
      <trkpt lat="47.78675" lon="-3.66059">
        <ele>21.3</ele>
        <time>2023-01-27T15:30:20Z</time>
      </trkpt>
      <trkpt lat="47.78676" lon="-3.66059">
        <ele>21.3</ele>
        <time>2023-01-27T15:30:21Z</time>
      </trkpt>
      <trkpt lat="47.78677" lon="-3.6606">
        <ele>21.2</ele>
        <time>2023-01-27T15:30:22Z</time>
      </trkpt>
      <trkpt lat="47.78678" lon="-3.6606">
        <ele>21.2</ele>
        <time>2023-01-27T15:30:23Z</time>
      </trkpt>
      <trkpt lat="47.78681" lon="-3.6606">
        <ele>21.1</ele>
        <time>2023-01-27T15:30:24Z</time>
      </trkpt>
      <trkpt lat="47.78682" lon="-3.6606">
        <ele>21</ele>
        <time>2023-01-27T15:30:25Z</time>
      </trkpt>
      <trkpt lat="47.78689" lon="-3.66058">
        <ele>20.6</ele>
        <time>2023-01-27T15:30:26Z</time>
      </trkpt>
      <trkpt lat="47.78692" lon="-3.66059">
        <ele>20.5</ele>
        <time>2023-01-27T15:30:28Z</time>
      </trkpt>
      <trkpt lat="47.78696" lon="-3.6606">
        <ele>20.3</ele>
        <time>2023-01-27T15:30:29Z</time>
      </trkpt>
      <trkpt lat="47.78699" lon="-3.66063">
        <ele>20.2</ele>
        <time>2023-01-27T15:30:30Z</time>
      </trkpt>
      <trkpt lat="47.787" lon="-3.66064">
        <ele>20.2</ele>
        <time>2023-01-27T15:30:31Z</time>
      </trkpt>
      <trkpt lat="47.78702" lon="-3.66067">
        <ele>20.2</ele>
        <time>2023-01-27T15:30:32Z</time>
      </trkpt>
      <trkpt lat="47.78703" lon="-3.66068">
        <ele>20.3</ele>
        <time>2023-01-27T15:30:33Z</time>
      </trkpt>
      <trkpt lat="47.78705" lon="-3.66072">
        <ele>20.3</ele>
        <time>2023-01-27T15:30:34Z</time>
      </trkpt>
      <trkpt lat="47.78706" lon="-3.66073">
        <ele>20.3</ele>
        <time>2023-01-27T15:30:35Z</time>
      </trkpt>
      <trkpt lat="47.78707" lon="-3.66075">
        <ele>20.4</ele>
        <time>2023-01-27T15:30:36Z</time>
      </trkpt>
      <trkpt lat="47.78708" lon="-3.66076">
        <ele>20.4</ele>
        <time>2023-01-27T15:30:37Z</time>
      </trkpt>
      <trkpt lat="47.7871" lon="-3.66075">
        <ele>20.4</ele>
        <time>2023-01-27T15:30:38Z</time>
      </trkpt>
      <trkpt lat="47.78712" lon="-3.66074">
        <ele>20.4</ele>
        <time>2023-01-27T15:30:39Z</time>
      </trkpt>
      <trkpt lat="47.78714" lon="-3.66072">
        <ele>20.4</ele>
        <time>2023-01-27T15:30:40Z</time>
      </trkpt>
      <trkpt lat="47.78719" lon="-3.6607">
        <ele>20.3</ele>
        <time>2023-01-27T15:30:41Z</time>
      </trkpt>
      <trkpt lat="47.78722" lon="-3.6607">
        <ele>20.2</ele>
        <time>2023-01-27T15:30:42Z</time>
      </trkpt>
      <trkpt lat="47.78724" lon="-3.66071">
        <ele>20.1</ele>
        <time>2023-01-27T15:30:44Z</time>
      </trkpt>
      <trkpt lat="47.78729" lon="-3.66073">
        <ele>20</ele>
        <time>2023-01-27T15:30:45Z</time>
      </trkpt>
      <trkpt lat="47.78735" lon="-3.66075">
        <ele>19.8</ele>
        <time>2023-01-27T15:30:47Z</time>
      </trkpt>
      <trkpt lat="47.78739" lon="-3.66076">
        <ele>19.6</ele>
        <time>2023-01-27T15:30:49Z</time>
      </trkpt>
      <trkpt lat="47.78742" lon="-3.66077">
        <ele>19.5</ele>
        <time>2023-01-27T15:30:50Z</time>
      </trkpt>
      <trkpt lat="47.78745" lon="-3.66076">
        <ele>19.4</ele>
        <time>2023-01-27T15:30:51Z</time>
      </trkpt>
      <trkpt lat="47.78747" lon="-3.66073">
        <ele>19.3</ele>
        <time>2023-01-27T15:30:52Z</time>
      </trkpt>
      <trkpt lat="47.78748" lon="-3.66068">
        <ele>19.1</ele>
        <time>2023-01-27T15:30:53Z</time>
      </trkpt>
      <trkpt lat="47.78749" lon="-3.66061">
        <ele>19</ele>
        <time>2023-01-27T15:30:54Z</time>
      </trkpt>
      <trkpt lat="47.78751" lon="-3.66056">
        <ele>18.8</ele>
        <time>2023-01-27T15:30:55Z</time>
      </trkpt>
      <trkpt lat="47.78753" lon="-3.6605">
        <ele>18.7</ele>
        <time>2023-01-27T15:30:56Z</time>
      </trkpt>
      <trkpt lat="47.78756" lon="-3.66045">
        <ele>18.6</ele>
        <time>2023-01-27T15:30:57Z</time>
      </trkpt>
      <trkpt lat="47.78759" lon="-3.66043">
        <ele>18.6</ele>
        <time>2023-01-27T15:30:58Z</time>
      </trkpt>
      <trkpt lat="47.78762" lon="-3.6604">
        <ele>18.5</ele>
        <time>2023-01-27T15:30:59Z</time>
      </trkpt>
      <trkpt lat="47.78767" lon="-3.66034">
        <ele>18.4</ele>
        <time>2023-01-27T15:31:00Z</time>
      </trkpt>
      <trkpt lat="47.7877" lon="-3.66028">
        <ele>18.4</ele>
        <time>2023-01-27T15:31:01Z</time>
      </trkpt>
      <trkpt lat="47.78773" lon="-3.66024">
        <ele>18.4</ele>
        <time>2023-01-27T15:31:02Z</time>
      </trkpt>
      <trkpt lat="47.78776" lon="-3.66021">
        <ele>18.4</ele>
        <time>2023-01-27T15:31:03Z</time>
      </trkpt>
      <trkpt lat="47.78777" lon="-3.66018">
        <ele>18.5</ele>
        <time>2023-01-27T15:31:04Z</time>
      </trkpt>
      <trkpt lat="47.78777" lon="-3.66016">
        <ele>18.5</ele>
        <time>2023-01-27T15:31:05Z</time>
      </trkpt>
      <trkpt lat="47.78776" lon="-3.66012">
        <ele>18.5</ele>
        <time>2023-01-27T15:31:07Z</time>
      </trkpt>
      <trkpt lat="47.78774" lon="-3.66006">
        <ele>18.6</ele>
        <time>2023-01-27T15:31:08Z</time>
      </trkpt>
      <trkpt lat="47.78774" lon="-3.66003">
        <ele>18.7</ele>
        <time>2023-01-27T15:31:09Z</time>
      </trkpt>
      <trkpt lat="47.78775" lon="-3.65997">
        <ele>18.8</ele>
        <time>2023-01-27T15:31:11Z</time>
      </trkpt>
      <trkpt lat="47.78776" lon="-3.65993">
        <ele>18.9</ele>
        <time>2023-01-27T15:31:13Z</time>
      </trkpt>
      <trkpt lat="47.78778" lon="-3.65989">
        <ele>19.1</ele>
        <time>2023-01-27T15:31:14Z</time>
      </trkpt>
      <trkpt lat="47.78779" lon="-3.65988">
        <ele>19.1</ele>
        <time>2023-01-27T15:31:15Z</time>
      </trkpt>
      <trkpt lat="47.78781" lon="-3.65985">
        <ele>19.3</ele>
        <time>2023-01-27T15:31:16Z</time>
      </trkpt>
      <trkpt lat="47.78782" lon="-3.65984">
        <ele>19.3</ele>
        <time>2023-01-27T15:31:17Z</time>
      </trkpt>
      <trkpt lat="47.78784" lon="-3.65982">
        <ele>19.4</ele>
        <time>2023-01-27T15:31:18Z</time>
      </trkpt>
      <trkpt lat="47.78786" lon="-3.6598">
        <ele>19.5</ele>
        <time>2023-01-27T15:31:19Z</time>
      </trkpt>
      <trkpt lat="47.78789" lon="-3.65977">
        <ele>19.7</ele>
        <time>2023-01-27T15:31:21Z</time>
      </trkpt>
      <trkpt lat="47.78791" lon="-3.65974">
        <ele>19.9</ele>
        <time>2023-01-27T15:31:23Z</time>
      </trkpt>
      <trkpt lat="47.78792" lon="-3.65969">
        <ele>20.1</ele>
        <time>2023-01-27T15:31:24Z</time>
      </trkpt>
      <trkpt lat="47.78792" lon="-3.65968">
        <ele>20.2</ele>
        <time>2023-01-27T15:31:25Z</time>
      </trkpt>
      <trkpt lat="47.78793" lon="-3.65962">
        <ele>20.5</ele>
        <time>2023-01-27T15:31:26Z</time>
      </trkpt>
      <trkpt lat="47.78794" lon="-3.65961">
        <ele>20.5</ele>
        <time>2023-01-27T15:31:27Z</time>
      </trkpt>
      <trkpt lat="47.78794" lon="-3.65958">
        <ele>20.7</ele>
        <time>2023-01-27T15:31:28Z</time>
      </trkpt>
      <trkpt lat="47.78795" lon="-3.65954">
        <ele>20.9</ele>
        <time>2023-01-27T15:31:29Z</time>
      </trkpt>
      <trkpt lat="47.78796" lon="-3.65952">
        <ele>21</ele>
        <time>2023-01-27T15:31:31Z</time>
      </trkpt>
      <trkpt lat="47.78797" lon="-3.6595">
        <ele>21.1</ele>
        <time>2023-01-27T15:31:32Z</time>
      </trkpt>
      <trkpt lat="47.78798" lon="-3.65947">
        <ele>21.3</ele>
        <time>2023-01-27T15:31:33Z</time>
      </trkpt>
      <trkpt lat="47.78799" lon="-3.65942">
        <ele>21.5</ele>
        <time>2023-01-27T15:31:34Z</time>
      </trkpt>
      <trkpt lat="47.78799" lon="-3.6594">
        <ele>21.6</ele>
        <time>2023-01-27T15:31:35Z</time>
      </trkpt>
      <trkpt lat="47.78799" lon="-3.65937">
        <ele>21.8</ele>
        <time>2023-01-27T15:31:36Z</time>
      </trkpt>
      <trkpt lat="47.78799" lon="-3.65935">
        <ele>21.9</ele>
        <time>2023-01-27T15:31:37Z</time>
      </trkpt>
      <trkpt lat="47.788" lon="-3.65932">
        <ele>22.1</ele>
        <time>2023-01-27T15:31:38Z</time>
      </trkpt>
      <trkpt lat="47.788" lon="-3.65928">
        <ele>22.3</ele>
        <time>2023-01-27T15:31:40Z</time>
      </trkpt>
      <trkpt lat="47.78801" lon="-3.65926">
        <ele>22.4</ele>
        <time>2023-01-27T15:31:41Z</time>
      </trkpt>
      <trkpt lat="47.78801" lon="-3.65926">
        <ele>22.4</ele>
        <time>2023-01-27T15:31:42Z</time>
      </trkpt>
      <trkpt lat="47.78801" lon="-3.65925">
        <ele>22.5</ele>
        <time>2023-01-27T15:31:43Z</time>
      </trkpt>
      <trkpt lat="47.78802" lon="-3.65924">
        <ele>22.5</ele>
        <time>2023-01-27T15:31:44Z</time>
      </trkpt>
      <trkpt lat="47.78802" lon="-3.65924">
        <ele>22.6</ele>
        <time>2023-01-27T15:31:46Z</time>
      </trkpt>
      <trkpt lat="47.78802" lon="-3.65923">
        <ele>22.6</ele>
        <time>2023-01-27T15:31:47Z</time>
      </trkpt>
      <trkpt lat="47.78803" lon="-3.65922">
        <ele>22.7</ele>
        <time>2023-01-27T15:31:48Z</time>
      </trkpt>
      <trkpt lat="47.78803" lon="-3.65922">
        <ele>22.7</ele>
        <time>2023-01-27T15:31:49Z</time>
      </trkpt>
      <trkpt lat="47.78803" lon="-3.65921">
        <ele>22.8</ele>
        <time>2023-01-27T15:31:50Z</time>
      </trkpt>
      <trkpt lat="47.78804" lon="-3.6592">
        <ele>22.8</ele>
        <time>2023-01-27T15:31:51Z</time>
      </trkpt>
      <trkpt lat="47.78804" lon="-3.6592">
        <ele>22.9</ele>
        <time>2023-01-27T15:32:43Z</time>
      </trkpt>
      <trkpt lat="47.78804" lon="-3.65919">
        <ele>22.9</ele>
        <time>2023-01-27T15:32:44Z</time>
      </trkpt>
      <trkpt lat="47.78805" lon="-3.65918">
        <ele>23</ele>
        <time>2023-01-27T15:32:45Z</time>
      </trkpt>
      <trkpt lat="47.78805" lon="-3.65918">
        <ele>23</ele>
        <time>2023-01-27T15:32:46Z</time>
      </trkpt>
      <trkpt lat="47.78805" lon="-3.65916">
        <ele>23.2</ele>
        <time>2023-01-27T15:32:47Z</time>
      </trkpt>
      <trkpt lat="47.78805" lon="-3.65913">
        <ele>23.3</ele>
        <time>2023-01-27T15:32:48Z</time>
      </trkpt>
      <trkpt lat="47.78804" lon="-3.65909">
        <ele>23.6</ele>
        <time>2023-01-27T15:32:49Z</time>
      </trkpt>
      <trkpt lat="47.78804" lon="-3.65908">
        <ele>23.6</ele>
        <time>2023-01-27T15:32:50Z</time>
      </trkpt>
      <trkpt lat="47.78803" lon="-3.65903">
        <ele>23.9</ele>
        <time>2023-01-27T15:32:51Z</time>
      </trkpt>
      <trkpt lat="47.78803" lon="-3.65902">
        <ele>24</ele>
        <time>2023-01-27T15:32:52Z</time>
      </trkpt>
      <trkpt lat="47.78802" lon="-3.65897">
        <ele>24.3</ele>
        <time>2023-01-27T15:32:53Z</time>
      </trkpt>
      <trkpt lat="47.78802" lon="-3.65895">
        <ele>24.5</ele>
        <time>2023-01-27T15:32:54Z</time>
      </trkpt>
      <trkpt lat="47.78803" lon="-3.65892">
        <ele>24.7</ele>
        <time>2023-01-27T15:32:56Z</time>
      </trkpt>
      <trkpt lat="47.78803" lon="-3.6589">
        <ele>24.8</ele>
        <time>2023-01-27T15:32:57Z</time>
      </trkpt>
      <trkpt lat="47.78803" lon="-3.65888">
        <ele>24.9</ele>
        <time>2023-01-27T15:32:58Z</time>
      </trkpt>
      <trkpt lat="47.78804" lon="-3.65886">
        <ele>25</ele>
        <time>2023-01-27T15:32:59Z</time>
      </trkpt>
      <trkpt lat="47.78804" lon="-3.65885">
        <ele>25.1</ele>
        <time>2023-01-27T15:33:00Z</time>
      </trkpt>
      <trkpt lat="47.78804" lon="-3.65883">
        <ele>25.2</ele>
        <time>2023-01-27T15:33:01Z</time>
      </trkpt>
      <trkpt lat="47.78804" lon="-3.65882">
        <ele>25.3</ele>
        <time>2023-01-27T15:33:02Z</time>
      </trkpt>
      <trkpt lat="47.78805" lon="-3.65881">
        <ele>25.4</ele>
        <time>2023-01-27T15:33:03Z</time>
      </trkpt>
      <trkpt lat="47.78805" lon="-3.65879">
        <ele>25.5</ele>
        <time>2023-01-27T15:33:04Z</time>
      </trkpt>
      <trkpt lat="47.78806" lon="-3.65877">
        <ele>25.7</ele>
        <time>2023-01-27T15:33:05Z</time>
      </trkpt>
      <trkpt lat="47.78807" lon="-3.65875">
        <ele>25.8</ele>
        <time>2023-01-27T15:33:06Z</time>
      </trkpt>
      <trkpt lat="47.78807" lon="-3.65874">
        <ele>25.9</ele>
        <time>2023-01-27T15:33:07Z</time>
      </trkpt>
      <trkpt lat="47.78809" lon="-3.65868">
        <ele>26.2</ele>
        <time>2023-01-27T15:33:09Z</time>
      </trkpt>
      <trkpt lat="47.7881" lon="-3.65866">
        <ele>26.3</ele>
        <time>2023-01-27T15:33:10Z</time>
      </trkpt>
      <trkpt lat="47.7881" lon="-3.65863">
        <ele>26.5</ele>
        <time>2023-01-27T15:33:12Z</time>
      </trkpt>
      <trkpt lat="47.78811" lon="-3.65862">
        <ele>26.5</ele>
        <time>2023-01-27T15:33:13Z</time>
      </trkpt>
      <trkpt lat="47.78811" lon="-3.65861">
        <ele>26.6</ele>
        <time>2023-01-27T15:33:14Z</time>
      </trkpt>
      <trkpt lat="47.78811" lon="-3.65859">
        <ele>26.6</ele>
        <time>2023-01-27T15:33:15Z</time>
      </trkpt>
      <trkpt lat="47.78812" lon="-3.65858">
        <ele>26.7</ele>
        <time>2023-01-27T15:33:16Z</time>
      </trkpt>
      <trkpt lat="47.78813" lon="-3.65856">
        <ele>26.7</ele>
        <time>2023-01-27T15:33:17Z</time>
      </trkpt>
      <trkpt lat="47.78813" lon="-3.65856">
        <ele>26.8</ele>
        <time>2023-01-27T15:33:18Z</time>
      </trkpt>
      <trkpt lat="47.78812" lon="-3.65855">
        <ele>26.8</ele>
        <time>2023-01-27T15:33:19Z</time>
      </trkpt>
      <trkpt lat="47.78812" lon="-3.65855">
        <ele>26.8</ele>
        <time>2023-01-27T15:33:20Z</time>
      </trkpt>
      <trkpt lat="47.78812" lon="-3.65855">
        <ele>26.8</ele>
        <time>2023-01-27T15:33:21Z</time>
      </trkpt>
      <trkpt lat="47.78812" lon="-3.65854">
        <ele>26.8</ele>
        <time>2023-01-27T15:33:22Z</time>
      </trkpt>
      <trkpt lat="47.78813" lon="-3.65846">
        <ele>27</ele>
        <time>2023-01-27T15:33:24Z</time>
      </trkpt>
      <trkpt lat="47.78814" lon="-3.65842">
        <ele>27.1</ele>
        <time>2023-01-27T15:33:25Z</time>
      </trkpt>
      <trkpt lat="47.78815" lon="-3.65838">
        <ele>27.2</ele>
        <time>2023-01-27T15:33:27Z</time>
      </trkpt>
      <trkpt lat="47.78815" lon="-3.65836">
        <ele>27.2</ele>
        <time>2023-01-27T15:33:28Z</time>
      </trkpt>
      <trkpt lat="47.78816" lon="-3.65832">
        <ele>27.3</ele>
        <time>2023-01-27T15:33:29Z</time>
      </trkpt>
      <trkpt lat="47.78816" lon="-3.6583">
        <ele>27.3</ele>
        <time>2023-01-27T15:33:30Z</time>
      </trkpt>
      <trkpt lat="47.78817" lon="-3.65825">
        <ele>27.4</ele>
        <time>2023-01-27T15:33:31Z</time>
      </trkpt>
      <trkpt lat="47.78818" lon="-3.65824">
        <ele>27.5</ele>
        <time>2023-01-27T15:33:32Z</time>
      </trkpt>
      <trkpt lat="47.78819" lon="-3.6582">
        <ele>27.5</ele>
        <time>2023-01-27T15:33:33Z</time>
      </trkpt>
      <trkpt lat="47.7882" lon="-3.65815">
        <ele>27.7</ele>
        <time>2023-01-27T15:33:34Z</time>
      </trkpt>
      <trkpt lat="47.7882" lon="-3.65813">
        <ele>27.7</ele>
        <time>2023-01-27T15:33:35Z</time>
      </trkpt>
      <trkpt lat="47.78821" lon="-3.6581">
        <ele>27.8</ele>
        <time>2023-01-27T15:33:36Z</time>
      </trkpt>
      <trkpt lat="47.78823" lon="-3.65804">
        <ele>27.9</ele>
        <time>2023-01-27T15:33:37Z</time>
      </trkpt>
      <trkpt lat="47.78824" lon="-3.65803">
        <ele>28</ele>
        <time>2023-01-27T15:33:38Z</time>
      </trkpt>
      <trkpt lat="47.78824" lon="-3.65798">
        <ele>28</ele>
        <time>2023-01-27T15:33:39Z</time>
      </trkpt>
      <trkpt lat="47.78826" lon="-3.65794">
        <ele>28.2</ele>
        <time>2023-01-27T15:33:40Z</time>
      </trkpt>
      <trkpt lat="47.78828" lon="-3.6579">
        <ele>28.3</ele>
        <time>2023-01-27T15:33:41Z</time>
      </trkpt>
      <trkpt lat="47.78828" lon="-3.65785">
        <ele>28.4</ele>
        <time>2023-01-27T15:33:42Z</time>
      </trkpt>
      <trkpt lat="47.78829" lon="-3.65781">
        <ele>28.5</ele>
        <time>2023-01-27T15:33:43Z</time>
      </trkpt>
      <trkpt lat="47.78831" lon="-3.65772">
        <ele>28.6</ele>
        <time>2023-01-27T15:33:44Z</time>
      </trkpt>
      <trkpt lat="47.78832" lon="-3.65769">
        <ele>28.7</ele>
        <time>2023-01-27T15:33:45Z</time>
      </trkpt>
      <trkpt lat="47.78834" lon="-3.6576">
        <ele>28.9</ele>
        <time>2023-01-27T15:33:47Z</time>
      </trkpt>
      <trkpt lat="47.78836" lon="-3.65756">
        <ele>29</ele>
        <time>2023-01-27T15:33:48Z</time>
      </trkpt>
      <trkpt lat="47.78837" lon="-3.65752">
        <ele>29.1</ele>
        <time>2023-01-27T15:33:50Z</time>
      </trkpt>
      <trkpt lat="47.78837" lon="-3.65748">
        <ele>29.2</ele>
        <time>2023-01-27T15:33:51Z</time>
      </trkpt>
      <trkpt lat="47.78838" lon="-3.65743">
        <ele>29.3</ele>
        <time>2023-01-27T15:33:52Z</time>
      </trkpt>
      <trkpt lat="47.78841" lon="-3.65735">
        <ele>29.4</ele>
        <time>2023-01-27T15:33:53Z</time>
      </trkpt>
      <trkpt lat="47.78843" lon="-3.65731">
        <ele>29.5</ele>
        <time>2023-01-27T15:33:54Z</time>
      </trkpt>
      <trkpt lat="47.78845" lon="-3.65726">
        <ele>29.7</ele>
        <time>2023-01-27T15:33:56Z</time>
      </trkpt>
      <trkpt lat="47.78848" lon="-3.65717">
        <ele>29.8</ele>
        <time>2023-01-27T15:33:57Z</time>
      </trkpt>
      <trkpt lat="47.7885" lon="-3.65712">
        <ele>30</ele>
        <time>2023-01-27T15:33:59Z</time>
      </trkpt>
      <trkpt lat="47.78852" lon="-3.65708">
        <ele>30</ele>
        <time>2023-01-27T15:34:00Z</time>
      </trkpt>
      <trkpt lat="47.78854" lon="-3.65704">
        <ele>30.1</ele>
        <time>2023-01-27T15:34:01Z</time>
      </trkpt>
      <trkpt lat="47.78855" lon="-3.65699">
        <ele>30.2</ele>
        <time>2023-01-27T15:34:02Z</time>
      </trkpt>
      <trkpt lat="47.78858" lon="-3.65694">
        <ele>30.2</ele>
        <time>2023-01-27T15:34:03Z</time>
      </trkpt>
      <trkpt lat="47.7886" lon="-3.65684">
        <ele>30.3</ele>
        <time>2023-01-27T15:34:04Z</time>
      </trkpt>
      <trkpt lat="47.78862" lon="-3.65678">
        <ele>30.4</ele>
        <time>2023-01-27T15:34:06Z</time>
      </trkpt>
      <trkpt lat="47.78864" lon="-3.65674">
        <ele>30.4</ele>
        <time>2023-01-27T15:34:07Z</time>
      </trkpt>
      <trkpt lat="47.78865" lon="-3.65668">
        <ele>30.4</ele>
        <time>2023-01-27T15:34:08Z</time>
      </trkpt>
      <trkpt lat="47.78867" lon="-3.65663">
        <ele>30.5</ele>
        <time>2023-01-27T15:34:09Z</time>
      </trkpt>
      <trkpt lat="47.78869" lon="-3.65658">
        <ele>30.5</ele>
        <time>2023-01-27T15:34:10Z</time>
      </trkpt>
      <trkpt lat="47.78871" lon="-3.65653">
        <ele>30.5</ele>
        <time>2023-01-27T15:34:11Z</time>
      </trkpt>
      <trkpt lat="47.78873" lon="-3.65647">
        <ele>30.5</ele>
        <time>2023-01-27T15:34:12Z</time>
      </trkpt>
      <trkpt lat="47.78874" lon="-3.65642">
        <ele>30.5</ele>
        <time>2023-01-27T15:34:13Z</time>
      </trkpt>
      <trkpt lat="47.78875" lon="-3.65637">
        <ele>30.5</ele>
        <time>2023-01-27T15:34:14Z</time>
      </trkpt>
      <trkpt lat="47.78878" lon="-3.65631">
        <ele>30.5</ele>
        <time>2023-01-27T15:34:15Z</time>
      </trkpt>
      <trkpt lat="47.7888" lon="-3.65627">
        <ele>30.5</ele>
        <time>2023-01-27T15:34:16Z</time>
      </trkpt>
      <trkpt lat="47.78883" lon="-3.65622">
        <ele>30.6</ele>
        <time>2023-01-27T15:34:17Z</time>
      </trkpt>
      <trkpt lat="47.78885" lon="-3.65617">
        <ele>30.6</ele>
        <time>2023-01-27T15:34:18Z</time>
      </trkpt>
      <trkpt lat="47.78888" lon="-3.65612">
        <ele>30.6</ele>
        <time>2023-01-27T15:34:19Z</time>
      </trkpt>
      <trkpt lat="47.78891" lon="-3.65608">
        <ele>30.6</ele>
        <time>2023-01-27T15:34:20Z</time>
      </trkpt>
      <trkpt lat="47.78894" lon="-3.65604">
        <ele>30.6</ele>
        <time>2023-01-27T15:34:21Z</time>
      </trkpt>
      <trkpt lat="47.78898" lon="-3.65595">
        <ele>30.6</ele>
        <time>2023-01-27T15:34:22Z</time>
      </trkpt>
      <trkpt lat="47.78897" lon="-3.65589">
        <ele>30.3</ele>
        <time>2023-01-27T15:34:24Z</time>
      </trkpt>
      <trkpt lat="47.78895" lon="-3.65585">
        <ele>30.1</ele>
        <time>2023-01-27T15:34:25Z</time>
      </trkpt>
      <trkpt lat="47.78891" lon="-3.65581">
        <ele>29.9</ele>
        <time>2023-01-27T15:34:26Z</time>
      </trkpt>
      <trkpt lat="47.78887" lon="-3.65577">
        <ele>29.6</ele>
        <time>2023-01-27T15:34:27Z</time>
      </trkpt>
      <trkpt lat="47.78882" lon="-3.65574">
        <ele>29.4</ele>
        <time>2023-01-27T15:34:28Z</time>
      </trkpt>
      <trkpt lat="47.78876" lon="-3.65572">
        <ele>29.2</ele>
        <time>2023-01-27T15:34:29Z</time>
      </trkpt>
      <trkpt lat="47.78871" lon="-3.65573">
        <ele>29</ele>
        <time>2023-01-27T15:34:30Z</time>
      </trkpt>
      <trkpt lat="47.78866" lon="-3.65573">
        <ele>28.9</ele>
        <time>2023-01-27T15:34:31Z</time>
      </trkpt>
      <trkpt lat="47.78861" lon="-3.65572">
        <ele>28.7</ele>
        <time>2023-01-27T15:34:32Z</time>
      </trkpt>
      <trkpt lat="47.78858" lon="-3.65568">
        <ele>28.5</ele>
        <time>2023-01-27T15:34:33Z</time>
      </trkpt>
      <trkpt lat="47.78855" lon="-3.65563">
        <ele>28.3</ele>
        <time>2023-01-27T15:34:34Z</time>
      </trkpt>
      <trkpt lat="47.78852" lon="-3.65557">
        <ele>28.1</ele>
        <time>2023-01-27T15:34:35Z</time>
      </trkpt>
      <trkpt lat="47.78849" lon="-3.65552">
        <ele>27.9</ele>
        <time>2023-01-27T15:34:36Z</time>
      </trkpt>
      <trkpt lat="47.78845" lon="-3.65546">
        <ele>27.7</ele>
        <time>2023-01-27T15:34:37Z</time>
      </trkpt>
      <trkpt lat="47.78842" lon="-3.65541">
        <ele>27.5</ele>
        <time>2023-01-27T15:34:38Z</time>
      </trkpt>
      <trkpt lat="47.78838" lon="-3.65537">
        <ele>27.3</ele>
        <time>2023-01-27T15:34:39Z</time>
      </trkpt>
      <trkpt lat="47.78835" lon="-3.65532">
        <ele>27</ele>
        <time>2023-01-27T15:34:40Z</time>
      </trkpt>
      <trkpt lat="47.78832" lon="-3.65527">
        <ele>26.8</ele>
        <time>2023-01-27T15:34:41Z</time>
      </trkpt>
      <trkpt lat="47.78828" lon="-3.65521">
        <ele>26.5</ele>
        <time>2023-01-27T15:34:42Z</time>
      </trkpt>
      <trkpt lat="47.78825" lon="-3.65515">
        <ele>26.2</ele>
        <time>2023-01-27T15:34:43Z</time>
      </trkpt>
      <trkpt lat="47.78823" lon="-3.65509">
        <ele>26</ele>
        <time>2023-01-27T15:34:44Z</time>
      </trkpt>
      <trkpt lat="47.78823" lon="-3.65503">
        <ele>25.7</ele>
        <time>2023-01-27T15:34:45Z</time>
      </trkpt>
      <trkpt lat="47.78824" lon="-3.65496">
        <ele>25.5</ele>
        <time>2023-01-27T15:34:46Z</time>
      </trkpt>
      <trkpt lat="47.78824" lon="-3.65493">
        <ele>25.4</ele>
        <time>2023-01-27T15:34:47Z</time>
      </trkpt>
      <trkpt lat="47.78824" lon="-3.65487">
        <ele>25.1</ele>
        <time>2023-01-27T15:34:48Z</time>
      </trkpt>
      <trkpt lat="47.78824" lon="-3.6548">
        <ele>24.8</ele>
        <time>2023-01-27T15:34:49Z</time>
      </trkpt>
      <trkpt lat="47.78823" lon="-3.65471">
        <ele>24.5</ele>
        <time>2023-01-27T15:34:50Z</time>
      </trkpt>
      <trkpt lat="47.78823" lon="-3.65462">
        <ele>24.2</ele>
        <time>2023-01-27T15:34:51Z</time>
      </trkpt>
      <trkpt lat="47.78824" lon="-3.65453">
        <ele>24</ele>
        <time>2023-01-27T15:34:52Z</time>
      </trkpt>
      <trkpt lat="47.78825" lon="-3.65445">
        <ele>23.8</ele>
        <time>2023-01-27T15:34:53Z</time>
      </trkpt>
      <trkpt lat="47.78827" lon="-3.65437">
        <ele>23.6</ele>
        <time>2023-01-27T15:34:54Z</time>
      </trkpt>
      <trkpt lat="47.7883" lon="-3.65429">
        <ele>23.5</ele>
        <time>2023-01-27T15:34:55Z</time>
      </trkpt>
      <trkpt lat="47.78832" lon="-3.65422">
        <ele>23.4</ele>
        <time>2023-01-27T15:34:56Z</time>
      </trkpt>
      <trkpt lat="47.78834" lon="-3.65415">
        <ele>23.4</ele>
        <time>2023-01-27T15:34:57Z</time>
      </trkpt>
      <trkpt lat="47.78836" lon="-3.65407">
        <ele>23.4</ele>
        <time>2023-01-27T15:34:58Z</time>
      </trkpt>
      <trkpt lat="47.78839" lon="-3.65401">
        <ele>23.4</ele>
        <time>2023-01-27T15:34:59Z</time>
      </trkpt>
      <trkpt lat="47.7884" lon="-3.65395">
        <ele>23.4</ele>
        <time>2023-01-27T15:35:00Z</time>
      </trkpt>
      <trkpt lat="47.78842" lon="-3.65391">
        <ele>23.4</ele>
        <time>2023-01-27T15:35:01Z</time>
      </trkpt>
      <trkpt lat="47.78842" lon="-3.65388">
        <ele>23.4</ele>
        <time>2023-01-27T15:35:02Z</time>
      </trkpt>
      <trkpt lat="47.78845" lon="-3.65381">
        <ele>23.4</ele>
        <time>2023-01-27T15:35:03Z</time>
      </trkpt>
      <trkpt lat="47.78849" lon="-3.65376">
        <ele>23.4</ele>
        <time>2023-01-27T15:35:04Z</time>
      </trkpt>
      <trkpt lat="47.78852" lon="-3.6537">
        <ele>23.4</ele>
        <time>2023-01-27T15:35:05Z</time>
      </trkpt>
      <trkpt lat="47.78854" lon="-3.65364">
        <ele>23.5</ele>
        <time>2023-01-27T15:35:06Z</time>
      </trkpt>
      <trkpt lat="47.78856" lon="-3.6536">
        <ele>23.5</ele>
        <time>2023-01-27T15:35:07Z</time>
      </trkpt>
      <trkpt lat="47.78859" lon="-3.65353">
        <ele>23.5</ele>
        <time>2023-01-27T15:35:08Z</time>
      </trkpt>
      <trkpt lat="47.7886" lon="-3.65347">
        <ele>23.5</ele>
        <time>2023-01-27T15:35:09Z</time>
      </trkpt>
      <trkpt lat="47.78863" lon="-3.65341">
        <ele>23.5</ele>
        <time>2023-01-27T15:35:10Z</time>
      </trkpt>
      <trkpt lat="47.78865" lon="-3.65338">
        <ele>23.5</ele>
        <time>2023-01-27T15:35:11Z</time>
      </trkpt>
      <trkpt lat="47.78868" lon="-3.6533">
        <ele>23.4</ele>
        <time>2023-01-27T15:35:12Z</time>
      </trkpt>
      <trkpt lat="47.7887" lon="-3.65323">
        <ele>23.3</ele>
        <time>2023-01-27T15:35:14Z</time>
      </trkpt>
      <trkpt lat="47.78875" lon="-3.65319">
        <ele>23.1</ele>
        <time>2023-01-27T15:35:15Z</time>
      </trkpt>
      <trkpt lat="47.78878" lon="-3.65313">
        <ele>22.8</ele>
        <time>2023-01-27T15:35:16Z</time>
      </trkpt>
      <trkpt lat="47.7888" lon="-3.65307">
        <ele>22.4</ele>
        <time>2023-01-27T15:35:17Z</time>
      </trkpt>
      <trkpt lat="47.78881" lon="-3.65302">
        <ele>21.4</ele>
        <time>2023-01-27T15:35:19Z</time>
      </trkpt>
      <trkpt lat="47.7888" lon="-3.653">
        <ele>21.3</ele>
        <time>2023-01-27T15:35:20Z</time>
      </trkpt>
      <trkpt lat="47.78877" lon="-3.65298">
        <ele>21.2</ele>
        <time>2023-01-27T15:35:21Z</time>
      </trkpt>
      <trkpt lat="47.78875" lon="-3.65293">
        <ele>21</ele>
        <time>2023-01-27T15:35:23Z</time>
      </trkpt>
      <trkpt lat="47.78875" lon="-3.6529">
        <ele>20.9</ele>
        <time>2023-01-27T15:35:24Z</time>
      </trkpt>
      <trkpt lat="47.78875" lon="-3.65286">
        <ele>20.8</ele>
        <time>2023-01-27T15:35:26Z</time>
      </trkpt>
      <trkpt lat="47.78874" lon="-3.6528">
        <ele>20.8</ele>
        <time>2023-01-27T15:35:27Z</time>
      </trkpt>
      <trkpt lat="47.78874" lon="-3.65278">
        <ele>20.8</ele>
        <time>2023-01-27T15:35:28Z</time>
      </trkpt>
      <trkpt lat="47.78876" lon="-3.65272">
        <ele>20.8</ele>
        <time>2023-01-27T15:35:30Z</time>
      </trkpt>
      <trkpt lat="47.78875" lon="-3.65272">
        <ele>20.8</ele>
        <time>2023-01-27T15:35:32Z</time>
      </trkpt>
      <trkpt lat="47.78875" lon="-3.65272">
        <ele>20.8</ele>
        <time>2023-01-27T15:35:34Z</time>
      </trkpt>
      <trkpt lat="47.78874" lon="-3.65272">
        <ele>20.8</ele>
        <time>2023-01-27T15:35:35Z</time>
      </trkpt>
      <trkpt lat="47.78873" lon="-3.65271">
        <ele>20.8</ele>
        <time>2023-01-27T15:35:36Z</time>
      </trkpt>
      <trkpt lat="47.78872" lon="-3.65269">
        <ele>20.8</ele>
        <time>2023-01-27T15:35:37Z</time>
      </trkpt>
      <trkpt lat="47.78872" lon="-3.65268">
        <ele>20.8</ele>
        <time>2023-01-27T15:35:38Z</time>
      </trkpt>
      <trkpt lat="47.78871" lon="-3.65268">
        <ele>20.8</ele>
        <time>2023-01-27T15:35:39Z</time>
      </trkpt>
      <trkpt lat="47.78869" lon="-3.65269">
        <ele>20.8</ele>
        <time>2023-01-27T15:35:40Z</time>
      </trkpt>
      <trkpt lat="47.78868" lon="-3.65269">
        <ele>20.9</ele>
        <time>2023-01-27T15:35:41Z</time>
      </trkpt>
      <trkpt lat="47.78867" lon="-3.65269">
        <ele>20.9</ele>
        <time>2023-01-27T15:35:42Z</time>
      </trkpt>
      <trkpt lat="47.78866" lon="-3.65269">
        <ele>20.9</ele>
        <time>2023-01-27T15:35:44Z</time>
      </trkpt>
      <trkpt lat="47.78865" lon="-3.65269">
        <ele>21</ele>
        <time>2023-01-27T15:35:45Z</time>
      </trkpt>
      <trkpt lat="47.78864" lon="-3.65269">
        <ele>21</ele>
        <time>2023-01-27T15:35:46Z</time>
      </trkpt>
      <trkpt lat="47.78862" lon="-3.65271">
        <ele>21.1</ele>
        <time>2023-01-27T15:35:47Z</time>
      </trkpt>
      <trkpt lat="47.78861" lon="-3.65271">
        <ele>21.1</ele>
        <time>2023-01-27T15:35:48Z</time>
      </trkpt>
      <trkpt lat="47.7886" lon="-3.65272">
        <ele>21.2</ele>
        <time>2023-01-27T15:35:49Z</time>
      </trkpt>
      <trkpt lat="47.78859" lon="-3.65273">
        <ele>21.3</ele>
        <time>2023-01-27T15:35:50Z</time>
      </trkpt>
      <trkpt lat="47.78857" lon="-3.65274">
        <ele>21.4</ele>
        <time>2023-01-27T15:35:51Z</time>
      </trkpt>
      <trkpt lat="47.78855" lon="-3.65274">
        <ele>21.6</ele>
        <time>2023-01-27T15:35:52Z</time>
      </trkpt>
      <trkpt lat="47.78854" lon="-3.65274">
        <ele>21.7</ele>
        <time>2023-01-27T15:35:53Z</time>
      </trkpt>
      <trkpt lat="47.78852" lon="-3.65274">
        <ele>21.9</ele>
        <time>2023-01-27T15:35:54Z</time>
      </trkpt>
      <trkpt lat="47.78852" lon="-3.65274">
        <ele>21.9</ele>
        <time>2023-01-27T15:35:55Z</time>
      </trkpt>
      <trkpt lat="47.78851" lon="-3.65274">
        <ele>22</ele>
        <time>2023-01-27T15:35:56Z</time>
      </trkpt>
      <trkpt lat="47.78851" lon="-3.65274">
        <ele>22.1</ele>
        <time>2023-01-27T15:35:57Z</time>
      </trkpt>
      <trkpt lat="47.7885" lon="-3.65275">
        <ele>22.2</ele>
        <time>2023-01-27T15:35:58Z</time>
      </trkpt>
      <trkpt lat="47.78849" lon="-3.65275">
        <ele>22.3</ele>
        <time>2023-01-27T15:35:59Z</time>
      </trkpt>
      <trkpt lat="47.78848" lon="-3.65275">
        <ele>22.4</ele>
        <time>2023-01-27T15:36:00Z</time>
      </trkpt>
      <trkpt lat="47.78848" lon="-3.65274">
        <ele>22.5</ele>
        <time>2023-01-27T15:36:01Z</time>
      </trkpt>
      <trkpt lat="47.78847" lon="-3.65273">
        <ele>22.6</ele>
        <time>2023-01-27T15:36:02Z</time>
      </trkpt>
      <trkpt lat="47.78847" lon="-3.65272">
        <ele>22.7</ele>
        <time>2023-01-27T15:36:03Z</time>
      </trkpt>
      <trkpt lat="47.78846" lon="-3.65271">
        <ele>22.8</ele>
        <time>2023-01-27T15:36:04Z</time>
      </trkpt>
      <trkpt lat="47.78846" lon="-3.6527">
        <ele>22.9</ele>
        <time>2023-01-27T15:36:05Z</time>
      </trkpt>
      <trkpt lat="47.78845" lon="-3.65268">
        <ele>23.2</ele>
        <time>2023-01-27T15:36:06Z</time>
      </trkpt>
      <trkpt lat="47.78845" lon="-3.65267">
        <ele>23.3</ele>
        <time>2023-01-27T15:36:07Z</time>
      </trkpt>
      <trkpt lat="47.78844" lon="-3.65266">
        <ele>23.4</ele>
        <time>2023-01-27T15:36:08Z</time>
      </trkpt>
      <trkpt lat="47.78844" lon="-3.65265">
        <ele>23.6</ele>
        <time>2023-01-27T15:36:09Z</time>
      </trkpt>
      <trkpt lat="47.78843" lon="-3.65263">
        <ele>23.8</ele>
        <time>2023-01-27T15:36:11Z</time>
      </trkpt>
      <trkpt lat="47.78842" lon="-3.65261">
        <ele>24</ele>
        <time>2023-01-27T15:36:13Z</time>
      </trkpt>
      <trkpt lat="47.78842" lon="-3.65258">
        <ele>24.3</ele>
        <time>2023-01-27T15:36:14Z</time>
      </trkpt>
      <trkpt lat="47.78841" lon="-3.65257">
        <ele>24.4</ele>
        <time>2023-01-27T15:36:15Z</time>
      </trkpt>
      <trkpt lat="47.78841" lon="-3.65256">
        <ele>24.5</ele>
        <time>2023-01-27T15:36:16Z</time>
      </trkpt>
      <trkpt lat="47.78841" lon="-3.65254">
        <ele>24.7</ele>
        <time>2023-01-27T15:36:17Z</time>
      </trkpt>
      <trkpt lat="47.7884" lon="-3.65253">
        <ele>24.8</ele>
        <time>2023-01-27T15:36:18Z</time>
      </trkpt>
      <trkpt lat="47.7884" lon="-3.6525">
        <ele>25</ele>
        <time>2023-01-27T15:36:19Z</time>
      </trkpt>
      <trkpt lat="47.78839" lon="-3.65248">
        <ele>25.2</ele>
        <time>2023-01-27T15:36:21Z</time>
      </trkpt>
      <trkpt lat="47.78838" lon="-3.65242">
        <ele>25.6</ele>
        <time>2023-01-27T15:36:22Z</time>
      </trkpt>
      <trkpt lat="47.78837" lon="-3.65239">
        <ele>25.9</ele>
        <time>2023-01-27T15:36:24Z</time>
      </trkpt>
      <trkpt lat="47.78836" lon="-3.65235">
        <ele>26.1</ele>
        <time>2023-01-27T15:36:26Z</time>
      </trkpt>
      <trkpt lat="47.78835" lon="-3.65232">
        <ele>26.3</ele>
        <time>2023-01-27T15:36:27Z</time>
      </trkpt>
      <trkpt lat="47.78833" lon="-3.65228">
        <ele>26.5</ele>
        <time>2023-01-27T15:36:28Z</time>
      </trkpt>
      <trkpt lat="47.78833" lon="-3.65226">
        <ele>26.7</ele>
        <time>2023-01-27T15:36:29Z</time>
      </trkpt>
      <trkpt lat="47.78832" lon="-3.65222">
        <ele>26.9</ele>
        <time>2023-01-27T15:36:31Z</time>
      </trkpt>
      <trkpt lat="47.78831" lon="-3.65215">
        <ele>27.2</ele>
        <time>2023-01-27T15:36:32Z</time>
      </trkpt>
      <trkpt lat="47.78829" lon="-3.6521">
        <ele>27.4</ele>
        <time>2023-01-27T15:36:33Z</time>
      </trkpt>
      <trkpt lat="47.78829" lon="-3.65208">
        <ele>27.5</ele>
        <time>2023-01-27T15:36:34Z</time>
      </trkpt>
      <trkpt lat="47.78828" lon="-3.65205">
        <ele>27.7</ele>
        <time>2023-01-27T15:36:35Z</time>
      </trkpt>
      <trkpt lat="47.78827" lon="-3.65202">
        <ele>27.9</ele>
        <time>2023-01-27T15:36:37Z</time>
      </trkpt>
      <trkpt lat="47.78825" lon="-3.65199">
        <ele>28.1</ele>
        <time>2023-01-27T15:36:38Z</time>
      </trkpt>
      <trkpt lat="47.78824" lon="-3.65198">
        <ele>28.2</ele>
        <time>2023-01-27T15:36:39Z</time>
      </trkpt>
      <trkpt lat="47.78822" lon="-3.65194">
        <ele>28.4</ele>
        <time>2023-01-27T15:36:40Z</time>
      </trkpt>
      <trkpt lat="47.78821" lon="-3.65192">
        <ele>28.5</ele>
        <time>2023-01-27T15:36:41Z</time>
      </trkpt>
      <trkpt lat="47.7882" lon="-3.65188">
        <ele>28.8</ele>
        <time>2023-01-27T15:36:42Z</time>
      </trkpt>
      <trkpt lat="47.78819" lon="-3.65187">
        <ele>28.9</ele>
        <time>2023-01-27T15:36:43Z</time>
      </trkpt>
      <trkpt lat="47.78819" lon="-3.65185">
        <ele>29</ele>
        <time>2023-01-27T15:36:44Z</time>
      </trkpt>
      <trkpt lat="47.78818" lon="-3.65182">
        <ele>29.2</ele>
        <time>2023-01-27T15:36:45Z</time>
      </trkpt>
      <trkpt lat="47.78816" lon="-3.65178">
        <ele>29.5</ele>
        <time>2023-01-27T15:36:46Z</time>
      </trkpt>
      <trkpt lat="47.78815" lon="-3.65177">
        <ele>29.6</ele>
        <time>2023-01-27T15:36:47Z</time>
      </trkpt>
      <trkpt lat="47.78814" lon="-3.65178">
        <ele>29.8</ele>
        <time>2023-01-27T15:36:48Z</time>
      </trkpt>
      <trkpt lat="47.78813" lon="-3.6518">
        <ele>29.9</ele>
        <time>2023-01-27T15:36:49Z</time>
      </trkpt>
      <trkpt lat="47.78813" lon="-3.65182">
        <ele>30</ele>
        <time>2023-01-27T15:36:50Z</time>
      </trkpt>
      <trkpt lat="47.78813" lon="-3.65183">
        <ele>30.1</ele>
        <time>2023-01-27T15:36:51Z</time>
      </trkpt>
      <trkpt lat="47.78812" lon="-3.65184">
        <ele>30.2</ele>
        <time>2023-01-27T15:36:52Z</time>
      </trkpt>
      <trkpt lat="47.78811" lon="-3.65184">
        <ele>30.4</ele>
        <time>2023-01-27T15:36:53Z</time>
      </trkpt>
      <trkpt lat="47.7881" lon="-3.65185">
        <ele>30.5</ele>
        <time>2023-01-27T15:36:54Z</time>
      </trkpt>
      <trkpt lat="47.78809" lon="-3.65186">
        <ele>30.6</ele>
        <time>2023-01-27T15:36:55Z</time>
      </trkpt>
      <trkpt lat="47.78806" lon="-3.65188">
        <ele>30.9</ele>
        <time>2023-01-27T15:36:56Z</time>
      </trkpt>
      <trkpt lat="47.78805" lon="-3.65189">
        <ele>31</ele>
        <time>2023-01-27T15:36:57Z</time>
      </trkpt>
      <trkpt lat="47.78804" lon="-3.65191">
        <ele>31.2</ele>
        <time>2023-01-27T15:36:58Z</time>
      </trkpt>
      <trkpt lat="47.78803" lon="-3.65193">
        <ele>31.4</ele>
        <time>2023-01-27T15:36:59Z</time>
      </trkpt>
      <trkpt lat="47.788" lon="-3.65194">
        <ele>31.6</ele>
        <time>2023-01-27T15:37:00Z</time>
      </trkpt>
      <trkpt lat="47.78799" lon="-3.65193">
        <ele>31.7</ele>
        <time>2023-01-27T15:37:01Z</time>
      </trkpt>
      <trkpt lat="47.78797" lon="-3.65192">
        <ele>31.8</ele>
        <time>2023-01-27T15:37:02Z</time>
      </trkpt>
      <trkpt lat="47.78796" lon="-3.65193">
        <ele>31.9</ele>
        <time>2023-01-27T15:37:03Z</time>
      </trkpt>
      <trkpt lat="47.78794" lon="-3.65192">
        <ele>32</ele>
        <time>2023-01-27T15:37:04Z</time>
      </trkpt>
      <trkpt lat="47.78793" lon="-3.65192">
        <ele>32.1</ele>
        <time>2023-01-27T15:37:05Z</time>
      </trkpt>
      <trkpt lat="47.78792" lon="-3.65191">
        <ele>32.2</ele>
        <time>2023-01-27T15:37:06Z</time>
      </trkpt>
      <trkpt lat="47.78789" lon="-3.6519">
        <ele>32.4</ele>
        <time>2023-01-27T15:37:07Z</time>
      </trkpt>
      <trkpt lat="47.78788" lon="-3.65189">
        <ele>32.5</ele>
        <time>2023-01-27T15:37:08Z</time>
      </trkpt>
      <trkpt lat="47.78785" lon="-3.65189">
        <ele>32.6</ele>
        <time>2023-01-27T15:37:09Z</time>
      </trkpt>
      <trkpt lat="47.78783" lon="-3.65189">
        <ele>32.8</ele>
        <time>2023-01-27T15:37:10Z</time>
      </trkpt>
      <trkpt lat="47.78779" lon="-3.65189">
        <ele>32.9</ele>
        <time>2023-01-27T15:37:12Z</time>
      </trkpt>
      <trkpt lat="47.78777" lon="-3.65189">
        <ele>33</ele>
        <time>2023-01-27T15:37:13Z</time>
      </trkpt>
      <trkpt lat="47.78773" lon="-3.65188">
        <ele>33.2</ele>
        <time>2023-01-27T15:37:14Z</time>
      </trkpt>
      <trkpt lat="47.78771" lon="-3.65187">
        <ele>33.3</ele>
        <time>2023-01-27T15:37:15Z</time>
      </trkpt>
      <trkpt lat="47.78768" lon="-3.65187">
        <ele>33.4</ele>
        <time>2023-01-27T15:37:16Z</time>
      </trkpt>
      <trkpt lat="47.78765" lon="-3.65188">
        <ele>33.5</ele>
        <time>2023-01-27T15:37:18Z</time>
      </trkpt>
      <trkpt lat="47.78762" lon="-3.65188">
        <ele>33.7</ele>
        <time>2023-01-27T15:37:19Z</time>
      </trkpt>
      <trkpt lat="47.78759" lon="-3.65187">
        <ele>33.8</ele>
        <time>2023-01-27T15:37:20Z</time>
      </trkpt>
      <trkpt lat="47.78756" lon="-3.65187">
        <ele>33.9</ele>
        <time>2023-01-27T15:37:21Z</time>
      </trkpt>
      <trkpt lat="47.78755" lon="-3.65188">
        <ele>34</ele>
        <time>2023-01-27T15:37:22Z</time>
      </trkpt>
      <trkpt lat="47.7875" lon="-3.65187">
        <ele>34.2</ele>
        <time>2023-01-27T15:37:23Z</time>
      </trkpt>
      <trkpt lat="47.78748" lon="-3.65188">
        <ele>34.2</ele>
        <time>2023-01-27T15:37:24Z</time>
      </trkpt>
      <trkpt lat="47.78744" lon="-3.65187">
        <ele>34.4</ele>
        <time>2023-01-27T15:37:26Z</time>
      </trkpt>
      <trkpt lat="47.78742" lon="-3.65187">
        <ele>34.5</ele>
        <time>2023-01-27T15:37:27Z</time>
      </trkpt>
      <trkpt lat="47.78738" lon="-3.65187">
        <ele>34.6</ele>
        <time>2023-01-27T15:37:28Z</time>
      </trkpt>
      <trkpt lat="47.78736" lon="-3.65187">
        <ele>34.7</ele>
        <time>2023-01-27T15:37:29Z</time>
      </trkpt>
      <trkpt lat="47.78732" lon="-3.65186">
        <ele>34.7</ele>
        <time>2023-01-27T15:37:30Z</time>
      </trkpt>
      <trkpt lat="47.78726" lon="-3.65184">
        <ele>34.9</ele>
        <time>2023-01-27T15:37:31Z</time>
      </trkpt>
      <trkpt lat="47.78721" lon="-3.65183">
        <ele>35</ele>
        <time>2023-01-27T15:37:33Z</time>
      </trkpt>
      <trkpt lat="47.78717" lon="-3.65183">
        <ele>35.1</ele>
        <time>2023-01-27T15:37:35Z</time>
      </trkpt>
      <trkpt lat="47.78714" lon="-3.65182">
        <ele>35.2</ele>
        <time>2023-01-27T15:37:36Z</time>
      </trkpt>
      <trkpt lat="47.7871" lon="-3.65182">
        <ele>35.3</ele>
        <time>2023-01-27T15:37:37Z</time>
      </trkpt>
      <trkpt lat="47.78704" lon="-3.65182">
        <ele>35.4</ele>
        <time>2023-01-27T15:37:38Z</time>
      </trkpt>
      <trkpt lat="47.78701" lon="-3.65182">
        <ele>35.4</ele>
        <time>2023-01-27T15:37:39Z</time>
      </trkpt>
      <trkpt lat="47.78697" lon="-3.65182">
        <ele>35.5</ele>
        <time>2023-01-27T15:37:41Z</time>
      </trkpt>
      <trkpt lat="47.78693" lon="-3.65182">
        <ele>35.6</ele>
        <time>2023-01-27T15:37:42Z</time>
      </trkpt>
      <trkpt lat="47.7869" lon="-3.65182">
        <ele>35.7</ele>
        <time>2023-01-27T15:37:43Z</time>
      </trkpt>
      <trkpt lat="47.78687" lon="-3.65181">
        <ele>35.7</ele>
        <time>2023-01-27T15:37:44Z</time>
      </trkpt>
      <trkpt lat="47.78683" lon="-3.6518">
        <ele>35.8</ele>
        <time>2023-01-27T15:37:45Z</time>
      </trkpt>
      <trkpt lat="47.78681" lon="-3.65178">
        <ele>35.8</ele>
        <time>2023-01-27T15:37:46Z</time>
      </trkpt>
      <trkpt lat="47.78679" lon="-3.65175">
        <ele>35.9</ele>
        <time>2023-01-27T15:37:47Z</time>
      </trkpt>
      <trkpt lat="47.78678" lon="-3.65169">
        <ele>35.9</ele>
        <time>2023-01-27T15:37:48Z</time>
      </trkpt>
      <trkpt lat="47.78678" lon="-3.65164">
        <ele>35.8</ele>
        <time>2023-01-27T15:37:49Z</time>
      </trkpt>
      <trkpt lat="47.78677" lon="-3.65159">
        <ele>35.8</ele>
        <time>2023-01-27T15:37:50Z</time>
      </trkpt>
      <trkpt lat="47.78678" lon="-3.65153">
        <ele>35.7</ele>
        <time>2023-01-27T15:37:52Z</time>
      </trkpt>
      <trkpt lat="47.78679" lon="-3.65148">
        <ele>35.7</ele>
        <time>2023-01-27T15:37:53Z</time>
      </trkpt>
      <trkpt lat="47.78681" lon="-3.65138">
        <ele>35.6</ele>
        <time>2023-01-27T15:37:54Z</time>
      </trkpt>
      <trkpt lat="47.78682" lon="-3.65132">
        <ele>35.6</ele>
        <time>2023-01-27T15:37:55Z</time>
      </trkpt>
      <trkpt lat="47.78683" lon="-3.65127">
        <ele>35.6</ele>
        <time>2023-01-27T15:37:57Z</time>
      </trkpt>
      <trkpt lat="47.78684" lon="-3.65121">
        <ele>35.5</ele>
        <time>2023-01-27T15:37:58Z</time>
      </trkpt>
      <trkpt lat="47.78684" lon="-3.65115">
        <ele>35.5</ele>
        <time>2023-01-27T15:37:59Z</time>
      </trkpt>
      <trkpt lat="47.78683" lon="-3.65103">
        <ele>35.4</ele>
        <time>2023-01-27T15:38:00Z</time>
      </trkpt>
      <trkpt lat="47.78683" lon="-3.65098">
        <ele>35.4</ele>
        <time>2023-01-27T15:38:01Z</time>
      </trkpt>
      <trkpt lat="47.78684" lon="-3.6509">
        <ele>35.3</ele>
        <time>2023-01-27T15:38:03Z</time>
      </trkpt>
      <trkpt lat="47.78684" lon="-3.65084">
        <ele>35.2</ele>
        <time>2023-01-27T15:38:04Z</time>
      </trkpt>
      <trkpt lat="47.78684" lon="-3.65076">
        <ele>35.1</ele>
        <time>2023-01-27T15:38:05Z</time>
      </trkpt>
      <trkpt lat="47.78685" lon="-3.65069">
        <ele>35</ele>
        <time>2023-01-27T15:38:06Z</time>
      </trkpt>
      <trkpt lat="47.78686" lon="-3.65061">
        <ele>34.9</ele>
        <time>2023-01-27T15:38:07Z</time>
      </trkpt>
      <trkpt lat="47.78686" lon="-3.65054">
        <ele>34.7</ele>
        <time>2023-01-27T15:38:08Z</time>
      </trkpt>
      <trkpt lat="47.78686" lon="-3.65046">
        <ele>34.6</ele>
        <time>2023-01-27T15:38:09Z</time>
      </trkpt>
      <trkpt lat="47.78686" lon="-3.65038">
        <ele>34.4</ele>
        <time>2023-01-27T15:38:10Z</time>
      </trkpt>
      <trkpt lat="47.78687" lon="-3.6503">
        <ele>34.2</ele>
        <time>2023-01-27T15:38:11Z</time>
      </trkpt>
      <trkpt lat="47.78687" lon="-3.65022">
        <ele>33.9</ele>
        <time>2023-01-27T15:38:12Z</time>
      </trkpt>
      <trkpt lat="47.78688" lon="-3.65013">
        <ele>33.7</ele>
        <time>2023-01-27T15:38:13Z</time>
      </trkpt>
      <trkpt lat="47.78689" lon="-3.65004">
        <ele>33.5</ele>
        <time>2023-01-27T15:38:14Z</time>
      </trkpt>
      <trkpt lat="47.78689" lon="-3.64994">
        <ele>33.2</ele>
        <time>2023-01-27T15:38:15Z</time>
      </trkpt>
      <trkpt lat="47.78689" lon="-3.64985">
        <ele>33</ele>
        <time>2023-01-27T15:38:16Z</time>
      </trkpt>
      <trkpt lat="47.7869" lon="-3.64976">
        <ele>32.7</ele>
        <time>2023-01-27T15:38:17Z</time>
      </trkpt>
      <trkpt lat="47.7869" lon="-3.64966">
        <ele>32.4</ele>
        <time>2023-01-27T15:38:18Z</time>
      </trkpt>
      <trkpt lat="47.78691" lon="-3.64956">
        <ele>32.2</ele>
        <time>2023-01-27T15:38:19Z</time>
      </trkpt>
      <trkpt lat="47.7869" lon="-3.64947">
        <ele>31.9</ele>
        <time>2023-01-27T15:38:20Z</time>
      </trkpt>
      <trkpt lat="47.78689" lon="-3.64938">
        <ele>31.7</ele>
        <time>2023-01-27T15:38:21Z</time>
      </trkpt>
      <trkpt lat="47.78686" lon="-3.64929">
        <ele>31.5</ele>
        <time>2023-01-27T15:38:22Z</time>
      </trkpt>
      <trkpt lat="47.7868" lon="-3.64925">
        <ele>31.2</ele>
        <time>2023-01-27T15:38:23Z</time>
      </trkpt>
      <trkpt lat="47.78673" lon="-3.64924">
        <ele>31.1</ele>
        <time>2023-01-27T15:38:24Z</time>
      </trkpt>
      <trkpt lat="47.78667" lon="-3.64925">
        <ele>31.1</ele>
        <time>2023-01-27T15:38:25Z</time>
      </trkpt>
      <trkpt lat="47.78661" lon="-3.64926">
        <ele>31.2</ele>
        <time>2023-01-27T15:38:26Z</time>
      </trkpt>
      <trkpt lat="47.78655" lon="-3.64927">
        <ele>31.2</ele>
        <time>2023-01-27T15:38:27Z</time>
      </trkpt>
      <trkpt lat="47.78649" lon="-3.64927">
        <ele>31.2</ele>
        <time>2023-01-27T15:38:28Z</time>
      </trkpt>
      <trkpt lat="47.78643" lon="-3.64927">
        <ele>31.3</ele>
        <time>2023-01-27T15:38:29Z</time>
      </trkpt>
      <trkpt lat="47.78637" lon="-3.64927">
        <ele>31.3</ele>
        <time>2023-01-27T15:38:30Z</time>
      </trkpt>
      <trkpt lat="47.78631" lon="-3.64927">
        <ele>31.4</ele>
        <time>2023-01-27T15:38:31Z</time>
      </trkpt>
      <trkpt lat="47.78625" lon="-3.64926">
        <ele>31.4</ele>
        <time>2023-01-27T15:38:32Z</time>
      </trkpt>
      <trkpt lat="47.7862" lon="-3.64925">
        <ele>31.4</ele>
        <time>2023-01-27T15:38:33Z</time>
      </trkpt>
      <trkpt lat="47.78614" lon="-3.64924">
        <ele>31.4</ele>
        <time>2023-01-27T15:38:34Z</time>
      </trkpt>
      <trkpt lat="47.78608" lon="-3.64923">
        <ele>31.4</ele>
        <time>2023-01-27T15:38:35Z</time>
      </trkpt>
      <trkpt lat="47.78603" lon="-3.64922">
        <ele>31.4</ele>
        <time>2023-01-27T15:38:36Z</time>
      </trkpt>
      <trkpt lat="47.78597" lon="-3.64919">
        <ele>31.3</ele>
        <time>2023-01-27T15:38:37Z</time>
      </trkpt>
      <trkpt lat="47.78591" lon="-3.64917">
        <ele>31.2</ele>
        <time>2023-01-27T15:38:38Z</time>
      </trkpt>
      <trkpt lat="47.78586" lon="-3.64914">
        <ele>31.2</ele>
        <time>2023-01-27T15:38:39Z</time>
      </trkpt>
      <trkpt lat="47.7858" lon="-3.64911">
        <ele>31</ele>
        <time>2023-01-27T15:38:40Z</time>
      </trkpt>
      <trkpt lat="47.78574" lon="-3.64907">
        <ele>30.8</ele>
        <time>2023-01-27T15:38:41Z</time>
      </trkpt>
      <trkpt lat="47.78568" lon="-3.64904">
        <ele>30.6</ele>
        <time>2023-01-27T15:38:42Z</time>
      </trkpt>
      <trkpt lat="47.78561" lon="-3.649">
        <ele>30.4</ele>
        <time>2023-01-27T15:38:43Z</time>
      </trkpt>
      <trkpt lat="47.78555" lon="-3.64897">
        <ele>30.1</ele>
        <time>2023-01-27T15:38:44Z</time>
      </trkpt>
      <trkpt lat="47.78548" lon="-3.64893">
        <ele>29.8</ele>
        <time>2023-01-27T15:38:45Z</time>
      </trkpt>
      <trkpt lat="47.78541" lon="-3.64889">
        <ele>29.4</ele>
        <time>2023-01-27T15:38:46Z</time>
      </trkpt>
      <trkpt lat="47.78534" lon="-3.64885">
        <ele>29</ele>
        <time>2023-01-27T15:38:47Z</time>
      </trkpt>
      <trkpt lat="47.78527" lon="-3.64881">
        <ele>28.6</ele>
        <time>2023-01-27T15:38:48Z</time>
      </trkpt>
      <trkpt lat="47.7852" lon="-3.64876">
        <ele>28.1</ele>
        <time>2023-01-27T15:38:49Z</time>
      </trkpt>
      <trkpt lat="47.78512" lon="-3.64872">
        <ele>27.6</ele>
        <time>2023-01-27T15:38:50Z</time>
      </trkpt>
      <trkpt lat="47.78503" lon="-3.64867">
        <ele>26.9</ele>
        <time>2023-01-27T15:38:51Z</time>
      </trkpt>
      <trkpt lat="47.78495" lon="-3.64862">
        <ele>26.3</ele>
        <time>2023-01-27T15:38:52Z</time>
      </trkpt>
      <trkpt lat="47.78486" lon="-3.64857">
        <ele>25.6</ele>
        <time>2023-01-27T15:38:53Z</time>
      </trkpt>
      <trkpt lat="47.78477" lon="-3.64852">
        <ele>24.9</ele>
        <time>2023-01-27T15:38:54Z</time>
      </trkpt>
      <trkpt lat="47.78469" lon="-3.64848">
        <ele>24.3</ele>
        <time>2023-01-27T15:38:55Z</time>
      </trkpt>
      <trkpt lat="47.78462" lon="-3.64844">
        <ele>23.7</ele>
        <time>2023-01-27T15:38:56Z</time>
      </trkpt>
      <trkpt lat="47.78456" lon="-3.6484">
        <ele>23.3</ele>
        <time>2023-01-27T15:38:57Z</time>
      </trkpt>
      <trkpt lat="47.7845" lon="-3.64837">
        <ele>22.9</ele>
        <time>2023-01-27T15:38:58Z</time>
      </trkpt>
      <trkpt lat="47.78444" lon="-3.64834">
        <ele>22.6</ele>
        <time>2023-01-27T15:38:59Z</time>
      </trkpt>
      <trkpt lat="47.78439" lon="-3.64832">
        <ele>22.4</ele>
        <time>2023-01-27T15:39:00Z</time>
      </trkpt>
      <trkpt lat="47.78435" lon="-3.6483">
        <ele>22.2</ele>
        <time>2023-01-27T15:39:01Z</time>
      </trkpt>
      <trkpt lat="47.78433" lon="-3.64829">
        <ele>22.1</ele>
        <time>2023-01-27T15:39:02Z</time>
      </trkpt>
      <trkpt lat="47.7843" lon="-3.64824">
        <ele>21.8</ele>
        <time>2023-01-27T15:39:03Z</time>
      </trkpt>
      <trkpt lat="47.78431" lon="-3.6482">
        <ele>21.8</ele>
        <time>2023-01-27T15:39:04Z</time>
      </trkpt>
      <trkpt lat="47.78432" lon="-3.64815">
        <ele>21.7</ele>
        <time>2023-01-27T15:39:05Z</time>
      </trkpt>
      <trkpt lat="47.78434" lon="-3.6481">
        <ele>21.7</ele>
        <time>2023-01-27T15:39:06Z</time>
      </trkpt>
      <trkpt lat="47.78436" lon="-3.64808">
        <ele>21.7</ele>
        <time>2023-01-27T15:39:07Z</time>
      </trkpt>
      <trkpt lat="47.78438" lon="-3.64801">
        <ele>21.7</ele>
        <time>2023-01-27T15:39:08Z</time>
      </trkpt>
      <trkpt lat="47.78438" lon="-3.64797">
        <ele>21.8</ele>
        <time>2023-01-27T15:39:09Z</time>
      </trkpt>
      <trkpt lat="47.78439" lon="-3.64792">
        <ele>21.8</ele>
        <time>2023-01-27T15:39:10Z</time>
      </trkpt>
      <trkpt lat="47.78442" lon="-3.64781">
        <ele>21.8</ele>
        <time>2023-01-27T15:39:12Z</time>
      </trkpt>
      <trkpt lat="47.78443" lon="-3.64772">
        <ele>21.9</ele>
        <time>2023-01-27T15:39:14Z</time>
      </trkpt>
      <trkpt lat="47.78445" lon="-3.64763">
        <ele>21.9</ele>
        <time>2023-01-27T15:39:16Z</time>
      </trkpt>
      <trkpt lat="47.78446" lon="-3.64758">
        <ele>21.8</ele>
        <time>2023-01-27T15:39:17Z</time>
      </trkpt>
      <trkpt lat="47.78448" lon="-3.64751">
        <ele>21.8</ele>
        <time>2023-01-27T15:39:19Z</time>
      </trkpt>
      <trkpt lat="47.78449" lon="-3.64743">
        <ele>21.6</ele>
        <time>2023-01-27T15:39:20Z</time>
      </trkpt>
      <trkpt lat="47.7845" lon="-3.64736">
        <ele>21.5</ele>
        <time>2023-01-27T15:39:22Z</time>
      </trkpt>
      <trkpt lat="47.78451" lon="-3.6473">
        <ele>21.4</ele>
        <time>2023-01-27T15:39:23Z</time>
      </trkpt>
      <trkpt lat="47.78452" lon="-3.64724">
        <ele>21.3</ele>
        <time>2023-01-27T15:39:24Z</time>
      </trkpt>
      <trkpt lat="47.78454" lon="-3.64718">
        <ele>21.2</ele>
        <time>2023-01-27T15:39:25Z</time>
      </trkpt>
      <trkpt lat="47.78456" lon="-3.6471">
        <ele>21.1</ele>
        <time>2023-01-27T15:39:26Z</time>
      </trkpt>
      <trkpt lat="47.78458" lon="-3.64703">
        <ele>21.1</ele>
        <time>2023-01-27T15:39:27Z</time>
      </trkpt>
      <trkpt lat="47.7846" lon="-3.64697">
        <ele>21.1</ele>
        <time>2023-01-27T15:39:28Z</time>
      </trkpt>
      <trkpt lat="47.78462" lon="-3.64692">
        <ele>21.1</ele>
        <time>2023-01-27T15:39:29Z</time>
      </trkpt>
      <trkpt lat="47.78465" lon="-3.6469">
        <ele>21.1</ele>
        <time>2023-01-27T15:39:30Z</time>
      </trkpt>
      <trkpt lat="47.78471" lon="-3.64688">
        <ele>21.3</ele>
        <time>2023-01-27T15:39:31Z</time>
      </trkpt>
      <trkpt lat="47.78477" lon="-3.64689">
        <ele>21.6</ele>
        <time>2023-01-27T15:39:33Z</time>
      </trkpt>
      <trkpt lat="47.7848" lon="-3.64689">
        <ele>21.7</ele>
        <time>2023-01-27T15:39:34Z</time>
      </trkpt>
      <trkpt lat="47.78486" lon="-3.6469">
        <ele>22.1</ele>
        <time>2023-01-27T15:39:35Z</time>
      </trkpt>
      <trkpt lat="47.78489" lon="-3.64691">
        <ele>22.2</ele>
        <time>2023-01-27T15:39:36Z</time>
      </trkpt>
      <trkpt lat="47.78492" lon="-3.64692">
        <ele>22.4</ele>
        <time>2023-01-27T15:39:37Z</time>
      </trkpt>
      <trkpt lat="47.78496" lon="-3.64691">
        <ele>22.7</ele>
        <time>2023-01-27T15:39:38Z</time>
      </trkpt>
      <trkpt lat="47.78504" lon="-3.64694">
        <ele>23.3</ele>
        <time>2023-01-27T15:39:40Z</time>
      </trkpt>
      <trkpt lat="47.78507" lon="-3.64696">
        <ele>23.6</ele>
        <time>2023-01-27T15:39:42Z</time>
      </trkpt>
      <trkpt lat="47.7851" lon="-3.64697">
        <ele>23.8</ele>
        <time>2023-01-27T15:39:43Z</time>
      </trkpt>
      <trkpt lat="47.78516" lon="-3.647">
        <ele>24.4</ele>
        <time>2023-01-27T15:39:44Z</time>
      </trkpt>
      <trkpt lat="47.7852" lon="-3.64702">
        <ele>24.7</ele>
        <time>2023-01-27T15:39:46Z</time>
      </trkpt>
      <trkpt lat="47.78522" lon="-3.64704">
        <ele>25</ele>
        <time>2023-01-27T15:39:47Z</time>
      </trkpt>
      <trkpt lat="47.78527" lon="-3.64708">
        <ele>25.4</ele>
        <time>2023-01-27T15:39:48Z</time>
      </trkpt>
      <trkpt lat="47.78532" lon="-3.64711">
        <ele>25.8</ele>
        <time>2023-01-27T15:39:50Z</time>
      </trkpt>
      <trkpt lat="47.78538" lon="-3.64713">
        <ele>26.2</ele>
        <time>2023-01-27T15:39:52Z</time>
      </trkpt>
      <trkpt lat="47.78541" lon="-3.64714">
        <ele>26.4</ele>
        <time>2023-01-27T15:39:53Z</time>
      </trkpt>
      <trkpt lat="47.78544" lon="-3.64715">
        <ele>26.7</ele>
        <time>2023-01-27T15:39:55Z</time>
      </trkpt>
      <trkpt lat="47.7855" lon="-3.64716">
        <ele>27</ele>
        <time>2023-01-27T15:39:56Z</time>
      </trkpt>
      <trkpt lat="47.78553" lon="-3.64716">
        <ele>27.2</ele>
        <time>2023-01-27T15:39:57Z</time>
      </trkpt>
      <trkpt lat="47.78556" lon="-3.64716">
        <ele>27.4</ele>
        <time>2023-01-27T15:39:59Z</time>
      </trkpt>
      <trkpt lat="47.78559" lon="-3.64715">
        <ele>27.5</ele>
        <time>2023-01-27T15:40:00Z</time>
      </trkpt>
      <trkpt lat="47.78565" lon="-3.64714">
        <ele>27.7</ele>
        <time>2023-01-27T15:40:01Z</time>
      </trkpt>
      <trkpt lat="47.78568" lon="-3.64714">
        <ele>27.8</ele>
        <time>2023-01-27T15:40:02Z</time>
      </trkpt>
      <trkpt lat="47.78572" lon="-3.64712">
        <ele>27.8</ele>
        <time>2023-01-27T15:40:04Z</time>
      </trkpt>
      <trkpt lat="47.78575" lon="-3.6471">
        <ele>27.9</ele>
        <time>2023-01-27T15:40:05Z</time>
      </trkpt>
      <trkpt lat="47.78579" lon="-3.64709">
        <ele>27.9</ele>
        <time>2023-01-27T15:40:06Z</time>
      </trkpt>
      <trkpt lat="47.78585" lon="-3.64706">
        <ele>27.8</ele>
        <time>2023-01-27T15:40:07Z</time>
      </trkpt>
      <trkpt lat="47.78588" lon="-3.64706">
        <ele>27.7</ele>
        <time>2023-01-27T15:40:09Z</time>
      </trkpt>
      <trkpt lat="47.78592" lon="-3.64705">
        <ele>27.7</ele>
        <time>2023-01-27T15:40:10Z</time>
      </trkpt>
      <trkpt lat="47.78595" lon="-3.64703">
        <ele>27.6</ele>
        <time>2023-01-27T15:40:11Z</time>
      </trkpt>
      <trkpt lat="47.78599" lon="-3.64702">
        <ele>27.5</ele>
        <time>2023-01-27T15:40:12Z</time>
      </trkpt>
      <trkpt lat="47.78603" lon="-3.64702">
        <ele>27.4</ele>
        <time>2023-01-27T15:40:13Z</time>
      </trkpt>
      <trkpt lat="47.78607" lon="-3.64702">
        <ele>27.4</ele>
        <time>2023-01-27T15:40:14Z</time>
      </trkpt>
      <trkpt lat="47.7861" lon="-3.64704">
        <ele>27.3</ele>
        <time>2023-01-27T15:40:15Z</time>
      </trkpt>
      <trkpt lat="47.78615" lon="-3.64706">
        <ele>27.2</ele>
        <time>2023-01-27T15:40:16Z</time>
      </trkpt>
      <trkpt lat="47.78619" lon="-3.64709">
        <ele>27</ele>
        <time>2023-01-27T15:40:17Z</time>
      </trkpt>
      <trkpt lat="47.78624" lon="-3.64711">
        <ele>26.9</ele>
        <time>2023-01-27T15:40:18Z</time>
      </trkpt>
      <trkpt lat="47.78628" lon="-3.64713">
        <ele>26.8</ele>
        <time>2023-01-27T15:40:19Z</time>
      </trkpt>
      <trkpt lat="47.78632" lon="-3.64716">
        <ele>26.7</ele>
        <time>2023-01-27T15:40:20Z</time>
      </trkpt>
      <trkpt lat="47.78636" lon="-3.64718">
        <ele>26.5</ele>
        <time>2023-01-27T15:40:21Z</time>
      </trkpt>
      <trkpt lat="47.78638" lon="-3.64719">
        <ele>26.4</ele>
        <time>2023-01-27T15:40:22Z</time>
      </trkpt>
      <trkpt lat="47.78643" lon="-3.64721">
        <ele>26.2</ele>
        <time>2023-01-27T15:40:23Z</time>
      </trkpt>
      <trkpt lat="47.78646" lon="-3.64722">
        <ele>26</ele>
        <time>2023-01-27T15:40:24Z</time>
      </trkpt>
      <trkpt lat="47.78652" lon="-3.64724">
        <ele>25.6</ele>
        <time>2023-01-27T15:40:25Z</time>
      </trkpt>
      <trkpt lat="47.78657" lon="-3.64727">
        <ele>25.2</ele>
        <time>2023-01-27T15:40:26Z</time>
      </trkpt>
      <trkpt lat="47.78663" lon="-3.64729">
        <ele>24.8</ele>
        <time>2023-01-27T15:40:27Z</time>
      </trkpt>
      <trkpt lat="47.78668" lon="-3.64732">
        <ele>24.4</ele>
        <time>2023-01-27T15:40:28Z</time>
      </trkpt>
      <trkpt lat="47.78674" lon="-3.64734">
        <ele>23.9</ele>
        <time>2023-01-27T15:40:29Z</time>
      </trkpt>
      <trkpt lat="47.7868" lon="-3.64734">
        <ele>23.4</ele>
        <time>2023-01-27T15:40:30Z</time>
      </trkpt>
      <trkpt lat="47.78684" lon="-3.6473">
        <ele>22.9</ele>
        <time>2023-01-27T15:40:31Z</time>
      </trkpt>
      <trkpt lat="47.7869" lon="-3.64724">
        <ele>22.3</ele>
        <time>2023-01-27T15:40:32Z</time>
      </trkpt>
      <trkpt lat="47.78694" lon="-3.64717">
        <ele>21.7</ele>
        <time>2023-01-27T15:40:33Z</time>
      </trkpt>
      <trkpt lat="47.78695" lon="-3.64709">
        <ele>21.1</ele>
        <time>2023-01-27T15:40:34Z</time>
      </trkpt>
      <trkpt lat="47.78696" lon="-3.647">
        <ele>20.4</ele>
        <time>2023-01-27T15:40:35Z</time>
      </trkpt>
      <trkpt lat="47.78698" lon="-3.64689">
        <ele>19.7</ele>
        <time>2023-01-27T15:40:36Z</time>
      </trkpt>
      <trkpt lat="47.78698" lon="-3.6468">
        <ele>19.1</ele>
        <time>2023-01-27T15:40:37Z</time>
      </trkpt>
      <trkpt lat="47.78698" lon="-3.64669">
        <ele>18.7</ele>
        <time>2023-01-27T15:40:38Z</time>
      </trkpt>
      <trkpt lat="47.78699" lon="-3.64658">
        <ele>18.4</ele>
        <time>2023-01-27T15:40:39Z</time>
      </trkpt>
      <trkpt lat="47.78701" lon="-3.64649">
        <ele>18.2</ele>
        <time>2023-01-27T15:40:40Z</time>
      </trkpt>
      <trkpt lat="47.78702" lon="-3.64639">
        <ele>18.2</ele>
        <time>2023-01-27T15:40:41Z</time>
      </trkpt>
      <trkpt lat="47.78703" lon="-3.6463">
        <ele>18.2</ele>
        <time>2023-01-27T15:40:42Z</time>
      </trkpt>
      <trkpt lat="47.78705" lon="-3.64622">
        <ele>18.3</ele>
        <time>2023-01-27T15:40:43Z</time>
      </trkpt>
      <trkpt lat="47.78708" lon="-3.64616">
        <ele>18.5</ele>
        <time>2023-01-27T15:40:44Z</time>
      </trkpt>
      <trkpt lat="47.78712" lon="-3.64612">
        <ele>18.7</ele>
        <time>2023-01-27T15:40:45Z</time>
      </trkpt>
      <trkpt lat="47.78717" lon="-3.64611">
        <ele>19</ele>
        <time>2023-01-27T15:40:46Z</time>
      </trkpt>
      <trkpt lat="47.78721" lon="-3.64613">
        <ele>19.2</ele>
        <time>2023-01-27T15:40:47Z</time>
      </trkpt>
      <trkpt lat="47.78723" lon="-3.64614">
        <ele>19.3</ele>
        <time>2023-01-27T15:40:48Z</time>
      </trkpt>
      <trkpt lat="47.78724" lon="-3.64615">
        <ele>19.4</ele>
        <time>2023-01-27T15:40:49Z</time>
      </trkpt>
      <trkpt lat="47.78727" lon="-3.64615">
        <ele>19.6</ele>
        <time>2023-01-27T15:40:50Z</time>
      </trkpt>
      <trkpt lat="47.78731" lon="-3.64616">
        <ele>19.7</ele>
        <time>2023-01-27T15:40:51Z</time>
      </trkpt>
      <trkpt lat="47.78732" lon="-3.64616">
        <ele>19.8</ele>
        <time>2023-01-27T15:40:52Z</time>
      </trkpt>
      <trkpt lat="47.78735" lon="-3.64618">
        <ele>19.9</ele>
        <time>2023-01-27T15:40:53Z</time>
      </trkpt>
      <trkpt lat="47.78737" lon="-3.64618">
        <ele>20</ele>
        <time>2023-01-27T15:40:54Z</time>
      </trkpt>
      <trkpt lat="47.78741" lon="-3.6462">
        <ele>20.1</ele>
        <time>2023-01-27T15:40:55Z</time>
      </trkpt>
      <trkpt lat="47.78748" lon="-3.64621">
        <ele>20.3</ele>
        <time>2023-01-27T15:40:57Z</time>
      </trkpt>
      <trkpt lat="47.7875" lon="-3.64621">
        <ele>20.4</ele>
        <time>2023-01-27T15:40:58Z</time>
      </trkpt>
      <trkpt lat="47.78753" lon="-3.6462">
        <ele>20.4</ele>
        <time>2023-01-27T15:41:00Z</time>
      </trkpt>
      <trkpt lat="47.78758" lon="-3.6462">
        <ele>20.5</ele>
        <time>2023-01-27T15:41:01Z</time>
      </trkpt>
      <trkpt lat="47.78761" lon="-3.6462">
        <ele>20.6</ele>
        <time>2023-01-27T15:41:03Z</time>
      </trkpt>
      <trkpt lat="47.78765" lon="-3.6462">
        <ele>20.7</ele>
        <time>2023-01-27T15:41:04Z</time>
      </trkpt>
      <trkpt lat="47.78768" lon="-3.64619">
        <ele>20.7</ele>
        <time>2023-01-27T15:41:05Z</time>
      </trkpt>
      <trkpt lat="47.78771" lon="-3.64619">
        <ele>20.7</ele>
        <time>2023-01-27T15:41:06Z</time>
      </trkpt>
      <trkpt lat="47.78774" lon="-3.64618">
        <ele>20.8</ele>
        <time>2023-01-27T15:41:07Z</time>
      </trkpt>
      <trkpt lat="47.78778" lon="-3.64618">
        <ele>20.8</ele>
        <time>2023-01-27T15:41:08Z</time>
      </trkpt>
      <trkpt lat="47.78782" lon="-3.64618">
        <ele>20.9</ele>
        <time>2023-01-27T15:41:09Z</time>
      </trkpt>
      <trkpt lat="47.78786" lon="-3.64618">
        <ele>21</ele>
        <time>2023-01-27T15:41:10Z</time>
      </trkpt>
      <trkpt lat="47.78789" lon="-3.64617">
        <ele>21</ele>
        <time>2023-01-27T15:41:11Z</time>
      </trkpt>
      <trkpt lat="47.78793" lon="-3.64615">
        <ele>21.1</ele>
        <time>2023-01-27T15:41:12Z</time>
      </trkpt>
      <trkpt lat="47.78796" lon="-3.64613">
        <ele>21.3</ele>
        <time>2023-01-27T15:41:13Z</time>
      </trkpt>
      <trkpt lat="47.78799" lon="-3.64613">
        <ele>21.5</ele>
        <time>2023-01-27T15:41:14Z</time>
      </trkpt>
      <trkpt lat="47.78803" lon="-3.64612">
        <ele>21.7</ele>
        <time>2023-01-27T15:41:15Z</time>
      </trkpt>
      <trkpt lat="47.78805" lon="-3.64611">
        <ele>21.8</ele>
        <time>2023-01-27T15:41:16Z</time>
      </trkpt>
      <trkpt lat="47.78808" lon="-3.64611">
        <ele>22</ele>
        <time>2023-01-27T15:41:17Z</time>
      </trkpt>
      <trkpt lat="47.78813" lon="-3.64613">
        <ele>22.3</ele>
        <time>2023-01-27T15:41:18Z</time>
      </trkpt>
      <trkpt lat="47.78816" lon="-3.64614">
        <ele>22.5</ele>
        <time>2023-01-27T15:41:19Z</time>
      </trkpt>
      <trkpt lat="47.7882" lon="-3.64615">
        <ele>22.9</ele>
        <time>2023-01-27T15:41:20Z</time>
      </trkpt>
      <trkpt lat="47.78824" lon="-3.64618">
        <ele>23.2</ele>
        <time>2023-01-27T15:41:22Z</time>
      </trkpt>
      <trkpt lat="47.78828" lon="-3.6462">
        <ele>23.5</ele>
        <time>2023-01-27T15:41:23Z</time>
      </trkpt>
      <trkpt lat="47.78831" lon="-3.64622">
        <ele>23.8</ele>
        <time>2023-01-27T15:41:24Z</time>
      </trkpt>
      <trkpt lat="47.78834" lon="-3.64623">
        <ele>24.1</ele>
        <time>2023-01-27T15:41:25Z</time>
      </trkpt>
      <trkpt lat="47.78839" lon="-3.64626">
        <ele>24.6</ele>
        <time>2023-01-27T15:41:26Z</time>
      </trkpt>
      <trkpt lat="47.78842" lon="-3.64628">
        <ele>24.9</ele>
        <time>2023-01-27T15:41:28Z</time>
      </trkpt>
      <trkpt lat="47.78846" lon="-3.6463">
        <ele>25.2</ele>
        <time>2023-01-27T15:41:29Z</time>
      </trkpt>
      <trkpt lat="47.78847" lon="-3.64631">
        <ele>25.4</ele>
        <time>2023-01-27T15:41:30Z</time>
      </trkpt>
      <trkpt lat="47.7885" lon="-3.64631">
        <ele>25.6</ele>
        <time>2023-01-27T15:41:31Z</time>
      </trkpt>
      <trkpt lat="47.78853" lon="-3.64632">
        <ele>25.9</ele>
        <time>2023-01-27T15:41:32Z</time>
      </trkpt>
      <trkpt lat="47.78854" lon="-3.64633">
        <ele>26</ele>
        <time>2023-01-27T15:41:33Z</time>
      </trkpt>
      <trkpt lat="47.78857" lon="-3.64634">
        <ele>26.2</ele>
        <time>2023-01-27T15:41:34Z</time>
      </trkpt>
      <trkpt lat="47.78859" lon="-3.64635">
        <ele>26.4</ele>
        <time>2023-01-27T15:41:35Z</time>
      </trkpt>
      <trkpt lat="47.78863" lon="-3.64635">
        <ele>26.6</ele>
        <time>2023-01-27T15:41:36Z</time>
      </trkpt>
      <trkpt lat="47.78866" lon="-3.64635">
        <ele>26.8</ele>
        <time>2023-01-27T15:41:37Z</time>
      </trkpt>
      <trkpt lat="47.78869" lon="-3.64635">
        <ele>26.9</ele>
        <time>2023-01-27T15:41:38Z</time>
      </trkpt>
      <trkpt lat="47.78872" lon="-3.64635">
        <ele>26.9</ele>
        <time>2023-01-27T15:41:39Z</time>
      </trkpt>
      <trkpt lat="47.78875" lon="-3.64634">
        <ele>27</ele>
        <time>2023-01-27T15:41:40Z</time>
      </trkpt>
      <trkpt lat="47.78879" lon="-3.64633">
        <ele>27</ele>
        <time>2023-01-27T15:41:41Z</time>
      </trkpt>
      <trkpt lat="47.78879" lon="-3.64633">
        <ele>27</ele>
        <time>2023-01-27T15:41:42Z</time>
      </trkpt>
      <trkpt lat="47.78882" lon="-3.64632">
        <ele>27</ele>
        <time>2023-01-27T15:41:43Z</time>
      </trkpt>
      <trkpt lat="47.78883" lon="-3.64632">
        <ele>26.9</ele>
        <time>2023-01-27T15:41:44Z</time>
      </trkpt>
      <trkpt lat="47.78887" lon="-3.64632">
        <ele>26.9</ele>
        <time>2023-01-27T15:41:45Z</time>
      </trkpt>
      <trkpt lat="47.78888" lon="-3.64632">
        <ele>26.9</ele>
        <time>2023-01-27T15:41:46Z</time>
      </trkpt>
      <trkpt lat="47.78892" lon="-3.64632">
        <ele>26.8</ele>
        <time>2023-01-27T15:41:47Z</time>
      </trkpt>
      <trkpt lat="47.78896" lon="-3.64631">
        <ele>26.7</ele>
        <time>2023-01-27T15:41:48Z</time>
      </trkpt>
      <trkpt lat="47.78899" lon="-3.64631">
        <ele>26.6</ele>
        <time>2023-01-27T15:41:49Z</time>
      </trkpt>
      <trkpt lat="47.78903" lon="-3.6463">
        <ele>26.5</ele>
        <time>2023-01-27T15:41:50Z</time>
      </trkpt>
      <trkpt lat="47.7891" lon="-3.64631">
        <ele>26.2</ele>
        <time>2023-01-27T15:41:51Z</time>
      </trkpt>
      <trkpt lat="47.78915" lon="-3.6463">
        <ele>26</ele>
        <time>2023-01-27T15:41:52Z</time>
      </trkpt>
      <trkpt lat="47.78924" lon="-3.64628">
        <ele>25.5</ele>
        <time>2023-01-27T15:41:54Z</time>
      </trkpt>
      <trkpt lat="47.78936" lon="-3.6463">
        <ele>24.8</ele>
        <time>2023-01-27T15:41:56Z</time>
      </trkpt>
      <trkpt lat="47.78942" lon="-3.64631">
        <ele>24.5</ele>
        <time>2023-01-27T15:41:57Z</time>
      </trkpt>
      <trkpt lat="47.78947" lon="-3.64631">
        <ele>24.2</ele>
        <time>2023-01-27T15:41:58Z</time>
      </trkpt>
      <trkpt lat="47.78952" lon="-3.64625">
        <ele>23.9</ele>
        <time>2023-01-27T15:41:59Z</time>
      </trkpt>
      <trkpt lat="47.78957" lon="-3.64617">
        <ele>23.6</ele>
        <time>2023-01-27T15:42:00Z</time>
      </trkpt>
      <trkpt lat="47.78961" lon="-3.64608">
        <ele>23.6</ele>
        <time>2023-01-27T15:42:01Z</time>
      </trkpt>
      <trkpt lat="47.78963" lon="-3.64599">
        <ele>23.5</ele>
        <time>2023-01-27T15:42:02Z</time>
      </trkpt>
      <trkpt lat="47.78964" lon="-3.64592">
        <ele>23.5</ele>
        <time>2023-01-27T15:42:03Z</time>
      </trkpt>
      <trkpt lat="47.78963" lon="-3.64586">
        <ele>23.5</ele>
        <time>2023-01-27T15:42:04Z</time>
      </trkpt>
      <trkpt lat="47.78963" lon="-3.64584">
        <ele>23.4</ele>
        <time>2023-01-27T15:42:05Z</time>
      </trkpt>
      <trkpt lat="47.78964" lon="-3.64578">
        <ele>23.4</ele>
        <time>2023-01-27T15:42:06Z</time>
      </trkpt>
      <trkpt lat="47.78965" lon="-3.64572">
        <ele>23.3</ele>
        <time>2023-01-27T15:42:07Z</time>
      </trkpt>
      <trkpt lat="47.78967" lon="-3.64565">
        <ele>23.2</ele>
        <time>2023-01-27T15:42:08Z</time>
      </trkpt>
      <trkpt lat="47.78968" lon="-3.64551">
        <ele>23</ele>
        <time>2023-01-27T15:42:10Z</time>
      </trkpt>
      <trkpt lat="47.78969" lon="-3.64543">
        <ele>22.9</ele>
        <time>2023-01-27T15:42:11Z</time>
      </trkpt>
      <trkpt lat="47.78969" lon="-3.64535">
        <ele>22.8</ele>
        <time>2023-01-27T15:42:12Z</time>
      </trkpt>
      <trkpt lat="47.7897" lon="-3.64528">
        <ele>22.7</ele>
        <time>2023-01-27T15:42:13Z</time>
      </trkpt>
      <trkpt lat="47.78971" lon="-3.64521">
        <ele>22.6</ele>
        <time>2023-01-27T15:42:14Z</time>
      </trkpt>
      <trkpt lat="47.78972" lon="-3.64514">
        <ele>22.6</ele>
        <time>2023-01-27T15:42:15Z</time>
      </trkpt>
      <trkpt lat="47.78973" lon="-3.64507">
        <ele>22.6</ele>
        <time>2023-01-27T15:42:16Z</time>
      </trkpt>
      <trkpt lat="47.78973" lon="-3.645">
        <ele>22.6</ele>
        <time>2023-01-27T15:42:17Z</time>
      </trkpt>
      <trkpt lat="47.78972" lon="-3.64494">
        <ele>22.6</ele>
        <time>2023-01-27T15:42:18Z</time>
      </trkpt>
      <trkpt lat="47.78972" lon="-3.64487">
        <ele>22.6</ele>
        <time>2023-01-27T15:42:19Z</time>
      </trkpt>
      <trkpt lat="47.78973" lon="-3.6448">
        <ele>22.6</ele>
        <time>2023-01-27T15:42:20Z</time>
      </trkpt>
      <trkpt lat="47.78973" lon="-3.64473">
        <ele>22.7</ele>
        <time>2023-01-27T15:42:21Z</time>
      </trkpt>
      <trkpt lat="47.78974" lon="-3.64466">
        <ele>22.9</ele>
        <time>2023-01-27T15:42:22Z</time>
      </trkpt>
      <trkpt lat="47.78974" lon="-3.64459">
        <ele>23.1</ele>
        <time>2023-01-27T15:42:23Z</time>
      </trkpt>
      <trkpt lat="47.78974" lon="-3.64454">
        <ele>23.2</ele>
        <time>2023-01-27T15:42:24Z</time>
      </trkpt>
      <trkpt lat="47.78976" lon="-3.64449">
        <ele>23.5</ele>
        <time>2023-01-27T15:42:25Z</time>
      </trkpt>
      <trkpt lat="47.78979" lon="-3.64445">
        <ele>23.8</ele>
        <time>2023-01-27T15:42:26Z</time>
      </trkpt>
      <trkpt lat="47.78982" lon="-3.64445">
        <ele>24.1</ele>
        <time>2023-01-27T15:42:27Z</time>
      </trkpt>
      <trkpt lat="47.78985" lon="-3.64446">
        <ele>24.3</ele>
        <time>2023-01-27T15:42:28Z</time>
      </trkpt>
      <trkpt lat="47.7899" lon="-3.64446">
        <ele>24.7</ele>
        <time>2023-01-27T15:42:29Z</time>
      </trkpt>
      <trkpt lat="47.78992" lon="-3.64446">
        <ele>24.9</ele>
        <time>2023-01-27T15:42:30Z</time>
      </trkpt>
      <trkpt lat="47.78995" lon="-3.64447">
        <ele>25</ele>
        <time>2023-01-27T15:42:31Z</time>
      </trkpt>
      <trkpt lat="47.78996" lon="-3.64447">
        <ele>25.1</ele>
        <time>2023-01-27T15:42:32Z</time>
      </trkpt>
      <trkpt lat="47.79" lon="-3.64448">
        <ele>25.3</ele>
        <time>2023-01-27T15:42:33Z</time>
      </trkpt>
      <trkpt lat="47.79002" lon="-3.64448">
        <ele>25.4</ele>
        <time>2023-01-27T15:42:34Z</time>
      </trkpt>
      <trkpt lat="47.79004" lon="-3.64448">
        <ele>25.5</ele>
        <time>2023-01-27T15:42:35Z</time>
      </trkpt>
      <trkpt lat="47.79008" lon="-3.64449">
        <ele>25.7</ele>
        <time>2023-01-27T15:42:36Z</time>
      </trkpt>
      <trkpt lat="47.7901" lon="-3.64449">
        <ele>25.8</ele>
        <time>2023-01-27T15:42:37Z</time>
      </trkpt>
      <trkpt lat="47.79013" lon="-3.6445">
        <ele>25.9</ele>
        <time>2023-01-27T15:42:38Z</time>
      </trkpt>
      <trkpt lat="47.79017" lon="-3.64451">
        <ele>26</ele>
        <time>2023-01-27T15:42:39Z</time>
      </trkpt>
      <trkpt lat="47.7902" lon="-3.64451">
        <ele>26.1</ele>
        <time>2023-01-27T15:42:40Z</time>
      </trkpt>
      <trkpt lat="47.79025" lon="-3.64451">
        <ele>26.2</ele>
        <time>2023-01-27T15:42:42Z</time>
      </trkpt>
      <trkpt lat="47.79029" lon="-3.64453">
        <ele>26.3</ele>
        <time>2023-01-27T15:42:43Z</time>
      </trkpt>
      <trkpt lat="47.79032" lon="-3.64454">
        <ele>26.3</ele>
        <time>2023-01-27T15:42:44Z</time>
      </trkpt>
      <trkpt lat="47.79036" lon="-3.64454">
        <ele>26.4</ele>
        <time>2023-01-27T15:42:45Z</time>
      </trkpt>
      <trkpt lat="47.79039" lon="-3.64455">
        <ele>26.4</ele>
        <time>2023-01-27T15:42:46Z</time>
      </trkpt>
      <trkpt lat="47.79043" lon="-3.64456">
        <ele>26.4</ele>
        <time>2023-01-27T15:42:47Z</time>
      </trkpt>
      <trkpt lat="47.79049" lon="-3.64456">
        <ele>26.4</ele>
        <time>2023-01-27T15:42:48Z</time>
      </trkpt>
      <trkpt lat="47.79053" lon="-3.64456">
        <ele>26.3</ele>
        <time>2023-01-27T15:42:50Z</time>
      </trkpt>
      <trkpt lat="47.79056" lon="-3.64456">
        <ele>26.3</ele>
        <time>2023-01-27T15:42:51Z</time>
      </trkpt>
      <trkpt lat="47.7906" lon="-3.64457">
        <ele>26.1</ele>
        <time>2023-01-27T15:42:52Z</time>
      </trkpt>
      <trkpt lat="47.79063" lon="-3.64459">
        <ele>26</ele>
        <time>2023-01-27T15:42:53Z</time>
      </trkpt>
      <trkpt lat="47.79066" lon="-3.6446">
        <ele>25.9</ele>
        <time>2023-01-27T15:42:54Z</time>
      </trkpt>
      <trkpt lat="47.79072" lon="-3.64461">
        <ele>25.6</ele>
        <time>2023-01-27T15:42:55Z</time>
      </trkpt>
      <trkpt lat="47.79077" lon="-3.64463">
        <ele>25.3</ele>
        <time>2023-01-27T15:42:56Z</time>
      </trkpt>
      <trkpt lat="47.79084" lon="-3.64465">
        <ele>24.8</ele>
        <time>2023-01-27T15:42:57Z</time>
      </trkpt>
      <trkpt lat="47.79088" lon="-3.64464">
        <ele>24.4</ele>
        <time>2023-01-27T15:42:58Z</time>
      </trkpt>
      <trkpt lat="47.79091" lon="-3.64464">
        <ele>24.1</ele>
        <time>2023-01-27T15:42:59Z</time>
      </trkpt>
      <trkpt lat="47.79099" lon="-3.64459">
        <ele>23.2</ele>
        <time>2023-01-27T15:43:01Z</time>
      </trkpt>
      <trkpt lat="47.79103" lon="-3.64454">
        <ele>22.6</ele>
        <time>2023-01-27T15:43:02Z</time>
      </trkpt>
      <trkpt lat="47.79106" lon="-3.64446">
        <ele>21.9</ele>
        <time>2023-01-27T15:43:03Z</time>
      </trkpt>
      <trkpt lat="47.79107" lon="-3.64439">
        <ele>21.3</ele>
        <time>2023-01-27T15:43:04Z</time>
      </trkpt>
      <trkpt lat="47.7911" lon="-3.64431">
        <ele>20.8</ele>
        <time>2023-01-27T15:43:05Z</time>
      </trkpt>
      <trkpt lat="47.79112" lon="-3.64425">
        <ele>20.3</ele>
        <time>2023-01-27T15:43:06Z</time>
      </trkpt>
      <trkpt lat="47.79113" lon="-3.64418">
        <ele>20</ele>
        <time>2023-01-27T15:43:07Z</time>
      </trkpt>
      <trkpt lat="47.79115" lon="-3.64412">
        <ele>19.6</ele>
        <time>2023-01-27T15:43:08Z</time>
      </trkpt>
      <trkpt lat="47.79118" lon="-3.64408">
        <ele>19.5</ele>
        <time>2023-01-27T15:43:09Z</time>
      </trkpt>
      <trkpt lat="47.79122" lon="-3.644">
        <ele>19.5</ele>
        <time>2023-01-27T15:43:10Z</time>
      </trkpt>
      <trkpt lat="47.79124" lon="-3.64395">
        <ele>19.5</ele>
        <time>2023-01-27T15:43:11Z</time>
      </trkpt>
      <trkpt lat="47.79124" lon="-3.64395">
        <ele>19.5</ele>
        <time>2023-01-27T15:43:13Z</time>
      </trkpt>
      <trkpt lat="47.79125" lon="-3.64394">
        <ele>19.5</ele>
        <time>2023-01-27T15:43:14Z</time>
      </trkpt>
      <trkpt lat="47.79126" lon="-3.64394">
        <ele>19.5</ele>
        <time>2023-01-27T15:43:15Z</time>
      </trkpt>
      <trkpt lat="47.79126" lon="-3.64395">
        <ele>19.5</ele>
        <time>2023-01-27T15:43:16Z</time>
      </trkpt>
      <trkpt lat="47.79126" lon="-3.64395">
        <ele>19.5</ele>
        <time>2023-01-27T15:43:17Z</time>
      </trkpt>
      <trkpt lat="47.79126" lon="-3.64395">
        <ele>19.5</ele>
        <time>2023-01-27T15:43:18Z</time>
      </trkpt>
      <trkpt lat="47.79126" lon="-3.64395">
        <ele>19.5</ele>
        <time>2023-01-27T15:43:19Z</time>
      </trkpt>
      <trkpt lat="47.79126" lon="-3.64395">
        <ele>19.5</ele>
        <time>2023-01-27T15:43:20Z</time>
      </trkpt>
      <trkpt lat="47.79126" lon="-3.64395">
        <ele>19.5</ele>
        <time>2023-01-27T15:43:21Z</time>
      </trkpt>
      <trkpt lat="47.79126" lon="-3.64395">
        <ele>19.5</ele>
        <time>2023-01-27T15:43:22Z</time>
      </trkpt>
      <trkpt lat="47.79126" lon="-3.64395">
        <ele>19.5</ele>
        <time>2023-01-27T15:43:23Z</time>
      </trkpt>
      <trkpt lat="47.79126" lon="-3.64394">
        <ele>19.5</ele>
        <time>2023-01-27T15:43:24Z</time>
      </trkpt>
      <trkpt lat="47.7913" lon="-3.64395">
        <ele>19.5</ele>
        <time>2023-01-27T15:43:40Z</time>
      </trkpt>
      <trkpt lat="47.79126" lon="-3.64397">
        <ele>19.5</ele>
        <time>2023-01-27T15:43:41Z</time>
      </trkpt>
      <trkpt lat="47.79126" lon="-3.64399">
        <ele>19.5</ele>
        <time>2023-01-27T15:43:42Z</time>
      </trkpt>
      <trkpt lat="47.79126" lon="-3.64399">
        <ele>19.5</ele>
        <time>2023-01-27T15:43:43Z</time>
      </trkpt>
      <trkpt lat="47.79127" lon="-3.64401">
        <ele>19.5</ele>
        <time>2023-01-27T15:43:44Z</time>
      </trkpt>
      <trkpt lat="47.79127" lon="-3.64402">
        <ele>19.5</ele>
        <time>2023-01-27T15:43:45Z</time>
      </trkpt>
      <trkpt lat="47.79127" lon="-3.64403">
        <ele>19.5</ele>
        <time>2023-01-27T15:43:46Z</time>
      </trkpt>
      <trkpt lat="47.79128" lon="-3.64404">
        <ele>19.5</ele>
        <time>2023-01-27T15:43:47Z</time>
      </trkpt>
      <trkpt lat="47.79129" lon="-3.64405">
        <ele>19.5</ele>
        <time>2023-01-27T15:43:48Z</time>
      </trkpt>
      <trkpt lat="47.7913" lon="-3.64406">
        <ele>19.4</ele>
        <time>2023-01-27T15:43:49Z</time>
      </trkpt>
      <trkpt lat="47.79131" lon="-3.64407">
        <ele>19.7</ele>
        <time>2023-01-27T15:43:50Z</time>
      </trkpt>
      <trkpt lat="47.79132" lon="-3.64407">
        <ele>19.9</ele>
        <time>2023-01-27T15:43:51Z</time>
      </trkpt>
      <trkpt lat="47.79134" lon="-3.64404">
        <ele>20.2</ele>
        <time>2023-01-27T15:43:52Z</time>
      </trkpt>
      <trkpt lat="47.79134" lon="-3.64403">
        <ele>20.4</ele>
        <time>2023-01-27T15:43:54Z</time>
      </trkpt>
      <trkpt lat="47.79134" lon="-3.64402">
        <ele>20.5</ele>
        <time>2023-01-27T15:43:55Z</time>
      </trkpt>
      <trkpt lat="47.79135" lon="-3.64401">
        <ele>20.8</ele>
        <time>2023-01-27T15:43:56Z</time>
      </trkpt>
      <trkpt lat="47.79136" lon="-3.64402">
        <ele>20.9</ele>
        <time>2023-01-27T15:43:58Z</time>
      </trkpt>
      <trkpt lat="47.79136" lon="-3.64402">
        <ele>21</ele>
        <time>2023-01-27T15:43:59Z</time>
      </trkpt>
      <trkpt lat="47.79137" lon="-3.64403">
        <ele>21.2</ele>
        <time>2023-01-27T15:44:00Z</time>
      </trkpt>
      <trkpt lat="47.79138" lon="-3.64403">
        <ele>21.3</ele>
        <time>2023-01-27T15:44:01Z</time>
      </trkpt>
      <trkpt lat="47.7914" lon="-3.64403">
        <ele>21.6</ele>
        <time>2023-01-27T15:44:02Z</time>
      </trkpt>
      <trkpt lat="47.7914" lon="-3.64403">
        <ele>21.7</ele>
        <time>2023-01-27T15:44:03Z</time>
      </trkpt>
      <trkpt lat="47.79141" lon="-3.64404">
        <ele>21.8</ele>
        <time>2023-01-27T15:44:04Z</time>
      </trkpt>
      <trkpt lat="47.79142" lon="-3.64403">
        <ele>21.9</ele>
        <time>2023-01-27T15:44:05Z</time>
      </trkpt>
      <trkpt lat="47.79142" lon="-3.64403">
        <ele>22</ele>
        <time>2023-01-27T15:44:06Z</time>
      </trkpt>
      <trkpt lat="47.79143" lon="-3.64403">
        <ele>22.1</ele>
        <time>2023-01-27T15:44:07Z</time>
      </trkpt>
      <trkpt lat="47.79143" lon="-3.64403">
        <ele>22.2</ele>
        <time>2023-01-27T15:44:08Z</time>
      </trkpt>
      <trkpt lat="47.79144" lon="-3.64404">
        <ele>22.3</ele>
        <time>2023-01-27T15:44:09Z</time>
      </trkpt>
      <trkpt lat="47.79145" lon="-3.64404">
        <ele>22.4</ele>
        <time>2023-01-27T15:44:10Z</time>
      </trkpt>
      <trkpt lat="47.79146" lon="-3.64404">
        <ele>22.6</ele>
        <time>2023-01-27T15:44:11Z</time>
      </trkpt>
      <trkpt lat="47.79149" lon="-3.64403">
        <ele>23</ele>
        <time>2023-01-27T15:44:12Z</time>
      </trkpt>
      <trkpt lat="47.7915" lon="-3.64403">
        <ele>23.1</ele>
        <time>2023-01-27T15:44:13Z</time>
      </trkpt>
      <trkpt lat="47.79151" lon="-3.64403">
        <ele>23.2</ele>
        <time>2023-01-27T15:44:14Z</time>
      </trkpt>
      <trkpt lat="47.79154" lon="-3.64402">
        <ele>23.6</ele>
        <time>2023-01-27T15:44:15Z</time>
      </trkpt>
      <trkpt lat="47.79156" lon="-3.644">
        <ele>23.9</ele>
        <time>2023-01-27T15:44:16Z</time>
      </trkpt>
      <trkpt lat="47.79159" lon="-3.64399">
        <ele>24.2</ele>
        <time>2023-01-27T15:44:17Z</time>
      </trkpt>
      <trkpt lat="47.79162" lon="-3.64398">
        <ele>24.4</ele>
        <time>2023-01-27T15:44:18Z</time>
      </trkpt>
      <trkpt lat="47.79165" lon="-3.64398">
        <ele>24.6</ele>
        <time>2023-01-27T15:44:19Z</time>
      </trkpt>
      <trkpt lat="47.79166" lon="-3.64398">
        <ele>24.6</ele>
        <time>2023-01-27T15:44:20Z</time>
      </trkpt>
      <trkpt lat="47.79169" lon="-3.64397">
        <ele>24.7</ele>
        <time>2023-01-27T15:44:21Z</time>
      </trkpt>
      <trkpt lat="47.7917" lon="-3.64397">
        <ele>24.8</ele>
        <time>2023-01-27T15:44:22Z</time>
      </trkpt>
      <trkpt lat="47.79172" lon="-3.64396">
        <ele>24.9</ele>
        <time>2023-01-27T15:44:23Z</time>
      </trkpt>
      <trkpt lat="47.79175" lon="-3.64396">
        <ele>25</ele>
        <time>2023-01-27T15:44:24Z</time>
      </trkpt>
      <trkpt lat="47.79179" lon="-3.64396">
        <ele>25.1</ele>
        <time>2023-01-27T15:44:25Z</time>
      </trkpt>
      <trkpt lat="47.7918" lon="-3.64395">
        <ele>25.2</ele>
        <time>2023-01-27T15:44:26Z</time>
      </trkpt>
      <trkpt lat="47.79182" lon="-3.64393">
        <ele>25.2</ele>
        <time>2023-01-27T15:44:27Z</time>
      </trkpt>
      <trkpt lat="47.79186" lon="-3.64393">
        <ele>25.3</ele>
        <time>2023-01-27T15:44:28Z</time>
      </trkpt>
      <trkpt lat="47.79189" lon="-3.64392">
        <ele>25.4</ele>
        <time>2023-01-27T15:44:29Z</time>
      </trkpt>
      <trkpt lat="47.79194" lon="-3.64389">
        <ele>25.5</ele>
        <time>2023-01-27T15:44:30Z</time>
      </trkpt>
      <trkpt lat="47.79197" lon="-3.64388">
        <ele>25.5</ele>
        <time>2023-01-27T15:44:32Z</time>
      </trkpt>
      <trkpt lat="47.79202" lon="-3.64386">
        <ele>25.5</ele>
        <time>2023-01-27T15:44:33Z</time>
      </trkpt>
      <trkpt lat="47.79205" lon="-3.64386">
        <ele>25.5</ele>
        <time>2023-01-27T15:44:34Z</time>
      </trkpt>
      <trkpt lat="47.79209" lon="-3.64385">
        <ele>25.5</ele>
        <time>2023-01-27T15:44:36Z</time>
      </trkpt>
      <trkpt lat="47.79213" lon="-3.64385">
        <ele>25.5</ele>
        <time>2023-01-27T15:44:37Z</time>
      </trkpt>
      <trkpt lat="47.79216" lon="-3.64384">
        <ele>25.5</ele>
        <time>2023-01-27T15:44:38Z</time>
      </trkpt>
      <trkpt lat="47.79218" lon="-3.64383">
        <ele>25.5</ele>
        <time>2023-01-27T15:44:39Z</time>
      </trkpt>
      <trkpt lat="47.7922" lon="-3.64382">
        <ele>25.5</ele>
        <time>2023-01-27T15:44:41Z</time>
      </trkpt>
      <trkpt lat="47.79224" lon="-3.6438">
        <ele>25.5</ele>
        <time>2023-01-27T15:44:42Z</time>
      </trkpt>
      <trkpt lat="47.79227" lon="-3.64378">
        <ele>25.5</ele>
        <time>2023-01-27T15:44:43Z</time>
      </trkpt>
      <trkpt lat="47.79231" lon="-3.64375">
        <ele>25.6</ele>
        <time>2023-01-27T15:44:44Z</time>
      </trkpt>
      <trkpt lat="47.79237" lon="-3.64372">
        <ele>25.6</ele>
        <time>2023-01-27T15:44:46Z</time>
      </trkpt>
      <trkpt lat="47.79239" lon="-3.6437">
        <ele>25.7</ele>
        <time>2023-01-27T15:44:47Z</time>
      </trkpt>
      <trkpt lat="47.79241" lon="-3.64368">
        <ele>25.7</ele>
        <time>2023-01-27T15:44:48Z</time>
      </trkpt>
      <trkpt lat="47.79244" lon="-3.64362">
        <ele>25.9</ele>
        <time>2023-01-27T15:44:50Z</time>
      </trkpt>
      <trkpt lat="47.79246" lon="-3.64359">
        <ele>25.9</ele>
        <time>2023-01-27T15:44:52Z</time>
      </trkpt>
      <trkpt lat="47.79249" lon="-3.64355">
        <ele>26</ele>
        <time>2023-01-27T15:44:53Z</time>
      </trkpt>
      <trkpt lat="47.79251" lon="-3.64354">
        <ele>26.1</ele>
        <time>2023-01-27T15:44:54Z</time>
      </trkpt>
      <trkpt lat="47.79253" lon="-3.64353">
        <ele>26.2</ele>
        <time>2023-01-27T15:44:55Z</time>
      </trkpt>
      <trkpt lat="47.79255" lon="-3.64353">
        <ele>26.3</ele>
        <time>2023-01-27T15:44:56Z</time>
      </trkpt>
      <trkpt lat="47.79258" lon="-3.64353">
        <ele>26.4</ele>
        <time>2023-01-27T15:44:57Z</time>
      </trkpt>
      <trkpt lat="47.79261" lon="-3.64353">
        <ele>26.5</ele>
        <time>2023-01-27T15:44:58Z</time>
      </trkpt>
      <trkpt lat="47.79263" lon="-3.64353">
        <ele>26.6</ele>
        <time>2023-01-27T15:45:00Z</time>
      </trkpt>
      <trkpt lat="47.79267" lon="-3.64352">
        <ele>26.7</ele>
        <time>2023-01-27T15:45:01Z</time>
      </trkpt>
      <trkpt lat="47.79268" lon="-3.6435">
        <ele>26.8</ele>
        <time>2023-01-27T15:45:02Z</time>
      </trkpt>
      <trkpt lat="47.7927" lon="-3.64347">
        <ele>26.8</ele>
        <time>2023-01-27T15:45:03Z</time>
      </trkpt>
      <trkpt lat="47.79271" lon="-3.64343">
        <ele>26.8</ele>
        <time>2023-01-27T15:45:04Z</time>
      </trkpt>
      <trkpt lat="47.79272" lon="-3.64338">
        <ele>26.9</ele>
        <time>2023-01-27T15:45:05Z</time>
      </trkpt>
      <trkpt lat="47.79274" lon="-3.64333">
        <ele>27</ele>
        <time>2023-01-27T15:45:06Z</time>
      </trkpt>
      <trkpt lat="47.79275" lon="-3.64328">
        <ele>27</ele>
        <time>2023-01-27T15:45:08Z</time>
      </trkpt>
      <trkpt lat="47.79277" lon="-3.64322">
        <ele>27.1</ele>
        <time>2023-01-27T15:45:09Z</time>
      </trkpt>
      <trkpt lat="47.79279" lon="-3.64319">
        <ele>27.1</ele>
        <time>2023-01-27T15:45:10Z</time>
      </trkpt>
      <trkpt lat="47.7928" lon="-3.64311">
        <ele>27.2</ele>
        <time>2023-01-27T15:45:12Z</time>
      </trkpt>
      <trkpt lat="47.79282" lon="-3.64307">
        <ele>27.3</ele>
        <time>2023-01-27T15:45:14Z</time>
      </trkpt>
      <trkpt lat="47.79284" lon="-3.64302">
        <ele>27.3</ele>
        <time>2023-01-27T15:45:15Z</time>
      </trkpt>
      <trkpt lat="47.79285" lon="-3.64297">
        <ele>27.4</ele>
        <time>2023-01-27T15:45:16Z</time>
      </trkpt>
      <trkpt lat="47.79288" lon="-3.64292">
        <ele>27.4</ele>
        <time>2023-01-27T15:45:17Z</time>
      </trkpt>
      <trkpt lat="47.7929" lon="-3.64286">
        <ele>27.5</ele>
        <time>2023-01-27T15:45:18Z</time>
      </trkpt>
      <trkpt lat="47.79289" lon="-3.64282">
        <ele>27.6</ele>
        <time>2023-01-27T15:45:20Z</time>
      </trkpt>
      <trkpt lat="47.79289" lon="-3.64274">
        <ele>27.7</ele>
        <time>2023-01-27T15:45:21Z</time>
      </trkpt>
      <trkpt lat="47.7929" lon="-3.64263">
        <ele>28.1</ele>
        <time>2023-01-27T15:45:23Z</time>
      </trkpt>
      <trkpt lat="47.79288" lon="-3.64259">
        <ele>28</ele>
        <time>2023-01-27T15:45:25Z</time>
      </trkpt>
      <trkpt lat="47.79287" lon="-3.64258">
        <ele>28</ele>
        <time>2023-01-27T15:45:26Z</time>
      </trkpt>
      <trkpt lat="47.79284" lon="-3.6426">
        <ele>28</ele>
        <time>2023-01-27T15:45:27Z</time>
      </trkpt>
      <trkpt lat="47.79283" lon="-3.64261">
        <ele>28</ele>
        <time>2023-01-27T15:45:28Z</time>
      </trkpt>
      <trkpt lat="47.79281" lon="-3.64264">
        <ele>28</ele>
        <time>2023-01-27T15:45:29Z</time>
      </trkpt>
      <trkpt lat="47.79278" lon="-3.64265">
        <ele>28</ele>
        <time>2023-01-27T15:45:30Z</time>
      </trkpt>
      <trkpt lat="47.79275" lon="-3.64267">
        <ele>28</ele>
        <time>2023-01-27T15:45:32Z</time>
      </trkpt>
      <trkpt lat="47.79272" lon="-3.6427">
        <ele>28</ele>
        <time>2023-01-27T15:45:33Z</time>
      </trkpt>
      <trkpt lat="47.79268" lon="-3.64273">
        <ele>28</ele>
        <time>2023-01-27T15:45:34Z</time>
      </trkpt>
      <trkpt lat="47.79266" lon="-3.64275">
        <ele>28</ele>
        <time>2023-01-27T15:45:36Z</time>
      </trkpt>
      <trkpt lat="47.79265" lon="-3.64276">
        <ele>28</ele>
        <time>2023-01-27T15:45:37Z</time>
      </trkpt>
      <trkpt lat="47.79264" lon="-3.64275">
        <ele>28</ele>
        <time>2023-01-27T15:45:38Z</time>
      </trkpt>
      <trkpt lat="47.79263" lon="-3.64275">
        <ele>28</ele>
        <time>2023-01-27T15:45:39Z</time>
      </trkpt>
      <trkpt lat="47.79263" lon="-3.64275">
        <ele>28</ele>
        <time>2023-01-27T15:45:40Z</time>
      </trkpt>
      <trkpt lat="47.79262" lon="-3.64274">
        <ele>28</ele>
        <time>2023-01-27T15:45:41Z</time>
      </trkpt>
      <trkpt lat="47.79262" lon="-3.64273">
        <ele>28</ele>
        <time>2023-01-27T15:45:42Z</time>
      </trkpt>
      <trkpt lat="47.79263" lon="-3.64272">
        <ele>28</ele>
        <time>2023-01-27T15:45:43Z</time>
      </trkpt>
      <trkpt lat="47.79263" lon="-3.64271">
        <ele>28</ele>
        <time>2023-01-27T15:45:44Z</time>
      </trkpt>
      <trkpt lat="47.79263" lon="-3.64269">
        <ele>28</ele>
        <time>2023-01-27T15:45:46Z</time>
      </trkpt>
      <trkpt lat="47.79263" lon="-3.64268">
        <ele>28</ele>
        <time>2023-01-27T15:45:47Z</time>
      </trkpt>
      <trkpt lat="47.79263" lon="-3.64268">
        <ele>28</ele>
        <time>2023-01-27T15:45:48Z</time>
      </trkpt>
      <trkpt lat="47.79263" lon="-3.64267">
        <ele>28</ele>
        <time>2023-01-27T15:45:49Z</time>
      </trkpt>
      <trkpt lat="47.79262" lon="-3.64266">
        <ele>28</ele>
        <time>2023-01-27T15:45:50Z</time>
      </trkpt>
      <trkpt lat="47.79262" lon="-3.64266">
        <ele>28</ele>
        <time>2023-01-27T15:45:51Z</time>
      </trkpt>
      <trkpt lat="47.79261" lon="-3.64265">
        <ele>28</ele>
        <time>2023-01-27T15:45:52Z</time>
      </trkpt>
      <trkpt lat="47.79259" lon="-3.64265">
        <ele>28.1</ele>
        <time>2023-01-27T15:45:54Z</time>
      </trkpt>
      <trkpt lat="47.79259" lon="-3.64265">
        <ele>28.1</ele>
        <time>2023-01-27T15:45:56Z</time>
      </trkpt>
      <trkpt lat="47.79258" lon="-3.64267">
        <ele>28.1</ele>
        <time>2023-01-27T15:45:57Z</time>
      </trkpt>
      <trkpt lat="47.79257" lon="-3.64267">
        <ele>28.1</ele>
        <time>2023-01-27T15:45:58Z</time>
      </trkpt>
      <trkpt lat="47.79257" lon="-3.64267">
        <ele>28.1</ele>
        <time>2023-01-27T15:45:59Z</time>
      </trkpt>
      <trkpt lat="47.79256" lon="-3.64268">
        <ele>28.1</ele>
        <time>2023-01-27T15:46:00Z</time>
      </trkpt>
      <trkpt lat="47.79256" lon="-3.64269">
        <ele>28.1</ele>
        <time>2023-01-27T15:46:01Z</time>
      </trkpt>
      <trkpt lat="47.79257" lon="-3.64271">
        <ele>28.1</ele>
        <time>2023-01-27T15:46:02Z</time>
      </trkpt>
      <trkpt lat="47.79257" lon="-3.64271">
        <ele>28.1</ele>
        <time>2023-01-27T15:46:03Z</time>
      </trkpt>
      <trkpt lat="47.79257" lon="-3.64272">
        <ele>28.1</ele>
        <time>2023-01-27T15:46:04Z</time>
      </trkpt>
      <trkpt lat="47.79257" lon="-3.64273">
        <ele>28.1</ele>
        <time>2023-01-27T15:46:05Z</time>
      </trkpt>
      <trkpt lat="47.79256" lon="-3.64274">
        <ele>28.2</ele>
        <time>2023-01-27T15:46:06Z</time>
      </trkpt>
      <trkpt lat="47.79255" lon="-3.64274">
        <ele>28.2</ele>
        <time>2023-01-27T15:46:07Z</time>
      </trkpt>
      <trkpt lat="47.79255" lon="-3.64274">
        <ele>28.2</ele>
        <time>2023-01-27T15:46:08Z</time>
      </trkpt>
      <trkpt lat="47.79255" lon="-3.64274">
        <ele>28.2</ele>
        <time>2023-01-27T15:46:09Z</time>
      </trkpt>
      <trkpt lat="47.79253" lon="-3.64275">
        <ele>28.2</ele>
        <time>2023-01-27T15:46:10Z</time>
      </trkpt>
      <trkpt lat="47.79252" lon="-3.64276">
        <ele>28.2</ele>
        <time>2023-01-27T15:46:11Z</time>
      </trkpt>
      <trkpt lat="47.79251" lon="-3.64277">
        <ele>28.2</ele>
        <time>2023-01-27T15:46:12Z</time>
      </trkpt>
      <trkpt lat="47.7925" lon="-3.64277">
        <ele>28.3</ele>
        <time>2023-01-27T15:46:13Z</time>
      </trkpt>
      <trkpt lat="47.79249" lon="-3.64278">
        <ele>28.3</ele>
        <time>2023-01-27T15:46:14Z</time>
      </trkpt>
      <trkpt lat="47.79246" lon="-3.64281">
        <ele>28.3</ele>
        <time>2023-01-27T15:46:16Z</time>
      </trkpt>
      <trkpt lat="47.79243" lon="-3.64283">
        <ele>28.4</ele>
        <time>2023-01-27T15:46:17Z</time>
      </trkpt>
      <trkpt lat="47.79239" lon="-3.64286">
        <ele>28.5</ele>
        <time>2023-01-27T15:46:18Z</time>
      </trkpt>
      <trkpt lat="47.79236" lon="-3.64287">
        <ele>28.6</ele>
        <time>2023-01-27T15:46:19Z</time>
      </trkpt>
      <trkpt lat="47.79232" lon="-3.64289">
        <ele>28.6</ele>
        <time>2023-01-27T15:46:20Z</time>
      </trkpt>
      <trkpt lat="47.79231" lon="-3.6429">
        <ele>28.7</ele>
        <time>2023-01-27T15:46:21Z</time>
      </trkpt>
      <trkpt lat="47.79227" lon="-3.64292">
        <ele>28.8</ele>
        <time>2023-01-27T15:46:22Z</time>
      </trkpt>
      <trkpt lat="47.79224" lon="-3.64296">
        <ele>28.8</ele>
        <time>2023-01-27T15:46:23Z</time>
      </trkpt>
      <trkpt lat="47.79221" lon="-3.64297">
        <ele>28.9</ele>
        <time>2023-01-27T15:46:24Z</time>
      </trkpt>
      <trkpt lat="47.7922" lon="-3.64297">
        <ele>28.9</ele>
        <time>2023-01-27T15:46:25Z</time>
      </trkpt>
      <trkpt lat="47.7922" lon="-3.64296">
        <ele>28.9</ele>
        <time>2023-01-27T15:46:26Z</time>
      </trkpt>
      <trkpt lat="47.79219" lon="-3.64296">
        <ele>29</ele>
        <time>2023-01-27T15:46:27Z</time>
      </trkpt>
      <trkpt lat="47.79219" lon="-3.64295">
        <ele>29</ele>
        <time>2023-01-27T15:46:28Z</time>
      </trkpt>
      <trkpt lat="47.79219" lon="-3.64295">
        <ele>29</ele>
        <time>2023-01-27T15:46:29Z</time>
      </trkpt>
      <trkpt lat="47.79219" lon="-3.64295">
        <ele>29</ele>
        <time>2023-01-27T15:46:30Z</time>
      </trkpt>
      <trkpt lat="47.79219" lon="-3.64296">
        <ele>29</ele>
        <time>2023-01-27T15:46:31Z</time>
      </trkpt>
      <trkpt lat="47.79219" lon="-3.64296">
        <ele>29</ele>
        <time>2023-01-27T15:46:33Z</time>
      </trkpt>
      <trkpt lat="47.79219" lon="-3.64297">
        <ele>29</ele>
        <time>2023-01-27T15:46:34Z</time>
      </trkpt>
      <trkpt lat="47.79219" lon="-3.64297">
        <ele>29</ele>
        <time>2023-01-27T15:46:36Z</time>
      </trkpt>
      <trkpt lat="47.79216" lon="-3.643">
        <ele>29</ele>
        <time>2023-01-27T15:46:41Z</time>
      </trkpt>
      <trkpt lat="47.79211" lon="-3.64301">
        <ele>29</ele>
        <time>2023-01-27T15:46:42Z</time>
      </trkpt>
      <trkpt lat="47.79206" lon="-3.64302">
        <ele>28.9</ele>
        <time>2023-01-27T15:46:44Z</time>
      </trkpt>
      <trkpt lat="47.79202" lon="-3.64302">
        <ele>28.8</ele>
        <time>2023-01-27T15:46:45Z</time>
      </trkpt>
      <trkpt lat="47.79199" lon="-3.64302">
        <ele>28.7</ele>
        <time>2023-01-27T15:46:46Z</time>
      </trkpt>
      <trkpt lat="47.79192" lon="-3.64302">
        <ele>28.5</ele>
        <time>2023-01-27T15:46:47Z</time>
      </trkpt>
      <trkpt lat="47.79187" lon="-3.64302">
        <ele>28.2</ele>
        <time>2023-01-27T15:46:48Z</time>
      </trkpt>
      <trkpt lat="47.7918" lon="-3.64303">
        <ele>27.7</ele>
        <time>2023-01-27T15:46:50Z</time>
      </trkpt>
      <trkpt lat="47.79175" lon="-3.64306">
        <ele>27.3</ele>
        <time>2023-01-27T15:46:52Z</time>
      </trkpt>
      <trkpt lat="47.7917" lon="-3.64308">
        <ele>26.9</ele>
        <time>2023-01-27T15:46:53Z</time>
      </trkpt>
      <trkpt lat="47.79165" lon="-3.64308">
        <ele>26.4</ele>
        <time>2023-01-27T15:46:54Z</time>
      </trkpt>
      <trkpt lat="47.7916" lon="-3.64306">
        <ele>25.9</ele>
        <time>2023-01-27T15:46:55Z</time>
      </trkpt>
      <trkpt lat="47.79156" lon="-3.64302">
        <ele>25.5</ele>
        <time>2023-01-27T15:46:56Z</time>
      </trkpt>
      <trkpt lat="47.79151" lon="-3.64298">
        <ele>25</ele>
        <time>2023-01-27T15:46:57Z</time>
      </trkpt>
      <trkpt lat="47.79146" lon="-3.64297">
        <ele>24.6</ele>
        <time>2023-01-27T15:46:58Z</time>
      </trkpt>
      <trkpt lat="47.79142" lon="-3.64295">
        <ele>24.2</ele>
        <time>2023-01-27T15:46:59Z</time>
      </trkpt>
      <trkpt lat="47.79139" lon="-3.64291">
        <ele>23.9</ele>
        <time>2023-01-27T15:47:00Z</time>
      </trkpt>
      <trkpt lat="47.79132" lon="-3.64284">
        <ele>23.4</ele>
        <time>2023-01-27T15:47:01Z</time>
      </trkpt>
      <trkpt lat="47.79128" lon="-3.64278">
        <ele>23.1</ele>
        <time>2023-01-27T15:47:02Z</time>
      </trkpt>
      <trkpt lat="47.79125" lon="-3.64271">
        <ele>22.9</ele>
        <time>2023-01-27T15:47:03Z</time>
      </trkpt>
      <trkpt lat="47.79122" lon="-3.64265">
        <ele>22.7</ele>
        <time>2023-01-27T15:47:04Z</time>
      </trkpt>
      <trkpt lat="47.7912" lon="-3.64257">
        <ele>22.5</ele>
        <time>2023-01-27T15:47:05Z</time>
      </trkpt>
      <trkpt lat="47.79118" lon="-3.64252">
        <ele>22.4</ele>
        <time>2023-01-27T15:47:06Z</time>
      </trkpt>
      <trkpt lat="47.79117" lon="-3.6425">
        <ele>22.4</ele>
        <time>2023-01-27T15:47:07Z</time>
      </trkpt>
      <trkpt lat="47.79117" lon="-3.64248">
        <ele>22.4</ele>
        <time>2023-01-27T15:47:08Z</time>
      </trkpt>
      <trkpt lat="47.79118" lon="-3.64242">
        <ele>22.4</ele>
        <time>2023-01-27T15:47:09Z</time>
      </trkpt>
      <trkpt lat="47.79117" lon="-3.64235">
        <ele>22.4</ele>
        <time>2023-01-27T15:47:10Z</time>
      </trkpt>
      <trkpt lat="47.79117" lon="-3.64229">
        <ele>22.3</ele>
        <time>2023-01-27T15:47:11Z</time>
      </trkpt>
      <trkpt lat="47.79116" lon="-3.64221">
        <ele>22.3</ele>
        <time>2023-01-27T15:47:13Z</time>
      </trkpt>
      <trkpt lat="47.79116" lon="-3.64216">
        <ele>22.2</ele>
        <time>2023-01-27T15:47:14Z</time>
      </trkpt>
      <trkpt lat="47.79117" lon="-3.6421">
        <ele>22.2</ele>
        <time>2023-01-27T15:47:15Z</time>
      </trkpt>
      <trkpt lat="47.79117" lon="-3.64205">
        <ele>22.1</ele>
        <time>2023-01-27T15:47:16Z</time>
      </trkpt>
      <trkpt lat="47.79117" lon="-3.64201">
        <ele>22.1</ele>
        <time>2023-01-27T15:47:17Z</time>
      </trkpt>
      <trkpt lat="47.79117" lon="-3.64196">
        <ele>22.1</ele>
        <time>2023-01-27T15:47:18Z</time>
      </trkpt>
      <trkpt lat="47.79117" lon="-3.64194">
        <ele>22</ele>
        <time>2023-01-27T15:47:19Z</time>
      </trkpt>
      <trkpt lat="47.79116" lon="-3.64192">
        <ele>22</ele>
        <time>2023-01-27T15:47:20Z</time>
      </trkpt>
      <trkpt lat="47.79116" lon="-3.64191">
        <ele>22</ele>
        <time>2023-01-27T15:47:22Z</time>
      </trkpt>
      <trkpt lat="47.79115" lon="-3.6419">
        <ele>22</ele>
        <time>2023-01-27T15:47:23Z</time>
      </trkpt>
      <trkpt lat="47.79115" lon="-3.64189">
        <ele>22</ele>
        <time>2023-01-27T15:47:24Z</time>
      </trkpt>
      <trkpt lat="47.79115" lon="-3.64188">
        <ele>22</ele>
        <time>2023-01-27T15:47:25Z</time>
      </trkpt>
      <trkpt lat="47.79115" lon="-3.64188">
        <ele>22</ele>
        <time>2023-01-27T15:47:26Z</time>
      </trkpt>
      <trkpt lat="47.79115" lon="-3.64187">
        <ele>22</ele>
        <time>2023-01-27T15:47:27Z</time>
      </trkpt>
      <trkpt lat="47.79115" lon="-3.64186">
        <ele>22</ele>
        <time>2023-01-27T15:47:28Z</time>
      </trkpt>
      <trkpt lat="47.79115" lon="-3.64185">
        <ele>21.9</ele>
        <time>2023-01-27T15:47:29Z</time>
      </trkpt>
      <trkpt lat="47.79114" lon="-3.64184">
        <ele>21.9</ele>
        <time>2023-01-27T15:47:30Z</time>
      </trkpt>
      <trkpt lat="47.79114" lon="-3.64183">
        <ele>21.9</ele>
        <time>2023-01-27T15:47:31Z</time>
      </trkpt>
      <trkpt lat="47.79114" lon="-3.64182">
        <ele>21.9</ele>
        <time>2023-01-27T15:47:56Z</time>
      </trkpt>
      <trkpt lat="47.79114" lon="-3.64181">
        <ele>21.9</ele>
        <time>2023-01-27T15:47:57Z</time>
      </trkpt>
      <trkpt lat="47.79114" lon="-3.6418">
        <ele>21.9</ele>
        <time>2023-01-27T15:47:58Z</time>
      </trkpt>
      <trkpt lat="47.79113" lon="-3.64175">
        <ele>21.9</ele>
        <time>2023-01-27T15:47:59Z</time>
      </trkpt>
      <trkpt lat="47.79111" lon="-3.64168">
        <ele>21.8</ele>
        <time>2023-01-27T15:48:00Z</time>
      </trkpt>
      <trkpt lat="47.79109" lon="-3.64162">
        <ele>21.8</ele>
        <time>2023-01-27T15:48:01Z</time>
      </trkpt>
      <trkpt lat="47.79108" lon="-3.64159">
        <ele>21.8</ele>
        <time>2023-01-27T15:48:02Z</time>
      </trkpt>
      <trkpt lat="47.79107" lon="-3.64155">
        <ele>21.8</ele>
        <time>2023-01-27T15:48:03Z</time>
      </trkpt>
      <trkpt lat="47.79106" lon="-3.64151">
        <ele>21.7</ele>
        <time>2023-01-27T15:48:04Z</time>
      </trkpt>
      <trkpt lat="47.79105" lon="-3.64146">
        <ele>21.7</ele>
        <time>2023-01-27T15:48:06Z</time>
      </trkpt>
      <trkpt lat="47.79105" lon="-3.64142">
        <ele>21.7</ele>
        <time>2023-01-27T15:48:07Z</time>
      </trkpt>
      <trkpt lat="47.79105" lon="-3.64136">
        <ele>21.8</ele>
        <time>2023-01-27T15:48:08Z</time>
      </trkpt>
      <trkpt lat="47.79105" lon="-3.64134">
        <ele>21.8</ele>
        <time>2023-01-27T15:48:09Z</time>
      </trkpt>
      <trkpt lat="47.79104" lon="-3.64128">
        <ele>21.8</ele>
        <time>2023-01-27T15:48:10Z</time>
      </trkpt>
      <trkpt lat="47.79105" lon="-3.64121">
        <ele>21.8</ele>
        <time>2023-01-27T15:48:12Z</time>
      </trkpt>
      <trkpt lat="47.79105" lon="-3.64118">
        <ele>21.8</ele>
        <time>2023-01-27T15:48:13Z</time>
      </trkpt>
      <trkpt lat="47.79106" lon="-3.64116">
        <ele>21.8</ele>
        <time>2023-01-27T15:48:14Z</time>
      </trkpt>
      <trkpt lat="47.79106" lon="-3.64108">
        <ele>21.9</ele>
        <time>2023-01-27T15:48:15Z</time>
      </trkpt>
      <trkpt lat="47.79106" lon="-3.64104">
        <ele>21.9</ele>
        <time>2023-01-27T15:48:16Z</time>
      </trkpt>
      <trkpt lat="47.79105" lon="-3.64097">
        <ele>21.9</ele>
        <time>2023-01-27T15:48:18Z</time>
      </trkpt>
      <trkpt lat="47.79105" lon="-3.64093">
        <ele>21.9</ele>
        <time>2023-01-27T15:48:19Z</time>
      </trkpt>
      <trkpt lat="47.79108" lon="-3.64084">
        <ele>22</ele>
        <time>2023-01-27T15:48:21Z</time>
      </trkpt>
      <trkpt lat="47.79109" lon="-3.64079">
        <ele>22</ele>
        <time>2023-01-27T15:48:23Z</time>
      </trkpt>
      <trkpt lat="47.79113" lon="-3.64072">
        <ele>22.1</ele>
        <time>2023-01-27T15:48:24Z</time>
      </trkpt>
      <trkpt lat="47.79116" lon="-3.64068">
        <ele>22.2</ele>
        <time>2023-01-27T15:48:26Z</time>
      </trkpt>
      <trkpt lat="47.79119" lon="-3.64064">
        <ele>22.2</ele>
        <time>2023-01-27T15:48:27Z</time>
      </trkpt>
      <trkpt lat="47.79121" lon="-3.64062">
        <ele>22.3</ele>
        <time>2023-01-27T15:48:28Z</time>
      </trkpt>
      <trkpt lat="47.79125" lon="-3.6406">
        <ele>22.3</ele>
        <time>2023-01-27T15:48:29Z</time>
      </trkpt>
      <trkpt lat="47.79126" lon="-3.64061">
        <ele>22.3</ele>
        <time>2023-01-27T15:48:30Z</time>
      </trkpt>
      <trkpt lat="47.79128" lon="-3.64062">
        <ele>22.3</ele>
        <time>2023-01-27T15:48:31Z</time>
      </trkpt>
      <trkpt lat="47.79129" lon="-3.64063">
        <ele>22.3</ele>
        <time>2023-01-27T15:48:32Z</time>
      </trkpt>
      <trkpt lat="47.7913" lon="-3.64065">
        <ele>22.3</ele>
        <time>2023-01-27T15:48:33Z</time>
      </trkpt>
      <trkpt lat="47.79131" lon="-3.64066">
        <ele>22.3</ele>
        <time>2023-01-27T15:48:34Z</time>
      </trkpt>
      <trkpt lat="47.79132" lon="-3.64068">
        <ele>22.2</ele>
        <time>2023-01-27T15:48:35Z</time>
      </trkpt>
      <trkpt lat="47.79133" lon="-3.64069">
        <ele>22</ele>
        <time>2023-01-27T15:48:36Z</time>
      </trkpt>
      <trkpt lat="47.79134" lon="-3.6407">
        <ele>22.1</ele>
        <time>2023-01-27T15:48:37Z</time>
      </trkpt>
      <trkpt lat="47.79134" lon="-3.64073">
        <ele>22.3</ele>
        <time>2023-01-27T15:48:38Z</time>
      </trkpt>
      <trkpt lat="47.79136" lon="-3.64077">
        <ele>22.7</ele>
        <time>2023-01-27T15:48:40Z</time>
      </trkpt>
      <trkpt lat="47.79137" lon="-3.6408">
        <ele>23</ele>
        <time>2023-01-27T15:48:42Z</time>
      </trkpt>
      <trkpt lat="47.79139" lon="-3.64081">
        <ele>23.2</ele>
        <time>2023-01-27T15:48:43Z</time>
      </trkpt>
      <trkpt lat="47.79142" lon="-3.64083">
        <ele>23.6</ele>
        <time>2023-01-27T15:48:45Z</time>
      </trkpt>
      <trkpt lat="47.79145" lon="-3.64084">
        <ele>23.9</ele>
        <time>2023-01-27T15:48:46Z</time>
      </trkpt>
      <trkpt lat="47.79146" lon="-3.64085">
        <ele>24.1</ele>
        <time>2023-01-27T15:48:47Z</time>
      </trkpt>
      <trkpt lat="47.79148" lon="-3.64089">
        <ele>24.4</ele>
        <time>2023-01-27T15:48:49Z</time>
      </trkpt>
      <trkpt lat="47.79149" lon="-3.6409">
        <ele>24.6</ele>
        <time>2023-01-27T15:48:50Z</time>
      </trkpt>
      <trkpt lat="47.79151" lon="-3.64094">
        <ele>25</ele>
        <time>2023-01-27T15:48:51Z</time>
      </trkpt>
      <trkpt lat="47.79152" lon="-3.64096">
        <ele>25.2</ele>
        <time>2023-01-27T15:48:52Z</time>
      </trkpt>
      <trkpt lat="47.79154" lon="-3.64098">
        <ele>25.4</ele>
        <time>2023-01-27T15:48:54Z</time>
      </trkpt>
      <trkpt lat="47.79155" lon="-3.641">
        <ele>25.6</ele>
        <time>2023-01-27T15:48:55Z</time>
      </trkpt>
      <trkpt lat="47.79155" lon="-3.641">
        <ele>25.7</ele>
        <time>2023-01-27T15:48:57Z</time>
      </trkpt>
      <trkpt lat="47.79156" lon="-3.641">
        <ele>25.7</ele>
        <time>2023-01-27T15:48:58Z</time>
      </trkpt>
      <trkpt lat="47.79156" lon="-3.64101">
        <ele>25.8</ele>
        <time>2023-01-27T15:48:59Z</time>
      </trkpt>
      <trkpt lat="47.79157" lon="-3.64101">
        <ele>25.8</ele>
        <time>2023-01-27T15:49:00Z</time>
      </trkpt>
      <trkpt lat="47.79157" lon="-3.64101">
        <ele>25.9</ele>
        <time>2023-01-27T15:49:01Z</time>
      </trkpt>
      <trkpt lat="47.79158" lon="-3.64102">
        <ele>26</ele>
        <time>2023-01-27T15:49:02Z</time>
      </trkpt>
      <trkpt lat="47.79164" lon="-3.64102">
        <ele>26.7</ele>
        <time>2023-01-27T15:49:04Z</time>
      </trkpt>
      <trkpt lat="47.79167" lon="-3.64102">
        <ele>27</ele>
        <time>2023-01-27T15:49:06Z</time>
      </trkpt>
      <trkpt lat="47.79171" lon="-3.64102">
        <ele>27.4</ele>
        <time>2023-01-27T15:49:07Z</time>
      </trkpt>
      <trkpt lat="47.79172" lon="-3.64102">
        <ele>27.5</ele>
        <time>2023-01-27T15:49:08Z</time>
      </trkpt>
      <trkpt lat="47.79173" lon="-3.64101">
        <ele>27.7</ele>
        <time>2023-01-27T15:49:09Z</time>
      </trkpt>
      <trkpt lat="47.79174" lon="-3.64099">
        <ele>27.9</ele>
        <time>2023-01-27T15:49:10Z</time>
      </trkpt>
      <trkpt lat="47.79175" lon="-3.64098">
        <ele>28</ele>
        <time>2023-01-27T15:49:11Z</time>
      </trkpt>
      <trkpt lat="47.79178" lon="-3.64098">
        <ele>28.4</ele>
        <time>2023-01-27T15:49:13Z</time>
      </trkpt>
      <trkpt lat="47.79181" lon="-3.64098">
        <ele>28.7</ele>
        <time>2023-01-27T15:49:14Z</time>
      </trkpt>
      <trkpt lat="47.79185" lon="-3.64097">
        <ele>29.2</ele>
        <time>2023-01-27T15:49:15Z</time>
      </trkpt>
      <trkpt lat="47.79186" lon="-3.64097">
        <ele>29.3</ele>
        <time>2023-01-27T15:49:16Z</time>
      </trkpt>
      <trkpt lat="47.7919" lon="-3.64094">
        <ele>29.7</ele>
        <time>2023-01-27T15:49:17Z</time>
      </trkpt>
      <trkpt lat="47.79191" lon="-3.64093">
        <ele>29.9</ele>
        <time>2023-01-27T15:49:18Z</time>
      </trkpt>
      <trkpt lat="47.79194" lon="-3.64091">
        <ele>30.3</ele>
        <time>2023-01-27T15:49:19Z</time>
      </trkpt>
      <trkpt lat="47.79196" lon="-3.6409">
        <ele>30.6</ele>
        <time>2023-01-27T15:49:20Z</time>
      </trkpt>
      <trkpt lat="47.79199" lon="-3.64088">
        <ele>30.8</ele>
        <time>2023-01-27T15:49:22Z</time>
      </trkpt>
      <trkpt lat="47.792" lon="-3.64087">
        <ele>31</ele>
        <time>2023-01-27T15:49:23Z</time>
      </trkpt>
      <trkpt lat="47.79203" lon="-3.64086">
        <ele>31.3</ele>
        <time>2023-01-27T15:49:24Z</time>
      </trkpt>
      <trkpt lat="47.79204" lon="-3.64085">
        <ele>31.5</ele>
        <time>2023-01-27T15:49:26Z</time>
      </trkpt>
      <trkpt lat="47.79205" lon="-3.64085">
        <ele>31.6</ele>
        <time>2023-01-27T15:49:27Z</time>
      </trkpt>
      <trkpt lat="47.79206" lon="-3.64086">
        <ele>31.8</ele>
        <time>2023-01-27T15:49:28Z</time>
      </trkpt>
      <trkpt lat="47.79208" lon="-3.64087">
        <ele>32</ele>
        <time>2023-01-27T15:49:30Z</time>
      </trkpt>
      <trkpt lat="47.79209" lon="-3.64086">
        <ele>32</ele>
        <time>2023-01-27T15:49:31Z</time>
      </trkpt>
      <trkpt lat="47.79209" lon="-3.64085">
        <ele>32.1</ele>
        <time>2023-01-27T15:49:32Z</time>
      </trkpt>
      <trkpt lat="47.7921" lon="-3.64085">
        <ele>32.1</ele>
        <time>2023-01-27T15:49:33Z</time>
      </trkpt>
      <trkpt lat="47.7921" lon="-3.64084">
        <ele>32.1</ele>
        <time>2023-01-27T15:49:34Z</time>
      </trkpt>
      <trkpt lat="47.7921" lon="-3.64084">
        <ele>32.1</ele>
        <time>2023-01-27T15:49:35Z</time>
      </trkpt>
      <trkpt lat="47.79209" lon="-3.64083">
        <ele>32.1</ele>
        <time>2023-01-27T15:49:36Z</time>
      </trkpt>
      <trkpt lat="47.79209" lon="-3.64083">
        <ele>32.1</ele>
        <time>2023-01-27T15:49:37Z</time>
      </trkpt>
      <trkpt lat="47.79209" lon="-3.64083">
        <ele>32.1</ele>
        <time>2023-01-27T15:49:38Z</time>
      </trkpt>
      <trkpt lat="47.79209" lon="-3.64082">
        <ele>32.1</ele>
        <time>2023-01-27T15:49:39Z</time>
      </trkpt>
      <trkpt lat="47.7921" lon="-3.64081">
        <ele>32.2</ele>
        <time>2023-01-27T15:49:40Z</time>
      </trkpt>
      <trkpt lat="47.7921" lon="-3.64081">
        <ele>32.2</ele>
        <time>2023-01-27T15:49:41Z</time>
      </trkpt>
      <trkpt lat="47.79211" lon="-3.6408">
        <ele>32.2</ele>
        <time>2023-01-27T15:49:42Z</time>
      </trkpt>
      <trkpt lat="47.79211" lon="-3.64079">
        <ele>32.2</ele>
        <time>2023-01-27T15:49:43Z</time>
      </trkpt>
      <trkpt lat="47.79212" lon="-3.64078">
        <ele>32.3</ele>
        <time>2023-01-27T15:49:44Z</time>
      </trkpt>
      <trkpt lat="47.79213" lon="-3.64077">
        <ele>32.3</ele>
        <time>2023-01-27T15:49:45Z</time>
      </trkpt>
      <trkpt lat="47.79214" lon="-3.64075">
        <ele>32.4</ele>
        <time>2023-01-27T15:49:46Z</time>
      </trkpt>
      <trkpt lat="47.79215" lon="-3.64074">
        <ele>32.4</ele>
        <time>2023-01-27T15:49:47Z</time>
      </trkpt>
      <trkpt lat="47.79216" lon="-3.64074">
        <ele>32.5</ele>
        <time>2023-01-27T15:49:48Z</time>
      </trkpt>
      <trkpt lat="47.79217" lon="-3.64073">
        <ele>32.5</ele>
        <time>2023-01-27T15:49:49Z</time>
      </trkpt>
      <trkpt lat="47.79218" lon="-3.64073">
        <ele>32.5</ele>
        <time>2023-01-27T15:49:50Z</time>
      </trkpt>
      <trkpt lat="47.7922" lon="-3.64071">
        <ele>32.6</ele>
        <time>2023-01-27T15:49:51Z</time>
      </trkpt>
      <trkpt lat="47.79221" lon="-3.64072">
        <ele>32.6</ele>
        <time>2023-01-27T15:49:52Z</time>
      </trkpt>
      <trkpt lat="47.79221" lon="-3.64072">
        <ele>32.6</ele>
        <time>2023-01-27T15:49:53Z</time>
      </trkpt>
      <trkpt lat="47.79222" lon="-3.64072">
        <ele>32.7</ele>
        <time>2023-01-27T15:49:54Z</time>
      </trkpt>
      <trkpt lat="47.79223" lon="-3.64072">
        <ele>32.7</ele>
        <time>2023-01-27T15:49:55Z</time>
      </trkpt>
      <trkpt lat="47.79223" lon="-3.64072">
        <ele>32.7</ele>
        <time>2023-01-27T15:49:56Z</time>
      </trkpt>
      <trkpt lat="47.79224" lon="-3.64072">
        <ele>32.7</ele>
        <time>2023-01-27T15:49:57Z</time>
      </trkpt>
      <trkpt lat="47.79225" lon="-3.64071">
        <ele>32.7</ele>
        <time>2023-01-27T15:49:59Z</time>
      </trkpt>
      <trkpt lat="47.79225" lon="-3.64071">
        <ele>32.8</ele>
        <time>2023-01-27T15:49:59Z</time>
      </trkpt>
      <trkpt lat="47.79227" lon="-3.64069">
        <ele>32.8</ele>
        <time>2023-01-27T15:50:00Z</time>
      </trkpt>
      <trkpt lat="47.79227" lon="-3.64068">
        <ele>32.9</ele>
        <time>2023-01-27T15:50:02Z</time>
      </trkpt>
      <trkpt lat="47.79228" lon="-3.64067">
        <ele>32.9</ele>
        <time>2023-01-27T15:50:03Z</time>
      </trkpt>
      <trkpt lat="47.79229" lon="-3.64066">
        <ele>32.9</ele>
        <time>2023-01-27T15:50:04Z</time>
      </trkpt>
      <trkpt lat="47.7923" lon="-3.64065">
        <ele>33</ele>
        <time>2023-01-27T15:50:05Z</time>
      </trkpt>
      <trkpt lat="47.79231" lon="-3.64064">
        <ele>33</ele>
        <time>2023-01-27T15:50:07Z</time>
      </trkpt>
      <trkpt lat="47.79231" lon="-3.64064">
        <ele>33</ele>
        <time>2023-01-27T15:50:08Z</time>
      </trkpt>
      <trkpt lat="47.79232" lon="-3.64063">
        <ele>33.1</ele>
        <time>2023-01-27T15:50:09Z</time>
      </trkpt>
      <trkpt lat="47.79233" lon="-3.64062">
        <ele>33.1</ele>
        <time>2023-01-27T15:50:10Z</time>
      </trkpt>
      <trkpt lat="47.79234" lon="-3.64061">
        <ele>33.1</ele>
        <time>2023-01-27T15:50:15Z</time>
      </trkpt>
      <trkpt lat="47.79235" lon="-3.6406">
        <ele>33.2</ele>
        <time>2023-01-27T15:50:16Z</time>
      </trkpt>
      <trkpt lat="47.79236" lon="-3.64059">
        <ele>33.2</ele>
        <time>2023-01-27T15:50:17Z</time>
      </trkpt>
      <trkpt lat="47.79239" lon="-3.64055">
        <ele>33.4</ele>
        <time>2023-01-27T15:50:18Z</time>
      </trkpt>
      <trkpt lat="47.7924" lon="-3.64053">
        <ele>33.4</ele>
        <time>2023-01-27T15:50:19Z</time>
      </trkpt>
      <trkpt lat="47.79245" lon="-3.64049">
        <ele>33.6</ele>
        <time>2023-01-27T15:50:20Z</time>
      </trkpt>
      <trkpt lat="47.79247" lon="-3.64045">
        <ele>33.9</ele>
        <time>2023-01-27T15:50:22Z</time>
      </trkpt>
      <trkpt lat="47.7925" lon="-3.64042">
        <ele>33.8</ele>
        <time>2023-01-27T15:50:23Z</time>
      </trkpt>
      <trkpt lat="47.79251" lon="-3.64041">
        <ele>33.7</ele>
        <time>2023-01-27T15:50:24Z</time>
      </trkpt>
      <trkpt lat="47.79254" lon="-3.64038">
        <ele>33.6</ele>
        <time>2023-01-27T15:50:25Z</time>
      </trkpt>
      <trkpt lat="47.79254" lon="-3.64037">
        <ele>33.5</ele>
        <time>2023-01-27T15:50:26Z</time>
      </trkpt>
      <trkpt lat="47.79257" lon="-3.64033">
        <ele>33.3</ele>
        <time>2023-01-27T15:50:27Z</time>
      </trkpt>
      <trkpt lat="47.79258" lon="-3.64031">
        <ele>33.3</ele>
        <time>2023-01-27T15:50:28Z</time>
      </trkpt>
      <trkpt lat="47.79261" lon="-3.64028">
        <ele>33.1</ele>
        <time>2023-01-27T15:50:29Z</time>
      </trkpt>
      <trkpt lat="47.79261" lon="-3.64027">
        <ele>33.1</ele>
        <time>2023-01-27T15:50:30Z</time>
      </trkpt>
      <trkpt lat="47.79262" lon="-3.64026">
        <ele>33</ele>
        <time>2023-01-27T15:50:31Z</time>
      </trkpt>
      <trkpt lat="47.79264" lon="-3.64024">
        <ele>32.9</ele>
        <time>2023-01-27T15:50:32Z</time>
      </trkpt>
      <trkpt lat="47.79265" lon="-3.6402">
        <ele>32.8</ele>
        <time>2023-01-27T15:50:33Z</time>
      </trkpt>
      <trkpt lat="47.79266" lon="-3.64019">
        <ele>32.8</ele>
        <time>2023-01-27T15:50:34Z</time>
      </trkpt>
      <trkpt lat="47.79267" lon="-3.64018">
        <ele>32.7</ele>
        <time>2023-01-27T15:50:35Z</time>
      </trkpt>
      <trkpt lat="47.7927" lon="-3.64015">
        <ele>32.5</ele>
        <time>2023-01-27T15:50:36Z</time>
      </trkpt>
      <trkpt lat="47.79272" lon="-3.64011">
        <ele>32.4</ele>
        <time>2023-01-27T15:50:38Z</time>
      </trkpt>
      <trkpt lat="47.79273" lon="-3.64007">
        <ele>32.3</ele>
        <time>2023-01-27T15:50:39Z</time>
      </trkpt>
      <trkpt lat="47.79274" lon="-3.64005">
        <ele>32.2</ele>
        <time>2023-01-27T15:50:40Z</time>
      </trkpt>
      <trkpt lat="47.79276" lon="-3.64003">
        <ele>32.1</ele>
        <time>2023-01-27T15:50:41Z</time>
      </trkpt>
      <trkpt lat="47.79279" lon="-3.64">
        <ele>31.9</ele>
        <time>2023-01-27T15:50:42Z</time>
      </trkpt>
      <trkpt lat="47.79282" lon="-3.63997">
        <ele>31.8</ele>
        <time>2023-01-27T15:50:43Z</time>
      </trkpt>
      <trkpt lat="47.79284" lon="-3.63995">
        <ele>31.6</ele>
        <time>2023-01-27T15:50:44Z</time>
      </trkpt>
      <trkpt lat="47.79285" lon="-3.63994">
        <ele>31.6</ele>
        <time>2023-01-27T15:50:45Z</time>
      </trkpt>
      <trkpt lat="47.79288" lon="-3.6399">
        <ele>31.4</ele>
        <time>2023-01-27T15:50:46Z</time>
      </trkpt>
      <trkpt lat="47.79289" lon="-3.63989">
        <ele>31.4</ele>
        <time>2023-01-27T15:50:47Z</time>
      </trkpt>
      <trkpt lat="47.79291" lon="-3.63985">
        <ele>31.2</ele>
        <time>2023-01-27T15:50:48Z</time>
      </trkpt>
      <trkpt lat="47.79292" lon="-3.63984">
        <ele>31.2</ele>
        <time>2023-01-27T15:50:49Z</time>
      </trkpt>
      <trkpt lat="47.79294" lon="-3.63978">
        <ele>31</ele>
        <time>2023-01-27T15:50:50Z</time>
      </trkpt>
      <trkpt lat="47.79294" lon="-3.63975">
        <ele>30.9</ele>
        <time>2023-01-27T15:50:51Z</time>
      </trkpt>
      <trkpt lat="47.79295" lon="-3.63971">
        <ele>30.7</ele>
        <time>2023-01-27T15:50:52Z</time>
      </trkpt>
      <trkpt lat="47.79296" lon="-3.63966">
        <ele>30.6</ele>
        <time>2023-01-27T15:50:53Z</time>
      </trkpt>
      <trkpt lat="47.79296" lon="-3.63962">
        <ele>30.5</ele>
        <time>2023-01-27T15:50:54Z</time>
      </trkpt>
      <trkpt lat="47.79296" lon="-3.63957">
        <ele>30.3</ele>
        <time>2023-01-27T15:50:55Z</time>
      </trkpt>
      <trkpt lat="47.79295" lon="-3.63956">
        <ele>30.3</ele>
        <time>2023-01-27T15:50:56Z</time>
      </trkpt>
      <trkpt lat="47.79294" lon="-3.63951">
        <ele>30.1</ele>
        <time>2023-01-27T15:50:57Z</time>
      </trkpt>
      <trkpt lat="47.79293" lon="-3.63949">
        <ele>30</ele>
        <time>2023-01-27T15:50:58Z</time>
      </trkpt>
      <trkpt lat="47.79293" lon="-3.63943">
        <ele>29.9</ele>
        <time>2023-01-27T15:50:59Z</time>
      </trkpt>
      <trkpt lat="47.79293" lon="-3.63941">
        <ele>29.8</ele>
        <time>2023-01-27T15:51:00Z</time>
      </trkpt>
      <trkpt lat="47.79296" lon="-3.63938">
        <ele>29.6</ele>
        <time>2023-01-27T15:51:01Z</time>
      </trkpt>
      <trkpt lat="47.79298" lon="-3.63938">
        <ele>29.6</ele>
        <time>2023-01-27T15:51:02Z</time>
      </trkpt>
      <trkpt lat="47.79301" lon="-3.6394">
        <ele>29.4</ele>
        <time>2023-01-27T15:51:04Z</time>
      </trkpt>
      <trkpt lat="47.79302" lon="-3.6394">
        <ele>29.4</ele>
        <time>2023-01-27T15:51:05Z</time>
      </trkpt>
      <trkpt lat="47.79302" lon="-3.63939">
        <ele>29.1</ele>
        <time>2023-01-27T15:51:06Z</time>
      </trkpt>
      <trkpt lat="47.79305" lon="-3.63941">
        <ele>29.3</ele>
        <time>2023-01-27T15:51:08Z</time>
      </trkpt>
      <trkpt lat="47.79309" lon="-3.63947">
        <ele>29.5</ele>
        <time>2023-01-27T15:51:10Z</time>
      </trkpt>
      <trkpt lat="47.79312" lon="-3.63951">
        <ele>29.6</ele>
        <time>2023-01-27T15:51:12Z</time>
      </trkpt>
      <trkpt lat="47.79314" lon="-3.63954">
        <ele>29.7</ele>
        <time>2023-01-27T15:51:13Z</time>
      </trkpt>
      <trkpt lat="47.79316" lon="-3.63957">
        <ele>29.8</ele>
        <time>2023-01-27T15:51:14Z</time>
      </trkpt>
      <trkpt lat="47.79317" lon="-3.63965">
        <ele>30</ele>
        <time>2023-01-27T15:51:15Z</time>
      </trkpt>
      <trkpt lat="47.79319" lon="-3.63968">
        <ele>30.1</ele>
        <time>2023-01-27T15:51:16Z</time>
      </trkpt>
      <trkpt lat="47.79321" lon="-3.63972">
        <ele>30.2</ele>
        <time>2023-01-27T15:51:17Z</time>
      </trkpt>
      <trkpt lat="47.79322" lon="-3.63976">
        <ele>30.3</ele>
        <time>2023-01-27T15:51:18Z</time>
      </trkpt>
      <trkpt lat="47.79323" lon="-3.6398">
        <ele>30.4</ele>
        <time>2023-01-27T15:51:20Z</time>
      </trkpt>
      <trkpt lat="47.79322" lon="-3.63985">
        <ele>30.5</ele>
        <time>2023-01-27T15:51:21Z</time>
      </trkpt>
      <trkpt lat="47.79322" lon="-3.6399">
        <ele>30.5</ele>
        <time>2023-01-27T15:51:22Z</time>
      </trkpt>
      <trkpt lat="47.79323" lon="-3.63996">
        <ele>30.6</ele>
        <time>2023-01-27T15:51:23Z</time>
      </trkpt>
      <trkpt lat="47.79322" lon="-3.64001">
        <ele>30.7</ele>
        <time>2023-01-27T15:51:24Z</time>
      </trkpt>
      <trkpt lat="47.79321" lon="-3.64006">
        <ele>30.7</ele>
        <time>2023-01-27T15:51:25Z</time>
      </trkpt>
      <trkpt lat="47.79321" lon="-3.64011">
        <ele>30.7</ele>
        <time>2023-01-27T15:51:26Z</time>
      </trkpt>
      <trkpt lat="47.7932" lon="-3.64015">
        <ele>30.7</ele>
        <time>2023-01-27T15:51:27Z</time>
      </trkpt>
      <trkpt lat="47.7932" lon="-3.64021">
        <ele>30.7</ele>
        <time>2023-01-27T15:51:28Z</time>
      </trkpt>
      <trkpt lat="47.79319" lon="-3.64026">
        <ele>30.7</ele>
        <time>2023-01-27T15:51:29Z</time>
      </trkpt>
      <trkpt lat="47.79319" lon="-3.64031">
        <ele>30.7</ele>
        <time>2023-01-27T15:51:30Z</time>
      </trkpt>
      <trkpt lat="47.79321" lon="-3.64036">
        <ele>30.6</ele>
        <time>2023-01-27T15:51:31Z</time>
      </trkpt>
      <trkpt lat="47.79324" lon="-3.64039">
        <ele>30.6</ele>
        <time>2023-01-27T15:51:32Z</time>
      </trkpt>
      <trkpt lat="47.79329" lon="-3.64041">
        <ele>30.5</ele>
        <time>2023-01-27T15:51:33Z</time>
      </trkpt>
      <trkpt lat="47.79334" lon="-3.64042">
        <ele>30.5</ele>
        <time>2023-01-27T15:51:34Z</time>
      </trkpt>
      <trkpt lat="47.79338" lon="-3.64043">
        <ele>30.4</ele>
        <time>2023-01-27T15:51:35Z</time>
      </trkpt>
      <trkpt lat="47.79342" lon="-3.64044">
        <ele>30.4</ele>
        <time>2023-01-27T15:51:36Z</time>
      </trkpt>
      <trkpt lat="47.7935" lon="-3.64048">
        <ele>30.4</ele>
        <time>2023-01-27T15:51:37Z</time>
      </trkpt>
      <trkpt lat="47.79356" lon="-3.64052">
        <ele>30.4</ele>
        <time>2023-01-27T15:51:38Z</time>
      </trkpt>
      <trkpt lat="47.7936" lon="-3.64056">
        <ele>30.4</ele>
        <time>2023-01-27T15:51:39Z</time>
      </trkpt>
      <trkpt lat="47.79364" lon="-3.64058">
        <ele>30.4</ele>
        <time>2023-01-27T15:51:40Z</time>
      </trkpt>
      <trkpt lat="47.79368" lon="-3.64061">
        <ele>30.5</ele>
        <time>2023-01-27T15:51:41Z</time>
      </trkpt>
      <trkpt lat="47.79371" lon="-3.64064">
        <ele>30.5</ele>
        <time>2023-01-27T15:51:42Z</time>
      </trkpt>
      <trkpt lat="47.79373" lon="-3.64065">
        <ele>30.5</ele>
        <time>2023-01-27T15:51:43Z</time>
      </trkpt>
      <trkpt lat="47.7938" lon="-3.64069">
        <ele>30.5</ele>
        <time>2023-01-27T15:51:44Z</time>
      </trkpt>
      <trkpt lat="47.79384" lon="-3.64072">
        <ele>30.4</ele>
        <time>2023-01-27T15:51:45Z</time>
      </trkpt>
      <trkpt lat="47.79388" lon="-3.64077">
        <ele>30.4</ele>
        <time>2023-01-27T15:51:46Z</time>
      </trkpt>
      <trkpt lat="47.79389" lon="-3.64082">
        <ele>30.4</ele>
        <time>2023-01-27T15:51:47Z</time>
      </trkpt>
      <trkpt lat="47.79389" lon="-3.64091">
        <ele>30.3</ele>
        <time>2023-01-27T15:51:49Z</time>
      </trkpt>
      <trkpt lat="47.79389" lon="-3.64096">
        <ele>30.3</ele>
        <time>2023-01-27T15:51:51Z</time>
      </trkpt>
      <trkpt lat="47.79389" lon="-3.64102">
        <ele>30.2</ele>
        <time>2023-01-27T15:51:52Z</time>
      </trkpt>
      <trkpt lat="47.79387" lon="-3.64113">
        <ele>30.1</ele>
        <time>2023-01-27T15:51:53Z</time>
      </trkpt>
      <trkpt lat="47.79387" lon="-3.64122">
        <ele>30.1</ele>
        <time>2023-01-27T15:51:54Z</time>
      </trkpt>
      <trkpt lat="47.79388" lon="-3.64129">
        <ele>30</ele>
        <time>2023-01-27T15:51:55Z</time>
      </trkpt>
      <trkpt lat="47.79389" lon="-3.64136">
        <ele>29.9</ele>
        <time>2023-01-27T15:51:56Z</time>
      </trkpt>
      <trkpt lat="47.79388" lon="-3.64144">
        <ele>29.9</ele>
        <time>2023-01-27T15:51:57Z</time>
      </trkpt>
      <trkpt lat="47.79387" lon="-3.64152">
        <ele>29.8</ele>
        <time>2023-01-27T15:51:58Z</time>
      </trkpt>
      <trkpt lat="47.79388" lon="-3.64159">
        <ele>29.8</ele>
        <time>2023-01-27T15:51:59Z</time>
      </trkpt>
      <trkpt lat="47.79387" lon="-3.64167">
        <ele>29.7</ele>
        <time>2023-01-27T15:52:00Z</time>
      </trkpt>
      <trkpt lat="47.79387" lon="-3.64173">
        <ele>29.7</ele>
        <time>2023-01-27T15:52:01Z</time>
      </trkpt>
      <trkpt lat="47.79387" lon="-3.64181">
        <ele>29.7</ele>
        <time>2023-01-27T15:52:02Z</time>
      </trkpt>
      <trkpt lat="47.79388" lon="-3.64189">
        <ele>29.6</ele>
        <time>2023-01-27T15:52:03Z</time>
      </trkpt>
      <trkpt lat="47.79386" lon="-3.642">
        <ele>29.6</ele>
        <time>2023-01-27T15:52:05Z</time>
      </trkpt>
      <trkpt lat="47.79386" lon="-3.64208">
        <ele>29.6</ele>
        <time>2023-01-27T15:52:06Z</time>
      </trkpt>
      <trkpt lat="47.79385" lon="-3.64214">
        <ele>29.6</ele>
        <time>2023-01-27T15:52:07Z</time>
      </trkpt>
      <trkpt lat="47.79385" lon="-3.6422">
        <ele>29.6</ele>
        <time>2023-01-27T15:52:08Z</time>
      </trkpt>
      <trkpt lat="47.79385" lon="-3.64226">
        <ele>29.6</ele>
        <time>2023-01-27T15:52:09Z</time>
      </trkpt>
      <trkpt lat="47.79384" lon="-3.64232">
        <ele>29.6</ele>
        <time>2023-01-27T15:52:10Z</time>
      </trkpt>
      <trkpt lat="47.79383" lon="-3.64241">
        <ele>29.6</ele>
        <time>2023-01-27T15:52:11Z</time>
      </trkpt>
      <trkpt lat="47.79383" lon="-3.6425">
        <ele>29.6</ele>
        <time>2023-01-27T15:52:12Z</time>
      </trkpt>
      <trkpt lat="47.79382" lon="-3.64256">
        <ele>29.7</ele>
        <time>2023-01-27T15:52:13Z</time>
      </trkpt>
      <trkpt lat="47.79383" lon="-3.64264">
        <ele>29.7</ele>
        <time>2023-01-27T15:52:14Z</time>
      </trkpt>
      <trkpt lat="47.79382" lon="-3.64267">
        <ele>29.7</ele>
        <time>2023-01-27T15:52:15Z</time>
      </trkpt>
      <trkpt lat="47.79382" lon="-3.64274">
        <ele>29.7</ele>
        <time>2023-01-27T15:52:16Z</time>
      </trkpt>
      <trkpt lat="47.79381" lon="-3.64283">
        <ele>29.6</ele>
        <time>2023-01-27T15:52:17Z</time>
      </trkpt>
      <trkpt lat="47.7938" lon="-3.6429">
        <ele>29.6</ele>
        <time>2023-01-27T15:52:18Z</time>
      </trkpt>
      <trkpt lat="47.7938" lon="-3.64294">
        <ele>29.6</ele>
        <time>2023-01-27T15:52:19Z</time>
      </trkpt>
      <trkpt lat="47.7938" lon="-3.64301">
        <ele>29.6</ele>
        <time>2023-01-27T15:52:20Z</time>
      </trkpt>
      <trkpt lat="47.79379" lon="-3.6431">
        <ele>29.5</ele>
        <time>2023-01-27T15:52:21Z</time>
      </trkpt>
      <trkpt lat="47.79378" lon="-3.64319">
        <ele>29.5</ele>
        <time>2023-01-27T15:52:22Z</time>
      </trkpt>
      <trkpt lat="47.79376" lon="-3.64325">
        <ele>29.5</ele>
        <time>2023-01-27T15:52:23Z</time>
      </trkpt>
      <trkpt lat="47.79375" lon="-3.64331">
        <ele>29.5</ele>
        <time>2023-01-27T15:52:24Z</time>
      </trkpt>
      <trkpt lat="47.79375" lon="-3.64337">
        <ele>29.4</ele>
        <time>2023-01-27T15:52:25Z</time>
      </trkpt>
      <trkpt lat="47.79374" lon="-3.64343">
        <ele>29.4</ele>
        <time>2023-01-27T15:52:26Z</time>
      </trkpt>
      <trkpt lat="47.79373" lon="-3.64349">
        <ele>29.4</ele>
        <time>2023-01-27T15:52:27Z</time>
      </trkpt>
      <trkpt lat="47.79372" lon="-3.64357">
        <ele>29.3</ele>
        <time>2023-01-27T15:52:28Z</time>
      </trkpt>
      <trkpt lat="47.79372" lon="-3.64364">
        <ele>29.2</ele>
        <time>2023-01-27T15:52:29Z</time>
      </trkpt>
      <trkpt lat="47.79373" lon="-3.6437">
        <ele>29.2</ele>
        <time>2023-01-27T15:52:30Z</time>
      </trkpt>
      <trkpt lat="47.79374" lon="-3.64375">
        <ele>29.1</ele>
        <time>2023-01-27T15:52:31Z</time>
      </trkpt>
      <trkpt lat="47.79375" lon="-3.64381">
        <ele>29</ele>
        <time>2023-01-27T15:52:32Z</time>
      </trkpt>
      <trkpt lat="47.79376" lon="-3.64387">
        <ele>28.9</ele>
        <time>2023-01-27T15:52:33Z</time>
      </trkpt>
      <trkpt lat="47.79376" lon="-3.64392">
        <ele>28.9</ele>
        <time>2023-01-27T15:52:34Z</time>
      </trkpt>
      <trkpt lat="47.79377" lon="-3.64399">
        <ele>28.7</ele>
        <time>2023-01-27T15:52:35Z</time>
      </trkpt>
      <trkpt lat="47.79377" lon="-3.64405">
        <ele>28.6</ele>
        <time>2023-01-27T15:52:36Z</time>
      </trkpt>
      <trkpt lat="47.79377" lon="-3.64412">
        <ele>28.5</ele>
        <time>2023-01-27T15:52:37Z</time>
      </trkpt>
      <trkpt lat="47.79376" lon="-3.6442">
        <ele>28.4</ele>
        <time>2023-01-27T15:52:38Z</time>
      </trkpt>
      <trkpt lat="47.79376" lon="-3.64428">
        <ele>28.3</ele>
        <time>2023-01-27T15:52:39Z</time>
      </trkpt>
      <trkpt lat="47.79375" lon="-3.64436">
        <ele>28.3</ele>
        <time>2023-01-27T15:52:40Z</time>
      </trkpt>
      <trkpt lat="47.79374" lon="-3.64443">
        <ele>28.2</ele>
        <time>2023-01-27T15:52:41Z</time>
      </trkpt>
      <trkpt lat="47.79374" lon="-3.64449">
        <ele>28.3</ele>
        <time>2023-01-27T15:52:42Z</time>
      </trkpt>
      <trkpt lat="47.79374" lon="-3.64456">
        <ele>28.3</ele>
        <time>2023-01-27T15:52:43Z</time>
      </trkpt>
      <trkpt lat="47.79373" lon="-3.64462">
        <ele>28.3</ele>
        <time>2023-01-27T15:52:44Z</time>
      </trkpt>
      <trkpt lat="47.79373" lon="-3.64469">
        <ele>28.4</ele>
        <time>2023-01-27T15:52:45Z</time>
      </trkpt>
      <trkpt lat="47.79373" lon="-3.64477">
        <ele>28.4</ele>
        <time>2023-01-27T15:52:46Z</time>
      </trkpt>
      <trkpt lat="47.79373" lon="-3.64483">
        <ele>28.5</ele>
        <time>2023-01-27T15:52:47Z</time>
      </trkpt>
      <trkpt lat="47.79373" lon="-3.64485">
        <ele>28.5</ele>
        <time>2023-01-27T15:52:48Z</time>
      </trkpt>
      <trkpt lat="47.79373" lon="-3.64498">
        <ele>28.7</ele>
        <time>2023-01-27T15:52:50Z</time>
      </trkpt>
      <trkpt lat="47.79374" lon="-3.64506">
        <ele>28.8</ele>
        <time>2023-01-27T15:52:51Z</time>
      </trkpt>
      <trkpt lat="47.79374" lon="-3.64513">
        <ele>28.9</ele>
        <time>2023-01-27T15:52:52Z</time>
      </trkpt>
      <trkpt lat="47.79374" lon="-3.6452">
        <ele>29</ele>
        <time>2023-01-27T15:52:54Z</time>
      </trkpt>
      <trkpt lat="47.79374" lon="-3.64526">
        <ele>29.1</ele>
        <time>2023-01-27T15:52:55Z</time>
      </trkpt>
      <trkpt lat="47.79375" lon="-3.64533">
        <ele>29.3</ele>
        <time>2023-01-27T15:52:56Z</time>
      </trkpt>
      <trkpt lat="47.79375" lon="-3.64539">
        <ele>29.4</ele>
        <time>2023-01-27T15:52:57Z</time>
      </trkpt>
      <trkpt lat="47.79374" lon="-3.64548">
        <ele>29.7</ele>
        <time>2023-01-27T15:52:58Z</time>
      </trkpt>
      <trkpt lat="47.79375" lon="-3.64556">
        <ele>30</ele>
        <time>2023-01-27T15:52:59Z</time>
      </trkpt>
      <trkpt lat="47.79377" lon="-3.64561">
        <ele>30.1</ele>
        <time>2023-01-27T15:53:00Z</time>
      </trkpt>
      <trkpt lat="47.79378" lon="-3.64568">
        <ele>30.3</ele>
        <time>2023-01-27T15:53:01Z</time>
      </trkpt>
      <trkpt lat="47.79379" lon="-3.6457">
        <ele>30.4</ele>
        <time>2023-01-27T15:53:02Z</time>
      </trkpt>
      <trkpt lat="47.7938" lon="-3.64574">
        <ele>30.5</ele>
        <time>2023-01-27T15:53:03Z</time>
      </trkpt>
      <trkpt lat="47.79383" lon="-3.64579">
        <ele>30.7</ele>
        <time>2023-01-27T15:53:04Z</time>
      </trkpt>
      <trkpt lat="47.79384" lon="-3.64581">
        <ele>30.7</ele>
        <time>2023-01-27T15:53:05Z</time>
      </trkpt>
      <trkpt lat="47.79386" lon="-3.64586">
        <ele>30.8</ele>
        <time>2023-01-27T15:53:06Z</time>
      </trkpt>
      <trkpt lat="47.79386" lon="-3.64592">
        <ele>30.9</ele>
        <time>2023-01-27T15:53:07Z</time>
      </trkpt>
      <trkpt lat="47.79385" lon="-3.64597">
        <ele>30.9</ele>
        <time>2023-01-27T15:53:09Z</time>
      </trkpt>
      <trkpt lat="47.79385" lon="-3.64603">
        <ele>31</ele>
        <time>2023-01-27T15:53:10Z</time>
      </trkpt>
      <trkpt lat="47.79385" lon="-3.64605">
        <ele>31</ele>
        <time>2023-01-27T15:53:11Z</time>
      </trkpt>
      <trkpt lat="47.79386" lon="-3.64607">
        <ele>31</ele>
        <time>2023-01-27T15:53:12Z</time>
      </trkpt>
      <trkpt lat="47.79386" lon="-3.64609">
        <ele>31</ele>
        <time>2023-01-27T15:53:13Z</time>
      </trkpt>
      <trkpt lat="47.79386" lon="-3.64613">
        <ele>31</ele>
        <time>2023-01-27T15:53:14Z</time>
      </trkpt>
      <trkpt lat="47.79386" lon="-3.64615">
        <ele>31</ele>
        <time>2023-01-27T15:53:15Z</time>
      </trkpt>
      <trkpt lat="47.79386" lon="-3.6462">
        <ele>31</ele>
        <time>2023-01-27T15:53:16Z</time>
      </trkpt>
      <trkpt lat="47.79387" lon="-3.64626">
        <ele>31</ele>
        <time>2023-01-27T15:53:17Z</time>
      </trkpt>
      <trkpt lat="47.79387" lon="-3.64628">
        <ele>31.1</ele>
        <time>2023-01-27T15:53:18Z</time>
      </trkpt>
      <trkpt lat="47.79388" lon="-3.64634">
        <ele>31.1</ele>
        <time>2023-01-27T15:53:19Z</time>
      </trkpt>
      <trkpt lat="47.79388" lon="-3.6464">
        <ele>31.1</ele>
        <time>2023-01-27T15:53:20Z</time>
      </trkpt>
      <trkpt lat="47.79388" lon="-3.64646">
        <ele>31.2</ele>
        <time>2023-01-27T15:53:21Z</time>
      </trkpt>
      <trkpt lat="47.79389" lon="-3.64655">
        <ele>31.3</ele>
        <time>2023-01-27T15:53:22Z</time>
      </trkpt>
      <trkpt lat="47.79389" lon="-3.64662">
        <ele>31.3</ele>
        <time>2023-01-27T15:53:23Z</time>
      </trkpt>
      <trkpt lat="47.79389" lon="-3.64668">
        <ele>31.4</ele>
        <time>2023-01-27T15:53:25Z</time>
      </trkpt>
      <trkpt lat="47.79389" lon="-3.64681">
        <ele>31.5</ele>
        <time>2023-01-27T15:53:26Z</time>
      </trkpt>
      <trkpt lat="47.79389" lon="-3.64687">
        <ele>31.5</ele>
        <time>2023-01-27T15:53:27Z</time>
      </trkpt>
      <trkpt lat="47.79389" lon="-3.64694">
        <ele>31.6</ele>
        <time>2023-01-27T15:53:29Z</time>
      </trkpt>
      <trkpt lat="47.79389" lon="-3.64701">
        <ele>31.6</ele>
        <time>2023-01-27T15:53:30Z</time>
      </trkpt>
      <trkpt lat="47.7939" lon="-3.64707">
        <ele>31.7</ele>
        <time>2023-01-27T15:53:31Z</time>
      </trkpt>
      <trkpt lat="47.7939" lon="-3.64719">
        <ele>31.8</ele>
        <time>2023-01-27T15:53:32Z</time>
      </trkpt>
      <trkpt lat="47.7939" lon="-3.64724">
        <ele>31.8</ele>
        <time>2023-01-27T15:53:33Z</time>
      </trkpt>
      <trkpt lat="47.79391" lon="-3.64736">
        <ele>31.9</ele>
        <time>2023-01-27T15:53:35Z</time>
      </trkpt>
      <trkpt lat="47.79391" lon="-3.64742">
        <ele>32</ele>
        <time>2023-01-27T15:53:37Z</time>
      </trkpt>
      <trkpt lat="47.79392" lon="-3.64747">
        <ele>32.1</ele>
        <time>2023-01-27T15:53:38Z</time>
      </trkpt>
      <trkpt lat="47.79393" lon="-3.64751">
        <ele>32.2</ele>
        <time>2023-01-27T15:53:39Z</time>
      </trkpt>
      <trkpt lat="47.79393" lon="-3.64757">
        <ele>32.2</ele>
        <time>2023-01-27T15:53:40Z</time>
      </trkpt>
      <trkpt lat="47.79392" lon="-3.64762">
        <ele>32.3</ele>
        <time>2023-01-27T15:53:41Z</time>
      </trkpt>
      <trkpt lat="47.79389" lon="-3.64767">
        <ele>32.4</ele>
        <time>2023-01-27T15:53:42Z</time>
      </trkpt>
      <trkpt lat="47.79385" lon="-3.6477">
        <ele>32.3</ele>
        <time>2023-01-27T15:53:43Z</time>
      </trkpt>
      <trkpt lat="47.79379" lon="-3.6477">
        <ele>32.2</ele>
        <time>2023-01-27T15:53:44Z</time>
      </trkpt>
      <trkpt lat="47.79373" lon="-3.6477">
        <ele>32.2</ele>
        <time>2023-01-27T15:53:45Z</time>
      </trkpt>
      <trkpt lat="47.79368" lon="-3.64771">
        <ele>32.1</ele>
        <time>2023-01-27T15:53:46Z</time>
      </trkpt>
      <trkpt lat="47.79363" lon="-3.64772">
        <ele>32.1</ele>
        <time>2023-01-27T15:53:47Z</time>
      </trkpt>
      <trkpt lat="47.79358" lon="-3.64773">
        <ele>32.1</ele>
        <time>2023-01-27T15:53:48Z</time>
      </trkpt>
      <trkpt lat="47.79353" lon="-3.64774">
        <ele>32.1</ele>
        <time>2023-01-27T15:53:49Z</time>
      </trkpt>
      <trkpt lat="47.79347" lon="-3.64775">
        <ele>32.1</ele>
        <time>2023-01-27T15:53:50Z</time>
      </trkpt>
      <trkpt lat="47.79343" lon="-3.64776">
        <ele>32.1</ele>
        <time>2023-01-27T15:53:51Z</time>
      </trkpt>
      <trkpt lat="47.79337" lon="-3.64777">
        <ele>32.1</ele>
        <time>2023-01-27T15:53:52Z</time>
      </trkpt>
      <trkpt lat="47.79332" lon="-3.64778">
        <ele>32.1</ele>
        <time>2023-01-27T15:53:53Z</time>
      </trkpt>
      <trkpt lat="47.79327" lon="-3.64779">
        <ele>32.1</ele>
        <time>2023-01-27T15:53:54Z</time>
      </trkpt>
      <trkpt lat="47.79322" lon="-3.64779">
        <ele>32.2</ele>
        <time>2023-01-27T15:53:55Z</time>
      </trkpt>
      <trkpt lat="47.79316" lon="-3.6478">
        <ele>32.2</ele>
        <time>2023-01-27T15:53:56Z</time>
      </trkpt>
      <trkpt lat="47.79311" lon="-3.64781">
        <ele>32.2</ele>
        <time>2023-01-27T15:53:57Z</time>
      </trkpt>
      <trkpt lat="47.79305" lon="-3.64782">
        <ele>32.2</ele>
        <time>2023-01-27T15:53:58Z</time>
      </trkpt>
      <trkpt lat="47.793" lon="-3.64783">
        <ele>32.3</ele>
        <time>2023-01-27T15:53:59Z</time>
      </trkpt>
      <trkpt lat="47.79294" lon="-3.64783">
        <ele>32.3</ele>
        <time>2023-01-27T15:54:00Z</time>
      </trkpt>
      <trkpt lat="47.79289" lon="-3.64784">
        <ele>32.4</ele>
        <time>2023-01-27T15:54:01Z</time>
      </trkpt>
      <trkpt lat="47.79283" lon="-3.64786">
        <ele>32.5</ele>
        <time>2023-01-27T15:54:02Z</time>
      </trkpt>
      <trkpt lat="47.79278" lon="-3.6479">
        <ele>32.5</ele>
        <time>2023-01-27T15:54:03Z</time>
      </trkpt>
      <trkpt lat="47.79274" lon="-3.64796">
        <ele>32.6</ele>
        <time>2023-01-27T15:54:04Z</time>
      </trkpt>
      <trkpt lat="47.79271" lon="-3.64804">
        <ele>32.5</ele>
        <time>2023-01-27T15:54:05Z</time>
      </trkpt>
      <trkpt lat="47.79269" lon="-3.64812">
        <ele>32.5</ele>
        <time>2023-01-27T15:54:06Z</time>
      </trkpt>
      <trkpt lat="47.79268" lon="-3.64821">
        <ele>32.5</ele>
        <time>2023-01-27T15:54:07Z</time>
      </trkpt>
      <trkpt lat="47.79268" lon="-3.6483">
        <ele>32.4</ele>
        <time>2023-01-27T15:54:08Z</time>
      </trkpt>
      <trkpt lat="47.79268" lon="-3.6484">
        <ele>32.4</ele>
        <time>2023-01-27T15:54:09Z</time>
      </trkpt>
      <trkpt lat="47.79267" lon="-3.64849">
        <ele>32.3</ele>
        <time>2023-01-27T15:54:10Z</time>
      </trkpt>
      <trkpt lat="47.79266" lon="-3.64858">
        <ele>32.3</ele>
        <time>2023-01-27T15:54:11Z</time>
      </trkpt>
      <trkpt lat="47.79264" lon="-3.64867">
        <ele>32.3</ele>
        <time>2023-01-27T15:54:12Z</time>
      </trkpt>
      <trkpt lat="47.79263" lon="-3.64875">
        <ele>32.2</ele>
        <time>2023-01-27T15:54:13Z</time>
      </trkpt>
      <trkpt lat="47.79263" lon="-3.64884">
        <ele>32.1</ele>
        <time>2023-01-27T15:54:14Z</time>
      </trkpt>
      <trkpt lat="47.79261" lon="-3.64892">
        <ele>32.1</ele>
        <time>2023-01-27T15:54:15Z</time>
      </trkpt>
      <trkpt lat="47.7926" lon="-3.649">
        <ele>32</ele>
        <time>2023-01-27T15:54:16Z</time>
      </trkpt>
      <trkpt lat="47.79258" lon="-3.64908">
        <ele>32</ele>
        <time>2023-01-27T15:54:17Z</time>
      </trkpt>
      <trkpt lat="47.79257" lon="-3.64916">
        <ele>32</ele>
        <time>2023-01-27T15:54:18Z</time>
      </trkpt>
      <trkpt lat="47.79257" lon="-3.64924">
        <ele>31.9</ele>
        <time>2023-01-27T15:54:19Z</time>
      </trkpt>
      <trkpt lat="47.79256" lon="-3.64931">
        <ele>31.8</ele>
        <time>2023-01-27T15:54:20Z</time>
      </trkpt>
      <trkpt lat="47.79256" lon="-3.64939">
        <ele>31.8</ele>
        <time>2023-01-27T15:54:21Z</time>
      </trkpt>
      <trkpt lat="47.79255" lon="-3.64947">
        <ele>31.7</ele>
        <time>2023-01-27T15:54:22Z</time>
      </trkpt>
      <trkpt lat="47.79255" lon="-3.64954">
        <ele>31.7</ele>
        <time>2023-01-27T15:54:23Z</time>
      </trkpt>
      <trkpt lat="47.79254" lon="-3.64962">
        <ele>31.6</ele>
        <time>2023-01-27T15:54:24Z</time>
      </trkpt>
      <trkpt lat="47.79253" lon="-3.6497">
        <ele>31.6</ele>
        <time>2023-01-27T15:54:25Z</time>
      </trkpt>
      <trkpt lat="47.79252" lon="-3.64979">
        <ele>31.5</ele>
        <time>2023-01-27T15:54:26Z</time>
      </trkpt>
      <trkpt lat="47.79251" lon="-3.64987">
        <ele>31.5</ele>
        <time>2023-01-27T15:54:27Z</time>
      </trkpt>
      <trkpt lat="47.7925" lon="-3.64995">
        <ele>31.4</ele>
        <time>2023-01-27T15:54:28Z</time>
      </trkpt>
      <trkpt lat="47.79249" lon="-3.65003">
        <ele>31.4</ele>
        <time>2023-01-27T15:54:29Z</time>
      </trkpt>
      <trkpt lat="47.79248" lon="-3.65012">
        <ele>31.3</ele>
        <time>2023-01-27T15:54:30Z</time>
      </trkpt>
      <trkpt lat="47.79247" lon="-3.65021">
        <ele>31.3</ele>
        <time>2023-01-27T15:54:31Z</time>
      </trkpt>
      <trkpt lat="47.79245" lon="-3.65029">
        <ele>31.2</ele>
        <time>2023-01-27T15:54:32Z</time>
      </trkpt>
      <trkpt lat="47.79244" lon="-3.65038">
        <ele>31.1</ele>
        <time>2023-01-27T15:54:33Z</time>
      </trkpt>
      <trkpt lat="47.79243" lon="-3.65046">
        <ele>31</ele>
        <time>2023-01-27T15:54:34Z</time>
      </trkpt>
      <trkpt lat="47.79242" lon="-3.65055">
        <ele>30.9</ele>
        <time>2023-01-27T15:54:35Z</time>
      </trkpt>
      <trkpt lat="47.7924" lon="-3.65064">
        <ele>30.8</ele>
        <time>2023-01-27T15:54:36Z</time>
      </trkpt>
      <trkpt lat="47.79239" lon="-3.65073">
        <ele>30.6</ele>
        <time>2023-01-27T15:54:37Z</time>
      </trkpt>
      <trkpt lat="47.79238" lon="-3.65082">
        <ele>30.4</ele>
        <time>2023-01-27T15:54:38Z</time>
      </trkpt>
      <trkpt lat="47.79237" lon="-3.65092">
        <ele>30.3</ele>
        <time>2023-01-27T15:54:39Z</time>
      </trkpt>
      <trkpt lat="47.79235" lon="-3.65102">
        <ele>30</ele>
        <time>2023-01-27T15:54:40Z</time>
      </trkpt>
      <trkpt lat="47.79234" lon="-3.65113">
        <ele>29.7</ele>
        <time>2023-01-27T15:54:41Z</time>
      </trkpt>
      <trkpt lat="47.79232" lon="-3.65124">
        <ele>29.3</ele>
        <time>2023-01-27T15:54:42Z</time>
      </trkpt>
      <trkpt lat="47.79231" lon="-3.65136">
        <ele>28.9</ele>
        <time>2023-01-27T15:54:43Z</time>
      </trkpt>
      <trkpt lat="47.7923" lon="-3.65148">
        <ele>28.5</ele>
        <time>2023-01-27T15:54:44Z</time>
      </trkpt>
      <trkpt lat="47.7923" lon="-3.65161">
        <ele>28.1</ele>
        <time>2023-01-27T15:54:45Z</time>
      </trkpt>
      <trkpt lat="47.7923" lon="-3.65174">
        <ele>27.8</ele>
        <time>2023-01-27T15:54:46Z</time>
      </trkpt>
      <trkpt lat="47.7923" lon="-3.65185">
        <ele>27.6</ele>
        <time>2023-01-27T15:54:47Z</time>
      </trkpt>
      <trkpt lat="47.79232" lon="-3.65197">
        <ele>27.6</ele>
        <time>2023-01-27T15:54:48Z</time>
      </trkpt>
      <trkpt lat="47.79234" lon="-3.65208">
        <ele>27.6</ele>
        <time>2023-01-27T15:54:49Z</time>
      </trkpt>
      <trkpt lat="47.79236" lon="-3.65218">
        <ele>27.6</ele>
        <time>2023-01-27T15:54:50Z</time>
      </trkpt>
      <trkpt lat="47.79237" lon="-3.65228">
        <ele>27.7</ele>
        <time>2023-01-27T15:54:51Z</time>
      </trkpt>
      <trkpt lat="47.79239" lon="-3.65237">
        <ele>27.8</ele>
        <time>2023-01-27T15:54:52Z</time>
      </trkpt>
      <trkpt lat="47.79241" lon="-3.65246">
        <ele>27.9</ele>
        <time>2023-01-27T15:54:53Z</time>
      </trkpt>
      <trkpt lat="47.79243" lon="-3.65254">
        <ele>28</ele>
        <time>2023-01-27T15:54:54Z</time>
      </trkpt>
      <trkpt lat="47.79244" lon="-3.65263">
        <ele>28.1</ele>
        <time>2023-01-27T15:54:55Z</time>
      </trkpt>
      <trkpt lat="47.79245" lon="-3.65271">
        <ele>28.2</ele>
        <time>2023-01-27T15:54:56Z</time>
      </trkpt>
      <trkpt lat="47.79245" lon="-3.6528">
        <ele>28.3</ele>
        <time>2023-01-27T15:54:57Z</time>
      </trkpt>
      <trkpt lat="47.79246" lon="-3.65288">
        <ele>28.4</ele>
        <time>2023-01-27T15:54:58Z</time>
      </trkpt>
      <trkpt lat="47.79246" lon="-3.65296">
        <ele>28.5</ele>
        <time>2023-01-27T15:54:59Z</time>
      </trkpt>
      <trkpt lat="47.79246" lon="-3.65305">
        <ele>28.5</ele>
        <time>2023-01-27T15:55:00Z</time>
      </trkpt>
      <trkpt lat="47.79248" lon="-3.65313">
        <ele>28.6</ele>
        <time>2023-01-27T15:55:01Z</time>
      </trkpt>
      <trkpt lat="47.7925" lon="-3.65321">
        <ele>28.7</ele>
        <time>2023-01-27T15:55:02Z</time>
      </trkpt>
      <trkpt lat="47.79253" lon="-3.65329">
        <ele>28.8</ele>
        <time>2023-01-27T15:55:03Z</time>
      </trkpt>
      <trkpt lat="47.79256" lon="-3.65336">
        <ele>28.9</ele>
        <time>2023-01-27T15:55:04Z</time>
      </trkpt>
      <trkpt lat="47.79258" lon="-3.65344">
        <ele>29</ele>
        <time>2023-01-27T15:55:05Z</time>
      </trkpt>
      <trkpt lat="47.79259" lon="-3.65353">
        <ele>29.1</ele>
        <time>2023-01-27T15:55:06Z</time>
      </trkpt>
      <trkpt lat="47.7926" lon="-3.65361">
        <ele>29.2</ele>
        <time>2023-01-27T15:55:07Z</time>
      </trkpt>
      <trkpt lat="47.7926" lon="-3.65369">
        <ele>29.3</ele>
        <time>2023-01-27T15:55:08Z</time>
      </trkpt>
      <trkpt lat="47.7926" lon="-3.65377">
        <ele>29.4</ele>
        <time>2023-01-27T15:55:09Z</time>
      </trkpt>
      <trkpt lat="47.79259" lon="-3.65385">
        <ele>29.5</ele>
        <time>2023-01-27T15:55:10Z</time>
      </trkpt>
      <trkpt lat="47.79259" lon="-3.65394">
        <ele>29.7</ele>
        <time>2023-01-27T15:55:11Z</time>
      </trkpt>
      <trkpt lat="47.79259" lon="-3.65401">
        <ele>29.8</ele>
        <time>2023-01-27T15:55:12Z</time>
      </trkpt>
      <trkpt lat="47.7926" lon="-3.65409">
        <ele>29.9</ele>
        <time>2023-01-27T15:55:13Z</time>
      </trkpt>
      <trkpt lat="47.79261" lon="-3.65417">
        <ele>30</ele>
        <time>2023-01-27T15:55:14Z</time>
      </trkpt>
      <trkpt lat="47.79262" lon="-3.65424">
        <ele>30</ele>
        <time>2023-01-27T15:55:15Z</time>
      </trkpt>
      <trkpt lat="47.79263" lon="-3.65432">
        <ele>30.1</ele>
        <time>2023-01-27T15:55:16Z</time>
      </trkpt>
      <trkpt lat="47.79264" lon="-3.6544">
        <ele>30.2</ele>
        <time>2023-01-27T15:55:17Z</time>
      </trkpt>
      <trkpt lat="47.79265" lon="-3.65447">
        <ele>30.3</ele>
        <time>2023-01-27T15:55:18Z</time>
      </trkpt>
      <trkpt lat="47.79266" lon="-3.65455">
        <ele>30.4</ele>
        <time>2023-01-27T15:55:19Z</time>
      </trkpt>
      <trkpt lat="47.79267" lon="-3.65463">
        <ele>30.5</ele>
        <time>2023-01-27T15:55:20Z</time>
      </trkpt>
      <trkpt lat="47.79268" lon="-3.65471">
        <ele>30.6</ele>
        <time>2023-01-27T15:55:21Z</time>
      </trkpt>
      <trkpt lat="47.79269" lon="-3.65479">
        <ele>30.7</ele>
        <time>2023-01-27T15:55:22Z</time>
      </trkpt>
      <trkpt lat="47.79269" lon="-3.65487">
        <ele>30.7</ele>
        <time>2023-01-27T15:55:23Z</time>
      </trkpt>
      <trkpt lat="47.79269" lon="-3.65495">
        <ele>30.8</ele>
        <time>2023-01-27T15:55:24Z</time>
      </trkpt>
      <trkpt lat="47.79268" lon="-3.65503">
        <ele>30.9</ele>
        <time>2023-01-27T15:55:25Z</time>
      </trkpt>
      <trkpt lat="47.79268" lon="-3.65511">
        <ele>31</ele>
        <time>2023-01-27T15:55:26Z</time>
      </trkpt>
      <trkpt lat="47.79267" lon="-3.65519">
        <ele>31.1</ele>
        <time>2023-01-27T15:55:27Z</time>
      </trkpt>
      <trkpt lat="47.79267" lon="-3.65527">
        <ele>31.2</ele>
        <time>2023-01-27T15:55:28Z</time>
      </trkpt>
      <trkpt lat="47.79266" lon="-3.65535">
        <ele>31.3</ele>
        <time>2023-01-27T15:55:29Z</time>
      </trkpt>
      <trkpt lat="47.79265" lon="-3.65542">
        <ele>31.4</ele>
        <time>2023-01-27T15:55:30Z</time>
      </trkpt>
      <trkpt lat="47.79265" lon="-3.6555">
        <ele>31.5</ele>
        <time>2023-01-27T15:55:31Z</time>
      </trkpt>
      <trkpt lat="47.79264" lon="-3.65557">
        <ele>31.6</ele>
        <time>2023-01-27T15:55:32Z</time>
      </trkpt>
      <trkpt lat="47.79263" lon="-3.65564">
        <ele>31.7</ele>
        <time>2023-01-27T15:55:33Z</time>
      </trkpt>
      <trkpt lat="47.79262" lon="-3.65571">
        <ele>31.8</ele>
        <time>2023-01-27T15:55:34Z</time>
      </trkpt>
      <trkpt lat="47.79261" lon="-3.65578">
        <ele>31.9</ele>
        <time>2023-01-27T15:55:35Z</time>
      </trkpt>
      <trkpt lat="47.7926" lon="-3.65585">
        <ele>32</ele>
        <time>2023-01-27T15:55:36Z</time>
      </trkpt>
      <trkpt lat="47.79258" lon="-3.65591">
        <ele>32.1</ele>
        <time>2023-01-27T15:55:37Z</time>
      </trkpt>
      <trkpt lat="47.79257" lon="-3.65597">
        <ele>32.1</ele>
        <time>2023-01-27T15:55:38Z</time>
      </trkpt>
      <trkpt lat="47.79257" lon="-3.65603">
        <ele>32.2</ele>
        <time>2023-01-27T15:55:39Z</time>
      </trkpt>
      <trkpt lat="47.79257" lon="-3.65606">
        <ele>32.2</ele>
        <time>2023-01-27T15:55:40Z</time>
      </trkpt>
      <trkpt lat="47.7926" lon="-3.65609">
        <ele>32.3</ele>
        <time>2023-01-27T15:55:41Z</time>
      </trkpt>
      <trkpt lat="47.79262" lon="-3.65612">
        <ele>32.3</ele>
        <time>2023-01-27T15:55:42Z</time>
      </trkpt>
      <trkpt lat="47.79266" lon="-3.65614">
        <ele>32.4</ele>
        <time>2023-01-27T15:55:43Z</time>
      </trkpt>
      <trkpt lat="47.79269" lon="-3.65616">
        <ele>32.4</ele>
        <time>2023-01-27T15:55:44Z</time>
      </trkpt>
      <trkpt lat="47.79274" lon="-3.65617">
        <ele>32.4</ele>
        <time>2023-01-27T15:55:45Z</time>
      </trkpt>
      <trkpt lat="47.79276" lon="-3.65617">
        <ele>32.4</ele>
        <time>2023-01-27T15:55:46Z</time>
      </trkpt>
      <trkpt lat="47.7928" lon="-3.65617">
        <ele>32.5</ele>
        <time>2023-01-27T15:55:47Z</time>
      </trkpt>
      <trkpt lat="47.79284" lon="-3.65614">
        <ele>32.5</ele>
        <time>2023-01-27T15:55:48Z</time>
      </trkpt>
      <trkpt lat="47.79288" lon="-3.65613">
        <ele>32.5</ele>
        <time>2023-01-27T15:55:49Z</time>
      </trkpt>
      <trkpt lat="47.79292" lon="-3.65612">
        <ele>32.6</ele>
        <time>2023-01-27T15:55:50Z</time>
      </trkpt>
      <trkpt lat="47.79297" lon="-3.65612">
        <ele>32.7</ele>
        <time>2023-01-27T15:55:51Z</time>
      </trkpt>
      <trkpt lat="47.793" lon="-3.65612">
        <ele>32.8</ele>
        <time>2023-01-27T15:55:52Z</time>
      </trkpt>
      <trkpt lat="47.79304" lon="-3.65613">
        <ele>32.8</ele>
        <time>2023-01-27T15:55:53Z</time>
      </trkpt>
      <trkpt lat="47.79311" lon="-3.65613">
        <ele>33</ele>
        <time>2023-01-27T15:55:55Z</time>
      </trkpt>
      <trkpt lat="47.79314" lon="-3.65613">
        <ele>33</ele>
        <time>2023-01-27T15:55:56Z</time>
      </trkpt>
      <trkpt lat="47.79321" lon="-3.65614">
        <ele>33.1</ele>
        <time>2023-01-27T15:55:58Z</time>
      </trkpt>
      <trkpt lat="47.79327" lon="-3.65615">
        <ele>33.2</ele>
        <time>2023-01-27T15:56:00Z</time>
      </trkpt>
      <trkpt lat="47.79331" lon="-3.65615">
        <ele>33.3</ele>
        <time>2023-01-27T15:56:01Z</time>
      </trkpt>
      <trkpt lat="47.79336" lon="-3.65616">
        <ele>33.4</ele>
        <time>2023-01-27T15:56:03Z</time>
      </trkpt>
      <trkpt lat="47.79339" lon="-3.65617">
        <ele>33.4</ele>
        <time>2023-01-27T15:56:05Z</time>
      </trkpt>
      <trkpt lat="47.79343" lon="-3.65617">
        <ele>33.5</ele>
        <time>2023-01-27T15:56:06Z</time>
      </trkpt>
      <trkpt lat="47.79346" lon="-3.65618">
        <ele>33.5</ele>
        <time>2023-01-27T15:56:07Z</time>
      </trkpt>
      <trkpt lat="47.79349" lon="-3.65618">
        <ele>33.5</ele>
        <time>2023-01-27T15:56:08Z</time>
      </trkpt>
      <trkpt lat="47.79355" lon="-3.65618">
        <ele>33.7</ele>
        <time>2023-01-27T15:56:09Z</time>
      </trkpt>
      <trkpt lat="47.79358" lon="-3.65618">
        <ele>33.7</ele>
        <time>2023-01-27T15:56:11Z</time>
      </trkpt>
      <trkpt lat="47.79361" lon="-3.65619">
        <ele>33.8</ele>
        <time>2023-01-27T15:56:12Z</time>
      </trkpt>
      <trkpt lat="47.79364" lon="-3.65619">
        <ele>33.8</ele>
        <time>2023-01-27T15:56:13Z</time>
      </trkpt>
      <trkpt lat="47.79368" lon="-3.65619">
        <ele>33.9</ele>
        <time>2023-01-27T15:56:14Z</time>
      </trkpt>
      <trkpt lat="47.79371" lon="-3.65619">
        <ele>33.9</ele>
        <time>2023-01-27T15:56:15Z</time>
      </trkpt>
      <trkpt lat="47.79374" lon="-3.6562">
        <ele>33.9</ele>
        <time>2023-01-27T15:56:16Z</time>
      </trkpt>
      <trkpt lat="47.79379" lon="-3.6562">
        <ele>34</ele>
        <time>2023-01-27T15:56:17Z</time>
      </trkpt>
      <trkpt lat="47.79382" lon="-3.65621">
        <ele>34</ele>
        <time>2023-01-27T15:56:18Z</time>
      </trkpt>
      <trkpt lat="47.79386" lon="-3.65621">
        <ele>34</ele>
        <time>2023-01-27T15:56:20Z</time>
      </trkpt>
      <trkpt lat="47.79391" lon="-3.65621">
        <ele>34</ele>
        <time>2023-01-27T15:56:21Z</time>
      </trkpt>
      <trkpt lat="47.79395" lon="-3.65622">
        <ele>34</ele>
        <time>2023-01-27T15:56:23Z</time>
      </trkpt>
      <trkpt lat="47.79399" lon="-3.65622">
        <ele>34</ele>
        <time>2023-01-27T15:56:24Z</time>
      </trkpt>
      <trkpt lat="47.79402" lon="-3.65623">
        <ele>33.9</ele>
        <time>2023-01-27T15:56:25Z</time>
      </trkpt>
      <trkpt lat="47.79405" lon="-3.65623">
        <ele>33.9</ele>
        <time>2023-01-27T15:56:26Z</time>
      </trkpt>
      <trkpt lat="47.79409" lon="-3.65623">
        <ele>33.9</ele>
        <time>2023-01-27T15:56:27Z</time>
      </trkpt>
      <trkpt lat="47.79412" lon="-3.65624">
        <ele>33.8</ele>
        <time>2023-01-27T15:56:28Z</time>
      </trkpt>
      <trkpt lat="47.79415" lon="-3.65625">
        <ele>33.8</ele>
        <time>2023-01-27T15:56:29Z</time>
      </trkpt>
      <trkpt lat="47.79419" lon="-3.65625">
        <ele>33.7</ele>
        <time>2023-01-27T15:56:30Z</time>
      </trkpt>
      <trkpt lat="47.79423" lon="-3.65625">
        <ele>33.7</ele>
        <time>2023-01-27T15:56:31Z</time>
      </trkpt>
      <trkpt lat="47.79426" lon="-3.65626">
        <ele>33.6</ele>
        <time>2023-01-27T15:56:32Z</time>
      </trkpt>
      <trkpt lat="47.79429" lon="-3.65627">
        <ele>33.6</ele>
        <time>2023-01-27T15:56:33Z</time>
      </trkpt>
      <trkpt lat="47.79432" lon="-3.65628">
        <ele>33.5</ele>
        <time>2023-01-27T15:56:34Z</time>
      </trkpt>
      <trkpt lat="47.79436" lon="-3.65627">
        <ele>33.5</ele>
        <time>2023-01-27T15:56:35Z</time>
      </trkpt>
      <trkpt lat="47.7944" lon="-3.65627">
        <ele>33.4</ele>
        <time>2023-01-27T15:56:36Z</time>
      </trkpt>
      <trkpt lat="47.79441" lon="-3.65627">
        <ele>33.4</ele>
        <time>2023-01-27T15:56:37Z</time>
      </trkpt>
      <trkpt lat="47.79445" lon="-3.65628">
        <ele>33.4</ele>
        <time>2023-01-27T15:56:38Z</time>
      </trkpt>
      <trkpt lat="47.79448" lon="-3.65628">
        <ele>33.4</ele>
        <time>2023-01-27T15:56:39Z</time>
      </trkpt>
      <trkpt lat="47.79451" lon="-3.65628">
        <ele>33.4</ele>
        <time>2023-01-27T15:56:40Z</time>
      </trkpt>
      <trkpt lat="47.79454" lon="-3.65629">
        <ele>33.3</ele>
        <time>2023-01-27T15:56:41Z</time>
      </trkpt>
      <trkpt lat="47.79457" lon="-3.65629">
        <ele>33.3</ele>
        <time>2023-01-27T15:56:42Z</time>
      </trkpt>
      <trkpt lat="47.79458" lon="-3.65629">
        <ele>33.3</ele>
        <time>2023-01-27T15:56:43Z</time>
      </trkpt>
      <trkpt lat="47.79462" lon="-3.65629">
        <ele>33.3</ele>
        <time>2023-01-27T15:56:44Z</time>
      </trkpt>
      <trkpt lat="47.79465" lon="-3.65629">
        <ele>33.3</ele>
        <time>2023-01-27T15:56:45Z</time>
      </trkpt>
      <trkpt lat="47.79467" lon="-3.6563">
        <ele>33.3</ele>
        <time>2023-01-27T15:56:46Z</time>
      </trkpt>
      <trkpt lat="47.79471" lon="-3.65631">
        <ele>33.3</ele>
        <time>2023-01-27T15:56:48Z</time>
      </trkpt>
      <trkpt lat="47.79475" lon="-3.65631">
        <ele>33.2</ele>
        <time>2023-01-27T15:56:49Z</time>
      </trkpt>
      <trkpt lat="47.79477" lon="-3.65631">
        <ele>33.2</ele>
        <time>2023-01-27T15:56:50Z</time>
      </trkpt>
      <trkpt lat="47.7948" lon="-3.65631">
        <ele>33.2</ele>
        <time>2023-01-27T15:56:51Z</time>
      </trkpt>
      <trkpt lat="47.79484" lon="-3.65632">
        <ele>33.2</ele>
        <time>2023-01-27T15:56:52Z</time>
      </trkpt>
      <trkpt lat="47.79485" lon="-3.65632">
        <ele>33.2</ele>
        <time>2023-01-27T15:56:53Z</time>
      </trkpt>
      <trkpt lat="47.79489" lon="-3.65633">
        <ele>33.1</ele>
        <time>2023-01-27T15:56:54Z</time>
      </trkpt>
      <trkpt lat="47.7949" lon="-3.65633">
        <ele>33.1</ele>
        <time>2023-01-27T15:56:55Z</time>
      </trkpt>
      <trkpt lat="47.79494" lon="-3.65634">
        <ele>33.1</ele>
        <time>2023-01-27T15:56:56Z</time>
      </trkpt>
      <trkpt lat="47.79496" lon="-3.65634">
        <ele>33.1</ele>
        <time>2023-01-27T15:56:57Z</time>
      </trkpt>
      <trkpt lat="47.79499" lon="-3.65634">
        <ele>33</ele>
        <time>2023-01-27T15:56:58Z</time>
      </trkpt>
      <trkpt lat="47.79502" lon="-3.65635">
        <ele>33</ele>
        <time>2023-01-27T15:56:59Z</time>
      </trkpt>
      <trkpt lat="47.79506" lon="-3.65635">
        <ele>32.9</ele>
        <time>2023-01-27T15:57:00Z</time>
      </trkpt>
      <trkpt lat="47.7951" lon="-3.65636">
        <ele>32.9</ele>
        <time>2023-01-27T15:57:01Z</time>
      </trkpt>
      <trkpt lat="47.79511" lon="-3.65636">
        <ele>32.9</ele>
        <time>2023-01-27T15:57:02Z</time>
      </trkpt>
      <trkpt lat="47.79515" lon="-3.65636">
        <ele>32.8</ele>
        <time>2023-01-27T15:57:03Z</time>
      </trkpt>
      <trkpt lat="47.79519" lon="-3.65636">
        <ele>32.8</ele>
        <time>2023-01-27T15:57:04Z</time>
      </trkpt>
      <trkpt lat="47.79523" lon="-3.65636">
        <ele>32.7</ele>
        <time>2023-01-27T15:57:05Z</time>
      </trkpt>
      <trkpt lat="47.79526" lon="-3.65637">
        <ele>32.7</ele>
        <time>2023-01-27T15:57:06Z</time>
      </trkpt>
      <trkpt lat="47.79533" lon="-3.65638">
        <ele>32.7</ele>
        <time>2023-01-27T15:57:08Z</time>
      </trkpt>
      <trkpt lat="47.79539" lon="-3.65638">
        <ele>32.7</ele>
        <time>2023-01-27T15:57:10Z</time>
      </trkpt>
      <trkpt lat="47.79543" lon="-3.65638">
        <ele>32.7</ele>
        <time>2023-01-27T15:57:12Z</time>
      </trkpt>
      <trkpt lat="47.79546" lon="-3.65639">
        <ele>32.8</ele>
        <time>2023-01-27T15:57:13Z</time>
      </trkpt>
      <trkpt lat="47.79548" lon="-3.65639">
        <ele>32.8</ele>
        <time>2023-01-27T15:57:14Z</time>
      </trkpt>
      <trkpt lat="47.79551" lon="-3.6564">
        <ele>32.8</ele>
        <time>2023-01-27T15:57:15Z</time>
      </trkpt>
      <trkpt lat="47.79554" lon="-3.6564">
        <ele>32.8</ele>
        <time>2023-01-27T15:57:16Z</time>
      </trkpt>
      <trkpt lat="47.79557" lon="-3.6564">
        <ele>32.8</ele>
        <time>2023-01-27T15:57:17Z</time>
      </trkpt>
      <trkpt lat="47.7956" lon="-3.65641">
        <ele>32.8</ele>
        <time>2023-01-27T15:57:18Z</time>
      </trkpt>
      <trkpt lat="47.79564" lon="-3.6564">
        <ele>32.9</ele>
        <time>2023-01-27T15:57:19Z</time>
      </trkpt>
      <trkpt lat="47.79566" lon="-3.6564">
        <ele>32.9</ele>
        <time>2023-01-27T15:57:20Z</time>
      </trkpt>
      <trkpt lat="47.79569" lon="-3.65641">
        <ele>32.9</ele>
        <time>2023-01-27T15:57:21Z</time>
      </trkpt>
      <trkpt lat="47.79572" lon="-3.65641">
        <ele>33</ele>
        <time>2023-01-27T15:57:22Z</time>
      </trkpt>
      <trkpt lat="47.79575" lon="-3.65641">
        <ele>33</ele>
        <time>2023-01-27T15:57:23Z</time>
      </trkpt>
      <trkpt lat="47.79578" lon="-3.6564">
        <ele>33.1</ele>
        <time>2023-01-27T15:57:24Z</time>
      </trkpt>
      <trkpt lat="47.79579" lon="-3.6564">
        <ele>33.1</ele>
        <time>2023-01-27T15:57:25Z</time>
      </trkpt>
      <trkpt lat="47.7958" lon="-3.65641">
        <ele>33.1</ele>
        <time>2023-01-27T15:57:26Z</time>
      </trkpt>
      <trkpt lat="47.79582" lon="-3.65642">
        <ele>33.1</ele>
        <time>2023-01-27T15:57:27Z</time>
      </trkpt>
      <trkpt lat="47.79583" lon="-3.65642">
        <ele>33.2</ele>
        <time>2023-01-27T15:57:28Z</time>
      </trkpt>
      <trkpt lat="47.79585" lon="-3.65642">
        <ele>33.2</ele>
        <time>2023-01-27T15:57:29Z</time>
      </trkpt>
      <trkpt lat="47.79588" lon="-3.65642">
        <ele>33.2</ele>
        <time>2023-01-27T15:57:30Z</time>
      </trkpt>
      <trkpt lat="47.79589" lon="-3.65643">
        <ele>33.2</ele>
        <time>2023-01-27T15:57:31Z</time>
      </trkpt>
      <trkpt lat="47.7959" lon="-3.65644">
        <ele>33.2</ele>
        <time>2023-01-27T15:57:32Z</time>
      </trkpt>
      <trkpt lat="47.79592" lon="-3.65645">
        <ele>33.3</ele>
        <time>2023-01-27T15:57:33Z</time>
      </trkpt>
      <trkpt lat="47.79596" lon="-3.65642">
        <ele>33.3</ele>
        <time>2023-01-27T15:57:34Z</time>
      </trkpt>
      <trkpt lat="47.79597" lon="-3.65641">
        <ele>33.3</ele>
        <time>2023-01-27T15:57:35Z</time>
      </trkpt>
      <trkpt lat="47.79598" lon="-3.65635">
        <ele>33.3</ele>
        <time>2023-01-27T15:57:36Z</time>
      </trkpt>
      <trkpt lat="47.79597" lon="-3.6563">
        <ele>33.3</ele>
        <time>2023-01-27T15:57:38Z</time>
      </trkpt>
      <trkpt lat="47.79596" lon="-3.65621">
        <ele>33.2</ele>
        <time>2023-01-27T15:57:39Z</time>
      </trkpt>
      <trkpt lat="47.79596" lon="-3.65613">
        <ele>33.2</ele>
        <time>2023-01-27T15:57:41Z</time>
      </trkpt>
      <trkpt lat="47.79596" lon="-3.6561">
        <ele>33.2</ele>
        <time>2023-01-27T15:57:42Z</time>
      </trkpt>
      <trkpt lat="47.79596" lon="-3.65608">
        <ele>33.2</ele>
        <time>2023-01-27T15:57:43Z</time>
      </trkpt>
      <trkpt lat="47.79596" lon="-3.65603">
        <ele>33.2</ele>
        <time>2023-01-27T15:57:44Z</time>
      </trkpt>
      <trkpt lat="47.79596" lon="-3.65599">
        <ele>33.2</ele>
        <time>2023-01-27T15:57:45Z</time>
      </trkpt>
      <trkpt lat="47.79596" lon="-3.65594">
        <ele>33.2</ele>
        <time>2023-01-27T15:57:46Z</time>
      </trkpt>
      <trkpt lat="47.79595" lon="-3.6559">
        <ele>33.2</ele>
        <time>2023-01-27T15:57:47Z</time>
      </trkpt>
      <trkpt lat="47.79595" lon="-3.65585">
        <ele>33.2</ele>
        <time>2023-01-27T15:57:48Z</time>
      </trkpt>
      <trkpt lat="47.79596" lon="-3.65581">
        <ele>33.1</ele>
        <time>2023-01-27T15:57:49Z</time>
      </trkpt>
      <trkpt lat="47.79596" lon="-3.65576">
        <ele>33.1</ele>
        <time>2023-01-27T15:57:50Z</time>
      </trkpt>
      <trkpt lat="47.79595" lon="-3.65572">
        <ele>33.1</ele>
        <time>2023-01-27T15:57:51Z</time>
      </trkpt>
      <trkpt lat="47.79595" lon="-3.65567">
        <ele>33</ele>
        <time>2023-01-27T15:57:52Z</time>
      </trkpt>
      <trkpt lat="47.79595" lon="-3.65562">
        <ele>33</ele>
        <time>2023-01-27T15:57:53Z</time>
      </trkpt>
      <trkpt lat="47.79595" lon="-3.65557">
        <ele>32.9</ele>
        <time>2023-01-27T15:57:54Z</time>
      </trkpt>
      <trkpt lat="47.79595" lon="-3.65551">
        <ele>32.8</ele>
        <time>2023-01-27T15:57:55Z</time>
      </trkpt>
      <trkpt lat="47.79595" lon="-3.65548">
        <ele>32.8</ele>
        <time>2023-01-27T15:57:56Z</time>
      </trkpt>
      <trkpt lat="47.79594" lon="-3.65541">
        <ele>32.7</ele>
        <time>2023-01-27T15:57:58Z</time>
      </trkpt>
      <trkpt lat="47.79594" lon="-3.65536">
        <ele>32.6</ele>
        <time>2023-01-27T15:57:59Z</time>
      </trkpt>
      <trkpt lat="47.79594" lon="-3.65534">
        <ele>32.6</ele>
        <time>2023-01-27T15:58:00Z</time>
      </trkpt>
      <trkpt lat="47.79594" lon="-3.65529">
        <ele>32.5</ele>
        <time>2023-01-27T15:58:01Z</time>
      </trkpt>
      <trkpt lat="47.79594" lon="-3.65527">
        <ele>32.5</ele>
        <time>2023-01-27T15:58:02Z</time>
      </trkpt>
      <trkpt lat="47.79594" lon="-3.65522">
        <ele>32.4</ele>
        <time>2023-01-27T15:58:03Z</time>
      </trkpt>
      <trkpt lat="47.79594" lon="-3.65521">
        <ele>32.4</ele>
        <time>2023-01-27T15:58:04Z</time>
      </trkpt>
      <trkpt lat="47.79594" lon="-3.65516">
        <ele>32.4</ele>
        <time>2023-01-27T15:58:05Z</time>
      </trkpt>
      <trkpt lat="47.79594" lon="-3.65515">
        <ele>32.4</ele>
        <time>2023-01-27T15:58:06Z</time>
      </trkpt>
      <trkpt lat="47.79594" lon="-3.65509">
        <ele>32.4</ele>
        <time>2023-01-27T15:58:07Z</time>
      </trkpt>
      <trkpt lat="47.79594" lon="-3.65506">
        <ele>32.4</ele>
        <time>2023-01-27T15:58:08Z</time>
      </trkpt>
      <trkpt lat="47.79594" lon="-3.65501">
        <ele>32.4</ele>
        <time>2023-01-27T15:58:09Z</time>
      </trkpt>
      <trkpt lat="47.79594" lon="-3.65499">
        <ele>32.3</ele>
        <time>2023-01-27T15:58:10Z</time>
      </trkpt>
      <trkpt lat="47.79594" lon="-3.65494">
        <ele>32.3</ele>
        <time>2023-01-27T15:58:11Z</time>
      </trkpt>
      <trkpt lat="47.79594" lon="-3.65493">
        <ele>32.3</ele>
        <time>2023-01-27T15:58:12Z</time>
      </trkpt>
      <trkpt lat="47.79594" lon="-3.65488">
        <ele>32.3</ele>
        <time>2023-01-27T15:58:13Z</time>
      </trkpt>
      <trkpt lat="47.79595" lon="-3.65487">
        <ele>32.2</ele>
        <time>2023-01-27T15:58:14Z</time>
      </trkpt>
      <trkpt lat="47.79595" lon="-3.65481">
        <ele>32.2</ele>
        <time>2023-01-27T15:58:15Z</time>
      </trkpt>
      <trkpt lat="47.79595" lon="-3.65479">
        <ele>32.2</ele>
        <time>2023-01-27T15:58:16Z</time>
      </trkpt>
      <trkpt lat="47.79594" lon="-3.65474">
        <ele>32.1</ele>
        <time>2023-01-27T15:58:17Z</time>
      </trkpt>
      <trkpt lat="47.79594" lon="-3.65468">
        <ele>32.1</ele>
        <time>2023-01-27T15:58:18Z</time>
      </trkpt>
      <trkpt lat="47.79594" lon="-3.65466">
        <ele>32.1</ele>
        <time>2023-01-27T15:58:19Z</time>
      </trkpt>
      <trkpt lat="47.79593" lon="-3.65461">
        <ele>32</ele>
        <time>2023-01-27T15:58:20Z</time>
      </trkpt>
      <trkpt lat="47.79593" lon="-3.6546">
        <ele>32</ele>
        <time>2023-01-27T15:58:21Z</time>
      </trkpt>
      <trkpt lat="47.79594" lon="-3.65456">
        <ele>32</ele>
        <time>2023-01-27T15:58:22Z</time>
      </trkpt>
      <trkpt lat="47.79593" lon="-3.6545">
        <ele>32</ele>
        <time>2023-01-27T15:58:23Z</time>
      </trkpt>
      <trkpt lat="47.79593" lon="-3.65448">
        <ele>32</ele>
        <time>2023-01-27T15:58:24Z</time>
      </trkpt>
      <trkpt lat="47.79593" lon="-3.65444">
        <ele>32</ele>
        <time>2023-01-27T15:58:25Z</time>
      </trkpt>
      <trkpt lat="47.79593" lon="-3.65439">
        <ele>32</ele>
        <time>2023-01-27T15:58:26Z</time>
      </trkpt>
      <trkpt lat="47.79593" lon="-3.65437">
        <ele>31.9</ele>
        <time>2023-01-27T15:58:27Z</time>
      </trkpt>
      <trkpt lat="47.79593" lon="-3.65432">
        <ele>31.9</ele>
        <time>2023-01-27T15:58:28Z</time>
      </trkpt>
      <trkpt lat="47.79593" lon="-3.65431">
        <ele>31.9</ele>
        <time>2023-01-27T15:58:29Z</time>
      </trkpt>
      <trkpt lat="47.79593" lon="-3.65426">
        <ele>31.9</ele>
        <time>2023-01-27T15:58:30Z</time>
      </trkpt>
      <trkpt lat="47.79593" lon="-3.65422">
        <ele>31.9</ele>
        <time>2023-01-27T15:58:31Z</time>
      </trkpt>
      <trkpt lat="47.79594" lon="-3.65415">
        <ele>31.9</ele>
        <time>2023-01-27T15:58:33Z</time>
      </trkpt>
      <trkpt lat="47.79594" lon="-3.65413">
        <ele>31.8</ele>
        <time>2023-01-27T15:58:34Z</time>
      </trkpt>
      <trkpt lat="47.79594" lon="-3.6541">
        <ele>31.8</ele>
        <time>2023-01-27T15:58:35Z</time>
      </trkpt>
      <trkpt lat="47.79593" lon="-3.65406">
        <ele>31.8</ele>
        <time>2023-01-27T15:58:36Z</time>
      </trkpt>
      <trkpt lat="47.79593" lon="-3.65404">
        <ele>31.8</ele>
        <time>2023-01-27T15:58:37Z</time>
      </trkpt>
      <trkpt lat="47.79592" lon="-3.65399">
        <ele>31.8</ele>
        <time>2023-01-27T15:58:38Z</time>
      </trkpt>
      <trkpt lat="47.79592" lon="-3.65394">
        <ele>31.7</ele>
        <time>2023-01-27T15:58:39Z</time>
      </trkpt>
      <trkpt lat="47.79593" lon="-3.65386">
        <ele>31.6</ele>
        <time>2023-01-27T15:58:41Z</time>
      </trkpt>
      <trkpt lat="47.79593" lon="-3.65382">
        <ele>31.6</ele>
        <time>2023-01-27T15:58:42Z</time>
      </trkpt>
      <trkpt lat="47.79593" lon="-3.65375">
        <ele>31.5</ele>
        <time>2023-01-27T15:58:44Z</time>
      </trkpt>
      <trkpt lat="47.79592" lon="-3.65371">
        <ele>31.5</ele>
        <time>2023-01-27T15:58:45Z</time>
      </trkpt>
      <trkpt lat="47.79591" lon="-3.65362">
        <ele>31.3</ele>
        <time>2023-01-27T15:58:47Z</time>
      </trkpt>
      <trkpt lat="47.79592" lon="-3.65357">
        <ele>31.3</ele>
        <time>2023-01-27T15:58:48Z</time>
      </trkpt>
      <trkpt lat="47.79592" lon="-3.65352">
        <ele>31.2</ele>
        <time>2023-01-27T15:58:50Z</time>
      </trkpt>
      <trkpt lat="47.79592" lon="-3.65347">
        <ele>31.2</ele>
        <time>2023-01-27T15:58:51Z</time>
      </trkpt>
      <trkpt lat="47.79592" lon="-3.65343">
        <ele>31.1</ele>
        <time>2023-01-27T15:58:52Z</time>
      </trkpt>
      <trkpt lat="47.79592" lon="-3.65339">
        <ele>31</ele>
        <time>2023-01-27T15:58:53Z</time>
      </trkpt>
      <trkpt lat="47.79592" lon="-3.65333">
        <ele>31</ele>
        <time>2023-01-27T15:58:54Z</time>
      </trkpt>
      <trkpt lat="47.79592" lon="-3.65331">
        <ele>31</ele>
        <time>2023-01-27T15:58:55Z</time>
      </trkpt>
      <trkpt lat="47.79592" lon="-3.65325">
        <ele>30.9</ele>
        <time>2023-01-27T15:58:56Z</time>
      </trkpt>
      <trkpt lat="47.79592" lon="-3.6532">
        <ele>30.8</ele>
        <time>2023-01-27T15:58:57Z</time>
      </trkpt>
      <trkpt lat="47.79592" lon="-3.65311">
        <ele>30.6</ele>
        <time>2023-01-27T15:58:59Z</time>
      </trkpt>
      <trkpt lat="47.79593" lon="-3.65305">
        <ele>30.5</ele>
        <time>2023-01-27T15:59:01Z</time>
      </trkpt>
      <trkpt lat="47.79593" lon="-3.653">
        <ele>30.4</ele>
        <time>2023-01-27T15:59:02Z</time>
      </trkpt>
      <trkpt lat="47.79593" lon="-3.65296">
        <ele>30.4</ele>
        <time>2023-01-27T15:59:03Z</time>
      </trkpt>
      <trkpt lat="47.79594" lon="-3.65287">
        <ele>30.3</ele>
        <time>2023-01-27T15:59:04Z</time>
      </trkpt>
      <trkpt lat="47.79594" lon="-3.65283">
        <ele>30.3</ele>
        <time>2023-01-27T15:59:06Z</time>
      </trkpt>
      <trkpt lat="47.79594" lon="-3.65278">
        <ele>30.3</ele>
        <time>2023-01-27T15:59:07Z</time>
      </trkpt>
      <trkpt lat="47.79593" lon="-3.65274">
        <ele>30.3</ele>
        <time>2023-01-27T15:59:08Z</time>
      </trkpt>
      <trkpt lat="47.79593" lon="-3.65269">
        <ele>30.3</ele>
        <time>2023-01-27T15:59:09Z</time>
      </trkpt>
      <trkpt lat="47.79593" lon="-3.65267">
        <ele>30.3</ele>
        <time>2023-01-27T15:59:10Z</time>
      </trkpt>
      <trkpt lat="47.79592" lon="-3.65262">
        <ele>30.3</ele>
        <time>2023-01-27T15:59:11Z</time>
      </trkpt>
      <trkpt lat="47.79592" lon="-3.65261">
        <ele>30.4</ele>
        <time>2023-01-27T15:59:12Z</time>
      </trkpt>
      <trkpt lat="47.79592" lon="-3.65255">
        <ele>30.4</ele>
        <time>2023-01-27T15:59:13Z</time>
      </trkpt>
      <trkpt lat="47.79592" lon="-3.65253">
        <ele>30.4</ele>
        <time>2023-01-27T15:59:14Z</time>
      </trkpt>
      <trkpt lat="47.79592" lon="-3.65248">
        <ele>30.4</ele>
        <time>2023-01-27T15:59:15Z</time>
      </trkpt>
      <trkpt lat="47.79592" lon="-3.65246">
        <ele>30.4</ele>
        <time>2023-01-27T15:59:16Z</time>
      </trkpt>
      <trkpt lat="47.79592" lon="-3.65241">
        <ele>30.4</ele>
        <time>2023-01-27T15:59:17Z</time>
      </trkpt>
      <trkpt lat="47.79592" lon="-3.65239">
        <ele>30.4</ele>
        <time>2023-01-27T15:59:18Z</time>
      </trkpt>
      <trkpt lat="47.79592" lon="-3.65234">
        <ele>30.4</ele>
        <time>2023-01-27T15:59:19Z</time>
      </trkpt>
      <trkpt lat="47.79592" lon="-3.65232">
        <ele>30.4</ele>
        <time>2023-01-27T15:59:20Z</time>
      </trkpt>
      <trkpt lat="47.7959" lon="-3.65226">
        <ele>30.5</ele>
        <time>2023-01-27T15:59:21Z</time>
      </trkpt>
      <trkpt lat="47.7959" lon="-3.65224">
        <ele>30.5</ele>
        <time>2023-01-27T15:59:22Z</time>
      </trkpt>
      <trkpt lat="47.79589" lon="-3.65217">
        <ele>30.6</ele>
        <time>2023-01-27T15:59:23Z</time>
      </trkpt>
      <trkpt lat="47.79589" lon="-3.65213">
        <ele>30.7</ele>
        <time>2023-01-27T15:59:24Z</time>
      </trkpt>
      <trkpt lat="47.79589" lon="-3.65209">
        <ele>30.7</ele>
        <time>2023-01-27T15:59:26Z</time>
      </trkpt>
      <trkpt lat="47.79588" lon="-3.65204">
        <ele>30.9</ele>
        <time>2023-01-27T15:59:27Z</time>
      </trkpt>
      <trkpt lat="47.79588" lon="-3.65198">
        <ele>31</ele>
        <time>2023-01-27T15:59:28Z</time>
      </trkpt>
      <trkpt lat="47.79588" lon="-3.65193">
        <ele>31.2</ele>
        <time>2023-01-27T15:59:29Z</time>
      </trkpt>
      <trkpt lat="47.79588" lon="-3.65188">
        <ele>31.4</ele>
        <time>2023-01-27T15:59:30Z</time>
      </trkpt>
      <trkpt lat="47.79588" lon="-3.65181">
        <ele>31.7</ele>
        <time>2023-01-27T15:59:31Z</time>
      </trkpt>
      <trkpt lat="47.79588" lon="-3.65176">
        <ele>31.9</ele>
        <time>2023-01-27T15:59:33Z</time>
      </trkpt>
      <trkpt lat="47.79588" lon="-3.6517">
        <ele>32.1</ele>
        <time>2023-01-27T15:59:34Z</time>
      </trkpt>
      <trkpt lat="47.79588" lon="-3.65165">
        <ele>32.3</ele>
        <time>2023-01-27T15:59:36Z</time>
      </trkpt>
      <trkpt lat="47.79588" lon="-3.65163">
        <ele>32.4</ele>
        <time>2023-01-27T15:59:37Z</time>
      </trkpt>
      <trkpt lat="47.79588" lon="-3.65158">
        <ele>32.5</ele>
        <time>2023-01-27T15:59:38Z</time>
      </trkpt>
      <trkpt lat="47.79588" lon="-3.65156">
        <ele>32.6</ele>
        <time>2023-01-27T15:59:39Z</time>
      </trkpt>
      <trkpt lat="47.79588" lon="-3.6515">
        <ele>32.8</ele>
        <time>2023-01-27T15:59:40Z</time>
      </trkpt>
      <trkpt lat="47.79588" lon="-3.65148">
        <ele>32.8</ele>
        <time>2023-01-27T15:59:41Z</time>
      </trkpt>
      <trkpt lat="47.79588" lon="-3.65144">
        <ele>32.9</ele>
        <time>2023-01-27T15:59:42Z</time>
      </trkpt>
      <trkpt lat="47.79588" lon="-3.65143">
        <ele>33</ele>
        <time>2023-01-27T15:59:43Z</time>
      </trkpt>
      <trkpt lat="47.79588" lon="-3.65139">
        <ele>33.1</ele>
        <time>2023-01-27T15:59:44Z</time>
      </trkpt>
      <trkpt lat="47.79588" lon="-3.65137">
        <ele>33.1</ele>
        <time>2023-01-27T15:59:45Z</time>
      </trkpt>
      <trkpt lat="47.79588" lon="-3.65132">
        <ele>33.3</ele>
        <time>2023-01-27T15:59:46Z</time>
      </trkpt>
      <trkpt lat="47.79588" lon="-3.6513">
        <ele>33.3</ele>
        <time>2023-01-27T15:59:47Z</time>
      </trkpt>
      <trkpt lat="47.79588" lon="-3.65127">
        <ele>33.4</ele>
        <time>2023-01-27T15:59:48Z</time>
      </trkpt>
      <trkpt lat="47.79588" lon="-3.65125">
        <ele>33.4</ele>
        <time>2023-01-27T15:59:49Z</time>
      </trkpt>
      <trkpt lat="47.79589" lon="-3.65122">
        <ele>33.5</ele>
        <time>2023-01-27T15:59:51Z</time>
      </trkpt>
      <trkpt lat="47.79589" lon="-3.65121">
        <ele>33.5</ele>
        <time>2023-01-27T15:59:52Z</time>
      </trkpt>
      <trkpt lat="47.79589" lon="-3.6512">
        <ele>33.6</ele>
        <time>2023-01-27T15:59:53Z</time>
      </trkpt>
      <trkpt lat="47.79591" lon="-3.65116">
        <ele>33.7</ele>
        <time>2023-01-27T15:59:54Z</time>
      </trkpt>
      <trkpt lat="47.79591" lon="-3.65114">
        <ele>33.7</ele>
        <time>2023-01-27T15:59:55Z</time>
      </trkpt>
      <trkpt lat="47.79592" lon="-3.65108">
        <ele>33.8</ele>
        <time>2023-01-27T15:59:56Z</time>
      </trkpt>
      <trkpt lat="47.79594" lon="-3.65102">
        <ele>34</ele>
        <time>2023-01-27T15:59:58Z</time>
      </trkpt>
      <trkpt lat="47.79594" lon="-3.65098">
        <ele>34</ele>
        <time>2023-01-27T15:59:59Z</time>
      </trkpt>
      <trkpt lat="47.79595" lon="-3.65094">
        <ele>34.1</ele>
        <time>2023-01-27T16:00:00Z</time>
      </trkpt>
      <trkpt lat="47.79597" lon="-3.65089">
        <ele>34.2</ele>
        <time>2023-01-27T16:00:01Z</time>
      </trkpt>
      <trkpt lat="47.79597" lon="-3.65087">
        <ele>34.2</ele>
        <time>2023-01-27T16:00:02Z</time>
      </trkpt>
      <trkpt lat="47.79598" lon="-3.65079">
        <ele>34.3</ele>
        <time>2023-01-27T16:00:04Z</time>
      </trkpt>
      <trkpt lat="47.79599" lon="-3.65075">
        <ele>34.4</ele>
        <time>2023-01-27T16:00:06Z</time>
      </trkpt>
      <trkpt lat="47.796" lon="-3.65068">
        <ele>34.4</ele>
        <time>2023-01-27T16:00:07Z</time>
      </trkpt>
      <trkpt lat="47.796" lon="-3.6506">
        <ele>34.5</ele>
        <time>2023-01-27T16:00:09Z</time>
      </trkpt>
      <trkpt lat="47.796" lon="-3.65056">
        <ele>34.5</ele>
        <time>2023-01-27T16:00:11Z</time>
      </trkpt>
      <trkpt lat="47.79599" lon="-3.65049">
        <ele>34.5</ele>
        <time>2023-01-27T16:00:12Z</time>
      </trkpt>
      <trkpt lat="47.79599" lon="-3.65046">
        <ele>34.5</ele>
        <time>2023-01-27T16:00:13Z</time>
      </trkpt>
      <trkpt lat="47.79601" lon="-3.65036">
        <ele>34.6</ele>
        <time>2023-01-27T16:00:15Z</time>
      </trkpt>
      <trkpt lat="47.79601" lon="-3.6503">
        <ele>34.7</ele>
        <time>2023-01-27T16:00:17Z</time>
      </trkpt>
      <trkpt lat="47.79602" lon="-3.65025">
        <ele>34.8</ele>
        <time>2023-01-27T16:00:18Z</time>
      </trkpt>
      <trkpt lat="47.79602" lon="-3.65019">
        <ele>34.8</ele>
        <time>2023-01-27T16:00:19Z</time>
      </trkpt>
      <trkpt lat="47.79603" lon="-3.65014">
        <ele>34.9</ele>
        <time>2023-01-27T16:00:20Z</time>
      </trkpt>
      <trkpt lat="47.79604" lon="-3.65009">
        <ele>35</ele>
        <time>2023-01-27T16:00:21Z</time>
      </trkpt>
      <trkpt lat="47.79606" lon="-3.65004">
        <ele>35</ele>
        <time>2023-01-27T16:00:22Z</time>
      </trkpt>
      <trkpt lat="47.79609" lon="-3.65">
        <ele>35.1</ele>
        <time>2023-01-27T16:00:23Z</time>
      </trkpt>
      <trkpt lat="47.79612" lon="-3.64998">
        <ele>35.2</ele>
        <time>2023-01-27T16:00:24Z</time>
      </trkpt>
      <trkpt lat="47.79615" lon="-3.64996">
        <ele>35.2</ele>
        <time>2023-01-27T16:00:25Z</time>
      </trkpt>
      <trkpt lat="47.79619" lon="-3.64995">
        <ele>35.3</ele>
        <time>2023-01-27T16:00:26Z</time>
      </trkpt>
      <trkpt lat="47.79623" lon="-3.64995">
        <ele>35.4</ele>
        <time>2023-01-27T16:00:27Z</time>
      </trkpt>
      <trkpt lat="47.79627" lon="-3.64994">
        <ele>35.4</ele>
        <time>2023-01-27T16:00:28Z</time>
      </trkpt>
      <trkpt lat="47.79629" lon="-3.64993">
        <ele>35.5</ele>
        <time>2023-01-27T16:00:29Z</time>
      </trkpt>
      <trkpt lat="47.79634" lon="-3.64992">
        <ele>35.6</ele>
        <time>2023-01-27T16:00:30Z</time>
      </trkpt>
      <trkpt lat="47.79637" lon="-3.6499">
        <ele>35.6</ele>
        <time>2023-01-27T16:00:31Z</time>
      </trkpt>
      <trkpt lat="47.79644" lon="-3.64988">
        <ele>35.7</ele>
        <time>2023-01-27T16:00:33Z</time>
      </trkpt>
      <trkpt lat="47.79647" lon="-3.64987">
        <ele>35.8</ele>
        <time>2023-01-27T16:00:34Z</time>
      </trkpt>
      <trkpt lat="47.79652" lon="-3.64986">
        <ele>35.9</ele>
        <time>2023-01-27T16:00:36Z</time>
      </trkpt>
      <trkpt lat="47.79656" lon="-3.64986">
        <ele>36</ele>
        <time>2023-01-27T16:00:38Z</time>
      </trkpt>
      <trkpt lat="47.79658" lon="-3.64985">
        <ele>36</ele>
        <time>2023-01-27T16:00:39Z</time>
      </trkpt>
      <trkpt lat="47.79662" lon="-3.64984">
        <ele>36.1</ele>
        <time>2023-01-27T16:00:40Z</time>
      </trkpt>
      <trkpt lat="47.79665" lon="-3.64984">
        <ele>36.1</ele>
        <time>2023-01-27T16:00:41Z</time>
      </trkpt>
      <trkpt lat="47.79668" lon="-3.64982">
        <ele>36.2</ele>
        <time>2023-01-27T16:00:42Z</time>
      </trkpt>
      <trkpt lat="47.7967" lon="-3.64982">
        <ele>36.2</ele>
        <time>2023-01-27T16:00:43Z</time>
      </trkpt>
      <trkpt lat="47.79674" lon="-3.64982">
        <ele>36.3</ele>
        <time>2023-01-27T16:00:44Z</time>
      </trkpt>
      <trkpt lat="47.79677" lon="-3.64982">
        <ele>36.4</ele>
        <time>2023-01-27T16:00:45Z</time>
      </trkpt>
      <trkpt lat="47.7968" lon="-3.64981">
        <ele>36.4</ele>
        <time>2023-01-27T16:00:46Z</time>
      </trkpt>
      <trkpt lat="47.79684" lon="-3.6498">
        <ele>36.5</ele>
        <time>2023-01-27T16:00:47Z</time>
      </trkpt>
      <trkpt lat="47.79686" lon="-3.6498">
        <ele>36.5</ele>
        <time>2023-01-27T16:00:48Z</time>
      </trkpt>
      <trkpt lat="47.79689" lon="-3.64978">
        <ele>36.6</ele>
        <time>2023-01-27T16:00:49Z</time>
      </trkpt>
      <trkpt lat="47.79693" lon="-3.64976">
        <ele>36.6</ele>
        <time>2023-01-27T16:00:50Z</time>
      </trkpt>
      <trkpt lat="47.79695" lon="-3.64976">
        <ele>36.7</ele>
        <time>2023-01-27T16:00:51Z</time>
      </trkpt>
      <trkpt lat="47.79698" lon="-3.64974">
        <ele>36.7</ele>
        <time>2023-01-27T16:00:52Z</time>
      </trkpt>
      <trkpt lat="47.79701" lon="-3.64973">
        <ele>36.8</ele>
        <time>2023-01-27T16:00:53Z</time>
      </trkpt>
      <trkpt lat="47.79705" lon="-3.64972">
        <ele>36.9</ele>
        <time>2023-01-27T16:00:54Z</time>
      </trkpt>
      <trkpt lat="47.79708" lon="-3.64972">
        <ele>36.9</ele>
        <time>2023-01-27T16:00:55Z</time>
      </trkpt>
      <trkpt lat="47.79712" lon="-3.64972">
        <ele>37</ele>
        <time>2023-01-27T16:00:56Z</time>
      </trkpt>
      <trkpt lat="47.79716" lon="-3.64971">
        <ele>37.1</ele>
        <time>2023-01-27T16:00:57Z</time>
      </trkpt>
      <trkpt lat="47.79721" lon="-3.6497">
        <ele>37.1</ele>
        <time>2023-01-27T16:00:58Z</time>
      </trkpt>
      <trkpt lat="47.79724" lon="-3.6497">
        <ele>37.2</ele>
        <time>2023-01-27T16:00:59Z</time>
      </trkpt>
      <trkpt lat="47.79727" lon="-3.6497">
        <ele>37.3</ele>
        <time>2023-01-27T16:01:01Z</time>
      </trkpt>
      <trkpt lat="47.79731" lon="-3.6497">
        <ele>37.3</ele>
        <time>2023-01-27T16:01:02Z</time>
      </trkpt>
      <trkpt lat="47.79734" lon="-3.6497">
        <ele>37.4</ele>
        <time>2023-01-27T16:01:03Z</time>
      </trkpt>
      <trkpt lat="47.79737" lon="-3.6497">
        <ele>37.4</ele>
        <time>2023-01-27T16:01:04Z</time>
      </trkpt>
      <trkpt lat="47.79741" lon="-3.64971">
        <ele>37.5</ele>
        <time>2023-01-27T16:01:05Z</time>
      </trkpt>
      <trkpt lat="47.79745" lon="-3.64972">
        <ele>37.6</ele>
        <time>2023-01-27T16:01:06Z</time>
      </trkpt>
      <trkpt lat="47.79748" lon="-3.64972">
        <ele>37.6</ele>
        <time>2023-01-27T16:01:07Z</time>
      </trkpt>
      <trkpt lat="47.79753" lon="-3.64973">
        <ele>37.7</ele>
        <time>2023-01-27T16:01:08Z</time>
      </trkpt>
      <trkpt lat="47.79757" lon="-3.64974">
        <ele>37.8</ele>
        <time>2023-01-27T16:01:09Z</time>
      </trkpt>
      <trkpt lat="47.79761" lon="-3.64976">
        <ele>37.9</ele>
        <time>2023-01-27T16:01:10Z</time>
      </trkpt>
      <trkpt lat="47.79765" lon="-3.64977">
        <ele>38</ele>
        <time>2023-01-27T16:01:11Z</time>
      </trkpt>
      <trkpt lat="47.79769" lon="-3.64978">
        <ele>38</ele>
        <time>2023-01-27T16:01:12Z</time>
      </trkpt>
      <trkpt lat="47.79773" lon="-3.64979">
        <ele>38.1</ele>
        <time>2023-01-27T16:01:13Z</time>
      </trkpt>
      <trkpt lat="47.79777" lon="-3.6498">
        <ele>38.2</ele>
        <time>2023-01-27T16:01:14Z</time>
      </trkpt>
      <trkpt lat="47.79781" lon="-3.64981">
        <ele>38.2</ele>
        <time>2023-01-27T16:01:15Z</time>
      </trkpt>
      <trkpt lat="47.79785" lon="-3.64982">
        <ele>38.3</ele>
        <time>2023-01-27T16:01:16Z</time>
      </trkpt>
      <trkpt lat="47.79791" lon="-3.64984">
        <ele>38.4</ele>
        <time>2023-01-27T16:01:17Z</time>
      </trkpt>
      <trkpt lat="47.79795" lon="-3.64985">
        <ele>38.5</ele>
        <time>2023-01-27T16:01:19Z</time>
      </trkpt>
      <trkpt lat="47.79803" lon="-3.64987">
        <ele>38.6</ele>
        <time>2023-01-27T16:01:20Z</time>
      </trkpt>
      <trkpt lat="47.79807" lon="-3.64988">
        <ele>38.7</ele>
        <time>2023-01-27T16:01:22Z</time>
      </trkpt>
      <trkpt lat="47.79812" lon="-3.64989">
        <ele>38.8</ele>
        <time>2023-01-27T16:01:23Z</time>
      </trkpt>
      <trkpt lat="47.79816" lon="-3.64991">
        <ele>38.9</ele>
        <time>2023-01-27T16:01:24Z</time>
      </trkpt>
      <trkpt lat="47.7982" lon="-3.64992">
        <ele>39</ele>
        <time>2023-01-27T16:01:25Z</time>
      </trkpt>
      <trkpt lat="47.79824" lon="-3.64994">
        <ele>39</ele>
        <time>2023-01-27T16:01:26Z</time>
      </trkpt>
      <trkpt lat="47.79829" lon="-3.64995">
        <ele>39.1</ele>
        <time>2023-01-27T16:01:27Z</time>
      </trkpt>
      <trkpt lat="47.79833" lon="-3.64997">
        <ele>39.2</ele>
        <time>2023-01-27T16:01:28Z</time>
      </trkpt>
      <trkpt lat="47.79837" lon="-3.64998">
        <ele>39.3</ele>
        <time>2023-01-27T16:01:29Z</time>
      </trkpt>
      <trkpt lat="47.79842" lon="-3.64998">
        <ele>39.3</ele>
        <time>2023-01-27T16:01:30Z</time>
      </trkpt>
      <trkpt lat="47.79847" lon="-3.65">
        <ele>39.4</ele>
        <time>2023-01-27T16:01:31Z</time>
      </trkpt>
      <trkpt lat="47.79851" lon="-3.65001">
        <ele>39.5</ele>
        <time>2023-01-27T16:01:32Z</time>
      </trkpt>
      <trkpt lat="47.79856" lon="-3.65003">
        <ele>39.6</ele>
        <time>2023-01-27T16:01:33Z</time>
      </trkpt>
      <trkpt lat="47.7986" lon="-3.65003">
        <ele>39.7</ele>
        <time>2023-01-27T16:01:34Z</time>
      </trkpt>
      <trkpt lat="47.79864" lon="-3.65005">
        <ele>39.8</ele>
        <time>2023-01-27T16:01:35Z</time>
      </trkpt>
      <trkpt lat="47.79869" lon="-3.65006">
        <ele>39.8</ele>
        <time>2023-01-27T16:01:36Z</time>
      </trkpt>
      <trkpt lat="47.79875" lon="-3.65008">
        <ele>39.9</ele>
        <time>2023-01-27T16:01:37Z</time>
      </trkpt>
      <trkpt lat="47.7988" lon="-3.65009">
        <ele>40</ele>
        <time>2023-01-27T16:01:39Z</time>
      </trkpt>
      <trkpt lat="47.79884" lon="-3.6501">
        <ele>40.1</ele>
        <time>2023-01-27T16:01:40Z</time>
      </trkpt>
      <trkpt lat="47.79888" lon="-3.65011">
        <ele>40.2</ele>
        <time>2023-01-27T16:01:41Z</time>
      </trkpt>
      <trkpt lat="47.79892" lon="-3.65013">
        <ele>40.3</ele>
        <time>2023-01-27T16:01:42Z</time>
      </trkpt>
      <trkpt lat="47.79896" lon="-3.65015">
        <ele>40.3</ele>
        <time>2023-01-27T16:01:43Z</time>
      </trkpt>
      <trkpt lat="47.799" lon="-3.65016">
        <ele>40.4</ele>
        <time>2023-01-27T16:01:44Z</time>
      </trkpt>
      <trkpt lat="47.79904" lon="-3.65017">
        <ele>40.5</ele>
        <time>2023-01-27T16:01:45Z</time>
      </trkpt>
      <trkpt lat="47.79908" lon="-3.65018">
        <ele>40.6</ele>
        <time>2023-01-27T16:01:46Z</time>
      </trkpt>
      <trkpt lat="47.79912" lon="-3.6502">
        <ele>40.6</ele>
        <time>2023-01-27T16:01:47Z</time>
      </trkpt>
      <trkpt lat="47.79915" lon="-3.65021">
        <ele>40.7</ele>
        <time>2023-01-27T16:01:48Z</time>
      </trkpt>
      <trkpt lat="47.79919" lon="-3.65022">
        <ele>40.8</ele>
        <time>2023-01-27T16:01:49Z</time>
      </trkpt>
      <trkpt lat="47.79922" lon="-3.65023">
        <ele>40.8</ele>
        <time>2023-01-27T16:01:50Z</time>
      </trkpt>
      <trkpt lat="47.79925" lon="-3.65025">
        <ele>40.9</ele>
        <time>2023-01-27T16:01:51Z</time>
      </trkpt>
      <trkpt lat="47.79928" lon="-3.65028">
        <ele>40.9</ele>
        <time>2023-01-27T16:01:52Z</time>
      </trkpt>
      <trkpt lat="47.7993" lon="-3.65033">
        <ele>40.9</ele>
        <time>2023-01-27T16:01:53Z</time>
      </trkpt>
      <trkpt lat="47.79931" lon="-3.65038">
        <ele>40.6</ele>
        <time>2023-01-27T16:01:54Z</time>
      </trkpt>
      <trkpt lat="47.79932" lon="-3.65044">
        <ele>40.4</ele>
        <time>2023-01-27T16:01:55Z</time>
      </trkpt>
      <trkpt lat="47.79933" lon="-3.6505">
        <ele>40.2</ele>
        <time>2023-01-27T16:01:56Z</time>
      </trkpt>
      <trkpt lat="47.79931" lon="-3.65058">
        <ele>39.9</ele>
        <time>2023-01-27T16:01:57Z</time>
      </trkpt>
      <trkpt lat="47.7993" lon="-3.65067">
        <ele>39.5</ele>
        <time>2023-01-27T16:01:58Z</time>
      </trkpt>
      <trkpt lat="47.7993" lon="-3.65075">
        <ele>39.2</ele>
        <time>2023-01-27T16:01:59Z</time>
      </trkpt>
      <trkpt lat="47.79929" lon="-3.65083">
        <ele>39</ele>
        <time>2023-01-27T16:02:00Z</time>
      </trkpt>
      <trkpt lat="47.79929" lon="-3.65092">
        <ele>38.7</ele>
        <time>2023-01-27T16:02:01Z</time>
      </trkpt>
      <trkpt lat="47.79929" lon="-3.65102">
        <ele>38.6</ele>
        <time>2023-01-27T16:02:02Z</time>
      </trkpt>
      <trkpt lat="47.79928" lon="-3.65112">
        <ele>38.5</ele>
        <time>2023-01-27T16:02:03Z</time>
      </trkpt>
      <trkpt lat="47.79928" lon="-3.65121">
        <ele>38.4</ele>
        <time>2023-01-27T16:02:04Z</time>
      </trkpt>
      <trkpt lat="47.79927" lon="-3.65131">
        <ele>38.4</ele>
        <time>2023-01-27T16:02:05Z</time>
      </trkpt>
      <trkpt lat="47.79927" lon="-3.65141">
        <ele>38.5</ele>
        <time>2023-01-27T16:02:06Z</time>
      </trkpt>
      <trkpt lat="47.79926" lon="-3.65151">
        <ele>38.6</ele>
        <time>2023-01-27T16:02:07Z</time>
      </trkpt>
      <trkpt lat="47.79926" lon="-3.6516">
        <ele>38.8</ele>
        <time>2023-01-27T16:02:08Z</time>
      </trkpt>
      <trkpt lat="47.79926" lon="-3.65168">
        <ele>38.9</ele>
        <time>2023-01-27T16:02:09Z</time>
      </trkpt>
      <trkpt lat="47.79925" lon="-3.65177">
        <ele>39</ele>
        <time>2023-01-27T16:02:10Z</time>
      </trkpt>
      <trkpt lat="47.79925" lon="-3.65185">
        <ele>39.2</ele>
        <time>2023-01-27T16:02:11Z</time>
      </trkpt>
      <trkpt lat="47.79925" lon="-3.65192">
        <ele>39.3</ele>
        <time>2023-01-27T16:02:12Z</time>
      </trkpt>
      <trkpt lat="47.79925" lon="-3.652">
        <ele>39.4</ele>
        <time>2023-01-27T16:02:13Z</time>
      </trkpt>
      <trkpt lat="47.79924" lon="-3.65208">
        <ele>39.6</ele>
        <time>2023-01-27T16:02:14Z</time>
      </trkpt>
      <trkpt lat="47.79924" lon="-3.65215">
        <ele>39.7</ele>
        <time>2023-01-27T16:02:15Z</time>
      </trkpt>
      <trkpt lat="47.79924" lon="-3.65222">
        <ele>39.8</ele>
        <time>2023-01-27T16:02:16Z</time>
      </trkpt>
      <trkpt lat="47.79923" lon="-3.65229">
        <ele>40</ele>
        <time>2023-01-27T16:02:17Z</time>
      </trkpt>
      <trkpt lat="47.79923" lon="-3.65236">
        <ele>40.1</ele>
        <time>2023-01-27T16:02:18Z</time>
      </trkpt>
      <trkpt lat="47.79923" lon="-3.65243">
        <ele>40.2</ele>
        <time>2023-01-27T16:02:19Z</time>
      </trkpt>
      <trkpt lat="47.79923" lon="-3.65251">
        <ele>40.3</ele>
        <time>2023-01-27T16:02:20Z</time>
      </trkpt>
      <trkpt lat="47.79923" lon="-3.65258">
        <ele>40.4</ele>
        <time>2023-01-27T16:02:21Z</time>
      </trkpt>
      <trkpt lat="47.79923" lon="-3.65265">
        <ele>40.5</ele>
        <time>2023-01-27T16:02:22Z</time>
      </trkpt>
      <trkpt lat="47.79922" lon="-3.65272">
        <ele>40.6</ele>
        <time>2023-01-27T16:02:23Z</time>
      </trkpt>
      <trkpt lat="47.79922" lon="-3.65279">
        <ele>40.6</ele>
        <time>2023-01-27T16:02:24Z</time>
      </trkpt>
      <trkpt lat="47.79922" lon="-3.65285">
        <ele>40.7</ele>
        <time>2023-01-27T16:02:25Z</time>
      </trkpt>
      <trkpt lat="47.79922" lon="-3.65292">
        <ele>40.7</ele>
        <time>2023-01-27T16:02:26Z</time>
      </trkpt>
      <trkpt lat="47.79922" lon="-3.65299">
        <ele>40.8</ele>
        <time>2023-01-27T16:02:27Z</time>
      </trkpt>
      <trkpt lat="47.79922" lon="-3.65306">
        <ele>40.8</ele>
        <time>2023-01-27T16:02:28Z</time>
      </trkpt>
      <trkpt lat="47.79922" lon="-3.65313">
        <ele>40.7</ele>
        <time>2023-01-27T16:02:29Z</time>
      </trkpt>
      <trkpt lat="47.79921" lon="-3.6532">
        <ele>40.7</ele>
        <time>2023-01-27T16:02:30Z</time>
      </trkpt>
      <trkpt lat="47.79921" lon="-3.65327">
        <ele>40.6</ele>
        <time>2023-01-27T16:02:31Z</time>
      </trkpt>
      <trkpt lat="47.79921" lon="-3.65334">
        <ele>40.5</ele>
        <time>2023-01-27T16:02:32Z</time>
      </trkpt>
      <trkpt lat="47.79921" lon="-3.65342">
        <ele>40.4</ele>
        <time>2023-01-27T16:02:33Z</time>
      </trkpt>
      <trkpt lat="47.79921" lon="-3.65349">
        <ele>40.4</ele>
        <time>2023-01-27T16:02:34Z</time>
      </trkpt>
      <trkpt lat="47.7992" lon="-3.65356">
        <ele>40.3</ele>
        <time>2023-01-27T16:02:35Z</time>
      </trkpt>
      <trkpt lat="47.7992" lon="-3.65364">
        <ele>40.2</ele>
        <time>2023-01-27T16:02:36Z</time>
      </trkpt>
      <trkpt lat="47.7992" lon="-3.65372">
        <ele>40.1</ele>
        <time>2023-01-27T16:02:37Z</time>
      </trkpt>
      <trkpt lat="47.79919" lon="-3.65379">
        <ele>40.1</ele>
        <time>2023-01-27T16:02:38Z</time>
      </trkpt>
      <trkpt lat="47.79919" lon="-3.65387">
        <ele>40</ele>
        <time>2023-01-27T16:02:39Z</time>
      </trkpt>
      <trkpt lat="47.79919" lon="-3.65394">
        <ele>40</ele>
        <time>2023-01-27T16:02:40Z</time>
      </trkpt>
      <trkpt lat="47.79918" lon="-3.65402">
        <ele>39.9</ele>
        <time>2023-01-27T16:02:41Z</time>
      </trkpt>
      <trkpt lat="47.79919" lon="-3.6541">
        <ele>39.9</ele>
        <time>2023-01-27T16:02:42Z</time>
      </trkpt>
      <trkpt lat="47.79919" lon="-3.65418">
        <ele>39.9</ele>
        <time>2023-01-27T16:02:43Z</time>
      </trkpt>
      <trkpt lat="47.79919" lon="-3.65426">
        <ele>39.9</ele>
        <time>2023-01-27T16:02:44Z</time>
      </trkpt>
      <trkpt lat="47.79919" lon="-3.65433">
        <ele>39.8</ele>
        <time>2023-01-27T16:02:45Z</time>
      </trkpt>
      <trkpt lat="47.79919" lon="-3.6544">
        <ele>39.8</ele>
        <time>2023-01-27T16:02:46Z</time>
      </trkpt>
      <trkpt lat="47.79918" lon="-3.65448">
        <ele>39.8</ele>
        <time>2023-01-27T16:02:47Z</time>
      </trkpt>
      <trkpt lat="47.79918" lon="-3.65456">
        <ele>39.7</ele>
        <time>2023-01-27T16:02:48Z</time>
      </trkpt>
      <trkpt lat="47.79917" lon="-3.65463">
        <ele>39.7</ele>
        <time>2023-01-27T16:02:49Z</time>
      </trkpt>
      <trkpt lat="47.79917" lon="-3.6547">
        <ele>39.6</ele>
        <time>2023-01-27T16:02:50Z</time>
      </trkpt>
      <trkpt lat="47.79917" lon="-3.65478">
        <ele>39.6</ele>
        <time>2023-01-27T16:02:51Z</time>
      </trkpt>
      <trkpt lat="47.79918" lon="-3.65484">
        <ele>39.5</ele>
        <time>2023-01-27T16:02:52Z</time>
      </trkpt>
      <trkpt lat="47.7992" lon="-3.6549">
        <ele>39.4</ele>
        <time>2023-01-27T16:02:53Z</time>
      </trkpt>
      <trkpt lat="47.79924" lon="-3.65494">
        <ele>39.5</ele>
        <time>2023-01-27T16:02:54Z</time>
      </trkpt>
      <trkpt lat="47.79928" lon="-3.65496">
        <ele>39.6</ele>
        <time>2023-01-27T16:02:55Z</time>
      </trkpt>
      <trkpt lat="47.79933" lon="-3.65494">
        <ele>39.7</ele>
        <time>2023-01-27T16:02:56Z</time>
      </trkpt>
      <trkpt lat="47.79937" lon="-3.65491">
        <ele>39.8</ele>
        <time>2023-01-27T16:02:57Z</time>
      </trkpt>
      <trkpt lat="47.79942" lon="-3.65488">
        <ele>40</ele>
        <time>2023-01-27T16:02:58Z</time>
      </trkpt>
      <trkpt lat="47.79947" lon="-3.65485">
        <ele>40.1</ele>
        <time>2023-01-27T16:02:59Z</time>
      </trkpt>
      <trkpt lat="47.79952" lon="-3.65482">
        <ele>40.3</ele>
        <time>2023-01-27T16:03:00Z</time>
      </trkpt>
      <trkpt lat="47.79956" lon="-3.65478">
        <ele>40.4</ele>
        <time>2023-01-27T16:03:01Z</time>
      </trkpt>
      <trkpt lat="47.79961" lon="-3.65475">
        <ele>40.5</ele>
        <time>2023-01-27T16:03:02Z</time>
      </trkpt>
      <trkpt lat="47.79966" lon="-3.65472">
        <ele>40.7</ele>
        <time>2023-01-27T16:03:03Z</time>
      </trkpt>
      <trkpt lat="47.7997" lon="-3.65469">
        <ele>40.8</ele>
        <time>2023-01-27T16:03:04Z</time>
      </trkpt>
      <trkpt lat="47.79975" lon="-3.65467">
        <ele>40.9</ele>
        <time>2023-01-27T16:03:05Z</time>
      </trkpt>
      <trkpt lat="47.7998" lon="-3.65464">
        <ele>41.1</ele>
        <time>2023-01-27T16:03:06Z</time>
      </trkpt>
      <trkpt lat="47.79984" lon="-3.65461">
        <ele>41.2</ele>
        <time>2023-01-27T16:03:07Z</time>
      </trkpt>
      <trkpt lat="47.79988" lon="-3.65458">
        <ele>41.4</ele>
        <time>2023-01-27T16:03:08Z</time>
      </trkpt>
      <trkpt lat="47.79993" lon="-3.65455">
        <ele>41.5</ele>
        <time>2023-01-27T16:03:09Z</time>
      </trkpt>
      <trkpt lat="47.79997" lon="-3.65452">
        <ele>41.7</ele>
        <time>2023-01-27T16:03:10Z</time>
      </trkpt>
      <trkpt lat="47.80002" lon="-3.65449">
        <ele>41.8</ele>
        <time>2023-01-27T16:03:11Z</time>
      </trkpt>
      <trkpt lat="47.80006" lon="-3.65446">
        <ele>42</ele>
        <time>2023-01-27T16:03:12Z</time>
      </trkpt>
      <trkpt lat="47.8001" lon="-3.65443">
        <ele>42.2</ele>
        <time>2023-01-27T16:03:13Z</time>
      </trkpt>
      <trkpt lat="47.80014" lon="-3.6544">
        <ele>42.3</ele>
        <time>2023-01-27T16:03:14Z</time>
      </trkpt>
      <trkpt lat="47.80018" lon="-3.65436">
        <ele>42.5</ele>
        <time>2023-01-27T16:03:15Z</time>
      </trkpt>
      <trkpt lat="47.80022" lon="-3.65433">
        <ele>42.6</ele>
        <time>2023-01-27T16:03:16Z</time>
      </trkpt>
      <trkpt lat="47.80026" lon="-3.6543">
        <ele>42.8</ele>
        <time>2023-01-27T16:03:17Z</time>
      </trkpt>
      <trkpt lat="47.8003" lon="-3.65426">
        <ele>42.9</ele>
        <time>2023-01-27T16:03:18Z</time>
      </trkpt>
      <trkpt lat="47.80033" lon="-3.65422">
        <ele>43.1</ele>
        <time>2023-01-27T16:03:19Z</time>
      </trkpt>
      <trkpt lat="47.80036" lon="-3.65419">
        <ele>43.2</ele>
        <time>2023-01-27T16:03:20Z</time>
      </trkpt>
      <trkpt lat="47.8004" lon="-3.65414">
        <ele>43.4</ele>
        <time>2023-01-27T16:03:21Z</time>
      </trkpt>
      <trkpt lat="47.80043" lon="-3.65412">
        <ele>43.4</ele>
        <time>2023-01-27T16:03:22Z</time>
      </trkpt>
      <trkpt lat="47.80046" lon="-3.65407">
        <ele>43.6</ele>
        <time>2023-01-27T16:03:23Z</time>
      </trkpt>
      <trkpt lat="47.80049" lon="-3.65403">
        <ele>43.8</ele>
        <time>2023-01-27T16:03:24Z</time>
      </trkpt>
      <trkpt lat="47.80052" lon="-3.65399">
        <ele>43.9</ele>
        <time>2023-01-27T16:03:25Z</time>
      </trkpt>
      <trkpt lat="47.80055" lon="-3.65395">
        <ele>44</ele>
        <time>2023-01-27T16:03:26Z</time>
      </trkpt>
      <trkpt lat="47.80059" lon="-3.65392">
        <ele>44.2</ele>
        <time>2023-01-27T16:03:27Z</time>
      </trkpt>
      <trkpt lat="47.80061" lon="-3.6539">
        <ele>44.3</ele>
        <time>2023-01-27T16:03:28Z</time>
      </trkpt>
      <trkpt lat="47.80065" lon="-3.65385">
        <ele>44.4</ele>
        <time>2023-01-27T16:03:29Z</time>
      </trkpt>
      <trkpt lat="47.80069" lon="-3.65381">
        <ele>44.6</ele>
        <time>2023-01-27T16:03:30Z</time>
      </trkpt>
      <trkpt lat="47.80072" lon="-3.65378">
        <ele>44.7</ele>
        <time>2023-01-27T16:03:31Z</time>
      </trkpt>
      <trkpt lat="47.80076" lon="-3.65375">
        <ele>44.8</ele>
        <time>2023-01-27T16:03:32Z</time>
      </trkpt>
      <trkpt lat="47.8008" lon="-3.65372">
        <ele>44.9</ele>
        <time>2023-01-27T16:03:33Z</time>
      </trkpt>
      <trkpt lat="47.80087" lon="-3.65367">
        <ele>45.1</ele>
        <time>2023-01-27T16:03:35Z</time>
      </trkpt>
      <trkpt lat="47.80092" lon="-3.65364">
        <ele>45.2</ele>
        <time>2023-01-27T16:03:36Z</time>
      </trkpt>
      <trkpt lat="47.80096" lon="-3.65362">
        <ele>45.3</ele>
        <time>2023-01-27T16:03:37Z</time>
      </trkpt>
      <trkpt lat="47.80101" lon="-3.65359">
        <ele>45.5</ele>
        <time>2023-01-27T16:03:38Z</time>
      </trkpt>
      <trkpt lat="47.80108" lon="-3.65355">
        <ele>45.6</ele>
        <time>2023-01-27T16:03:40Z</time>
      </trkpt>
      <trkpt lat="47.80115" lon="-3.65353">
        <ele>45.7</ele>
        <time>2023-01-27T16:03:42Z</time>
      </trkpt>
      <trkpt lat="47.80122" lon="-3.65348">
        <ele>45.8</ele>
        <time>2023-01-27T16:03:43Z</time>
      </trkpt>
      <trkpt lat="47.80126" lon="-3.65345">
        <ele>45.9</ele>
        <time>2023-01-27T16:03:45Z</time>
      </trkpt>
      <trkpt lat="47.80131" lon="-3.65343">
        <ele>45.9</ele>
        <time>2023-01-27T16:03:46Z</time>
      </trkpt>
      <trkpt lat="47.80135" lon="-3.65341">
        <ele>46</ele>
        <time>2023-01-27T16:03:47Z</time>
      </trkpt>
      <trkpt lat="47.80139" lon="-3.65338">
        <ele>46.1</ele>
        <time>2023-01-27T16:03:48Z</time>
      </trkpt>
      <trkpt lat="47.80143" lon="-3.65336">
        <ele>46.2</ele>
        <time>2023-01-27T16:03:49Z</time>
      </trkpt>
      <trkpt lat="47.80147" lon="-3.65334">
        <ele>46.2</ele>
        <time>2023-01-27T16:03:50Z</time>
      </trkpt>
      <trkpt lat="47.80151" lon="-3.65332">
        <ele>46.3</ele>
        <time>2023-01-27T16:03:51Z</time>
      </trkpt>
      <trkpt lat="47.80155" lon="-3.65329">
        <ele>46.4</ele>
        <time>2023-01-27T16:03:52Z</time>
      </trkpt>
      <trkpt lat="47.8016" lon="-3.65324">
        <ele>46.5</ele>
        <time>2023-01-27T16:03:53Z</time>
      </trkpt>
      <trkpt lat="47.80164" lon="-3.65321">
        <ele>46.6</ele>
        <time>2023-01-27T16:03:54Z</time>
      </trkpt>
      <trkpt lat="47.80168" lon="-3.65317">
        <ele>46.7</ele>
        <time>2023-01-27T16:03:55Z</time>
      </trkpt>
      <trkpt lat="47.80172" lon="-3.65314">
        <ele>46.8</ele>
        <time>2023-01-27T16:03:56Z</time>
      </trkpt>
      <trkpt lat="47.80175" lon="-3.65311">
        <ele>46.8</ele>
        <time>2023-01-27T16:03:57Z</time>
      </trkpt>
      <trkpt lat="47.80178" lon="-3.65307">
        <ele>46.9</ele>
        <time>2023-01-27T16:03:58Z</time>
      </trkpt>
      <trkpt lat="47.80182" lon="-3.65304">
        <ele>46.9</ele>
        <time>2023-01-27T16:03:59Z</time>
      </trkpt>
      <trkpt lat="47.80185" lon="-3.653">
        <ele>47</ele>
        <time>2023-01-27T16:04:00Z</time>
      </trkpt>
      <trkpt lat="47.80188" lon="-3.65297">
        <ele>47.1</ele>
        <time>2023-01-27T16:04:01Z</time>
      </trkpt>
      <trkpt lat="47.80192" lon="-3.65293">
        <ele>47.1</ele>
        <time>2023-01-27T16:04:02Z</time>
      </trkpt>
      <trkpt lat="47.80195" lon="-3.65289">
        <ele>47.2</ele>
        <time>2023-01-27T16:04:03Z</time>
      </trkpt>
      <trkpt lat="47.80198" lon="-3.65286">
        <ele>47.3</ele>
        <time>2023-01-27T16:04:04Z</time>
      </trkpt>
      <trkpt lat="47.802" lon="-3.65282">
        <ele>47.4</ele>
        <time>2023-01-27T16:04:05Z</time>
      </trkpt>
      <trkpt lat="47.80203" lon="-3.65278">
        <ele>47.5</ele>
        <time>2023-01-27T16:04:06Z</time>
      </trkpt>
      <trkpt lat="47.80207" lon="-3.65273">
        <ele>47.6</ele>
        <time>2023-01-27T16:04:07Z</time>
      </trkpt>
      <trkpt lat="47.8021" lon="-3.65269">
        <ele>47.7</ele>
        <time>2023-01-27T16:04:09Z</time>
      </trkpt>
      <trkpt lat="47.80212" lon="-3.65266">
        <ele>47.8</ele>
        <time>2023-01-27T16:04:10Z</time>
      </trkpt>
      <trkpt lat="47.80215" lon="-3.65262">
        <ele>47.9</ele>
        <time>2023-01-27T16:04:11Z</time>
      </trkpt>
      <trkpt lat="47.80217" lon="-3.65258">
        <ele>48</ele>
        <time>2023-01-27T16:04:12Z</time>
      </trkpt>
      <trkpt lat="47.8022" lon="-3.65254">
        <ele>48.1</ele>
        <time>2023-01-27T16:04:13Z</time>
      </trkpt>
      <trkpt lat="47.80222" lon="-3.6525">
        <ele>48.2</ele>
        <time>2023-01-27T16:04:14Z</time>
      </trkpt>
      <trkpt lat="47.80225" lon="-3.65246">
        <ele>48.3</ele>
        <time>2023-01-27T16:04:15Z</time>
      </trkpt>
      <trkpt lat="47.80227" lon="-3.65243">
        <ele>48.4</ele>
        <time>2023-01-27T16:04:16Z</time>
      </trkpt>
      <trkpt lat="47.8023" lon="-3.6524">
        <ele>48.5</ele>
        <time>2023-01-27T16:04:17Z</time>
      </trkpt>
      <trkpt lat="47.80232" lon="-3.65236">
        <ele>48.5</ele>
        <time>2023-01-27T16:04:18Z</time>
      </trkpt>
      <trkpt lat="47.80232" lon="-3.65227">
        <ele>48.4</ele>
        <time>2023-01-27T16:04:19Z</time>
      </trkpt>
      <trkpt lat="47.80232" lon="-3.65218">
        <ele>48.4</ele>
        <time>2023-01-27T16:04:21Z</time>
      </trkpt>
      <trkpt lat="47.80231" lon="-3.65213">
        <ele>48.3</ele>
        <time>2023-01-27T16:04:23Z</time>
      </trkpt>
      <trkpt lat="47.8023" lon="-3.65207">
        <ele>48.3</ele>
        <time>2023-01-27T16:04:24Z</time>
      </trkpt>
      <trkpt lat="47.80229" lon="-3.65202">
        <ele>48.3</ele>
        <time>2023-01-27T16:04:25Z</time>
      </trkpt>
      <trkpt lat="47.80224" lon="-3.65197">
        <ele>48.2</ele>
        <time>2023-01-27T16:04:26Z</time>
      </trkpt>
      <trkpt lat="47.80219" lon="-3.65192">
        <ele>48.2</ele>
        <time>2023-01-27T16:04:27Z</time>
      </trkpt>
      <trkpt lat="47.80214" lon="-3.65187">
        <ele>48.2</ele>
        <time>2023-01-27T16:04:28Z</time>
      </trkpt>
      <trkpt lat="47.8021" lon="-3.65182">
        <ele>48.1</ele>
        <time>2023-01-27T16:04:29Z</time>
      </trkpt>
      <trkpt lat="47.80206" lon="-3.65176">
        <ele>48.1</ele>
        <time>2023-01-27T16:04:30Z</time>
      </trkpt>
      <trkpt lat="47.80205" lon="-3.65172">
        <ele>48.1</ele>
        <time>2023-01-27T16:04:31Z</time>
      </trkpt>
      <trkpt lat="47.80202" lon="-3.65164">
        <ele>48.1</ele>
        <time>2023-01-27T16:04:32Z</time>
      </trkpt>
      <trkpt lat="47.802" lon="-3.65158">
        <ele>48.1</ele>
        <time>2023-01-27T16:04:33Z</time>
      </trkpt>
      <trkpt lat="47.80198" lon="-3.65154">
        <ele>48.1</ele>
        <time>2023-01-27T16:04:34Z</time>
      </trkpt>
      <trkpt lat="47.80194" lon="-3.65144">
        <ele>48.1</ele>
        <time>2023-01-27T16:04:36Z</time>
      </trkpt>
      <trkpt lat="47.80191" lon="-3.65138">
        <ele>48.1</ele>
        <time>2023-01-27T16:04:37Z</time>
      </trkpt>
      <trkpt lat="47.8019" lon="-3.65131">
        <ele>48.1</ele>
        <time>2023-01-27T16:04:38Z</time>
      </trkpt>
      <trkpt lat="47.80189" lon="-3.65124">
        <ele>48.1</ele>
        <time>2023-01-27T16:04:40Z</time>
      </trkpt>
      <trkpt lat="47.80189" lon="-3.65115">
        <ele>48.2</ele>
        <time>2023-01-27T16:04:41Z</time>
      </trkpt>
      <trkpt lat="47.80187" lon="-3.65108">
        <ele>48.2</ele>
        <time>2023-01-27T16:04:42Z</time>
      </trkpt>
      <trkpt lat="47.80186" lon="-3.65099">
        <ele>48.3</ele>
        <time>2023-01-27T16:04:43Z</time>
      </trkpt>
      <trkpt lat="47.80186" lon="-3.65095">
        <ele>48.3</ele>
        <time>2023-01-27T16:04:44Z</time>
      </trkpt>
      <trkpt lat="47.80186" lon="-3.65089">
        <ele>48.4</ele>
        <time>2023-01-27T16:04:45Z</time>
      </trkpt>
      <trkpt lat="47.80189" lon="-3.65075">
        <ele>48.6</ele>
        <time>2023-01-27T16:04:47Z</time>
      </trkpt>
      <trkpt lat="47.80197" lon="-3.65073">
        <ele>48.8</ele>
        <time>2023-01-27T16:04:49Z</time>
      </trkpt>
      <trkpt lat="47.80201" lon="-3.65072">
        <ele>49</ele>
        <time>2023-01-27T16:04:51Z</time>
      </trkpt>
      <trkpt lat="47.80203" lon="-3.65071">
        <ele>49</ele>
        <time>2023-01-27T16:04:52Z</time>
      </trkpt>
      <trkpt lat="47.80204" lon="-3.6507">
        <ele>49.1</ele>
        <time>2023-01-27T16:04:53Z</time>
      </trkpt>
      <trkpt lat="47.80208" lon="-3.65068">
        <ele>49.2</ele>
        <time>2023-01-27T16:04:54Z</time>
      </trkpt>
      <trkpt lat="47.80209" lon="-3.65067">
        <ele>49.2</ele>
        <time>2023-01-27T16:04:55Z</time>
      </trkpt>
      <trkpt lat="47.80211" lon="-3.65063">
        <ele>49.3</ele>
        <time>2023-01-27T16:04:56Z</time>
      </trkpt>
      <trkpt lat="47.80211" lon="-3.65058">
        <ele>49.4</ele>
        <time>2023-01-27T16:04:57Z</time>
      </trkpt>
      <trkpt lat="47.8021" lon="-3.65052">
        <ele>49.5</ele>
        <time>2023-01-27T16:04:58Z</time>
      </trkpt>
      <trkpt lat="47.8021" lon="-3.6505">
        <ele>49.5</ele>
        <time>2023-01-27T16:04:59Z</time>
      </trkpt>
      <trkpt lat="47.8021" lon="-3.65045">
        <ele>49.6</ele>
        <time>2023-01-27T16:05:00Z</time>
      </trkpt>
      <trkpt lat="47.80211" lon="-3.65043">
        <ele>49.6</ele>
        <time>2023-01-27T16:05:01Z</time>
      </trkpt>
      <trkpt lat="47.80212" lon="-3.65036">
        <ele>49.7</ele>
        <time>2023-01-27T16:05:02Z</time>
      </trkpt>
      <trkpt lat="47.80213" lon="-3.65029">
        <ele>49.7</ele>
        <time>2023-01-27T16:05:03Z</time>
      </trkpt>
      <trkpt lat="47.80211" lon="-3.6502">
        <ele>49.7</ele>
        <time>2023-01-27T16:05:05Z</time>
      </trkpt>
      <trkpt lat="47.80211" lon="-3.65017">
        <ele>49.7</ele>
        <time>2023-01-27T16:05:06Z</time>
      </trkpt>
      <trkpt lat="47.8021" lon="-3.65009">
        <ele>49.6</ele>
        <time>2023-01-27T16:05:08Z</time>
      </trkpt>
      <trkpt lat="47.8021" lon="-3.65">
        <ele>49.6</ele>
        <time>2023-01-27T16:05:10Z</time>
      </trkpt>
      <trkpt lat="47.8021" lon="-3.64994">
        <ele>49.5</ele>
        <time>2023-01-27T16:05:11Z</time>
      </trkpt>
      <trkpt lat="47.8021" lon="-3.64987">
        <ele>49.5</ele>
        <time>2023-01-27T16:05:13Z</time>
      </trkpt>
      <trkpt lat="47.80212" lon="-3.6498">
        <ele>49.5</ele>
        <time>2023-01-27T16:05:14Z</time>
      </trkpt>
      <trkpt lat="47.80218" lon="-3.64971">
        <ele>49.5</ele>
        <time>2023-01-27T16:05:15Z</time>
      </trkpt>
      <trkpt lat="47.8022" lon="-3.64962">
        <ele>49.6</ele>
        <time>2023-01-27T16:05:17Z</time>
      </trkpt>
      <trkpt lat="47.80221" lon="-3.64954">
        <ele>49.6</ele>
        <time>2023-01-27T16:05:19Z</time>
      </trkpt>
      <trkpt lat="47.80221" lon="-3.6495">
        <ele>49.7</ele>
        <time>2023-01-27T16:05:20Z</time>
      </trkpt>
      <trkpt lat="47.80221" lon="-3.64947">
        <ele>49.7</ele>
        <time>2023-01-27T16:05:21Z</time>
      </trkpt>
      <trkpt lat="47.8022" lon="-3.64942">
        <ele>49.7</ele>
        <time>2023-01-27T16:05:23Z</time>
      </trkpt>
      <trkpt lat="47.80218" lon="-3.64937">
        <ele>49.7</ele>
        <time>2023-01-27T16:05:24Z</time>
      </trkpt>
      <trkpt lat="47.80218" lon="-3.64931">
        <ele>49.8</ele>
        <time>2023-01-27T16:05:25Z</time>
      </trkpt>
      <trkpt lat="47.8022" lon="-3.64925">
        <ele>49.8</ele>
        <time>2023-01-27T16:05:26Z</time>
      </trkpt>
      <trkpt lat="47.80221" lon="-3.64921">
        <ele>49.8</ele>
        <time>2023-01-27T16:05:27Z</time>
      </trkpt>
      <trkpt lat="47.80221" lon="-3.64916">
        <ele>49.8</ele>
        <time>2023-01-27T16:05:28Z</time>
      </trkpt>
      <trkpt lat="47.80222" lon="-3.6491">
        <ele>49.8</ele>
        <time>2023-01-27T16:05:29Z</time>
      </trkpt>
      <trkpt lat="47.80223" lon="-3.64905">
        <ele>49.8</ele>
        <time>2023-01-27T16:05:30Z</time>
      </trkpt>
      <trkpt lat="47.80224" lon="-3.64899">
        <ele>49.7</ele>
        <time>2023-01-27T16:05:31Z</time>
      </trkpt>
      <trkpt lat="47.80224" lon="-3.64892">
        <ele>49.7</ele>
        <time>2023-01-27T16:05:32Z</time>
      </trkpt>
      <trkpt lat="47.80221" lon="-3.64887">
        <ele>49.6</ele>
        <time>2023-01-27T16:05:33Z</time>
      </trkpt>
      <trkpt lat="47.80217" lon="-3.64886">
        <ele>49.5</ele>
        <time>2023-01-27T16:05:34Z</time>
      </trkpt>
      <trkpt lat="47.80213" lon="-3.64887">
        <ele>49.4</ele>
        <time>2023-01-27T16:05:35Z</time>
      </trkpt>
      <trkpt lat="47.80208" lon="-3.64885">
        <ele>49.3</ele>
        <time>2023-01-27T16:05:36Z</time>
      </trkpt>
      <trkpt lat="47.80208" lon="-3.64876">
        <ele>49.2</ele>
        <time>2023-01-27T16:05:38Z</time>
      </trkpt>
      <trkpt lat="47.80208" lon="-3.64868">
        <ele>49</ele>
        <time>2023-01-27T16:05:40Z</time>
      </trkpt>
      <trkpt lat="47.80207" lon="-3.64863">
        <ele>48.9</ele>
        <time>2023-01-27T16:05:41Z</time>
      </trkpt>
      <trkpt lat="47.80207" lon="-3.64858">
        <ele>48.9</ele>
        <time>2023-01-27T16:05:42Z</time>
      </trkpt>
      <trkpt lat="47.80206" lon="-3.64853">
        <ele>48.8</ele>
        <time>2023-01-27T16:05:43Z</time>
      </trkpt>
      <trkpt lat="47.80205" lon="-3.64847">
        <ele>48.8</ele>
        <time>2023-01-27T16:05:44Z</time>
      </trkpt>
      <trkpt lat="47.80205" lon="-3.64841">
        <ele>48.7</ele>
        <time>2023-01-27T16:05:45Z</time>
      </trkpt>
      <trkpt lat="47.80204" lon="-3.64835">
        <ele>48.7</ele>
        <time>2023-01-27T16:05:46Z</time>
      </trkpt>
      <trkpt lat="47.80204" lon="-3.64831">
        <ele>48.7</ele>
        <time>2023-01-27T16:05:47Z</time>
      </trkpt>
      <trkpt lat="47.80202" lon="-3.64825">
        <ele>48.7</ele>
        <time>2023-01-27T16:05:48Z</time>
      </trkpt>
      <trkpt lat="47.80201" lon="-3.6482">
        <ele>48.7</ele>
        <time>2023-01-27T16:05:49Z</time>
      </trkpt>
      <trkpt lat="47.802" lon="-3.64815">
        <ele>48.6</ele>
        <time>2023-01-27T16:05:50Z</time>
      </trkpt>
      <trkpt lat="47.80198" lon="-3.64811">
        <ele>48.6</ele>
        <time>2023-01-27T16:05:51Z</time>
      </trkpt>
      <trkpt lat="47.80196" lon="-3.64806">
        <ele>48.6</ele>
        <time>2023-01-27T16:05:52Z</time>
      </trkpt>
      <trkpt lat="47.80194" lon="-3.648">
        <ele>48.6</ele>
        <time>2023-01-27T16:05:53Z</time>
      </trkpt>
      <trkpt lat="47.80192" lon="-3.64793">
        <ele>48.7</ele>
        <time>2023-01-27T16:05:54Z</time>
      </trkpt>
      <trkpt lat="47.80191" lon="-3.6479">
        <ele>48.7</ele>
        <time>2023-01-27T16:05:55Z</time>
      </trkpt>
      <trkpt lat="47.8019" lon="-3.64778">
        <ele>48.7</ele>
        <time>2023-01-27T16:05:56Z</time>
      </trkpt>
      <trkpt lat="47.80189" lon="-3.64772">
        <ele>48.8</ele>
        <time>2023-01-27T16:05:58Z</time>
      </trkpt>
      <trkpt lat="47.80188" lon="-3.64767">
        <ele>48.8</ele>
        <time>2023-01-27T16:05:59Z</time>
      </trkpt>
      <trkpt lat="47.80188" lon="-3.64755">
        <ele>48.9</ele>
        <time>2023-01-27T16:06:00Z</time>
      </trkpt>
      <trkpt lat="47.80188" lon="-3.64748">
        <ele>48.9</ele>
        <time>2023-01-27T16:06:01Z</time>
      </trkpt>
      <trkpt lat="47.80186" lon="-3.64738">
        <ele>49</ele>
        <time>2023-01-27T16:06:03Z</time>
      </trkpt>
      <trkpt lat="47.80186" lon="-3.64734">
        <ele>49.1</ele>
        <time>2023-01-27T16:06:04Z</time>
      </trkpt>
      <trkpt lat="47.80185" lon="-3.64728">
        <ele>49.1</ele>
        <time>2023-01-27T16:06:06Z</time>
      </trkpt>
      <trkpt lat="47.80185" lon="-3.64723">
        <ele>49.2</ele>
        <time>2023-01-27T16:06:07Z</time>
      </trkpt>
      <trkpt lat="47.80185" lon="-3.64718">
        <ele>49.2</ele>
        <time>2023-01-27T16:06:08Z</time>
      </trkpt>
      <trkpt lat="47.80184" lon="-3.64712">
        <ele>49.3</ele>
        <time>2023-01-27T16:06:09Z</time>
      </trkpt>
      <trkpt lat="47.80183" lon="-3.64707">
        <ele>49.3</ele>
        <time>2023-01-27T16:06:10Z</time>
      </trkpt>
      <trkpt lat="47.80183" lon="-3.64702">
        <ele>49.4</ele>
        <time>2023-01-27T16:06:11Z</time>
      </trkpt>
      <trkpt lat="47.80183" lon="-3.64697">
        <ele>49.4</ele>
        <time>2023-01-27T16:06:12Z</time>
      </trkpt>
      <trkpt lat="47.80182" lon="-3.64696">
        <ele>49.4</ele>
        <time>2023-01-27T16:06:13Z</time>
      </trkpt>
      <trkpt lat="47.8018" lon="-3.64694">
        <ele>49.4</ele>
        <time>2023-01-27T16:06:14Z</time>
      </trkpt>
      <trkpt lat="47.80178" lon="-3.64693">
        <ele>49.4</ele>
        <time>2023-01-27T16:06:15Z</time>
      </trkpt>
      <trkpt lat="47.80174" lon="-3.64692">
        <ele>49.4</ele>
        <time>2023-01-27T16:06:16Z</time>
      </trkpt>
      <trkpt lat="47.8017" lon="-3.64689">
        <ele>49.4</ele>
        <time>2023-01-27T16:06:17Z</time>
      </trkpt>
      <trkpt lat="47.80166" lon="-3.64686">
        <ele>49.4</ele>
        <time>2023-01-27T16:06:18Z</time>
      </trkpt>
      <trkpt lat="47.80163" lon="-3.64681">
        <ele>49.4</ele>
        <time>2023-01-27T16:06:19Z</time>
      </trkpt>
      <trkpt lat="47.8016" lon="-3.64675">
        <ele>49.4</ele>
        <time>2023-01-27T16:06:20Z</time>
      </trkpt>
      <trkpt lat="47.80159" lon="-3.64666">
        <ele>49.4</ele>
        <time>2023-01-27T16:06:21Z</time>
      </trkpt>
      <trkpt lat="47.80158" lon="-3.64658">
        <ele>49.3</ele>
        <time>2023-01-27T16:06:22Z</time>
      </trkpt>
      <trkpt lat="47.80158" lon="-3.6465">
        <ele>49.3</ele>
        <time>2023-01-27T16:06:23Z</time>
      </trkpt>
      <trkpt lat="47.80158" lon="-3.64643">
        <ele>49.3</ele>
        <time>2023-01-27T16:06:24Z</time>
      </trkpt>
      <trkpt lat="47.80157" lon="-3.64636">
        <ele>49.4</ele>
        <time>2023-01-27T16:06:25Z</time>
      </trkpt>
      <trkpt lat="47.80157" lon="-3.64628">
        <ele>49.4</ele>
        <time>2023-01-27T16:06:26Z</time>
      </trkpt>
      <trkpt lat="47.80156" lon="-3.64621">
        <ele>49.4</ele>
        <time>2023-01-27T16:06:27Z</time>
      </trkpt>
      <trkpt lat="47.80155" lon="-3.64614">
        <ele>49.4</ele>
        <time>2023-01-27T16:06:28Z</time>
      </trkpt>
      <trkpt lat="47.80155" lon="-3.64606">
        <ele>49.4</ele>
        <time>2023-01-27T16:06:29Z</time>
      </trkpt>
      <trkpt lat="47.80154" lon="-3.64598">
        <ele>49.4</ele>
        <time>2023-01-27T16:06:30Z</time>
      </trkpt>
      <trkpt lat="47.80154" lon="-3.6459">
        <ele>49.4</ele>
        <time>2023-01-27T16:06:31Z</time>
      </trkpt>
      <trkpt lat="47.80153" lon="-3.64582">
        <ele>49.4</ele>
        <time>2023-01-27T16:06:32Z</time>
      </trkpt>
      <trkpt lat="47.80153" lon="-3.64575">
        <ele>49.5</ele>
        <time>2023-01-27T16:06:33Z</time>
      </trkpt>
      <trkpt lat="47.80152" lon="-3.64567">
        <ele>49.5</ele>
        <time>2023-01-27T16:06:34Z</time>
      </trkpt>
      <trkpt lat="47.80151" lon="-3.64559">
        <ele>49.5</ele>
        <time>2023-01-27T16:06:35Z</time>
      </trkpt>
      <trkpt lat="47.80151" lon="-3.64552">
        <ele>49.5</ele>
        <time>2023-01-27T16:06:36Z</time>
      </trkpt>
      <trkpt lat="47.8015" lon="-3.64544">
        <ele>49.6</ele>
        <time>2023-01-27T16:06:37Z</time>
      </trkpt>
      <trkpt lat="47.80149" lon="-3.64536">
        <ele>49.6</ele>
        <time>2023-01-27T16:06:38Z</time>
      </trkpt>
      <trkpt lat="47.80149" lon="-3.64528">
        <ele>49.6</ele>
        <time>2023-01-27T16:06:39Z</time>
      </trkpt>
      <trkpt lat="47.80148" lon="-3.64521">
        <ele>49.6</ele>
        <time>2023-01-27T16:06:40Z</time>
      </trkpt>
      <trkpt lat="47.80147" lon="-3.64513">
        <ele>49.6</ele>
        <time>2023-01-27T16:06:41Z</time>
      </trkpt>
      <trkpt lat="47.80146" lon="-3.64506">
        <ele>49.6</ele>
        <time>2023-01-27T16:06:42Z</time>
      </trkpt>
      <trkpt lat="47.80146" lon="-3.64499">
        <ele>49.6</ele>
        <time>2023-01-27T16:06:43Z</time>
      </trkpt>
      <trkpt lat="47.80145" lon="-3.64491">
        <ele>49.7</ele>
        <time>2023-01-27T16:06:44Z</time>
      </trkpt>
      <trkpt lat="47.80144" lon="-3.64484">
        <ele>49.7</ele>
        <time>2023-01-27T16:06:45Z</time>
      </trkpt>
      <trkpt lat="47.80144" lon="-3.64478">
        <ele>49.7</ele>
        <time>2023-01-27T16:06:46Z</time>
      </trkpt>
      <trkpt lat="47.80143" lon="-3.64472">
        <ele>49.8</ele>
        <time>2023-01-27T16:06:47Z</time>
      </trkpt>
      <trkpt lat="47.80143" lon="-3.64465">
        <ele>49.8</ele>
        <time>2023-01-27T16:06:48Z</time>
      </trkpt>
      <trkpt lat="47.80142" lon="-3.64461">
        <ele>49.8</ele>
        <time>2023-01-27T16:06:49Z</time>
      </trkpt>
      <trkpt lat="47.80142" lon="-3.64456">
        <ele>49.8</ele>
        <time>2023-01-27T16:06:50Z</time>
      </trkpt>
      <trkpt lat="47.80142" lon="-3.64451">
        <ele>49.9</ele>
        <time>2023-01-27T16:06:51Z</time>
      </trkpt>
      <trkpt lat="47.80141" lon="-3.64446">
        <ele>49.9</ele>
        <time>2023-01-27T16:06:52Z</time>
      </trkpt>
      <trkpt lat="47.80141" lon="-3.64438">
        <ele>49.9</ele>
        <time>2023-01-27T16:06:53Z</time>
      </trkpt>
      <trkpt lat="47.8014" lon="-3.64429">
        <ele>50</ele>
        <time>2023-01-27T16:06:54Z</time>
      </trkpt>
      <trkpt lat="47.80139" lon="-3.64423">
        <ele>50</ele>
        <time>2023-01-27T16:06:55Z</time>
      </trkpt>
      <trkpt lat="47.80138" lon="-3.64409">
        <ele>50.1</ele>
        <time>2023-01-27T16:06:57Z</time>
      </trkpt>
      <trkpt lat="47.80137" lon="-3.64403">
        <ele>50.1</ele>
        <time>2023-01-27T16:06:58Z</time>
      </trkpt>
      <trkpt lat="47.80136" lon="-3.64396">
        <ele>50.2</ele>
        <time>2023-01-27T16:07:00Z</time>
      </trkpt>
      <trkpt lat="47.80135" lon="-3.64384">
        <ele>50.2</ele>
        <time>2023-01-27T16:07:01Z</time>
      </trkpt>
      <trkpt lat="47.80134" lon="-3.64378">
        <ele>50.2</ele>
        <time>2023-01-27T16:07:02Z</time>
      </trkpt>
      <trkpt lat="47.80135" lon="-3.64371">
        <ele>50.2</ele>
        <time>2023-01-27T16:07:03Z</time>
      </trkpt>
      <trkpt lat="47.80134" lon="-3.64364">
        <ele>50.2</ele>
        <time>2023-01-27T16:07:05Z</time>
      </trkpt>
      <trkpt lat="47.80134" lon="-3.64357">
        <ele>50.2</ele>
        <time>2023-01-27T16:07:06Z</time>
      </trkpt>
      <trkpt lat="47.80133" lon="-3.6435">
        <ele>50.1</ele>
        <time>2023-01-27T16:07:07Z</time>
      </trkpt>
      <trkpt lat="47.80133" lon="-3.64341">
        <ele>50.1</ele>
        <time>2023-01-27T16:07:08Z</time>
      </trkpt>
      <trkpt lat="47.80132" lon="-3.64334">
        <ele>50.1</ele>
        <time>2023-01-27T16:07:09Z</time>
      </trkpt>
      <trkpt lat="47.80132" lon="-3.64326">
        <ele>50</ele>
        <time>2023-01-27T16:07:10Z</time>
      </trkpt>
      <trkpt lat="47.80131" lon="-3.64319">
        <ele>49.9</ele>
        <time>2023-01-27T16:07:11Z</time>
      </trkpt>
      <trkpt lat="47.8013" lon="-3.64311">
        <ele>49.9</ele>
        <time>2023-01-27T16:07:12Z</time>
      </trkpt>
      <trkpt lat="47.80129" lon="-3.64304">
        <ele>49.8</ele>
        <time>2023-01-27T16:07:13Z</time>
      </trkpt>
      <trkpt lat="47.80129" lon="-3.64297">
        <ele>49.7</ele>
        <time>2023-01-27T16:07:14Z</time>
      </trkpt>
      <trkpt lat="47.8013" lon="-3.6429">
        <ele>49.7</ele>
        <time>2023-01-27T16:07:15Z</time>
      </trkpt>
      <trkpt lat="47.80129" lon="-3.64283">
        <ele>49.6</ele>
        <time>2023-01-27T16:07:16Z</time>
      </trkpt>
      <trkpt lat="47.80129" lon="-3.64277">
        <ele>49.5</ele>
        <time>2023-01-27T16:07:17Z</time>
      </trkpt>
      <trkpt lat="47.80128" lon="-3.64267">
        <ele>49.4</ele>
        <time>2023-01-27T16:07:18Z</time>
      </trkpt>
      <trkpt lat="47.80127" lon="-3.64259">
        <ele>49.4</ele>
        <time>2023-01-27T16:07:19Z</time>
      </trkpt>
      <trkpt lat="47.80127" lon="-3.64251">
        <ele>49.3</ele>
        <time>2023-01-27T16:07:20Z</time>
      </trkpt>
      <trkpt lat="47.80126" lon="-3.64243">
        <ele>49.3</ele>
        <time>2023-01-27T16:07:21Z</time>
      </trkpt>
      <trkpt lat="47.80125" lon="-3.64235">
        <ele>49.3</ele>
        <time>2023-01-27T16:07:22Z</time>
      </trkpt>
      <trkpt lat="47.80123" lon="-3.64228">
        <ele>49.2</ele>
        <time>2023-01-27T16:07:23Z</time>
      </trkpt>
      <trkpt lat="47.80123" lon="-3.64221">
        <ele>49.2</ele>
        <time>2023-01-27T16:07:24Z</time>
      </trkpt>
      <trkpt lat="47.80125" lon="-3.64215">
        <ele>49.1</ele>
        <time>2023-01-27T16:07:25Z</time>
      </trkpt>
      <trkpt lat="47.80128" lon="-3.64209">
        <ele>49.1</ele>
        <time>2023-01-27T16:07:26Z</time>
      </trkpt>
      <trkpt lat="47.80132" lon="-3.64206">
        <ele>48.7</ele>
        <time>2023-01-27T16:07:27Z</time>
      </trkpt>
      <trkpt lat="47.80137" lon="-3.64204">
        <ele>48.6</ele>
        <time>2023-01-27T16:07:28Z</time>
      </trkpt>
      <trkpt lat="47.80143" lon="-3.64203">
        <ele>48.5</ele>
        <time>2023-01-27T16:07:29Z</time>
      </trkpt>
      <trkpt lat="47.80147" lon="-3.64203">
        <ele>48.4</ele>
        <time>2023-01-27T16:07:30Z</time>
      </trkpt>
      <trkpt lat="47.80151" lon="-3.64203">
        <ele>48.3</ele>
        <time>2023-01-27T16:07:31Z</time>
      </trkpt>
      <trkpt lat="47.80154" lon="-3.64203">
        <ele>48.3</ele>
        <time>2023-01-27T16:07:32Z</time>
      </trkpt>
      <trkpt lat="47.80159" lon="-3.64204">
        <ele>48.2</ele>
        <time>2023-01-27T16:07:33Z</time>
      </trkpt>
      <trkpt lat="47.80163" lon="-3.64205">
        <ele>48.1</ele>
        <time>2023-01-27T16:07:34Z</time>
      </trkpt>
      <trkpt lat="47.80167" lon="-3.64207">
        <ele>48</ele>
        <time>2023-01-27T16:07:35Z</time>
      </trkpt>
      <trkpt lat="47.80173" lon="-3.64209">
        <ele>47.9</ele>
        <time>2023-01-27T16:07:36Z</time>
      </trkpt>
      <trkpt lat="47.80178" lon="-3.64211">
        <ele>47.8</ele>
        <time>2023-01-27T16:07:37Z</time>
      </trkpt>
      <trkpt lat="47.80184" lon="-3.64213">
        <ele>47.7</ele>
        <time>2023-01-27T16:07:38Z</time>
      </trkpt>
      <trkpt lat="47.80189" lon="-3.64214">
        <ele>47.6</ele>
        <time>2023-01-27T16:07:39Z</time>
      </trkpt>
      <trkpt lat="47.80194" lon="-3.64216">
        <ele>47.5</ele>
        <time>2023-01-27T16:07:40Z</time>
      </trkpt>
      <trkpt lat="47.802" lon="-3.64218">
        <ele>47.4</ele>
        <time>2023-01-27T16:07:41Z</time>
      </trkpt>
      <trkpt lat="47.80205" lon="-3.6422">
        <ele>47.3</ele>
        <time>2023-01-27T16:07:42Z</time>
      </trkpt>
      <trkpt lat="47.8021" lon="-3.64221">
        <ele>47.2</ele>
        <time>2023-01-27T16:07:43Z</time>
      </trkpt>
      <trkpt lat="47.80215" lon="-3.64222">
        <ele>47.1</ele>
        <time>2023-01-27T16:07:44Z</time>
      </trkpt>
      <trkpt lat="47.80221" lon="-3.64223">
        <ele>47</ele>
        <time>2023-01-27T16:07:45Z</time>
      </trkpt>
      <trkpt lat="47.80226" lon="-3.64225">
        <ele>46.9</ele>
        <time>2023-01-27T16:07:46Z</time>
      </trkpt>
      <trkpt lat="47.80231" lon="-3.64226">
        <ele>46.8</ele>
        <time>2023-01-27T16:07:47Z</time>
      </trkpt>
      <trkpt lat="47.80237" lon="-3.64228">
        <ele>46.7</ele>
        <time>2023-01-27T16:07:48Z</time>
      </trkpt>
      <trkpt lat="47.80242" lon="-3.6423">
        <ele>46.6</ele>
        <time>2023-01-27T16:07:49Z</time>
      </trkpt>
      <trkpt lat="47.80247" lon="-3.64232">
        <ele>46.6</ele>
        <time>2023-01-27T16:07:50Z</time>
      </trkpt>
      <trkpt lat="47.80252" lon="-3.64234">
        <ele>46.5</ele>
        <time>2023-01-27T16:07:51Z</time>
      </trkpt>
      <trkpt lat="47.80257" lon="-3.64236">
        <ele>46.4</ele>
        <time>2023-01-27T16:07:52Z</time>
      </trkpt>
      <trkpt lat="47.80262" lon="-3.64238">
        <ele>46.3</ele>
        <time>2023-01-27T16:07:53Z</time>
      </trkpt>
      <trkpt lat="47.80267" lon="-3.6424">
        <ele>46.2</ele>
        <time>2023-01-27T16:07:54Z</time>
      </trkpt>
      <trkpt lat="47.80272" lon="-3.64243">
        <ele>46</ele>
        <time>2023-01-27T16:07:55Z</time>
      </trkpt>
      <trkpt lat="47.80277" lon="-3.64245">
        <ele>45.8</ele>
        <time>2023-01-27T16:07:56Z</time>
      </trkpt>
      <trkpt lat="47.80282" lon="-3.64248">
        <ele>45.6</ele>
        <time>2023-01-27T16:07:57Z</time>
      </trkpt>
      <trkpt lat="47.80288" lon="-3.64251">
        <ele>45.4</ele>
        <time>2023-01-27T16:07:58Z</time>
      </trkpt>
      <trkpt lat="47.80293" lon="-3.64254">
        <ele>45.2</ele>
        <time>2023-01-27T16:07:59Z</time>
      </trkpt>
      <trkpt lat="47.80298" lon="-3.64256">
        <ele>44.9</ele>
        <time>2023-01-27T16:08:00Z</time>
      </trkpt>
      <trkpt lat="47.80303" lon="-3.64259">
        <ele>44.6</ele>
        <time>2023-01-27T16:08:01Z</time>
      </trkpt>
      <trkpt lat="47.80308" lon="-3.64262">
        <ele>44.4</ele>
        <time>2023-01-27T16:08:02Z</time>
      </trkpt>
      <trkpt lat="47.80313" lon="-3.64265">
        <ele>44</ele>
        <time>2023-01-27T16:08:03Z</time>
      </trkpt>
      <trkpt lat="47.8032" lon="-3.64268">
        <ele>43.6</ele>
        <time>2023-01-27T16:08:04Z</time>
      </trkpt>
      <trkpt lat="47.80328" lon="-3.64269">
        <ele>43</ele>
        <time>2023-01-27T16:08:05Z</time>
      </trkpt>
      <trkpt lat="47.80336" lon="-3.64268">
        <ele>42.5</ele>
        <time>2023-01-27T16:08:06Z</time>
      </trkpt>
      <trkpt lat="47.80344" lon="-3.64267">
        <ele>41.9</ele>
        <time>2023-01-27T16:08:07Z</time>
      </trkpt>
      <trkpt lat="47.80351" lon="-3.64266">
        <ele>41.4</ele>
        <time>2023-01-27T16:08:08Z</time>
      </trkpt>
      <trkpt lat="47.80357" lon="-3.64265">
        <ele>41</ele>
        <time>2023-01-27T16:08:09Z</time>
      </trkpt>
      <trkpt lat="47.80362" lon="-3.64264">
        <ele>40.7</ele>
        <time>2023-01-27T16:08:10Z</time>
      </trkpt>
      <trkpt lat="47.80366" lon="-3.64262">
        <ele>40.4</ele>
        <time>2023-01-27T16:08:11Z</time>
      </trkpt>
      <trkpt lat="47.80367" lon="-3.6426">
        <ele>40.3</ele>
        <time>2023-01-27T16:08:12Z</time>
      </trkpt>
      <trkpt lat="47.80371" lon="-3.64255">
        <ele>40</ele>
        <time>2023-01-27T16:08:13Z</time>
      </trkpt>
      <trkpt lat="47.80375" lon="-3.64251">
        <ele>39.8</ele>
        <time>2023-01-27T16:08:14Z</time>
      </trkpt>
      <trkpt lat="47.80378" lon="-3.6425">
        <ele>39.7</ele>
        <time>2023-01-27T16:08:15Z</time>
      </trkpt>
      <trkpt lat="47.80385" lon="-3.64248">
        <ele>39.5</ele>
        <time>2023-01-27T16:08:16Z</time>
      </trkpt>
      <trkpt lat="47.80392" lon="-3.64248">
        <ele>39.4</ele>
        <time>2023-01-27T16:08:17Z</time>
      </trkpt>
      <trkpt lat="47.80398" lon="-3.6425">
        <ele>39.3</ele>
        <time>2023-01-27T16:08:18Z</time>
      </trkpt>
      <trkpt lat="47.80403" lon="-3.64252">
        <ele>39.2</ele>
        <time>2023-01-27T16:08:19Z</time>
      </trkpt>
      <trkpt lat="47.80408" lon="-3.64255">
        <ele>39.2</ele>
        <time>2023-01-27T16:08:20Z</time>
      </trkpt>
      <trkpt lat="47.80413" lon="-3.6426">
        <ele>39.1</ele>
        <time>2023-01-27T16:08:21Z</time>
      </trkpt>
      <trkpt lat="47.80417" lon="-3.64264">
        <ele>39.1</ele>
        <time>2023-01-27T16:08:22Z</time>
      </trkpt>
      <trkpt lat="47.80421" lon="-3.64267">
        <ele>39.1</ele>
        <time>2023-01-27T16:08:23Z</time>
      </trkpt>
      <trkpt lat="47.80426" lon="-3.6427">
        <ele>39.1</ele>
        <time>2023-01-27T16:08:24Z</time>
      </trkpt>
      <trkpt lat="47.8043" lon="-3.64273">
        <ele>39.1</ele>
        <time>2023-01-27T16:08:25Z</time>
      </trkpt>
      <trkpt lat="47.80434" lon="-3.64275">
        <ele>39</ele>
        <time>2023-01-27T16:08:26Z</time>
      </trkpt>
      <trkpt lat="47.80437" lon="-3.64275">
        <ele>38.9</ele>
        <time>2023-01-27T16:08:27Z</time>
      </trkpt>
      <trkpt lat="47.80438" lon="-3.64274">
        <ele>38.9</ele>
        <time>2023-01-27T16:08:28Z</time>
      </trkpt>
      <trkpt lat="47.8044" lon="-3.64271">
        <ele>38.9</ele>
        <time>2023-01-27T16:08:30Z</time>
      </trkpt>
      <trkpt lat="47.80441" lon="-3.64271">
        <ele>38.9</ele>
        <time>2023-01-27T16:08:31Z</time>
      </trkpt>
      <trkpt lat="47.80443" lon="-3.64267">
        <ele>38.8</ele>
        <time>2023-01-27T16:08:32Z</time>
      </trkpt>
      <trkpt lat="47.80444" lon="-3.64265">
        <ele>38.8</ele>
        <time>2023-01-27T16:08:33Z</time>
      </trkpt>
      <trkpt lat="47.80446" lon="-3.6426">
        <ele>38.8</ele>
        <time>2023-01-27T16:08:34Z</time>
      </trkpt>
      <trkpt lat="47.80449" lon="-3.64255">
        <ele>38.8</ele>
        <time>2023-01-27T16:08:35Z</time>
      </trkpt>
      <trkpt lat="47.80451" lon="-3.64251">
        <ele>38.8</ele>
        <time>2023-01-27T16:08:36Z</time>
      </trkpt>
      <trkpt lat="47.80453" lon="-3.64247">
        <ele>38.8</ele>
        <time>2023-01-27T16:08:37Z</time>
      </trkpt>
      <trkpt lat="47.80456" lon="-3.64243">
        <ele>38.9</ele>
        <time>2023-01-27T16:08:38Z</time>
      </trkpt>
      <trkpt lat="47.80457" lon="-3.64241">
        <ele>38.9</ele>
        <time>2023-01-27T16:08:39Z</time>
      </trkpt>
      <trkpt lat="47.80457" lon="-3.64237">
        <ele>39</ele>
        <time>2023-01-27T16:08:40Z</time>
      </trkpt>
      <trkpt lat="47.80458" lon="-3.64232">
        <ele>39.1</ele>
        <time>2023-01-27T16:08:41Z</time>
      </trkpt>
      <trkpt lat="47.80459" lon="-3.64227">
        <ele>39.2</ele>
        <time>2023-01-27T16:08:42Z</time>
      </trkpt>
      <trkpt lat="47.8046" lon="-3.64225">
        <ele>39.3</ele>
        <time>2023-01-27T16:08:43Z</time>
      </trkpt>
      <trkpt lat="47.8046" lon="-3.6422">
        <ele>39.4</ele>
        <time>2023-01-27T16:08:44Z</time>
      </trkpt>
      <trkpt lat="47.8046" lon="-3.64219">
        <ele>39.4</ele>
        <time>2023-01-27T16:08:45Z</time>
      </trkpt>
      <trkpt lat="47.80462" lon="-3.64213">
        <ele>39.6</ele>
        <time>2023-01-27T16:08:46Z</time>
      </trkpt>
      <trkpt lat="47.80462" lon="-3.64211">
        <ele>39.6</ele>
        <time>2023-01-27T16:08:47Z</time>
      </trkpt>
      <trkpt lat="47.80465" lon="-3.64208">
        <ele>39.7</ele>
        <time>2023-01-27T16:08:49Z</time>
      </trkpt>
      <trkpt lat="47.80467" lon="-3.64206">
        <ele>39.8</ele>
        <time>2023-01-27T16:08:50Z</time>
      </trkpt>
      <trkpt lat="47.80469" lon="-3.64203">
        <ele>39.9</ele>
        <time>2023-01-27T16:08:51Z</time>
      </trkpt>
      <trkpt lat="47.80472" lon="-3.64196">
        <ele>40.1</ele>
        <time>2023-01-27T16:08:52Z</time>
      </trkpt>
      <trkpt lat="47.80474" lon="-3.64192">
        <ele>40.1</ele>
        <time>2023-01-27T16:08:54Z</time>
      </trkpt>
      <trkpt lat="47.80476" lon="-3.64189">
        <ele>40.2</ele>
        <time>2023-01-27T16:08:55Z</time>
      </trkpt>
      <trkpt lat="47.80478" lon="-3.64186">
        <ele>40.3</ele>
        <time>2023-01-27T16:08:56Z</time>
      </trkpt>
      <trkpt lat="47.80481" lon="-3.64184">
        <ele>40.4</ele>
        <time>2023-01-27T16:08:57Z</time>
      </trkpt>
      <trkpt lat="47.80484" lon="-3.64181">
        <ele>40.4</ele>
        <time>2023-01-27T16:08:58Z</time>
      </trkpt>
      <trkpt lat="47.80486" lon="-3.64178">
        <ele>40.5</ele>
        <time>2023-01-27T16:08:59Z</time>
      </trkpt>
      <trkpt lat="47.80489" lon="-3.64175">
        <ele>40.6</ele>
        <time>2023-01-27T16:09:00Z</time>
      </trkpt>
      <trkpt lat="47.80491" lon="-3.64172">
        <ele>40.7</ele>
        <time>2023-01-27T16:09:01Z</time>
      </trkpt>
      <trkpt lat="47.80493" lon="-3.64169">
        <ele>40.8</ele>
        <time>2023-01-27T16:09:02Z</time>
      </trkpt>
      <trkpt lat="47.80496" lon="-3.64165">
        <ele>40.9</ele>
        <time>2023-01-27T16:09:03Z</time>
      </trkpt>
      <trkpt lat="47.805" lon="-3.64162">
        <ele>41.1</ele>
        <time>2023-01-27T16:09:04Z</time>
      </trkpt>
      <trkpt lat="47.80503" lon="-3.6416">
        <ele>41.2</ele>
        <time>2023-01-27T16:09:05Z</time>
      </trkpt>
      <trkpt lat="47.80506" lon="-3.64158">
        <ele>41.4</ele>
        <time>2023-01-27T16:09:06Z</time>
      </trkpt>
      <trkpt lat="47.8051" lon="-3.64156">
        <ele>41.6</ele>
        <time>2023-01-27T16:09:08Z</time>
      </trkpt>
      <trkpt lat="47.80513" lon="-3.64152">
        <ele>41.8</ele>
        <time>2023-01-27T16:09:09Z</time>
      </trkpt>
      <trkpt lat="47.80514" lon="-3.6415">
        <ele>42</ele>
        <time>2023-01-27T16:09:10Z</time>
      </trkpt>
      <trkpt lat="47.80516" lon="-3.64145">
        <ele>42.2</ele>
        <time>2023-01-27T16:09:12Z</time>
      </trkpt>
      <trkpt lat="47.80517" lon="-3.64144">
        <ele>42.3</ele>
        <time>2023-01-27T16:09:14Z</time>
      </trkpt>
      <trkpt lat="47.80521" lon="-3.64141">
        <ele>42.5</ele>
        <time>2023-01-27T16:09:15Z</time>
      </trkpt>
      <trkpt lat="47.80524" lon="-3.64139">
        <ele>42.7</ele>
        <time>2023-01-27T16:09:17Z</time>
      </trkpt>
      <trkpt lat="47.80527" lon="-3.64135">
        <ele>42.9</ele>
        <time>2023-01-27T16:09:19Z</time>
      </trkpt>
      <trkpt lat="47.80529" lon="-3.64133">
        <ele>43.1</ele>
        <time>2023-01-27T16:09:20Z</time>
      </trkpt>
      <trkpt lat="47.8053" lon="-3.64132">
        <ele>43.2</ele>
        <time>2023-01-27T16:09:22Z</time>
      </trkpt>
      <trkpt lat="47.80531" lon="-3.64132">
        <ele>43.2</ele>
        <time>2023-01-27T16:09:23Z</time>
      </trkpt>
      <trkpt lat="47.80531" lon="-3.64131">
        <ele>43.2</ele>
        <time>2023-01-27T16:09:24Z</time>
      </trkpt>
      <trkpt lat="47.80531" lon="-3.64131">
        <ele>43.3</ele>
        <time>2023-01-27T16:09:25Z</time>
      </trkpt>
      <trkpt lat="47.80532" lon="-3.6413">
        <ele>43.3</ele>
        <time>2023-01-27T16:09:26Z</time>
      </trkpt>
      <trkpt lat="47.80532" lon="-3.6413">
        <ele>43.3</ele>
        <time>2023-01-27T16:09:27Z</time>
      </trkpt>
      <trkpt lat="47.80532" lon="-3.64129">
        <ele>43.3</ele>
        <time>2023-01-27T16:09:28Z</time>
      </trkpt>
      <trkpt lat="47.80532" lon="-3.64129">
        <ele>43.4</ele>
        <time>2023-01-27T16:09:30Z</time>
      </trkpt>
      <trkpt lat="47.80532" lon="-3.64128">
        <ele>43.4</ele>
        <time>2023-01-27T16:09:31Z</time>
      </trkpt>
      <trkpt lat="47.80532" lon="-3.64128">
        <ele>43.4</ele>
        <time>2023-01-27T16:09:32Z</time>
      </trkpt>
      <trkpt lat="47.80534" lon="-3.64125">
        <ele>43.5</ele>
        <time>2023-01-27T16:09:33Z</time>
      </trkpt>
      <trkpt lat="47.80535" lon="-3.64124">
        <ele>43.6</ele>
        <time>2023-01-27T16:09:34Z</time>
      </trkpt>
      <trkpt lat="47.80537" lon="-3.64123">
        <ele>43.7</ele>
        <time>2023-01-27T16:09:35Z</time>
      </trkpt>
      <trkpt lat="47.80538" lon="-3.64122">
        <ele>43.8</ele>
        <time>2023-01-27T16:09:36Z</time>
      </trkpt>
      <trkpt lat="47.80539" lon="-3.64121">
        <ele>43.8</ele>
        <time>2023-01-27T16:09:38Z</time>
      </trkpt>
      <trkpt lat="47.80539" lon="-3.64121">
        <ele>43.9</ele>
        <time>2023-01-27T16:09:39Z</time>
      </trkpt>
      <trkpt lat="47.8054" lon="-3.64121">
        <ele>43.9</ele>
        <time>2023-01-27T16:09:40Z</time>
      </trkpt>
      <trkpt lat="47.8054" lon="-3.64121">
        <ele>43.9</ele>
        <time>2023-01-27T16:09:41Z</time>
      </trkpt>
      <trkpt lat="47.8054" lon="-3.64122">
        <ele>43.9</ele>
        <time>2023-01-27T16:09:42Z</time>
      </trkpt>
      <trkpt lat="47.8054" lon="-3.64121">
        <ele>43.9</ele>
        <time>2023-01-27T16:09:43Z</time>
      </trkpt>
      <trkpt lat="47.8054" lon="-3.64121">
        <ele>43.9</ele>
        <time>2023-01-27T16:09:44Z</time>
      </trkpt>
      <trkpt lat="47.8054" lon="-3.64121">
        <ele>43.9</ele>
        <time>2023-01-27T16:09:45Z</time>
      </trkpt>
      <trkpt lat="47.8054" lon="-3.64121">
        <ele>43.9</ele>
        <time>2023-01-27T16:09:46Z</time>
      </trkpt>
      <trkpt lat="47.80541" lon="-3.64119">
        <ele>44</ele>
        <time>2023-01-27T16:09:55Z</time>
      </trkpt>
      <trkpt lat="47.80541" lon="-3.64118">
        <ele>44.1</ele>
        <time>2023-01-27T16:09:56Z</time>
      </trkpt>
      <trkpt lat="47.80542" lon="-3.64115">
        <ele>44.2</ele>
        <time>2023-01-27T16:09:57Z</time>
      </trkpt>
      <trkpt lat="47.80543" lon="-3.64115">
        <ele>44.2</ele>
        <time>2023-01-27T16:09:58Z</time>
      </trkpt>
      <trkpt lat="47.80544" lon="-3.64113">
        <ele>44.3</ele>
        <time>2023-01-27T16:09:59Z</time>
      </trkpt>
      <trkpt lat="47.80545" lon="-3.64112">
        <ele>44.4</ele>
        <time>2023-01-27T16:10:00Z</time>
      </trkpt>
      <trkpt lat="47.80546" lon="-3.64111">
        <ele>44.4</ele>
        <time>2023-01-27T16:10:01Z</time>
      </trkpt>
      <trkpt lat="47.80547" lon="-3.6411">
        <ele>44.5</ele>
        <time>2023-01-27T16:10:02Z</time>
      </trkpt>
      <trkpt lat="47.80548" lon="-3.64107">
        <ele>44.6</ele>
        <time>2023-01-27T16:10:04Z</time>
      </trkpt>
      <trkpt lat="47.80549" lon="-3.64106">
        <ele>44.7</ele>
        <time>2023-01-27T16:10:05Z</time>
      </trkpt>
      <trkpt lat="47.8055" lon="-3.64106">
        <ele>44.7</ele>
        <time>2023-01-27T16:10:06Z</time>
      </trkpt>
      <trkpt lat="47.8055" lon="-3.64106">
        <ele>44.7</ele>
        <time>2023-01-27T16:10:07Z</time>
      </trkpt>
      <trkpt lat="47.8055" lon="-3.64106">
        <ele>44.7</ele>
        <time>2023-01-27T16:10:08Z</time>
      </trkpt>
      <trkpt lat="47.80551" lon="-3.64106">
        <ele>44.8</ele>
        <time>2023-01-27T16:10:09Z</time>
      </trkpt>
      <trkpt lat="47.80551" lon="-3.64106">
        <ele>44.8</ele>
        <time>2023-01-27T16:10:10Z</time>
      </trkpt>
      <trkpt lat="47.80552" lon="-3.64106">
        <ele>44.8</ele>
        <time>2023-01-27T16:10:11Z</time>
      </trkpt>
      <trkpt lat="47.80552" lon="-3.64105">
        <ele>44.8</ele>
        <time>2023-01-27T16:10:12Z</time>
      </trkpt>
      <trkpt lat="47.80556" lon="-3.641">
        <ele>45.1</ele>
        <time>2023-01-27T16:10:13Z</time>
      </trkpt>
      <trkpt lat="47.80558" lon="-3.64096">
        <ele>45.3</ele>
        <time>2023-01-27T16:10:14Z</time>
      </trkpt>
      <trkpt lat="47.8056" lon="-3.64091">
        <ele>45.5</ele>
        <time>2023-01-27T16:10:15Z</time>
      </trkpt>
      <trkpt lat="47.80563" lon="-3.64086">
        <ele>45.7</ele>
        <time>2023-01-27T16:10:17Z</time>
      </trkpt>
      <trkpt lat="47.80565" lon="-3.64083">
        <ele>45.8</ele>
        <time>2023-01-27T16:10:18Z</time>
      </trkpt>
      <trkpt lat="47.80566" lon="-3.64081">
        <ele>45.9</ele>
        <time>2023-01-27T16:10:20Z</time>
      </trkpt>
      <trkpt lat="47.80566" lon="-3.64079">
        <ele>46</ele>
        <time>2023-01-27T16:10:21Z</time>
      </trkpt>
      <trkpt lat="47.80567" lon="-3.64076">
        <ele>46.1</ele>
        <time>2023-01-27T16:10:22Z</time>
      </trkpt>
      <trkpt lat="47.80568" lon="-3.64075">
        <ele>46.2</ele>
        <time>2023-01-27T16:10:23Z</time>
      </trkpt>
      <trkpt lat="47.80571" lon="-3.64071">
        <ele>46.4</ele>
        <time>2023-01-27T16:10:24Z</time>
      </trkpt>
      <trkpt lat="47.80572" lon="-3.64069">
        <ele>46.4</ele>
        <time>2023-01-27T16:10:26Z</time>
      </trkpt>
      <trkpt lat="47.80574" lon="-3.64064">
        <ele>46.6</ele>
        <time>2023-01-27T16:10:27Z</time>
      </trkpt>
      <trkpt lat="47.80575" lon="-3.6406">
        <ele>46.7</ele>
        <time>2023-01-27T16:10:29Z</time>
      </trkpt>
      <trkpt lat="47.80578" lon="-3.64055">
        <ele>46.9</ele>
        <time>2023-01-27T16:10:30Z</time>
      </trkpt>
      <trkpt lat="47.80578" lon="-3.64054">
        <ele>46.9</ele>
        <time>2023-01-27T16:10:31Z</time>
      </trkpt>
      <trkpt lat="47.80581" lon="-3.64048">
        <ele>47.1</ele>
        <time>2023-01-27T16:10:32Z</time>
      </trkpt>
      <trkpt lat="47.80584" lon="-3.64044">
        <ele>47.3</ele>
        <time>2023-01-27T16:10:34Z</time>
      </trkpt>
      <trkpt lat="47.80586" lon="-3.64041">
        <ele>47.4</ele>
        <time>2023-01-27T16:10:35Z</time>
      </trkpt>
      <trkpt lat="47.80589" lon="-3.64038">
        <ele>47.5</ele>
        <time>2023-01-27T16:10:36Z</time>
      </trkpt>
      <trkpt lat="47.80591" lon="-3.64034">
        <ele>47.7</ele>
        <time>2023-01-27T16:10:37Z</time>
      </trkpt>
      <trkpt lat="47.80593" lon="-3.6403">
        <ele>47.8</ele>
        <time>2023-01-27T16:10:38Z</time>
      </trkpt>
      <trkpt lat="47.80595" lon="-3.64026">
        <ele>47.9</ele>
        <time>2023-01-27T16:10:39Z</time>
      </trkpt>
      <trkpt lat="47.80596" lon="-3.64023">
        <ele>48</ele>
        <time>2023-01-27T16:10:40Z</time>
      </trkpt>
      <trkpt lat="47.80599" lon="-3.6402">
        <ele>48.1</ele>
        <time>2023-01-27T16:10:41Z</time>
      </trkpt>
      <trkpt lat="47.80601" lon="-3.64016">
        <ele>48.2</ele>
        <time>2023-01-27T16:10:42Z</time>
      </trkpt>
      <trkpt lat="47.80602" lon="-3.64014">
        <ele>48.2</ele>
        <time>2023-01-27T16:10:43Z</time>
      </trkpt>
      <trkpt lat="47.80604" lon="-3.64009">
        <ele>48.3</ele>
        <time>2023-01-27T16:10:44Z</time>
      </trkpt>
      <trkpt lat="47.80605" lon="-3.64008">
        <ele>48.3</ele>
        <time>2023-01-27T16:10:45Z</time>
      </trkpt>
      <trkpt lat="47.80607" lon="-3.64004">
        <ele>48.3</ele>
        <time>2023-01-27T16:10:46Z</time>
      </trkpt>
      <trkpt lat="47.8061" lon="-3.64">
        <ele>48.3</ele>
        <time>2023-01-27T16:10:47Z</time>
      </trkpt>
      <trkpt lat="47.80612" lon="-3.63997">
        <ele>48.3</ele>
        <time>2023-01-27T16:10:48Z</time>
      </trkpt>
      <trkpt lat="47.80614" lon="-3.63994">
        <ele>48.3</ele>
        <time>2023-01-27T16:10:49Z</time>
      </trkpt>
      <trkpt lat="47.80618" lon="-3.6399">
        <ele>48.1</ele>
        <time>2023-01-27T16:10:50Z</time>
      </trkpt>
      <trkpt lat="47.80621" lon="-3.63987">
        <ele>48</ele>
        <time>2023-01-27T16:10:51Z</time>
      </trkpt>
      <trkpt lat="47.80625" lon="-3.63984">
        <ele>47.7</ele>
        <time>2023-01-27T16:10:52Z</time>
      </trkpt>
      <trkpt lat="47.80628" lon="-3.63981">
        <ele>47.5</ele>
        <time>2023-01-27T16:10:53Z</time>
      </trkpt>
      <trkpt lat="47.80634" lon="-3.63976">
        <ele>47.1</ele>
        <time>2023-01-27T16:10:54Z</time>
      </trkpt>
      <trkpt lat="47.80639" lon="-3.63972">
        <ele>46.8</ele>
        <time>2023-01-27T16:10:55Z</time>
      </trkpt>
      <trkpt lat="47.80647" lon="-3.63966">
        <ele>46</ele>
        <time>2023-01-27T16:10:57Z</time>
      </trkpt>
      <trkpt lat="47.80654" lon="-3.63962">
        <ele>45.5</ele>
        <time>2023-01-27T16:10:58Z</time>
      </trkpt>
      <trkpt lat="47.80662" lon="-3.63957">
        <ele>44.9</ele>
        <time>2023-01-27T16:10:59Z</time>
      </trkpt>
      <trkpt lat="47.80668" lon="-3.63952">
        <ele>44.5</ele>
        <time>2023-01-27T16:11:00Z</time>
      </trkpt>
      <trkpt lat="47.80675" lon="-3.63948">
        <ele>44.1</ele>
        <time>2023-01-27T16:11:01Z</time>
      </trkpt>
      <trkpt lat="47.80681" lon="-3.63943">
        <ele>43.7</ele>
        <time>2023-01-27T16:11:02Z</time>
      </trkpt>
      <trkpt lat="47.80687" lon="-3.63939">
        <ele>43.3</ele>
        <time>2023-01-27T16:11:03Z</time>
      </trkpt>
      <trkpt lat="47.80693" lon="-3.63935">
        <ele>42.9</ele>
        <time>2023-01-27T16:11:04Z</time>
      </trkpt>
      <trkpt lat="47.807" lon="-3.63931">
        <ele>42.6</ele>
        <time>2023-01-27T16:11:05Z</time>
      </trkpt>
      <trkpt lat="47.80705" lon="-3.63931">
        <ele>42.4</ele>
        <time>2023-01-27T16:11:06Z</time>
      </trkpt>
      <trkpt lat="47.80709" lon="-3.6393">
        <ele>42.4</ele>
        <time>2023-01-27T16:11:07Z</time>
      </trkpt>
      <trkpt lat="47.80712" lon="-3.63933">
        <ele>42.4</ele>
        <time>2023-01-27T16:11:08Z</time>
      </trkpt>
      <trkpt lat="47.80714" lon="-3.63934">
        <ele>42.4</ele>
        <time>2023-01-27T16:11:09Z</time>
      </trkpt>
      <trkpt lat="47.80716" lon="-3.63938">
        <ele>42.4</ele>
        <time>2023-01-27T16:11:10Z</time>
      </trkpt>
      <trkpt lat="47.80717" lon="-3.6394">
        <ele>42.5</ele>
        <time>2023-01-27T16:11:11Z</time>
      </trkpt>
      <trkpt lat="47.80719" lon="-3.63943">
        <ele>42.5</ele>
        <time>2023-01-27T16:11:12Z</time>
      </trkpt>
      <trkpt lat="47.80723" lon="-3.63947">
        <ele>42.5</ele>
        <time>2023-01-27T16:11:13Z</time>
      </trkpt>
      <trkpt lat="47.80725" lon="-3.63949">
        <ele>42.6</ele>
        <time>2023-01-27T16:11:14Z</time>
      </trkpt>
      <trkpt lat="47.80733" lon="-3.63959">
        <ele>42.7</ele>
        <time>2023-01-27T16:11:16Z</time>
      </trkpt>
      <trkpt lat="47.80738" lon="-3.63966">
        <ele>42.9</ele>
        <time>2023-01-27T16:11:18Z</time>
      </trkpt>
      <trkpt lat="47.8074" lon="-3.6397">
        <ele>43.1</ele>
        <time>2023-01-27T16:11:19Z</time>
      </trkpt>
      <trkpt lat="47.80743" lon="-3.63972">
        <ele>43.1</ele>
        <time>2023-01-27T16:11:20Z</time>
      </trkpt>
      <trkpt lat="47.80748" lon="-3.63968">
        <ele>43.1</ele>
        <time>2023-01-27T16:11:22Z</time>
      </trkpt>
      <trkpt lat="47.8075" lon="-3.63963">
        <ele>43</ele>
        <time>2023-01-27T16:11:24Z</time>
      </trkpt>
      <trkpt lat="47.80752" lon="-3.63957">
        <ele>43</ele>
        <time>2023-01-27T16:11:25Z</time>
      </trkpt>
      <trkpt lat="47.80755" lon="-3.63952">
        <ele>43</ele>
        <time>2023-01-27T16:11:26Z</time>
      </trkpt>
      <trkpt lat="47.80758" lon="-3.63946">
        <ele>43</ele>
        <time>2023-01-27T16:11:27Z</time>
      </trkpt>
      <trkpt lat="47.8076" lon="-3.63941">
        <ele>43</ele>
        <time>2023-01-27T16:11:28Z</time>
      </trkpt>
      <trkpt lat="47.80763" lon="-3.63937">
        <ele>43</ele>
        <time>2023-01-27T16:11:29Z</time>
      </trkpt>
      <trkpt lat="47.80766" lon="-3.63932">
        <ele>43</ele>
        <time>2023-01-27T16:11:30Z</time>
      </trkpt>
      <trkpt lat="47.80768" lon="-3.63928">
        <ele>43</ele>
        <time>2023-01-27T16:11:31Z</time>
      </trkpt>
      <trkpt lat="47.8077" lon="-3.63923">
        <ele>43.1</ele>
        <time>2023-01-27T16:11:32Z</time>
      </trkpt>
      <trkpt lat="47.80772" lon="-3.63918">
        <ele>43.1</ele>
        <time>2023-01-27T16:11:33Z</time>
      </trkpt>
      <trkpt lat="47.80775" lon="-3.63913">
        <ele>43.1</ele>
        <time>2023-01-27T16:11:34Z</time>
      </trkpt>
      <trkpt lat="47.80777" lon="-3.63908">
        <ele>43.1</ele>
        <time>2023-01-27T16:11:35Z</time>
      </trkpt>
      <trkpt lat="47.80781" lon="-3.63903">
        <ele>43.1</ele>
        <time>2023-01-27T16:11:36Z</time>
      </trkpt>
      <trkpt lat="47.80784" lon="-3.63898">
        <ele>43.1</ele>
        <time>2023-01-27T16:11:37Z</time>
      </trkpt>
      <trkpt lat="47.80788" lon="-3.63894">
        <ele>43.1</ele>
        <time>2023-01-27T16:11:38Z</time>
      </trkpt>
      <trkpt lat="47.80792" lon="-3.6389">
        <ele>43.1</ele>
        <time>2023-01-27T16:11:39Z</time>
      </trkpt>
      <trkpt lat="47.80796" lon="-3.63886">
        <ele>43.1</ele>
        <time>2023-01-27T16:11:40Z</time>
      </trkpt>
      <trkpt lat="47.808" lon="-3.63884">
        <ele>43.1</ele>
        <time>2023-01-27T16:11:42Z</time>
      </trkpt>
      <trkpt lat="47.80806" lon="-3.63876">
        <ele>43</ele>
        <time>2023-01-27T16:11:43Z</time>
      </trkpt>
      <trkpt lat="47.8081" lon="-3.6387">
        <ele>43</ele>
        <time>2023-01-27T16:11:44Z</time>
      </trkpt>
      <trkpt lat="47.80814" lon="-3.63865">
        <ele>43</ele>
        <time>2023-01-27T16:11:45Z</time>
      </trkpt>
      <trkpt lat="47.80818" lon="-3.63861">
        <ele>42.9</ele>
        <time>2023-01-27T16:11:46Z</time>
      </trkpt>
      <trkpt lat="47.80823" lon="-3.63856">
        <ele>42.9</ele>
        <time>2023-01-27T16:11:47Z</time>
      </trkpt>
      <trkpt lat="47.80827" lon="-3.63851">
        <ele>42.8</ele>
        <time>2023-01-27T16:11:48Z</time>
      </trkpt>
      <trkpt lat="47.80831" lon="-3.63846">
        <ele>42.7</ele>
        <time>2023-01-27T16:11:49Z</time>
      </trkpt>
      <trkpt lat="47.80836" lon="-3.6384">
        <ele>42.7</ele>
        <time>2023-01-27T16:11:50Z</time>
      </trkpt>
      <trkpt lat="47.8084" lon="-3.63835">
        <ele>42.6</ele>
        <time>2023-01-27T16:11:51Z</time>
      </trkpt>
      <trkpt lat="47.80844" lon="-3.63829">
        <ele>42.6</ele>
        <time>2023-01-27T16:11:52Z</time>
      </trkpt>
      <trkpt lat="47.80849" lon="-3.63824">
        <ele>42.6</ele>
        <time>2023-01-27T16:11:53Z</time>
      </trkpt>
      <trkpt lat="47.80852" lon="-3.63818">
        <ele>42.5</ele>
        <time>2023-01-27T16:11:54Z</time>
      </trkpt>
      <trkpt lat="47.80855" lon="-3.63811">
        <ele>42.3</ele>
        <time>2023-01-27T16:11:55Z</time>
      </trkpt>
      <trkpt lat="47.80859" lon="-3.63805">
        <ele>42.1</ele>
        <time>2023-01-27T16:11:56Z</time>
      </trkpt>
      <trkpt lat="47.80863" lon="-3.638">
        <ele>42.1</ele>
        <time>2023-01-27T16:11:57Z</time>
      </trkpt>
      <trkpt lat="47.80868" lon="-3.63795">
        <ele>42</ele>
        <time>2023-01-27T16:11:58Z</time>
      </trkpt>
      <trkpt lat="47.80872" lon="-3.63791">
        <ele>42</ele>
        <time>2023-01-27T16:11:59Z</time>
      </trkpt>
      <trkpt lat="47.80876" lon="-3.63787">
        <ele>41.9</ele>
        <time>2023-01-27T16:12:00Z</time>
      </trkpt>
      <trkpt lat="47.8088" lon="-3.63782">
        <ele>41.9</ele>
        <time>2023-01-27T16:12:01Z</time>
      </trkpt>
      <trkpt lat="47.80884" lon="-3.63777">
        <ele>41.8</ele>
        <time>2023-01-27T16:12:02Z</time>
      </trkpt>
      <trkpt lat="47.80886" lon="-3.6377">
        <ele>41.8</ele>
        <time>2023-01-27T16:12:03Z</time>
      </trkpt>
      <trkpt lat="47.80889" lon="-3.63764">
        <ele>41.7</ele>
        <time>2023-01-27T16:12:04Z</time>
      </trkpt>
      <trkpt lat="47.80892" lon="-3.63758">
        <ele>41.7</ele>
        <time>2023-01-27T16:12:05Z</time>
      </trkpt>
      <trkpt lat="47.80894" lon="-3.63752">
        <ele>41.6</ele>
        <time>2023-01-27T16:12:06Z</time>
      </trkpt>
      <trkpt lat="47.80897" lon="-3.63745">
        <ele>41.6</ele>
        <time>2023-01-27T16:12:07Z</time>
      </trkpt>
      <trkpt lat="47.809" lon="-3.63739">
        <ele>41.6</ele>
        <time>2023-01-27T16:12:08Z</time>
      </trkpt>
      <trkpt lat="47.80902" lon="-3.63733">
        <ele>41.6</ele>
        <time>2023-01-27T16:12:09Z</time>
      </trkpt>
      <trkpt lat="47.80905" lon="-3.63726">
        <ele>41.5</ele>
        <time>2023-01-27T16:12:10Z</time>
      </trkpt>
      <trkpt lat="47.80908" lon="-3.63719">
        <ele>41.5</ele>
        <time>2023-01-27T16:12:11Z</time>
      </trkpt>
      <trkpt lat="47.8091" lon="-3.63712">
        <ele>41.6</ele>
        <time>2023-01-27T16:12:12Z</time>
      </trkpt>
      <trkpt lat="47.80913" lon="-3.63706">
        <ele>41.6</ele>
        <time>2023-01-27T16:12:13Z</time>
      </trkpt>
      <trkpt lat="47.80916" lon="-3.63699">
        <ele>41.6</ele>
        <time>2023-01-27T16:12:14Z</time>
      </trkpt>
      <trkpt lat="47.80919" lon="-3.63693">
        <ele>41.6</ele>
        <time>2023-01-27T16:12:15Z</time>
      </trkpt>
      <trkpt lat="47.80921" lon="-3.63686">
        <ele>41.6</ele>
        <time>2023-01-27T16:12:16Z</time>
      </trkpt>
      <trkpt lat="47.80924" lon="-3.63681">
        <ele>41.7</ele>
        <time>2023-01-27T16:12:17Z</time>
      </trkpt>
      <trkpt lat="47.80927" lon="-3.63675">
        <ele>41.7</ele>
        <time>2023-01-27T16:12:18Z</time>
      </trkpt>
      <trkpt lat="47.80929" lon="-3.63668">
        <ele>41.8</ele>
        <time>2023-01-27T16:12:19Z</time>
      </trkpt>
      <trkpt lat="47.80932" lon="-3.63662">
        <ele>41.9</ele>
        <time>2023-01-27T16:12:20Z</time>
      </trkpt>
      <trkpt lat="47.80935" lon="-3.63656">
        <ele>41.9</ele>
        <time>2023-01-27T16:12:21Z</time>
      </trkpt>
      <trkpt lat="47.80937" lon="-3.6365">
        <ele>42</ele>
        <time>2023-01-27T16:12:22Z</time>
      </trkpt>
      <trkpt lat="47.8094" lon="-3.63644">
        <ele>42</ele>
        <time>2023-01-27T16:12:23Z</time>
      </trkpt>
      <trkpt lat="47.80944" lon="-3.63638">
        <ele>42.1</ele>
        <time>2023-01-27T16:12:24Z</time>
      </trkpt>
      <trkpt lat="47.80947" lon="-3.63633">
        <ele>42.2</ele>
        <time>2023-01-27T16:12:25Z</time>
      </trkpt>
      <trkpt lat="47.8095" lon="-3.63627">
        <ele>42.2</ele>
        <time>2023-01-27T16:12:26Z</time>
      </trkpt>
      <trkpt lat="47.80954" lon="-3.63622">
        <ele>42.3</ele>
        <time>2023-01-27T16:12:27Z</time>
      </trkpt>
      <trkpt lat="47.80958" lon="-3.63617">
        <ele>42.4</ele>
        <time>2023-01-27T16:12:28Z</time>
      </trkpt>
      <trkpt lat="47.80961" lon="-3.63611">
        <ele>42.5</ele>
        <time>2023-01-27T16:12:29Z</time>
      </trkpt>
      <trkpt lat="47.80966" lon="-3.63606">
        <ele>42.5</ele>
        <time>2023-01-27T16:12:30Z</time>
      </trkpt>
      <trkpt lat="47.8097" lon="-3.63601">
        <ele>42.6</ele>
        <time>2023-01-27T16:12:31Z</time>
      </trkpt>
      <trkpt lat="47.80974" lon="-3.63597">
        <ele>42.7</ele>
        <time>2023-01-27T16:12:32Z</time>
      </trkpt>
      <trkpt lat="47.80978" lon="-3.63592">
        <ele>42.8</ele>
        <time>2023-01-27T16:12:33Z</time>
      </trkpt>
      <trkpt lat="47.80982" lon="-3.63588">
        <ele>43</ele>
        <time>2023-01-27T16:12:34Z</time>
      </trkpt>
      <trkpt lat="47.80986" lon="-3.63584">
        <ele>43.1</ele>
        <time>2023-01-27T16:12:35Z</time>
      </trkpt>
      <trkpt lat="47.8099" lon="-3.6358">
        <ele>43.3</ele>
        <time>2023-01-27T16:12:36Z</time>
      </trkpt>
      <trkpt lat="47.80994" lon="-3.63576">
        <ele>43.5</ele>
        <time>2023-01-27T16:12:37Z</time>
      </trkpt>
      <trkpt lat="47.80998" lon="-3.63573">
        <ele>43.6</ele>
        <time>2023-01-27T16:12:38Z</time>
      </trkpt>
      <trkpt lat="47.81002" lon="-3.6357">
        <ele>43.8</ele>
        <time>2023-01-27T16:12:39Z</time>
      </trkpt>
      <trkpt lat="47.81006" lon="-3.63567">
        <ele>44</ele>
        <time>2023-01-27T16:12:40Z</time>
      </trkpt>
      <trkpt lat="47.81009" lon="-3.63564">
        <ele>44.2</ele>
        <time>2023-01-27T16:12:41Z</time>
      </trkpt>
      <trkpt lat="47.81011" lon="-3.6356">
        <ele>44.3</ele>
        <time>2023-01-27T16:12:42Z</time>
      </trkpt>
      <trkpt lat="47.81014" lon="-3.63557">
        <ele>44.5</ele>
        <time>2023-01-27T16:12:43Z</time>
      </trkpt>
      <trkpt lat="47.81017" lon="-3.63553">
        <ele>44.6</ele>
        <time>2023-01-27T16:12:44Z</time>
      </trkpt>
      <trkpt lat="47.81021" lon="-3.63548">
        <ele>44.9</ele>
        <time>2023-01-27T16:12:45Z</time>
      </trkpt>
      <trkpt lat="47.81027" lon="-3.63541">
        <ele>45.2</ele>
        <time>2023-01-27T16:12:46Z</time>
      </trkpt>
      <trkpt lat="47.81028" lon="-3.63537">
        <ele>45.3</ele>
        <time>2023-01-27T16:12:47Z</time>
      </trkpt>
      <trkpt lat="47.81031" lon="-3.63532">
        <ele>45.5</ele>
        <time>2023-01-27T16:12:48Z</time>
      </trkpt>
      <trkpt lat="47.81035" lon="-3.63526">
        <ele>45.7</ele>
        <time>2023-01-27T16:12:49Z</time>
      </trkpt>
      <trkpt lat="47.81038" lon="-3.63521">
        <ele>45.8</ele>
        <time>2023-01-27T16:12:50Z</time>
      </trkpt>
      <trkpt lat="47.81041" lon="-3.63514">
        <ele>46</ele>
        <time>2023-01-27T16:12:52Z</time>
      </trkpt>
      <trkpt lat="47.81043" lon="-3.63509">
        <ele>46.2</ele>
        <time>2023-01-27T16:12:53Z</time>
      </trkpt>
      <trkpt lat="47.81045" lon="-3.63503">
        <ele>46.3</ele>
        <time>2023-01-27T16:12:54Z</time>
      </trkpt>
      <trkpt lat="47.81047" lon="-3.63497">
        <ele>46.5</ele>
        <time>2023-01-27T16:12:55Z</time>
      </trkpt>
      <trkpt lat="47.8105" lon="-3.63492">
        <ele>46.6</ele>
        <time>2023-01-27T16:12:56Z</time>
      </trkpt>
      <trkpt lat="47.81052" lon="-3.63487">
        <ele>46.7</ele>
        <time>2023-01-27T16:12:57Z</time>
      </trkpt>
      <trkpt lat="47.81054" lon="-3.63482">
        <ele>46.9</ele>
        <time>2023-01-27T16:12:58Z</time>
      </trkpt>
      <trkpt lat="47.81056" lon="-3.63476">
        <ele>47</ele>
        <time>2023-01-27T16:12:59Z</time>
      </trkpt>
      <trkpt lat="47.81058" lon="-3.63471">
        <ele>47.1</ele>
        <time>2023-01-27T16:13:00Z</time>
      </trkpt>
      <trkpt lat="47.81061" lon="-3.63465">
        <ele>47.2</ele>
        <time>2023-01-27T16:13:01Z</time>
      </trkpt>
      <trkpt lat="47.81063" lon="-3.63461">
        <ele>47.2</ele>
        <time>2023-01-27T16:13:02Z</time>
      </trkpt>
      <trkpt lat="47.81065" lon="-3.63455">
        <ele>47.3</ele>
        <time>2023-01-27T16:13:03Z</time>
      </trkpt>
      <trkpt lat="47.81068" lon="-3.63449">
        <ele>47.4</ele>
        <time>2023-01-27T16:13:04Z</time>
      </trkpt>
      <trkpt lat="47.8107" lon="-3.63444">
        <ele>47.5</ele>
        <time>2023-01-27T16:13:05Z</time>
      </trkpt>
      <trkpt lat="47.81073" lon="-3.63435">
        <ele>47.6</ele>
        <time>2023-01-27T16:13:07Z</time>
      </trkpt>
      <trkpt lat="47.81076" lon="-3.6343">
        <ele>47.7</ele>
        <time>2023-01-27T16:13:08Z</time>
      </trkpt>
      <trkpt lat="47.81078" lon="-3.63425">
        <ele>47.8</ele>
        <time>2023-01-27T16:13:09Z</time>
      </trkpt>
      <trkpt lat="47.81082" lon="-3.63415">
        <ele>47.9</ele>
        <time>2023-01-27T16:13:10Z</time>
      </trkpt>
      <trkpt lat="47.81085" lon="-3.63409">
        <ele>48</ele>
        <time>2023-01-27T16:13:12Z</time>
      </trkpt>
      <trkpt lat="47.81087" lon="-3.63403">
        <ele>48.1</ele>
        <time>2023-01-27T16:13:13Z</time>
      </trkpt>
      <trkpt lat="47.81088" lon="-3.63397">
        <ele>48.1</ele>
        <time>2023-01-27T16:13:14Z</time>
      </trkpt>
      <trkpt lat="47.81088" lon="-3.6339">
        <ele>48</ele>
        <time>2023-01-27T16:13:15Z</time>
      </trkpt>
      <trkpt lat="47.81086" lon="-3.63384">
        <ele>47.9</ele>
        <time>2023-01-27T16:13:16Z</time>
      </trkpt>
      <trkpt lat="47.81083" lon="-3.63379">
        <ele>47.8</ele>
        <time>2023-01-27T16:13:17Z</time>
      </trkpt>
      <trkpt lat="47.81078" lon="-3.63375">
        <ele>47.7</ele>
        <time>2023-01-27T16:13:18Z</time>
      </trkpt>
      <trkpt lat="47.81069" lon="-3.63376">
        <ele>47.4</ele>
        <time>2023-01-27T16:13:19Z</time>
      </trkpt>
      <trkpt lat="47.81063" lon="-3.63377">
        <ele>47.2</ele>
        <time>2023-01-27T16:13:20Z</time>
      </trkpt>
      <trkpt lat="47.81058" lon="-3.6338">
        <ele>47</ele>
        <time>2023-01-27T16:13:21Z</time>
      </trkpt>
      <trkpt lat="47.81055" lon="-3.63387">
        <ele>46.8</ele>
        <time>2023-01-27T16:13:22Z</time>
      </trkpt>
      <trkpt lat="47.81051" lon="-3.63393">
        <ele>46.6</ele>
        <time>2023-01-27T16:13:23Z</time>
      </trkpt>
      <trkpt lat="47.81047" lon="-3.63398">
        <ele>46.5</ele>
        <time>2023-01-27T16:13:24Z</time>
      </trkpt>
      <trkpt lat="47.81042" lon="-3.6341">
        <ele>46.1</ele>
        <time>2023-01-27T16:13:26Z</time>
      </trkpt>
      <trkpt lat="47.81037" lon="-3.63414">
        <ele>46</ele>
        <time>2023-01-27T16:13:27Z</time>
      </trkpt>
      <trkpt lat="47.81032" lon="-3.63414">
        <ele>45.8</ele>
        <time>2023-01-27T16:13:28Z</time>
      </trkpt>
      <trkpt lat="47.81026" lon="-3.63413">
        <ele>45.6</ele>
        <time>2023-01-27T16:13:29Z</time>
      </trkpt>
      <trkpt lat="47.8102" lon="-3.63412">
        <ele>45.4</ele>
        <time>2023-01-27T16:13:30Z</time>
      </trkpt>
      <trkpt lat="47.81014" lon="-3.63411">
        <ele>45.2</ele>
        <time>2023-01-27T16:13:31Z</time>
      </trkpt>
      <trkpt lat="47.81008" lon="-3.63408">
        <ele>45.2</ele>
        <time>2023-01-27T16:13:32Z</time>
      </trkpt>
      <trkpt lat="47.81003" lon="-3.63402">
        <ele>45.2</ele>
        <time>2023-01-27T16:13:33Z</time>
      </trkpt>
      <trkpt lat="47.81" lon="-3.63393">
        <ele>45.2</ele>
        <time>2023-01-27T16:13:34Z</time>
      </trkpt>
      <trkpt lat="47.81" lon="-3.63383">
        <ele>45.2</ele>
        <time>2023-01-27T16:13:35Z</time>
      </trkpt>
      <trkpt lat="47.81001" lon="-3.63374">
        <ele>45.2</ele>
        <time>2023-01-27T16:13:36Z</time>
      </trkpt>
      <trkpt lat="47.81002" lon="-3.63365">
        <ele>45.2</ele>
        <time>2023-01-27T16:13:37Z</time>
      </trkpt>
      <trkpt lat="47.81003" lon="-3.63357">
        <ele>45.2</ele>
        <time>2023-01-27T16:13:38Z</time>
      </trkpt>
      <trkpt lat="47.81005" lon="-3.63349">
        <ele>45.2</ele>
        <time>2023-01-27T16:13:39Z</time>
      </trkpt>
      <trkpt lat="47.81005" lon="-3.63343">
        <ele>45.2</ele>
        <time>2023-01-27T16:13:40Z</time>
      </trkpt>
      <trkpt lat="47.81004" lon="-3.63338">
        <ele>45.2</ele>
        <time>2023-01-27T16:13:41Z</time>
      </trkpt>
      <trkpt lat="47.81003" lon="-3.63336">
        <ele>45.2</ele>
        <time>2023-01-27T16:13:42Z</time>
      </trkpt>
      <trkpt lat="47.80999" lon="-3.63334">
        <ele>45.2</ele>
        <time>2023-01-27T16:13:43Z</time>
      </trkpt>
      <trkpt lat="47.80993" lon="-3.63332">
        <ele>45.1</ele>
        <time>2023-01-27T16:13:44Z</time>
      </trkpt>
      <trkpt lat="47.80987" lon="-3.63331">
        <ele>45.1</ele>
        <time>2023-01-27T16:13:45Z</time>
      </trkpt>
      <trkpt lat="47.80983" lon="-3.63331">
        <ele>45.1</ele>
        <time>2023-01-27T16:13:46Z</time>
      </trkpt>
      <trkpt lat="47.80979" lon="-3.63331">
        <ele>45.1</ele>
        <time>2023-01-27T16:13:47Z</time>
      </trkpt>
      <trkpt lat="47.80975" lon="-3.6333">
        <ele>45.1</ele>
        <time>2023-01-27T16:13:48Z</time>
      </trkpt>
      <trkpt lat="47.8097" lon="-3.63329">
        <ele>45.1</ele>
        <time>2023-01-27T16:13:49Z</time>
      </trkpt>
      <trkpt lat="47.80967" lon="-3.63325">
        <ele>44.8</ele>
        <time>2023-01-27T16:13:50Z</time>
      </trkpt>
      <trkpt lat="47.80965" lon="-3.63323">
        <ele>44.6</ele>
        <time>2023-01-27T16:13:51Z</time>
      </trkpt>
      <trkpt lat="47.80962" lon="-3.63318">
        <ele>44.3</ele>
        <time>2023-01-27T16:13:52Z</time>
      </trkpt>
      <trkpt lat="47.80961" lon="-3.63311">
        <ele>44</ele>
        <time>2023-01-27T16:13:54Z</time>
      </trkpt>
      <trkpt lat="47.80962" lon="-3.63307">
        <ele>43.8</ele>
        <time>2023-01-27T16:13:55Z</time>
      </trkpt>
      <trkpt lat="47.80964" lon="-3.63304">
        <ele>43.6</ele>
        <time>2023-01-27T16:13:56Z</time>
      </trkpt>
      <trkpt lat="47.80965" lon="-3.63299">
        <ele>43.4</ele>
        <time>2023-01-27T16:13:57Z</time>
      </trkpt>
      <trkpt lat="47.80965" lon="-3.63297">
        <ele>43.3</ele>
        <time>2023-01-27T16:13:58Z</time>
      </trkpt>
      <trkpt lat="47.80965" lon="-3.63293">
        <ele>43.1</ele>
        <time>2023-01-27T16:13:59Z</time>
      </trkpt>
      <trkpt lat="47.80965" lon="-3.63289">
        <ele>43</ele>
        <time>2023-01-27T16:14:00Z</time>
      </trkpt>
      <trkpt lat="47.80963" lon="-3.63287">
        <ele>43</ele>
        <time>2023-01-27T16:14:01Z</time>
      </trkpt>
      <trkpt lat="47.80962" lon="-3.63287">
        <ele>43</ele>
        <time>2023-01-27T16:14:02Z</time>
      </trkpt>
      <trkpt lat="47.80959" lon="-3.6329">
        <ele>43</ele>
        <time>2023-01-27T16:14:03Z</time>
      </trkpt>
      <trkpt lat="47.80959" lon="-3.63291">
        <ele>43</ele>
        <time>2023-01-27T16:14:04Z</time>
      </trkpt>
      <trkpt lat="47.80957" lon="-3.63292">
        <ele>43</ele>
        <time>2023-01-27T16:14:05Z</time>
      </trkpt>
      <trkpt lat="47.80956" lon="-3.63293">
        <ele>43.1</ele>
        <time>2023-01-27T16:14:06Z</time>
      </trkpt>
      <trkpt lat="47.80955" lon="-3.63293">
        <ele>43</ele>
        <time>2023-01-27T16:14:07Z</time>
      </trkpt>
      <trkpt lat="47.80955" lon="-3.63295">
        <ele>43</ele>
        <time>2023-01-27T16:14:08Z</time>
      </trkpt>
      <trkpt lat="47.80955" lon="-3.63295">
        <ele>43</ele>
        <time>2023-01-27T16:14:09Z</time>
      </trkpt>
      <trkpt lat="47.80955" lon="-3.63295">
        <ele>43</ele>
        <time>2023-01-27T16:14:10Z</time>
      </trkpt>
      <trkpt lat="47.80955" lon="-3.63295">
        <ele>43</ele>
        <time>2023-01-27T16:14:11Z</time>
      </trkpt>
      <trkpt lat="47.80954" lon="-3.63295">
        <ele>43</ele>
        <time>2023-01-27T16:14:12Z</time>
      </trkpt>
      <trkpt lat="47.80953" lon="-3.63295">
        <ele>43</ele>
        <time>2023-01-27T16:14:13Z</time>
      </trkpt>
      <trkpt lat="47.80952" lon="-3.63295">
        <ele>43</ele>
        <time>2023-01-27T16:14:14Z</time>
      </trkpt>
      <trkpt lat="47.80951" lon="-3.63293">
        <ele>42.8</ele>
        <time>2023-01-27T16:14:39Z</time>
        <extensions>
          <visugpx:TrkExtension xmlns:visugpx="https://www.visugpx.com/editgpx/">
            <visugpx:node>7</visugpx:node>
            </visugpx:TrkExtension>
        </extensions>
      </trkpt>
      <trkpt lat="47.80951" lon="-3.63293">
        <ele>42.8</ele>
        <time>2023-01-27T16:14:40Z</time>
      </trkpt>
      <trkpt lat="47.80952" lon="-3.63292">
        <ele>42.8</ele>
        <time>2023-01-27T16:14:41Z</time>
      </trkpt>
      <trkpt lat="47.80953" lon="-3.63292">
        <ele>42.8</ele>
        <time>2023-01-27T16:14:42Z</time>
      </trkpt>
      <trkpt lat="47.80953" lon="-3.63291">
        <ele>42.8</ele>
        <time>2023-01-27T16:14:43Z</time>
      </trkpt>
      <trkpt lat="47.80953" lon="-3.6329">
        <ele>42.7</ele>
        <time>2023-01-27T16:14:44Z</time>
      </trkpt>
      <trkpt lat="47.80952" lon="-3.63286">
        <ele>42.7</ele>
        <time>2023-01-27T16:14:45Z</time>
      </trkpt>
      <trkpt lat="47.80952" lon="-3.63284">
        <ele>42.7</ele>
        <time>2023-01-27T16:14:46Z</time>
      </trkpt>
      <trkpt lat="47.80951" lon="-3.63279">
        <ele>42.7</ele>
        <time>2023-01-27T16:14:47Z</time>
      </trkpt>
      <trkpt lat="47.8095" lon="-3.63273">
        <ele>42.7</ele>
        <time>2023-01-27T16:14:49Z</time>
      </trkpt>
      <trkpt lat="47.80949" lon="-3.63269">
        <ele>42.7</ele>
        <time>2023-01-27T16:14:50Z</time>
      </trkpt>
      <trkpt lat="47.80948" lon="-3.63264">
        <ele>42.7</ele>
        <time>2023-01-27T16:14:51Z</time>
      </trkpt>
      <trkpt lat="47.80947" lon="-3.6326">
        <ele>42.7</ele>
        <time>2023-01-27T16:14:52Z</time>
      </trkpt>
      <trkpt lat="47.80947" lon="-3.63254">
        <ele>42.7</ele>
        <time>2023-01-27T16:14:53Z</time>
      </trkpt>
      <trkpt lat="47.80947" lon="-3.63251">
        <ele>42.7</ele>
        <time>2023-01-27T16:14:54Z</time>
      </trkpt>
      <trkpt lat="47.80947" lon="-3.63246">
        <ele>42.7</ele>
        <time>2023-01-27T16:14:55Z</time>
      </trkpt>
      <trkpt lat="47.80947" lon="-3.63244">
        <ele>42.7</ele>
        <time>2023-01-27T16:14:56Z</time>
      </trkpt>
      <trkpt lat="47.80946" lon="-3.63238">
        <ele>42.7</ele>
        <time>2023-01-27T16:14:57Z</time>
      </trkpt>
      <trkpt lat="47.80946" lon="-3.63234">
        <ele>42.7</ele>
        <time>2023-01-27T16:14:58Z</time>
      </trkpt>
      <trkpt lat="47.80945" lon="-3.63228">
        <ele>42.7</ele>
        <time>2023-01-27T16:14:59Z</time>
      </trkpt>
      <trkpt lat="47.80944" lon="-3.63226">
        <ele>42.7</ele>
        <time>2023-01-27T16:15:00Z</time>
      </trkpt>
      <trkpt lat="47.80944" lon="-3.63221">
        <ele>42.7</ele>
        <time>2023-01-27T16:15:01Z</time>
      </trkpt>
      <trkpt lat="47.80944" lon="-3.63216">
        <ele>42.7</ele>
        <time>2023-01-27T16:15:02Z</time>
      </trkpt>
      <trkpt lat="47.80944" lon="-3.63214">
        <ele>42.7</ele>
        <time>2023-01-27T16:15:03Z</time>
      </trkpt>
      <trkpt lat="47.80945" lon="-3.63208">
        <ele>42.7</ele>
        <time>2023-01-27T16:15:04Z</time>
      </trkpt>
      <trkpt lat="47.80944" lon="-3.63204">
        <ele>42.7</ele>
        <time>2023-01-27T16:15:06Z</time>
      </trkpt>
      <trkpt lat="47.80943" lon="-3.63199">
        <ele>42.7</ele>
        <time>2023-01-27T16:15:07Z</time>
      </trkpt>
      <trkpt lat="47.80943" lon="-3.63194">
        <ele>42.7</ele>
        <time>2023-01-27T16:15:08Z</time>
      </trkpt>
      <trkpt lat="47.80942" lon="-3.63189">
        <ele>42.7</ele>
        <time>2023-01-27T16:15:09Z</time>
      </trkpt>
      <trkpt lat="47.8094" lon="-3.63185">
        <ele>42.7</ele>
        <time>2023-01-27T16:15:10Z</time>
      </trkpt>
      <trkpt lat="47.80939" lon="-3.6318">
        <ele>42.7</ele>
        <time>2023-01-27T16:15:11Z</time>
      </trkpt>
      <trkpt lat="47.80938" lon="-3.63174">
        <ele>42.8</ele>
        <time>2023-01-27T16:15:12Z</time>
      </trkpt>
      <trkpt lat="47.80937" lon="-3.63169">
        <ele>42.8</ele>
        <time>2023-01-27T16:15:13Z</time>
      </trkpt>
      <trkpt lat="47.80937" lon="-3.63164">
        <ele>42.8</ele>
        <time>2023-01-27T16:15:14Z</time>
      </trkpt>
      <trkpt lat="47.80937" lon="-3.6316">
        <ele>42.8</ele>
        <time>2023-01-27T16:15:15Z</time>
      </trkpt>
      <trkpt lat="47.80938" lon="-3.63155">
        <ele>42.8</ele>
        <time>2023-01-27T16:15:16Z</time>
      </trkpt>
      <trkpt lat="47.80938" lon="-3.63151">
        <ele>42.8</ele>
        <time>2023-01-27T16:15:17Z</time>
      </trkpt>
      <trkpt lat="47.80939" lon="-3.63147">
        <ele>42.8</ele>
        <time>2023-01-27T16:15:18Z</time>
      </trkpt>
      <trkpt lat="47.80939" lon="-3.63142">
        <ele>42.8</ele>
        <time>2023-01-27T16:15:19Z</time>
      </trkpt>
      <trkpt lat="47.80939" lon="-3.63137">
        <ele>42.8</ele>
        <time>2023-01-27T16:15:20Z</time>
      </trkpt>
      <trkpt lat="47.80937" lon="-3.63133">
        <ele>42.8</ele>
        <time>2023-01-27T16:15:21Z</time>
      </trkpt>
      <trkpt lat="47.80936" lon="-3.63129">
        <ele>42.8</ele>
        <time>2023-01-27T16:15:22Z</time>
      </trkpt>
      <trkpt lat="47.80935" lon="-3.63125">
        <ele>42.8</ele>
        <time>2023-01-27T16:15:23Z</time>
      </trkpt>
      <trkpt lat="47.80934" lon="-3.6312">
        <ele>42.8</ele>
        <time>2023-01-27T16:15:24Z</time>
      </trkpt>
      <trkpt lat="47.80933" lon="-3.63115">
        <ele>42.8</ele>
        <time>2023-01-27T16:15:25Z</time>
      </trkpt>
      <trkpt lat="47.80932" lon="-3.63108">
        <ele>42.8</ele>
        <time>2023-01-27T16:15:26Z</time>
      </trkpt>
      <trkpt lat="47.80931" lon="-3.63101">
        <ele>42.9</ele>
        <time>2023-01-27T16:15:27Z</time>
      </trkpt>
      <trkpt lat="47.8093" lon="-3.63092">
        <ele>42.9</ele>
        <time>2023-01-27T16:15:28Z</time>
      </trkpt>
      <trkpt lat="47.80929" lon="-3.63081">
        <ele>42.9</ele>
        <time>2023-01-27T16:15:30Z</time>
      </trkpt>
      <trkpt lat="47.80928" lon="-3.63071">
        <ele>43</ele>
        <time>2023-01-27T16:15:32Z</time>
      </trkpt>
      <trkpt lat="47.80928" lon="-3.63062">
        <ele>43</ele>
        <time>2023-01-27T16:15:34Z</time>
      </trkpt>
      <trkpt lat="47.80929" lon="-3.63054">
        <ele>43</ele>
        <time>2023-01-27T16:15:36Z</time>
      </trkpt>
      <trkpt lat="47.8093" lon="-3.63044">
        <ele>43.1</ele>
        <time>2023-01-27T16:15:37Z</time>
      </trkpt>
      <trkpt lat="47.80928" lon="-3.63033">
        <ele>43.1</ele>
        <time>2023-01-27T16:15:39Z</time>
      </trkpt>
      <trkpt lat="47.80927" lon="-3.63028">
        <ele>43.1</ele>
        <time>2023-01-27T16:15:40Z</time>
      </trkpt>
      <trkpt lat="47.80927" lon="-3.63022">
        <ele>43.2</ele>
        <time>2023-01-27T16:15:42Z</time>
      </trkpt>
      <trkpt lat="47.80926" lon="-3.63017">
        <ele>43.1</ele>
        <time>2023-01-27T16:15:43Z</time>
      </trkpt>
      <trkpt lat="47.80926" lon="-3.6301">
        <ele>43</ele>
        <time>2023-01-27T16:15:44Z</time>
      </trkpt>
      <trkpt lat="47.80926" lon="-3.63005">
        <ele>43</ele>
        <time>2023-01-27T16:15:45Z</time>
      </trkpt>
      <trkpt lat="47.80925" lon="-3.63001">
        <ele>42.9</ele>
        <time>2023-01-27T16:15:46Z</time>
      </trkpt>
      <trkpt lat="47.80926" lon="-3.62995">
        <ele>42.9</ele>
        <time>2023-01-27T16:15:47Z</time>
      </trkpt>
      <trkpt lat="47.80928" lon="-3.62987">
        <ele>42.8</ele>
        <time>2023-01-27T16:15:48Z</time>
      </trkpt>
      <trkpt lat="47.80929" lon="-3.62983">
        <ele>42.8</ele>
        <time>2023-01-27T16:15:49Z</time>
      </trkpt>
      <trkpt lat="47.80931" lon="-3.62976">
        <ele>42.7</ele>
        <time>2023-01-27T16:15:50Z</time>
      </trkpt>
      <trkpt lat="47.80934" lon="-3.62968">
        <ele>42.7</ele>
        <time>2023-01-27T16:15:52Z</time>
      </trkpt>
      <trkpt lat="47.80939" lon="-3.62957">
        <ele>42.6</ele>
        <time>2023-01-27T16:15:53Z</time>
      </trkpt>
      <trkpt lat="47.80944" lon="-3.62948">
        <ele>42.5</ele>
        <time>2023-01-27T16:15:55Z</time>
      </trkpt>
      <trkpt lat="47.80948" lon="-3.62944">
        <ele>42.6</ele>
        <time>2023-01-27T16:15:57Z</time>
      </trkpt>
      <trkpt lat="47.8095" lon="-3.6294">
        <ele>42.6</ele>
        <time>2023-01-27T16:15:58Z</time>
      </trkpt>
      <trkpt lat="47.80953" lon="-3.62938">
        <ele>42.7</ele>
        <time>2023-01-27T16:15:59Z</time>
      </trkpt>
      <trkpt lat="47.80957" lon="-3.62935">
        <ele>42.8</ele>
        <time>2023-01-27T16:16:00Z</time>
      </trkpt>
      <trkpt lat="47.80959" lon="-3.62934">
        <ele>42.9</ele>
        <time>2023-01-27T16:16:01Z</time>
      </trkpt>
      <trkpt lat="47.80963" lon="-3.62931">
        <ele>43.1</ele>
        <time>2023-01-27T16:16:02Z</time>
      </trkpt>
      <trkpt lat="47.80966" lon="-3.6293">
        <ele>43.2</ele>
        <time>2023-01-27T16:16:03Z</time>
      </trkpt>
      <trkpt lat="47.80968" lon="-3.62927">
        <ele>43.4</ele>
        <time>2023-01-27T16:16:04Z</time>
      </trkpt>
      <trkpt lat="47.80971" lon="-3.62925">
        <ele>43.5</ele>
        <time>2023-01-27T16:16:05Z</time>
      </trkpt>
      <trkpt lat="47.80973" lon="-3.6292">
        <ele>43.7</ele>
        <time>2023-01-27T16:16:06Z</time>
      </trkpt>
      <trkpt lat="47.80975" lon="-3.62918">
        <ele>43.8</ele>
        <time>2023-01-27T16:16:07Z</time>
      </trkpt>
      <trkpt lat="47.80978" lon="-3.62915">
        <ele>44</ele>
        <time>2023-01-27T16:16:08Z</time>
      </trkpt>
      <trkpt lat="47.80979" lon="-3.62914">
        <ele>44</ele>
        <time>2023-01-27T16:16:09Z</time>
      </trkpt>
      <trkpt lat="47.80981" lon="-3.62911">
        <ele>44.2</ele>
        <time>2023-01-27T16:16:10Z</time>
      </trkpt>
      <trkpt lat="47.80985" lon="-3.62909">
        <ele>44.5</ele>
        <time>2023-01-27T16:16:11Z</time>
      </trkpt>
      <trkpt lat="47.80988" lon="-3.62909">
        <ele>44.6</ele>
        <time>2023-01-27T16:16:12Z</time>
      </trkpt>
      <trkpt lat="47.80992" lon="-3.62912">
        <ele>44.8</ele>
        <time>2023-01-27T16:16:13Z</time>
      </trkpt>
      <trkpt lat="47.80994" lon="-3.62914">
        <ele>44.9</ele>
        <time>2023-01-27T16:16:14Z</time>
      </trkpt>
      <trkpt lat="47.80996" lon="-3.62918">
        <ele>45.1</ele>
        <time>2023-01-27T16:16:15Z</time>
      </trkpt>
      <trkpt lat="47.80999" lon="-3.62922">
        <ele>45.3</ele>
        <time>2023-01-27T16:16:16Z</time>
      </trkpt>
      <trkpt lat="47.81002" lon="-3.62925">
        <ele>45.4</ele>
        <time>2023-01-27T16:16:17Z</time>
      </trkpt>
      <trkpt lat="47.81007" lon="-3.62929">
        <ele>45.7</ele>
        <time>2023-01-27T16:16:19Z</time>
      </trkpt>
      <trkpt lat="47.81009" lon="-3.62931">
        <ele>45.8</ele>
        <time>2023-01-27T16:16:20Z</time>
      </trkpt>
      <trkpt lat="47.81011" lon="-3.62934">
        <ele>45.9</ele>
        <time>2023-01-27T16:16:21Z</time>
      </trkpt>
      <trkpt lat="47.81015" lon="-3.62938">
        <ele>46.1</ele>
        <time>2023-01-27T16:16:23Z</time>
      </trkpt>
      <trkpt lat="47.81017" lon="-3.62939">
        <ele>46.2</ele>
        <time>2023-01-27T16:16:24Z</time>
      </trkpt>
      <trkpt lat="47.81019" lon="-3.62941">
        <ele>46.3</ele>
        <time>2023-01-27T16:16:26Z</time>
      </trkpt>
      <trkpt lat="47.81022" lon="-3.62944">
        <ele>46.4</ele>
        <time>2023-01-27T16:16:27Z</time>
      </trkpt>
      <trkpt lat="47.81024" lon="-3.62946">
        <ele>46.5</ele>
        <time>2023-01-27T16:16:28Z</time>
      </trkpt>
      <trkpt lat="47.81027" lon="-3.6295">
        <ele>46.6</ele>
        <time>2023-01-27T16:16:30Z</time>
      </trkpt>
      <trkpt lat="47.81029" lon="-3.62954">
        <ele>46.8</ele>
        <time>2023-01-27T16:16:31Z</time>
      </trkpt>
      <trkpt lat="47.81031" lon="-3.62955">
        <ele>46.8</ele>
        <time>2023-01-27T16:16:32Z</time>
      </trkpt>
      <trkpt lat="47.81034" lon="-3.62958">
        <ele>46.9</ele>
        <time>2023-01-27T16:16:33Z</time>
      </trkpt>
      <trkpt lat="47.81036" lon="-3.6296">
        <ele>47</ele>
        <time>2023-01-27T16:16:34Z</time>
      </trkpt>
      <trkpt lat="47.81039" lon="-3.62964">
        <ele>47.2</ele>
        <time>2023-01-27T16:16:35Z</time>
      </trkpt>
      <trkpt lat="47.8104" lon="-3.62965">
        <ele>47.2</ele>
        <time>2023-01-27T16:16:36Z</time>
      </trkpt>
      <trkpt lat="47.81043" lon="-3.62968">
        <ele>47.3</ele>
        <time>2023-01-27T16:16:37Z</time>
      </trkpt>
      <trkpt lat="47.81046" lon="-3.62971">
        <ele>47.4</ele>
        <time>2023-01-27T16:16:38Z</time>
      </trkpt>
      <trkpt lat="47.81049" lon="-3.62973">
        <ele>47.5</ele>
        <time>2023-01-27T16:16:39Z</time>
      </trkpt>
      <trkpt lat="47.8105" lon="-3.62974">
        <ele>47.6</ele>
        <time>2023-01-27T16:16:40Z</time>
      </trkpt>
      <trkpt lat="47.81054" lon="-3.62978">
        <ele>47.7</ele>
        <time>2023-01-27T16:16:41Z</time>
      </trkpt>
      <trkpt lat="47.81057" lon="-3.6298">
        <ele>47.8</ele>
        <time>2023-01-27T16:16:42Z</time>
      </trkpt>
      <trkpt lat="47.8106" lon="-3.62983">
        <ele>47.9</ele>
        <time>2023-01-27T16:16:43Z</time>
      </trkpt>
      <trkpt lat="47.81063" lon="-3.62985">
        <ele>48</ele>
        <time>2023-01-27T16:16:45Z</time>
      </trkpt>
      <trkpt lat="47.81067" lon="-3.62989">
        <ele>48.2</ele>
        <time>2023-01-27T16:16:46Z</time>
      </trkpt>
      <trkpt lat="47.81068" lon="-3.6299">
        <ele>48.2</ele>
        <time>2023-01-27T16:16:47Z</time>
      </trkpt>
      <trkpt lat="47.81071" lon="-3.62993">
        <ele>48.3</ele>
        <time>2023-01-27T16:16:48Z</time>
      </trkpt>
      <trkpt lat="47.81075" lon="-3.62995">
        <ele>48.6</ele>
        <time>2023-01-27T16:16:49Z</time>
      </trkpt>
      <trkpt lat="47.81077" lon="-3.62997">
        <ele>48.6</ele>
        <time>2023-01-27T16:16:51Z</time>
      </trkpt>
      <trkpt lat="47.81079" lon="-3.62998">
        <ele>48.6</ele>
        <time>2023-01-27T16:16:52Z</time>
      </trkpt>
      <trkpt lat="47.81079" lon="-3.62999">
        <ele>48.6</ele>
        <time>2023-01-27T16:16:53Z</time>
      </trkpt>
      <trkpt lat="47.81079" lon="-3.63001">
        <ele>48.6</ele>
        <time>2023-01-27T16:16:54Z</time>
      </trkpt>
      <trkpt lat="47.8108" lon="-3.63003">
        <ele>48.6</ele>
        <time>2023-01-27T16:16:55Z</time>
      </trkpt>
      <trkpt lat="47.8108" lon="-3.63006">
        <ele>49.4</ele>
        <time>2023-01-27T16:16:56Z</time>
      </trkpt>
      <trkpt lat="47.81079" lon="-3.6301">
        <ele>49.4</ele>
        <time>2023-01-27T16:16:57Z</time>
      </trkpt>
      <trkpt lat="47.81078" lon="-3.63014">
        <ele>49.5</ele>
        <time>2023-01-27T16:16:58Z</time>
      </trkpt>
      <trkpt lat="47.81079" lon="-3.63018">
        <ele>49.5</ele>
        <time>2023-01-27T16:16:59Z</time>
      </trkpt>
      <trkpt lat="47.81081" lon="-3.63022">
        <ele>49.6</ele>
        <time>2023-01-27T16:17:00Z</time>
      </trkpt>
      <trkpt lat="47.81084" lon="-3.63023">
        <ele>49.6</ele>
        <time>2023-01-27T16:17:01Z</time>
      </trkpt>
      <trkpt lat="47.81085" lon="-3.63023">
        <ele>49.6</ele>
        <time>2023-01-27T16:17:02Z</time>
      </trkpt>
      <trkpt lat="47.81087" lon="-3.63027">
        <ele>49.7</ele>
        <time>2023-01-27T16:17:03Z</time>
      </trkpt>
      <trkpt lat="47.81088" lon="-3.63032">
        <ele>49.8</ele>
        <time>2023-01-27T16:17:04Z</time>
      </trkpt>
      <trkpt lat="47.8109" lon="-3.63041">
        <ele>49.9</ele>
        <time>2023-01-27T16:17:06Z</time>
      </trkpt>
      <trkpt lat="47.81092" lon="-3.63046">
        <ele>49.9</ele>
        <time>2023-01-27T16:17:07Z</time>
      </trkpt>
      <trkpt lat="47.81094" lon="-3.63051">
        <ele>50</ele>
        <time>2023-01-27T16:17:08Z</time>
      </trkpt>
      <trkpt lat="47.81095" lon="-3.63056">
        <ele>50.1</ele>
        <time>2023-01-27T16:17:09Z</time>
      </trkpt>
      <trkpt lat="47.81097" lon="-3.63061">
        <ele>50.1</ele>
        <time>2023-01-27T16:17:10Z</time>
      </trkpt>
      <trkpt lat="47.81099" lon="-3.63066">
        <ele>50.2</ele>
        <time>2023-01-27T16:17:11Z</time>
      </trkpt>
      <trkpt lat="47.81101" lon="-3.63071">
        <ele>50.2</ele>
        <time>2023-01-27T16:17:12Z</time>
      </trkpt>
      <trkpt lat="47.81103" lon="-3.63077">
        <ele>50.3</ele>
        <time>2023-01-27T16:17:13Z</time>
      </trkpt>
      <trkpt lat="47.81104" lon="-3.63084">
        <ele>50.3</ele>
        <time>2023-01-27T16:17:14Z</time>
      </trkpt>
      <trkpt lat="47.81106" lon="-3.6309">
        <ele>50.4</ele>
        <time>2023-01-27T16:17:15Z</time>
      </trkpt>
      <trkpt lat="47.81108" lon="-3.63096">
        <ele>50.5</ele>
        <time>2023-01-27T16:17:16Z</time>
      </trkpt>
      <trkpt lat="47.81111" lon="-3.63102">
        <ele>50.5</ele>
        <time>2023-01-27T16:17:17Z</time>
      </trkpt>
      <trkpt lat="47.81114" lon="-3.63106">
        <ele>50.6</ele>
        <time>2023-01-27T16:17:18Z</time>
      </trkpt>
      <trkpt lat="47.81117" lon="-3.6311">
        <ele>50.6</ele>
        <time>2023-01-27T16:17:19Z</time>
      </trkpt>
      <trkpt lat="47.81121" lon="-3.63114">
        <ele>50.7</ele>
        <time>2023-01-27T16:17:20Z</time>
      </trkpt>
      <trkpt lat="47.81124" lon="-3.63118">
        <ele>50.7</ele>
        <time>2023-01-27T16:17:21Z</time>
      </trkpt>
      <trkpt lat="47.81128" lon="-3.63119">
        <ele>50.8</ele>
        <time>2023-01-27T16:17:22Z</time>
      </trkpt>
      <trkpt lat="47.81131" lon="-3.63119">
        <ele>50.8</ele>
        <time>2023-01-27T16:17:23Z</time>
      </trkpt>
      <trkpt lat="47.81133" lon="-3.63119">
        <ele>50.8</ele>
        <time>2023-01-27T16:17:24Z</time>
      </trkpt>
      <trkpt lat="47.81137" lon="-3.63122">
        <ele>50.9</ele>
        <time>2023-01-27T16:17:25Z</time>
      </trkpt>
      <trkpt lat="47.81142" lon="-3.63125">
        <ele>51</ele>
        <time>2023-01-27T16:17:26Z</time>
      </trkpt>
      <trkpt lat="47.81144" lon="-3.63126">
        <ele>51</ele>
        <time>2023-01-27T16:17:27Z</time>
      </trkpt>
      <trkpt lat="47.81149" lon="-3.63129">
        <ele>51.1</ele>
        <time>2023-01-27T16:17:29Z</time>
      </trkpt>
      <trkpt lat="47.81152" lon="-3.6313">
        <ele>51.2</ele>
        <time>2023-01-27T16:17:30Z</time>
      </trkpt>
      <trkpt lat="47.81156" lon="-3.63133">
        <ele>51.2</ele>
        <time>2023-01-27T16:17:31Z</time>
      </trkpt>
      <trkpt lat="47.81159" lon="-3.63137">
        <ele>51.3</ele>
        <time>2023-01-27T16:17:32Z</time>
      </trkpt>
      <trkpt lat="47.81168" lon="-3.63143">
        <ele>51.4</ele>
        <time>2023-01-27T16:17:34Z</time>
      </trkpt>
      <trkpt lat="47.81172" lon="-3.63144">
        <ele>51.5</ele>
        <time>2023-01-27T16:17:36Z</time>
      </trkpt>
      <trkpt lat="47.81176" lon="-3.63145">
        <ele>51.5</ele>
        <time>2023-01-27T16:17:37Z</time>
      </trkpt>
      <trkpt lat="47.8118" lon="-3.63145">
        <ele>51.5</ele>
        <time>2023-01-27T16:17:38Z</time>
      </trkpt>
      <trkpt lat="47.81184" lon="-3.63146">
        <ele>51.6</ele>
        <time>2023-01-27T16:17:39Z</time>
      </trkpt>
      <trkpt lat="47.81188" lon="-3.63146">
        <ele>51.6</ele>
        <time>2023-01-27T16:17:40Z</time>
      </trkpt>
      <trkpt lat="47.81192" lon="-3.63147">
        <ele>51.6</ele>
        <time>2023-01-27T16:17:41Z</time>
      </trkpt>
      <trkpt lat="47.81196" lon="-3.63147">
        <ele>51.6</ele>
        <time>2023-01-27T16:17:42Z</time>
      </trkpt>
      <trkpt lat="47.812" lon="-3.63147">
        <ele>51.7</ele>
        <time>2023-01-27T16:17:43Z</time>
      </trkpt>
      <trkpt lat="47.81203" lon="-3.63146">
        <ele>51.7</ele>
        <time>2023-01-27T16:17:44Z</time>
      </trkpt>
      <trkpt lat="47.81206" lon="-3.63145">
        <ele>51.7</ele>
        <time>2023-01-27T16:17:45Z</time>
      </trkpt>
      <trkpt lat="47.81208" lon="-3.63146">
        <ele>51.7</ele>
        <time>2023-01-27T16:17:46Z</time>
      </trkpt>
      <trkpt lat="47.81209" lon="-3.63146">
        <ele>51.7</ele>
        <time>2023-01-27T16:17:47Z</time>
      </trkpt>
      <trkpt lat="47.81208" lon="-3.63146">
        <ele>51.7</ele>
        <time>2023-01-27T16:17:48Z</time>
      </trkpt>
      <trkpt lat="47.81207" lon="-3.63147">
        <ele>51.7</ele>
        <time>2023-01-27T16:17:49Z</time>
      </trkpt>
      <trkpt lat="47.81207" lon="-3.63147">
        <ele>51.7</ele>
        <time>2023-01-27T16:17:50Z</time>
      </trkpt>
      <trkpt lat="47.81207" lon="-3.63147">
        <ele>51.7</ele>
        <time>2023-01-27T16:17:51Z</time>
      </trkpt>
      <trkpt lat="47.81207" lon="-3.63147">
        <ele>51.7</ele>
        <time>2023-01-27T16:17:52Z</time>
      </trkpt>
      <trkpt lat="47.81207" lon="-3.63147">
        <ele>51.7</ele>
        <time>2023-01-27T16:17:54Z</time>
      </trkpt>
      <trkpt lat="47.81207" lon="-3.63147">
        <ele>51.7</ele>
        <time>2023-01-27T16:17:55Z</time>
      </trkpt>
      <trkpt lat="47.81207" lon="-3.63147">
        <ele>51.7</ele>
        <time>2023-01-27T16:17:56Z</time>
      </trkpt>
      <trkpt lat="47.81207" lon="-3.63147">
        <ele>51.7</ele>
        <time>2023-01-27T16:17:57Z</time>
        <extensions>
          <visugpx:TrkExtension xmlns:visugpx="https://www.visugpx.com/editgpx/">
            <visugpx:node>8</visugpx:node>
            </visugpx:TrkExtension>
        </extensions>
      </trkpt>
    </trkseg>
  </trk>
</gpx>